<?xml version="1.0" encoding="UTF-8"?>
<gpx version="1.1" creator="https://www.www-youtrack-es.amenigma.com" xsi:schemaLocation="http://www.topografix.com/GPX/1/1 http://www.topografix.com/GPX/1/1/gpx.xsd http://www.garmin.com/xmlschemas/GpxExtensions/v3 http://www.garmin.com/xmlschemas/GpxExtensionsv3.xsd http://www.garmin.com/xmlschemas/TrackPointExtension/v1 http://www.garmin.com/xmlschemas/TrackPointExtensionv1.xsd" xmlns:gpxtpx="http://www.garmin.com/xmlschemas/TrackPointExtension/v1" xmlns:gpxx="http://www.garmin.com/xmlschemas/GpxExtensions/v3" xmlns:xsi="http://www.w3.org/2001/XMLSchema-instance">
  <metadata>
    <author>
      <name>Alberto O.M.</name>
      <email id="alberto.ongil" domain="gmail.com"/>
    </author>
    <link href="https://www.www-youtrack-es.amenigma.com">
      <text>YouTrack.es</text>
    </link>
    <time>2026-09-01T13:55:28Z</time>
  </metadata>
  <trk>
    <src>https://www.www-youtrack-es.amenigma.com</src>
    <link href="https://www.www-youtrack-es.amenigma.com/ruta/2063-riaza-tam-cog-jad-torija">
      <text>YouTrack.es</text>
    </link>
    <trkseg>
      <trkpt lat="41.278184" lon="-3.484508">
        <ele>1272.876</ele>
        <time>2016-07-20T14:41:39Z</time>
      </trkpt>
      <trkpt lat="41.278096" lon="-3.484463">
        <ele>1272.190</ele>
        <time>2016-07-20T14:42:15Z</time>
      </trkpt>
      <trkpt lat="41.278037" lon="-3.484364">
        <ele>1269.319</ele>
        <time>2016-07-20T14:42:17Z</time>
      </trkpt>
      <trkpt lat="41.277973" lon="-3.484252">
        <ele>1264.808</ele>
        <time>2016-07-20T14:42:18Z</time>
      </trkpt>
      <trkpt lat="41.277896" lon="-3.484120">
        <ele>1261.138</ele>
        <time>2016-07-20T14:42:20Z</time>
      </trkpt>
      <trkpt lat="41.277808" lon="-3.483977">
        <ele>1258.081</ele>
        <time>2016-07-20T14:42:23Z</time>
      </trkpt>
      <trkpt lat="41.277724" lon="-3.483847">
        <ele>1255.997</ele>
        <time>2016-07-20T14:42:25Z</time>
      </trkpt>
      <trkpt lat="41.277638" lon="-3.483750">
        <ele>1254.773</ele>
        <time>2016-07-20T14:42:27Z</time>
      </trkpt>
      <trkpt lat="41.277546" lon="-3.483686">
        <ele>1254.328</ele>
        <time>2016-07-20T14:42:29Z</time>
      </trkpt>
      <trkpt lat="41.277461" lon="-3.483537">
        <ele>1254.711</ele>
        <time>2016-07-20T14:42:32Z</time>
      </trkpt>
      <trkpt lat="41.277411" lon="-3.483394">
        <ele>1255.021</ele>
        <time>2016-07-20T14:42:34Z</time>
      </trkpt>
      <trkpt lat="41.277347" lon="-3.483238">
        <ele>1255.379</ele>
        <time>2016-07-20T14:42:36Z</time>
      </trkpt>
      <trkpt lat="41.277266" lon="-3.483076">
        <ele>1255.589</ele>
        <time>2016-07-20T14:42:38Z</time>
      </trkpt>
      <trkpt lat="41.277177" lon="-3.482918">
        <ele>1255.406</ele>
        <time>2016-07-20T14:42:40Z</time>
      </trkpt>
      <trkpt lat="41.277090" lon="-3.482773">
        <ele>1255.226</ele>
        <time>2016-07-20T14:42:42Z</time>
      </trkpt>
      <trkpt lat="41.277002" lon="-3.482635">
        <ele>1254.908</ele>
        <time>2016-07-20T14:42:44Z</time>
      </trkpt>
      <trkpt lat="41.276911" lon="-3.482524">
        <ele>1254.649</ele>
        <time>2016-07-20T14:42:46Z</time>
      </trkpt>
      <trkpt lat="41.276822" lon="-3.482437">
        <ele>1254.792</ele>
        <time>2016-07-20T14:42:48Z</time>
      </trkpt>
      <trkpt lat="41.276757" lon="-3.482343">
        <ele>1254.528</ele>
        <time>2016-07-20T14:42:50Z</time>
      </trkpt>
      <trkpt lat="41.276762" lon="-3.482165">
        <ele>1253.764</ele>
        <time>2016-07-20T14:42:52Z</time>
      </trkpt>
      <trkpt lat="41.276787" lon="-3.482009">
        <ele>1253.369</ele>
        <time>2016-07-20T14:42:54Z</time>
      </trkpt>
      <trkpt lat="41.276804" lon="-3.481812">
        <ele>1253.352</ele>
        <time>2016-07-20T14:42:56Z</time>
      </trkpt>
      <trkpt lat="41.276819" lon="-3.481595">
        <ele>1253.542</ele>
        <time>2016-07-20T14:42:58Z</time>
      </trkpt>
      <trkpt lat="41.276835" lon="-3.481376">
        <ele>1254.190</ele>
        <time>2016-07-20T14:43:00Z</time>
      </trkpt>
      <trkpt lat="41.276846" lon="-3.481170">
        <ele>1254.969</ele>
        <time>2016-07-20T14:43:02Z</time>
      </trkpt>
      <trkpt lat="41.276859" lon="-3.480960">
        <ele>1255.404</ele>
        <time>2016-07-20T14:43:04Z</time>
      </trkpt>
      <trkpt lat="41.276870" lon="-3.480841">
        <ele>1255.624</ele>
        <time>2016-07-20T14:43:05Z</time>
      </trkpt>
      <trkpt lat="41.276884" lon="-3.480723">
        <ele>1255.608</ele>
        <time>2016-07-20T14:43:07Z</time>
      </trkpt>
      <trkpt lat="41.276896" lon="-3.480501">
        <ele>1255.327</ele>
        <time>2016-07-20T14:43:09Z</time>
      </trkpt>
      <trkpt lat="41.276898" lon="-3.480291">
        <ele>1254.750</ele>
        <time>2016-07-20T14:43:11Z</time>
      </trkpt>
      <trkpt lat="41.276911" lon="-3.480092">
        <ele>1254.696</ele>
        <time>2016-07-20T14:43:13Z</time>
      </trkpt>
      <trkpt lat="41.276951" lon="-3.479891">
        <ele>1254.312</ele>
        <time>2016-07-20T14:43:15Z</time>
      </trkpt>
      <trkpt lat="41.277017" lon="-3.479683">
        <ele>1253.397</ele>
        <time>2016-07-20T14:43:17Z</time>
      </trkpt>
      <trkpt lat="41.277084" lon="-3.479500">
        <ele>1252.320</ele>
        <time>2016-07-20T14:43:19Z</time>
      </trkpt>
      <trkpt lat="41.277154" lon="-3.479325">
        <ele>1251.720</ele>
        <time>2016-07-20T14:43:21Z</time>
      </trkpt>
      <trkpt lat="41.277220" lon="-3.479145">
        <ele>1251.018</ele>
        <time>2016-07-20T14:43:23Z</time>
      </trkpt>
      <trkpt lat="41.277289" lon="-3.478968">
        <ele>1250.892</ele>
        <time>2016-07-20T14:43:25Z</time>
      </trkpt>
      <trkpt lat="41.277352" lon="-3.478807">
        <ele>1250.873</ele>
        <time>2016-07-20T14:43:27Z</time>
      </trkpt>
      <trkpt lat="41.277414" lon="-3.478658">
        <ele>1251.020</ele>
        <time>2016-07-20T14:43:29Z</time>
      </trkpt>
      <trkpt lat="41.277489" lon="-3.478502">
        <ele>1250.408</ele>
        <time>2016-07-20T14:43:31Z</time>
      </trkpt>
      <trkpt lat="41.277584" lon="-3.478337">
        <ele>1250.760</ele>
        <time>2016-07-20T14:43:33Z</time>
      </trkpt>
      <trkpt lat="41.277696" lon="-3.478183">
        <ele>1251.133</ele>
        <time>2016-07-20T14:43:35Z</time>
      </trkpt>
      <trkpt lat="41.277811" lon="-3.478035">
        <ele>1250.839</ele>
        <time>2016-07-20T14:43:37Z</time>
      </trkpt>
      <trkpt lat="41.277921" lon="-3.477855">
        <ele>1251.285</ele>
        <time>2016-07-20T14:43:39Z</time>
      </trkpt>
      <trkpt lat="41.277978" lon="-3.477753">
        <ele>1251.470</ele>
        <time>2016-07-20T14:43:40Z</time>
      </trkpt>
      <trkpt lat="41.278040" lon="-3.477655">
        <ele>1251.453</ele>
        <time>2016-07-20T14:43:41Z</time>
      </trkpt>
      <trkpt lat="41.278104" lon="-3.477563">
        <ele>1251.253</ele>
        <time>2016-07-20T14:43:42Z</time>
      </trkpt>
      <trkpt lat="41.278171" lon="-3.477473">
        <ele>1251.051</ele>
        <time>2016-07-20T14:43:43Z</time>
      </trkpt>
      <trkpt lat="41.278236" lon="-3.477385">
        <ele>1250.931</ele>
        <time>2016-07-20T14:43:44Z</time>
      </trkpt>
      <trkpt lat="41.278293" lon="-3.477292">
        <ele>1251.061</ele>
        <time>2016-07-20T14:43:45Z</time>
      </trkpt>
      <trkpt lat="41.278408" lon="-3.477131">
        <ele>1250.507</ele>
        <time>2016-07-20T14:43:47Z</time>
      </trkpt>
      <trkpt lat="41.278509" lon="-3.476978">
        <ele>1250.008</ele>
        <time>2016-07-20T14:43:49Z</time>
      </trkpt>
      <trkpt lat="41.278595" lon="-3.476846">
        <ele>1249.674</ele>
        <time>2016-07-20T14:43:51Z</time>
      </trkpt>
      <trkpt lat="41.278671" lon="-3.476720">
        <ele>1249.247</ele>
        <time>2016-07-20T14:43:53Z</time>
      </trkpt>
      <trkpt lat="41.278782" lon="-3.476581">
        <ele>1249.183</ele>
        <time>2016-07-20T14:43:55Z</time>
      </trkpt>
      <trkpt lat="41.278902" lon="-3.476437">
        <ele>1249.459</ele>
        <time>2016-07-20T14:43:57Z</time>
      </trkpt>
      <trkpt lat="41.279027" lon="-3.476274">
        <ele>1249.424</ele>
        <time>2016-07-20T14:43:59Z</time>
      </trkpt>
      <trkpt lat="41.279160" lon="-3.476112">
        <ele>1247.567</ele>
        <time>2016-07-20T14:44:01Z</time>
      </trkpt>
      <trkpt lat="41.279295" lon="-3.475967">
        <ele>1244.137</ele>
        <time>2016-07-20T14:44:03Z</time>
      </trkpt>
      <trkpt lat="41.279430" lon="-3.475814">
        <ele>1241.615</ele>
        <time>2016-07-20T14:44:05Z</time>
      </trkpt>
      <trkpt lat="41.279615" lon="-3.475586">
        <ele>1239.564</ele>
        <time>2016-07-20T14:44:07Z</time>
      </trkpt>
      <trkpt lat="41.279708" lon="-3.475406">
        <ele>1238.006</ele>
        <time>2016-07-20T14:44:09Z</time>
      </trkpt>
      <trkpt lat="41.279794" lon="-3.475222">
        <ele>1235.616</ele>
        <time>2016-07-20T14:44:11Z</time>
      </trkpt>
      <trkpt lat="41.279868" lon="-3.475061">
        <ele>1234.308</ele>
        <time>2016-07-20T14:44:13Z</time>
      </trkpt>
      <trkpt lat="41.279916" lon="-3.474902">
        <ele>1233.687</ele>
        <time>2016-07-20T14:44:15Z</time>
      </trkpt>
      <trkpt lat="41.279928" lon="-3.474742">
        <ele>1233.370</ele>
        <time>2016-07-20T14:44:17Z</time>
      </trkpt>
      <trkpt lat="41.279961" lon="-3.474589">
        <ele>1232.886</ele>
        <time>2016-07-20T14:44:19Z</time>
      </trkpt>
      <trkpt lat="41.280060" lon="-3.474483">
        <ele>1232.162</ele>
        <time>2016-07-20T14:44:21Z</time>
      </trkpt>
      <trkpt lat="41.280209" lon="-3.474433">
        <ele>1230.987</ele>
        <time>2016-07-20T14:44:23Z</time>
      </trkpt>
      <trkpt lat="41.280380" lon="-3.474427">
        <ele>1229.130</ele>
        <time>2016-07-20T14:44:25Z</time>
      </trkpt>
      <trkpt lat="41.280474" lon="-3.474425">
        <ele>1228.180</ele>
        <time>2016-07-20T14:44:26Z</time>
      </trkpt>
      <trkpt lat="41.280635" lon="-3.474391">
        <ele>1226.198</ele>
        <time>2016-07-20T14:44:28Z</time>
      </trkpt>
      <trkpt lat="41.280767" lon="-3.474273">
        <ele>1223.838</ele>
        <time>2016-07-20T14:44:30Z</time>
      </trkpt>
      <trkpt lat="41.280860" lon="-3.474082">
        <ele>1221.570</ele>
        <time>2016-07-20T14:44:32Z</time>
      </trkpt>
      <trkpt lat="41.280940" lon="-3.473874">
        <ele>1219.517</ele>
        <time>2016-07-20T14:44:34Z</time>
      </trkpt>
      <trkpt lat="41.280988" lon="-3.473773">
        <ele>1218.608</ele>
        <time>2016-07-20T14:44:35Z</time>
      </trkpt>
      <trkpt lat="41.281050" lon="-3.473682">
        <ele>1217.744</ele>
        <time>2016-07-20T14:44:36Z</time>
      </trkpt>
      <trkpt lat="41.281124" lon="-3.473610">
        <ele>1216.797</ele>
        <time>2016-07-20T14:44:38Z</time>
      </trkpt>
      <trkpt lat="41.281297" lon="-3.473562">
        <ele>1214.813</ele>
        <time>2016-07-20T14:44:40Z</time>
      </trkpt>
      <trkpt lat="41.281388" lon="-3.473576">
        <ele>1213.659</ele>
        <time>2016-07-20T14:44:41Z</time>
      </trkpt>
      <trkpt lat="41.281492" lon="-3.473593">
        <ele>1212.844</ele>
        <time>2016-07-20T14:44:42Z</time>
      </trkpt>
      <trkpt lat="41.281594" lon="-3.473616">
        <ele>1212.297</ele>
        <time>2016-07-20T14:44:43Z</time>
      </trkpt>
      <trkpt lat="41.281689" lon="-3.473638">
        <ele>1211.677</ele>
        <time>2016-07-20T14:44:44Z</time>
      </trkpt>
      <trkpt lat="41.281781" lon="-3.473652">
        <ele>1211.025</ele>
        <time>2016-07-20T14:44:45Z</time>
      </trkpt>
      <trkpt lat="41.281948" lon="-3.473657">
        <ele>1210.048</ele>
        <time>2016-07-20T14:44:47Z</time>
      </trkpt>
      <trkpt lat="41.282115" lon="-3.473624">
        <ele>1209.061</ele>
        <time>2016-07-20T14:44:49Z</time>
      </trkpt>
      <trkpt lat="41.282206" lon="-3.473594">
        <ele>1208.417</ele>
        <time>2016-07-20T14:44:50Z</time>
      </trkpt>
      <trkpt lat="41.282294" lon="-3.473555">
        <ele>1207.708</ele>
        <time>2016-07-20T14:44:51Z</time>
      </trkpt>
      <trkpt lat="41.282381" lon="-3.473515">
        <ele>1206.815</ele>
        <time>2016-07-20T14:44:52Z</time>
      </trkpt>
      <trkpt lat="41.282469" lon="-3.473475">
        <ele>1205.888</ele>
        <time>2016-07-20T14:44:53Z</time>
      </trkpt>
      <trkpt lat="41.282561" lon="-3.473433">
        <ele>1204.784</ele>
        <time>2016-07-20T14:44:54Z</time>
      </trkpt>
      <trkpt lat="41.282656" lon="-3.473390">
        <ele>1203.520</ele>
        <time>2016-07-20T14:44:55Z</time>
      </trkpt>
      <trkpt lat="41.282756" lon="-3.473344">
        <ele>1202.425</ele>
        <time>2016-07-20T14:44:56Z</time>
      </trkpt>
      <trkpt lat="41.282852" lon="-3.473300">
        <ele>1201.348</ele>
        <time>2016-07-20T14:44:57Z</time>
      </trkpt>
      <trkpt lat="41.282959" lon="-3.473253">
        <ele>1200.138</ele>
        <time>2016-07-20T14:44:58Z</time>
      </trkpt>
      <trkpt lat="41.283066" lon="-3.473195">
        <ele>1199.256</ele>
        <time>2016-07-20T14:44:59Z</time>
      </trkpt>
      <trkpt lat="41.283161" lon="-3.473120">
        <ele>1198.395</ele>
        <time>2016-07-20T14:45:00Z</time>
      </trkpt>
      <trkpt lat="41.283238" lon="-3.473020">
        <ele>1197.549</ele>
        <time>2016-07-20T14:45:01Z</time>
      </trkpt>
      <trkpt lat="41.283289" lon="-3.472908">
        <ele>1196.823</ele>
        <time>2016-07-20T14:45:02Z</time>
      </trkpt>
      <trkpt lat="41.283327" lon="-3.472782">
        <ele>1196.108</ele>
        <time>2016-07-20T14:45:03Z</time>
      </trkpt>
      <trkpt lat="41.283352" lon="-3.472653">
        <ele>1195.730</ele>
        <time>2016-07-20T14:45:04Z</time>
      </trkpt>
      <trkpt lat="41.283379" lon="-3.472525">
        <ele>1195.353</ele>
        <time>2016-07-20T14:45:05Z</time>
      </trkpt>
      <trkpt lat="41.283409" lon="-3.472402">
        <ele>1194.919</ele>
        <time>2016-07-20T14:45:06Z</time>
      </trkpt>
      <trkpt lat="41.283447" lon="-3.472274">
        <ele>1194.815</ele>
        <time>2016-07-20T14:45:07Z</time>
      </trkpt>
      <trkpt lat="41.283495" lon="-3.472160">
        <ele>1194.820</ele>
        <time>2016-07-20T14:45:08Z</time>
      </trkpt>
      <trkpt lat="41.283557" lon="-3.472063">
        <ele>1195.083</ele>
        <time>2016-07-20T14:45:09Z</time>
      </trkpt>
      <trkpt lat="41.283635" lon="-3.471976">
        <ele>1195.213</ele>
        <time>2016-07-20T14:45:10Z</time>
      </trkpt>
      <trkpt lat="41.283716" lon="-3.471884">
        <ele>1195.481</ele>
        <time>2016-07-20T14:45:11Z</time>
      </trkpt>
      <trkpt lat="41.283793" lon="-3.471780">
        <ele>1195.761</ele>
        <time>2016-07-20T14:45:12Z</time>
      </trkpt>
      <trkpt lat="41.283864" lon="-3.471665">
        <ele>1195.821</ele>
        <time>2016-07-20T14:45:13Z</time>
      </trkpt>
      <trkpt lat="41.283925" lon="-3.471537">
        <ele>1196.013</ele>
        <time>2016-07-20T14:45:14Z</time>
      </trkpt>
      <trkpt lat="41.283974" lon="-3.471396">
        <ele>1196.308</ele>
        <time>2016-07-20T14:45:15Z</time>
      </trkpt>
      <trkpt lat="41.284010" lon="-3.471246">
        <ele>1196.887</ele>
        <time>2016-07-20T14:45:16Z</time>
      </trkpt>
      <trkpt lat="41.284042" lon="-3.471095">
        <ele>1197.460</ele>
        <time>2016-07-20T14:45:17Z</time>
      </trkpt>
      <trkpt lat="41.284072" lon="-3.470940">
        <ele>1198.136</ele>
        <time>2016-07-20T14:45:18Z</time>
      </trkpt>
      <trkpt lat="41.284103" lon="-3.470783">
        <ele>1199.062</ele>
        <time>2016-07-20T14:45:19Z</time>
      </trkpt>
      <trkpt lat="41.284135" lon="-3.470622">
        <ele>1200.087</ele>
        <time>2016-07-20T14:45:20Z</time>
      </trkpt>
      <trkpt lat="41.284169" lon="-3.470467">
        <ele>1201.170</ele>
        <time>2016-07-20T14:45:21Z</time>
      </trkpt>
      <trkpt lat="41.284209" lon="-3.470319">
        <ele>1202.290</ele>
        <time>2016-07-20T14:45:22Z</time>
      </trkpt>
      <trkpt lat="41.284265" lon="-3.470181">
        <ele>1203.288</ele>
        <time>2016-07-20T14:45:23Z</time>
      </trkpt>
      <trkpt lat="41.284338" lon="-3.470054">
        <ele>1204.356</ele>
        <time>2016-07-20T14:45:24Z</time>
      </trkpt>
      <trkpt lat="41.284426" lon="-3.469940">
        <ele>1205.459</ele>
        <time>2016-07-20T14:45:25Z</time>
      </trkpt>
      <trkpt lat="41.284520" lon="-3.469835">
        <ele>1206.814</ele>
        <time>2016-07-20T14:45:26Z</time>
      </trkpt>
      <trkpt lat="41.284620" lon="-3.469729">
        <ele>1208.308</ele>
        <time>2016-07-20T14:45:27Z</time>
      </trkpt>
      <trkpt lat="41.284725" lon="-3.469621">
        <ele>1209.956</ele>
        <time>2016-07-20T14:45:28Z</time>
      </trkpt>
      <trkpt lat="41.284834" lon="-3.469511">
        <ele>1211.519</ele>
        <time>2016-07-20T14:45:29Z</time>
      </trkpt>
      <trkpt lat="41.284945" lon="-3.469399">
        <ele>1213.265</ele>
        <time>2016-07-20T14:45:30Z</time>
      </trkpt>
      <trkpt lat="41.285052" lon="-3.469292">
        <ele>1214.661</ele>
        <time>2016-07-20T14:45:31Z</time>
      </trkpt>
      <trkpt lat="41.285160" lon="-3.469185">
        <ele>1215.896</ele>
        <time>2016-07-20T14:45:32Z</time>
      </trkpt>
      <trkpt lat="41.285262" lon="-3.469068">
        <ele>1217.129</ele>
        <time>2016-07-20T14:45:33Z</time>
      </trkpt>
      <trkpt lat="41.285357" lon="-3.468943">
        <ele>1218.499</ele>
        <time>2016-07-20T14:45:34Z</time>
      </trkpt>
      <trkpt lat="41.285441" lon="-3.468806">
        <ele>1219.817</ele>
        <time>2016-07-20T14:45:35Z</time>
      </trkpt>
      <trkpt lat="41.285509" lon="-3.468660">
        <ele>1221.288</ele>
        <time>2016-07-20T14:45:36Z</time>
      </trkpt>
      <trkpt lat="41.285559" lon="-3.468506">
        <ele>1222.424</ele>
        <time>2016-07-20T14:45:37Z</time>
      </trkpt>
      <trkpt lat="41.285593" lon="-3.468349">
        <ele>1223.426</ele>
        <time>2016-07-20T14:45:38Z</time>
      </trkpt>
      <trkpt lat="41.285622" lon="-3.468188">
        <ele>1224.308</ele>
        <time>2016-07-20T14:45:39Z</time>
      </trkpt>
      <trkpt lat="41.285651" lon="-3.468020">
        <ele>1225.289</ele>
        <time>2016-07-20T14:45:40Z</time>
      </trkpt>
      <trkpt lat="41.285683" lon="-3.467853">
        <ele>1226.212</ele>
        <time>2016-07-20T14:45:41Z</time>
      </trkpt>
      <trkpt lat="41.285724" lon="-3.467690">
        <ele>1227.158</ele>
        <time>2016-07-20T14:45:42Z</time>
      </trkpt>
      <trkpt lat="41.285775" lon="-3.467528">
        <ele>1228.184</ele>
        <time>2016-07-20T14:45:43Z</time>
      </trkpt>
      <trkpt lat="41.285830" lon="-3.467379">
        <ele>1228.939</ele>
        <time>2016-07-20T14:45:44Z</time>
      </trkpt>
      <trkpt lat="41.285889" lon="-3.467230">
        <ele>1229.452</ele>
        <time>2016-07-20T14:45:45Z</time>
      </trkpt>
      <trkpt lat="41.285951" lon="-3.467081">
        <ele>1229.812</ele>
        <time>2016-07-20T14:45:46Z</time>
      </trkpt>
      <trkpt lat="41.286015" lon="-3.466927">
        <ele>1230.270</ele>
        <time>2016-07-20T14:45:47Z</time>
      </trkpt>
      <trkpt lat="41.286084" lon="-3.466769">
        <ele>1230.615</ele>
        <time>2016-07-20T14:45:48Z</time>
      </trkpt>
      <trkpt lat="41.286230" lon="-3.466435">
        <ele>1231.565</ele>
        <time>2016-07-20T14:45:49Z</time>
      </trkpt>
      <trkpt lat="41.286307" lon="-3.466263">
        <ele>1231.911</ele>
        <time>2016-07-20T14:45:50Z</time>
      </trkpt>
      <trkpt lat="41.286385" lon="-3.466086">
        <ele>1232.208</ele>
        <time>2016-07-20T14:45:51Z</time>
      </trkpt>
      <trkpt lat="41.286463" lon="-3.465908">
        <ele>1232.572</ele>
        <time>2016-07-20T14:45:52Z</time>
      </trkpt>
      <trkpt lat="41.286540" lon="-3.465732">
        <ele>1233.045</ele>
        <time>2016-07-20T14:45:53Z</time>
      </trkpt>
      <trkpt lat="41.286612" lon="-3.465552">
        <ele>1233.641</ele>
        <time>2016-07-20T14:45:54Z</time>
      </trkpt>
      <trkpt lat="41.286677" lon="-3.465371">
        <ele>1234.277</ele>
        <time>2016-07-20T14:45:55Z</time>
      </trkpt>
      <trkpt lat="41.286730" lon="-3.465188">
        <ele>1234.912</ele>
        <time>2016-07-20T14:45:56Z</time>
      </trkpt>
      <trkpt lat="41.286765" lon="-3.464999">
        <ele>1235.685</ele>
        <time>2016-07-20T14:45:57Z</time>
      </trkpt>
      <trkpt lat="41.286781" lon="-3.464811">
        <ele>1236.615</ele>
        <time>2016-07-20T14:45:58Z</time>
      </trkpt>
      <trkpt lat="41.286787" lon="-3.464626">
        <ele>1237.673</ele>
        <time>2016-07-20T14:45:59Z</time>
      </trkpt>
      <trkpt lat="41.286787" lon="-3.464442">
        <ele>1238.815</ele>
        <time>2016-07-20T14:46:00Z</time>
      </trkpt>
      <trkpt lat="41.286787" lon="-3.464261">
        <ele>1239.965</ele>
        <time>2016-07-20T14:46:01Z</time>
      </trkpt>
      <trkpt lat="41.286787" lon="-3.464081">
        <ele>1241.011</ele>
        <time>2016-07-20T14:46:02Z</time>
      </trkpt>
      <trkpt lat="41.286786" lon="-3.463901">
        <ele>1242.208</ele>
        <time>2016-07-20T14:46:03Z</time>
      </trkpt>
      <trkpt lat="41.286786" lon="-3.463713">
        <ele>1243.442</ele>
        <time>2016-07-20T14:46:04Z</time>
      </trkpt>
      <trkpt lat="41.286784" lon="-3.463524">
        <ele>1244.685</ele>
        <time>2016-07-20T14:46:05Z</time>
      </trkpt>
      <trkpt lat="41.286782" lon="-3.463340">
        <ele>1246.081</ele>
        <time>2016-07-20T14:46:06Z</time>
      </trkpt>
      <trkpt lat="41.286777" lon="-3.463167">
        <ele>1247.557</ele>
        <time>2016-07-20T14:46:07Z</time>
      </trkpt>
      <trkpt lat="41.286764" lon="-3.462998">
        <ele>1249.062</ele>
        <time>2016-07-20T14:46:08Z</time>
      </trkpt>
      <trkpt lat="41.286743" lon="-3.462853">
        <ele>1250.395</ele>
        <time>2016-07-20T14:46:10Z</time>
      </trkpt>
      <trkpt lat="41.286719" lon="-3.462717">
        <ele>1251.495</ele>
        <time>2016-07-20T14:46:11Z</time>
      </trkpt>
      <trkpt lat="41.286695" lon="-3.462581">
        <ele>1252.633</ele>
        <time>2016-07-20T14:46:12Z</time>
      </trkpt>
      <trkpt lat="41.286676" lon="-3.462455">
        <ele>1253.754</ele>
        <time>2016-07-20T14:46:13Z</time>
      </trkpt>
      <trkpt lat="41.286659" lon="-3.462321">
        <ele>1254.956</ele>
        <time>2016-07-20T14:46:14Z</time>
      </trkpt>
      <trkpt lat="41.286653" lon="-3.462188">
        <ele>1256.111</ele>
        <time>2016-07-20T14:46:15Z</time>
      </trkpt>
      <trkpt lat="41.286654" lon="-3.462045">
        <ele>1257.308</ele>
        <time>2016-07-20T14:46:16Z</time>
      </trkpt>
      <trkpt lat="41.286663" lon="-3.461901">
        <ele>1258.736</ele>
        <time>2016-07-20T14:46:17Z</time>
      </trkpt>
      <trkpt lat="41.286679" lon="-3.461770">
        <ele>1260.279</ele>
        <time>2016-07-20T14:46:18Z</time>
      </trkpt>
      <trkpt lat="41.286699" lon="-3.461645">
        <ele>1261.625</ele>
        <time>2016-07-20T14:46:19Z</time>
      </trkpt>
      <trkpt lat="41.286723" lon="-3.461525">
        <ele>1262.951</ele>
        <time>2016-07-20T14:46:20Z</time>
      </trkpt>
      <trkpt lat="41.286749" lon="-3.461410">
        <ele>1264.256</ele>
        <time>2016-07-20T14:46:21Z</time>
      </trkpt>
      <trkpt lat="41.286796" lon="-3.461211">
        <ele>1265.929</ele>
        <time>2016-07-20T14:46:23Z</time>
      </trkpt>
      <trkpt lat="41.286826" lon="-3.461092">
        <ele>1266.679</ele>
        <time>2016-07-20T14:46:24Z</time>
      </trkpt>
      <trkpt lat="41.286862" lon="-3.460961">
        <ele>1267.247</ele>
        <time>2016-07-20T14:46:25Z</time>
      </trkpt>
      <trkpt lat="41.286901" lon="-3.460823">
        <ele>1267.944</ele>
        <time>2016-07-20T14:46:26Z</time>
      </trkpt>
      <trkpt lat="41.286939" lon="-3.460682">
        <ele>1268.405</ele>
        <time>2016-07-20T14:46:27Z</time>
      </trkpt>
      <trkpt lat="41.286975" lon="-3.460539">
        <ele>1268.915</ele>
        <time>2016-07-20T14:46:28Z</time>
      </trkpt>
      <trkpt lat="41.287015" lon="-3.460388">
        <ele>1269.408</ele>
        <time>2016-07-20T14:46:29Z</time>
      </trkpt>
      <trkpt lat="41.287055" lon="-3.460235">
        <ele>1270.025</ele>
        <time>2016-07-20T14:46:30Z</time>
      </trkpt>
      <trkpt lat="41.287094" lon="-3.460087">
        <ele>1270.758</ele>
        <time>2016-07-20T14:46:31Z</time>
      </trkpt>
      <trkpt lat="41.287136" lon="-3.459948">
        <ele>1271.414</ele>
        <time>2016-07-20T14:46:32Z</time>
      </trkpt>
      <trkpt lat="41.287193" lon="-3.459824">
        <ele>1271.920</ele>
        <time>2016-07-20T14:46:33Z</time>
      </trkpt>
      <trkpt lat="41.287260" lon="-3.459724">
        <ele>1272.565</ele>
        <time>2016-07-20T14:46:34Z</time>
      </trkpt>
      <trkpt lat="41.287346" lon="-3.459653">
        <ele>1273.048</ele>
        <time>2016-07-20T14:46:35Z</time>
      </trkpt>
      <trkpt lat="41.287440" lon="-3.459628">
        <ele>1273.888</ele>
        <time>2016-07-20T14:46:36Z</time>
      </trkpt>
      <trkpt lat="41.287542" lon="-3.459637">
        <ele>1274.736</ele>
        <time>2016-07-20T14:46:37Z</time>
      </trkpt>
      <trkpt lat="41.287639" lon="-3.459679">
        <ele>1276.085</ele>
        <time>2016-07-20T14:46:38Z</time>
      </trkpt>
      <trkpt lat="41.287726" lon="-3.459743">
        <ele>1277.289</ele>
        <time>2016-07-20T14:46:39Z</time>
      </trkpt>
      <trkpt lat="41.287806" lon="-3.459829">
        <ele>1278.317</ele>
        <time>2016-07-20T14:46:40Z</time>
      </trkpt>
      <trkpt lat="41.287886" lon="-3.459931">
        <ele>1279.408</ele>
        <time>2016-07-20T14:46:41Z</time>
      </trkpt>
      <trkpt lat="41.287978" lon="-3.460037">
        <ele>1280.869</ele>
        <time>2016-07-20T14:46:42Z</time>
      </trkpt>
      <trkpt lat="41.288074" lon="-3.460140">
        <ele>1282.352</ele>
        <time>2016-07-20T14:46:43Z</time>
      </trkpt>
      <trkpt lat="41.288169" lon="-3.460221">
        <ele>1283.778</ele>
        <time>2016-07-20T14:46:44Z</time>
      </trkpt>
      <trkpt lat="41.288272" lon="-3.460287">
        <ele>1284.974</ele>
        <time>2016-07-20T14:46:45Z</time>
      </trkpt>
      <trkpt lat="41.288375" lon="-3.460329">
        <ele>1285.829</ele>
        <time>2016-07-20T14:46:46Z</time>
      </trkpt>
      <trkpt lat="41.288488" lon="-3.460343">
        <ele>1286.872</ele>
        <time>2016-07-20T14:46:47Z</time>
      </trkpt>
      <trkpt lat="41.288607" lon="-3.460330">
        <ele>1287.592</ele>
        <time>2016-07-20T14:46:48Z</time>
      </trkpt>
      <trkpt lat="41.288728" lon="-3.460294">
        <ele>1287.620</ele>
        <time>2016-07-20T14:46:49Z</time>
      </trkpt>
      <trkpt lat="41.288827" lon="-3.460237">
        <ele>1287.862</ele>
        <time>2016-07-20T14:46:50Z</time>
      </trkpt>
      <trkpt lat="41.288924" lon="-3.460162">
        <ele>1287.783</ele>
        <time>2016-07-20T14:46:51Z</time>
      </trkpt>
      <trkpt lat="41.288994" lon="-3.460072">
        <ele>1287.911</ele>
        <time>2016-07-20T14:46:52Z</time>
      </trkpt>
      <trkpt lat="41.289033" lon="-3.459883">
        <ele>1288.308</ele>
        <time>2016-07-20T14:46:54Z</time>
      </trkpt>
      <trkpt lat="41.289047" lon="-3.459694">
        <ele>1289.287</ele>
        <time>2016-07-20T14:46:56Z</time>
      </trkpt>
      <trkpt lat="41.289051" lon="-3.459505">
        <ele>1290.740</ele>
        <time>2016-07-20T14:46:58Z</time>
      </trkpt>
      <trkpt lat="41.289047" lon="-3.459329">
        <ele>1291.666</ele>
        <time>2016-07-20T14:47:00Z</time>
      </trkpt>
      <trkpt lat="41.289006" lon="-3.459139">
        <ele>1292.652</ele>
        <time>2016-07-20T14:47:02Z</time>
      </trkpt>
      <trkpt lat="41.288925" lon="-3.458928">
        <ele>1293.587</ele>
        <time>2016-07-20T14:47:04Z</time>
      </trkpt>
      <trkpt lat="41.288878" lon="-3.458806">
        <ele>1294.050</ele>
        <time>2016-07-20T14:47:05Z</time>
      </trkpt>
      <trkpt lat="41.288828" lon="-3.458678">
        <ele>1294.670</ele>
        <time>2016-07-20T14:47:06Z</time>
      </trkpt>
      <trkpt lat="41.288713" lon="-3.458389">
        <ele>1296.368</ele>
        <time>2016-07-20T14:47:07Z</time>
      </trkpt>
      <trkpt lat="41.288645" lon="-3.458239">
        <ele>1297.139</ele>
        <time>2016-07-20T14:47:08Z</time>
      </trkpt>
      <trkpt lat="41.288582" lon="-3.458085">
        <ele>1297.901</ele>
        <time>2016-07-20T14:47:09Z</time>
      </trkpt>
      <trkpt lat="41.288518" lon="-3.457929">
        <ele>1298.821</ele>
        <time>2016-07-20T14:47:10Z</time>
      </trkpt>
      <trkpt lat="41.288454" lon="-3.457773">
        <ele>1299.708</ele>
        <time>2016-07-20T14:47:11Z</time>
      </trkpt>
      <trkpt lat="41.288392" lon="-3.457617">
        <ele>1300.964</ele>
        <time>2016-07-20T14:47:12Z</time>
      </trkpt>
      <trkpt lat="41.288325" lon="-3.457454">
        <ele>1302.257</ele>
        <time>2016-07-20T14:47:13Z</time>
      </trkpt>
      <trkpt lat="41.288262" lon="-3.457300">
        <ele>1303.563</ele>
        <time>2016-07-20T14:47:14Z</time>
      </trkpt>
      <trkpt lat="41.288197" lon="-3.457153">
        <ele>1304.719</ele>
        <time>2016-07-20T14:47:15Z</time>
      </trkpt>
      <trkpt lat="41.288131" lon="-3.457003">
        <ele>1305.884</ele>
        <time>2016-07-20T14:47:16Z</time>
      </trkpt>
      <trkpt lat="41.288065" lon="-3.456854">
        <ele>1307.027</ele>
        <time>2016-07-20T14:47:17Z</time>
      </trkpt>
      <trkpt lat="41.288005" lon="-3.456705">
        <ele>1308.017</ele>
        <time>2016-07-20T14:47:18Z</time>
      </trkpt>
      <trkpt lat="41.287943" lon="-3.456558">
        <ele>1309.125</ele>
        <time>2016-07-20T14:47:19Z</time>
      </trkpt>
      <trkpt lat="41.287881" lon="-3.456416">
        <ele>1310.234</ele>
        <time>2016-07-20T14:47:20Z</time>
      </trkpt>
      <trkpt lat="41.287824" lon="-3.456269">
        <ele>1311.355</ele>
        <time>2016-07-20T14:47:21Z</time>
      </trkpt>
      <trkpt lat="41.287765" lon="-3.456123">
        <ele>1312.210</ele>
        <time>2016-07-20T14:47:22Z</time>
      </trkpt>
      <trkpt lat="41.287700" lon="-3.455972">
        <ele>1313.108</ele>
        <time>2016-07-20T14:47:23Z</time>
      </trkpt>
      <trkpt lat="41.287637" lon="-3.455822">
        <ele>1313.964</ele>
        <time>2016-07-20T14:47:24Z</time>
      </trkpt>
      <trkpt lat="41.287569" lon="-3.455653">
        <ele>1315.117</ele>
        <time>2016-07-20T14:47:25Z</time>
      </trkpt>
      <trkpt lat="41.287501" lon="-3.455486">
        <ele>1316.613</ele>
        <time>2016-07-20T14:47:26Z</time>
      </trkpt>
      <trkpt lat="41.287442" lon="-3.455341">
        <ele>1317.649</ele>
        <time>2016-07-20T14:47:27Z</time>
      </trkpt>
      <trkpt lat="41.287379" lon="-3.455184">
        <ele>1318.184</ele>
        <time>2016-07-20T14:47:28Z</time>
      </trkpt>
      <trkpt lat="41.287315" lon="-3.455014">
        <ele>1318.587</ele>
        <time>2016-07-20T14:47:29Z</time>
      </trkpt>
      <trkpt lat="41.287250" lon="-3.454842">
        <ele>1318.997</ele>
        <time>2016-07-20T14:47:30Z</time>
      </trkpt>
      <trkpt lat="41.287181" lon="-3.454667">
        <ele>1319.445</ele>
        <time>2016-07-20T14:47:31Z</time>
      </trkpt>
      <trkpt lat="41.287110" lon="-3.454488">
        <ele>1320.023</ele>
        <time>2016-07-20T14:47:32Z</time>
      </trkpt>
      <trkpt lat="41.287041" lon="-3.454304">
        <ele>1320.883</ele>
        <time>2016-07-20T14:47:33Z</time>
      </trkpt>
      <trkpt lat="41.286964" lon="-3.454123">
        <ele>1321.611</ele>
        <time>2016-07-20T14:47:34Z</time>
      </trkpt>
      <trkpt lat="41.286888" lon="-3.453941">
        <ele>1322.508</ele>
        <time>2016-07-20T14:47:35Z</time>
      </trkpt>
      <trkpt lat="41.286809" lon="-3.453752">
        <ele>1323.583</ele>
        <time>2016-07-20T14:47:36Z</time>
      </trkpt>
      <trkpt lat="41.286738" lon="-3.453556">
        <ele>1324.676</ele>
        <time>2016-07-20T14:47:37Z</time>
      </trkpt>
      <trkpt lat="41.286667" lon="-3.453370">
        <ele>1325.522</ele>
        <time>2016-07-20T14:47:38Z</time>
      </trkpt>
      <trkpt lat="41.286595" lon="-3.453185">
        <ele>1326.578</ele>
        <time>2016-07-20T14:47:39Z</time>
      </trkpt>
      <trkpt lat="41.286523" lon="-3.453001">
        <ele>1327.673</ele>
        <time>2016-07-20T14:47:40Z</time>
      </trkpt>
      <trkpt lat="41.286443" lon="-3.452818">
        <ele>1328.976</ele>
        <time>2016-07-20T14:47:41Z</time>
      </trkpt>
      <trkpt lat="41.286367" lon="-3.452629">
        <ele>1330.426</ele>
        <time>2016-07-20T14:47:42Z</time>
      </trkpt>
      <trkpt lat="41.286289" lon="-3.452434">
        <ele>1332.194</ele>
        <time>2016-07-20T14:47:43Z</time>
      </trkpt>
      <trkpt lat="41.286212" lon="-3.452242">
        <ele>1333.886</ele>
        <time>2016-07-20T14:47:44Z</time>
      </trkpt>
      <trkpt lat="41.286144" lon="-3.452061">
        <ele>1335.260</ele>
        <time>2016-07-20T14:47:45Z</time>
      </trkpt>
      <trkpt lat="41.286071" lon="-3.451878">
        <ele>1336.526</ele>
        <time>2016-07-20T14:47:46Z</time>
      </trkpt>
      <trkpt lat="41.286003" lon="-3.451694">
        <ele>1337.508</ele>
        <time>2016-07-20T14:47:47Z</time>
      </trkpt>
      <trkpt lat="41.285930" lon="-3.451513">
        <ele>1338.449</ele>
        <time>2016-07-20T14:47:48Z</time>
      </trkpt>
      <trkpt lat="41.285856" lon="-3.451335">
        <ele>1339.192</ele>
        <time>2016-07-20T14:47:49Z</time>
      </trkpt>
      <trkpt lat="41.285785" lon="-3.451158">
        <ele>1339.998</ele>
        <time>2016-07-20T14:47:50Z</time>
      </trkpt>
      <trkpt lat="41.285712" lon="-3.450979">
        <ele>1340.894</ele>
        <time>2016-07-20T14:47:51Z</time>
      </trkpt>
      <trkpt lat="41.285642" lon="-3.450804">
        <ele>1341.879</ele>
        <time>2016-07-20T14:47:52Z</time>
      </trkpt>
      <trkpt lat="41.285574" lon="-3.450630">
        <ele>1342.942</ele>
        <time>2016-07-20T14:47:53Z</time>
      </trkpt>
      <trkpt lat="41.285508" lon="-3.450463">
        <ele>1344.222</ele>
        <time>2016-07-20T14:47:54Z</time>
      </trkpt>
      <trkpt lat="41.285446" lon="-3.450304">
        <ele>1345.750</ele>
        <time>2016-07-20T14:47:55Z</time>
      </trkpt>
      <trkpt lat="41.285391" lon="-3.450168">
        <ele>1346.919</ele>
        <time>2016-07-20T14:47:56Z</time>
      </trkpt>
      <trkpt lat="41.285338" lon="-3.450040">
        <ele>1348.009</ele>
        <time>2016-07-20T14:47:57Z</time>
      </trkpt>
      <trkpt lat="41.285294" lon="-3.449917">
        <ele>1349.119</ele>
        <time>2016-07-20T14:47:58Z</time>
      </trkpt>
      <trkpt lat="41.285288" lon="-3.449707">
        <ele>1351.308</ele>
        <time>2016-07-20T14:48:00Z</time>
      </trkpt>
      <trkpt lat="41.285342" lon="-3.449558">
        <ele>1352.742</ele>
        <time>2016-07-20T14:48:03Z</time>
      </trkpt>
      <trkpt lat="41.285398" lon="-3.449387">
        <ele>1354.065</ele>
        <time>2016-07-20T14:48:05Z</time>
      </trkpt>
      <trkpt lat="41.285439" lon="-3.449170">
        <ele>1355.131</ele>
        <time>2016-07-20T14:48:07Z</time>
      </trkpt>
      <trkpt lat="41.285460" lon="-3.449053">
        <ele>1355.747</ele>
        <time>2016-07-20T14:48:08Z</time>
      </trkpt>
      <trkpt lat="41.285486" lon="-3.448928">
        <ele>1356.292</ele>
        <time>2016-07-20T14:48:09Z</time>
      </trkpt>
      <trkpt lat="41.285513" lon="-3.448794">
        <ele>1356.675</ele>
        <time>2016-07-20T14:48:10Z</time>
      </trkpt>
      <trkpt lat="41.285551" lon="-3.448653">
        <ele>1357.185</ele>
        <time>2016-07-20T14:48:11Z</time>
      </trkpt>
      <trkpt lat="41.285600" lon="-3.448503">
        <ele>1358.083</ele>
        <time>2016-07-20T14:48:12Z</time>
      </trkpt>
      <trkpt lat="41.285651" lon="-3.448356">
        <ele>1358.898</ele>
        <time>2016-07-20T14:48:13Z</time>
      </trkpt>
      <trkpt lat="41.285709" lon="-3.448212">
        <ele>1359.615</ele>
        <time>2016-07-20T14:48:14Z</time>
      </trkpt>
      <trkpt lat="41.285778" lon="-3.448071">
        <ele>1360.426</ele>
        <time>2016-07-20T14:48:15Z</time>
      </trkpt>
      <trkpt lat="41.285851" lon="-3.447926">
        <ele>1361.108</ele>
        <time>2016-07-20T14:48:16Z</time>
      </trkpt>
      <trkpt lat="41.285924" lon="-3.447781">
        <ele>1361.750</ele>
        <time>2016-07-20T14:48:17Z</time>
      </trkpt>
      <trkpt lat="41.285997" lon="-3.447636">
        <ele>1362.273</ele>
        <time>2016-07-20T14:48:18Z</time>
      </trkpt>
      <trkpt lat="41.286068" lon="-3.447486">
        <ele>1362.649</ele>
        <time>2016-07-20T14:48:19Z</time>
      </trkpt>
      <trkpt lat="41.286135" lon="-3.447333">
        <ele>1362.955</ele>
        <time>2016-07-20T14:48:20Z</time>
      </trkpt>
      <trkpt lat="41.286192" lon="-3.447187">
        <ele>1363.360</ele>
        <time>2016-07-20T14:48:21Z</time>
      </trkpt>
      <trkpt lat="41.286244" lon="-3.447039">
        <ele>1363.963</ele>
        <time>2016-07-20T14:48:22Z</time>
      </trkpt>
      <trkpt lat="41.286293" lon="-3.446897">
        <ele>1364.543</ele>
        <time>2016-07-20T14:48:23Z</time>
      </trkpt>
      <trkpt lat="41.286348" lon="-3.446756">
        <ele>1365.181</ele>
        <time>2016-07-20T14:48:24Z</time>
      </trkpt>
      <trkpt lat="41.286422" lon="-3.446623">
        <ele>1365.898</ele>
        <time>2016-07-20T14:48:25Z</time>
      </trkpt>
      <trkpt lat="41.286496" lon="-3.446493">
        <ele>1366.415</ele>
        <time>2016-07-20T14:48:26Z</time>
      </trkpt>
      <trkpt lat="41.286569" lon="-3.446375">
        <ele>1367.126</ele>
        <time>2016-07-20T14:48:27Z</time>
      </trkpt>
      <trkpt lat="41.286625" lon="-3.446263">
        <ele>1367.908</ele>
        <time>2016-07-20T14:48:28Z</time>
      </trkpt>
      <trkpt lat="41.286648" lon="-3.446065">
        <ele>1370.020</ele>
        <time>2016-07-20T14:48:30Z</time>
      </trkpt>
      <trkpt lat="41.286570" lon="-3.445927">
        <ele>1373.613</ele>
        <time>2016-07-20T14:48:32Z</time>
      </trkpt>
      <trkpt lat="41.286484" lon="-3.445824">
        <ele>1376.719</ele>
        <time>2016-07-20T14:48:34Z</time>
      </trkpt>
      <trkpt lat="41.286370" lon="-3.445697">
        <ele>1379.425</ele>
        <time>2016-07-20T14:48:36Z</time>
      </trkpt>
      <trkpt lat="41.286225" lon="-3.445560">
        <ele>1381.520</ele>
        <time>2016-07-20T14:48:38Z</time>
      </trkpt>
      <trkpt lat="41.286143" lon="-3.445486">
        <ele>1382.493</ele>
        <time>2016-07-20T14:48:39Z</time>
      </trkpt>
      <trkpt lat="41.286053" lon="-3.445406">
        <ele>1383.163</ele>
        <time>2016-07-20T14:48:40Z</time>
      </trkpt>
      <trkpt lat="41.285962" lon="-3.445321">
        <ele>1384.061</ele>
        <time>2016-07-20T14:48:41Z</time>
      </trkpt>
      <trkpt lat="41.285869" lon="-3.445238">
        <ele>1385.022</ele>
        <time>2016-07-20T14:48:42Z</time>
      </trkpt>
      <trkpt lat="41.285773" lon="-3.445152">
        <ele>1386.162</ele>
        <time>2016-07-20T14:48:43Z</time>
      </trkpt>
      <trkpt lat="41.285675" lon="-3.445068">
        <ele>1387.308</ele>
        <time>2016-07-20T14:48:44Z</time>
      </trkpt>
      <trkpt lat="41.285575" lon="-3.444987">
        <ele>1388.808</ele>
        <time>2016-07-20T14:48:45Z</time>
      </trkpt>
      <trkpt lat="41.285478" lon="-3.444904">
        <ele>1390.623</ele>
        <time>2016-07-20T14:48:46Z</time>
      </trkpt>
      <trkpt lat="41.285380" lon="-3.444819">
        <ele>1392.636</ele>
        <time>2016-07-20T14:48:47Z</time>
      </trkpt>
      <trkpt lat="41.285268" lon="-3.444723">
        <ele>1394.722</ele>
        <time>2016-07-20T14:48:48Z</time>
      </trkpt>
      <trkpt lat="41.285155" lon="-3.444627">
        <ele>1396.678</ele>
        <time>2016-07-20T14:48:49Z</time>
      </trkpt>
      <trkpt lat="41.285043" lon="-3.444533">
        <ele>1398.453</ele>
        <time>2016-07-20T14:48:50Z</time>
      </trkpt>
      <trkpt lat="41.284932" lon="-3.444448">
        <ele>1399.936</ele>
        <time>2016-07-20T14:48:51Z</time>
      </trkpt>
      <trkpt lat="41.284821" lon="-3.444361">
        <ele>1401.346</ele>
        <time>2016-07-20T14:48:53Z</time>
      </trkpt>
      <trkpt lat="41.284716" lon="-3.444273">
        <ele>1402.794</ele>
        <time>2016-07-20T14:48:54Z</time>
      </trkpt>
      <trkpt lat="41.284607" lon="-3.444181">
        <ele>1404.395</ele>
        <time>2016-07-20T14:48:55Z</time>
      </trkpt>
      <trkpt lat="41.284508" lon="-3.444092">
        <ele>1405.849</ele>
        <time>2016-07-20T14:48:56Z</time>
      </trkpt>
      <trkpt lat="41.284404" lon="-3.444007">
        <ele>1407.323</ele>
        <time>2016-07-20T14:48:57Z</time>
      </trkpt>
      <trkpt lat="41.284299" lon="-3.443914">
        <ele>1408.808</ele>
        <time>2016-07-20T14:48:58Z</time>
      </trkpt>
      <trkpt lat="41.284196" lon="-3.443825">
        <ele>1410.330</ele>
        <time>2016-07-20T14:48:59Z</time>
      </trkpt>
      <trkpt lat="41.284094" lon="-3.443754">
        <ele>1411.793</ele>
        <time>2016-07-20T14:49:00Z</time>
      </trkpt>
      <trkpt lat="41.283992" lon="-3.443682">
        <ele>1413.239</ele>
        <time>2016-07-20T14:49:01Z</time>
      </trkpt>
      <trkpt lat="41.283890" lon="-3.443622">
        <ele>1414.625</ele>
        <time>2016-07-20T14:49:02Z</time>
      </trkpt>
      <trkpt lat="41.283791" lon="-3.443572">
        <ele>1416.020</ele>
        <time>2016-07-20T14:49:03Z</time>
      </trkpt>
      <trkpt lat="41.283702" lon="-3.443517">
        <ele>1417.483</ele>
        <time>2016-07-20T14:49:04Z</time>
      </trkpt>
      <trkpt lat="41.283614" lon="-3.443365">
        <ele>1418.753</ele>
        <time>2016-07-20T14:49:06Z</time>
      </trkpt>
      <trkpt lat="41.283641" lon="-3.443194">
        <ele>1418.831</ele>
        <time>2016-07-20T14:49:08Z</time>
      </trkpt>
      <trkpt lat="41.283702" lon="-3.443065">
        <ele>1418.633</ele>
        <time>2016-07-20T14:49:10Z</time>
      </trkpt>
      <trkpt lat="41.283783" lon="-3.442886">
        <ele>1418.123</ele>
        <time>2016-07-20T14:49:12Z</time>
      </trkpt>
      <trkpt lat="41.283832" lon="-3.442769">
        <ele>1418.115</ele>
        <time>2016-07-20T14:49:13Z</time>
      </trkpt>
      <trkpt lat="41.283881" lon="-3.442650">
        <ele>1418.208</ele>
        <time>2016-07-20T14:49:14Z</time>
      </trkpt>
      <trkpt lat="41.283932" lon="-3.442535">
        <ele>1418.214</ele>
        <time>2016-07-20T14:49:15Z</time>
      </trkpt>
      <trkpt lat="41.284028" lon="-3.442299">
        <ele>1418.817</ele>
        <time>2016-07-20T14:49:16Z</time>
      </trkpt>
      <trkpt lat="41.284080" lon="-3.442176">
        <ele>1419.023</ele>
        <time>2016-07-20T14:49:17Z</time>
      </trkpt>
      <trkpt lat="41.284130" lon="-3.442043">
        <ele>1419.929</ele>
        <time>2016-07-20T14:49:18Z</time>
      </trkpt>
      <trkpt lat="41.284176" lon="-3.441903">
        <ele>1421.174</ele>
        <time>2016-07-20T14:49:19Z</time>
      </trkpt>
      <trkpt lat="41.284218" lon="-3.441755">
        <ele>1422.897</ele>
        <time>2016-07-20T14:49:20Z</time>
      </trkpt>
      <trkpt lat="41.284254" lon="-3.441603">
        <ele>1425.027</ele>
        <time>2016-07-20T14:49:21Z</time>
      </trkpt>
      <trkpt lat="41.284285" lon="-3.441461">
        <ele>1427.685</ele>
        <time>2016-07-20T14:49:22Z</time>
      </trkpt>
      <trkpt lat="41.284312" lon="-3.441322">
        <ele>1430.367</ele>
        <time>2016-07-20T14:49:23Z</time>
      </trkpt>
      <trkpt lat="41.284340" lon="-3.441185">
        <ele>1432.981</ele>
        <time>2016-07-20T14:49:24Z</time>
      </trkpt>
      <trkpt lat="41.284372" lon="-3.441031">
        <ele>1435.519</ele>
        <time>2016-07-20T14:49:25Z</time>
      </trkpt>
      <trkpt lat="41.284400" lon="-3.440889">
        <ele>1437.908</ele>
        <time>2016-07-20T14:49:26Z</time>
      </trkpt>
      <trkpt lat="41.284430" lon="-3.440751">
        <ele>1439.917</ele>
        <time>2016-07-20T14:49:27Z</time>
      </trkpt>
      <trkpt lat="41.284458" lon="-3.440622">
        <ele>1441.590</ele>
        <time>2016-07-20T14:49:28Z</time>
      </trkpt>
      <trkpt lat="41.284485" lon="-3.440497">
        <ele>1443.256</ele>
        <time>2016-07-20T14:49:29Z</time>
      </trkpt>
      <trkpt lat="41.284518" lon="-3.440364">
        <ele>1444.862</ele>
        <time>2016-07-20T14:49:30Z</time>
      </trkpt>
      <trkpt lat="41.284553" lon="-3.440233">
        <ele>1446.417</ele>
        <time>2016-07-20T14:49:31Z</time>
      </trkpt>
      <trkpt lat="41.284594" lon="-3.440115">
        <ele>1447.720</ele>
        <time>2016-07-20T14:49:32Z</time>
      </trkpt>
      <trkpt lat="41.284693" lon="-3.439947">
        <ele>1449.980</ele>
        <time>2016-07-20T14:49:35Z</time>
      </trkpt>
      <trkpt lat="41.284795" lon="-3.439816">
        <ele>1451.188</ele>
        <time>2016-07-20T14:49:37Z</time>
      </trkpt>
      <trkpt lat="41.284886" lon="-3.439687">
        <ele>1450.922</ele>
        <time>2016-07-20T14:49:39Z</time>
      </trkpt>
      <trkpt lat="41.284964" lon="-3.439541">
        <ele>1451.262</ele>
        <time>2016-07-20T14:49:41Z</time>
      </trkpt>
      <trkpt lat="41.284972" lon="-3.439379">
        <ele>1451.308</ele>
        <time>2016-07-20T14:49:43Z</time>
      </trkpt>
      <trkpt lat="41.284898" lon="-3.439295">
        <ele>1451.808</ele>
        <time>2016-07-20T14:49:47Z</time>
      </trkpt>
      <trkpt lat="41.284755" lon="-3.439334">
        <ele>1453.533</ele>
        <time>2016-07-20T14:49:49Z</time>
      </trkpt>
      <trkpt lat="41.284605" lon="-3.439373">
        <ele>1454.486</ele>
        <time>2016-07-20T14:49:52Z</time>
      </trkpt>
      <trkpt lat="41.284460" lon="-3.439374">
        <ele>1454.982</ele>
        <time>2016-07-20T14:49:54Z</time>
      </trkpt>
      <trkpt lat="41.284394" lon="-3.439280">
        <ele>1454.878</ele>
        <time>2016-07-20T14:49:56Z</time>
      </trkpt>
      <trkpt lat="41.284405" lon="-3.439135">
        <ele>1454.423</ele>
        <time>2016-07-20T14:49:58Z</time>
      </trkpt>
      <trkpt lat="41.284480" lon="-3.438988">
        <ele>1454.496</ele>
        <time>2016-07-20T14:50:00Z</time>
      </trkpt>
      <trkpt lat="41.284568" lon="-3.438780">
        <ele>1455.316</ele>
        <time>2016-07-20T14:50:02Z</time>
      </trkpt>
      <trkpt lat="41.284614" lon="-3.438660">
        <ele>1456.794</ele>
        <time>2016-07-20T14:50:03Z</time>
      </trkpt>
      <trkpt lat="41.284665" lon="-3.438528">
        <ele>1459.088</ele>
        <time>2016-07-20T14:50:04Z</time>
      </trkpt>
      <trkpt lat="41.284711" lon="-3.438400">
        <ele>1460.824</ele>
        <time>2016-07-20T14:50:05Z</time>
      </trkpt>
      <trkpt lat="41.284750" lon="-3.438284">
        <ele>1462.026</ele>
        <time>2016-07-20T14:50:06Z</time>
      </trkpt>
      <trkpt lat="41.284804" lon="-3.438070">
        <ele>1464.108</ele>
        <time>2016-07-20T14:50:08Z</time>
      </trkpt>
      <trkpt lat="41.284843" lon="-3.437924">
        <ele>1466.299</ele>
        <time>2016-07-20T14:50:10Z</time>
      </trkpt>
      <trkpt lat="41.284931" lon="-3.437872">
        <ele>1467.432</ele>
        <time>2016-07-20T14:50:13Z</time>
      </trkpt>
      <trkpt lat="41.285012" lon="-3.437777">
        <ele>1468.528</ele>
        <time>2016-07-20T14:50:17Z</time>
      </trkpt>
      <trkpt lat="41.284914" lon="-3.437728">
        <ele>1479.574</ele>
        <time>2016-07-20T14:52:09Z</time>
      </trkpt>
      <trkpt lat="41.284824" lon="-3.437743">
        <ele>1480.859</ele>
        <time>2016-07-20T14:52:18Z</time>
      </trkpt>
      <trkpt lat="41.284734" lon="-3.437698">
        <ele>1481.112</ele>
        <time>2016-07-20T14:52:29Z</time>
      </trkpt>
      <trkpt lat="41.284637" lon="-3.437715">
        <ele>1481.482</ele>
        <time>2016-07-20T14:52:37Z</time>
      </trkpt>
      <trkpt lat="41.284544" lon="-3.437718">
        <ele>1480.910</ele>
        <time>2016-07-20T14:52:47Z</time>
      </trkpt>
      <trkpt lat="41.284451" lon="-3.437718">
        <ele>1479.352</ele>
        <time>2016-07-20T14:52:56Z</time>
      </trkpt>
      <trkpt lat="41.284355" lon="-3.437731">
        <ele>1478.353</ele>
        <time>2016-07-20T14:53:06Z</time>
      </trkpt>
      <trkpt lat="41.284260" lon="-3.437711">
        <ele>1478.008</ele>
        <time>2016-07-20T14:53:17Z</time>
      </trkpt>
      <trkpt lat="41.284155" lon="-3.437684">
        <ele>1478.708</ele>
        <time>2016-07-20T14:53:27Z</time>
      </trkpt>
      <trkpt lat="41.284066" lon="-3.437719">
        <ele>1479.056</ele>
        <time>2016-07-20T14:53:36Z</time>
      </trkpt>
      <trkpt lat="41.283979" lon="-3.437778">
        <ele>1480.159</ele>
        <time>2016-07-20T14:53:44Z</time>
      </trkpt>
      <trkpt lat="41.283889" lon="-3.437775">
        <ele>1480.155</ele>
        <time>2016-07-20T14:54:01Z</time>
      </trkpt>
      <trkpt lat="41.283813" lon="-3.437854">
        <ele>1480.041</ele>
        <time>2016-07-20T14:54:10Z</time>
      </trkpt>
      <trkpt lat="41.283725" lon="-3.437812">
        <ele>1483.186</ele>
        <time>2016-07-20T14:54:28Z</time>
      </trkpt>
      <trkpt lat="41.283663" lon="-3.437715">
        <ele>1485.029</ele>
        <time>2016-07-20T14:54:37Z</time>
      </trkpt>
      <trkpt lat="41.283600" lon="-3.437602">
        <ele>1486.839</ele>
        <time>2016-07-20T14:54:46Z</time>
      </trkpt>
      <trkpt lat="41.283557" lon="-3.437495">
        <ele>1488.297</ele>
        <time>2016-07-20T14:54:51Z</time>
      </trkpt>
      <trkpt lat="41.283601" lon="-3.437613">
        <ele>1488.763</ele>
        <time>2016-07-20T14:55:09Z</time>
      </trkpt>
      <trkpt lat="41.283542" lon="-3.437520">
        <ele>1489.644</ele>
        <time>2016-07-20T14:56:53Z</time>
      </trkpt>
      <trkpt lat="41.283449" lon="-3.437548">
        <ele>1489.218</ele>
        <time>2016-07-20T14:57:09Z</time>
      </trkpt>
      <trkpt lat="41.283528" lon="-3.437613">
        <ele>1498.508</ele>
        <time>2016-07-20T15:03:15Z</time>
      </trkpt>
      <trkpt lat="41.283609" lon="-3.437542">
        <ele>1497.967</ele>
        <time>2016-07-20T15:03:24Z</time>
      </trkpt>
      <trkpt lat="41.283674" lon="-3.437626">
        <ele>1495.450</ele>
        <time>2016-07-20T15:03:40Z</time>
      </trkpt>
      <trkpt lat="41.283705" lon="-3.437745">
        <ele>1494.666</ele>
        <time>2016-07-20T15:03:56Z</time>
      </trkpt>
      <trkpt lat="41.283794" lon="-3.437797">
        <ele>1495.612</ele>
        <time>2016-07-20T15:04:14Z</time>
      </trkpt>
      <trkpt lat="41.283903" lon="-3.437771">
        <ele>1496.157</ele>
        <time>2016-07-20T15:04:28Z</time>
      </trkpt>
      <trkpt lat="41.283990" lon="-3.437733">
        <ele>1496.110</ele>
        <time>2016-07-20T15:04:38Z</time>
      </trkpt>
      <trkpt lat="41.284084" lon="-3.437745">
        <ele>1493.840</ele>
        <time>2016-07-20T15:04:54Z</time>
      </trkpt>
      <trkpt lat="41.284153" lon="-3.437840">
        <ele>1492.478</ele>
        <time>2016-07-20T15:05:00Z</time>
      </trkpt>
      <trkpt lat="41.284247" lon="-3.437873">
        <ele>1490.461</ele>
        <time>2016-07-20T15:05:13Z</time>
      </trkpt>
      <trkpt lat="41.284306" lon="-3.437779">
        <ele>1488.821</ele>
        <time>2016-07-20T15:05:24Z</time>
      </trkpt>
      <trkpt lat="41.284389" lon="-3.437721">
        <ele>1485.913</ele>
        <time>2016-07-20T15:05:39Z</time>
      </trkpt>
      <trkpt lat="41.284479" lon="-3.437712">
        <ele>1483.608</ele>
        <time>2016-07-20T15:05:53Z</time>
      </trkpt>
      <trkpt lat="41.284575" lon="-3.437701">
        <ele>1481.757</ele>
        <time>2016-07-20T15:06:06Z</time>
      </trkpt>
      <trkpt lat="41.284671" lon="-3.437711">
        <ele>1480.170</ele>
        <time>2016-07-20T15:06:17Z</time>
      </trkpt>
      <trkpt lat="41.284770" lon="-3.437706">
        <ele>1480.716</ele>
        <time>2016-07-20T15:06:33Z</time>
      </trkpt>
      <trkpt lat="41.284860" lon="-3.437681">
        <ele>1480.912</ele>
        <time>2016-07-20T15:06:46Z</time>
      </trkpt>
      <trkpt lat="41.284909" lon="-3.437804">
        <ele>1482.447</ele>
        <time>2016-07-20T15:06:56Z</time>
      </trkpt>
      <trkpt lat="41.284824" lon="-3.437867">
        <ele>1496.370</ele>
        <time>2016-07-20T15:08:08Z</time>
      </trkpt>
      <trkpt lat="41.284797" lon="-3.437740">
        <ele>1495.580</ele>
        <time>2016-07-20T15:08:12Z</time>
      </trkpt>
      <trkpt lat="41.284803" lon="-3.437620">
        <ele>1494.458</ele>
        <time>2016-07-20T15:08:14Z</time>
      </trkpt>
      <trkpt lat="41.284808" lon="-3.437495">
        <ele>1493.246</ele>
        <time>2016-07-20T15:08:16Z</time>
      </trkpt>
      <trkpt lat="41.284802" lon="-3.437357">
        <ele>1491.988</ele>
        <time>2016-07-20T15:08:18Z</time>
      </trkpt>
      <trkpt lat="41.284924" lon="-3.437313">
        <ele>1491.516</ele>
        <time>2016-07-20T15:08:20Z</time>
      </trkpt>
      <trkpt lat="41.285066" lon="-3.437336">
        <ele>1491.708</ele>
        <time>2016-07-20T15:08:22Z</time>
      </trkpt>
      <trkpt lat="41.285156" lon="-3.437319">
        <ele>1491.495</ele>
        <time>2016-07-20T15:08:23Z</time>
      </trkpt>
      <trkpt lat="41.285248" lon="-3.437284">
        <ele>1490.898</ele>
        <time>2016-07-20T15:08:24Z</time>
      </trkpt>
      <trkpt lat="41.285348" lon="-3.437249">
        <ele>1489.714</ele>
        <time>2016-07-20T15:08:25Z</time>
      </trkpt>
      <trkpt lat="41.285440" lon="-3.437176">
        <ele>1488.650</ele>
        <time>2016-07-20T15:08:26Z</time>
      </trkpt>
      <trkpt lat="41.285535" lon="-3.437093">
        <ele>1487.585</ele>
        <time>2016-07-20T15:08:27Z</time>
      </trkpt>
      <trkpt lat="41.285630" lon="-3.437030">
        <ele>1486.348</ele>
        <time>2016-07-20T15:08:28Z</time>
      </trkpt>
      <trkpt lat="41.285718" lon="-3.436957">
        <ele>1484.898</ele>
        <time>2016-07-20T15:08:29Z</time>
      </trkpt>
      <trkpt lat="41.285802" lon="-3.436882">
        <ele>1483.366</ele>
        <time>2016-07-20T15:08:30Z</time>
      </trkpt>
      <trkpt lat="41.285884" lon="-3.436802">
        <ele>1481.941</ele>
        <time>2016-07-20T15:08:31Z</time>
      </trkpt>
      <trkpt lat="41.285970" lon="-3.436719">
        <ele>1480.881</ele>
        <time>2016-07-20T15:08:32Z</time>
      </trkpt>
      <trkpt lat="41.286046" lon="-3.436644">
        <ele>1479.909</ele>
        <time>2016-07-20T15:08:33Z</time>
      </trkpt>
      <trkpt lat="41.286119" lon="-3.436568">
        <ele>1479.108</ele>
        <time>2016-07-20T15:08:34Z</time>
      </trkpt>
      <trkpt lat="41.286246" lon="-3.436427">
        <ele>1477.895</ele>
        <time>2016-07-20T15:08:36Z</time>
      </trkpt>
      <trkpt lat="41.286319" lon="-3.436347">
        <ele>1477.438</ele>
        <time>2016-07-20T15:08:37Z</time>
      </trkpt>
      <trkpt lat="41.286402" lon="-3.436272">
        <ele>1477.264</ele>
        <time>2016-07-20T15:08:38Z</time>
      </trkpt>
      <trkpt lat="41.286485" lon="-3.436195">
        <ele>1477.560</ele>
        <time>2016-07-20T15:08:39Z</time>
      </trkpt>
      <trkpt lat="41.286573" lon="-3.436118">
        <ele>1478.125</ele>
        <time>2016-07-20T15:08:40Z</time>
      </trkpt>
      <trkpt lat="41.286659" lon="-3.436040">
        <ele>1478.858</ele>
        <time>2016-07-20T15:08:41Z</time>
      </trkpt>
      <trkpt lat="41.286742" lon="-3.435963">
        <ele>1479.778</ele>
        <time>2016-07-20T15:08:42Z</time>
      </trkpt>
      <trkpt lat="41.286825" lon="-3.435886">
        <ele>1480.546</ele>
        <time>2016-07-20T15:08:43Z</time>
      </trkpt>
      <trkpt lat="41.286912" lon="-3.435807">
        <ele>1481.288</ele>
        <time>2016-07-20T15:08:44Z</time>
      </trkpt>
      <trkpt lat="41.286998" lon="-3.435729">
        <ele>1481.724</ele>
        <time>2016-07-20T15:08:45Z</time>
      </trkpt>
      <trkpt lat="41.287076" lon="-3.435647">
        <ele>1482.126</ele>
        <time>2016-07-20T15:08:46Z</time>
      </trkpt>
      <trkpt lat="41.287149" lon="-3.435562">
        <ele>1482.408</ele>
        <time>2016-07-20T15:08:47Z</time>
      </trkpt>
      <trkpt lat="41.287209" lon="-3.435462">
        <ele>1482.659</ele>
        <time>2016-07-20T15:08:48Z</time>
      </trkpt>
      <trkpt lat="41.287265" lon="-3.435358">
        <ele>1482.872</ele>
        <time>2016-07-20T15:08:49Z</time>
      </trkpt>
      <trkpt lat="41.287319" lon="-3.435257">
        <ele>1483.178</ele>
        <time>2016-07-20T15:08:50Z</time>
      </trkpt>
      <trkpt lat="41.287375" lon="-3.435151">
        <ele>1483.574</ele>
        <time>2016-07-20T15:08:51Z</time>
      </trkpt>
      <trkpt lat="41.287436" lon="-3.435054">
        <ele>1483.939</ele>
        <time>2016-07-20T15:08:52Z</time>
      </trkpt>
      <trkpt lat="41.287507" lon="-3.434948">
        <ele>1484.482</ele>
        <time>2016-07-20T15:08:53Z</time>
      </trkpt>
      <trkpt lat="41.287579" lon="-3.434859">
        <ele>1484.962</ele>
        <time>2016-07-20T15:08:54Z</time>
      </trkpt>
      <trkpt lat="41.287654" lon="-3.434779">
        <ele>1485.670</ele>
        <time>2016-07-20T15:08:55Z</time>
      </trkpt>
      <trkpt lat="41.287735" lon="-3.434702">
        <ele>1486.362</ele>
        <time>2016-07-20T15:08:56Z</time>
      </trkpt>
      <trkpt lat="41.287813" lon="-3.434637">
        <ele>1487.183</ele>
        <time>2016-07-20T15:08:57Z</time>
      </trkpt>
      <trkpt lat="41.287897" lon="-3.434574">
        <ele>1487.911</ele>
        <time>2016-07-20T15:08:58Z</time>
      </trkpt>
      <trkpt lat="41.287990" lon="-3.434515">
        <ele>1488.908</ele>
        <time>2016-07-20T15:08:59Z</time>
      </trkpt>
      <trkpt lat="41.288090" lon="-3.434459">
        <ele>1489.837</ele>
        <time>2016-07-20T15:09:00Z</time>
      </trkpt>
      <trkpt lat="41.288196" lon="-3.434400">
        <ele>1490.830</ele>
        <time>2016-07-20T15:09:01Z</time>
      </trkpt>
      <trkpt lat="41.288308" lon="-3.434342">
        <ele>1492.066</ele>
        <time>2016-07-20T15:09:02Z</time>
      </trkpt>
      <trkpt lat="41.288417" lon="-3.434291">
        <ele>1493.042</ele>
        <time>2016-07-20T15:09:03Z</time>
      </trkpt>
      <trkpt lat="41.288505" lon="-3.434238">
        <ele>1493.787</ele>
        <time>2016-07-20T15:09:04Z</time>
      </trkpt>
      <trkpt lat="41.288660" lon="-3.434135">
        <ele>1494.330</ele>
        <time>2016-07-20T15:09:07Z</time>
      </trkpt>
      <trkpt lat="41.288802" lon="-3.434021">
        <ele>1494.910</ele>
        <time>2016-07-20T15:09:09Z</time>
      </trkpt>
      <trkpt lat="41.288945" lon="-3.433892">
        <ele>1495.318</ele>
        <time>2016-07-20T15:09:11Z</time>
      </trkpt>
      <trkpt lat="41.289106" lon="-3.433758">
        <ele>1495.965</ele>
        <time>2016-07-20T15:09:12Z</time>
      </trkpt>
      <trkpt lat="41.289203" lon="-3.433683">
        <ele>1496.368</ele>
        <time>2016-07-20T15:09:13Z</time>
      </trkpt>
      <trkpt lat="41.289303" lon="-3.433610">
        <ele>1496.814</ele>
        <time>2016-07-20T15:09:14Z</time>
      </trkpt>
      <trkpt lat="41.289395" lon="-3.433540">
        <ele>1497.508</ele>
        <time>2016-07-20T15:09:15Z</time>
      </trkpt>
      <trkpt lat="41.289479" lon="-3.433471">
        <ele>1498.647</ele>
        <time>2016-07-20T15:09:16Z</time>
      </trkpt>
      <trkpt lat="41.289561" lon="-3.433403">
        <ele>1500.120</ele>
        <time>2016-07-20T15:09:17Z</time>
      </trkpt>
      <trkpt lat="41.289648" lon="-3.433328">
        <ele>1501.996</ele>
        <time>2016-07-20T15:09:18Z</time>
      </trkpt>
      <trkpt lat="41.289738" lon="-3.433255">
        <ele>1503.842</ele>
        <time>2016-07-20T15:09:19Z</time>
      </trkpt>
      <trkpt lat="41.289836" lon="-3.433182">
        <ele>1505.397</ele>
        <time>2016-07-20T15:09:20Z</time>
      </trkpt>
      <trkpt lat="41.289929" lon="-3.433101">
        <ele>1506.220</ele>
        <time>2016-07-20T15:09:21Z</time>
      </trkpt>
      <trkpt lat="41.290016" lon="-3.433011">
        <ele>1506.840</ele>
        <time>2016-07-20T15:09:22Z</time>
      </trkpt>
      <trkpt lat="41.290092" lon="-3.432911">
        <ele>1507.388</ele>
        <time>2016-07-20T15:09:23Z</time>
      </trkpt>
      <trkpt lat="41.290153" lon="-3.432801">
        <ele>1507.985</ele>
        <time>2016-07-20T15:09:24Z</time>
      </trkpt>
      <trkpt lat="41.290207" lon="-3.432685">
        <ele>1508.689</ele>
        <time>2016-07-20T15:09:25Z</time>
      </trkpt>
      <trkpt lat="41.290269" lon="-3.432573">
        <ele>1509.617</ele>
        <time>2016-07-20T15:09:26Z</time>
      </trkpt>
      <trkpt lat="41.290337" lon="-3.432468">
        <ele>1510.508</ele>
        <time>2016-07-20T15:09:27Z</time>
      </trkpt>
      <trkpt lat="41.290407" lon="-3.432369">
        <ele>1511.349</ele>
        <time>2016-07-20T15:09:28Z</time>
      </trkpt>
      <trkpt lat="41.290485" lon="-3.432273">
        <ele>1511.942</ele>
        <time>2016-07-20T15:09:29Z</time>
      </trkpt>
      <trkpt lat="41.290565" lon="-3.432168">
        <ele>1512.318</ele>
        <time>2016-07-20T15:09:30Z</time>
      </trkpt>
      <trkpt lat="41.290641" lon="-3.432054">
        <ele>1512.544</ele>
        <time>2016-07-20T15:09:31Z</time>
      </trkpt>
      <trkpt lat="41.290715" lon="-3.431933">
        <ele>1512.879</ele>
        <time>2016-07-20T15:09:32Z</time>
      </trkpt>
      <trkpt lat="41.290780" lon="-3.431807">
        <ele>1512.982</ele>
        <time>2016-07-20T15:09:33Z</time>
      </trkpt>
      <trkpt lat="41.290840" lon="-3.431674">
        <ele>1513.062</ele>
        <time>2016-07-20T15:09:34Z</time>
      </trkpt>
      <trkpt lat="41.290906" lon="-3.431533">
        <ele>1513.010</ele>
        <time>2016-07-20T15:09:35Z</time>
      </trkpt>
      <trkpt lat="41.290970" lon="-3.431390">
        <ele>1513.181</ele>
        <time>2016-07-20T15:09:36Z</time>
      </trkpt>
      <trkpt lat="41.291027" lon="-3.431246">
        <ele>1513.361</ele>
        <time>2016-07-20T15:09:37Z</time>
      </trkpt>
      <trkpt lat="41.291086" lon="-3.431100">
        <ele>1513.517</ele>
        <time>2016-07-20T15:09:38Z</time>
      </trkpt>
      <trkpt lat="41.291147" lon="-3.430959">
        <ele>1513.808</ele>
        <time>2016-07-20T15:09:39Z</time>
      </trkpt>
      <trkpt lat="41.291209" lon="-3.430817">
        <ele>1514.139</ele>
        <time>2016-07-20T15:09:40Z</time>
      </trkpt>
      <trkpt lat="41.291267" lon="-3.430676">
        <ele>1514.522</ele>
        <time>2016-07-20T15:09:41Z</time>
      </trkpt>
      <trkpt lat="41.291324" lon="-3.430538">
        <ele>1515.088</ele>
        <time>2016-07-20T15:09:42Z</time>
      </trkpt>
      <trkpt lat="41.291383" lon="-3.430403">
        <ele>1515.634</ele>
        <time>2016-07-20T15:09:43Z</time>
      </trkpt>
      <trkpt lat="41.291429" lon="-3.430274">
        <ele>1516.389</ele>
        <time>2016-07-20T15:09:44Z</time>
      </trkpt>
      <trkpt lat="41.291462" lon="-3.430141">
        <ele>1517.242</ele>
        <time>2016-07-20T15:09:45Z</time>
      </trkpt>
      <trkpt lat="41.291483" lon="-3.430008">
        <ele>1518.122</ele>
        <time>2016-07-20T15:09:46Z</time>
      </trkpt>
      <trkpt lat="41.291496" lon="-3.429886">
        <ele>1519.090</ele>
        <time>2016-07-20T15:09:47Z</time>
      </trkpt>
      <trkpt lat="41.291501" lon="-3.429683">
        <ele>1521.674</ele>
        <time>2016-07-20T15:09:50Z</time>
      </trkpt>
      <trkpt lat="41.291488" lon="-3.429523">
        <ele>1526.956</ele>
        <time>2016-07-20T15:09:52Z</time>
      </trkpt>
      <trkpt lat="41.291398" lon="-3.429589">
        <ele>1537.321</ele>
        <time>2016-07-20T15:10:00Z</time>
      </trkpt>
      <trkpt lat="41.291466" lon="-3.429508">
        <ele>1543.308</ele>
        <time>2016-07-20T15:10:09Z</time>
      </trkpt>
      <trkpt lat="41.291553" lon="-3.429472">
        <ele>1545.148</ele>
        <time>2016-07-20T15:10:11Z</time>
      </trkpt>
      <trkpt lat="41.291639" lon="-3.429518">
        <ele>1545.581</ele>
        <time>2016-07-20T15:10:13Z</time>
      </trkpt>
      <trkpt lat="41.291669" lon="-3.429662">
        <ele>1546.147</ele>
        <time>2016-07-20T15:10:15Z</time>
      </trkpt>
      <trkpt lat="41.291670" lon="-3.429840">
        <ele>1547.193</ele>
        <time>2016-07-20T15:10:17Z</time>
      </trkpt>
      <trkpt lat="41.291646" lon="-3.430038">
        <ele>1548.398</ele>
        <time>2016-07-20T15:10:19Z</time>
      </trkpt>
      <trkpt lat="41.291603" lon="-3.430236">
        <ele>1550.331</ele>
        <time>2016-07-20T15:10:21Z</time>
      </trkpt>
      <trkpt lat="41.291539" lon="-3.430407">
        <ele>1551.591</ele>
        <time>2016-07-20T15:10:23Z</time>
      </trkpt>
      <trkpt lat="41.291455" lon="-3.430597">
        <ele>1552.369</ele>
        <time>2016-07-20T15:10:25Z</time>
      </trkpt>
      <trkpt lat="41.291369" lon="-3.430795">
        <ele>1552.453</ele>
        <time>2016-07-20T15:10:28Z</time>
      </trkpt>
      <trkpt lat="41.291265" lon="-3.431007">
        <ele>1552.204</ele>
        <time>2016-07-20T15:10:29Z</time>
      </trkpt>
      <trkpt lat="41.291167" lon="-3.431216">
        <ele>1550.414</ele>
        <time>2016-07-20T15:10:31Z</time>
      </trkpt>
      <trkpt lat="41.291119" lon="-3.431323">
        <ele>1549.008</ele>
        <time>2016-07-20T15:10:32Z</time>
      </trkpt>
      <trkpt lat="41.291064" lon="-3.431435">
        <ele>1547.766</ele>
        <time>2016-07-20T15:10:33Z</time>
      </trkpt>
      <trkpt lat="41.291013" lon="-3.431547">
        <ele>1546.399</ele>
        <time>2016-07-20T15:10:34Z</time>
      </trkpt>
      <trkpt lat="41.290964" lon="-3.431652">
        <ele>1544.665</ele>
        <time>2016-07-20T15:10:35Z</time>
      </trkpt>
      <trkpt lat="41.290915" lon="-3.431758">
        <ele>1542.451</ele>
        <time>2016-07-20T15:10:36Z</time>
      </trkpt>
      <trkpt lat="41.290859" lon="-3.431865">
        <ele>1540.476</ele>
        <time>2016-07-20T15:10:37Z</time>
      </trkpt>
      <trkpt lat="41.290736" lon="-3.432056">
        <ele>1536.939</ele>
        <time>2016-07-20T15:10:39Z</time>
      </trkpt>
      <trkpt lat="41.290605" lon="-3.432214">
        <ele>1534.149</ele>
        <time>2016-07-20T15:10:41Z</time>
      </trkpt>
      <trkpt lat="41.290536" lon="-3.432300">
        <ele>1532.917</ele>
        <time>2016-07-20T15:10:42Z</time>
      </trkpt>
      <trkpt lat="41.290466" lon="-3.432386">
        <ele>1531.927</ele>
        <time>2016-07-20T15:10:43Z</time>
      </trkpt>
      <trkpt lat="41.290402" lon="-3.432472">
        <ele>1531.068</ele>
        <time>2016-07-20T15:10:44Z</time>
      </trkpt>
      <trkpt lat="41.290340" lon="-3.432565">
        <ele>1530.014</ele>
        <time>2016-07-20T15:10:45Z</time>
      </trkpt>
      <trkpt lat="41.290231" lon="-3.432753">
        <ele>1528.108</ele>
        <time>2016-07-20T15:10:47Z</time>
      </trkpt>
      <trkpt lat="41.290167" lon="-3.432845">
        <ele>1527.073</ele>
        <time>2016-07-20T15:10:48Z</time>
      </trkpt>
      <trkpt lat="41.290092" lon="-3.432940">
        <ele>1525.886</ele>
        <time>2016-07-20T15:10:49Z</time>
      </trkpt>
      <trkpt lat="41.289996" lon="-3.433033">
        <ele>1524.742</ele>
        <time>2016-07-20T15:10:50Z</time>
      </trkpt>
      <trkpt lat="41.289905" lon="-3.433118">
        <ele>1523.648</ele>
        <time>2016-07-20T15:10:51Z</time>
      </trkpt>
      <trkpt lat="41.289816" lon="-3.433196">
        <ele>1522.033</ele>
        <time>2016-07-20T15:10:52Z</time>
      </trkpt>
      <trkpt lat="41.289726" lon="-3.433274">
        <ele>1520.336</ele>
        <time>2016-07-20T15:10:53Z</time>
      </trkpt>
      <trkpt lat="41.289632" lon="-3.433349">
        <ele>1518.746</ele>
        <time>2016-07-20T15:10:54Z</time>
      </trkpt>
      <trkpt lat="41.289536" lon="-3.433435">
        <ele>1517.464</ele>
        <time>2016-07-20T15:10:55Z</time>
      </trkpt>
      <trkpt lat="41.289446" lon="-3.433521">
        <ele>1516.235</ele>
        <time>2016-07-20T15:10:56Z</time>
      </trkpt>
      <trkpt lat="41.289357" lon="-3.433603">
        <ele>1515.186</ele>
        <time>2016-07-20T15:10:57Z</time>
      </trkpt>
      <trkpt lat="41.289266" lon="-3.433678">
        <ele>1514.014</ele>
        <time>2016-07-20T15:10:58Z</time>
      </trkpt>
      <trkpt lat="41.289176" lon="-3.433753">
        <ele>1513.208</ele>
        <time>2016-07-20T15:10:59Z</time>
      </trkpt>
      <trkpt lat="41.289092" lon="-3.433826">
        <ele>1512.354</ele>
        <time>2016-07-20T15:11:00Z</time>
      </trkpt>
      <trkpt lat="41.288998" lon="-3.433906">
        <ele>1511.857</ele>
        <time>2016-07-20T15:11:01Z</time>
      </trkpt>
      <trkpt lat="41.288902" lon="-3.433988">
        <ele>1511.633</ele>
        <time>2016-07-20T15:11:02Z</time>
      </trkpt>
      <trkpt lat="41.288814" lon="-3.434053">
        <ele>1511.429</ele>
        <time>2016-07-20T15:11:03Z</time>
      </trkpt>
      <trkpt lat="41.288724" lon="-3.434113">
        <ele>1511.224</ele>
        <time>2016-07-20T15:11:04Z</time>
      </trkpt>
      <trkpt lat="41.288574" lon="-3.434199">
        <ele>1509.697</ele>
        <time>2016-07-20T15:11:06Z</time>
      </trkpt>
      <trkpt lat="41.288482" lon="-3.434250">
        <ele>1508.487</ele>
        <time>2016-07-20T15:11:07Z</time>
      </trkpt>
      <trkpt lat="41.288383" lon="-3.434301">
        <ele>1507.565</ele>
        <time>2016-07-20T15:11:08Z</time>
      </trkpt>
      <trkpt lat="41.288277" lon="-3.434349">
        <ele>1507.114</ele>
        <time>2016-07-20T15:11:09Z</time>
      </trkpt>
      <trkpt lat="41.288174" lon="-3.434405">
        <ele>1507.154</ele>
        <time>2016-07-20T15:11:10Z</time>
      </trkpt>
      <trkpt lat="41.288073" lon="-3.434464">
        <ele>1507.109</ele>
        <time>2016-07-20T15:11:11Z</time>
      </trkpt>
      <trkpt lat="41.287979" lon="-3.434525">
        <ele>1506.808</ele>
        <time>2016-07-20T15:11:12Z</time>
      </trkpt>
      <trkpt lat="41.287891" lon="-3.434586">
        <ele>1506.192</ele>
        <time>2016-07-20T15:11:13Z</time>
      </trkpt>
      <trkpt lat="41.287808" lon="-3.434648">
        <ele>1505.385</ele>
        <time>2016-07-20T15:11:14Z</time>
      </trkpt>
      <trkpt lat="41.287730" lon="-3.434719">
        <ele>1504.461</ele>
        <time>2016-07-20T15:11:15Z</time>
      </trkpt>
      <trkpt lat="41.287655" lon="-3.434792">
        <ele>1503.577</ele>
        <time>2016-07-20T15:11:16Z</time>
      </trkpt>
      <trkpt lat="41.287582" lon="-3.434870">
        <ele>1502.612</ele>
        <time>2016-07-20T15:11:17Z</time>
      </trkpt>
      <trkpt lat="41.287511" lon="-3.434954">
        <ele>1502.385</ele>
        <time>2016-07-20T15:11:18Z</time>
      </trkpt>
      <trkpt lat="41.287455" lon="-3.435053">
        <ele>1502.285</ele>
        <time>2016-07-20T15:11:19Z</time>
      </trkpt>
      <trkpt lat="41.287395" lon="-3.435154">
        <ele>1502.263</ele>
        <time>2016-07-20T15:11:20Z</time>
      </trkpt>
      <trkpt lat="41.287339" lon="-3.435253">
        <ele>1501.853</ele>
        <time>2016-07-20T15:11:21Z</time>
      </trkpt>
      <trkpt lat="41.287278" lon="-3.435356">
        <ele>1501.204</ele>
        <time>2016-07-20T15:11:22Z</time>
      </trkpt>
      <trkpt lat="41.287212" lon="-3.435453">
        <ele>1500.214</ele>
        <time>2016-07-20T15:11:23Z</time>
      </trkpt>
      <trkpt lat="41.287137" lon="-3.435538">
        <ele>1499.008</ele>
        <time>2016-07-20T15:11:24Z</time>
      </trkpt>
      <trkpt lat="41.287061" lon="-3.435617">
        <ele>1497.616</ele>
        <time>2016-07-20T15:11:25Z</time>
      </trkpt>
      <trkpt lat="41.286984" lon="-3.435690">
        <ele>1496.019</ele>
        <time>2016-07-20T15:11:26Z</time>
      </trkpt>
      <trkpt lat="41.286910" lon="-3.435760">
        <ele>1494.515</ele>
        <time>2016-07-20T15:11:27Z</time>
      </trkpt>
      <trkpt lat="41.286762" lon="-3.435888">
        <ele>1491.731</ele>
        <time>2016-07-20T15:11:29Z</time>
      </trkpt>
      <trkpt lat="41.286618" lon="-3.436014">
        <ele>1490.096</ele>
        <time>2016-07-20T15:11:31Z</time>
      </trkpt>
      <trkpt lat="41.286479" lon="-3.436117">
        <ele>1488.529</ele>
        <time>2016-07-20T15:11:33Z</time>
      </trkpt>
      <trkpt lat="41.286348" lon="-3.436238">
        <ele>1487.479</ele>
        <time>2016-07-20T15:11:35Z</time>
      </trkpt>
      <trkpt lat="41.286270" lon="-3.436303">
        <ele>1487.117</ele>
        <time>2016-07-20T15:11:36Z</time>
      </trkpt>
      <trkpt lat="41.286194" lon="-3.436377">
        <ele>1487.082</ele>
        <time>2016-07-20T15:11:37Z</time>
      </trkpt>
      <trkpt lat="41.286118" lon="-3.436456">
        <ele>1486.743</ele>
        <time>2016-07-20T15:11:38Z</time>
      </trkpt>
      <trkpt lat="41.286028" lon="-3.436542">
        <ele>1486.117</ele>
        <time>2016-07-20T15:11:39Z</time>
      </trkpt>
      <trkpt lat="41.285936" lon="-3.436625">
        <ele>1485.408</ele>
        <time>2016-07-20T15:11:40Z</time>
      </trkpt>
      <trkpt lat="41.285840" lon="-3.436702">
        <ele>1484.699</ele>
        <time>2016-07-20T15:11:41Z</time>
      </trkpt>
      <trkpt lat="41.285748" lon="-3.436778">
        <ele>1484.032</ele>
        <time>2016-07-20T15:11:42Z</time>
      </trkpt>
      <trkpt lat="41.285662" lon="-3.436851">
        <ele>1483.848</ele>
        <time>2016-07-20T15:11:43Z</time>
      </trkpt>
      <trkpt lat="41.285585" lon="-3.436921">
        <ele>1483.954</ele>
        <time>2016-07-20T15:11:44Z</time>
      </trkpt>
      <trkpt lat="41.285508" lon="-3.436994">
        <ele>1484.399</ele>
        <time>2016-07-20T15:11:45Z</time>
      </trkpt>
      <trkpt lat="41.285431" lon="-3.437065">
        <ele>1484.752</ele>
        <time>2016-07-20T15:11:46Z</time>
      </trkpt>
      <trkpt lat="41.285351" lon="-3.437127">
        <ele>1485.312</ele>
        <time>2016-07-20T15:11:47Z</time>
      </trkpt>
      <trkpt lat="41.285266" lon="-3.437172">
        <ele>1485.980</ele>
        <time>2016-07-20T15:11:48Z</time>
      </trkpt>
      <trkpt lat="41.285106" lon="-3.437227">
        <ele>1487.436</ele>
        <time>2016-07-20T15:11:50Z</time>
      </trkpt>
      <trkpt lat="41.284956" lon="-3.437231">
        <ele>1488.617</ele>
        <time>2016-07-20T15:11:52Z</time>
      </trkpt>
      <trkpt lat="41.284839" lon="-3.437253">
        <ele>1490.318</ele>
        <time>2016-07-20T15:11:54Z</time>
      </trkpt>
      <trkpt lat="41.284794" lon="-3.437405">
        <ele>1490.908</ele>
        <time>2016-07-20T15:11:58Z</time>
      </trkpt>
      <trkpt lat="41.284807" lon="-3.437526">
        <ele>1490.034</ele>
        <time>2016-07-20T15:12:00Z</time>
      </trkpt>
      <trkpt lat="41.284806" lon="-3.437669">
        <ele>1488.927</ele>
        <time>2016-07-20T15:12:02Z</time>
      </trkpt>
      <trkpt lat="41.284780" lon="-3.437827">
        <ele>1487.483</ele>
        <time>2016-07-20T15:12:04Z</time>
      </trkpt>
      <trkpt lat="41.284741" lon="-3.438004">
        <ele>1486.089</ele>
        <time>2016-07-20T15:12:06Z</time>
      </trkpt>
      <trkpt lat="41.284684" lon="-3.438198">
        <ele>1483.784</ele>
        <time>2016-07-20T15:12:08Z</time>
      </trkpt>
      <trkpt lat="41.284618" lon="-3.438389">
        <ele>1481.347</ele>
        <time>2016-07-20T15:12:10Z</time>
      </trkpt>
      <trkpt lat="41.284545" lon="-3.438574">
        <ele>1479.467</ele>
        <time>2016-07-20T15:12:12Z</time>
      </trkpt>
      <trkpt lat="41.284467" lon="-3.438763">
        <ele>1477.835</ele>
        <time>2016-07-20T15:12:14Z</time>
      </trkpt>
      <trkpt lat="41.284374" lon="-3.438955">
        <ele>1476.714</ele>
        <time>2016-07-20T15:12:16Z</time>
      </trkpt>
      <trkpt lat="41.284296" lon="-3.439119">
        <ele>1475.654</ele>
        <time>2016-07-20T15:12:18Z</time>
      </trkpt>
      <trkpt lat="41.284280" lon="-3.439287">
        <ele>1472.709</ele>
        <time>2016-07-20T15:12:21Z</time>
      </trkpt>
      <trkpt lat="41.284210" lon="-3.439380">
        <ele>1472.508</ele>
        <time>2016-07-20T15:12:25Z</time>
      </trkpt>
      <trkpt lat="41.284046" lon="-3.439329">
        <ele>1472.862</ele>
        <time>2016-07-20T15:12:29Z</time>
      </trkpt>
      <trkpt lat="41.283944" lon="-3.439310">
        <ele>1472.935</ele>
        <time>2016-07-20T15:12:31Z</time>
      </trkpt>
      <trkpt lat="41.283821" lon="-3.439291">
        <ele>1471.261</ele>
        <time>2016-07-20T15:12:33Z</time>
      </trkpt>
      <trkpt lat="41.283686" lon="-3.439284">
        <ele>1469.937</ele>
        <time>2016-07-20T15:12:35Z</time>
      </trkpt>
      <trkpt lat="41.283557" lon="-3.439300">
        <ele>1469.862</ele>
        <time>2016-07-20T15:12:37Z</time>
      </trkpt>
      <trkpt lat="41.283456" lon="-3.439338">
        <ele>1469.125</ele>
        <time>2016-07-20T15:12:40Z</time>
      </trkpt>
      <trkpt lat="41.283365" lon="-3.439414">
        <ele>1468.075</ele>
        <time>2016-07-20T15:12:42Z</time>
      </trkpt>
      <trkpt lat="41.283286" lon="-3.439531">
        <ele>1466.163</ele>
        <time>2016-07-20T15:12:44Z</time>
      </trkpt>
      <trkpt lat="41.283231" lon="-3.439672">
        <ele>1464.254</ele>
        <time>2016-07-20T15:12:46Z</time>
      </trkpt>
      <trkpt lat="41.283188" lon="-3.439835">
        <ele>1462.456</ele>
        <time>2016-07-20T15:12:49Z</time>
      </trkpt>
      <trkpt lat="41.283160" lon="-3.439949">
        <ele>1461.211</ele>
        <time>2016-07-20T15:12:51Z</time>
      </trkpt>
      <trkpt lat="41.283089" lon="-3.440034">
        <ele>1460.408</ele>
        <time>2016-07-20T15:12:53Z</time>
      </trkpt>
      <trkpt lat="41.282963" lon="-3.440069">
        <ele>1457.346</ele>
        <time>2016-07-20T15:12:56Z</time>
      </trkpt>
      <trkpt lat="41.282848" lon="-3.440138">
        <ele>1456.219</ele>
        <time>2016-07-20T15:12:59Z</time>
      </trkpt>
      <trkpt lat="41.282786" lon="-3.440229">
        <ele>1454.695</ele>
        <time>2016-07-20T15:13:01Z</time>
      </trkpt>
      <trkpt lat="41.282699" lon="-3.440310">
        <ele>1453.771</ele>
        <time>2016-07-20T15:13:04Z</time>
      </trkpt>
      <trkpt lat="41.282622" lon="-3.440384">
        <ele>1453.436</ele>
        <time>2016-07-20T15:13:07Z</time>
      </trkpt>
      <trkpt lat="41.282567" lon="-3.440507">
        <ele>1452.649</ele>
        <time>2016-07-20T15:13:09Z</time>
      </trkpt>
      <trkpt lat="41.282486" lon="-3.440665">
        <ele>1451.229</ele>
        <time>2016-07-20T15:13:11Z</time>
      </trkpt>
      <trkpt lat="41.282381" lon="-3.440813">
        <ele>1449.497</ele>
        <time>2016-07-20T15:13:13Z</time>
      </trkpt>
      <trkpt lat="41.282265" lon="-3.440903">
        <ele>1447.327</ele>
        <time>2016-07-20T15:13:15Z</time>
      </trkpt>
      <trkpt lat="41.282166" lon="-3.440905">
        <ele>1443.968</ele>
        <time>2016-07-20T15:13:17Z</time>
      </trkpt>
      <trkpt lat="41.282043" lon="-3.440902">
        <ele>1439.114</ele>
        <time>2016-07-20T15:13:20Z</time>
      </trkpt>
      <trkpt lat="41.281923" lon="-3.440934">
        <ele>1436.408</ele>
        <time>2016-07-20T15:13:22Z</time>
      </trkpt>
      <trkpt lat="41.281786" lon="-3.441011">
        <ele>1436.113</ele>
        <time>2016-07-20T15:13:24Z</time>
      </trkpt>
      <trkpt lat="41.281642" lon="-3.441105">
        <ele>1437.886</ele>
        <time>2016-07-20T15:13:26Z</time>
      </trkpt>
      <trkpt lat="41.281509" lon="-3.441167">
        <ele>1438.992</ele>
        <time>2016-07-20T15:13:28Z</time>
      </trkpt>
      <trkpt lat="41.281382" lon="-3.441189">
        <ele>1439.768</ele>
        <time>2016-07-20T15:13:30Z</time>
      </trkpt>
      <trkpt lat="41.281262" lon="-3.441206">
        <ele>1441.293</ele>
        <time>2016-07-20T15:13:32Z</time>
      </trkpt>
      <trkpt lat="41.281169" lon="-3.441273">
        <ele>1442.596</ele>
        <time>2016-07-20T15:13:34Z</time>
      </trkpt>
      <trkpt lat="41.281080" lon="-3.441387">
        <ele>1442.916</ele>
        <time>2016-07-20T15:13:36Z</time>
      </trkpt>
      <trkpt lat="41.280985" lon="-3.441514">
        <ele>1443.874</ele>
        <time>2016-07-20T15:13:39Z</time>
      </trkpt>
      <trkpt lat="41.280886" lon="-3.441614">
        <ele>1443.294</ele>
        <time>2016-07-20T15:13:41Z</time>
      </trkpt>
      <trkpt lat="41.280738" lon="-3.441703">
        <ele>1442.157</ele>
        <time>2016-07-20T15:13:43Z</time>
      </trkpt>
      <trkpt lat="41.280586" lon="-3.441790">
        <ele>1440.822</ele>
        <time>2016-07-20T15:13:45Z</time>
      </trkpt>
      <trkpt lat="41.280474" lon="-3.441886">
        <ele>1440.208</ele>
        <time>2016-07-20T15:13:47Z</time>
      </trkpt>
      <trkpt lat="41.280352" lon="-3.442004">
        <ele>1439.860</ele>
        <time>2016-07-20T15:13:49Z</time>
      </trkpt>
      <trkpt lat="41.280188" lon="-3.442115">
        <ele>1440.123</ele>
        <time>2016-07-20T15:13:50Z</time>
      </trkpt>
      <trkpt lat="41.280010" lon="-3.442200">
        <ele>1441.089</ele>
        <time>2016-07-20T15:13:52Z</time>
      </trkpt>
      <trkpt lat="41.279920" lon="-3.442229">
        <ele>1441.565</ele>
        <time>2016-07-20T15:13:53Z</time>
      </trkpt>
      <trkpt lat="41.279752" lon="-3.442265">
        <ele>1441.120</ele>
        <time>2016-07-20T15:13:55Z</time>
      </trkpt>
      <trkpt lat="41.279599" lon="-3.442288">
        <ele>1439.553</ele>
        <time>2016-07-20T15:13:57Z</time>
      </trkpt>
      <trkpt lat="41.279456" lon="-3.442313">
        <ele>1437.633</ele>
        <time>2016-07-20T15:13:59Z</time>
      </trkpt>
      <trkpt lat="41.279318" lon="-3.442348">
        <ele>1435.331</ele>
        <time>2016-07-20T15:14:01Z</time>
      </trkpt>
      <trkpt lat="41.279188" lon="-3.442396">
        <ele>1433.843</ele>
        <time>2016-07-20T15:14:03Z</time>
      </trkpt>
      <trkpt lat="41.279080" lon="-3.442445">
        <ele>1433.564</ele>
        <time>2016-07-20T15:14:36Z</time>
      </trkpt>
      <trkpt lat="41.278980" lon="-3.442485">
        <ele>1432.610</ele>
        <time>2016-07-20T15:14:38Z</time>
      </trkpt>
      <trkpt lat="41.278864" lon="-3.442546">
        <ele>1429.608</ele>
        <time>2016-07-20T15:14:40Z</time>
      </trkpt>
      <trkpt lat="41.278758" lon="-3.442620">
        <ele>1426.325</ele>
        <time>2016-07-20T15:14:42Z</time>
      </trkpt>
      <trkpt lat="41.278674" lon="-3.442735">
        <ele>1424.288</ele>
        <time>2016-07-20T15:14:44Z</time>
      </trkpt>
      <trkpt lat="41.278632" lon="-3.442881">
        <ele>1422.674</ele>
        <time>2016-07-20T15:14:46Z</time>
      </trkpt>
      <trkpt lat="41.278585" lon="-3.443047">
        <ele>1421.760</ele>
        <time>2016-07-20T15:14:48Z</time>
      </trkpt>
      <trkpt lat="41.278502" lon="-3.443213">
        <ele>1421.415</ele>
        <time>2016-07-20T15:14:50Z</time>
      </trkpt>
      <trkpt lat="41.278399" lon="-3.443364">
        <ele>1421.458</ele>
        <time>2016-07-20T15:14:52Z</time>
      </trkpt>
      <trkpt lat="41.278283" lon="-3.443520">
        <ele>1420.538</ele>
        <time>2016-07-20T15:14:54Z</time>
      </trkpt>
      <trkpt lat="41.278158" lon="-3.443684">
        <ele>1419.436</ele>
        <time>2016-07-20T15:14:56Z</time>
      </trkpt>
      <trkpt lat="41.278039" lon="-3.443854">
        <ele>1418.513</ele>
        <time>2016-07-20T15:14:58Z</time>
      </trkpt>
      <trkpt lat="41.277975" lon="-3.443951">
        <ele>1418.243</ele>
        <time>2016-07-20T15:14:59Z</time>
      </trkpt>
      <trkpt lat="41.277914" lon="-3.444043">
        <ele>1417.807</ele>
        <time>2016-07-20T15:15:00Z</time>
      </trkpt>
      <trkpt lat="41.277784" lon="-3.444175">
        <ele>1416.208</ele>
        <time>2016-07-20T15:15:02Z</time>
      </trkpt>
      <trkpt lat="41.277635" lon="-3.444240">
        <ele>1414.132</ele>
        <time>2016-07-20T15:15:04Z</time>
      </trkpt>
      <trkpt lat="41.277478" lon="-3.444221">
        <ele>1412.455</ele>
        <time>2016-07-20T15:15:06Z</time>
      </trkpt>
      <trkpt lat="41.277314" lon="-3.444182">
        <ele>1410.731</ele>
        <time>2016-07-20T15:15:08Z</time>
      </trkpt>
      <trkpt lat="41.277140" lon="-3.444195">
        <ele>1408.557</ele>
        <time>2016-07-20T15:15:10Z</time>
      </trkpt>
      <trkpt lat="41.276975" lon="-3.444262">
        <ele>1406.482</ele>
        <time>2016-07-20T15:15:12Z</time>
      </trkpt>
      <trkpt lat="41.276811" lon="-3.444331">
        <ele>1404.415</ele>
        <time>2016-07-20T15:15:14Z</time>
      </trkpt>
      <trkpt lat="41.276636" lon="-3.444397">
        <ele>1402.475</ele>
        <time>2016-07-20T15:15:16Z</time>
      </trkpt>
      <trkpt lat="41.276544" lon="-3.444426">
        <ele>1401.523</ele>
        <time>2016-07-20T15:15:17Z</time>
      </trkpt>
      <trkpt lat="41.276449" lon="-3.444443">
        <ele>1400.655</ele>
        <time>2016-07-20T15:15:18Z</time>
      </trkpt>
      <trkpt lat="41.276354" lon="-3.444440">
        <ele>1399.807</ele>
        <time>2016-07-20T15:15:19Z</time>
      </trkpt>
      <trkpt lat="41.276265" lon="-3.444421">
        <ele>1398.717</ele>
        <time>2016-07-20T15:15:20Z</time>
      </trkpt>
      <trkpt lat="41.276096" lon="-3.444342">
        <ele>1396.608</ele>
        <time>2016-07-20T15:15:22Z</time>
      </trkpt>
      <trkpt lat="41.275943" lon="-3.444318">
        <ele>1394.386</ele>
        <time>2016-07-20T15:15:24Z</time>
      </trkpt>
      <trkpt lat="41.275842" lon="-3.444408">
        <ele>1392.229</ele>
        <time>2016-07-20T15:15:26Z</time>
      </trkpt>
      <trkpt lat="41.275748" lon="-3.444538">
        <ele>1390.665</ele>
        <time>2016-07-20T15:15:28Z</time>
      </trkpt>
      <trkpt lat="41.275654" lon="-3.444675">
        <ele>1389.421</ele>
        <time>2016-07-20T15:15:30Z</time>
      </trkpt>
      <trkpt lat="41.275542" lon="-3.444822">
        <ele>1389.496</ele>
        <time>2016-07-20T15:15:32Z</time>
      </trkpt>
      <trkpt lat="41.275473" lon="-3.444901">
        <ele>1389.499</ele>
        <time>2016-07-20T15:15:33Z</time>
      </trkpt>
      <trkpt lat="41.275397" lon="-3.444986">
        <ele>1389.239</ele>
        <time>2016-07-20T15:15:34Z</time>
      </trkpt>
      <trkpt lat="41.275312" lon="-3.445071">
        <ele>1389.247</ele>
        <time>2016-07-20T15:15:35Z</time>
      </trkpt>
      <trkpt lat="41.275207" lon="-3.445163">
        <ele>1389.781</ele>
        <time>2016-07-20T15:15:36Z</time>
      </trkpt>
      <trkpt lat="41.275094" lon="-3.445249">
        <ele>1390.561</ele>
        <time>2016-07-20T15:15:37Z</time>
      </trkpt>
      <trkpt lat="41.274973" lon="-3.445321">
        <ele>1391.517</ele>
        <time>2016-07-20T15:15:38Z</time>
      </trkpt>
      <trkpt lat="41.274850" lon="-3.445384">
        <ele>1392.408</ele>
        <time>2016-07-20T15:15:39Z</time>
      </trkpt>
      <trkpt lat="41.274736" lon="-3.445429">
        <ele>1392.439</ele>
        <time>2016-07-20T15:15:40Z</time>
      </trkpt>
      <trkpt lat="41.274479" lon="-3.445531">
        <ele>1391.212</ele>
        <time>2016-07-20T15:15:41Z</time>
      </trkpt>
      <trkpt lat="41.274213" lon="-3.445644">
        <ele>1389.048</ele>
        <time>2016-07-20T15:15:43Z</time>
      </trkpt>
      <trkpt lat="41.274072" lon="-3.445698">
        <ele>1388.064</ele>
        <time>2016-07-20T15:15:44Z</time>
      </trkpt>
      <trkpt lat="41.273931" lon="-3.445747">
        <ele>1387.079</ele>
        <time>2016-07-20T15:15:45Z</time>
      </trkpt>
      <trkpt lat="41.273786" lon="-3.445791">
        <ele>1386.872</ele>
        <time>2016-07-20T15:15:46Z</time>
      </trkpt>
      <trkpt lat="41.273640" lon="-3.445829">
        <ele>1387.052</ele>
        <time>2016-07-20T15:15:47Z</time>
      </trkpt>
      <trkpt lat="41.273494" lon="-3.445863">
        <ele>1387.310</ele>
        <time>2016-07-20T15:15:48Z</time>
      </trkpt>
      <trkpt lat="41.273356" lon="-3.445894">
        <ele>1387.616</ele>
        <time>2016-07-20T15:15:49Z</time>
      </trkpt>
      <trkpt lat="41.273220" lon="-3.445925">
        <ele>1387.976</ele>
        <time>2016-07-20T15:15:50Z</time>
      </trkpt>
      <trkpt lat="41.273087" lon="-3.445950">
        <ele>1388.113</ele>
        <time>2016-07-20T15:15:51Z</time>
      </trkpt>
      <trkpt lat="41.272960" lon="-3.445968">
        <ele>1388.008</ele>
        <time>2016-07-20T15:15:52Z</time>
      </trkpt>
      <trkpt lat="41.272837" lon="-3.445989">
        <ele>1387.562</ele>
        <time>2016-07-20T15:15:53Z</time>
      </trkpt>
      <trkpt lat="41.272712" lon="-3.446010">
        <ele>1386.985</ele>
        <time>2016-07-20T15:15:54Z</time>
      </trkpt>
      <trkpt lat="41.272580" lon="-3.446026">
        <ele>1386.531</ele>
        <time>2016-07-20T15:15:55Z</time>
      </trkpt>
      <trkpt lat="41.272454" lon="-3.446035">
        <ele>1385.857</ele>
        <time>2016-07-20T15:15:56Z</time>
      </trkpt>
      <trkpt lat="41.272326" lon="-3.446033">
        <ele>1385.142</ele>
        <time>2016-07-20T15:15:57Z</time>
      </trkpt>
      <trkpt lat="41.272202" lon="-3.446024">
        <ele>1384.345</ele>
        <time>2016-07-20T15:15:58Z</time>
      </trkpt>
      <trkpt lat="41.272082" lon="-3.446011">
        <ele>1383.385</ele>
        <time>2016-07-20T15:15:59Z</time>
      </trkpt>
      <trkpt lat="41.271961" lon="-3.446003">
        <ele>1382.543</ele>
        <time>2016-07-20T15:16:00Z</time>
      </trkpt>
      <trkpt lat="41.271847" lon="-3.446017">
        <ele>1381.816</ele>
        <time>2016-07-20T15:16:01Z</time>
      </trkpt>
      <trkpt lat="41.271741" lon="-3.446056">
        <ele>1381.276</ele>
        <time>2016-07-20T15:16:02Z</time>
      </trkpt>
      <trkpt lat="41.271652" lon="-3.446130">
        <ele>1380.613</ele>
        <time>2016-07-20T15:16:03Z</time>
      </trkpt>
      <trkpt lat="41.271561" lon="-3.446213">
        <ele>1380.008</ele>
        <time>2016-07-20T15:16:05Z</time>
      </trkpt>
      <trkpt lat="41.271466" lon="-3.446304">
        <ele>1379.662</ele>
        <time>2016-07-20T15:16:06Z</time>
      </trkpt>
      <trkpt lat="41.271370" lon="-3.446402">
        <ele>1380.145</ele>
        <time>2016-07-20T15:16:07Z</time>
      </trkpt>
      <trkpt lat="41.271284" lon="-3.446501">
        <ele>1381.071</ele>
        <time>2016-07-20T15:16:08Z</time>
      </trkpt>
      <trkpt lat="41.271200" lon="-3.446587">
        <ele>1382.157</ele>
        <time>2016-07-20T15:16:09Z</time>
      </trkpt>
      <trkpt lat="41.271109" lon="-3.446665">
        <ele>1383.192</ele>
        <time>2016-07-20T15:16:10Z</time>
      </trkpt>
      <trkpt lat="41.271009" lon="-3.446723">
        <ele>1383.955</ele>
        <time>2016-07-20T15:16:11Z</time>
      </trkpt>
      <trkpt lat="41.270899" lon="-3.446765">
        <ele>1384.315</ele>
        <time>2016-07-20T15:16:12Z</time>
      </trkpt>
      <trkpt lat="41.270788" lon="-3.446799">
        <ele>1383.893</ele>
        <time>2016-07-20T15:16:13Z</time>
      </trkpt>
      <trkpt lat="41.270691" lon="-3.446825">
        <ele>1382.849</ele>
        <time>2016-07-20T15:16:14Z</time>
      </trkpt>
      <trkpt lat="41.270601" lon="-3.446868">
        <ele>1382.102</ele>
        <time>2016-07-20T15:16:15Z</time>
      </trkpt>
      <trkpt lat="41.270526" lon="-3.446937">
        <ele>1381.622</ele>
        <time>2016-07-20T15:16:16Z</time>
      </trkpt>
      <trkpt lat="41.270471" lon="-3.447032">
        <ele>1381.108</ele>
        <time>2016-07-20T15:16:17Z</time>
      </trkpt>
      <trkpt lat="41.270424" lon="-3.447244">
        <ele>1379.965</ele>
        <time>2016-07-20T15:16:19Z</time>
      </trkpt>
      <trkpt lat="41.270349" lon="-3.447458">
        <ele>1378.758</ele>
        <time>2016-07-20T15:16:21Z</time>
      </trkpt>
      <trkpt lat="41.270304" lon="-3.447575">
        <ele>1378.224</ele>
        <time>2016-07-20T15:16:22Z</time>
      </trkpt>
      <trkpt lat="41.270256" lon="-3.447681">
        <ele>1377.690</ele>
        <time>2016-07-20T15:16:23Z</time>
      </trkpt>
      <trkpt lat="41.270194" lon="-3.447790">
        <ele>1377.055</ele>
        <time>2016-07-20T15:16:24Z</time>
      </trkpt>
      <trkpt lat="41.270135" lon="-3.447903">
        <ele>1376.518</ele>
        <time>2016-07-20T15:16:25Z</time>
      </trkpt>
      <trkpt lat="41.270071" lon="-3.448020">
        <ele>1376.248</ele>
        <time>2016-07-20T15:16:26Z</time>
      </trkpt>
      <trkpt lat="41.269993" lon="-3.448141">
        <ele>1376.216</ele>
        <time>2016-07-20T15:16:27Z</time>
      </trkpt>
      <trkpt lat="41.269903" lon="-3.448262">
        <ele>1376.611</ele>
        <time>2016-07-20T15:16:28Z</time>
      </trkpt>
      <trkpt lat="41.269816" lon="-3.448369">
        <ele>1377.321</ele>
        <time>2016-07-20T15:16:29Z</time>
      </trkpt>
      <trkpt lat="41.269728" lon="-3.448462">
        <ele>1378.203</ele>
        <time>2016-07-20T15:16:30Z</time>
      </trkpt>
      <trkpt lat="41.269640" lon="-3.448526">
        <ele>1379.908</ele>
        <time>2016-07-20T15:16:31Z</time>
      </trkpt>
      <trkpt lat="41.269548" lon="-3.448556">
        <ele>1381.852</ele>
        <time>2016-07-20T15:16:32Z</time>
      </trkpt>
      <trkpt lat="41.269445" lon="-3.448556">
        <ele>1384.195</ele>
        <time>2016-07-20T15:16:33Z</time>
      </trkpt>
      <trkpt lat="41.269338" lon="-3.448535">
        <ele>1386.641</ele>
        <time>2016-07-20T15:16:34Z</time>
      </trkpt>
      <trkpt lat="41.269221" lon="-3.448524">
        <ele>1389.027</ele>
        <time>2016-07-20T15:16:35Z</time>
      </trkpt>
      <trkpt lat="41.269096" lon="-3.448516">
        <ele>1391.482</ele>
        <time>2016-07-20T15:16:36Z</time>
      </trkpt>
      <trkpt lat="41.268956" lon="-3.448513">
        <ele>1393.515</ele>
        <time>2016-07-20T15:16:37Z</time>
      </trkpt>
      <trkpt lat="41.268809" lon="-3.448507">
        <ele>1395.495</ele>
        <time>2016-07-20T15:16:38Z</time>
      </trkpt>
      <trkpt lat="41.268663" lon="-3.448501">
        <ele>1397.223</ele>
        <time>2016-07-20T15:16:39Z</time>
      </trkpt>
      <trkpt lat="41.268515" lon="-3.448501">
        <ele>1398.931</ele>
        <time>2016-07-20T15:16:40Z</time>
      </trkpt>
      <trkpt lat="41.268366" lon="-3.448513">
        <ele>1400.461</ele>
        <time>2016-07-20T15:16:41Z</time>
      </trkpt>
      <trkpt lat="41.268219" lon="-3.448535">
        <ele>1401.307</ele>
        <time>2016-07-20T15:16:42Z</time>
      </trkpt>
      <trkpt lat="41.268068" lon="-3.448552">
        <ele>1401.608</ele>
        <time>2016-07-20T15:16:43Z</time>
      </trkpt>
      <trkpt lat="41.267918" lon="-3.448567">
        <ele>1401.684</ele>
        <time>2016-07-20T15:16:44Z</time>
      </trkpt>
      <trkpt lat="41.267770" lon="-3.448581">
        <ele>1401.297</ele>
        <time>2016-07-20T15:16:45Z</time>
      </trkpt>
      <trkpt lat="41.267624" lon="-3.448595">
        <ele>1400.773</ele>
        <time>2016-07-20T15:16:46Z</time>
      </trkpt>
      <trkpt lat="41.267480" lon="-3.448603">
        <ele>1400.349</ele>
        <time>2016-07-20T15:16:47Z</time>
      </trkpt>
      <trkpt lat="41.267344" lon="-3.448602">
        <ele>1399.844</ele>
        <time>2016-07-20T15:16:48Z</time>
      </trkpt>
      <trkpt lat="41.267218" lon="-3.448592">
        <ele>1399.337</ele>
        <time>2016-07-20T15:16:49Z</time>
      </trkpt>
      <trkpt lat="41.267108" lon="-3.448569">
        <ele>1398.917</ele>
        <time>2016-07-20T15:16:50Z</time>
      </trkpt>
      <trkpt lat="41.266968" lon="-3.448511">
        <ele>1397.985</ele>
        <time>2016-07-20T15:16:52Z</time>
      </trkpt>
      <trkpt lat="41.266869" lon="-3.448477">
        <ele>1397.871</ele>
        <time>2016-07-20T15:16:56Z</time>
      </trkpt>
      <trkpt lat="41.266758" lon="-3.448409">
        <ele>1397.441</ele>
        <time>2016-07-20T15:17:00Z</time>
      </trkpt>
      <trkpt lat="41.266656" lon="-3.448368">
        <ele>1397.215</ele>
        <time>2016-07-20T15:17:03Z</time>
      </trkpt>
      <trkpt lat="41.266522" lon="-3.448390">
        <ele>1395.708</ele>
        <time>2016-07-20T15:17:06Z</time>
      </trkpt>
      <trkpt lat="41.266396" lon="-3.448456">
        <ele>1395.268</ele>
        <time>2016-07-20T15:17:08Z</time>
      </trkpt>
      <trkpt lat="41.266222" lon="-3.448481">
        <ele>1392.891</ele>
        <time>2016-07-20T15:17:10Z</time>
      </trkpt>
      <trkpt lat="41.266129" lon="-3.448473">
        <ele>1391.347</ele>
        <time>2016-07-20T15:17:11Z</time>
      </trkpt>
      <trkpt lat="41.266036" lon="-3.448453">
        <ele>1390.693</ele>
        <time>2016-07-20T15:17:12Z</time>
      </trkpt>
      <trkpt lat="41.265943" lon="-3.448428">
        <ele>1390.348</ele>
        <time>2016-07-20T15:17:13Z</time>
      </trkpt>
      <trkpt lat="41.265781" lon="-3.448366">
        <ele>1391.831</ele>
        <time>2016-07-20T15:17:15Z</time>
      </trkpt>
      <trkpt lat="41.265661" lon="-3.448301">
        <ele>1392.671</ele>
        <time>2016-07-20T15:17:17Z</time>
      </trkpt>
      <trkpt lat="41.265565" lon="-3.448242">
        <ele>1393.839</ele>
        <time>2016-07-20T15:17:19Z</time>
      </trkpt>
      <trkpt lat="41.265440" lon="-3.448187">
        <ele>1395.645</ele>
        <time>2016-07-20T15:17:22Z</time>
      </trkpt>
      <trkpt lat="41.265311" lon="-3.448172">
        <ele>1396.247</ele>
        <time>2016-07-20T15:17:25Z</time>
      </trkpt>
      <trkpt lat="41.265183" lon="-3.448174">
        <ele>1394.211</ele>
        <time>2016-07-20T15:17:28Z</time>
      </trkpt>
      <trkpt lat="41.265057" lon="-3.448195">
        <ele>1390.608</ele>
        <time>2016-07-20T15:17:31Z</time>
      </trkpt>
      <trkpt lat="41.264959" lon="-3.448215">
        <ele>1389.645</ele>
        <time>2016-07-20T15:17:33Z</time>
      </trkpt>
      <trkpt lat="41.264853" lon="-3.448238">
        <ele>1389.938</ele>
        <time>2016-07-20T15:17:35Z</time>
      </trkpt>
      <trkpt lat="41.264742" lon="-3.448262">
        <ele>1390.234</ele>
        <time>2016-07-20T15:17:37Z</time>
      </trkpt>
      <trkpt lat="41.264622" lon="-3.448296">
        <ele>1390.150</ele>
        <time>2016-07-20T15:17:39Z</time>
      </trkpt>
      <trkpt lat="41.264505" lon="-3.448341">
        <ele>1389.835</ele>
        <time>2016-07-20T15:17:40Z</time>
      </trkpt>
      <trkpt lat="41.264399" lon="-3.448385">
        <ele>1389.498</ele>
        <time>2016-07-20T15:17:42Z</time>
      </trkpt>
      <trkpt lat="41.264281" lon="-3.448436">
        <ele>1389.628</ele>
        <time>2016-07-20T15:17:44Z</time>
      </trkpt>
      <trkpt lat="41.264168" lon="-3.448488">
        <ele>1389.246</ele>
        <time>2016-07-20T15:17:46Z</time>
      </trkpt>
      <trkpt lat="41.264069" lon="-3.448530">
        <ele>1389.027</ele>
        <time>2016-07-20T15:17:48Z</time>
      </trkpt>
      <trkpt lat="41.263974" lon="-3.448570">
        <ele>1389.168</ele>
        <time>2016-07-20T15:17:51Z</time>
      </trkpt>
      <trkpt lat="41.263873" lon="-3.448606">
        <ele>1389.514</ele>
        <time>2016-07-20T15:17:55Z</time>
      </trkpt>
      <trkpt lat="41.263759" lon="-3.448700">
        <ele>1390.308</ele>
        <time>2016-07-20T15:18:29Z</time>
      </trkpt>
      <trkpt lat="41.263641" lon="-3.448735">
        <ele>1389.723</ele>
        <time>2016-07-20T15:18:31Z</time>
      </trkpt>
      <trkpt lat="41.263486" lon="-3.448774">
        <ele>1390.016</ele>
        <time>2016-07-20T15:18:33Z</time>
      </trkpt>
      <trkpt lat="41.263371" lon="-3.448827">
        <ele>1391.282</ele>
        <time>2016-07-20T15:18:35Z</time>
      </trkpt>
      <trkpt lat="41.263290" lon="-3.448898">
        <ele>1391.828</ele>
        <time>2016-07-20T15:18:37Z</time>
      </trkpt>
      <trkpt lat="41.263203" lon="-3.448985">
        <ele>1392.083</ele>
        <time>2016-07-20T15:18:41Z</time>
      </trkpt>
      <trkpt lat="41.263095" lon="-3.449101">
        <ele>1392.856</ele>
        <time>2016-07-20T15:18:44Z</time>
      </trkpt>
      <trkpt lat="41.263024" lon="-3.449189">
        <ele>1393.076</ele>
        <time>2016-07-20T15:18:46Z</time>
      </trkpt>
      <trkpt lat="41.262952" lon="-3.449276">
        <ele>1393.344</ele>
        <time>2016-07-20T15:18:48Z</time>
      </trkpt>
      <trkpt lat="41.262875" lon="-3.449379">
        <ele>1391.791</ele>
        <time>2016-07-20T15:18:50Z</time>
      </trkpt>
      <trkpt lat="41.262780" lon="-3.449509">
        <ele>1391.481</ele>
        <time>2016-07-20T15:18:52Z</time>
      </trkpt>
      <trkpt lat="41.262677" lon="-3.449645">
        <ele>1390.119</ele>
        <time>2016-07-20T15:18:54Z</time>
      </trkpt>
      <trkpt lat="41.262555" lon="-3.449757">
        <ele>1388.808</ele>
        <time>2016-07-20T15:18:56Z</time>
      </trkpt>
      <trkpt lat="41.262428" lon="-3.449823">
        <ele>1388.710</ele>
        <time>2016-07-20T15:18:58Z</time>
      </trkpt>
      <trkpt lat="41.262333" lon="-3.449855">
        <ele>1388.273</ele>
        <time>2016-07-20T15:19:00Z</time>
      </trkpt>
      <trkpt lat="41.262229" lon="-3.449908">
        <ele>1387.749</ele>
        <time>2016-07-20T15:19:04Z</time>
      </trkpt>
      <trkpt lat="41.262151" lon="-3.449975">
        <ele>1387.595</ele>
        <time>2016-07-20T15:19:07Z</time>
      </trkpt>
      <trkpt lat="41.262030" lon="-3.450028">
        <ele>1386.560</ele>
        <time>2016-07-20T15:19:10Z</time>
      </trkpt>
      <trkpt lat="41.261912" lon="-3.450097">
        <ele>1383.033</ele>
        <time>2016-07-20T15:19:13Z</time>
      </trkpt>
      <trkpt lat="41.261808" lon="-3.450172">
        <ele>1381.573</ele>
        <time>2016-07-20T15:19:15Z</time>
      </trkpt>
      <trkpt lat="41.261740" lon="-3.450258">
        <ele>1380.631</ele>
        <time>2016-07-20T15:19:17Z</time>
      </trkpt>
      <trkpt lat="41.261646" lon="-3.450354">
        <ele>1379.741</ele>
        <time>2016-07-20T15:19:19Z</time>
      </trkpt>
      <trkpt lat="41.261508" lon="-3.450438">
        <ele>1380.381</ele>
        <time>2016-07-20T15:19:21Z</time>
      </trkpt>
      <trkpt lat="41.261365" lon="-3.450507">
        <ele>1381.709</ele>
        <time>2016-07-20T15:19:23Z</time>
      </trkpt>
      <trkpt lat="41.261203" lon="-3.450541">
        <ele>1381.808</ele>
        <time>2016-07-20T15:19:25Z</time>
      </trkpt>
      <trkpt lat="41.261047" lon="-3.450558">
        <ele>1383.175</ele>
        <time>2016-07-20T15:19:27Z</time>
      </trkpt>
      <trkpt lat="41.260926" lon="-3.450575">
        <ele>1382.158</ele>
        <time>2016-07-20T15:19:29Z</time>
      </trkpt>
      <trkpt lat="41.260798" lon="-3.450593">
        <ele>1380.484</ele>
        <time>2016-07-20T15:19:31Z</time>
      </trkpt>
      <trkpt lat="41.260699" lon="-3.450592">
        <ele>1379.050</ele>
        <time>2016-07-20T15:19:33Z</time>
      </trkpt>
      <trkpt lat="41.260612" lon="-3.450635">
        <ele>1378.095</ele>
        <time>2016-07-20T15:20:33Z</time>
      </trkpt>
      <trkpt lat="41.260737" lon="-3.450630">
        <ele>1380.528</ele>
        <time>2016-07-20T15:20:42Z</time>
      </trkpt>
      <trkpt lat="41.260849" lon="-3.450619">
        <ele>1381.768</ele>
        <time>2016-07-20T15:20:45Z</time>
      </trkpt>
      <trkpt lat="41.260944" lon="-3.450602">
        <ele>1382.256</ele>
        <time>2016-07-20T15:20:49Z</time>
      </trkpt>
      <trkpt lat="41.261038" lon="-3.450572">
        <ele>1382.887</ele>
        <time>2016-07-20T15:20:53Z</time>
      </trkpt>
      <trkpt lat="41.261129" lon="-3.450553">
        <ele>1383.242</ele>
        <time>2016-07-20T15:20:56Z</time>
      </trkpt>
      <trkpt lat="41.261242" lon="-3.450527">
        <ele>1383.826</ele>
        <time>2016-07-20T15:21:00Z</time>
      </trkpt>
      <trkpt lat="41.261329" lon="-3.450494">
        <ele>1384.208</ele>
        <time>2016-07-20T15:21:03Z</time>
      </trkpt>
      <trkpt lat="41.261428" lon="-3.450452">
        <ele>1384.739</ele>
        <time>2016-07-20T15:21:06Z</time>
      </trkpt>
      <trkpt lat="41.261524" lon="-3.450397">
        <ele>1385.962</ele>
        <time>2016-07-20T15:21:11Z</time>
      </trkpt>
      <trkpt lat="41.261612" lon="-3.450320">
        <ele>1387.178</ele>
        <time>2016-07-20T15:21:16Z</time>
      </trkpt>
      <trkpt lat="41.261687" lon="-3.450236">
        <ele>1388.324</ele>
        <time>2016-07-20T15:21:23Z</time>
      </trkpt>
      <trkpt lat="41.261757" lon="-3.450151">
        <ele>1389.129</ele>
        <time>2016-07-20T15:21:34Z</time>
      </trkpt>
      <trkpt lat="41.261843" lon="-3.450073">
        <ele>1389.492</ele>
        <time>2016-07-20T15:21:44Z</time>
      </trkpt>
      <trkpt lat="41.261923" lon="-3.450000">
        <ele>1390.452</ele>
        <time>2016-07-20T15:21:53Z</time>
      </trkpt>
      <trkpt lat="41.262012" lon="-3.449948">
        <ele>1390.910</ele>
        <time>2016-07-20T15:22:00Z</time>
      </trkpt>
      <trkpt lat="41.262100" lon="-3.449911">
        <ele>1390.973</ele>
        <time>2016-07-20T15:22:06Z</time>
      </trkpt>
      <trkpt lat="41.262194" lon="-3.449874">
        <ele>1390.585</ele>
        <time>2016-07-20T15:22:16Z</time>
      </trkpt>
      <trkpt lat="41.262289" lon="-3.449870">
        <ele>1388.913</ele>
        <time>2016-07-20T15:22:42Z</time>
      </trkpt>
      <trkpt lat="41.262380" lon="-3.449867">
        <ele>1388.108</ele>
        <time>2016-07-20T15:22:55Z</time>
      </trkpt>
      <trkpt lat="41.262482" lon="-3.449837">
        <ele>1387.868</ele>
        <time>2016-07-20T15:23:06Z</time>
      </trkpt>
      <trkpt lat="41.262567" lon="-3.449791">
        <ele>1388.421</ele>
        <time>2016-07-20T15:23:18Z</time>
      </trkpt>
      <trkpt lat="41.262556" lon="-3.449671">
        <ele>1388.927</ele>
        <time>2016-07-20T15:24:33Z</time>
      </trkpt>
      <trkpt lat="41.262607" lon="-3.449548">
        <ele>1390.453</ele>
        <time>2016-07-20T15:24:45Z</time>
      </trkpt>
      <trkpt lat="41.262651" lon="-3.449443">
        <ele>1390.768</ele>
        <time>2016-07-20T15:24:55Z</time>
      </trkpt>
      <trkpt lat="41.262637" lon="-3.449321">
        <ele>1392.921</ele>
        <time>2016-07-20T15:25:08Z</time>
      </trkpt>
      <trkpt lat="41.262670" lon="-3.449209">
        <ele>1392.461</ele>
        <time>2016-07-20T15:25:19Z</time>
      </trkpt>
      <trkpt lat="41.262624" lon="-3.449101">
        <ele>1390.669</ele>
        <time>2016-07-20T15:25:33Z</time>
      </trkpt>
      <trkpt lat="41.262571" lon="-3.448994">
        <ele>1391.122</ele>
        <time>2016-07-20T15:25:39Z</time>
      </trkpt>
      <trkpt lat="41.262543" lon="-3.448880">
        <ele>1390.362</ele>
        <time>2016-07-20T15:25:54Z</time>
      </trkpt>
      <trkpt lat="41.262628" lon="-3.448806">
        <ele>1390.508</ele>
        <time>2016-07-20T15:26:03Z</time>
      </trkpt>
      <trkpt lat="41.262684" lon="-3.448704">
        <ele>1391.008</ele>
        <time>2016-07-20T15:26:16Z</time>
      </trkpt>
      <trkpt lat="41.262659" lon="-3.448589">
        <ele>1392.053</ele>
        <time>2016-07-20T15:26:29Z</time>
      </trkpt>
      <trkpt lat="41.262691" lon="-3.448471">
        <ele>1391.396</ele>
        <time>2016-07-20T15:26:38Z</time>
      </trkpt>
      <trkpt lat="41.262750" lon="-3.448379">
        <ele>1390.882</ele>
        <time>2016-07-20T15:26:47Z</time>
      </trkpt>
      <trkpt lat="41.262818" lon="-3.448293">
        <ele>1391.618</ele>
        <time>2016-07-20T15:26:59Z</time>
      </trkpt>
      <trkpt lat="41.262908" lon="-3.448281">
        <ele>1391.343</ele>
        <time>2016-07-20T15:27:10Z</time>
      </trkpt>
      <trkpt lat="41.262970" lon="-3.448373">
        <ele>1390.686</ele>
        <time>2016-07-20T15:29:28Z</time>
      </trkpt>
      <trkpt lat="41.263062" lon="-3.448329">
        <ele>1390.736</ele>
        <time>2016-07-20T15:29:56Z</time>
      </trkpt>
      <trkpt lat="41.262943" lon="-3.448242">
        <ele>1391.614</ele>
        <time>2016-07-20T15:30:20Z</time>
      </trkpt>
      <trkpt lat="41.262830" lon="-3.448298">
        <ele>1394.014</ele>
        <time>2016-07-20T15:30:36Z</time>
      </trkpt>
      <trkpt lat="41.262966" lon="-3.448266">
        <ele>1396.254</ele>
        <time>2016-07-20T15:31:00Z</time>
      </trkpt>
      <trkpt lat="41.262895" lon="-3.448367">
        <ele>1394.409</ele>
        <time>2016-07-20T15:32:18Z</time>
      </trkpt>
      <trkpt lat="41.262766" lon="-3.448314">
        <ele>1393.408</ele>
        <time>2016-07-20T15:32:54Z</time>
      </trkpt>
      <trkpt lat="41.262686" lon="-3.448246">
        <ele>1391.772</ele>
        <time>2016-07-20T15:33:00Z</time>
      </trkpt>
      <trkpt lat="41.262606" lon="-3.448155">
        <ele>1389.655</ele>
        <time>2016-07-20T15:33:06Z</time>
      </trkpt>
      <trkpt lat="41.262904" lon="-3.448304">
        <ele>1389.551</ele>
        <time>2016-07-20T15:34:56Z</time>
      </trkpt>
      <trkpt lat="41.263023" lon="-3.448344">
        <ele>1390.717</ele>
        <time>2016-07-20T15:36:12Z</time>
      </trkpt>
      <trkpt lat="41.263071" lon="-3.448460">
        <ele>1396.012</ele>
        <time>2016-07-20T15:39:58Z</time>
      </trkpt>
      <trkpt lat="41.263073" lon="-3.448603">
        <ele>1397.485</ele>
        <time>2016-07-20T15:40:10Z</time>
      </trkpt>
      <trkpt lat="41.263055" lon="-3.448744">
        <ele>1398.825</ele>
        <time>2016-07-20T15:40:18Z</time>
      </trkpt>
      <trkpt lat="41.263086" lon="-3.448857">
        <ele>1400.023</ele>
        <time>2016-07-20T15:40:25Z</time>
      </trkpt>
      <trkpt lat="41.263134" lon="-3.448972">
        <ele>1400.914</ele>
        <time>2016-07-20T15:40:34Z</time>
      </trkpt>
      <trkpt lat="41.263130" lon="-3.449106">
        <ele>1401.254</ele>
        <time>2016-07-20T15:40:47Z</time>
      </trkpt>
      <trkpt lat="41.263064" lon="-3.449191">
        <ele>1401.809</ele>
        <time>2016-07-20T15:40:57Z</time>
      </trkpt>
      <trkpt lat="41.262997" lon="-3.449293">
        <ele>1402.108</ele>
        <time>2016-07-20T15:41:05Z</time>
      </trkpt>
      <trkpt lat="41.262909" lon="-3.449354">
        <ele>1402.172</ele>
        <time>2016-07-20T15:41:14Z</time>
      </trkpt>
      <trkpt lat="41.262855" lon="-3.449456">
        <ele>1401.955</ele>
        <time>2016-07-20T15:41:26Z</time>
      </trkpt>
      <trkpt lat="41.262789" lon="-3.449546">
        <ele>1401.311</ele>
        <time>2016-07-20T15:41:33Z</time>
      </trkpt>
      <trkpt lat="41.262697" lon="-3.449654">
        <ele>1399.777</ele>
        <time>2016-07-20T15:41:43Z</time>
      </trkpt>
      <trkpt lat="41.262604" lon="-3.449704">
        <ele>1398.532</ele>
        <time>2016-07-20T15:41:51Z</time>
      </trkpt>
      <trkpt lat="41.262524" lon="-3.449795">
        <ele>1396.795</ele>
        <time>2016-07-20T15:42:35Z</time>
      </trkpt>
      <trkpt lat="41.262413" lon="-3.449833">
        <ele>1394.715</ele>
        <time>2016-07-20T15:42:39Z</time>
      </trkpt>
      <trkpt lat="41.262318" lon="-3.449856">
        <ele>1393.113</ele>
        <time>2016-07-20T15:42:42Z</time>
      </trkpt>
      <trkpt lat="41.262219" lon="-3.449909">
        <ele>1392.815</ele>
        <time>2016-07-20T15:42:45Z</time>
      </trkpt>
      <trkpt lat="41.262128" lon="-3.449955">
        <ele>1390.465</ele>
        <time>2016-07-20T15:42:48Z</time>
      </trkpt>
      <trkpt lat="41.262033" lon="-3.450000">
        <ele>1389.911</ele>
        <time>2016-07-20T15:42:51Z</time>
      </trkpt>
      <trkpt lat="41.261910" lon="-3.450075">
        <ele>1386.508</ele>
        <time>2016-07-20T15:42:54Z</time>
      </trkpt>
      <trkpt lat="41.261830" lon="-3.450135">
        <ele>1385.162</ele>
        <time>2016-07-20T15:42:56Z</time>
      </trkpt>
      <trkpt lat="41.261742" lon="-3.450230">
        <ele>1383.235</ele>
        <time>2016-07-20T15:42:59Z</time>
      </trkpt>
      <trkpt lat="41.261653" lon="-3.450335">
        <ele>1383.031</ele>
        <time>2016-07-20T15:43:02Z</time>
      </trkpt>
      <trkpt lat="41.261571" lon="-3.450387">
        <ele>1382.817</ele>
        <time>2016-07-20T15:43:06Z</time>
      </trkpt>
      <trkpt lat="41.261485" lon="-3.450445">
        <ele>1382.832</ele>
        <time>2016-07-20T15:43:09Z</time>
      </trkpt>
      <trkpt lat="41.261366" lon="-3.450506">
        <ele>1384.195</ele>
        <time>2016-07-20T15:43:12Z</time>
      </trkpt>
      <trkpt lat="41.261246" lon="-3.450545">
        <ele>1384.615</ele>
        <time>2016-07-20T15:43:14Z</time>
      </trkpt>
      <trkpt lat="41.261114" lon="-3.450576">
        <ele>1384.843</ele>
        <time>2016-07-20T15:43:16Z</time>
      </trkpt>
      <trkpt lat="41.260978" lon="-3.450605">
        <ele>1384.844</ele>
        <time>2016-07-20T15:43:19Z</time>
      </trkpt>
      <trkpt lat="41.260833" lon="-3.450623">
        <ele>1385.105</ele>
        <time>2016-07-20T15:43:21Z</time>
      </trkpt>
      <trkpt lat="41.260698" lon="-3.450625">
        <ele>1384.815</ele>
        <time>2016-07-20T15:43:23Z</time>
      </trkpt>
      <trkpt lat="41.260578" lon="-3.450624">
        <ele>1384.708</ele>
        <time>2016-07-20T15:43:25Z</time>
      </trkpt>
      <trkpt lat="41.260454" lon="-3.450617">
        <ele>1384.575</ele>
        <time>2016-07-20T15:43:27Z</time>
      </trkpt>
      <trkpt lat="41.260324" lon="-3.450610">
        <ele>1383.948</ele>
        <time>2016-07-20T15:43:29Z</time>
      </trkpt>
      <trkpt lat="41.260194" lon="-3.450607">
        <ele>1383.324</ele>
        <time>2016-07-20T15:43:31Z</time>
      </trkpt>
      <trkpt lat="41.260062" lon="-3.450602">
        <ele>1382.390</ele>
        <time>2016-07-20T15:43:32Z</time>
      </trkpt>
      <trkpt lat="41.259932" lon="-3.450597">
        <ele>1381.015</ele>
        <time>2016-07-20T15:43:34Z</time>
      </trkpt>
      <trkpt lat="41.259802" lon="-3.450596">
        <ele>1379.958</ele>
        <time>2016-07-20T15:43:36Z</time>
      </trkpt>
      <trkpt lat="41.259677" lon="-3.450601">
        <ele>1378.848</ele>
        <time>2016-07-20T15:43:38Z</time>
      </trkpt>
      <trkpt lat="41.259572" lon="-3.450611">
        <ele>1378.486</ele>
        <time>2016-07-20T15:43:40Z</time>
      </trkpt>
      <trkpt lat="41.259454" lon="-3.450640">
        <ele>1377.774</ele>
        <time>2016-07-20T15:43:42Z</time>
      </trkpt>
      <trkpt lat="41.259324" lon="-3.450699">
        <ele>1375.956</ele>
        <time>2016-07-20T15:43:44Z</time>
      </trkpt>
      <trkpt lat="41.259189" lon="-3.450768">
        <ele>1373.821</ele>
        <time>2016-07-20T15:43:46Z</time>
      </trkpt>
      <trkpt lat="41.259063" lon="-3.450837">
        <ele>1372.508</ele>
        <time>2016-07-20T15:43:48Z</time>
      </trkpt>
      <trkpt lat="41.258923" lon="-3.450900">
        <ele>1370.848</ele>
        <time>2016-07-20T15:43:50Z</time>
      </trkpt>
      <trkpt lat="41.258775" lon="-3.450964">
        <ele>1368.961</ele>
        <time>2016-07-20T15:43:52Z</time>
      </trkpt>
      <trkpt lat="41.258646" lon="-3.451020">
        <ele>1366.857</ele>
        <time>2016-07-20T15:43:54Z</time>
      </trkpt>
      <trkpt lat="41.258522" lon="-3.451070">
        <ele>1365.123</ele>
        <time>2016-07-20T15:43:56Z</time>
      </trkpt>
      <trkpt lat="41.258398" lon="-3.451118">
        <ele>1363.388</ele>
        <time>2016-07-20T15:43:58Z</time>
      </trkpt>
      <trkpt lat="41.258276" lon="-3.451155">
        <ele>1361.821</ele>
        <time>2016-07-20T15:44:00Z</time>
      </trkpt>
      <trkpt lat="41.258162" lon="-3.451167">
        <ele>1361.211</ele>
        <time>2016-07-20T15:44:02Z</time>
      </trkpt>
      <trkpt lat="41.258063" lon="-3.451171">
        <ele>1360.379</ele>
        <time>2016-07-20T15:44:04Z</time>
      </trkpt>
      <trkpt lat="41.257963" lon="-3.451173">
        <ele>1359.135</ele>
        <time>2016-07-20T15:44:06Z</time>
      </trkpt>
      <trkpt lat="41.257850" lon="-3.451167">
        <ele>1358.186</ele>
        <time>2016-07-20T15:44:08Z</time>
      </trkpt>
      <trkpt lat="41.257731" lon="-3.451142">
        <ele>1357.314</ele>
        <time>2016-07-20T15:44:10Z</time>
      </trkpt>
      <trkpt lat="41.257604" lon="-3.451080">
        <ele>1356.808</ele>
        <time>2016-07-20T15:44:12Z</time>
      </trkpt>
      <trkpt lat="41.257481" lon="-3.450955">
        <ele>1356.664</ele>
        <time>2016-07-20T15:44:14Z</time>
      </trkpt>
      <trkpt lat="41.257366" lon="-3.450843">
        <ele>1357.037</ele>
        <time>2016-07-20T15:44:16Z</time>
      </trkpt>
      <trkpt lat="41.257237" lon="-3.450777">
        <ele>1357.213</ele>
        <time>2016-07-20T15:44:18Z</time>
      </trkpt>
      <trkpt lat="41.257082" lon="-3.450736">
        <ele>1357.739</ele>
        <time>2016-07-20T15:44:20Z</time>
      </trkpt>
      <trkpt lat="41.256944" lon="-3.450672">
        <ele>1357.994</ele>
        <time>2016-07-20T15:44:22Z</time>
      </trkpt>
      <trkpt lat="41.256816" lon="-3.450558">
        <ele>1357.327</ele>
        <time>2016-07-20T15:44:24Z</time>
      </trkpt>
      <trkpt lat="41.256712" lon="-3.450419">
        <ele>1357.447</ele>
        <time>2016-07-20T15:44:26Z</time>
      </trkpt>
      <trkpt lat="41.256618" lon="-3.450283">
        <ele>1358.365</ele>
        <time>2016-07-20T15:44:28Z</time>
      </trkpt>
      <trkpt lat="41.256523" lon="-3.450162">
        <ele>1359.346</ele>
        <time>2016-07-20T15:44:30Z</time>
      </trkpt>
      <trkpt lat="41.256442" lon="-3.450063">
        <ele>1359.188</ele>
        <time>2016-07-20T15:44:32Z</time>
      </trkpt>
      <trkpt lat="41.256362" lon="-3.449965">
        <ele>1358.616</ele>
        <time>2016-07-20T15:44:34Z</time>
      </trkpt>
      <trkpt lat="41.256269" lon="-3.449882">
        <ele>1357.808</ele>
        <time>2016-07-20T15:44:36Z</time>
      </trkpt>
      <trkpt lat="41.256172" lon="-3.449852">
        <ele>1356.775</ele>
        <time>2016-07-20T15:44:38Z</time>
      </trkpt>
      <trkpt lat="41.256084" lon="-3.449885">
        <ele>1356.168</ele>
        <time>2016-07-20T15:44:40Z</time>
      </trkpt>
      <trkpt lat="41.255993" lon="-3.449988">
        <ele>1355.834</ele>
        <time>2016-07-20T15:44:42Z</time>
      </trkpt>
      <trkpt lat="41.255857" lon="-3.450134">
        <ele>1355.820</ele>
        <time>2016-07-20T15:44:44Z</time>
      </trkpt>
      <trkpt lat="41.255781" lon="-3.450204">
        <ele>1355.645</ele>
        <time>2016-07-20T15:44:45Z</time>
      </trkpt>
      <trkpt lat="41.255632" lon="-3.450324">
        <ele>1355.548</ele>
        <time>2016-07-20T15:44:47Z</time>
      </trkpt>
      <trkpt lat="41.255477" lon="-3.450449">
        <ele>1356.388</ele>
        <time>2016-07-20T15:44:49Z</time>
      </trkpt>
      <trkpt lat="41.255396" lon="-3.450504">
        <ele>1356.996</ele>
        <time>2016-07-20T15:44:50Z</time>
      </trkpt>
      <trkpt lat="41.255236" lon="-3.450603">
        <ele>1358.652</ele>
        <time>2016-07-20T15:44:52Z</time>
      </trkpt>
      <trkpt lat="41.255152" lon="-3.450653">
        <ele>1359.653</ele>
        <time>2016-07-20T15:44:53Z</time>
      </trkpt>
      <trkpt lat="41.254992" lon="-3.450744">
        <ele>1360.908</ele>
        <time>2016-07-20T15:44:55Z</time>
      </trkpt>
      <trkpt lat="41.254834" lon="-3.450840">
        <ele>1361.108</ele>
        <time>2016-07-20T15:44:57Z</time>
      </trkpt>
      <trkpt lat="41.254696" lon="-3.450928">
        <ele>1360.916</ele>
        <time>2016-07-20T15:45:00Z</time>
      </trkpt>
      <trkpt lat="41.254556" lon="-3.451021">
        <ele>1360.179</ele>
        <time>2016-07-20T15:45:02Z</time>
      </trkpt>
      <trkpt lat="41.254424" lon="-3.451124">
        <ele>1359.425</ele>
        <time>2016-07-20T15:45:04Z</time>
      </trkpt>
      <trkpt lat="41.254294" lon="-3.451221">
        <ele>1359.361</ele>
        <time>2016-07-20T15:45:06Z</time>
      </trkpt>
      <trkpt lat="41.254172" lon="-3.451316">
        <ele>1359.346</ele>
        <time>2016-07-20T15:45:08Z</time>
      </trkpt>
      <trkpt lat="41.254057" lon="-3.451409">
        <ele>1359.619</ele>
        <time>2016-07-20T15:45:10Z</time>
      </trkpt>
      <trkpt lat="41.253975" lon="-3.451474">
        <ele>1360.089</ele>
        <time>2016-07-20T15:45:11Z</time>
      </trkpt>
      <trkpt lat="41.253873" lon="-3.451514">
        <ele>1360.097</ele>
        <time>2016-07-20T15:45:14Z</time>
      </trkpt>
      <trkpt lat="41.253768" lon="-3.451470">
        <ele>1360.017</ele>
        <time>2016-07-20T15:45:19Z</time>
      </trkpt>
      <trkpt lat="41.253673" lon="-3.451402">
        <ele>1359.587</ele>
        <time>2016-07-20T15:45:22Z</time>
      </trkpt>
      <trkpt lat="41.253586" lon="-3.451362">
        <ele>1359.515</ele>
        <time>2016-07-20T15:45:25Z</time>
      </trkpt>
      <trkpt lat="41.253501" lon="-3.451300">
        <ele>1359.308</ele>
        <time>2016-07-20T15:45:30Z</time>
      </trkpt>
      <trkpt lat="41.253417" lon="-3.451226">
        <ele>1359.762</ele>
        <time>2016-07-20T15:45:35Z</time>
      </trkpt>
      <trkpt lat="41.253322" lon="-3.451178">
        <ele>1359.795</ele>
        <time>2016-07-20T15:45:40Z</time>
      </trkpt>
      <trkpt lat="41.253225" lon="-3.451119">
        <ele>1359.831</ele>
        <time>2016-07-20T15:45:45Z</time>
      </trkpt>
      <trkpt lat="41.253131" lon="-3.451068">
        <ele>1359.667</ele>
        <time>2016-07-20T15:45:50Z</time>
      </trkpt>
      <trkpt lat="41.253058" lon="-3.450995">
        <ele>1359.092</ele>
        <time>2016-07-20T15:45:56Z</time>
      </trkpt>
      <trkpt lat="41.252975" lon="-3.450921">
        <ele>1358.275</ele>
        <time>2016-07-20T15:45:59Z</time>
      </trkpt>
      <trkpt lat="41.252895" lon="-3.450847">
        <ele>1357.375</ele>
        <time>2016-07-20T15:46:02Z</time>
      </trkpt>
      <trkpt lat="41.252797" lon="-3.450755">
        <ele>1356.653</ele>
        <time>2016-07-20T15:46:04Z</time>
      </trkpt>
      <trkpt lat="41.252695" lon="-3.450663">
        <ele>1355.882</ele>
        <time>2016-07-20T15:46:06Z</time>
      </trkpt>
      <trkpt lat="41.252613" lon="-3.450590">
        <ele>1355.443</ele>
        <time>2016-07-20T15:46:08Z</time>
      </trkpt>
      <trkpt lat="41.252513" lon="-3.450506">
        <ele>1356.117</ele>
        <time>2016-07-20T15:46:11Z</time>
      </trkpt>
      <trkpt lat="41.252430" lon="-3.450445">
        <ele>1356.808</ele>
        <time>2016-07-20T15:46:13Z</time>
      </trkpt>
      <trkpt lat="41.252331" lon="-3.450372">
        <ele>1357.959</ele>
        <time>2016-07-20T15:46:15Z</time>
      </trkpt>
      <trkpt lat="41.252249" lon="-3.450311">
        <ele>1358.262</ele>
        <time>2016-07-20T15:46:17Z</time>
      </trkpt>
      <trkpt lat="41.252145" lon="-3.450242">
        <ele>1358.178</ele>
        <time>2016-07-20T15:46:19Z</time>
      </trkpt>
      <trkpt lat="41.252049" lon="-3.450179">
        <ele>1358.094</ele>
        <time>2016-07-20T15:46:24Z</time>
      </trkpt>
      <trkpt lat="41.251967" lon="-3.450113">
        <ele>1358.169</ele>
        <time>2016-07-20T15:46:33Z</time>
      </trkpt>
      <trkpt lat="41.251883" lon="-3.450047">
        <ele>1358.142</ele>
        <time>2016-07-20T15:46:37Z</time>
      </trkpt>
      <trkpt lat="41.251802" lon="-3.449969">
        <ele>1358.182</ele>
        <time>2016-07-20T15:46:42Z</time>
      </trkpt>
      <trkpt lat="41.251706" lon="-3.449880">
        <ele>1357.860</ele>
        <time>2016-07-20T15:46:46Z</time>
      </trkpt>
      <trkpt lat="41.251621" lon="-3.449794">
        <ele>1357.626</ele>
        <time>2016-07-20T15:46:50Z</time>
      </trkpt>
      <trkpt lat="41.251539" lon="-3.449738">
        <ele>1357.447</ele>
        <time>2016-07-20T15:46:53Z</time>
      </trkpt>
      <trkpt lat="41.251444" lon="-3.449679">
        <ele>1357.211</ele>
        <time>2016-07-20T15:46:56Z</time>
      </trkpt>
      <trkpt lat="41.251342" lon="-3.449617">
        <ele>1356.408</ele>
        <time>2016-07-20T15:47:00Z</time>
      </trkpt>
      <trkpt lat="41.251252" lon="-3.449553">
        <ele>1356.043</ele>
        <time>2016-07-20T15:47:04Z</time>
      </trkpt>
      <trkpt lat="41.251156" lon="-3.449525">
        <ele>1355.976</ele>
        <time>2016-07-20T15:47:08Z</time>
      </trkpt>
      <trkpt lat="41.251063" lon="-3.449445">
        <ele>1356.132</ele>
        <time>2016-07-20T15:47:13Z</time>
      </trkpt>
      <trkpt lat="41.250987" lon="-3.449361">
        <ele>1356.078</ele>
        <time>2016-07-20T15:47:17Z</time>
      </trkpt>
      <trkpt lat="41.250910" lon="-3.449284">
        <ele>1356.183</ele>
        <time>2016-07-20T15:47:23Z</time>
      </trkpt>
      <trkpt lat="41.250834" lon="-3.449199">
        <ele>1356.066</ele>
        <time>2016-07-20T15:47:26Z</time>
      </trkpt>
      <trkpt lat="41.250756" lon="-3.449108">
        <ele>1355.596</ele>
        <time>2016-07-20T15:47:30Z</time>
      </trkpt>
      <trkpt lat="41.250664" lon="-3.449013">
        <ele>1355.164</ele>
        <time>2016-07-20T15:47:34Z</time>
      </trkpt>
      <trkpt lat="41.250591" lon="-3.448918">
        <ele>1354.816</ele>
        <time>2016-07-20T15:47:38Z</time>
      </trkpt>
      <trkpt lat="41.250528" lon="-3.448810">
        <ele>1354.676</ele>
        <time>2016-07-20T15:47:41Z</time>
      </trkpt>
      <trkpt lat="41.250474" lon="-3.448704">
        <ele>1354.213</ele>
        <time>2016-07-20T15:47:45Z</time>
      </trkpt>
      <trkpt lat="41.250416" lon="-3.448593">
        <ele>1353.308</ele>
        <time>2016-07-20T15:47:50Z</time>
      </trkpt>
      <trkpt lat="41.250351" lon="-3.448495">
        <ele>1351.932</ele>
        <time>2016-07-20T15:47:59Z</time>
      </trkpt>
      <trkpt lat="41.250350" lon="-3.448350">
        <ele>1346.425</ele>
        <time>2016-07-20T15:48:14Z</time>
      </trkpt>
      <trkpt lat="41.250324" lon="-3.448227">
        <ele>1344.551</ele>
        <time>2016-07-20T15:48:16Z</time>
      </trkpt>
      <trkpt lat="41.250281" lon="-3.448091">
        <ele>1342.967</ele>
        <time>2016-07-20T15:48:18Z</time>
      </trkpt>
      <trkpt lat="41.250229" lon="-3.447966">
        <ele>1341.772</ele>
        <time>2016-07-20T15:48:20Z</time>
      </trkpt>
      <trkpt lat="41.250180" lon="-3.447853">
        <ele>1340.055</ele>
        <time>2016-07-20T15:48:22Z</time>
      </trkpt>
      <trkpt lat="41.250129" lon="-3.447748">
        <ele>1337.895</ele>
        <time>2016-07-20T15:48:24Z</time>
      </trkpt>
      <trkpt lat="41.250072" lon="-3.447627">
        <ele>1335.733</ele>
        <time>2016-07-20T15:48:26Z</time>
      </trkpt>
      <trkpt lat="41.250017" lon="-3.447520">
        <ele>1334.619</ele>
        <time>2016-07-20T15:48:28Z</time>
      </trkpt>
      <trkpt lat="41.249913" lon="-3.447465">
        <ele>1334.209</ele>
        <time>2016-07-20T15:48:31Z</time>
      </trkpt>
      <trkpt lat="41.249842" lon="-3.447555">
        <ele>1333.619</ele>
        <time>2016-07-20T15:48:34Z</time>
      </trkpt>
      <trkpt lat="41.249824" lon="-3.447741">
        <ele>1332.308</ele>
        <time>2016-07-20T15:48:37Z</time>
      </trkpt>
      <trkpt lat="41.249848" lon="-3.447890">
        <ele>1332.912</ele>
        <time>2016-07-20T15:48:39Z</time>
      </trkpt>
      <trkpt lat="41.249850" lon="-3.448045">
        <ele>1333.975</ele>
        <time>2016-07-20T15:48:41Z</time>
      </trkpt>
      <trkpt lat="41.249816" lon="-3.448209">
        <ele>1334.941</ele>
        <time>2016-07-20T15:48:43Z</time>
      </trkpt>
      <trkpt lat="41.249745" lon="-3.448328">
        <ele>1335.227</ele>
        <time>2016-07-20T15:48:45Z</time>
      </trkpt>
      <trkpt lat="41.249687" lon="-3.448420">
        <ele>1335.342</ele>
        <time>2016-07-20T15:48:47Z</time>
      </trkpt>
      <trkpt lat="41.249613" lon="-3.448522">
        <ele>1335.335</ele>
        <time>2016-07-20T15:48:50Z</time>
      </trkpt>
      <trkpt lat="41.249550" lon="-3.448629">
        <ele>1335.275</ele>
        <time>2016-07-20T15:48:53Z</time>
      </trkpt>
      <trkpt lat="41.249503" lon="-3.448732">
        <ele>1335.063</ele>
        <time>2016-07-20T15:48:56Z</time>
      </trkpt>
      <trkpt lat="41.249451" lon="-3.448836">
        <ele>1334.794</ele>
        <time>2016-07-20T15:48:59Z</time>
      </trkpt>
      <trkpt lat="41.249412" lon="-3.448946">
        <ele>1335.257</ele>
        <time>2016-07-20T15:49:02Z</time>
      </trkpt>
      <trkpt lat="41.249370" lon="-3.449054">
        <ele>1336.122</ele>
        <time>2016-07-20T15:49:07Z</time>
      </trkpt>
      <trkpt lat="41.249328" lon="-3.449172">
        <ele>1336.308</ele>
        <time>2016-07-20T15:49:12Z</time>
      </trkpt>
      <trkpt lat="41.249248" lon="-3.449274">
        <ele>1336.810</ele>
        <time>2016-07-20T15:49:19Z</time>
      </trkpt>
      <trkpt lat="41.249146" lon="-3.449366">
        <ele>1339.393</ele>
        <time>2016-07-20T15:49:22Z</time>
      </trkpt>
      <trkpt lat="41.249043" lon="-3.449373">
        <ele>1342.199</ele>
        <time>2016-07-20T15:49:24Z</time>
      </trkpt>
      <trkpt lat="41.248937" lon="-3.449374">
        <ele>1344.135</ele>
        <time>2016-07-20T15:49:26Z</time>
      </trkpt>
      <trkpt lat="41.248781" lon="-3.449483">
        <ele>1346.760</ele>
        <time>2016-07-20T15:49:28Z</time>
      </trkpt>
      <trkpt lat="41.248682" lon="-3.449538">
        <ele>1348.373</ele>
        <time>2016-07-20T15:49:30Z</time>
      </trkpt>
      <trkpt lat="41.248572" lon="-3.449578">
        <ele>1350.113</ele>
        <time>2016-07-20T15:49:32Z</time>
      </trkpt>
      <trkpt lat="41.248465" lon="-3.449600">
        <ele>1352.141</ele>
        <time>2016-07-20T15:49:34Z</time>
      </trkpt>
      <trkpt lat="41.248365" lon="-3.449626">
        <ele>1354.621</ele>
        <time>2016-07-20T15:49:36Z</time>
      </trkpt>
      <trkpt lat="41.248261" lon="-3.449651">
        <ele>1356.241</ele>
        <time>2016-07-20T15:49:38Z</time>
      </trkpt>
      <trkpt lat="41.248167" lon="-3.449662">
        <ele>1357.905</ele>
        <time>2016-07-20T15:49:40Z</time>
      </trkpt>
      <trkpt lat="41.248049" lon="-3.449658">
        <ele>1359.908</ele>
        <time>2016-07-20T15:49:43Z</time>
      </trkpt>
      <trkpt lat="41.247946" lon="-3.449643">
        <ele>1360.383</ele>
        <time>2016-07-20T15:49:47Z</time>
      </trkpt>
      <trkpt lat="41.247856" lon="-3.449619">
        <ele>1360.686</ele>
        <time>2016-07-20T15:49:50Z</time>
      </trkpt>
      <trkpt lat="41.247771" lon="-3.449519">
        <ele>1361.112</ele>
        <time>2016-07-20T15:49:54Z</time>
      </trkpt>
      <trkpt lat="41.247672" lon="-3.449505">
        <ele>1363.328</ele>
        <time>2016-07-20T15:49:57Z</time>
      </trkpt>
      <trkpt lat="41.247555" lon="-3.449510">
        <ele>1366.993</ele>
        <time>2016-07-20T15:50:00Z</time>
      </trkpt>
      <trkpt lat="41.247460" lon="-3.449499">
        <ele>1368.016</ele>
        <time>2016-07-20T15:50:02Z</time>
      </trkpt>
      <trkpt lat="41.247366" lon="-3.449496">
        <ele>1368.316</ele>
        <time>2016-07-20T15:50:04Z</time>
      </trkpt>
      <trkpt lat="41.247240" lon="-3.449560">
        <ele>1370.074</ele>
        <time>2016-07-20T15:50:07Z</time>
      </trkpt>
      <trkpt lat="41.247164" lon="-3.449640">
        <ele>1370.556</ele>
        <time>2016-07-20T15:50:12Z</time>
      </trkpt>
      <trkpt lat="41.247235" lon="-3.449725">
        <ele>1371.659</ele>
        <time>2016-07-20T15:50:19Z</time>
      </trkpt>
      <trkpt lat="41.247313" lon="-3.449812">
        <ele>1372.214</ele>
        <time>2016-07-20T15:50:23Z</time>
      </trkpt>
      <trkpt lat="41.247389" lon="-3.449885">
        <ele>1375.008</ele>
        <time>2016-07-20T15:50:26Z</time>
      </trkpt>
      <trkpt lat="41.247442" lon="-3.449983">
        <ele>1375.726</ele>
        <time>2016-07-20T15:50:28Z</time>
      </trkpt>
      <trkpt lat="41.247507" lon="-3.450066">
        <ele>1375.869</ele>
        <time>2016-07-20T15:50:33Z</time>
      </trkpt>
      <trkpt lat="41.247469" lon="-3.450186">
        <ele>1375.945</ele>
        <time>2016-07-20T15:50:40Z</time>
      </trkpt>
      <trkpt lat="41.247403" lon="-3.450291">
        <ele>1375.821</ele>
        <time>2016-07-20T15:50:43Z</time>
      </trkpt>
      <trkpt lat="41.247316" lon="-3.450342">
        <ele>1375.576</ele>
        <time>2016-07-20T15:50:47Z</time>
      </trkpt>
      <trkpt lat="41.247220" lon="-3.450291">
        <ele>1375.179</ele>
        <time>2016-07-20T15:50:55Z</time>
      </trkpt>
      <trkpt lat="41.247106" lon="-3.450278">
        <ele>1375.379</ele>
        <time>2016-07-20T15:50:59Z</time>
      </trkpt>
      <trkpt lat="41.247032" lon="-3.450356">
        <ele>1375.977</ele>
        <time>2016-07-20T15:51:01Z</time>
      </trkpt>
      <trkpt lat="41.246937" lon="-3.450253">
        <ele>1376.195</ele>
        <time>2016-07-20T15:51:06Z</time>
      </trkpt>
      <trkpt lat="41.246869" lon="-3.450108">
        <ele>1376.049</ele>
        <time>2016-07-20T15:51:09Z</time>
      </trkpt>
      <trkpt lat="41.246791" lon="-3.449994">
        <ele>1375.923</ele>
        <time>2016-07-20T15:51:12Z</time>
      </trkpt>
      <trkpt lat="41.246734" lon="-3.449879">
        <ele>1376.008</ele>
        <time>2016-07-20T15:51:16Z</time>
      </trkpt>
      <trkpt lat="41.246680" lon="-3.449756">
        <ele>1375.720</ele>
        <time>2016-07-20T15:51:19Z</time>
      </trkpt>
      <trkpt lat="41.246617" lon="-3.449652">
        <ele>1377.393</ele>
        <time>2016-07-20T15:51:22Z</time>
      </trkpt>
      <trkpt lat="41.246532" lon="-3.449546">
        <ele>1377.779</ele>
        <time>2016-07-20T15:51:25Z</time>
      </trkpt>
      <trkpt lat="41.246438" lon="-3.449443">
        <ele>1379.395</ele>
        <time>2016-07-20T15:51:28Z</time>
      </trkpt>
      <trkpt lat="41.246369" lon="-3.449354">
        <ele>1379.780</ele>
        <time>2016-07-20T15:51:32Z</time>
      </trkpt>
      <trkpt lat="41.246340" lon="-3.449212">
        <ele>1380.383</ele>
        <time>2016-07-20T15:51:37Z</time>
      </trkpt>
      <trkpt lat="41.246381" lon="-3.449331">
        <ele>1382.363</ele>
        <time>2016-07-20T15:51:57Z</time>
      </trkpt>
      <trkpt lat="41.246445" lon="-3.449419">
        <ele>1382.491</ele>
        <time>2016-07-20T15:52:00Z</time>
      </trkpt>
      <trkpt lat="41.246531" lon="-3.449529">
        <ele>1384.287</ele>
        <time>2016-07-20T15:52:02Z</time>
      </trkpt>
      <trkpt lat="41.246609" lon="-3.449639">
        <ele>1385.442</ele>
        <time>2016-07-20T15:52:06Z</time>
      </trkpt>
      <trkpt lat="41.246678" lon="-3.449758">
        <ele>1385.426</ele>
        <time>2016-07-20T15:52:10Z</time>
      </trkpt>
      <trkpt lat="41.246659" lon="-3.449948">
        <ele>1385.008</ele>
        <time>2016-07-20T15:52:13Z</time>
      </trkpt>
      <trkpt lat="41.246584" lon="-3.450071">
        <ele>1384.229</ele>
        <time>2016-07-20T15:52:16Z</time>
      </trkpt>
      <trkpt lat="41.246515" lon="-3.450226">
        <ele>1384.442</ele>
        <time>2016-07-20T15:52:19Z</time>
      </trkpt>
      <trkpt lat="41.246409" lon="-3.450336">
        <ele>1383.798</ele>
        <time>2016-07-20T15:52:22Z</time>
      </trkpt>
      <trkpt lat="41.246286" lon="-3.450410">
        <ele>1382.674</ele>
        <time>2016-07-20T15:52:24Z</time>
      </trkpt>
      <trkpt lat="41.246160" lon="-3.450482">
        <ele>1381.179</ele>
        <time>2016-07-20T15:52:26Z</time>
      </trkpt>
      <trkpt lat="41.246021" lon="-3.450559">
        <ele>1378.752</ele>
        <time>2016-07-20T15:52:28Z</time>
      </trkpt>
      <trkpt lat="41.245889" lon="-3.450625">
        <ele>1376.452</ele>
        <time>2016-07-20T15:52:30Z</time>
      </trkpt>
      <trkpt lat="41.245748" lon="-3.450663">
        <ele>1374.420</ele>
        <time>2016-07-20T15:52:32Z</time>
      </trkpt>
      <trkpt lat="41.245592" lon="-3.450641">
        <ele>1372.812</ele>
        <time>2016-07-20T15:52:34Z</time>
      </trkpt>
      <trkpt lat="41.245416" lon="-3.450580">
        <ele>1371.232</ele>
        <time>2016-07-20T15:52:36Z</time>
      </trkpt>
      <trkpt lat="41.245328" lon="-3.450544">
        <ele>1370.505</ele>
        <time>2016-07-20T15:52:37Z</time>
      </trkpt>
      <trkpt lat="41.245237" lon="-3.450496">
        <ele>1369.908</ele>
        <time>2016-07-20T15:52:38Z</time>
      </trkpt>
      <trkpt lat="41.245150" lon="-3.450447">
        <ele>1369.362</ele>
        <time>2016-07-20T15:52:39Z</time>
      </trkpt>
      <trkpt lat="41.244981" lon="-3.450361">
        <ele>1368.555</ele>
        <time>2016-07-20T15:52:41Z</time>
      </trkpt>
      <trkpt lat="41.244889" lon="-3.450333">
        <ele>1368.351</ele>
        <time>2016-07-20T15:52:42Z</time>
      </trkpt>
      <trkpt lat="41.244793" lon="-3.450306">
        <ele>1368.267</ele>
        <time>2016-07-20T15:52:43Z</time>
      </trkpt>
      <trkpt lat="41.244696" lon="-3.450309">
        <ele>1367.942</ele>
        <time>2016-07-20T15:52:44Z</time>
      </trkpt>
      <trkpt lat="41.244598" lon="-3.450314">
        <ele>1367.515</ele>
        <time>2016-07-20T15:52:45Z</time>
      </trkpt>
      <trkpt lat="41.244502" lon="-3.450324">
        <ele>1367.045</ele>
        <time>2016-07-20T15:52:46Z</time>
      </trkpt>
      <trkpt lat="41.244404" lon="-3.450339">
        <ele>1366.643</ele>
        <time>2016-07-20T15:52:47Z</time>
      </trkpt>
      <trkpt lat="41.244304" lon="-3.450354">
        <ele>1366.466</ele>
        <time>2016-07-20T15:52:48Z</time>
      </trkpt>
      <trkpt lat="41.244206" lon="-3.450367">
        <ele>1366.029</ele>
        <time>2016-07-20T15:52:49Z</time>
      </trkpt>
      <trkpt lat="41.244111" lon="-3.450350">
        <ele>1365.821</ele>
        <time>2016-07-20T15:52:50Z</time>
      </trkpt>
      <trkpt lat="41.244017" lon="-3.450325">
        <ele>1365.208</ele>
        <time>2016-07-20T15:52:51Z</time>
      </trkpt>
      <trkpt lat="41.243929" lon="-3.450264">
        <ele>1364.887</ele>
        <time>2016-07-20T15:52:52Z</time>
      </trkpt>
      <trkpt lat="41.243843" lon="-3.450198">
        <ele>1364.170</ele>
        <time>2016-07-20T15:52:53Z</time>
      </trkpt>
      <trkpt lat="41.243757" lon="-3.450124">
        <ele>1363.366</ele>
        <time>2016-07-20T15:52:54Z</time>
      </trkpt>
      <trkpt lat="41.243671" lon="-3.450045">
        <ele>1362.652</ele>
        <time>2016-07-20T15:52:55Z</time>
      </trkpt>
      <trkpt lat="41.243585" lon="-3.449961">
        <ele>1361.717</ele>
        <time>2016-07-20T15:52:56Z</time>
      </trkpt>
      <trkpt lat="41.243503" lon="-3.449877">
        <ele>1360.710</ele>
        <time>2016-07-20T15:52:57Z</time>
      </trkpt>
      <trkpt lat="41.243413" lon="-3.449783">
        <ele>1360.170</ele>
        <time>2016-07-20T15:52:58Z</time>
      </trkpt>
      <trkpt lat="41.243317" lon="-3.449694">
        <ele>1359.698</ele>
        <time>2016-07-20T15:52:59Z</time>
      </trkpt>
      <trkpt lat="41.243207" lon="-3.449661">
        <ele>1359.415</ele>
        <time>2016-07-20T15:53:00Z</time>
      </trkpt>
      <trkpt lat="41.243100" lon="-3.449638">
        <ele>1359.465</ele>
        <time>2016-07-20T15:53:01Z</time>
      </trkpt>
      <trkpt lat="41.243006" lon="-3.449623">
        <ele>1359.211</ele>
        <time>2016-07-20T15:53:02Z</time>
      </trkpt>
      <trkpt lat="41.242848" lon="-3.449539">
        <ele>1359.308</ele>
        <time>2016-07-20T15:53:04Z</time>
      </trkpt>
      <trkpt lat="41.242731" lon="-3.449362">
        <ele>1359.672</ele>
        <time>2016-07-20T15:53:06Z</time>
      </trkpt>
      <trkpt lat="41.242646" lon="-3.449170">
        <ele>1358.595</ele>
        <time>2016-07-20T15:53:08Z</time>
      </trkpt>
      <trkpt lat="41.242562" lon="-3.448962">
        <ele>1357.781</ele>
        <time>2016-07-20T15:53:10Z</time>
      </trkpt>
      <trkpt lat="41.242503" lon="-3.448868">
        <ele>1357.887</ele>
        <time>2016-07-20T15:53:11Z</time>
      </trkpt>
      <trkpt lat="41.242426" lon="-3.448797">
        <ele>1358.162</ele>
        <time>2016-07-20T15:53:12Z</time>
      </trkpt>
      <trkpt lat="41.242347" lon="-3.448738">
        <ele>1358.185</ele>
        <time>2016-07-20T15:53:13Z</time>
      </trkpt>
      <trkpt lat="41.242263" lon="-3.448684">
        <ele>1357.965</ele>
        <time>2016-07-20T15:53:14Z</time>
      </trkpt>
      <trkpt lat="41.242176" lon="-3.448636">
        <ele>1357.573</ele>
        <time>2016-07-20T15:53:15Z</time>
      </trkpt>
      <trkpt lat="41.242085" lon="-3.448591">
        <ele>1356.985</ele>
        <time>2016-07-20T15:53:16Z</time>
      </trkpt>
      <trkpt lat="41.241920" lon="-3.448522">
        <ele>1356.089</ele>
        <time>2016-07-20T15:53:18Z</time>
      </trkpt>
      <trkpt lat="41.241792" lon="-3.448501">
        <ele>1355.417</ele>
        <time>2016-07-20T15:53:20Z</time>
      </trkpt>
      <trkpt lat="41.241699" lon="-3.448526">
        <ele>1355.308</ele>
        <time>2016-07-20T15:53:26Z</time>
      </trkpt>
      <trkpt lat="41.241568" lon="-3.448503">
        <ele>1353.219</ele>
        <time>2016-07-20T15:53:29Z</time>
      </trkpt>
      <trkpt lat="41.241464" lon="-3.448443">
        <ele>1351.362</ele>
        <time>2016-07-20T15:53:31Z</time>
      </trkpt>
      <trkpt lat="41.241320" lon="-3.448355">
        <ele>1349.348</ele>
        <time>2016-07-20T15:53:33Z</time>
      </trkpt>
      <trkpt lat="41.241181" lon="-3.448257">
        <ele>1348.144</ele>
        <time>2016-07-20T15:53:35Z</time>
      </trkpt>
      <trkpt lat="41.241081" lon="-3.448103">
        <ele>1348.519</ele>
        <time>2016-07-20T15:53:37Z</time>
      </trkpt>
      <trkpt lat="41.241010" lon="-3.447928">
        <ele>1349.742</ele>
        <time>2016-07-20T15:53:39Z</time>
      </trkpt>
      <trkpt lat="41.240972" lon="-3.447718">
        <ele>1350.882</ele>
        <time>2016-07-20T15:53:41Z</time>
      </trkpt>
      <trkpt lat="41.240946" lon="-3.447496">
        <ele>1352.680</ele>
        <time>2016-07-20T15:53:43Z</time>
      </trkpt>
      <trkpt lat="41.240931" lon="-3.447272">
        <ele>1354.984</ele>
        <time>2016-07-20T15:53:45Z</time>
      </trkpt>
      <trkpt lat="41.240918" lon="-3.447069">
        <ele>1357.207</ele>
        <time>2016-07-20T15:53:48Z</time>
      </trkpt>
      <trkpt lat="41.240899" lon="-3.446896">
        <ele>1358.517</ele>
        <time>2016-07-20T15:53:50Z</time>
      </trkpt>
      <trkpt lat="41.240877" lon="-3.446725">
        <ele>1358.708</ele>
        <time>2016-07-20T15:53:52Z</time>
      </trkpt>
      <trkpt lat="41.240858" lon="-3.446565">
        <ele>1358.549</ele>
        <time>2016-07-20T15:53:54Z</time>
      </trkpt>
      <trkpt lat="41.240839" lon="-3.446413">
        <ele>1359.292</ele>
        <time>2016-07-20T15:53:56Z</time>
      </trkpt>
      <trkpt lat="41.240828" lon="-3.446259">
        <ele>1359.598</ele>
        <time>2016-07-20T15:53:58Z</time>
      </trkpt>
      <trkpt lat="41.240827" lon="-3.446094">
        <ele>1359.964</ele>
        <time>2016-07-20T15:54:00Z</time>
      </trkpt>
      <trkpt lat="41.240822" lon="-3.445897">
        <ele>1360.199</ele>
        <time>2016-07-20T15:54:02Z</time>
      </trkpt>
      <trkpt lat="41.240807" lon="-3.445707">
        <ele>1360.782</ele>
        <time>2016-07-20T15:54:04Z</time>
      </trkpt>
      <trkpt lat="41.240719" lon="-3.445443">
        <ele>1362.582</ele>
        <time>2016-07-20T15:54:06Z</time>
      </trkpt>
      <trkpt lat="41.240627" lon="-3.445280">
        <ele>1361.890</ele>
        <time>2016-07-20T15:54:08Z</time>
      </trkpt>
      <trkpt lat="41.240525" lon="-3.445133">
        <ele>1361.943</ele>
        <time>2016-07-20T15:54:10Z</time>
      </trkpt>
      <trkpt lat="41.240430" lon="-3.444991">
        <ele>1363.064</ele>
        <time>2016-07-20T15:54:12Z</time>
      </trkpt>
      <trkpt lat="41.240331" lon="-3.444881">
        <ele>1364.610</ele>
        <time>2016-07-20T15:54:14Z</time>
      </trkpt>
      <trkpt lat="41.240197" lon="-3.444813">
        <ele>1364.708</ele>
        <time>2016-07-20T15:54:16Z</time>
      </trkpt>
      <trkpt lat="41.240052" lon="-3.444768">
        <ele>1365.595</ele>
        <time>2016-07-20T15:54:18Z</time>
      </trkpt>
      <trkpt lat="41.239917" lon="-3.444729">
        <ele>1367.718</ele>
        <time>2016-07-20T15:54:20Z</time>
      </trkpt>
      <trkpt lat="41.239791" lon="-3.444628">
        <ele>1369.384</ele>
        <time>2016-07-20T15:54:22Z</time>
      </trkpt>
      <trkpt lat="41.239679" lon="-3.444472">
        <ele>1370.930</ele>
        <time>2016-07-20T15:54:24Z</time>
      </trkpt>
      <trkpt lat="41.239569" lon="-3.444296">
        <ele>1372.675</ele>
        <time>2016-07-20T15:54:26Z</time>
      </trkpt>
      <trkpt lat="41.239462" lon="-3.444103">
        <ele>1374.578</ele>
        <time>2016-07-20T15:54:28Z</time>
      </trkpt>
      <trkpt lat="41.239411" lon="-3.443993">
        <ele>1375.438</ele>
        <time>2016-07-20T15:54:29Z</time>
      </trkpt>
      <trkpt lat="41.239367" lon="-3.443878">
        <ele>1376.416</ele>
        <time>2016-07-20T15:54:30Z</time>
      </trkpt>
      <trkpt lat="41.239343" lon="-3.443756">
        <ele>1377.012</ele>
        <time>2016-07-20T15:54:31Z</time>
      </trkpt>
      <trkpt lat="41.239324" lon="-3.443619">
        <ele>1377.732</ele>
        <time>2016-07-20T15:54:32Z</time>
      </trkpt>
      <trkpt lat="41.239322" lon="-3.443373">
        <ele>1378.605</ele>
        <time>2016-07-20T15:54:34Z</time>
      </trkpt>
      <trkpt lat="41.239326" lon="-3.443246">
        <ele>1378.608</ele>
        <time>2016-07-20T15:54:35Z</time>
      </trkpt>
      <trkpt lat="41.239331" lon="-3.443120">
        <ele>1378.362</ele>
        <time>2016-07-20T15:54:36Z</time>
      </trkpt>
      <trkpt lat="41.239335" lon="-3.442982">
        <ele>1378.375</ele>
        <time>2016-07-20T15:54:37Z</time>
      </trkpt>
      <trkpt lat="41.239339" lon="-3.442837">
        <ele>1378.781</ele>
        <time>2016-07-20T15:54:38Z</time>
      </trkpt>
      <trkpt lat="41.239344" lon="-3.442709">
        <ele>1379.467</ele>
        <time>2016-07-20T15:54:39Z</time>
      </trkpt>
      <trkpt lat="41.239348" lon="-3.442581">
        <ele>1380.362</ele>
        <time>2016-07-20T15:54:40Z</time>
      </trkpt>
      <trkpt lat="41.239347" lon="-3.442365">
        <ele>1382.045</ele>
        <time>2016-07-20T15:54:43Z</time>
      </trkpt>
      <trkpt lat="41.239316" lon="-3.442193">
        <ele>1383.775</ele>
        <time>2016-07-20T15:54:45Z</time>
      </trkpt>
      <trkpt lat="41.239255" lon="-3.442028">
        <ele>1384.913</ele>
        <time>2016-07-20T15:54:47Z</time>
      </trkpt>
      <trkpt lat="41.239187" lon="-3.441859">
        <ele>1385.157</ele>
        <time>2016-07-20T15:54:49Z</time>
      </trkpt>
      <trkpt lat="41.239086" lon="-3.441695">
        <ele>1385.200</ele>
        <time>2016-07-20T15:54:51Z</time>
      </trkpt>
      <trkpt lat="41.238955" lon="-3.441540">
        <ele>1385.020</ele>
        <time>2016-07-20T15:54:53Z</time>
      </trkpt>
      <trkpt lat="41.238814" lon="-3.441390">
        <ele>1385.308</ele>
        <time>2016-07-20T15:54:55Z</time>
      </trkpt>
      <trkpt lat="41.238739" lon="-3.441317">
        <ele>1385.586</ele>
        <time>2016-07-20T15:54:56Z</time>
      </trkpt>
      <trkpt lat="41.238654" lon="-3.441234">
        <ele>1385.669</ele>
        <time>2016-07-20T15:54:57Z</time>
      </trkpt>
      <trkpt lat="41.238570" lon="-3.441158">
        <ele>1385.795</ele>
        <time>2016-07-20T15:54:58Z</time>
      </trkpt>
      <trkpt lat="41.238484" lon="-3.441072">
        <ele>1385.681</ele>
        <time>2016-07-20T15:54:59Z</time>
      </trkpt>
      <trkpt lat="41.238409" lon="-3.440992">
        <ele>1385.666</ele>
        <time>2016-07-20T15:55:00Z</time>
      </trkpt>
      <trkpt lat="41.238333" lon="-3.440904">
        <ele>1385.399</ele>
        <time>2016-07-20T15:55:01Z</time>
      </trkpt>
      <trkpt lat="41.238262" lon="-3.440817">
        <ele>1384.949</ele>
        <time>2016-07-20T15:55:02Z</time>
      </trkpt>
      <trkpt lat="41.238192" lon="-3.440719">
        <ele>1384.637</ele>
        <time>2016-07-20T15:55:03Z</time>
      </trkpt>
      <trkpt lat="41.238124" lon="-3.440614">
        <ele>1384.267</ele>
        <time>2016-07-20T15:55:04Z</time>
      </trkpt>
      <trkpt lat="41.238060" lon="-3.440503">
        <ele>1384.081</ele>
        <time>2016-07-20T15:55:05Z</time>
      </trkpt>
      <trkpt lat="41.238000" lon="-3.440386">
        <ele>1383.719</ele>
        <time>2016-07-20T15:55:06Z</time>
      </trkpt>
      <trkpt lat="41.237945" lon="-3.440266">
        <ele>1383.508</ele>
        <time>2016-07-20T15:55:07Z</time>
      </trkpt>
      <trkpt lat="41.237891" lon="-3.440134">
        <ele>1383.287</ele>
        <time>2016-07-20T15:55:08Z</time>
      </trkpt>
      <trkpt lat="41.237838" lon="-3.440006">
        <ele>1382.970</ele>
        <time>2016-07-20T15:55:09Z</time>
      </trkpt>
      <trkpt lat="41.237789" lon="-3.439895">
        <ele>1382.856</ele>
        <time>2016-07-20T15:55:10Z</time>
      </trkpt>
      <trkpt lat="41.237741" lon="-3.439785">
        <ele>1382.752</ele>
        <time>2016-07-20T15:55:11Z</time>
      </trkpt>
      <trkpt lat="41.237707" lon="-3.439672">
        <ele>1382.997</ele>
        <time>2016-07-20T15:55:12Z</time>
      </trkpt>
      <trkpt lat="41.237675" lon="-3.439551">
        <ele>1383.360</ele>
        <time>2016-07-20T15:55:13Z</time>
      </trkpt>
      <trkpt lat="41.237666" lon="-3.439430">
        <ele>1383.960</ele>
        <time>2016-07-20T15:55:14Z</time>
      </trkpt>
      <trkpt lat="41.237663" lon="-3.439197">
        <ele>1385.448</ele>
        <time>2016-07-20T15:55:16Z</time>
      </trkpt>
      <trkpt lat="41.237669" lon="-3.439076">
        <ele>1386.234</ele>
        <time>2016-07-20T15:55:17Z</time>
      </trkpt>
      <trkpt lat="41.237678" lon="-3.438945">
        <ele>1386.755</ele>
        <time>2016-07-20T15:55:18Z</time>
      </trkpt>
      <trkpt lat="41.237688" lon="-3.438820">
        <ele>1387.210</ele>
        <time>2016-07-20T15:55:19Z</time>
      </trkpt>
      <trkpt lat="41.237701" lon="-3.438686">
        <ele>1387.608</ele>
        <time>2016-07-20T15:55:20Z</time>
      </trkpt>
      <trkpt lat="41.237719" lon="-3.438553">
        <ele>1388.284</ele>
        <time>2016-07-20T15:55:21Z</time>
      </trkpt>
      <trkpt lat="41.237741" lon="-3.438420">
        <ele>1388.857</ele>
        <time>2016-07-20T15:55:22Z</time>
      </trkpt>
      <trkpt lat="41.237762" lon="-3.438296">
        <ele>1389.473</ele>
        <time>2016-07-20T15:55:23Z</time>
      </trkpt>
      <trkpt lat="41.237784" lon="-3.438175">
        <ele>1389.669</ele>
        <time>2016-07-20T15:55:24Z</time>
      </trkpt>
      <trkpt lat="41.237805" lon="-3.438040">
        <ele>1389.824</ele>
        <time>2016-07-20T15:55:25Z</time>
      </trkpt>
      <trkpt lat="41.237819" lon="-3.437900">
        <ele>1390.117</ele>
        <time>2016-07-20T15:55:26Z</time>
      </trkpt>
      <trkpt lat="41.237806" lon="-3.437771">
        <ele>1390.497</ele>
        <time>2016-07-20T15:55:27Z</time>
      </trkpt>
      <trkpt lat="41.237786" lon="-3.437634">
        <ele>1390.775</ele>
        <time>2016-07-20T15:55:28Z</time>
      </trkpt>
      <trkpt lat="41.237760" lon="-3.437496">
        <ele>1391.096</ele>
        <time>2016-07-20T15:55:29Z</time>
      </trkpt>
      <trkpt lat="41.237731" lon="-3.437363">
        <ele>1391.331</ele>
        <time>2016-07-20T15:55:30Z</time>
      </trkpt>
      <trkpt lat="41.237702" lon="-3.437229">
        <ele>1391.624</ele>
        <time>2016-07-20T15:55:31Z</time>
      </trkpt>
      <trkpt lat="41.237646" lon="-3.436989">
        <ele>1392.208</ele>
        <time>2016-07-20T15:55:32Z</time>
      </trkpt>
      <trkpt lat="41.237641" lon="-3.436868">
        <ele>1392.560</ele>
        <time>2016-07-20T15:55:33Z</time>
      </trkpt>
      <trkpt lat="41.237698" lon="-3.436675">
        <ele>1392.283</ele>
        <time>2016-07-20T15:55:35Z</time>
      </trkpt>
      <trkpt lat="41.237816" lon="-3.436543">
        <ele>1390.919</ele>
        <time>2016-07-20T15:55:37Z</time>
      </trkpt>
      <trkpt lat="41.237977" lon="-3.436402">
        <ele>1389.345</ele>
        <time>2016-07-20T15:55:39Z</time>
      </trkpt>
      <trkpt lat="41.238074" lon="-3.436312">
        <ele>1389.190</ele>
        <time>2016-07-20T15:55:40Z</time>
      </trkpt>
      <trkpt lat="41.238171" lon="-3.436226">
        <ele>1389.423</ele>
        <time>2016-07-20T15:55:41Z</time>
      </trkpt>
      <trkpt lat="41.238266" lon="-3.436154">
        <ele>1389.753</ele>
        <time>2016-07-20T15:55:42Z</time>
      </trkpt>
      <trkpt lat="41.238348" lon="-3.436092">
        <ele>1389.771</ele>
        <time>2016-07-20T15:55:43Z</time>
      </trkpt>
      <trkpt lat="41.238427" lon="-3.436032">
        <ele>1389.474</ele>
        <time>2016-07-20T15:55:44Z</time>
      </trkpt>
      <trkpt lat="41.238506" lon="-3.435976">
        <ele>1389.056</ele>
        <time>2016-07-20T15:55:46Z</time>
      </trkpt>
      <trkpt lat="41.238648" lon="-3.435862">
        <ele>1387.821</ele>
        <time>2016-07-20T15:55:48Z</time>
      </trkpt>
      <trkpt lat="41.238767" lon="-3.435734">
        <ele>1386.108</ele>
        <time>2016-07-20T15:55:50Z</time>
      </trkpt>
      <trkpt lat="41.238838" lon="-3.435564">
        <ele>1384.968</ele>
        <time>2016-07-20T15:55:52Z</time>
      </trkpt>
      <trkpt lat="41.238822" lon="-3.435383">
        <ele>1384.521</ele>
        <time>2016-07-20T15:55:54Z</time>
      </trkpt>
      <trkpt lat="41.238766" lon="-3.435219">
        <ele>1384.067</ele>
        <time>2016-07-20T15:55:56Z</time>
      </trkpt>
      <trkpt lat="41.238649" lon="-3.435081">
        <ele>1383.493</ele>
        <time>2016-07-20T15:55:58Z</time>
      </trkpt>
      <trkpt lat="41.238498" lon="-3.435013">
        <ele>1383.218</ele>
        <time>2016-07-20T15:56:00Z</time>
      </trkpt>
      <trkpt lat="41.238346" lon="-3.435023">
        <ele>1383.531</ele>
        <time>2016-07-20T15:56:02Z</time>
      </trkpt>
      <trkpt lat="41.238186" lon="-3.435071">
        <ele>1383.311</ele>
        <time>2016-07-20T15:56:04Z</time>
      </trkpt>
      <trkpt lat="41.238013" lon="-3.435125">
        <ele>1382.829</ele>
        <time>2016-07-20T15:56:06Z</time>
      </trkpt>
      <trkpt lat="41.237925" lon="-3.435153">
        <ele>1382.281</ele>
        <time>2016-07-20T15:56:07Z</time>
      </trkpt>
      <trkpt lat="41.237758" lon="-3.435201">
        <ele>1380.761</ele>
        <time>2016-07-20T15:56:09Z</time>
      </trkpt>
      <trkpt lat="41.237618" lon="-3.435248">
        <ele>1379.717</ele>
        <time>2016-07-20T15:56:11Z</time>
      </trkpt>
      <trkpt lat="41.237483" lon="-3.435316">
        <ele>1379.708</ele>
        <time>2016-07-20T15:56:13Z</time>
      </trkpt>
      <trkpt lat="41.237358" lon="-3.435417">
        <ele>1382.219</ele>
        <time>2016-07-20T15:56:15Z</time>
      </trkpt>
      <trkpt lat="41.237230" lon="-3.435544">
        <ele>1385.582</ele>
        <time>2016-07-20T15:56:17Z</time>
      </trkpt>
      <trkpt lat="41.237094" lon="-3.435694">
        <ele>1388.798</ele>
        <time>2016-07-20T15:56:18Z</time>
      </trkpt>
      <trkpt lat="41.236960" lon="-3.435847">
        <ele>1390.514</ele>
        <time>2016-07-20T15:56:20Z</time>
      </trkpt>
      <trkpt lat="41.236837" lon="-3.435968">
        <ele>1391.069</ele>
        <time>2016-07-20T15:56:22Z</time>
      </trkpt>
      <trkpt lat="41.236718" lon="-3.435998">
        <ele>1392.152</ele>
        <time>2016-07-20T15:56:24Z</time>
      </trkpt>
      <trkpt lat="41.236614" lon="-3.435951">
        <ele>1393.342</ele>
        <time>2016-07-20T15:56:26Z</time>
      </trkpt>
      <trkpt lat="41.236518" lon="-3.435872">
        <ele>1393.930</ele>
        <time>2016-07-20T15:56:28Z</time>
      </trkpt>
      <trkpt lat="41.236433" lon="-3.435779">
        <ele>1395.698</ele>
        <time>2016-07-20T15:56:30Z</time>
      </trkpt>
      <trkpt lat="41.236341" lon="-3.435646">
        <ele>1398.115</ele>
        <time>2016-07-20T15:56:32Z</time>
      </trkpt>
      <trkpt lat="41.236236" lon="-3.435500">
        <ele>1399.326</ele>
        <time>2016-07-20T15:56:34Z</time>
      </trkpt>
      <trkpt lat="41.236086" lon="-3.435305">
        <ele>1400.608</ele>
        <time>2016-07-20T15:56:36Z</time>
      </trkpt>
      <trkpt lat="41.235946" lon="-3.435123">
        <ele>1402.880</ele>
        <time>2016-07-20T15:56:39Z</time>
      </trkpt>
      <trkpt lat="41.235850" lon="-3.435000">
        <ele>1404.443</ele>
        <time>2016-07-20T15:56:41Z</time>
      </trkpt>
      <trkpt lat="41.235768" lon="-3.434895">
        <ele>1405.129</ele>
        <time>2016-07-20T15:56:43Z</time>
      </trkpt>
      <trkpt lat="41.235682" lon="-3.434792">
        <ele>1406.215</ele>
        <time>2016-07-20T15:56:45Z</time>
      </trkpt>
      <trkpt lat="41.235577" lon="-3.434668">
        <ele>1407.730</ele>
        <time>2016-07-20T15:56:47Z</time>
      </trkpt>
      <trkpt lat="41.235480" lon="-3.434544">
        <ele>1409.433</ele>
        <time>2016-07-20T15:56:49Z</time>
      </trkpt>
      <trkpt lat="41.235387" lon="-3.434405">
        <ele>1410.583</ele>
        <time>2016-07-20T15:56:51Z</time>
      </trkpt>
      <trkpt lat="41.235296" lon="-3.434248">
        <ele>1410.811</ele>
        <time>2016-07-20T15:56:53Z</time>
      </trkpt>
      <trkpt lat="41.235218" lon="-3.434079">
        <ele>1411.284</ele>
        <time>2016-07-20T15:56:56Z</time>
      </trkpt>
      <trkpt lat="41.235142" lon="-3.433892">
        <ele>1411.907</ele>
        <time>2016-07-20T15:56:58Z</time>
      </trkpt>
      <trkpt lat="41.235074" lon="-3.433707">
        <ele>1412.317</ele>
        <time>2016-07-20T15:57:00Z</time>
      </trkpt>
      <trkpt lat="41.235010" lon="-3.433539">
        <ele>1412.808</ele>
        <time>2016-07-20T15:57:02Z</time>
      </trkpt>
      <trkpt lat="41.234944" lon="-3.433366">
        <ele>1413.279</ele>
        <time>2016-07-20T15:57:04Z</time>
      </trkpt>
      <trkpt lat="41.234886" lon="-3.433207">
        <ele>1413.962</ele>
        <time>2016-07-20T15:57:06Z</time>
      </trkpt>
      <trkpt lat="41.234824" lon="-3.433044">
        <ele>1415.988</ele>
        <time>2016-07-20T15:57:08Z</time>
      </trkpt>
      <trkpt lat="41.234745" lon="-3.432847">
        <ele>1419.034</ele>
        <time>2016-07-20T15:57:10Z</time>
      </trkpt>
      <trkpt lat="41.234660" lon="-3.432635">
        <ele>1421.999</ele>
        <time>2016-07-20T15:57:12Z</time>
      </trkpt>
      <trkpt lat="41.234616" lon="-3.432530">
        <ele>1423.142</ele>
        <time>2016-07-20T15:57:13Z</time>
      </trkpt>
      <trkpt lat="41.234529" lon="-3.432322">
        <ele>1425.032</ele>
        <time>2016-07-20T15:57:15Z</time>
      </trkpt>
      <trkpt lat="41.234440" lon="-3.432111">
        <ele>1426.250</ele>
        <time>2016-07-20T15:57:17Z</time>
      </trkpt>
      <trkpt lat="41.234351" lon="-3.431898">
        <ele>1427.037</ele>
        <time>2016-07-20T15:57:19Z</time>
      </trkpt>
      <trkpt lat="41.234301" lon="-3.431778">
        <ele>1427.449</ele>
        <time>2016-07-20T15:57:20Z</time>
      </trkpt>
      <trkpt lat="41.234255" lon="-3.431660">
        <ele>1428.013</ele>
        <time>2016-07-20T15:57:21Z</time>
      </trkpt>
      <trkpt lat="41.234214" lon="-3.431549">
        <ele>1428.808</ele>
        <time>2016-07-20T15:57:22Z</time>
      </trkpt>
      <trkpt lat="41.234183" lon="-3.431426">
        <ele>1429.644</ele>
        <time>2016-07-20T15:57:23Z</time>
      </trkpt>
      <trkpt lat="41.234157" lon="-3.431305">
        <ele>1430.547</ele>
        <time>2016-07-20T15:57:24Z</time>
      </trkpt>
      <trkpt lat="41.234137" lon="-3.431184">
        <ele>1431.443</ele>
        <time>2016-07-20T15:57:25Z</time>
      </trkpt>
      <trkpt lat="41.234138" lon="-3.431059">
        <ele>1432.039</ele>
        <time>2016-07-20T15:57:26Z</time>
      </trkpt>
      <trkpt lat="41.234146" lon="-3.430924">
        <ele>1432.784</ele>
        <time>2016-07-20T15:57:27Z</time>
      </trkpt>
      <trkpt lat="41.234158" lon="-3.430798">
        <ele>1433.617</ele>
        <time>2016-07-20T15:57:28Z</time>
      </trkpt>
      <trkpt lat="41.234174" lon="-3.430666">
        <ele>1434.587</ele>
        <time>2016-07-20T15:57:29Z</time>
      </trkpt>
      <trkpt lat="41.234196" lon="-3.430533">
        <ele>1435.755</ele>
        <time>2016-07-20T15:57:30Z</time>
      </trkpt>
      <trkpt lat="41.234224" lon="-3.430406">
        <ele>1436.877</ele>
        <time>2016-07-20T15:57:31Z</time>
      </trkpt>
      <trkpt lat="41.234254" lon="-3.430266">
        <ele>1437.861</ele>
        <time>2016-07-20T15:57:32Z</time>
      </trkpt>
      <trkpt lat="41.234284" lon="-3.430127">
        <ele>1438.627</ele>
        <time>2016-07-20T15:57:33Z</time>
      </trkpt>
      <trkpt lat="41.234315" lon="-3.429983">
        <ele>1439.208</ele>
        <time>2016-07-20T15:57:34Z</time>
      </trkpt>
      <trkpt lat="41.234346" lon="-3.429841">
        <ele>1439.888</ele>
        <time>2016-07-20T15:57:35Z</time>
      </trkpt>
      <trkpt lat="41.234377" lon="-3.429700">
        <ele>1440.491</ele>
        <time>2016-07-20T15:57:36Z</time>
      </trkpt>
      <trkpt lat="41.234410" lon="-3.429556">
        <ele>1440.957</ele>
        <time>2016-07-20T15:57:37Z</time>
      </trkpt>
      <trkpt lat="41.234447" lon="-3.429408">
        <ele>1441.573</ele>
        <time>2016-07-20T15:57:38Z</time>
      </trkpt>
      <trkpt lat="41.234484" lon="-3.429263">
        <ele>1442.448</ele>
        <time>2016-07-20T15:57:39Z</time>
      </trkpt>
      <trkpt lat="41.234522" lon="-3.429119">
        <ele>1443.221</ele>
        <time>2016-07-20T15:57:40Z</time>
      </trkpt>
      <trkpt lat="41.234557" lon="-3.428982">
        <ele>1444.151</ele>
        <time>2016-07-20T15:57:41Z</time>
      </trkpt>
      <trkpt lat="41.234594" lon="-3.428834">
        <ele>1444.999</ele>
        <time>2016-07-20T15:57:42Z</time>
      </trkpt>
      <trkpt lat="41.234625" lon="-3.428685">
        <ele>1445.891</ele>
        <time>2016-07-20T15:57:43Z</time>
      </trkpt>
      <trkpt lat="41.234654" lon="-3.428553">
        <ele>1446.781</ele>
        <time>2016-07-20T15:57:44Z</time>
      </trkpt>
      <trkpt lat="41.234685" lon="-3.428408">
        <ele>1447.619</ele>
        <time>2016-07-20T15:57:45Z</time>
      </trkpt>
      <trkpt lat="41.234716" lon="-3.428274">
        <ele>1448.508</ele>
        <time>2016-07-20T15:57:46Z</time>
      </trkpt>
      <trkpt lat="41.234750" lon="-3.428139">
        <ele>1449.420</ele>
        <time>2016-07-20T15:57:47Z</time>
      </trkpt>
      <trkpt lat="41.234784" lon="-3.428001">
        <ele>1450.393</ele>
        <time>2016-07-20T15:57:48Z</time>
      </trkpt>
      <trkpt lat="41.234851" lon="-3.427729">
        <ele>1452.559</ele>
        <time>2016-07-20T15:57:49Z</time>
      </trkpt>
      <trkpt lat="41.234881" lon="-3.427593">
        <ele>1453.545</ele>
        <time>2016-07-20T15:57:50Z</time>
      </trkpt>
      <trkpt lat="41.234938" lon="-3.427311">
        <ele>1454.510</ele>
        <time>2016-07-20T15:57:53Z</time>
      </trkpt>
      <trkpt lat="41.234963" lon="-3.427181">
        <ele>1454.923</ele>
        <time>2016-07-20T15:57:54Z</time>
      </trkpt>
      <trkpt lat="41.234983" lon="-3.427051">
        <ele>1455.263</ele>
        <time>2016-07-20T15:57:55Z</time>
      </trkpt>
      <trkpt lat="41.235001" lon="-3.426924">
        <ele>1455.781</ele>
        <time>2016-07-20T15:57:56Z</time>
      </trkpt>
      <trkpt lat="41.235035" lon="-3.426696">
        <ele>1457.632</ele>
        <time>2016-07-20T15:57:58Z</time>
      </trkpt>
      <trkpt lat="41.235054" lon="-3.426566">
        <ele>1458.792</ele>
        <time>2016-07-20T15:57:59Z</time>
      </trkpt>
      <trkpt lat="41.235085" lon="-3.426328">
        <ele>1461.111</ele>
        <time>2016-07-20T15:58:01Z</time>
      </trkpt>
      <trkpt lat="41.235052" lon="-3.426099">
        <ele>1463.608</ele>
        <time>2016-07-20T15:58:03Z</time>
      </trkpt>
      <trkpt lat="41.235019" lon="-3.425971">
        <ele>1464.874</ele>
        <time>2016-07-20T15:58:04Z</time>
      </trkpt>
      <trkpt lat="41.234907" lon="-3.425826">
        <ele>1467.727</ele>
        <time>2016-07-20T15:58:06Z</time>
      </trkpt>
      <trkpt lat="41.234756" lon="-3.425768">
        <ele>1469.733</ele>
        <time>2016-07-20T15:58:08Z</time>
      </trkpt>
      <trkpt lat="41.234584" lon="-3.425794">
        <ele>1470.629</ele>
        <time>2016-07-20T15:58:10Z</time>
      </trkpt>
      <trkpt lat="41.234462" lon="-3.425951">
        <ele>1470.314</ele>
        <time>2016-07-20T15:58:12Z</time>
      </trkpt>
      <trkpt lat="41.234434" lon="-3.426068">
        <ele>1470.127</ele>
        <time>2016-07-20T15:58:13Z</time>
      </trkpt>
      <trkpt lat="41.234391" lon="-3.426297">
        <ele>1470.387</ele>
        <time>2016-07-20T15:58:15Z</time>
      </trkpt>
      <trkpt lat="41.234357" lon="-3.426414">
        <ele>1470.465</ele>
        <time>2016-07-20T15:58:16Z</time>
      </trkpt>
      <trkpt lat="41.234316" lon="-3.426533">
        <ele>1470.894</ele>
        <time>2016-07-20T15:58:17Z</time>
      </trkpt>
      <trkpt lat="41.234254" lon="-3.426630">
        <ele>1471.357</ele>
        <time>2016-07-20T15:58:18Z</time>
      </trkpt>
      <trkpt lat="41.234188" lon="-3.426727">
        <ele>1471.822</ele>
        <time>2016-07-20T15:58:19Z</time>
      </trkpt>
      <trkpt lat="41.234112" lon="-3.426809">
        <ele>1472.108</ele>
        <time>2016-07-20T15:58:20Z</time>
      </trkpt>
      <trkpt lat="41.234036" lon="-3.426888">
        <ele>1472.060</ele>
        <time>2016-07-20T15:58:21Z</time>
      </trkpt>
      <trkpt lat="41.233954" lon="-3.426968">
        <ele>1471.993</ele>
        <time>2016-07-20T15:58:22Z</time>
      </trkpt>
      <trkpt lat="41.233869" lon="-3.427042">
        <ele>1471.749</ele>
        <time>2016-07-20T15:58:23Z</time>
      </trkpt>
      <trkpt lat="41.233783" lon="-3.427112">
        <ele>1471.525</ele>
        <time>2016-07-20T15:58:24Z</time>
      </trkpt>
      <trkpt lat="41.233618" lon="-3.427248">
        <ele>1471.070</ele>
        <time>2016-07-20T15:58:25Z</time>
      </trkpt>
      <trkpt lat="41.233539" lon="-3.427311">
        <ele>1470.613</ele>
        <time>2016-07-20T15:58:26Z</time>
      </trkpt>
      <trkpt lat="41.233387" lon="-3.427423">
        <ele>1470.073</ele>
        <time>2016-07-20T15:58:28Z</time>
      </trkpt>
      <trkpt lat="41.233224" lon="-3.427512">
        <ele>1470.041</ele>
        <time>2016-07-20T15:58:30Z</time>
      </trkpt>
      <trkpt lat="41.233053" lon="-3.427507">
        <ele>1470.816</ele>
        <time>2016-07-20T15:58:32Z</time>
      </trkpt>
      <trkpt lat="41.232896" lon="-3.427442">
        <ele>1471.776</ele>
        <time>2016-07-20T15:58:34Z</time>
      </trkpt>
      <trkpt lat="41.232739" lon="-3.427327">
        <ele>1473.113</ele>
        <time>2016-07-20T15:58:36Z</time>
      </trkpt>
      <trkpt lat="41.232659" lon="-3.427251">
        <ele>1473.808</ele>
        <time>2016-07-20T15:58:37Z</time>
      </trkpt>
      <trkpt lat="41.232579" lon="-3.427177">
        <ele>1474.722</ele>
        <time>2016-07-20T15:58:38Z</time>
      </trkpt>
      <trkpt lat="41.232495" lon="-3.427093">
        <ele>1475.795</ele>
        <time>2016-07-20T15:58:39Z</time>
      </trkpt>
      <trkpt lat="41.232412" lon="-3.427009">
        <ele>1476.951</ele>
        <time>2016-07-20T15:58:40Z</time>
      </trkpt>
      <trkpt lat="41.232333" lon="-3.426920">
        <ele>1478.117</ele>
        <time>2016-07-20T15:58:41Z</time>
      </trkpt>
      <trkpt lat="41.232246" lon="-3.426822">
        <ele>1479.342</ele>
        <time>2016-07-20T15:58:42Z</time>
      </trkpt>
      <trkpt lat="41.232170" lon="-3.426738">
        <ele>1480.525</ele>
        <time>2016-07-20T15:58:43Z</time>
      </trkpt>
      <trkpt lat="41.232091" lon="-3.426645">
        <ele>1482.185</ele>
        <time>2016-07-20T15:58:44Z</time>
      </trkpt>
      <trkpt lat="41.232007" lon="-3.426545">
        <ele>1483.853</ele>
        <time>2016-07-20T15:58:45Z</time>
      </trkpt>
      <trkpt lat="41.231920" lon="-3.426435">
        <ele>1485.418</ele>
        <time>2016-07-20T15:58:46Z</time>
      </trkpt>
      <trkpt lat="41.231837" lon="-3.426331">
        <ele>1486.898</ele>
        <time>2016-07-20T15:58:47Z</time>
      </trkpt>
      <trkpt lat="41.231757" lon="-3.426226">
        <ele>1488.117</ele>
        <time>2016-07-20T15:58:49Z</time>
      </trkpt>
      <trkpt lat="41.231681" lon="-3.426118">
        <ele>1489.408</ele>
        <time>2016-07-20T15:58:50Z</time>
      </trkpt>
      <trkpt lat="41.231607" lon="-3.425996">
        <ele>1490.562</ele>
        <time>2016-07-20T15:58:51Z</time>
      </trkpt>
      <trkpt lat="41.231536" lon="-3.425877">
        <ele>1491.625</ele>
        <time>2016-07-20T15:58:52Z</time>
      </trkpt>
      <trkpt lat="41.231467" lon="-3.425760">
        <ele>1492.541</ele>
        <time>2016-07-20T15:58:53Z</time>
      </trkpt>
      <trkpt lat="41.231406" lon="-3.425649">
        <ele>1493.447</ele>
        <time>2016-07-20T15:58:54Z</time>
      </trkpt>
      <trkpt lat="41.231339" lon="-3.425540">
        <ele>1494.352</ele>
        <time>2016-07-20T15:58:55Z</time>
      </trkpt>
      <trkpt lat="41.231279" lon="-3.425432">
        <ele>1495.285</ele>
        <time>2016-07-20T15:58:56Z</time>
      </trkpt>
      <trkpt lat="41.231223" lon="-3.425322">
        <ele>1496.135</ele>
        <time>2016-07-20T15:58:57Z</time>
      </trkpt>
      <trkpt lat="41.231171" lon="-3.425210">
        <ele>1497.073</ele>
        <time>2016-07-20T15:58:58Z</time>
      </trkpt>
      <trkpt lat="41.231123" lon="-3.425087">
        <ele>1497.618</ele>
        <time>2016-07-20T15:58:59Z</time>
      </trkpt>
      <trkpt lat="41.231077" lon="-3.424968">
        <ele>1498.298</ele>
        <time>2016-07-20T15:59:00Z</time>
      </trkpt>
      <trkpt lat="41.231032" lon="-3.424846">
        <ele>1498.617</ele>
        <time>2016-07-20T15:59:01Z</time>
      </trkpt>
      <trkpt lat="41.230988" lon="-3.424728">
        <ele>1499.108</ele>
        <time>2016-07-20T15:59:02Z</time>
      </trkpt>
      <trkpt lat="41.230949" lon="-3.424618">
        <ele>1499.722</ele>
        <time>2016-07-20T15:59:03Z</time>
      </trkpt>
      <trkpt lat="41.230878" lon="-3.424412">
        <ele>1501.765</ele>
        <time>2016-07-20T15:59:05Z</time>
      </trkpt>
      <trkpt lat="41.230839" lon="-3.424296">
        <ele>1502.911</ele>
        <time>2016-07-20T15:59:06Z</time>
      </trkpt>
      <trkpt lat="41.230794" lon="-3.424177">
        <ele>1503.987</ele>
        <time>2016-07-20T15:59:07Z</time>
      </trkpt>
      <trkpt lat="41.230750" lon="-3.424059">
        <ele>1504.692</ele>
        <time>2016-07-20T15:59:08Z</time>
      </trkpt>
      <trkpt lat="41.230703" lon="-3.423939">
        <ele>1504.855</ele>
        <time>2016-07-20T15:59:09Z</time>
      </trkpt>
      <trkpt lat="41.230657" lon="-3.423822">
        <ele>1505.585</ele>
        <time>2016-07-20T15:59:10Z</time>
      </trkpt>
      <trkpt lat="41.230606" lon="-3.423714">
        <ele>1506.083</ele>
        <time>2016-07-20T15:59:11Z</time>
      </trkpt>
      <trkpt lat="41.230471" lon="-3.423554">
        <ele>1507.612</ele>
        <time>2016-07-20T15:59:13Z</time>
      </trkpt>
      <trkpt lat="41.230328" lon="-3.423463">
        <ele>1510.132</ele>
        <time>2016-07-20T15:59:15Z</time>
      </trkpt>
      <trkpt lat="41.230078" lon="-3.423358">
        <ele>1512.905</ele>
        <time>2016-07-20T15:59:18Z</time>
      </trkpt>
      <trkpt lat="41.229932" lon="-3.423231">
        <ele>1514.908</ele>
        <time>2016-07-20T15:59:21Z</time>
      </trkpt>
      <trkpt lat="41.229802" lon="-3.423096">
        <ele>1517.712</ele>
        <time>2016-07-20T15:59:23Z</time>
      </trkpt>
      <trkpt lat="41.229685" lon="-3.422915">
        <ele>1520.355</ele>
        <time>2016-07-20T15:59:25Z</time>
      </trkpt>
      <trkpt lat="41.229624" lon="-3.422823">
        <ele>1520.651</ele>
        <time>2016-07-20T15:59:26Z</time>
      </trkpt>
      <trkpt lat="41.229563" lon="-3.422724">
        <ele>1520.567</ele>
        <time>2016-07-20T15:59:27Z</time>
      </trkpt>
      <trkpt lat="41.229512" lon="-3.422620">
        <ele>1521.312</ele>
        <time>2016-07-20T15:59:28Z</time>
      </trkpt>
      <trkpt lat="41.229460" lon="-3.422517">
        <ele>1521.755</ele>
        <time>2016-07-20T15:59:29Z</time>
      </trkpt>
      <trkpt lat="41.229409" lon="-3.422402">
        <ele>1522.135</ele>
        <time>2016-07-20T15:59:30Z</time>
      </trkpt>
      <trkpt lat="41.229366" lon="-3.422288">
        <ele>1522.853</ele>
        <time>2016-07-20T15:59:31Z</time>
      </trkpt>
      <trkpt lat="41.229345" lon="-3.422170">
        <ele>1523.621</ele>
        <time>2016-07-20T15:59:32Z</time>
      </trkpt>
      <trkpt lat="41.229347" lon="-3.422036">
        <ele>1524.441</ele>
        <time>2016-07-20T15:59:33Z</time>
      </trkpt>
      <trkpt lat="41.229348" lon="-3.421896">
        <ele>1525.605</ele>
        <time>2016-07-20T15:59:34Z</time>
      </trkpt>
      <trkpt lat="41.229348" lon="-3.421758">
        <ele>1527.208</ele>
        <time>2016-07-20T15:59:35Z</time>
      </trkpt>
      <trkpt lat="41.229338" lon="-3.421639">
        <ele>1528.433</ele>
        <time>2016-07-20T15:59:36Z</time>
      </trkpt>
      <trkpt lat="41.229180" lon="-3.421373">
        <ele>1532.786</ele>
        <time>2016-07-20T15:59:38Z</time>
      </trkpt>
      <trkpt lat="41.229019" lon="-3.421279">
        <ele>1534.322</ele>
        <time>2016-07-20T15:59:40Z</time>
      </trkpt>
      <trkpt lat="41.228877" lon="-3.421152">
        <ele>1534.968</ele>
        <time>2016-07-20T15:59:43Z</time>
      </trkpt>
      <trkpt lat="41.228804" lon="-3.421042">
        <ele>1534.913</ele>
        <time>2016-07-20T15:59:44Z</time>
      </trkpt>
      <trkpt lat="41.228725" lon="-3.420929">
        <ele>1534.756</ele>
        <time>2016-07-20T15:59:45Z</time>
      </trkpt>
      <trkpt lat="41.228649" lon="-3.420815">
        <ele>1534.746</ele>
        <time>2016-07-20T15:59:46Z</time>
      </trkpt>
      <trkpt lat="41.228572" lon="-3.420694">
        <ele>1534.984</ele>
        <time>2016-07-20T15:59:47Z</time>
      </trkpt>
      <trkpt lat="41.228498" lon="-3.420564">
        <ele>1534.947</ele>
        <time>2016-07-20T15:59:48Z</time>
      </trkpt>
      <trkpt lat="41.228423" lon="-3.420430">
        <ele>1535.029</ele>
        <time>2016-07-20T15:59:49Z</time>
      </trkpt>
      <trkpt lat="41.228354" lon="-3.420294">
        <ele>1535.321</ele>
        <time>2016-07-20T15:59:50Z</time>
      </trkpt>
      <trkpt lat="41.228291" lon="-3.420154">
        <ele>1535.808</ele>
        <time>2016-07-20T15:59:51Z</time>
      </trkpt>
      <trkpt lat="41.228238" lon="-3.420012">
        <ele>1536.675</ele>
        <time>2016-07-20T15:59:52Z</time>
      </trkpt>
      <trkpt lat="41.228181" lon="-3.419866">
        <ele>1537.028</ele>
        <time>2016-07-20T15:59:53Z</time>
      </trkpt>
      <trkpt lat="41.228123" lon="-3.419728">
        <ele>1537.614</ele>
        <time>2016-07-20T15:59:54Z</time>
      </trkpt>
      <trkpt lat="41.228054" lon="-3.419612">
        <ele>1538.950</ele>
        <time>2016-07-20T15:59:55Z</time>
      </trkpt>
      <trkpt lat="41.227986" lon="-3.419498">
        <ele>1540.475</ele>
        <time>2016-07-20T15:59:56Z</time>
      </trkpt>
      <trkpt lat="41.227913" lon="-3.419382">
        <ele>1541.888</ele>
        <time>2016-07-20T15:59:57Z</time>
      </trkpt>
      <trkpt lat="41.227838" lon="-3.419267">
        <ele>1542.988</ele>
        <time>2016-07-20T15:59:58Z</time>
      </trkpt>
      <trkpt lat="41.227756" lon="-3.419150">
        <ele>1543.926</ele>
        <time>2016-07-20T15:59:59Z</time>
      </trkpt>
      <trkpt lat="41.227673" lon="-3.419035">
        <ele>1544.945</ele>
        <time>2016-07-20T16:00:00Z</time>
      </trkpt>
      <trkpt lat="41.227592" lon="-3.418915">
        <ele>1545.947</ele>
        <time>2016-07-20T16:00:01Z</time>
      </trkpt>
      <trkpt lat="41.227524" lon="-3.418800">
        <ele>1547.211</ele>
        <time>2016-07-20T16:00:02Z</time>
      </trkpt>
      <trkpt lat="41.227482" lon="-3.418666">
        <ele>1548.708</ele>
        <time>2016-07-20T16:00:03Z</time>
      </trkpt>
      <trkpt lat="41.227443" lon="-3.418535">
        <ele>1550.375</ele>
        <time>2016-07-20T16:00:04Z</time>
      </trkpt>
      <trkpt lat="41.227418" lon="-3.418417">
        <ele>1552.188</ele>
        <time>2016-07-20T16:00:05Z</time>
      </trkpt>
      <trkpt lat="41.227413" lon="-3.418186">
        <ele>1554.494</ele>
        <time>2016-07-20T16:00:07Z</time>
      </trkpt>
      <trkpt lat="41.227439" lon="-3.418066">
        <ele>1555.380</ele>
        <time>2016-07-20T16:00:08Z</time>
      </trkpt>
      <trkpt lat="41.227479" lon="-3.417942">
        <ele>1556.325</ele>
        <time>2016-07-20T16:00:09Z</time>
      </trkpt>
      <trkpt lat="41.227524" lon="-3.417821">
        <ele>1557.438</ele>
        <time>2016-07-20T16:00:10Z</time>
      </trkpt>
      <trkpt lat="41.227567" lon="-3.417700">
        <ele>1559.018</ele>
        <time>2016-07-20T16:00:11Z</time>
      </trkpt>
      <trkpt lat="41.227607" lon="-3.417564">
        <ele>1560.256</ele>
        <time>2016-07-20T16:00:12Z</time>
      </trkpt>
      <trkpt lat="41.227639" lon="-3.417428">
        <ele>1560.781</ele>
        <time>2016-07-20T16:00:13Z</time>
      </trkpt>
      <trkpt lat="41.227671" lon="-3.417300">
        <ele>1560.961</ele>
        <time>2016-07-20T16:00:14Z</time>
      </trkpt>
      <trkpt lat="41.227698" lon="-3.417177">
        <ele>1561.117</ele>
        <time>2016-07-20T16:00:15Z</time>
      </trkpt>
      <trkpt lat="41.227701" lon="-3.417050">
        <ele>1561.208</ele>
        <time>2016-07-20T16:00:16Z</time>
      </trkpt>
      <trkpt lat="41.227628" lon="-3.416826">
        <ele>1562.629</ele>
        <time>2016-07-20T16:00:18Z</time>
      </trkpt>
      <trkpt lat="41.227555" lon="-3.416743">
        <ele>1563.852</ele>
        <time>2016-07-20T16:00:19Z</time>
      </trkpt>
      <trkpt lat="41.227477" lon="-3.416673">
        <ele>1564.858</ele>
        <time>2016-07-20T16:00:20Z</time>
      </trkpt>
      <trkpt lat="41.227385" lon="-3.416616">
        <ele>1565.454</ele>
        <time>2016-07-20T16:00:21Z</time>
      </trkpt>
      <trkpt lat="41.227275" lon="-3.416546">
        <ele>1565.739</ele>
        <time>2016-07-20T16:00:22Z</time>
      </trkpt>
      <trkpt lat="41.227174" lon="-3.416479">
        <ele>1566.332</ele>
        <time>2016-07-20T16:00:23Z</time>
      </trkpt>
      <trkpt lat="41.227072" lon="-3.416396">
        <ele>1566.772</ele>
        <time>2016-07-20T16:00:24Z</time>
      </trkpt>
      <trkpt lat="41.226985" lon="-3.416268">
        <ele>1567.010</ele>
        <time>2016-07-20T16:00:25Z</time>
      </trkpt>
      <trkpt lat="41.226900" lon="-3.416131">
        <ele>1567.261</ele>
        <time>2016-07-20T16:00:26Z</time>
      </trkpt>
      <trkpt lat="41.226830" lon="-3.416005">
        <ele>1567.421</ele>
        <time>2016-07-20T16:00:27Z</time>
      </trkpt>
      <trkpt lat="41.226764" lon="-3.415895">
        <ele>1567.713</ele>
        <time>2016-07-20T16:00:28Z</time>
      </trkpt>
      <trkpt lat="41.226666" lon="-3.415818">
        <ele>1567.708</ele>
        <time>2016-07-20T16:00:29Z</time>
      </trkpt>
      <trkpt lat="41.226564" lon="-3.415802">
        <ele>1567.897</ele>
        <time>2016-07-20T16:00:30Z</time>
      </trkpt>
      <trkpt lat="41.226460" lon="-3.415813">
        <ele>1568.120</ele>
        <time>2016-07-20T16:00:31Z</time>
      </trkpt>
      <trkpt lat="41.226359" lon="-3.415827">
        <ele>1568.516</ele>
        <time>2016-07-20T16:00:32Z</time>
      </trkpt>
      <trkpt lat="41.226260" lon="-3.415835">
        <ele>1569.212</ele>
        <time>2016-07-20T16:00:33Z</time>
      </trkpt>
      <trkpt lat="41.226158" lon="-3.415838">
        <ele>1570.087</ele>
        <time>2016-07-20T16:00:34Z</time>
      </trkpt>
      <trkpt lat="41.226059" lon="-3.415793">
        <ele>1571.290</ele>
        <time>2016-07-20T16:00:35Z</time>
      </trkpt>
      <trkpt lat="41.225981" lon="-3.415728">
        <ele>1572.760</ele>
        <time>2016-07-20T16:00:36Z</time>
      </trkpt>
      <trkpt lat="41.225908" lon="-3.415626">
        <ele>1574.228</ele>
        <time>2016-07-20T16:00:37Z</time>
      </trkpt>
      <trkpt lat="41.225855" lon="-3.415495">
        <ele>1575.637</ele>
        <time>2016-07-20T16:00:38Z</time>
      </trkpt>
      <trkpt lat="41.225810" lon="-3.415365">
        <ele>1577.149</ele>
        <time>2016-07-20T16:00:39Z</time>
      </trkpt>
      <trkpt lat="41.225796" lon="-3.415216">
        <ele>1578.113</ele>
        <time>2016-07-20T16:00:40Z</time>
      </trkpt>
      <trkpt lat="41.225794" lon="-3.415067">
        <ele>1579.308</ele>
        <time>2016-07-20T16:00:41Z</time>
      </trkpt>
      <trkpt lat="41.225825" lon="-3.414915">
        <ele>1580.574</ele>
        <time>2016-07-20T16:00:42Z</time>
      </trkpt>
      <trkpt lat="41.225861" lon="-3.414747">
        <ele>1581.737</ele>
        <time>2016-07-20T16:00:43Z</time>
      </trkpt>
      <trkpt lat="41.225901" lon="-3.414571">
        <ele>1582.853</ele>
        <time>2016-07-20T16:00:44Z</time>
      </trkpt>
      <trkpt lat="41.225943" lon="-3.414392">
        <ele>1583.879</ele>
        <time>2016-07-20T16:00:45Z</time>
      </trkpt>
      <trkpt lat="41.225985" lon="-3.414214">
        <ele>1584.594</ele>
        <time>2016-07-20T16:00:46Z</time>
      </trkpt>
      <trkpt lat="41.226027" lon="-3.414040">
        <ele>1585.277</ele>
        <time>2016-07-20T16:00:47Z</time>
      </trkpt>
      <trkpt lat="41.226110" lon="-3.413698">
        <ele>1586.937</ele>
        <time>2016-07-20T16:00:48Z</time>
      </trkpt>
      <trkpt lat="41.226147" lon="-3.413512">
        <ele>1588.285</ele>
        <time>2016-07-20T16:00:49Z</time>
      </trkpt>
      <trkpt lat="41.226158" lon="-3.413322">
        <ele>1589.838</ele>
        <time>2016-07-20T16:00:50Z</time>
      </trkpt>
      <trkpt lat="41.226166" lon="-3.413141">
        <ele>1591.670</ele>
        <time>2016-07-20T16:00:51Z</time>
      </trkpt>
      <trkpt lat="41.226167" lon="-3.412973">
        <ele>1593.317</ele>
        <time>2016-07-20T16:00:52Z</time>
      </trkpt>
      <trkpt lat="41.226167" lon="-3.412798">
        <ele>1595.008</ele>
        <time>2016-07-20T16:00:53Z</time>
      </trkpt>
      <trkpt lat="41.226162" lon="-3.412651">
        <ele>1596.874</ele>
        <time>2016-07-20T16:00:54Z</time>
      </trkpt>
      <trkpt lat="41.226130" lon="-3.412535">
        <ele>1598.397</ele>
        <time>2016-07-20T16:00:55Z</time>
      </trkpt>
      <trkpt lat="41.225994" lon="-3.412403">
        <ele>1600.893</ele>
        <time>2016-07-20T16:00:57Z</time>
      </trkpt>
      <trkpt lat="41.225836" lon="-3.412404">
        <ele>1602.369</ele>
        <time>2016-07-20T16:00:59Z</time>
      </trkpt>
      <trkpt lat="41.225694" lon="-3.412510">
        <ele>1602.684</ele>
        <time>2016-07-20T16:01:01Z</time>
      </trkpt>
      <trkpt lat="41.225615" lon="-3.412579">
        <ele>1602.557</ele>
        <time>2016-07-20T16:01:02Z</time>
      </trkpt>
      <trkpt lat="41.225535" lon="-3.412657">
        <ele>1602.527</ele>
        <time>2016-07-20T16:01:03Z</time>
      </trkpt>
      <trkpt lat="41.225446" lon="-3.412743">
        <ele>1602.375</ele>
        <time>2016-07-20T16:01:04Z</time>
      </trkpt>
      <trkpt lat="41.225340" lon="-3.412833">
        <ele>1602.348</ele>
        <time>2016-07-20T16:01:05Z</time>
      </trkpt>
      <trkpt lat="41.225223" lon="-3.412911">
        <ele>1601.861</ele>
        <time>2016-07-20T16:01:06Z</time>
      </trkpt>
      <trkpt lat="41.225106" lon="-3.412985">
        <ele>1601.717</ele>
        <time>2016-07-20T16:01:07Z</time>
      </trkpt>
      <trkpt lat="41.224985" lon="-3.413063">
        <ele>1601.408</ele>
        <time>2016-07-20T16:01:08Z</time>
      </trkpt>
      <trkpt lat="41.224864" lon="-3.413146">
        <ele>1600.895</ele>
        <time>2016-07-20T16:01:09Z</time>
      </trkpt>
      <trkpt lat="41.224739" lon="-3.413224">
        <ele>1600.178</ele>
        <time>2016-07-20T16:01:10Z</time>
      </trkpt>
      <trkpt lat="41.224617" lon="-3.413305">
        <ele>1600.054</ele>
        <time>2016-07-20T16:01:11Z</time>
      </trkpt>
      <trkpt lat="41.224499" lon="-3.413390">
        <ele>1600.190</ele>
        <time>2016-07-20T16:01:12Z</time>
      </trkpt>
      <trkpt lat="41.224381" lon="-3.413479">
        <ele>1600.245</ele>
        <time>2016-07-20T16:01:13Z</time>
      </trkpt>
      <trkpt lat="41.224273" lon="-3.413566">
        <ele>1600.338</ele>
        <time>2016-07-20T16:01:14Z</time>
      </trkpt>
      <trkpt lat="41.224167" lon="-3.413596">
        <ele>1601.238</ele>
        <time>2016-07-20T16:01:15Z</time>
      </trkpt>
      <trkpt lat="41.224058" lon="-3.413611">
        <ele>1602.596</ele>
        <time>2016-07-20T16:01:16Z</time>
      </trkpt>
      <trkpt lat="41.223950" lon="-3.413586">
        <ele>1604.065</ele>
        <time>2016-07-20T16:01:17Z</time>
      </trkpt>
      <trkpt lat="41.223838" lon="-3.413551">
        <ele>1605.668</ele>
        <time>2016-07-20T16:01:18Z</time>
      </trkpt>
      <trkpt lat="41.223721" lon="-3.413484">
        <ele>1606.914</ele>
        <time>2016-07-20T16:01:19Z</time>
      </trkpt>
      <trkpt lat="41.223594" lon="-3.413407">
        <ele>1608.108</ele>
        <time>2016-07-20T16:01:20Z</time>
      </trkpt>
      <trkpt lat="41.223476" lon="-3.413334">
        <ele>1609.497</ele>
        <time>2016-07-20T16:01:21Z</time>
      </trkpt>
      <trkpt lat="41.223351" lon="-3.413253">
        <ele>1610.440</ele>
        <time>2016-07-20T16:01:22Z</time>
      </trkpt>
      <trkpt lat="41.223232" lon="-3.413164">
        <ele>1611.236</ele>
        <time>2016-07-20T16:01:23Z</time>
      </trkpt>
      <trkpt lat="41.223105" lon="-3.413070">
        <ele>1611.782</ele>
        <time>2016-07-20T16:01:24Z</time>
      </trkpt>
      <trkpt lat="41.222982" lon="-3.412973">
        <ele>1612.037</ele>
        <time>2016-07-20T16:01:25Z</time>
      </trkpt>
      <trkpt lat="41.222861" lon="-3.412878">
        <ele>1612.610</ele>
        <time>2016-07-20T16:01:26Z</time>
      </trkpt>
      <trkpt lat="41.222744" lon="-3.412781">
        <ele>1613.260</ele>
        <time>2016-07-20T16:01:27Z</time>
      </trkpt>
      <trkpt lat="41.222621" lon="-3.412680">
        <ele>1613.698</ele>
        <time>2016-07-20T16:01:28Z</time>
      </trkpt>
      <trkpt lat="41.222514" lon="-3.412592">
        <ele>1614.915</ele>
        <time>2016-07-20T16:01:29Z</time>
      </trkpt>
      <trkpt lat="41.222410" lon="-3.412496">
        <ele>1616.765</ele>
        <time>2016-07-20T16:01:30Z</time>
      </trkpt>
      <trkpt lat="41.222310" lon="-3.412396">
        <ele>1619.211</ele>
        <time>2016-07-20T16:01:31Z</time>
      </trkpt>
      <trkpt lat="41.222227" lon="-3.412273">
        <ele>1621.808</ele>
        <time>2016-07-20T16:01:32Z</time>
      </trkpt>
      <trkpt lat="41.222142" lon="-3.412140">
        <ele>1624.292</ele>
        <time>2016-07-20T16:01:33Z</time>
      </trkpt>
      <trkpt lat="41.222091" lon="-3.411995">
        <ele>1626.355</ele>
        <time>2016-07-20T16:01:34Z</time>
      </trkpt>
      <trkpt lat="41.222050" lon="-3.411849">
        <ele>1628.231</ele>
        <time>2016-07-20T16:01:35Z</time>
      </trkpt>
      <trkpt lat="41.222028" lon="-3.411670">
        <ele>1630.127</ele>
        <time>2016-07-20T16:01:36Z</time>
      </trkpt>
      <trkpt lat="41.222010" lon="-3.411498">
        <ele>1632.062</ele>
        <time>2016-07-20T16:01:37Z</time>
      </trkpt>
      <trkpt lat="41.221995" lon="-3.411337">
        <ele>1633.965</ele>
        <time>2016-07-20T16:01:38Z</time>
      </trkpt>
      <trkpt lat="41.221979" lon="-3.411166">
        <ele>1635.855</ele>
        <time>2016-07-20T16:01:39Z</time>
      </trkpt>
      <trkpt lat="41.221955" lon="-3.411004">
        <ele>1637.583</ele>
        <time>2016-07-20T16:01:40Z</time>
      </trkpt>
      <trkpt lat="41.221917" lon="-3.410830">
        <ele>1639.142</ele>
        <time>2016-07-20T16:01:41Z</time>
      </trkpt>
      <trkpt lat="41.221878" lon="-3.410660">
        <ele>1640.422</ele>
        <time>2016-07-20T16:01:42Z</time>
      </trkpt>
      <trkpt lat="41.221843" lon="-3.410500">
        <ele>1641.314</ele>
        <time>2016-07-20T16:01:43Z</time>
      </trkpt>
      <trkpt lat="41.221811" lon="-3.410355">
        <ele>1641.908</ele>
        <time>2016-07-20T16:01:45Z</time>
      </trkpt>
      <trkpt lat="41.221755" lon="-3.410134">
        <ele>1643.355</ele>
        <time>2016-07-20T16:01:47Z</time>
      </trkpt>
      <trkpt lat="41.221685" lon="-3.409959">
        <ele>1644.578</ele>
        <time>2016-07-20T16:01:49Z</time>
      </trkpt>
      <trkpt lat="41.221568" lon="-3.409846">
        <ele>1645.064</ele>
        <time>2016-07-20T16:01:51Z</time>
      </trkpt>
      <trkpt lat="41.221448" lon="-3.409785">
        <ele>1646.220</ele>
        <time>2016-07-20T16:01:53Z</time>
      </trkpt>
      <trkpt lat="41.221317" lon="-3.409771">
        <ele>1647.245</ele>
        <time>2016-07-20T16:01:55Z</time>
      </trkpt>
      <trkpt lat="41.221149" lon="-3.409778">
        <ele>1646.868</ele>
        <time>2016-07-20T16:01:57Z</time>
      </trkpt>
      <trkpt lat="41.221063" lon="-3.409813">
        <ele>1646.668</ele>
        <time>2016-07-20T16:01:58Z</time>
      </trkpt>
      <trkpt lat="41.220896" lon="-3.409895">
        <ele>1646.946</ele>
        <time>2016-07-20T16:02:00Z</time>
      </trkpt>
      <trkpt lat="41.220811" lon="-3.409942">
        <ele>1647.695</ele>
        <time>2016-07-20T16:02:01Z</time>
      </trkpt>
      <trkpt lat="41.220659" lon="-3.410089">
        <ele>1649.449</ele>
        <time>2016-07-20T16:02:02Z</time>
      </trkpt>
      <trkpt lat="41.220581" lon="-3.410176">
        <ele>1650.123</ele>
        <time>2016-07-20T16:02:03Z</time>
      </trkpt>
      <trkpt lat="41.220498" lon="-3.410270">
        <ele>1650.908</ele>
        <time>2016-07-20T16:02:04Z</time>
      </trkpt>
      <trkpt lat="41.220416" lon="-3.410362">
        <ele>1651.440</ele>
        <time>2016-07-20T16:02:05Z</time>
      </trkpt>
      <trkpt lat="41.220337" lon="-3.410461">
        <ele>1652.263</ele>
        <time>2016-07-20T16:02:06Z</time>
      </trkpt>
      <trkpt lat="41.220260" lon="-3.410568">
        <ele>1652.739</ele>
        <time>2016-07-20T16:02:07Z</time>
      </trkpt>
      <trkpt lat="41.220188" lon="-3.410661">
        <ele>1653.185</ele>
        <time>2016-07-20T16:02:08Z</time>
      </trkpt>
      <trkpt lat="41.220115" lon="-3.410738">
        <ele>1653.330</ele>
        <time>2016-07-20T16:02:09Z</time>
      </trkpt>
      <trkpt lat="41.220032" lon="-3.410787">
        <ele>1653.583</ele>
        <time>2016-07-20T16:02:10Z</time>
      </trkpt>
      <trkpt lat="41.219939" lon="-3.410826">
        <ele>1654.613</ele>
        <time>2016-07-20T16:02:11Z</time>
      </trkpt>
      <trkpt lat="41.219842" lon="-3.410863">
        <ele>1655.441</ele>
        <time>2016-07-20T16:02:12Z</time>
      </trkpt>
      <trkpt lat="41.219746" lon="-3.410890">
        <ele>1656.595</ele>
        <time>2016-07-20T16:02:13Z</time>
      </trkpt>
      <trkpt lat="41.219648" lon="-3.410882">
        <ele>1657.449</ele>
        <time>2016-07-20T16:02:14Z</time>
      </trkpt>
      <trkpt lat="41.219550" lon="-3.410868">
        <ele>1658.323</ele>
        <time>2016-07-20T16:02:15Z</time>
      </trkpt>
      <trkpt lat="41.219455" lon="-3.410856">
        <ele>1659.208</ele>
        <time>2016-07-20T16:02:16Z</time>
      </trkpt>
      <trkpt lat="41.219298" lon="-3.410835">
        <ele>1661.010</ele>
        <time>2016-07-20T16:02:18Z</time>
      </trkpt>
      <trkpt lat="41.219190" lon="-3.410820">
        <ele>1662.623</ele>
        <time>2016-07-20T16:02:20Z</time>
      </trkpt>
      <trkpt lat="41.219098" lon="-3.410803">
        <ele>1664.299</ele>
        <time>2016-07-20T16:02:22Z</time>
      </trkpt>
      <trkpt lat="41.218998" lon="-3.410788">
        <ele>1666.015</ele>
        <time>2016-07-20T16:02:24Z</time>
      </trkpt>
      <trkpt lat="41.218867" lon="-3.410755">
        <ele>1666.750</ele>
        <time>2016-07-20T16:02:26Z</time>
      </trkpt>
      <trkpt lat="41.218708" lon="-3.410689">
        <ele>1667.823</ele>
        <time>2016-07-20T16:02:28Z</time>
      </trkpt>
      <trkpt lat="41.218535" lon="-3.410629">
        <ele>1669.113</ele>
        <time>2016-07-20T16:02:30Z</time>
      </trkpt>
      <trkpt lat="41.218378" lon="-3.410568">
        <ele>1670.511</ele>
        <time>2016-07-20T16:02:32Z</time>
      </trkpt>
      <trkpt lat="41.218247" lon="-3.410512">
        <ele>1670.886</ele>
        <time>2016-07-20T16:02:34Z</time>
      </trkpt>
      <trkpt lat="41.218119" lon="-3.410443">
        <ele>1671.360</ele>
        <time>2016-07-20T16:02:36Z</time>
      </trkpt>
      <trkpt lat="41.217979" lon="-3.410348">
        <ele>1672.626</ele>
        <time>2016-07-20T16:02:38Z</time>
      </trkpt>
      <trkpt lat="41.217846" lon="-3.410226">
        <ele>1674.308</ele>
        <time>2016-07-20T16:02:40Z</time>
      </trkpt>
      <trkpt lat="41.217771" lon="-3.410138">
        <ele>1675.179</ele>
        <time>2016-07-20T16:02:41Z</time>
      </trkpt>
      <trkpt lat="41.217695" lon="-3.410045">
        <ele>1675.912</ele>
        <time>2016-07-20T16:02:42Z</time>
      </trkpt>
      <trkpt lat="41.217622" lon="-3.409955">
        <ele>1676.778</ele>
        <time>2016-07-20T16:02:43Z</time>
      </trkpt>
      <trkpt lat="41.217542" lon="-3.409862">
        <ele>1677.544</ele>
        <time>2016-07-20T16:02:44Z</time>
      </trkpt>
      <trkpt lat="41.217455" lon="-3.409786">
        <ele>1678.439</ele>
        <time>2016-07-20T16:02:45Z</time>
      </trkpt>
      <trkpt lat="41.217366" lon="-3.409707">
        <ele>1679.392</ele>
        <time>2016-07-20T16:02:46Z</time>
      </trkpt>
      <trkpt lat="41.217276" lon="-3.409635">
        <ele>1679.962</ele>
        <time>2016-07-20T16:02:47Z</time>
      </trkpt>
      <trkpt lat="41.217178" lon="-3.409568">
        <ele>1680.510</ele>
        <time>2016-07-20T16:02:48Z</time>
      </trkpt>
      <trkpt lat="41.217074" lon="-3.409521">
        <ele>1681.176</ele>
        <time>2016-07-20T16:02:49Z</time>
      </trkpt>
      <trkpt lat="41.216969" lon="-3.409477">
        <ele>1681.590</ele>
        <time>2016-07-20T16:02:50Z</time>
      </trkpt>
      <trkpt lat="41.216873" lon="-3.409443">
        <ele>1681.919</ele>
        <time>2016-07-20T16:02:51Z</time>
      </trkpt>
      <trkpt lat="41.216785" lon="-3.409412">
        <ele>1682.208</ele>
        <time>2016-07-20T16:02:52Z</time>
      </trkpt>
      <trkpt lat="41.216607" lon="-3.409406">
        <ele>1682.888</ele>
        <time>2016-07-20T16:02:54Z</time>
      </trkpt>
      <trkpt lat="41.216501" lon="-3.409500">
        <ele>1682.041</ele>
        <time>2016-07-20T16:02:56Z</time>
      </trkpt>
      <trkpt lat="41.216439" lon="-3.409661">
        <ele>1680.527</ele>
        <time>2016-07-20T16:02:58Z</time>
      </trkpt>
      <trkpt lat="41.216438" lon="-3.409792">
        <ele>1680.733</ele>
        <time>2016-07-20T16:02:59Z</time>
      </trkpt>
      <trkpt lat="41.216450" lon="-3.410015">
        <ele>1681.358</ele>
        <time>2016-07-20T16:03:01Z</time>
      </trkpt>
      <trkpt lat="41.216463" lon="-3.410140">
        <ele>1682.261</ele>
        <time>2016-07-20T16:03:02Z</time>
      </trkpt>
      <trkpt lat="41.216487" lon="-3.410259">
        <ele>1683.171</ele>
        <time>2016-07-20T16:03:03Z</time>
      </trkpt>
      <trkpt lat="41.216512" lon="-3.410386">
        <ele>1683.329</ele>
        <time>2016-07-20T16:03:04Z</time>
      </trkpt>
      <trkpt lat="41.216520" lon="-3.410528">
        <ele>1683.817</ele>
        <time>2016-07-20T16:03:05Z</time>
      </trkpt>
      <trkpt lat="41.216498" lon="-3.410662">
        <ele>1684.587</ele>
        <time>2016-07-20T16:03:06Z</time>
      </trkpt>
      <trkpt lat="41.216468" lon="-3.410794">
        <ele>1685.415</ele>
        <time>2016-07-20T16:03:07Z</time>
      </trkpt>
      <trkpt lat="41.216437" lon="-3.410919">
        <ele>1686.208</ele>
        <time>2016-07-20T16:03:08Z</time>
      </trkpt>
      <trkpt lat="41.216409" lon="-3.411045">
        <ele>1687.052</ele>
        <time>2016-07-20T16:03:09Z</time>
      </trkpt>
      <trkpt lat="41.216385" lon="-3.411172">
        <ele>1688.095</ele>
        <time>2016-07-20T16:03:10Z</time>
      </trkpt>
      <trkpt lat="41.216370" lon="-3.411304">
        <ele>1689.061</ele>
        <time>2016-07-20T16:03:11Z</time>
      </trkpt>
      <trkpt lat="41.216358" lon="-3.411424">
        <ele>1689.817</ele>
        <time>2016-07-20T16:03:12Z</time>
      </trkpt>
      <trkpt lat="41.216334" lon="-3.411667">
        <ele>1692.522</ele>
        <time>2016-07-20T16:03:14Z</time>
      </trkpt>
      <trkpt lat="41.216323" lon="-3.411791">
        <ele>1693.915</ele>
        <time>2016-07-20T16:03:15Z</time>
      </trkpt>
      <trkpt lat="41.216318" lon="-3.411920">
        <ele>1695.475</ele>
        <time>2016-07-20T16:03:17Z</time>
      </trkpt>
      <trkpt lat="41.216290" lon="-3.412036">
        <ele>1697.223</ele>
        <time>2016-07-20T16:03:18Z</time>
      </trkpt>
      <trkpt lat="41.216256" lon="-3.412164">
        <ele>1698.995</ele>
        <time>2016-07-20T16:03:19Z</time>
      </trkpt>
      <trkpt lat="41.216223" lon="-3.412296">
        <ele>1700.949</ele>
        <time>2016-07-20T16:03:20Z</time>
      </trkpt>
      <trkpt lat="41.216193" lon="-3.412423">
        <ele>1702.223</ele>
        <time>2016-07-20T16:03:21Z</time>
      </trkpt>
      <trkpt lat="41.216191" lon="-3.412632">
        <ele>1703.808</ele>
        <time>2016-07-20T16:03:23Z</time>
      </trkpt>
      <trkpt lat="41.216283" lon="-3.412839">
        <ele>1706.210</ele>
        <time>2016-07-20T16:03:24Z</time>
      </trkpt>
      <trkpt lat="41.216335" lon="-3.412955">
        <ele>1707.653</ele>
        <time>2016-07-20T16:03:25Z</time>
      </trkpt>
      <trkpt lat="41.216384" lon="-3.413067">
        <ele>1708.519</ele>
        <time>2016-07-20T16:03:26Z</time>
      </trkpt>
      <trkpt lat="41.216430" lon="-3.413180">
        <ele>1708.735</ele>
        <time>2016-07-20T16:03:27Z</time>
      </trkpt>
      <trkpt lat="41.216471" lon="-3.413300">
        <ele>1708.860</ele>
        <time>2016-07-20T16:03:28Z</time>
      </trkpt>
      <trkpt lat="41.216515" lon="-3.413436">
        <ele>1709.483</ele>
        <time>2016-07-20T16:03:29Z</time>
      </trkpt>
      <trkpt lat="41.216546" lon="-3.413558">
        <ele>1709.963</ele>
        <time>2016-07-20T16:03:30Z</time>
      </trkpt>
      <trkpt lat="41.216570" lon="-3.413684">
        <ele>1710.221</ele>
        <time>2016-07-20T16:03:31Z</time>
      </trkpt>
      <trkpt lat="41.216589" lon="-3.413822">
        <ele>1710.437</ele>
        <time>2016-07-20T16:03:32Z</time>
      </trkpt>
      <trkpt lat="41.216598" lon="-3.413969">
        <ele>1710.249</ele>
        <time>2016-07-20T16:03:33Z</time>
      </trkpt>
      <trkpt lat="41.216608" lon="-3.414109">
        <ele>1710.213</ele>
        <time>2016-07-20T16:03:34Z</time>
      </trkpt>
      <trkpt lat="41.216622" lon="-3.414263">
        <ele>1710.308</ele>
        <time>2016-07-20T16:03:35Z</time>
      </trkpt>
      <trkpt lat="41.216643" lon="-3.414417">
        <ele>1710.764</ele>
        <time>2016-07-20T16:03:36Z</time>
      </trkpt>
      <trkpt lat="41.216679" lon="-3.414550">
        <ele>1711.327</ele>
        <time>2016-07-20T16:03:37Z</time>
      </trkpt>
      <trkpt lat="41.216718" lon="-3.414675">
        <ele>1711.913</ele>
        <time>2016-07-20T16:03:38Z</time>
      </trkpt>
      <trkpt lat="41.216764" lon="-3.414803">
        <ele>1712.659</ele>
        <time>2016-07-20T16:03:39Z</time>
      </trkpt>
      <trkpt lat="41.216841" lon="-3.414907">
        <ele>1713.694</ele>
        <time>2016-07-20T16:03:40Z</time>
      </trkpt>
      <trkpt lat="41.216919" lon="-3.415002">
        <ele>1715.337</ele>
        <time>2016-07-20T16:03:41Z</time>
      </trkpt>
      <trkpt lat="41.216985" lon="-3.415099">
        <ele>1716.427</ele>
        <time>2016-07-20T16:03:42Z</time>
      </trkpt>
      <trkpt lat="41.217055" lon="-3.415207">
        <ele>1717.365</ele>
        <time>2016-07-20T16:03:43Z</time>
      </trkpt>
      <trkpt lat="41.217128" lon="-3.415329">
        <ele>1718.437</ele>
        <time>2016-07-20T16:03:44Z</time>
      </trkpt>
      <trkpt lat="41.217205" lon="-3.415456">
        <ele>1719.649</ele>
        <time>2016-07-20T16:03:45Z</time>
      </trkpt>
      <trkpt lat="41.217293" lon="-3.415563">
        <ele>1721.013</ele>
        <time>2016-07-20T16:03:46Z</time>
      </trkpt>
      <trkpt lat="41.217389" lon="-3.415680">
        <ele>1722.408</ele>
        <time>2016-07-20T16:03:47Z</time>
      </trkpt>
      <trkpt lat="41.217472" lon="-3.415783">
        <ele>1723.724</ele>
        <time>2016-07-20T16:03:48Z</time>
      </trkpt>
      <trkpt lat="41.217555" lon="-3.415894">
        <ele>1725.277</ele>
        <time>2016-07-20T16:03:49Z</time>
      </trkpt>
      <trkpt lat="41.217612" lon="-3.416001">
        <ele>1726.513</ele>
        <time>2016-07-20T16:03:50Z</time>
      </trkpt>
      <trkpt lat="41.217677" lon="-3.416127">
        <ele>1727.989</ele>
        <time>2016-07-20T16:03:51Z</time>
      </trkpt>
      <trkpt lat="41.217741" lon="-3.416264">
        <ele>1729.134</ele>
        <time>2016-07-20T16:03:52Z</time>
      </trkpt>
      <trkpt lat="41.217781" lon="-3.416416">
        <ele>1730.117</ele>
        <time>2016-07-20T16:03:53Z</time>
      </trkpt>
      <trkpt lat="41.217806" lon="-3.416568">
        <ele>1730.767</ele>
        <time>2016-07-20T16:03:54Z</time>
      </trkpt>
      <trkpt lat="41.217824" lon="-3.416723">
        <ele>1730.985</ele>
        <time>2016-07-20T16:03:55Z</time>
      </trkpt>
      <trkpt lat="41.217830" lon="-3.416866">
        <ele>1730.875</ele>
        <time>2016-07-20T16:03:56Z</time>
      </trkpt>
      <trkpt lat="41.217830" lon="-3.417030">
        <ele>1731.028</ele>
        <time>2016-07-20T16:03:57Z</time>
      </trkpt>
      <trkpt lat="41.217811" lon="-3.417194">
        <ele>1731.520</ele>
        <time>2016-07-20T16:03:58Z</time>
      </trkpt>
      <trkpt lat="41.217791" lon="-3.417337">
        <ele>1732.208</ele>
        <time>2016-07-20T16:03:59Z</time>
      </trkpt>
      <trkpt lat="41.217777" lon="-3.417494">
        <ele>1733.938</ele>
        <time>2016-07-20T16:04:00Z</time>
      </trkpt>
      <trkpt lat="41.217766" lon="-3.417648">
        <ele>1735.361</ele>
        <time>2016-07-20T16:04:01Z</time>
      </trkpt>
      <trkpt lat="41.217755" lon="-3.417793">
        <ele>1736.827</ele>
        <time>2016-07-20T16:04:02Z</time>
      </trkpt>
      <trkpt lat="41.217743" lon="-3.417930">
        <ele>1738.093</ele>
        <time>2016-07-20T16:04:03Z</time>
      </trkpt>
      <trkpt lat="41.217726" lon="-3.418060">
        <ele>1739.478</ele>
        <time>2016-07-20T16:04:04Z</time>
      </trkpt>
      <trkpt lat="41.217702" lon="-3.418187">
        <ele>1740.811</ele>
        <time>2016-07-20T16:04:05Z</time>
      </trkpt>
      <trkpt lat="41.217669" lon="-3.418331">
        <ele>1742.221</ele>
        <time>2016-07-20T16:04:06Z</time>
      </trkpt>
      <trkpt lat="41.217622" lon="-3.418465">
        <ele>1743.719</ele>
        <time>2016-07-20T16:04:07Z</time>
      </trkpt>
      <trkpt lat="41.217578" lon="-3.418583">
        <ele>1745.162</ele>
        <time>2016-07-20T16:04:08Z</time>
      </trkpt>
      <trkpt lat="41.217535" lon="-3.418702">
        <ele>1746.683</ele>
        <time>2016-07-20T16:04:09Z</time>
      </trkpt>
      <trkpt lat="41.217490" lon="-3.418810">
        <ele>1748.011</ele>
        <time>2016-07-20T16:04:10Z</time>
      </trkpt>
      <trkpt lat="41.217427" lon="-3.418916">
        <ele>1749.008</ele>
        <time>2016-07-20T16:04:11Z</time>
      </trkpt>
      <trkpt lat="41.217364" lon="-3.419013">
        <ele>1749.477</ele>
        <time>2016-07-20T16:04:12Z</time>
      </trkpt>
      <trkpt lat="41.217298" lon="-3.419105">
        <ele>1749.480</ele>
        <time>2016-07-20T16:04:13Z</time>
      </trkpt>
      <trkpt lat="41.217227" lon="-3.419198">
        <ele>1749.126</ele>
        <time>2016-07-20T16:04:14Z</time>
      </trkpt>
      <trkpt lat="41.217156" lon="-3.419278">
        <ele>1749.092</ele>
        <time>2016-07-20T16:04:15Z</time>
      </trkpt>
      <trkpt lat="41.217020" lon="-3.419426">
        <ele>1749.457</ele>
        <time>2016-07-20T16:04:17Z</time>
      </trkpt>
      <trkpt lat="41.216885" lon="-3.419584">
        <ele>1750.180</ele>
        <time>2016-07-20T16:04:19Z</time>
      </trkpt>
      <trkpt lat="41.216824" lon="-3.419673">
        <ele>1750.130</ele>
        <time>2016-07-20T16:04:20Z</time>
      </trkpt>
      <trkpt lat="41.216717" lon="-3.419850">
        <ele>1750.528</ele>
        <time>2016-07-20T16:04:22Z</time>
      </trkpt>
      <trkpt lat="41.216619" lon="-3.420011">
        <ele>1750.862</ele>
        <time>2016-07-20T16:04:24Z</time>
      </trkpt>
      <trkpt lat="41.216515" lon="-3.420174">
        <ele>1752.583</ele>
        <time>2016-07-20T16:04:26Z</time>
      </trkpt>
      <trkpt lat="41.216408" lon="-3.420317">
        <ele>1754.611</ele>
        <time>2016-07-20T16:04:28Z</time>
      </trkpt>
      <trkpt lat="41.216328" lon="-3.420435">
        <ele>1756.908</ele>
        <time>2016-07-20T16:04:30Z</time>
      </trkpt>
      <trkpt lat="41.216280" lon="-3.420541">
        <ele>1758.637</ele>
        <time>2016-07-20T16:04:34Z</time>
      </trkpt>
      <trkpt lat="41.216170" lon="-3.420560">
        <ele>1757.750</ele>
        <time>2016-07-20T16:05:42Z</time>
      </trkpt>
      <trkpt lat="41.216004" lon="-3.420554">
        <ele>1757.336</ele>
        <time>2016-07-20T16:05:45Z</time>
      </trkpt>
      <trkpt lat="41.215914" lon="-3.420504">
        <ele>1758.482</ele>
        <time>2016-07-20T16:05:47Z</time>
      </trkpt>
      <trkpt lat="41.215853" lon="-3.420366">
        <ele>1759.767</ele>
        <time>2016-07-20T16:05:49Z</time>
      </trkpt>
      <trkpt lat="41.215849" lon="-3.420181">
        <ele>1760.620</ele>
        <time>2016-07-20T16:05:51Z</time>
      </trkpt>
      <trkpt lat="41.215860" lon="-3.419991">
        <ele>1761.590</ele>
        <time>2016-07-20T16:05:53Z</time>
      </trkpt>
      <trkpt lat="41.215873" lon="-3.419751">
        <ele>1763.048</ele>
        <time>2016-07-20T16:05:55Z</time>
      </trkpt>
      <trkpt lat="41.215882" lon="-3.419621">
        <ele>1764.018</ele>
        <time>2016-07-20T16:05:56Z</time>
      </trkpt>
      <trkpt lat="41.215891" lon="-3.419483">
        <ele>1765.198</ele>
        <time>2016-07-20T16:05:57Z</time>
      </trkpt>
      <trkpt lat="41.215901" lon="-3.419345">
        <ele>1766.217</ele>
        <time>2016-07-20T16:05:58Z</time>
      </trkpt>
      <trkpt lat="41.215913" lon="-3.419192">
        <ele>1767.208</ele>
        <time>2016-07-20T16:05:59Z</time>
      </trkpt>
      <trkpt lat="41.215920" lon="-3.419051">
        <ele>1768.372</ele>
        <time>2016-07-20T16:06:00Z</time>
      </trkpt>
      <trkpt lat="41.215920" lon="-3.418893">
        <ele>1769.185</ele>
        <time>2016-07-20T16:06:01Z</time>
      </trkpt>
      <trkpt lat="41.215907" lon="-3.418738">
        <ele>1769.961</ele>
        <time>2016-07-20T16:06:02Z</time>
      </trkpt>
      <trkpt lat="41.215886" lon="-3.418593">
        <ele>1770.827</ele>
        <time>2016-07-20T16:06:03Z</time>
      </trkpt>
      <trkpt lat="41.215859" lon="-3.418448">
        <ele>1771.592</ele>
        <time>2016-07-20T16:06:04Z</time>
      </trkpt>
      <trkpt lat="41.215832" lon="-3.418309">
        <ele>1772.885</ele>
        <time>2016-07-20T16:06:05Z</time>
      </trkpt>
      <trkpt lat="41.215804" lon="-3.418167">
        <ele>1774.025</ele>
        <time>2016-07-20T16:06:06Z</time>
      </trkpt>
      <trkpt lat="41.215768" lon="-3.418026">
        <ele>1775.023</ele>
        <time>2016-07-20T16:06:07Z</time>
      </trkpt>
      <trkpt lat="41.215728" lon="-3.417883">
        <ele>1775.934</ele>
        <time>2016-07-20T16:06:08Z</time>
      </trkpt>
      <trkpt lat="41.215683" lon="-3.417738">
        <ele>1776.755</ele>
        <time>2016-07-20T16:06:09Z</time>
      </trkpt>
      <trkpt lat="41.215633" lon="-3.417582">
        <ele>1777.310</ele>
        <time>2016-07-20T16:06:10Z</time>
      </trkpt>
      <trkpt lat="41.215586" lon="-3.417440">
        <ele>1777.908</ele>
        <time>2016-07-20T16:06:11Z</time>
      </trkpt>
      <trkpt lat="41.215538" lon="-3.417294">
        <ele>1778.544</ele>
        <time>2016-07-20T16:06:12Z</time>
      </trkpt>
      <trkpt lat="41.215492" lon="-3.417137">
        <ele>1779.117</ele>
        <time>2016-07-20T16:06:13Z</time>
      </trkpt>
      <trkpt lat="41.215445" lon="-3.416975">
        <ele>1779.553</ele>
        <time>2016-07-20T16:06:14Z</time>
      </trkpt>
      <trkpt lat="41.215401" lon="-3.416806">
        <ele>1780.259</ele>
        <time>2016-07-20T16:06:15Z</time>
      </trkpt>
      <trkpt lat="41.215358" lon="-3.416644">
        <ele>1781.164</ele>
        <time>2016-07-20T16:06:16Z</time>
      </trkpt>
      <trkpt lat="41.215311" lon="-3.416467">
        <ele>1782.097</ele>
        <time>2016-07-20T16:06:17Z</time>
      </trkpt>
      <trkpt lat="41.215264" lon="-3.416292">
        <ele>1782.887</ele>
        <time>2016-07-20T16:06:18Z</time>
      </trkpt>
      <trkpt lat="41.215221" lon="-3.416128">
        <ele>1783.335</ele>
        <time>2016-07-20T16:06:19Z</time>
      </trkpt>
      <trkpt lat="41.215176" lon="-3.415959">
        <ele>1783.813</ele>
        <time>2016-07-20T16:06:20Z</time>
      </trkpt>
      <trkpt lat="41.215136" lon="-3.415778">
        <ele>1784.243</ele>
        <time>2016-07-20T16:06:21Z</time>
      </trkpt>
      <trkpt lat="41.215102" lon="-3.415604">
        <ele>1784.707</ele>
        <time>2016-07-20T16:06:22Z</time>
      </trkpt>
      <trkpt lat="41.215073" lon="-3.415437">
        <ele>1785.408</ele>
        <time>2016-07-20T16:06:23Z</time>
      </trkpt>
      <trkpt lat="41.215042" lon="-3.415259">
        <ele>1786.182</ele>
        <time>2016-07-20T16:06:24Z</time>
      </trkpt>
      <trkpt lat="41.215012" lon="-3.415083">
        <ele>1786.955</ele>
        <time>2016-07-20T16:06:25Z</time>
      </trkpt>
      <trkpt lat="41.214971" lon="-3.414920">
        <ele>1787.961</ele>
        <time>2016-07-20T16:06:26Z</time>
      </trkpt>
      <trkpt lat="41.214919" lon="-3.414762">
        <ele>1788.987</ele>
        <time>2016-07-20T16:06:27Z</time>
      </trkpt>
      <trkpt lat="41.214867" lon="-3.414616">
        <ele>1789.852</ele>
        <time>2016-07-20T16:06:28Z</time>
      </trkpt>
      <trkpt lat="41.214821" lon="-3.414468">
        <ele>1790.775</ele>
        <time>2016-07-20T16:06:29Z</time>
      </trkpt>
      <trkpt lat="41.214775" lon="-3.414321">
        <ele>1791.455</ele>
        <time>2016-07-20T16:06:30Z</time>
      </trkpt>
      <trkpt lat="41.214732" lon="-3.414181">
        <ele>1792.133</ele>
        <time>2016-07-20T16:06:31Z</time>
      </trkpt>
      <trkpt lat="41.214682" lon="-3.414053">
        <ele>1792.848</ele>
        <time>2016-07-20T16:06:32Z</time>
      </trkpt>
      <trkpt lat="41.214628" lon="-3.413941">
        <ele>1793.461</ele>
        <time>2016-07-20T16:06:33Z</time>
      </trkpt>
      <trkpt lat="41.214501" lon="-3.413827">
        <ele>1794.417</ele>
        <time>2016-07-20T16:06:35Z</time>
      </trkpt>
      <trkpt lat="41.214352" lon="-3.413792">
        <ele>1795.108</ele>
        <time>2016-07-20T16:06:37Z</time>
      </trkpt>
      <trkpt lat="41.214188" lon="-3.413767">
        <ele>1795.115</ele>
        <time>2016-07-20T16:06:39Z</time>
      </trkpt>
      <trkpt lat="41.214090" lon="-3.413750">
        <ele>1794.978</ele>
        <time>2016-07-20T16:06:40Z</time>
      </trkpt>
      <trkpt lat="41.213984" lon="-3.413725">
        <ele>1794.684</ele>
        <time>2016-07-20T16:06:41Z</time>
      </trkpt>
      <trkpt lat="41.213873" lon="-3.413694">
        <ele>1794.010</ele>
        <time>2016-07-20T16:06:42Z</time>
      </trkpt>
      <trkpt lat="41.213759" lon="-3.413645">
        <ele>1793.175</ele>
        <time>2016-07-20T16:06:43Z</time>
      </trkpt>
      <trkpt lat="41.213645" lon="-3.413584">
        <ele>1792.158</ele>
        <time>2016-07-20T16:06:44Z</time>
      </trkpt>
      <trkpt lat="41.213534" lon="-3.413516">
        <ele>1791.028</ele>
        <time>2016-07-20T16:06:45Z</time>
      </trkpt>
      <trkpt lat="41.213427" lon="-3.413443">
        <ele>1790.486</ele>
        <time>2016-07-20T16:06:46Z</time>
      </trkpt>
      <trkpt lat="41.213316" lon="-3.413362">
        <ele>1789.872</ele>
        <time>2016-07-20T16:06:47Z</time>
      </trkpt>
      <trkpt lat="41.213200" lon="-3.413280">
        <ele>1789.513</ele>
        <time>2016-07-20T16:06:48Z</time>
      </trkpt>
      <trkpt lat="41.213087" lon="-3.413200">
        <ele>1789.714</ele>
        <time>2016-07-20T16:06:49Z</time>
      </trkpt>
      <trkpt lat="41.212976" lon="-3.413125">
        <ele>1790.108</ele>
        <time>2016-07-20T16:06:50Z</time>
      </trkpt>
      <trkpt lat="41.212864" lon="-3.413048">
        <ele>1790.548</ele>
        <time>2016-07-20T16:06:51Z</time>
      </trkpt>
      <trkpt lat="41.212751" lon="-3.412980">
        <ele>1791.151</ele>
        <time>2016-07-20T16:06:52Z</time>
      </trkpt>
      <trkpt lat="41.212632" lon="-3.412921">
        <ele>1791.847</ele>
        <time>2016-07-20T16:06:53Z</time>
      </trkpt>
      <trkpt lat="41.212503" lon="-3.412869">
        <ele>1792.643</ele>
        <time>2016-07-20T16:06:54Z</time>
      </trkpt>
      <trkpt lat="41.212374" lon="-3.412836">
        <ele>1793.698</ele>
        <time>2016-07-20T16:06:55Z</time>
      </trkpt>
      <trkpt lat="41.212244" lon="-3.412810">
        <ele>1794.721</ele>
        <time>2016-07-20T16:06:56Z</time>
      </trkpt>
      <trkpt lat="41.212110" lon="-3.412787">
        <ele>1795.731</ele>
        <time>2016-07-20T16:06:57Z</time>
      </trkpt>
      <trkpt lat="41.211981" lon="-3.412769">
        <ele>1796.719</ele>
        <time>2016-07-20T16:06:58Z</time>
      </trkpt>
      <trkpt lat="41.211857" lon="-3.412757">
        <ele>1797.558</ele>
        <time>2016-07-20T16:07:00Z</time>
      </trkpt>
      <trkpt lat="41.211733" lon="-3.412751">
        <ele>1798.452</ele>
        <time>2016-07-20T16:07:01Z</time>
      </trkpt>
      <trkpt lat="41.211612" lon="-3.412749">
        <ele>1799.117</ele>
        <time>2016-07-20T16:07:02Z</time>
      </trkpt>
      <trkpt lat="41.211495" lon="-3.412747">
        <ele>1799.708</ele>
        <time>2016-07-20T16:07:03Z</time>
      </trkpt>
      <trkpt lat="41.211378" lon="-3.412728">
        <ele>1800.216</ele>
        <time>2016-07-20T16:07:04Z</time>
      </trkpt>
      <trkpt lat="41.211173" lon="-3.412623">
        <ele>1800.859</ele>
        <time>2016-07-20T16:07:05Z</time>
      </trkpt>
      <trkpt lat="41.211083" lon="-3.412559">
        <ele>1801.285</ele>
        <time>2016-07-20T16:07:06Z</time>
      </trkpt>
      <trkpt lat="41.210990" lon="-3.412500">
        <ele>1801.691</ele>
        <time>2016-07-20T16:07:07Z</time>
      </trkpt>
      <trkpt lat="41.210900" lon="-3.412443">
        <ele>1802.076</ele>
        <time>2016-07-20T16:07:08Z</time>
      </trkpt>
      <trkpt lat="41.210806" lon="-3.412388">
        <ele>1802.479</ele>
        <time>2016-07-20T16:07:09Z</time>
      </trkpt>
      <trkpt lat="41.210706" lon="-3.412339">
        <ele>1802.679</ele>
        <time>2016-07-20T16:07:10Z</time>
      </trkpt>
      <trkpt lat="41.210601" lon="-3.412301">
        <ele>1802.727</ele>
        <time>2016-07-20T16:07:11Z</time>
      </trkpt>
      <trkpt lat="41.210485" lon="-3.412275">
        <ele>1802.851</ele>
        <time>2016-07-20T16:07:12Z</time>
      </trkpt>
      <trkpt lat="41.210365" lon="-3.412271">
        <ele>1802.401</ele>
        <time>2016-07-20T16:07:13Z</time>
      </trkpt>
      <trkpt lat="41.210252" lon="-3.412297">
        <ele>1801.611</ele>
        <time>2016-07-20T16:07:14Z</time>
      </trkpt>
      <trkpt lat="41.210148" lon="-3.412347">
        <ele>1800.408</ele>
        <time>2016-07-20T16:07:15Z</time>
      </trkpt>
      <trkpt lat="41.210048" lon="-3.412405">
        <ele>1799.066</ele>
        <time>2016-07-20T16:07:16Z</time>
      </trkpt>
      <trkpt lat="41.209950" lon="-3.412458">
        <ele>1797.439</ele>
        <time>2016-07-20T16:07:17Z</time>
      </trkpt>
      <trkpt lat="41.209855" lon="-3.412496">
        <ele>1796.135</ele>
        <time>2016-07-20T16:07:18Z</time>
      </trkpt>
      <trkpt lat="41.209684" lon="-3.412496">
        <ele>1794.791</ele>
        <time>2016-07-20T16:07:20Z</time>
      </trkpt>
      <trkpt lat="41.209586" lon="-3.412385">
        <ele>1795.356</ele>
        <time>2016-07-20T16:07:22Z</time>
      </trkpt>
      <trkpt lat="41.209563" lon="-3.412215">
        <ele>1797.419</ele>
        <time>2016-07-20T16:07:24Z</time>
      </trkpt>
      <trkpt lat="41.209540" lon="-3.411982">
        <ele>1799.889</ele>
        <time>2016-07-20T16:07:26Z</time>
      </trkpt>
      <trkpt lat="41.209525" lon="-3.411858">
        <ele>1800.887</ele>
        <time>2016-07-20T16:07:27Z</time>
      </trkpt>
      <trkpt lat="41.209505" lon="-3.411711">
        <ele>1801.582</ele>
        <time>2016-07-20T16:07:28Z</time>
      </trkpt>
      <trkpt lat="41.209484" lon="-3.411573">
        <ele>1802.243</ele>
        <time>2016-07-20T16:07:29Z</time>
      </trkpt>
      <trkpt lat="41.209458" lon="-3.411430">
        <ele>1802.817</ele>
        <time>2016-07-20T16:07:30Z</time>
      </trkpt>
      <trkpt lat="41.209422" lon="-3.411283">
        <ele>1803.708</ele>
        <time>2016-07-20T16:07:31Z</time>
      </trkpt>
      <trkpt lat="41.209374" lon="-3.411142">
        <ele>1804.729</ele>
        <time>2016-07-20T16:07:32Z</time>
      </trkpt>
      <trkpt lat="41.209316" lon="-3.411031">
        <ele>1805.642</ele>
        <time>2016-07-20T16:07:33Z</time>
      </trkpt>
      <trkpt lat="41.209249" lon="-3.410936">
        <ele>1806.418</ele>
        <time>2016-07-20T16:07:34Z</time>
      </trkpt>
      <trkpt lat="41.209169" lon="-3.410862">
        <ele>1806.954</ele>
        <time>2016-07-20T16:07:35Z</time>
      </trkpt>
      <trkpt lat="41.209079" lon="-3.410808">
        <ele>1807.519</ele>
        <time>2016-07-20T16:07:36Z</time>
      </trkpt>
      <trkpt lat="41.208993" lon="-3.410761">
        <ele>1807.882</ele>
        <time>2016-07-20T16:07:37Z</time>
      </trkpt>
      <trkpt lat="41.208906" lon="-3.410705">
        <ele>1807.912</ele>
        <time>2016-07-20T16:07:38Z</time>
      </trkpt>
      <trkpt lat="41.208832" lon="-3.410622">
        <ele>1807.610</ele>
        <time>2016-07-20T16:07:39Z</time>
      </trkpt>
      <trkpt lat="41.208778" lon="-3.410523">
        <ele>1807.269</ele>
        <time>2016-07-20T16:07:40Z</time>
      </trkpt>
      <trkpt lat="41.208755" lon="-3.410402">
        <ele>1806.904</ele>
        <time>2016-07-20T16:07:41Z</time>
      </trkpt>
      <trkpt lat="41.208740" lon="-3.410272">
        <ele>1806.824</ele>
        <time>2016-07-20T16:07:42Z</time>
      </trkpt>
      <trkpt lat="41.208728" lon="-3.410129">
        <ele>1806.908</ele>
        <time>2016-07-20T16:07:43Z</time>
      </trkpt>
      <trkpt lat="41.208716" lon="-3.409985">
        <ele>1807.147</ele>
        <time>2016-07-20T16:07:44Z</time>
      </trkpt>
      <trkpt lat="41.208710" lon="-3.409842">
        <ele>1807.490</ele>
        <time>2016-07-20T16:07:45Z</time>
      </trkpt>
      <trkpt lat="41.208702" lon="-3.409687">
        <ele>1807.546</ele>
        <time>2016-07-20T16:07:46Z</time>
      </trkpt>
      <trkpt lat="41.208691" lon="-3.409542">
        <ele>1807.662</ele>
        <time>2016-07-20T16:07:47Z</time>
      </trkpt>
      <trkpt lat="41.208671" lon="-3.409394">
        <ele>1807.517</ele>
        <time>2016-07-20T16:07:48Z</time>
      </trkpt>
      <trkpt lat="41.208648" lon="-3.409251">
        <ele>1807.360</ele>
        <time>2016-07-20T16:07:49Z</time>
      </trkpt>
      <trkpt lat="41.208612" lon="-3.409116">
        <ele>1807.080</ele>
        <time>2016-07-20T16:07:50Z</time>
      </trkpt>
      <trkpt lat="41.208565" lon="-3.408981">
        <ele>1806.648</ele>
        <time>2016-07-20T16:07:51Z</time>
      </trkpt>
      <trkpt lat="41.208504" lon="-3.408855">
        <ele>1806.253</ele>
        <time>2016-07-20T16:07:52Z</time>
      </trkpt>
      <trkpt lat="41.208433" lon="-3.408740">
        <ele>1805.804</ele>
        <time>2016-07-20T16:07:53Z</time>
      </trkpt>
      <trkpt lat="41.208355" lon="-3.408637">
        <ele>1805.414</ele>
        <time>2016-07-20T16:07:54Z</time>
      </trkpt>
      <trkpt lat="41.208276" lon="-3.408535">
        <ele>1804.808</ele>
        <time>2016-07-20T16:07:55Z</time>
      </trkpt>
      <trkpt lat="41.208194" lon="-3.408429">
        <ele>1804.286</ele>
        <time>2016-07-20T16:07:56Z</time>
      </trkpt>
      <trkpt lat="41.208106" lon="-3.408314">
        <ele>1803.439</ele>
        <time>2016-07-20T16:07:57Z</time>
      </trkpt>
      <trkpt lat="41.208017" lon="-3.408199">
        <ele>1802.715</ele>
        <time>2016-07-20T16:07:58Z</time>
      </trkpt>
      <trkpt lat="41.207922" lon="-3.408085">
        <ele>1802.081</ele>
        <time>2016-07-20T16:07:59Z</time>
      </trkpt>
      <trkpt lat="41.207826" lon="-3.407972">
        <ele>1801.266</ele>
        <time>2016-07-20T16:08:00Z</time>
      </trkpt>
      <trkpt lat="41.207730" lon="-3.407860">
        <ele>1800.479</ele>
        <time>2016-07-20T16:08:01Z</time>
      </trkpt>
      <trkpt lat="41.207632" lon="-3.407746">
        <ele>1799.459</ele>
        <time>2016-07-20T16:08:02Z</time>
      </trkpt>
      <trkpt lat="41.207535" lon="-3.407620">
        <ele>1798.527</ele>
        <time>2016-07-20T16:08:03Z</time>
      </trkpt>
      <trkpt lat="41.207442" lon="-3.407483">
        <ele>1797.795</ele>
        <time>2016-07-20T16:08:04Z</time>
      </trkpt>
      <trkpt lat="41.207349" lon="-3.407341">
        <ele>1796.949</ele>
        <time>2016-07-20T16:08:05Z</time>
      </trkpt>
      <trkpt lat="41.207257" lon="-3.407200">
        <ele>1796.123</ele>
        <time>2016-07-20T16:08:06Z</time>
      </trkpt>
      <trkpt lat="41.207166" lon="-3.407057">
        <ele>1795.408</ele>
        <time>2016-07-20T16:08:07Z</time>
      </trkpt>
      <trkpt lat="41.207075" lon="-3.406916">
        <ele>1794.780</ele>
        <time>2016-07-20T16:08:08Z</time>
      </trkpt>
      <trkpt lat="41.206982" lon="-3.406777">
        <ele>1793.763</ele>
        <time>2016-07-20T16:08:09Z</time>
      </trkpt>
      <trkpt lat="41.206882" lon="-3.406638">
        <ele>1792.689</ele>
        <time>2016-07-20T16:08:10Z</time>
      </trkpt>
      <trkpt lat="41.206777" lon="-3.406509">
        <ele>1791.355</ele>
        <time>2016-07-20T16:08:11Z</time>
      </trkpt>
      <trkpt lat="41.206661" lon="-3.406388">
        <ele>1789.960</ele>
        <time>2016-07-20T16:08:12Z</time>
      </trkpt>
      <trkpt lat="41.206541" lon="-3.406276">
        <ele>1788.333</ele>
        <time>2016-07-20T16:08:13Z</time>
      </trkpt>
      <trkpt lat="41.206417" lon="-3.406173">
        <ele>1786.683</ele>
        <time>2016-07-20T16:08:14Z</time>
      </trkpt>
      <trkpt lat="41.206288" lon="-3.406074">
        <ele>1784.761</ele>
        <time>2016-07-20T16:08:15Z</time>
      </trkpt>
      <trkpt lat="41.206163" lon="-3.405979">
        <ele>1782.738</ele>
        <time>2016-07-20T16:08:16Z</time>
      </trkpt>
      <trkpt lat="41.206034" lon="-3.405874">
        <ele>1781.070</ele>
        <time>2016-07-20T16:08:17Z</time>
      </trkpt>
      <trkpt lat="41.205905" lon="-3.405768">
        <ele>1779.217</ele>
        <time>2016-07-20T16:08:18Z</time>
      </trkpt>
      <trkpt lat="41.205781" lon="-3.405668">
        <ele>1777.308</ele>
        <time>2016-07-20T16:08:19Z</time>
      </trkpt>
      <trkpt lat="41.205655" lon="-3.405565">
        <ele>1775.424</ele>
        <time>2016-07-20T16:08:20Z</time>
      </trkpt>
      <trkpt lat="41.205522" lon="-3.405464">
        <ele>1773.637</ele>
        <time>2016-07-20T16:08:21Z</time>
      </trkpt>
      <trkpt lat="41.205387" lon="-3.405361">
        <ele>1771.913</ele>
        <time>2016-07-20T16:08:22Z</time>
      </trkpt>
      <trkpt lat="41.205252" lon="-3.405257">
        <ele>1770.459</ele>
        <time>2016-07-20T16:08:23Z</time>
      </trkpt>
      <trkpt lat="41.205121" lon="-3.405150">
        <ele>1769.144</ele>
        <time>2016-07-20T16:08:24Z</time>
      </trkpt>
      <trkpt lat="41.205000" lon="-3.405051">
        <ele>1767.967</ele>
        <time>2016-07-20T16:08:25Z</time>
      </trkpt>
      <trkpt lat="41.204883" lon="-3.404958">
        <ele>1766.897</ele>
        <time>2016-07-20T16:08:26Z</time>
      </trkpt>
      <trkpt lat="41.204772" lon="-3.404869">
        <ele>1765.885</ele>
        <time>2016-07-20T16:08:27Z</time>
      </trkpt>
      <trkpt lat="41.204670" lon="-3.404786">
        <ele>1764.789</ele>
        <time>2016-07-20T16:08:28Z</time>
      </trkpt>
      <trkpt lat="41.204570" lon="-3.404712">
        <ele>1763.206</ele>
        <time>2016-07-20T16:08:29Z</time>
      </trkpt>
      <trkpt lat="41.204471" lon="-3.404663">
        <ele>1761.426</ele>
        <time>2016-07-20T16:08:30Z</time>
      </trkpt>
      <trkpt lat="41.204363" lon="-3.404645">
        <ele>1759.408</ele>
        <time>2016-07-20T16:08:31Z</time>
      </trkpt>
      <trkpt lat="41.204248" lon="-3.404655">
        <ele>1757.739</ele>
        <time>2016-07-20T16:08:32Z</time>
      </trkpt>
      <trkpt lat="41.204141" lon="-3.404686">
        <ele>1756.842</ele>
        <time>2016-07-20T16:08:33Z</time>
      </trkpt>
      <trkpt lat="41.204020" lon="-3.404720">
        <ele>1756.488</ele>
        <time>2016-07-20T16:08:34Z</time>
      </trkpt>
      <trkpt lat="41.203887" lon="-3.404756">
        <ele>1756.234</ele>
        <time>2016-07-20T16:08:35Z</time>
      </trkpt>
      <trkpt lat="41.203743" lon="-3.404792">
        <ele>1756.039</ele>
        <time>2016-07-20T16:08:36Z</time>
      </trkpt>
      <trkpt lat="41.203599" lon="-3.404829">
        <ele>1755.622</ele>
        <time>2016-07-20T16:08:37Z</time>
      </trkpt>
      <trkpt lat="41.203452" lon="-3.404869">
        <ele>1754.992</ele>
        <time>2016-07-20T16:08:38Z</time>
      </trkpt>
      <trkpt lat="41.203308" lon="-3.404912">
        <ele>1754.330</ele>
        <time>2016-07-20T16:08:39Z</time>
      </trkpt>
      <trkpt lat="41.203163" lon="-3.404957">
        <ele>1753.687</ele>
        <time>2016-07-20T16:08:40Z</time>
      </trkpt>
      <trkpt lat="41.203030" lon="-3.404997">
        <ele>1752.542</ele>
        <time>2016-07-20T16:08:41Z</time>
      </trkpt>
      <trkpt lat="41.202908" lon="-3.405023">
        <ele>1751.526</ele>
        <time>2016-07-20T16:08:42Z</time>
      </trkpt>
      <trkpt lat="41.202817" lon="-3.405022">
        <ele>1750.808</ele>
        <time>2016-07-20T16:08:43Z</time>
      </trkpt>
      <trkpt lat="41.202729" lon="-3.404985">
        <ele>1750.199</ele>
        <time>2016-07-20T16:08:44Z</time>
      </trkpt>
      <trkpt lat="41.202634" lon="-3.404929">
        <ele>1749.042</ele>
        <time>2016-07-20T16:08:45Z</time>
      </trkpt>
      <trkpt lat="41.202533" lon="-3.404865">
        <ele>1748.068</ele>
        <time>2016-07-20T16:08:46Z</time>
      </trkpt>
      <trkpt lat="41.202427" lon="-3.404785">
        <ele>1747.164</ele>
        <time>2016-07-20T16:08:47Z</time>
      </trkpt>
      <trkpt lat="41.202319" lon="-3.404692">
        <ele>1746.449</ele>
        <time>2016-07-20T16:08:48Z</time>
      </trkpt>
      <trkpt lat="41.202212" lon="-3.404586">
        <ele>1745.972</ele>
        <time>2016-07-20T16:08:49Z</time>
      </trkpt>
      <trkpt lat="41.202115" lon="-3.404480">
        <ele>1745.622</ele>
        <time>2016-07-20T16:08:51Z</time>
      </trkpt>
      <trkpt lat="41.201807" lon="-3.404128">
        <ele>1744.410</ele>
        <time>2016-07-20T16:08:53Z</time>
      </trkpt>
      <trkpt lat="41.201690" lon="-3.404034">
        <ele>1744.087</ele>
        <time>2016-07-20T16:08:54Z</time>
      </trkpt>
      <trkpt lat="41.201566" lon="-3.403965">
        <ele>1743.442</ele>
        <time>2016-07-20T16:08:55Z</time>
      </trkpt>
      <trkpt lat="41.201440" lon="-3.403909">
        <ele>1742.926</ele>
        <time>2016-07-20T16:08:56Z</time>
      </trkpt>
      <trkpt lat="41.201309" lon="-3.403852">
        <ele>1742.508</ele>
        <time>2016-07-20T16:08:57Z</time>
      </trkpt>
      <trkpt lat="41.201175" lon="-3.403794">
        <ele>1742.069</ele>
        <time>2016-07-20T16:08:58Z</time>
      </trkpt>
      <trkpt lat="41.201038" lon="-3.403731">
        <ele>1741.562</ele>
        <time>2016-07-20T16:08:59Z</time>
      </trkpt>
      <trkpt lat="41.200904" lon="-3.403670">
        <ele>1740.928</ele>
        <time>2016-07-20T16:09:00Z</time>
      </trkpt>
      <trkpt lat="41.200762" lon="-3.403614">
        <ele>1740.224</ele>
        <time>2016-07-20T16:09:01Z</time>
      </trkpt>
      <trkpt lat="41.200613" lon="-3.403559">
        <ele>1739.469</ele>
        <time>2016-07-20T16:09:02Z</time>
      </trkpt>
      <trkpt lat="41.200471" lon="-3.403517">
        <ele>1738.632</ele>
        <time>2016-07-20T16:09:03Z</time>
      </trkpt>
      <trkpt lat="41.200320" lon="-3.403475">
        <ele>1737.822</ele>
        <time>2016-07-20T16:09:04Z</time>
      </trkpt>
      <trkpt lat="41.200168" lon="-3.403434">
        <ele>1737.170</ele>
        <time>2016-07-20T16:09:05Z</time>
      </trkpt>
      <trkpt lat="41.200016" lon="-3.403394">
        <ele>1736.461</ele>
        <time>2016-07-20T16:09:06Z</time>
      </trkpt>
      <trkpt lat="41.199866" lon="-3.403344">
        <ele>1735.721</ele>
        <time>2016-07-20T16:09:07Z</time>
      </trkpt>
      <trkpt lat="41.199717" lon="-3.403295">
        <ele>1734.913</ele>
        <time>2016-07-20T16:09:08Z</time>
      </trkpt>
      <trkpt lat="41.199568" lon="-3.403248">
        <ele>1733.908</ele>
        <time>2016-07-20T16:09:09Z</time>
      </trkpt>
      <trkpt lat="41.199415" lon="-3.403208">
        <ele>1732.887</ele>
        <time>2016-07-20T16:09:10Z</time>
      </trkpt>
      <trkpt lat="41.199261" lon="-3.403181">
        <ele>1731.810</ele>
        <time>2016-07-20T16:09:11Z</time>
      </trkpt>
      <trkpt lat="41.199103" lon="-3.403164">
        <ele>1731.036</ele>
        <time>2016-07-20T16:09:12Z</time>
      </trkpt>
      <trkpt lat="41.198946" lon="-3.403163">
        <ele>1730.342</ele>
        <time>2016-07-20T16:09:13Z</time>
      </trkpt>
      <trkpt lat="41.198795" lon="-3.403185">
        <ele>1729.867</ele>
        <time>2016-07-20T16:09:14Z</time>
      </trkpt>
      <trkpt lat="41.198651" lon="-3.403238">
        <ele>1729.280</ele>
        <time>2016-07-20T16:09:15Z</time>
      </trkpt>
      <trkpt lat="41.198516" lon="-3.403311">
        <ele>1728.740</ele>
        <time>2016-07-20T16:09:16Z</time>
      </trkpt>
      <trkpt lat="41.198385" lon="-3.403402">
        <ele>1728.288</ele>
        <time>2016-07-20T16:09:17Z</time>
      </trkpt>
      <trkpt lat="41.198251" lon="-3.403488">
        <ele>1727.452</ele>
        <time>2016-07-20T16:09:18Z</time>
      </trkpt>
      <trkpt lat="41.198114" lon="-3.403570">
        <ele>1726.653</ele>
        <time>2016-07-20T16:09:19Z</time>
      </trkpt>
      <trkpt lat="41.197981" lon="-3.403659">
        <ele>1725.808</ele>
        <time>2016-07-20T16:09:20Z</time>
      </trkpt>
      <trkpt lat="41.197850" lon="-3.403759">
        <ele>1724.808</ele>
        <time>2016-07-20T16:09:21Z</time>
      </trkpt>
      <trkpt lat="41.197721" lon="-3.403872">
        <ele>1723.736</ele>
        <time>2016-07-20T16:09:22Z</time>
      </trkpt>
      <trkpt lat="41.197593" lon="-3.403999">
        <ele>1722.999</ele>
        <time>2016-07-20T16:09:23Z</time>
      </trkpt>
      <trkpt lat="41.197475" lon="-3.404122">
        <ele>1722.185</ele>
        <time>2016-07-20T16:09:24Z</time>
      </trkpt>
      <trkpt lat="41.197357" lon="-3.404248">
        <ele>1721.411</ele>
        <time>2016-07-20T16:09:25Z</time>
      </trkpt>
      <trkpt lat="41.197233" lon="-3.404371">
        <ele>1720.446</ele>
        <time>2016-07-20T16:09:26Z</time>
      </trkpt>
      <trkpt lat="41.197111" lon="-3.404500">
        <ele>1719.149</ele>
        <time>2016-07-20T16:09:27Z</time>
      </trkpt>
      <trkpt lat="41.196995" lon="-3.404627">
        <ele>1717.649</ele>
        <time>2016-07-20T16:09:28Z</time>
      </trkpt>
      <trkpt lat="41.196880" lon="-3.404756">
        <ele>1715.917</ele>
        <time>2016-07-20T16:09:29Z</time>
      </trkpt>
      <trkpt lat="41.196767" lon="-3.404885">
        <ele>1714.277</ele>
        <time>2016-07-20T16:09:30Z</time>
      </trkpt>
      <trkpt lat="41.196652" lon="-3.405016">
        <ele>1712.761</ele>
        <time>2016-07-20T16:09:31Z</time>
      </trkpt>
      <trkpt lat="41.196541" lon="-3.405143">
        <ele>1711.827</ele>
        <time>2016-07-20T16:09:32Z</time>
      </trkpt>
      <trkpt lat="41.196443" lon="-3.405259">
        <ele>1711.608</ele>
        <time>2016-07-20T16:09:33Z</time>
      </trkpt>
      <trkpt lat="41.196351" lon="-3.405350">
        <ele>1711.948</ele>
        <time>2016-07-20T16:09:34Z</time>
      </trkpt>
      <trkpt lat="41.196246" lon="-3.405417">
        <ele>1711.741</ele>
        <time>2016-07-20T16:09:35Z</time>
      </trkpt>
      <trkpt lat="41.196137" lon="-3.405456">
        <ele>1711.317</ele>
        <time>2016-07-20T16:09:36Z</time>
      </trkpt>
      <trkpt lat="41.196022" lon="-3.405476">
        <ele>1710.853</ele>
        <time>2016-07-20T16:09:37Z</time>
      </trkpt>
      <trkpt lat="41.195902" lon="-3.405486">
        <ele>1710.138</ele>
        <time>2016-07-20T16:09:38Z</time>
      </trkpt>
      <trkpt lat="41.195773" lon="-3.405497">
        <ele>1709.231</ele>
        <time>2016-07-20T16:09:39Z</time>
      </trkpt>
      <trkpt lat="41.195640" lon="-3.405503">
        <ele>1708.251</ele>
        <time>2016-07-20T16:09:40Z</time>
      </trkpt>
      <trkpt lat="41.195516" lon="-3.405515">
        <ele>1707.239</ele>
        <time>2016-07-20T16:09:41Z</time>
      </trkpt>
      <trkpt lat="41.195395" lon="-3.405548">
        <ele>1706.174</ele>
        <time>2016-07-20T16:09:42Z</time>
      </trkpt>
      <trkpt lat="41.195271" lon="-3.405593">
        <ele>1704.956</ele>
        <time>2016-07-20T16:09:43Z</time>
      </trkpt>
      <trkpt lat="41.195146" lon="-3.405656">
        <ele>1703.921</ele>
        <time>2016-07-20T16:09:44Z</time>
      </trkpt>
      <trkpt lat="41.195016" lon="-3.405717">
        <ele>1702.708</ele>
        <time>2016-07-20T16:09:45Z</time>
      </trkpt>
      <trkpt lat="41.194885" lon="-3.405768">
        <ele>1701.618</ele>
        <time>2016-07-20T16:09:46Z</time>
      </trkpt>
      <trkpt lat="41.194755" lon="-3.405814">
        <ele>1700.631</ele>
        <time>2016-07-20T16:09:47Z</time>
      </trkpt>
      <trkpt lat="41.194625" lon="-3.405872">
        <ele>1699.677</ele>
        <time>2016-07-20T16:09:48Z</time>
      </trkpt>
      <trkpt lat="41.194505" lon="-3.405940">
        <ele>1698.683</ele>
        <time>2016-07-20T16:09:49Z</time>
      </trkpt>
      <trkpt lat="41.194385" lon="-3.406017">
        <ele>1697.558</ele>
        <time>2016-07-20T16:09:50Z</time>
      </trkpt>
      <trkpt lat="41.194268" lon="-3.406107">
        <ele>1696.321</ele>
        <time>2016-07-20T16:09:51Z</time>
      </trkpt>
      <trkpt lat="41.194150" lon="-3.406193">
        <ele>1695.061</ele>
        <time>2016-07-20T16:09:52Z</time>
      </trkpt>
      <trkpt lat="41.194031" lon="-3.406288">
        <ele>1693.859</ele>
        <time>2016-07-20T16:09:53Z</time>
      </trkpt>
      <trkpt lat="41.193905" lon="-3.406389">
        <ele>1692.367</ele>
        <time>2016-07-20T16:09:54Z</time>
      </trkpt>
      <trkpt lat="41.193777" lon="-3.406492">
        <ele>1691.081</ele>
        <time>2016-07-20T16:09:55Z</time>
      </trkpt>
      <trkpt lat="41.193652" lon="-3.406595">
        <ele>1690.419</ele>
        <time>2016-07-20T16:09:56Z</time>
      </trkpt>
      <trkpt lat="41.193531" lon="-3.406693">
        <ele>1689.708</ele>
        <time>2016-07-20T16:09:57Z</time>
      </trkpt>
      <trkpt lat="41.193410" lon="-3.406799">
        <ele>1689.557</ele>
        <time>2016-07-20T16:09:58Z</time>
      </trkpt>
      <trkpt lat="41.193289" lon="-3.406900">
        <ele>1689.280</ele>
        <time>2016-07-20T16:09:59Z</time>
      </trkpt>
      <trkpt lat="41.193166" lon="-3.406999">
        <ele>1689.036</ele>
        <time>2016-07-20T16:10:00Z</time>
      </trkpt>
      <trkpt lat="41.193043" lon="-3.407095">
        <ele>1689.042</ele>
        <time>2016-07-20T16:10:01Z</time>
      </trkpt>
      <trkpt lat="41.192915" lon="-3.407188">
        <ele>1689.157</ele>
        <time>2016-07-20T16:10:02Z</time>
      </trkpt>
      <trkpt lat="41.192791" lon="-3.407281">
        <ele>1689.140</ele>
        <time>2016-07-20T16:10:03Z</time>
      </trkpt>
      <trkpt lat="41.192666" lon="-3.407381">
        <ele>1688.820</ele>
        <time>2016-07-20T16:10:04Z</time>
      </trkpt>
      <trkpt lat="41.192541" lon="-3.407474">
        <ele>1688.568</ele>
        <time>2016-07-20T16:10:05Z</time>
      </trkpt>
      <trkpt lat="41.192421" lon="-3.407548">
        <ele>1688.264</ele>
        <time>2016-07-20T16:10:06Z</time>
      </trkpt>
      <trkpt lat="41.192305" lon="-3.407603">
        <ele>1687.806</ele>
        <time>2016-07-20T16:10:07Z</time>
      </trkpt>
      <trkpt lat="41.192197" lon="-3.407644">
        <ele>1687.216</ele>
        <time>2016-07-20T16:10:08Z</time>
      </trkpt>
      <trkpt lat="41.192092" lon="-3.407665">
        <ele>1686.508</ele>
        <time>2016-07-20T16:10:09Z</time>
      </trkpt>
      <trkpt lat="41.191941" lon="-3.407583">
        <ele>1685.977</ele>
        <time>2016-07-20T16:10:11Z</time>
      </trkpt>
      <trkpt lat="41.191875" lon="-3.407384">
        <ele>1685.430</ele>
        <time>2016-07-20T16:10:13Z</time>
      </trkpt>
      <trkpt lat="41.191867" lon="-3.407154">
        <ele>1685.186</ele>
        <time>2016-07-20T16:10:15Z</time>
      </trkpt>
      <trkpt lat="41.191875" lon="-3.407027">
        <ele>1685.052</ele>
        <time>2016-07-20T16:10:16Z</time>
      </trkpt>
      <trkpt lat="41.191887" lon="-3.406881">
        <ele>1684.887</ele>
        <time>2016-07-20T16:10:17Z</time>
      </trkpt>
      <trkpt lat="41.191911" lon="-3.406741">
        <ele>1684.510</ele>
        <time>2016-07-20T16:10:18Z</time>
      </trkpt>
      <trkpt lat="41.191953" lon="-3.406599">
        <ele>1684.470</ele>
        <time>2016-07-20T16:10:19Z</time>
      </trkpt>
      <trkpt lat="41.192011" lon="-3.406473">
        <ele>1684.038</ele>
        <time>2016-07-20T16:10:20Z</time>
      </trkpt>
      <trkpt lat="41.192077" lon="-3.406343">
        <ele>1683.481</ele>
        <time>2016-07-20T16:10:21Z</time>
      </trkpt>
      <trkpt lat="41.192142" lon="-3.406196">
        <ele>1682.661</ele>
        <time>2016-07-20T16:10:22Z</time>
      </trkpt>
      <trkpt lat="41.192196" lon="-3.406034">
        <ele>1681.817</ele>
        <time>2016-07-20T16:10:23Z</time>
      </trkpt>
      <trkpt lat="41.192234" lon="-3.405874">
        <ele>1680.708</ele>
        <time>2016-07-20T16:10:25Z</time>
      </trkpt>
      <trkpt lat="41.192266" lon="-3.405703">
        <ele>1679.729</ele>
        <time>2016-07-20T16:10:26Z</time>
      </trkpt>
      <trkpt lat="41.192296" lon="-3.405518">
        <ele>1678.792</ele>
        <time>2016-07-20T16:10:27Z</time>
      </trkpt>
      <trkpt lat="41.192321" lon="-3.405332">
        <ele>1677.968</ele>
        <time>2016-07-20T16:10:28Z</time>
      </trkpt>
      <trkpt lat="41.192343" lon="-3.405142">
        <ele>1677.284</ele>
        <time>2016-07-20T16:10:29Z</time>
      </trkpt>
      <trkpt lat="41.192357" lon="-3.404958">
        <ele>1676.529</ele>
        <time>2016-07-20T16:10:30Z</time>
      </trkpt>
      <trkpt lat="41.192365" lon="-3.404771">
        <ele>1675.672</ele>
        <time>2016-07-20T16:10:31Z</time>
      </trkpt>
      <trkpt lat="41.192374" lon="-3.404586">
        <ele>1674.732</ele>
        <time>2016-07-20T16:10:32Z</time>
      </trkpt>
      <trkpt lat="41.192387" lon="-3.404404">
        <ele>1673.640</ele>
        <time>2016-07-20T16:10:33Z</time>
      </trkpt>
      <trkpt lat="41.192412" lon="-3.404237">
        <ele>1672.656</ele>
        <time>2016-07-20T16:10:34Z</time>
      </trkpt>
      <trkpt lat="41.192459" lon="-3.404069">
        <ele>1671.659</ele>
        <time>2016-07-20T16:10:35Z</time>
      </trkpt>
      <trkpt lat="41.192512" lon="-3.403910">
        <ele>1670.714</ele>
        <time>2016-07-20T16:10:36Z</time>
      </trkpt>
      <trkpt lat="41.192565" lon="-3.403752">
        <ele>1669.508</ele>
        <time>2016-07-20T16:10:37Z</time>
      </trkpt>
      <trkpt lat="41.192618" lon="-3.403593">
        <ele>1668.446</ele>
        <time>2016-07-20T16:10:38Z</time>
      </trkpt>
      <trkpt lat="41.192671" lon="-3.403440">
        <ele>1667.489</ele>
        <time>2016-07-20T16:10:39Z</time>
      </trkpt>
      <trkpt lat="41.192719" lon="-3.403301">
        <ele>1666.665</ele>
        <time>2016-07-20T16:10:40Z</time>
      </trkpt>
      <trkpt lat="41.192748" lon="-3.403156">
        <ele>1666.181</ele>
        <time>2016-07-20T16:10:41Z</time>
      </trkpt>
      <trkpt lat="41.192715" lon="-3.402901">
        <ele>1665.536</ele>
        <time>2016-07-20T16:10:42Z</time>
      </trkpt>
      <trkpt lat="41.192652" lon="-3.402796">
        <ele>1665.329</ele>
        <time>2016-07-20T16:10:43Z</time>
      </trkpt>
      <trkpt lat="41.192575" lon="-3.402685">
        <ele>1665.669</ele>
        <time>2016-07-20T16:10:44Z</time>
      </trkpt>
      <trkpt lat="41.192490" lon="-3.402576">
        <ele>1666.637</ele>
        <time>2016-07-20T16:10:45Z</time>
      </trkpt>
      <trkpt lat="41.192398" lon="-3.402466">
        <ele>1666.523</ele>
        <time>2016-07-20T16:10:46Z</time>
      </trkpt>
      <trkpt lat="41.192290" lon="-3.402371">
        <ele>1665.983</ele>
        <time>2016-07-20T16:10:47Z</time>
      </trkpt>
      <trkpt lat="41.192038" lon="-3.402234">
        <ele>1664.111</ele>
        <time>2016-07-20T16:10:49Z</time>
      </trkpt>
      <trkpt lat="41.191899" lon="-3.402174">
        <ele>1663.108</ele>
        <time>2016-07-20T16:10:50Z</time>
      </trkpt>
      <trkpt lat="41.191774" lon="-3.402115">
        <ele>1662.193</ele>
        <time>2016-07-20T16:10:51Z</time>
      </trkpt>
      <trkpt lat="41.191651" lon="-3.402039">
        <ele>1660.846</ele>
        <time>2016-07-20T16:10:52Z</time>
      </trkpt>
      <trkpt lat="41.191523" lon="-3.401951">
        <ele>1659.332</ele>
        <time>2016-07-20T16:10:53Z</time>
      </trkpt>
      <trkpt lat="41.191397" lon="-3.401854">
        <ele>1657.718</ele>
        <time>2016-07-20T16:10:54Z</time>
      </trkpt>
      <trkpt lat="41.191268" lon="-3.401755">
        <ele>1656.033</ele>
        <time>2016-07-20T16:10:55Z</time>
      </trkpt>
      <trkpt lat="41.191136" lon="-3.401653">
        <ele>1654.476</ele>
        <time>2016-07-20T16:10:56Z</time>
      </trkpt>
      <trkpt lat="41.191001" lon="-3.401569">
        <ele>1653.116</ele>
        <time>2016-07-20T16:10:57Z</time>
      </trkpt>
      <trkpt lat="41.190861" lon="-3.401494">
        <ele>1651.874</ele>
        <time>2016-07-20T16:10:58Z</time>
      </trkpt>
      <trkpt lat="41.190727" lon="-3.401414">
        <ele>1650.646</ele>
        <time>2016-07-20T16:10:59Z</time>
      </trkpt>
      <trkpt lat="41.190594" lon="-3.401336">
        <ele>1649.488</ele>
        <time>2016-07-20T16:11:00Z</time>
      </trkpt>
      <trkpt lat="41.190464" lon="-3.401245">
        <ele>1648.216</ele>
        <time>2016-07-20T16:11:01Z</time>
      </trkpt>
      <trkpt lat="41.190348" lon="-3.401140">
        <ele>1646.908</ele>
        <time>2016-07-20T16:11:02Z</time>
      </trkpt>
      <trkpt lat="41.190249" lon="-3.401018">
        <ele>1645.855</ele>
        <time>2016-07-20T16:11:03Z</time>
      </trkpt>
      <trkpt lat="41.190170" lon="-3.400890">
        <ele>1644.868</ele>
        <time>2016-07-20T16:11:04Z</time>
      </trkpt>
      <trkpt lat="41.190105" lon="-3.400751">
        <ele>1643.884</ele>
        <time>2016-07-20T16:11:05Z</time>
      </trkpt>
      <trkpt lat="41.190050" lon="-3.400591">
        <ele>1643.010</ele>
        <time>2016-07-20T16:11:06Z</time>
      </trkpt>
      <trkpt lat="41.190006" lon="-3.400427">
        <ele>1642.245</ele>
        <time>2016-07-20T16:11:07Z</time>
      </trkpt>
      <trkpt lat="41.189978" lon="-3.400274">
        <ele>1641.568</ele>
        <time>2016-07-20T16:11:08Z</time>
      </trkpt>
      <trkpt lat="41.189980" lon="-3.400057">
        <ele>1639.828</ele>
        <time>2016-07-20T16:11:10Z</time>
      </trkpt>
      <trkpt lat="41.190127" lon="-3.399782">
        <ele>1635.236</ele>
        <time>2016-07-20T16:11:13Z</time>
      </trkpt>
      <trkpt lat="41.190194" lon="-3.399649">
        <ele>1633.691</ele>
        <time>2016-07-20T16:11:14Z</time>
      </trkpt>
      <trkpt lat="41.190249" lon="-3.399500">
        <ele>1632.381</ele>
        <time>2016-07-20T16:11:15Z</time>
      </trkpt>
      <trkpt lat="41.190274" lon="-3.399332">
        <ele>1631.319</ele>
        <time>2016-07-20T16:11:16Z</time>
      </trkpt>
      <trkpt lat="41.190261" lon="-3.399152">
        <ele>1631.108</ele>
        <time>2016-07-20T16:11:17Z</time>
      </trkpt>
      <trkpt lat="41.190213" lon="-3.399010">
        <ele>1631.010</ele>
        <time>2016-07-20T16:11:18Z</time>
      </trkpt>
      <trkpt lat="41.190152" lon="-3.398858">
        <ele>1630.883</ele>
        <time>2016-07-20T16:11:19Z</time>
      </trkpt>
      <trkpt lat="41.190091" lon="-3.398691">
        <ele>1630.429</ele>
        <time>2016-07-20T16:11:20Z</time>
      </trkpt>
      <trkpt lat="41.190024" lon="-3.398533">
        <ele>1630.165</ele>
        <time>2016-07-20T16:11:21Z</time>
      </trkpt>
      <trkpt lat="41.189951" lon="-3.398369">
        <ele>1629.960</ele>
        <time>2016-07-20T16:11:22Z</time>
      </trkpt>
      <trkpt lat="41.189871" lon="-3.398221">
        <ele>1629.713</ele>
        <time>2016-07-20T16:11:23Z</time>
      </trkpt>
      <trkpt lat="41.189779" lon="-3.398080">
        <ele>1629.443</ele>
        <time>2016-07-20T16:11:24Z</time>
      </trkpt>
      <trkpt lat="41.189682" lon="-3.397942">
        <ele>1629.231</ele>
        <time>2016-07-20T16:11:25Z</time>
      </trkpt>
      <trkpt lat="41.189580" lon="-3.397819">
        <ele>1628.864</ele>
        <time>2016-07-20T16:11:26Z</time>
      </trkpt>
      <trkpt lat="41.189471" lon="-3.397708">
        <ele>1628.406</ele>
        <time>2016-07-20T16:11:27Z</time>
      </trkpt>
      <trkpt lat="41.189355" lon="-3.397604">
        <ele>1628.016</ele>
        <time>2016-07-20T16:11:28Z</time>
      </trkpt>
      <trkpt lat="41.189233" lon="-3.397509">
        <ele>1627.508</ele>
        <time>2016-07-20T16:11:29Z</time>
      </trkpt>
      <trkpt lat="41.189105" lon="-3.397416">
        <ele>1626.997</ele>
        <time>2016-07-20T16:11:30Z</time>
      </trkpt>
      <trkpt lat="41.188974" lon="-3.397322">
        <ele>1626.110</ele>
        <time>2016-07-20T16:11:31Z</time>
      </trkpt>
      <trkpt lat="41.188839" lon="-3.397232">
        <ele>1625.476</ele>
        <time>2016-07-20T16:11:32Z</time>
      </trkpt>
      <trkpt lat="41.188702" lon="-3.397151">
        <ele>1624.592</ele>
        <time>2016-07-20T16:11:34Z</time>
      </trkpt>
      <trkpt lat="41.188565" lon="-3.397067">
        <ele>1623.717</ele>
        <time>2016-07-20T16:11:35Z</time>
      </trkpt>
      <trkpt lat="41.188431" lon="-3.396988">
        <ele>1622.810</ele>
        <time>2016-07-20T16:11:36Z</time>
      </trkpt>
      <trkpt lat="41.188297" lon="-3.396909">
        <ele>1621.930</ele>
        <time>2016-07-20T16:11:37Z</time>
      </trkpt>
      <trkpt lat="41.188164" lon="-3.396833">
        <ele>1620.868</ele>
        <time>2016-07-20T16:11:38Z</time>
      </trkpt>
      <trkpt lat="41.188032" lon="-3.396761">
        <ele>1619.262</ele>
        <time>2016-07-20T16:11:39Z</time>
      </trkpt>
      <trkpt lat="41.187901" lon="-3.396682">
        <ele>1617.283</ele>
        <time>2016-07-20T16:11:40Z</time>
      </trkpt>
      <trkpt lat="41.187779" lon="-3.396596">
        <ele>1615.311</ele>
        <time>2016-07-20T16:11:41Z</time>
      </trkpt>
      <trkpt lat="41.187658" lon="-3.396493">
        <ele>1613.108</ele>
        <time>2016-07-20T16:11:42Z</time>
      </trkpt>
      <trkpt lat="41.187545" lon="-3.396371">
        <ele>1610.857</ele>
        <time>2016-07-20T16:11:43Z</time>
      </trkpt>
      <trkpt lat="41.187440" lon="-3.396237">
        <ele>1608.520</ele>
        <time>2016-07-20T16:11:44Z</time>
      </trkpt>
      <trkpt lat="41.187342" lon="-3.396102">
        <ele>1606.636</ele>
        <time>2016-07-20T16:11:45Z</time>
      </trkpt>
      <trkpt lat="41.187244" lon="-3.395961">
        <ele>1604.922</ele>
        <time>2016-07-20T16:11:46Z</time>
      </trkpt>
      <trkpt lat="41.187153" lon="-3.395814">
        <ele>1603.437</ele>
        <time>2016-07-20T16:11:47Z</time>
      </trkpt>
      <trkpt lat="41.187065" lon="-3.395659">
        <ele>1601.850</ele>
        <time>2016-07-20T16:11:48Z</time>
      </trkpt>
      <trkpt lat="41.186973" lon="-3.395479">
        <ele>1600.890</ele>
        <time>2016-07-20T16:11:49Z</time>
      </trkpt>
      <trkpt lat="41.186881" lon="-3.395304">
        <ele>1600.358</ele>
        <time>2016-07-20T16:11:50Z</time>
      </trkpt>
      <trkpt lat="41.186801" lon="-3.395134">
        <ele>1600.367</ele>
        <time>2016-07-20T16:11:51Z</time>
      </trkpt>
      <trkpt lat="41.186726" lon="-3.394962">
        <ele>1600.481</ele>
        <time>2016-07-20T16:11:52Z</time>
      </trkpt>
      <trkpt lat="41.186650" lon="-3.394785">
        <ele>1600.519</ele>
        <time>2016-07-20T16:11:53Z</time>
      </trkpt>
      <trkpt lat="41.186571" lon="-3.394600">
        <ele>1600.408</ele>
        <time>2016-07-20T16:11:54Z</time>
      </trkpt>
      <trkpt lat="41.186493" lon="-3.394417">
        <ele>1600.467</ele>
        <time>2016-07-20T16:11:55Z</time>
      </trkpt>
      <trkpt lat="41.186414" lon="-3.394259">
        <ele>1600.390</ele>
        <time>2016-07-20T16:11:56Z</time>
      </trkpt>
      <trkpt lat="41.186326" lon="-3.394124">
        <ele>1599.986</ele>
        <time>2016-07-20T16:11:57Z</time>
      </trkpt>
      <trkpt lat="41.186231" lon="-3.393998">
        <ele>1599.142</ele>
        <time>2016-07-20T16:11:58Z</time>
      </trkpt>
      <trkpt lat="41.186113" lon="-3.393870">
        <ele>1597.917</ele>
        <time>2016-07-20T16:11:59Z</time>
      </trkpt>
      <trkpt lat="41.185996" lon="-3.393744">
        <ele>1596.350</ele>
        <time>2016-07-20T16:12:00Z</time>
      </trkpt>
      <trkpt lat="41.185870" lon="-3.393620">
        <ele>1594.940</ele>
        <time>2016-07-20T16:12:01Z</time>
      </trkpt>
      <trkpt lat="41.185737" lon="-3.393497">
        <ele>1593.898</ele>
        <time>2016-07-20T16:12:02Z</time>
      </trkpt>
      <trkpt lat="41.185601" lon="-3.393376">
        <ele>1593.216</ele>
        <time>2016-07-20T16:12:03Z</time>
      </trkpt>
      <trkpt lat="41.185467" lon="-3.393255">
        <ele>1592.876</ele>
        <time>2016-07-20T16:12:04Z</time>
      </trkpt>
      <trkpt lat="41.185327" lon="-3.393129">
        <ele>1592.513</ele>
        <time>2016-07-20T16:12:05Z</time>
      </trkpt>
      <trkpt lat="41.185188" lon="-3.393009">
        <ele>1592.308</ele>
        <time>2016-07-20T16:12:06Z</time>
      </trkpt>
      <trkpt lat="41.185048" lon="-3.392889">
        <ele>1592.082</ele>
        <time>2016-07-20T16:12:07Z</time>
      </trkpt>
      <trkpt lat="41.184910" lon="-3.392765">
        <ele>1591.415</ele>
        <time>2016-07-20T16:12:08Z</time>
      </trkpt>
      <trkpt lat="41.184769" lon="-3.392642">
        <ele>1590.691</ele>
        <time>2016-07-20T16:12:09Z</time>
      </trkpt>
      <trkpt lat="41.184632" lon="-3.392508">
        <ele>1589.787</ele>
        <time>2016-07-20T16:12:10Z</time>
      </trkpt>
      <trkpt lat="41.184495" lon="-3.392375">
        <ele>1588.782</ele>
        <time>2016-07-20T16:12:11Z</time>
      </trkpt>
      <trkpt lat="41.184358" lon="-3.392236">
        <ele>1587.695</ele>
        <time>2016-07-20T16:12:12Z</time>
      </trkpt>
      <trkpt lat="41.184221" lon="-3.392096">
        <ele>1586.595</ele>
        <time>2016-07-20T16:12:13Z</time>
      </trkpt>
      <trkpt lat="41.184081" lon="-3.391954">
        <ele>1585.683</ele>
        <time>2016-07-20T16:12:14Z</time>
      </trkpt>
      <trkpt lat="41.183798" lon="-3.391687">
        <ele>1584.093</ele>
        <time>2016-07-20T16:12:15Z</time>
      </trkpt>
      <trkpt lat="41.183653" lon="-3.391559">
        <ele>1583.165</ele>
        <time>2016-07-20T16:12:16Z</time>
      </trkpt>
      <trkpt lat="41.183513" lon="-3.391424">
        <ele>1582.021</ele>
        <time>2016-07-20T16:12:17Z</time>
      </trkpt>
      <trkpt lat="41.183370" lon="-3.391287">
        <ele>1581.008</ele>
        <time>2016-07-20T16:12:18Z</time>
      </trkpt>
      <trkpt lat="41.183232" lon="-3.391147">
        <ele>1580.030</ele>
        <time>2016-07-20T16:12:19Z</time>
      </trkpt>
      <trkpt lat="41.183100" lon="-3.390997">
        <ele>1579.123</ele>
        <time>2016-07-20T16:12:20Z</time>
      </trkpt>
      <trkpt lat="41.182977" lon="-3.390836">
        <ele>1578.389</ele>
        <time>2016-07-20T16:12:21Z</time>
      </trkpt>
      <trkpt lat="41.182858" lon="-3.390670">
        <ele>1577.435</ele>
        <time>2016-07-20T16:12:22Z</time>
      </trkpt>
      <trkpt lat="41.182747" lon="-3.390497">
        <ele>1576.410</ele>
        <time>2016-07-20T16:12:23Z</time>
      </trkpt>
      <trkpt lat="41.182636" lon="-3.390313">
        <ele>1575.423</ele>
        <time>2016-07-20T16:12:24Z</time>
      </trkpt>
      <trkpt lat="41.182532" lon="-3.390129">
        <ele>1574.473</ele>
        <time>2016-07-20T16:12:25Z</time>
      </trkpt>
      <trkpt lat="41.182443" lon="-3.389953">
        <ele>1573.261</ele>
        <time>2016-07-20T16:12:26Z</time>
      </trkpt>
      <trkpt lat="41.182369" lon="-3.389800">
        <ele>1572.115</ele>
        <time>2016-07-20T16:12:27Z</time>
      </trkpt>
      <trkpt lat="41.182297" lon="-3.389662">
        <ele>1570.865</ele>
        <time>2016-07-20T16:12:28Z</time>
      </trkpt>
      <trkpt lat="41.182225" lon="-3.389532">
        <ele>1569.711</ele>
        <time>2016-07-20T16:12:29Z</time>
      </trkpt>
      <trkpt lat="41.182137" lon="-3.389434">
        <ele>1568.608</ele>
        <time>2016-07-20T16:12:30Z</time>
      </trkpt>
      <trkpt lat="41.182031" lon="-3.389349">
        <ele>1567.692</ele>
        <time>2016-07-20T16:12:31Z</time>
      </trkpt>
      <trkpt lat="41.181916" lon="-3.389267">
        <ele>1566.395</ele>
        <time>2016-07-20T16:12:32Z</time>
      </trkpt>
      <trkpt lat="41.181784" lon="-3.389179">
        <ele>1565.271</ele>
        <time>2016-07-20T16:12:33Z</time>
      </trkpt>
      <trkpt lat="41.181648" lon="-3.389091">
        <ele>1564.317</ele>
        <time>2016-07-20T16:12:34Z</time>
      </trkpt>
      <trkpt lat="41.181514" lon="-3.389006">
        <ele>1563.532</ele>
        <time>2016-07-20T16:12:35Z</time>
      </trkpt>
      <trkpt lat="41.181380" lon="-3.388904">
        <ele>1562.755</ele>
        <time>2016-07-20T16:12:36Z</time>
      </trkpt>
      <trkpt lat="41.181256" lon="-3.388778">
        <ele>1561.945</ele>
        <time>2016-07-20T16:12:37Z</time>
      </trkpt>
      <trkpt lat="41.181142" lon="-3.388642">
        <ele>1561.233</ele>
        <time>2016-07-20T16:12:38Z</time>
      </trkpt>
      <trkpt lat="41.181022" lon="-3.388513">
        <ele>1560.582</ele>
        <time>2016-07-20T16:12:39Z</time>
      </trkpt>
      <trkpt lat="41.180892" lon="-3.388391">
        <ele>1559.943</ele>
        <time>2016-07-20T16:12:40Z</time>
      </trkpt>
      <trkpt lat="41.180759" lon="-3.388279">
        <ele>1559.217</ele>
        <time>2016-07-20T16:12:41Z</time>
      </trkpt>
      <trkpt lat="41.180631" lon="-3.388191">
        <ele>1558.308</ele>
        <time>2016-07-20T16:12:42Z</time>
      </trkpt>
      <trkpt lat="41.180501" lon="-3.388124">
        <ele>1557.169</ele>
        <time>2016-07-20T16:12:43Z</time>
      </trkpt>
      <trkpt lat="41.180354" lon="-3.388070">
        <ele>1555.962</ele>
        <time>2016-07-20T16:12:44Z</time>
      </trkpt>
      <trkpt lat="41.180206" lon="-3.388044">
        <ele>1554.928</ele>
        <time>2016-07-20T16:12:46Z</time>
      </trkpt>
      <trkpt lat="41.180057" lon="-3.388033">
        <ele>1553.964</ele>
        <time>2016-07-20T16:12:46Z</time>
      </trkpt>
      <trkpt lat="41.179916" lon="-3.388028">
        <ele>1552.779</ele>
        <time>2016-07-20T16:12:47Z</time>
      </trkpt>
      <trkpt lat="41.179761" lon="-3.388004">
        <ele>1550.982</ele>
        <time>2016-07-20T16:12:49Z</time>
      </trkpt>
      <trkpt lat="41.179607" lon="-3.387965">
        <ele>1549.062</ele>
        <time>2016-07-20T16:12:50Z</time>
      </trkpt>
      <trkpt lat="41.179451" lon="-3.387914">
        <ele>1547.050</ele>
        <time>2016-07-20T16:12:51Z</time>
      </trkpt>
      <trkpt lat="41.179290" lon="-3.387849">
        <ele>1545.151</ele>
        <time>2016-07-20T16:12:52Z</time>
      </trkpt>
      <trkpt lat="41.179128" lon="-3.387783">
        <ele>1543.401</ele>
        <time>2016-07-20T16:12:53Z</time>
      </trkpt>
      <trkpt lat="41.178964" lon="-3.387707">
        <ele>1541.811</ele>
        <time>2016-07-20T16:12:54Z</time>
      </trkpt>
      <trkpt lat="41.178805" lon="-3.387623">
        <ele>1540.308</ele>
        <time>2016-07-20T16:12:55Z</time>
      </trkpt>
      <trkpt lat="41.178651" lon="-3.387521">
        <ele>1539.036</ele>
        <time>2016-07-20T16:12:56Z</time>
      </trkpt>
      <trkpt lat="41.178499" lon="-3.387409">
        <ele>1537.799</ele>
        <time>2016-07-20T16:12:57Z</time>
      </trkpt>
      <trkpt lat="41.178351" lon="-3.387285">
        <ele>1536.345</ele>
        <time>2016-07-20T16:12:58Z</time>
      </trkpt>
      <trkpt lat="41.178204" lon="-3.387156">
        <ele>1534.731</ele>
        <time>2016-07-20T16:12:59Z</time>
      </trkpt>
      <trkpt lat="41.178059" lon="-3.387008">
        <ele>1533.186</ele>
        <time>2016-07-20T16:13:00Z</time>
      </trkpt>
      <trkpt lat="41.177918" lon="-3.386864">
        <ele>1531.549</ele>
        <time>2016-07-20T16:13:01Z</time>
      </trkpt>
      <trkpt lat="41.177778" lon="-3.386709">
        <ele>1529.999</ele>
        <time>2016-07-20T16:13:02Z</time>
      </trkpt>
      <trkpt lat="41.177643" lon="-3.386562">
        <ele>1528.377</ele>
        <time>2016-07-20T16:13:03Z</time>
      </trkpt>
      <trkpt lat="41.177513" lon="-3.386416">
        <ele>1526.853</ele>
        <time>2016-07-20T16:13:04Z</time>
      </trkpt>
      <trkpt lat="41.177394" lon="-3.386285">
        <ele>1525.504</ele>
        <time>2016-07-20T16:13:05Z</time>
      </trkpt>
      <trkpt lat="41.177289" lon="-3.386175">
        <ele>1524.114</ele>
        <time>2016-07-20T16:13:06Z</time>
      </trkpt>
      <trkpt lat="41.177181" lon="-3.386075">
        <ele>1522.908</ele>
        <time>2016-07-20T16:13:07Z</time>
      </trkpt>
      <trkpt lat="41.177078" lon="-3.386006">
        <ele>1521.796</ele>
        <time>2016-07-20T16:13:08Z</time>
      </trkpt>
      <trkpt lat="41.176969" lon="-3.385969">
        <ele>1520.679</ele>
        <time>2016-07-20T16:13:09Z</time>
      </trkpt>
      <trkpt lat="41.176850" lon="-3.385949">
        <ele>1519.435</ele>
        <time>2016-07-20T16:13:10Z</time>
      </trkpt>
      <trkpt lat="41.176728" lon="-3.385945">
        <ele>1518.081</ele>
        <time>2016-07-20T16:13:11Z</time>
      </trkpt>
      <trkpt lat="41.176613" lon="-3.385959">
        <ele>1516.886</ele>
        <time>2016-07-20T16:13:12Z</time>
      </trkpt>
      <trkpt lat="41.176513" lon="-3.385992">
        <ele>1515.779</ele>
        <time>2016-07-20T16:13:13Z</time>
      </trkpt>
      <trkpt lat="41.176409" lon="-3.386062">
        <ele>1514.479</ele>
        <time>2016-07-20T16:13:14Z</time>
      </trkpt>
      <trkpt lat="41.176309" lon="-3.386153">
        <ele>1513.077</ele>
        <time>2016-07-20T16:13:15Z</time>
      </trkpt>
      <trkpt lat="41.176213" lon="-3.386255">
        <ele>1511.692</ele>
        <time>2016-07-20T16:13:16Z</time>
      </trkpt>
      <trkpt lat="41.176107" lon="-3.386365">
        <ele>1510.273</ele>
        <time>2016-07-20T16:13:17Z</time>
      </trkpt>
      <trkpt lat="41.175990" lon="-3.386459">
        <ele>1508.820</ele>
        <time>2016-07-20T16:13:18Z</time>
      </trkpt>
      <trkpt lat="41.175872" lon="-3.386527">
        <ele>1507.408</ele>
        <time>2016-07-20T16:13:19Z</time>
      </trkpt>
      <trkpt lat="41.175747" lon="-3.386552">
        <ele>1506.050</ele>
        <time>2016-07-20T16:13:20Z</time>
      </trkpt>
      <trkpt lat="41.175606" lon="-3.386543">
        <ele>1504.653</ele>
        <time>2016-07-20T16:13:21Z</time>
      </trkpt>
      <trkpt lat="41.175472" lon="-3.386504">
        <ele>1503.479</ele>
        <time>2016-07-20T16:13:22Z</time>
      </trkpt>
      <trkpt lat="41.175341" lon="-3.386456">
        <ele>1502.555</ele>
        <time>2016-07-20T16:13:23Z</time>
      </trkpt>
      <trkpt lat="41.175216" lon="-3.386404">
        <ele>1502.210</ele>
        <time>2016-07-20T16:13:24Z</time>
      </trkpt>
      <trkpt lat="41.175084" lon="-3.386354">
        <ele>1502.613</ele>
        <time>2016-07-20T16:13:25Z</time>
      </trkpt>
      <trkpt lat="41.174953" lon="-3.386298">
        <ele>1502.663</ele>
        <time>2016-07-20T16:13:26Z</time>
      </trkpt>
      <trkpt lat="41.174831" lon="-3.386239">
        <ele>1502.521</ele>
        <time>2016-07-20T16:13:27Z</time>
      </trkpt>
      <trkpt lat="41.174714" lon="-3.386184">
        <ele>1502.264</ele>
        <time>2016-07-20T16:13:28Z</time>
      </trkpt>
      <trkpt lat="41.174602" lon="-3.386137">
        <ele>1502.006</ele>
        <time>2016-07-20T16:13:29Z</time>
      </trkpt>
      <trkpt lat="41.174493" lon="-3.386110">
        <ele>1501.816</ele>
        <time>2016-07-20T16:13:30Z</time>
      </trkpt>
      <trkpt lat="41.174379" lon="-3.386111">
        <ele>1501.208</ele>
        <time>2016-07-20T16:13:31Z</time>
      </trkpt>
      <trkpt lat="41.174264" lon="-3.386141">
        <ele>1500.277</ele>
        <time>2016-07-20T16:13:32Z</time>
      </trkpt>
      <trkpt lat="41.174148" lon="-3.386175">
        <ele>1499.040</ele>
        <time>2016-07-20T16:13:33Z</time>
      </trkpt>
      <trkpt lat="41.174035" lon="-3.386199">
        <ele>1497.856</ele>
        <time>2016-07-20T16:13:34Z</time>
      </trkpt>
      <trkpt lat="41.173911" lon="-3.386205">
        <ele>1496.912</ele>
        <time>2016-07-20T16:13:35Z</time>
      </trkpt>
      <trkpt lat="41.173785" lon="-3.386195">
        <ele>1496.177</ele>
        <time>2016-07-20T16:13:36Z</time>
      </trkpt>
      <trkpt lat="41.173665" lon="-3.386173">
        <ele>1495.730</ele>
        <time>2016-07-20T16:13:37Z</time>
      </trkpt>
      <trkpt lat="41.173555" lon="-3.386142">
        <ele>1495.320</ele>
        <time>2016-07-20T16:13:38Z</time>
      </trkpt>
      <trkpt lat="41.173456" lon="-3.386111">
        <ele>1495.128</ele>
        <time>2016-07-20T16:13:39Z</time>
      </trkpt>
      <trkpt lat="41.173302" lon="-3.386106">
        <ele>1494.246</ele>
        <time>2016-07-20T16:13:41Z</time>
      </trkpt>
      <trkpt lat="41.173209" lon="-3.386216">
        <ele>1492.288</ele>
        <time>2016-07-20T16:13:43Z</time>
      </trkpt>
      <trkpt lat="41.173222" lon="-3.386424">
        <ele>1490.016</ele>
        <time>2016-07-20T16:13:45Z</time>
      </trkpt>
      <trkpt lat="41.173259" lon="-3.386534">
        <ele>1488.408</ele>
        <time>2016-07-20T16:13:46Z</time>
      </trkpt>
      <trkpt lat="41.173311" lon="-3.386654">
        <ele>1487.165</ele>
        <time>2016-07-20T16:13:47Z</time>
      </trkpt>
      <trkpt lat="41.173370" lon="-3.386770">
        <ele>1485.438</ele>
        <time>2016-07-20T16:13:48Z</time>
      </trkpt>
      <trkpt lat="41.173428" lon="-3.386874">
        <ele>1483.484</ele>
        <time>2016-07-20T16:13:49Z</time>
      </trkpt>
      <trkpt lat="41.173493" lon="-3.386991">
        <ele>1481.680</ele>
        <time>2016-07-20T16:13:50Z</time>
      </trkpt>
      <trkpt lat="41.173558" lon="-3.387108">
        <ele>1479.935</ele>
        <time>2016-07-20T16:13:51Z</time>
      </trkpt>
      <trkpt lat="41.173626" lon="-3.387239">
        <ele>1478.448</ele>
        <time>2016-07-20T16:13:52Z</time>
      </trkpt>
      <trkpt lat="41.173690" lon="-3.387381">
        <ele>1476.798</ele>
        <time>2016-07-20T16:13:53Z</time>
      </trkpt>
      <trkpt lat="41.173755" lon="-3.387534">
        <ele>1475.426</ele>
        <time>2016-07-20T16:13:54Z</time>
      </trkpt>
      <trkpt lat="41.173815" lon="-3.387680">
        <ele>1474.084</ele>
        <time>2016-07-20T16:13:55Z</time>
      </trkpt>
      <trkpt lat="41.173879" lon="-3.387833">
        <ele>1473.007</ele>
        <time>2016-07-20T16:13:56Z</time>
      </trkpt>
      <trkpt lat="41.173943" lon="-3.387989">
        <ele>1472.017</ele>
        <time>2016-07-20T16:13:57Z</time>
      </trkpt>
      <trkpt lat="41.174005" lon="-3.388158">
        <ele>1471.308</ele>
        <time>2016-07-20T16:13:58Z</time>
      </trkpt>
      <trkpt lat="41.174066" lon="-3.388331">
        <ele>1470.629</ele>
        <time>2016-07-20T16:13:59Z</time>
      </trkpt>
      <trkpt lat="41.174122" lon="-3.388513">
        <ele>1469.952</ele>
        <time>2016-07-20T16:14:00Z</time>
      </trkpt>
      <trkpt lat="41.174176" lon="-3.388685">
        <ele>1468.818</ele>
        <time>2016-07-20T16:14:01Z</time>
      </trkpt>
      <trkpt lat="41.174233" lon="-3.388869">
        <ele>1467.784</ele>
        <time>2016-07-20T16:14:02Z</time>
      </trkpt>
      <trkpt lat="41.174293" lon="-3.389055">
        <ele>1466.679</ele>
        <time>2016-07-20T16:14:03Z</time>
      </trkpt>
      <trkpt lat="41.174355" lon="-3.389249">
        <ele>1465.772</ele>
        <time>2016-07-20T16:14:04Z</time>
      </trkpt>
      <trkpt lat="41.174424" lon="-3.389435">
        <ele>1464.852</ele>
        <time>2016-07-20T16:14:05Z</time>
      </trkpt>
      <trkpt lat="41.174504" lon="-3.389620">
        <ele>1463.980</ele>
        <time>2016-07-20T16:14:06Z</time>
      </trkpt>
      <trkpt lat="41.174593" lon="-3.389800">
        <ele>1462.514</ele>
        <time>2016-07-20T16:14:07Z</time>
      </trkpt>
      <trkpt lat="41.174686" lon="-3.389978">
        <ele>1461.654</ele>
        <time>2016-07-20T16:14:08Z</time>
      </trkpt>
      <trkpt lat="41.174872" lon="-3.390346">
        <ele>1459.709</ele>
        <time>2016-07-20T16:14:09Z</time>
      </trkpt>
      <trkpt lat="41.174971" lon="-3.390533">
        <ele>1458.908</ele>
        <time>2016-07-20T16:14:10Z</time>
      </trkpt>
      <trkpt lat="41.175074" lon="-3.390705">
        <ele>1458.152</ele>
        <time>2016-07-20T16:14:11Z</time>
      </trkpt>
      <trkpt lat="41.175175" lon="-3.390861">
        <ele>1457.125</ele>
        <time>2016-07-20T16:14:12Z</time>
      </trkpt>
      <trkpt lat="41.175284" lon="-3.390996">
        <ele>1456.351</ele>
        <time>2016-07-20T16:14:13Z</time>
      </trkpt>
      <trkpt lat="41.175401" lon="-3.391107">
        <ele>1455.467</ele>
        <time>2016-07-20T16:14:14Z</time>
      </trkpt>
      <trkpt lat="41.175533" lon="-3.391202">
        <ele>1454.552</ele>
        <time>2016-07-20T16:14:15Z</time>
      </trkpt>
      <trkpt lat="41.175672" lon="-3.391265">
        <ele>1453.755</ele>
        <time>2016-07-20T16:14:16Z</time>
      </trkpt>
      <trkpt lat="41.175817" lon="-3.391314">
        <ele>1452.785</ele>
        <time>2016-07-20T16:14:17Z</time>
      </trkpt>
      <trkpt lat="41.175965" lon="-3.391357">
        <ele>1451.653</ele>
        <time>2016-07-20T16:14:18Z</time>
      </trkpt>
      <trkpt lat="41.176116" lon="-3.391396">
        <ele>1450.523</ele>
        <time>2016-07-20T16:14:19Z</time>
      </trkpt>
      <trkpt lat="41.176269" lon="-3.391435">
        <ele>1449.483</ele>
        <time>2016-07-20T16:14:20Z</time>
      </trkpt>
      <trkpt lat="41.176420" lon="-3.391477">
        <ele>1448.111</ele>
        <time>2016-07-20T16:14:21Z</time>
      </trkpt>
      <trkpt lat="41.176562" lon="-3.391526">
        <ele>1446.908</ele>
        <time>2016-07-20T16:14:22Z</time>
      </trkpt>
      <trkpt lat="41.176681" lon="-3.391581">
        <ele>1445.773</ele>
        <time>2016-07-20T16:14:23Z</time>
      </trkpt>
      <trkpt lat="41.176767" lon="-3.391636">
        <ele>1445.176</ele>
        <time>2016-07-20T16:14:24Z</time>
      </trkpt>
      <trkpt lat="41.176878" lon="-3.391757">
        <ele>1443.472</ele>
        <time>2016-07-20T16:14:26Z</time>
      </trkpt>
      <trkpt lat="41.176944" lon="-3.391862">
        <ele>1442.868</ele>
        <time>2016-07-20T16:14:27Z</time>
      </trkpt>
      <trkpt lat="41.177004" lon="-3.391959">
        <ele>1442.573</ele>
        <time>2016-07-20T16:14:28Z</time>
      </trkpt>
      <trkpt lat="41.177074" lon="-3.392064">
        <ele>1442.016</ele>
        <time>2016-07-20T16:14:29Z</time>
      </trkpt>
      <trkpt lat="41.177160" lon="-3.392164">
        <ele>1441.576</ele>
        <time>2016-07-20T16:14:30Z</time>
      </trkpt>
      <trkpt lat="41.177256" lon="-3.392259">
        <ele>1440.644</ele>
        <time>2016-07-20T16:14:31Z</time>
      </trkpt>
      <trkpt lat="41.177360" lon="-3.392347">
        <ele>1439.326</ele>
        <time>2016-07-20T16:14:32Z</time>
      </trkpt>
      <trkpt lat="41.177477" lon="-3.392438">
        <ele>1437.847</ele>
        <time>2016-07-20T16:14:33Z</time>
      </trkpt>
      <trkpt lat="41.177600" lon="-3.392529">
        <ele>1436.511</ele>
        <time>2016-07-20T16:14:34Z</time>
      </trkpt>
      <trkpt lat="41.177722" lon="-3.392621">
        <ele>1435.108</ele>
        <time>2016-07-20T16:14:35Z</time>
      </trkpt>
      <trkpt lat="41.177846" lon="-3.392713">
        <ele>1433.253</ele>
        <time>2016-07-20T16:14:36Z</time>
      </trkpt>
      <trkpt lat="41.177988" lon="-3.392814">
        <ele>1431.676</ele>
        <time>2016-07-20T16:14:37Z</time>
      </trkpt>
      <trkpt lat="41.178134" lon="-3.392921">
        <ele>1430.162</ele>
        <time>2016-07-20T16:14:38Z</time>
      </trkpt>
      <trkpt lat="41.178278" lon="-3.393025">
        <ele>1428.578</ele>
        <time>2016-07-20T16:14:39Z</time>
      </trkpt>
      <trkpt lat="41.178422" lon="-3.393141">
        <ele>1427.113</ele>
        <time>2016-07-20T16:14:40Z</time>
      </trkpt>
      <trkpt lat="41.178557" lon="-3.393260">
        <ele>1425.716</ele>
        <time>2016-07-20T16:14:41Z</time>
      </trkpt>
      <trkpt lat="41.178684" lon="-3.393389">
        <ele>1424.236</ele>
        <time>2016-07-20T16:14:43Z</time>
      </trkpt>
      <trkpt lat="41.178814" lon="-3.393529">
        <ele>1422.774</ele>
        <time>2016-07-20T16:14:44Z</time>
      </trkpt>
      <trkpt lat="41.178943" lon="-3.393673">
        <ele>1421.237</ele>
        <time>2016-07-20T16:14:45Z</time>
      </trkpt>
      <trkpt lat="41.179063" lon="-3.393810">
        <ele>1419.949</ele>
        <time>2016-07-20T16:14:46Z</time>
      </trkpt>
      <trkpt lat="41.179182" lon="-3.393938">
        <ele>1418.713</ele>
        <time>2016-07-20T16:14:47Z</time>
      </trkpt>
      <trkpt lat="41.179286" lon="-3.394047">
        <ele>1417.408</ele>
        <time>2016-07-20T16:14:48Z</time>
      </trkpt>
      <trkpt lat="41.179386" lon="-3.394129">
        <ele>1416.084</ele>
        <time>2016-07-20T16:14:49Z</time>
      </trkpt>
      <trkpt lat="41.179482" lon="-3.394194">
        <ele>1414.217</ele>
        <time>2016-07-20T16:14:50Z</time>
      </trkpt>
      <trkpt lat="41.179582" lon="-3.394259">
        <ele>1412.513</ele>
        <time>2016-07-20T16:14:51Z</time>
      </trkpt>
      <trkpt lat="41.179694" lon="-3.394308">
        <ele>1411.319</ele>
        <time>2016-07-20T16:14:52Z</time>
      </trkpt>
      <trkpt lat="41.179780" lon="-3.394351">
        <ele>1409.944</ele>
        <time>2016-07-20T16:14:53Z</time>
      </trkpt>
      <trkpt lat="41.179910" lon="-3.394459">
        <ele>1407.547</ele>
        <time>2016-07-20T16:14:55Z</time>
      </trkpt>
      <trkpt lat="41.179967" lon="-3.394625">
        <ele>1405.987</ele>
        <time>2016-07-20T16:14:57Z</time>
      </trkpt>
      <trkpt lat="41.179972" lon="-3.394798">
        <ele>1405.095</ele>
        <time>2016-07-20T16:14:59Z</time>
      </trkpt>
      <trkpt lat="41.179949" lon="-3.394915">
        <ele>1404.779</ele>
        <time>2016-07-20T16:15:00Z</time>
      </trkpt>
      <trkpt lat="41.179911" lon="-3.395033">
        <ele>1404.205</ele>
        <time>2016-07-20T16:15:01Z</time>
      </trkpt>
      <trkpt lat="41.179854" lon="-3.395166">
        <ele>1403.525</ele>
        <time>2016-07-20T16:15:02Z</time>
      </trkpt>
      <trkpt lat="41.179794" lon="-3.395292">
        <ele>1402.708</ele>
        <time>2016-07-20T16:15:03Z</time>
      </trkpt>
      <trkpt lat="41.179733" lon="-3.395422">
        <ele>1402.218</ele>
        <time>2016-07-20T16:15:04Z</time>
      </trkpt>
      <trkpt lat="41.179673" lon="-3.395545">
        <ele>1401.591</ele>
        <time>2016-07-20T16:15:05Z</time>
      </trkpt>
      <trkpt lat="41.179632" lon="-3.395667">
        <ele>1401.117</ele>
        <time>2016-07-20T16:15:06Z</time>
      </trkpt>
      <trkpt lat="41.179604" lon="-3.395798">
        <ele>1400.223</ele>
        <time>2016-07-20T16:15:07Z</time>
      </trkpt>
      <trkpt lat="41.179602" lon="-3.395948">
        <ele>1399.168</ele>
        <time>2016-07-20T16:15:08Z</time>
      </trkpt>
      <trkpt lat="41.179620" lon="-3.396087">
        <ele>1397.761</ele>
        <time>2016-07-20T16:15:09Z</time>
      </trkpt>
      <trkpt lat="41.179655" lon="-3.396226">
        <ele>1396.461</ele>
        <time>2016-07-20T16:15:10Z</time>
      </trkpt>
      <trkpt lat="41.179701" lon="-3.396365">
        <ele>1395.279</ele>
        <time>2016-07-20T16:15:11Z</time>
      </trkpt>
      <trkpt lat="41.179757" lon="-3.396494">
        <ele>1393.971</ele>
        <time>2016-07-20T16:15:12Z</time>
      </trkpt>
      <trkpt lat="41.179828" lon="-3.396619">
        <ele>1392.541</ele>
        <time>2016-07-20T16:15:13Z</time>
      </trkpt>
      <trkpt lat="41.179923" lon="-3.396740">
        <ele>1391.015</ele>
        <time>2016-07-20T16:15:14Z</time>
      </trkpt>
      <trkpt lat="41.180023" lon="-3.396845">
        <ele>1389.208</ele>
        <time>2016-07-20T16:15:15Z</time>
      </trkpt>
      <trkpt lat="41.180121" lon="-3.396923">
        <ele>1387.458</ele>
        <time>2016-07-20T16:15:16Z</time>
      </trkpt>
      <trkpt lat="41.180212" lon="-3.396983">
        <ele>1385.721</ele>
        <time>2016-07-20T16:15:17Z</time>
      </trkpt>
      <trkpt lat="41.180297" lon="-3.397042">
        <ele>1384.497</ele>
        <time>2016-07-20T16:15:18Z</time>
      </trkpt>
      <trkpt lat="41.180457" lon="-3.397143">
        <ele>1382.823</ele>
        <time>2016-07-20T16:15:20Z</time>
      </trkpt>
      <trkpt lat="41.180567" lon="-3.397250">
        <ele>1382.948</ele>
        <time>2016-07-20T16:15:22Z</time>
      </trkpt>
      <trkpt lat="41.180601" lon="-3.397420">
        <ele>1383.421</ele>
        <time>2016-07-20T16:15:24Z</time>
      </trkpt>
      <trkpt lat="41.180499" lon="-3.397550">
        <ele>1384.721</ele>
        <time>2016-07-20T16:15:26Z</time>
      </trkpt>
      <trkpt lat="41.180344" lon="-3.397629">
        <ele>1384.769</ele>
        <time>2016-07-20T16:15:28Z</time>
      </trkpt>
      <trkpt lat="41.180247" lon="-3.397676">
        <ele>1384.245</ele>
        <time>2016-07-20T16:15:29Z</time>
      </trkpt>
      <trkpt lat="41.180147" lon="-3.397720">
        <ele>1383.247</ele>
        <time>2016-07-20T16:15:30Z</time>
      </trkpt>
      <trkpt lat="41.180038" lon="-3.397764">
        <ele>1381.811</ele>
        <time>2016-07-20T16:15:31Z</time>
      </trkpt>
      <trkpt lat="41.179933" lon="-3.397810">
        <ele>1380.508</ele>
        <time>2016-07-20T16:15:32Z</time>
      </trkpt>
      <trkpt lat="41.179837" lon="-3.397864">
        <ele>1379.515</ele>
        <time>2016-07-20T16:15:33Z</time>
      </trkpt>
      <trkpt lat="41.179758" lon="-3.397924">
        <ele>1378.278</ele>
        <time>2016-07-20T16:15:34Z</time>
      </trkpt>
      <trkpt lat="41.179679" lon="-3.398072">
        <ele>1375.844</ele>
        <time>2016-07-20T16:15:36Z</time>
      </trkpt>
      <trkpt lat="41.179712" lon="-3.398232">
        <ele>1372.880</ele>
        <time>2016-07-20T16:15:38Z</time>
      </trkpt>
      <trkpt lat="41.179794" lon="-3.398420">
        <ele>1370.735</ele>
        <time>2016-07-20T16:15:40Z</time>
      </trkpt>
      <trkpt lat="41.179847" lon="-3.398524">
        <ele>1369.868</ele>
        <time>2016-07-20T16:15:41Z</time>
      </trkpt>
      <trkpt lat="41.179907" lon="-3.398642">
        <ele>1368.838</ele>
        <time>2016-07-20T16:15:42Z</time>
      </trkpt>
      <trkpt lat="41.179977" lon="-3.398772">
        <ele>1367.816</ele>
        <time>2016-07-20T16:15:43Z</time>
      </trkpt>
      <trkpt lat="41.180044" lon="-3.398890">
        <ele>1366.616</ele>
        <time>2016-07-20T16:15:44Z</time>
      </trkpt>
      <trkpt lat="41.180114" lon="-3.399009">
        <ele>1365.476</ele>
        <time>2016-07-20T16:15:45Z</time>
      </trkpt>
      <trkpt lat="41.180181" lon="-3.399120">
        <ele>1364.613</ele>
        <time>2016-07-20T16:15:46Z</time>
      </trkpt>
      <trkpt lat="41.180245" lon="-3.399218">
        <ele>1363.708</ele>
        <time>2016-07-20T16:15:47Z</time>
      </trkpt>
      <trkpt lat="41.180305" lon="-3.399332">
        <ele>1363.432</ele>
        <time>2016-07-20T16:15:48Z</time>
      </trkpt>
      <trkpt lat="41.180354" lon="-3.399438">
        <ele>1363.165</ele>
        <time>2016-07-20T16:15:49Z</time>
      </trkpt>
      <trkpt lat="41.180401" lon="-3.399553">
        <ele>1363.071</ele>
        <time>2016-07-20T16:15:50Z</time>
      </trkpt>
      <trkpt lat="41.180485" lon="-3.399824">
        <ele>1362.417</ele>
        <time>2016-07-20T16:15:52Z</time>
      </trkpt>
      <trkpt lat="41.180512" lon="-3.399983">
        <ele>1361.552</ele>
        <time>2016-07-20T16:15:54Z</time>
      </trkpt>
      <trkpt lat="41.180514" lon="-3.400131">
        <ele>1360.695</ele>
        <time>2016-07-20T16:15:56Z</time>
      </trkpt>
      <trkpt lat="41.180482" lon="-3.400256">
        <ele>1360.065</ele>
        <time>2016-07-20T16:15:58Z</time>
      </trkpt>
      <trkpt lat="41.180432" lon="-3.400374">
        <ele>1359.463</ele>
        <time>2016-07-20T16:16:00Z</time>
      </trkpt>
      <trkpt lat="41.180371" lon="-3.400504">
        <ele>1359.279</ele>
        <time>2016-07-20T16:16:45Z</time>
      </trkpt>
      <trkpt lat="41.180323" lon="-3.400606">
        <ele>1358.605</ele>
        <time>2016-07-20T16:16:47Z</time>
      </trkpt>
      <trkpt lat="41.180261" lon="-3.400714">
        <ele>1358.125</ele>
        <time>2016-07-20T16:16:49Z</time>
      </trkpt>
      <trkpt lat="41.180173" lon="-3.400766">
        <ele>1357.708</ele>
        <time>2016-07-20T16:16:51Z</time>
      </trkpt>
      <trkpt lat="41.180077" lon="-3.400730">
        <ele>1357.928</ele>
        <time>2016-07-20T16:16:53Z</time>
      </trkpt>
      <trkpt lat="41.179974" lon="-3.400650">
        <ele>1358.581</ele>
        <time>2016-07-20T16:16:55Z</time>
      </trkpt>
      <trkpt lat="41.179880" lon="-3.400569">
        <ele>1359.617</ele>
        <time>2016-07-20T16:16:57Z</time>
      </trkpt>
      <trkpt lat="41.179766" lon="-3.400469">
        <ele>1361.873</ele>
        <time>2016-07-20T16:16:59Z</time>
      </trkpt>
      <trkpt lat="41.179632" lon="-3.400355">
        <ele>1364.628</ele>
        <time>2016-07-20T16:17:01Z</time>
      </trkpt>
      <trkpt lat="41.179493" lon="-3.400221">
        <ele>1367.291</ele>
        <time>2016-07-20T16:17:03Z</time>
      </trkpt>
      <trkpt lat="41.179384" lon="-3.400040">
        <ele>1370.091</ele>
        <time>2016-07-20T16:17:05Z</time>
      </trkpt>
      <trkpt lat="41.179223" lon="-3.399766">
        <ele>1374.129</ele>
        <time>2016-07-20T16:17:08Z</time>
      </trkpt>
      <trkpt lat="41.179081" lon="-3.399606">
        <ele>1376.696</ele>
        <time>2016-07-20T16:17:10Z</time>
      </trkpt>
      <trkpt lat="41.178941" lon="-3.399456">
        <ele>1379.131</ele>
        <time>2016-07-20T16:17:12Z</time>
      </trkpt>
      <trkpt lat="41.178798" lon="-3.399300">
        <ele>1381.124</ele>
        <time>2016-07-20T16:17:14Z</time>
      </trkpt>
      <trkpt lat="41.178727" lon="-3.399224">
        <ele>1381.908</ele>
        <time>2016-07-20T16:17:15Z</time>
      </trkpt>
      <trkpt lat="41.178602" lon="-3.399071">
        <ele>1383.670</ele>
        <time>2016-07-20T16:17:17Z</time>
      </trkpt>
      <trkpt lat="41.178525" lon="-3.398965">
        <ele>1384.363</ele>
        <time>2016-07-20T16:17:19Z</time>
      </trkpt>
      <trkpt lat="41.178461" lon="-3.398882">
        <ele>1383.749</ele>
        <time>2016-07-20T16:18:05Z</time>
      </trkpt>
      <trkpt lat="41.178391" lon="-3.398803">
        <ele>1382.015</ele>
        <time>2016-07-20T16:18:07Z</time>
      </trkpt>
      <trkpt lat="41.178298" lon="-3.398703">
        <ele>1381.510</ele>
        <time>2016-07-20T16:18:10Z</time>
      </trkpt>
      <trkpt lat="41.178157" lon="-3.398582">
        <ele>1381.733</ele>
        <time>2016-07-20T16:18:12Z</time>
      </trkpt>
      <trkpt lat="41.178066" lon="-3.398516">
        <ele>1382.353</ele>
        <time>2016-07-20T16:18:13Z</time>
      </trkpt>
      <trkpt lat="41.177978" lon="-3.398455">
        <ele>1383.441</ele>
        <time>2016-07-20T16:18:14Z</time>
      </trkpt>
      <trkpt lat="41.177879" lon="-3.398390">
        <ele>1384.421</ele>
        <time>2016-07-20T16:18:15Z</time>
      </trkpt>
      <trkpt lat="41.177792" lon="-3.398328">
        <ele>1386.041</ele>
        <time>2016-07-20T16:18:16Z</time>
      </trkpt>
      <trkpt lat="41.177704" lon="-3.398264">
        <ele>1387.605</ele>
        <time>2016-07-20T16:18:17Z</time>
      </trkpt>
      <trkpt lat="41.177613" lon="-3.398204">
        <ele>1389.208</ele>
        <time>2016-07-20T16:18:18Z</time>
      </trkpt>
      <trkpt lat="41.177518" lon="-3.398150">
        <ele>1390.863</ele>
        <time>2016-07-20T16:18:19Z</time>
      </trkpt>
      <trkpt lat="41.177429" lon="-3.398110">
        <ele>1392.666</ele>
        <time>2016-07-20T16:18:20Z</time>
      </trkpt>
      <trkpt lat="41.177336" lon="-3.398075">
        <ele>1394.242</ele>
        <time>2016-07-20T16:18:21Z</time>
      </trkpt>
      <trkpt lat="41.177241" lon="-3.398049">
        <ele>1395.828</ele>
        <time>2016-07-20T16:18:22Z</time>
      </trkpt>
      <trkpt lat="41.177146" lon="-3.398020">
        <ele>1397.163</ele>
        <time>2016-07-20T16:18:23Z</time>
      </trkpt>
      <trkpt lat="41.177038" lon="-3.397965">
        <ele>1397.856</ele>
        <time>2016-07-20T16:18:24Z</time>
      </trkpt>
      <trkpt lat="41.176941" lon="-3.397907">
        <ele>1398.366</ele>
        <time>2016-07-20T16:18:25Z</time>
      </trkpt>
      <trkpt lat="41.176850" lon="-3.397855">
        <ele>1399.024</ele>
        <time>2016-07-20T16:18:26Z</time>
      </trkpt>
      <trkpt lat="41.176755" lon="-3.397811">
        <ele>1399.666</ele>
        <time>2016-07-20T16:18:27Z</time>
      </trkpt>
      <trkpt lat="41.176656" lon="-3.397775">
        <ele>1399.929</ele>
        <time>2016-07-20T16:18:28Z</time>
      </trkpt>
      <trkpt lat="41.176559" lon="-3.397752">
        <ele>1400.021</ele>
        <time>2016-07-20T16:18:29Z</time>
      </trkpt>
      <trkpt lat="41.176453" lon="-3.397748">
        <ele>1400.508</ele>
        <time>2016-07-20T16:18:30Z</time>
      </trkpt>
      <trkpt lat="41.176352" lon="-3.397760">
        <ele>1400.947</ele>
        <time>2016-07-20T16:18:31Z</time>
      </trkpt>
      <trkpt lat="41.176262" lon="-3.397788">
        <ele>1401.490</ele>
        <time>2016-07-20T16:18:32Z</time>
      </trkpt>
      <trkpt lat="41.176128" lon="-3.397875">
        <ele>1400.486</ele>
        <time>2016-07-20T16:18:34Z</time>
      </trkpt>
      <trkpt lat="41.176034" lon="-3.397955">
        <ele>1399.192</ele>
        <time>2016-07-20T16:18:52Z</time>
      </trkpt>
      <trkpt lat="41.175952" lon="-3.398044">
        <ele>1396.927</ele>
        <time>2016-07-20T16:18:54Z</time>
      </trkpt>
      <trkpt lat="41.175831" lon="-3.398152">
        <ele>1395.610</ele>
        <time>2016-07-20T16:18:56Z</time>
      </trkpt>
      <trkpt lat="41.175750" lon="-3.398204">
        <ele>1395.410</ele>
        <time>2016-07-20T16:18:57Z</time>
      </trkpt>
      <trkpt lat="41.175574" lon="-3.398283">
        <ele>1396.218</ele>
        <time>2016-07-20T16:18:59Z</time>
      </trkpt>
      <trkpt lat="41.175470" lon="-3.398308">
        <ele>1396.633</ele>
        <time>2016-07-20T16:19:00Z</time>
      </trkpt>
      <trkpt lat="41.175357" lon="-3.398324">
        <ele>1397.323</ele>
        <time>2016-07-20T16:19:01Z</time>
      </trkpt>
      <trkpt lat="41.175247" lon="-3.398332">
        <ele>1398.115</ele>
        <time>2016-07-20T16:19:02Z</time>
      </trkpt>
      <trkpt lat="41.175142" lon="-3.398323">
        <ele>1398.808</ele>
        <time>2016-07-20T16:19:03Z</time>
      </trkpt>
      <trkpt lat="41.175030" lon="-3.398311">
        <ele>1399.794</ele>
        <time>2016-07-20T16:19:04Z</time>
      </trkpt>
      <trkpt lat="41.174917" lon="-3.398294">
        <ele>1400.577</ele>
        <time>2016-07-20T16:19:05Z</time>
      </trkpt>
      <trkpt lat="41.174798" lon="-3.398267">
        <ele>1401.483</ele>
        <time>2016-07-20T16:19:06Z</time>
      </trkpt>
      <trkpt lat="41.174686" lon="-3.398236">
        <ele>1402.919</ele>
        <time>2016-07-20T16:19:07Z</time>
      </trkpt>
      <trkpt lat="41.174572" lon="-3.398204">
        <ele>1404.674</ele>
        <time>2016-07-20T16:19:08Z</time>
      </trkpt>
      <trkpt lat="41.174453" lon="-3.398174">
        <ele>1406.367</ele>
        <time>2016-07-20T16:19:09Z</time>
      </trkpt>
      <trkpt lat="41.174337" lon="-3.398158">
        <ele>1407.867</ele>
        <time>2016-07-20T16:19:10Z</time>
      </trkpt>
      <trkpt lat="41.174245" lon="-3.398162">
        <ele>1409.465</ele>
        <time>2016-07-20T16:19:11Z</time>
      </trkpt>
      <trkpt lat="41.174153" lon="-3.398182">
        <ele>1410.848</ele>
        <time>2016-07-20T16:19:12Z</time>
      </trkpt>
      <trkpt lat="41.174064" lon="-3.398212">
        <ele>1411.761</ele>
        <time>2016-07-20T16:19:13Z</time>
      </trkpt>
      <trkpt lat="41.173940" lon="-3.398336">
        <ele>1412.417</ele>
        <time>2016-07-20T16:19:15Z</time>
      </trkpt>
      <trkpt lat="41.173894" lon="-3.398511">
        <ele>1412.508</ele>
        <time>2016-07-20T16:19:17Z</time>
      </trkpt>
      <trkpt lat="41.173835" lon="-3.398678">
        <ele>1412.865</ele>
        <time>2016-07-20T16:19:19Z</time>
      </trkpt>
      <trkpt lat="41.173701" lon="-3.398743">
        <ele>1413.098</ele>
        <time>2016-07-20T16:19:21Z</time>
      </trkpt>
      <trkpt lat="41.173592" lon="-3.398728">
        <ele>1413.894</ele>
        <time>2016-07-20T16:19:23Z</time>
      </trkpt>
      <trkpt lat="41.173464" lon="-3.398745">
        <ele>1415.030</ele>
        <time>2016-07-20T16:19:25Z</time>
      </trkpt>
      <trkpt lat="41.173308" lon="-3.398803">
        <ele>1416.675</ele>
        <time>2016-07-20T16:19:27Z</time>
      </trkpt>
      <trkpt lat="41.173150" lon="-3.398901">
        <ele>1417.718</ele>
        <time>2016-07-20T16:19:29Z</time>
      </trkpt>
      <trkpt lat="41.173035" lon="-3.399061">
        <ele>1418.298</ele>
        <time>2016-07-20T16:19:31Z</time>
      </trkpt>
      <trkpt lat="41.172966" lon="-3.399287">
        <ele>1419.356</ele>
        <time>2016-07-20T16:19:33Z</time>
      </trkpt>
      <trkpt lat="41.172941" lon="-3.399407">
        <ele>1419.451</ele>
        <time>2016-07-20T16:19:34Z</time>
      </trkpt>
      <trkpt lat="41.172916" lon="-3.399539">
        <ele>1419.301</ele>
        <time>2016-07-20T16:19:35Z</time>
      </trkpt>
      <trkpt lat="41.172894" lon="-3.399665">
        <ele>1419.311</ele>
        <time>2016-07-20T16:19:36Z</time>
      </trkpt>
      <trkpt lat="41.172873" lon="-3.399798">
        <ele>1419.608</ele>
        <time>2016-07-20T16:19:37Z</time>
      </trkpt>
      <trkpt lat="41.172849" lon="-3.399934">
        <ele>1420.386</ele>
        <time>2016-07-20T16:19:38Z</time>
      </trkpt>
      <trkpt lat="41.172828" lon="-3.400076">
        <ele>1421.129</ele>
        <time>2016-07-20T16:19:39Z</time>
      </trkpt>
      <trkpt lat="41.172807" lon="-3.400212">
        <ele>1422.115</ele>
        <time>2016-07-20T16:19:40Z</time>
      </trkpt>
      <trkpt lat="41.172784" lon="-3.400336">
        <ele>1423.121</ele>
        <time>2016-07-20T16:19:41Z</time>
      </trkpt>
      <trkpt lat="41.172724" lon="-3.400526">
        <ele>1425.716</ele>
        <time>2016-07-20T16:19:43Z</time>
      </trkpt>
      <trkpt lat="41.172657" lon="-3.400663">
        <ele>1429.929</ele>
        <time>2016-07-20T16:19:45Z</time>
      </trkpt>
      <trkpt lat="41.172592" lon="-3.400780">
        <ele>1434.269</ele>
        <time>2016-07-20T16:19:47Z</time>
      </trkpt>
      <trkpt lat="41.172464" lon="-3.400656">
        <ele>1438.337</ele>
        <time>2016-07-20T16:19:50Z</time>
      </trkpt>
      <trkpt lat="41.172363" lon="-3.400453">
        <ele>1440.062</ele>
        <time>2016-07-20T16:19:52Z</time>
      </trkpt>
      <trkpt lat="41.172288" lon="-3.400346">
        <ele>1441.083</ele>
        <time>2016-07-20T16:19:53Z</time>
      </trkpt>
      <trkpt lat="41.172125" lon="-3.400138">
        <ele>1444.011</ele>
        <time>2016-07-20T16:19:55Z</time>
      </trkpt>
      <trkpt lat="41.172035" lon="-3.400025">
        <ele>1445.508</ele>
        <time>2016-07-20T16:19:56Z</time>
      </trkpt>
      <trkpt lat="41.171949" lon="-3.399922">
        <ele>1447.027</ele>
        <time>2016-07-20T16:19:57Z</time>
      </trkpt>
      <trkpt lat="41.171874" lon="-3.399832">
        <ele>1448.630</ele>
        <time>2016-07-20T16:19:58Z</time>
      </trkpt>
      <trkpt lat="41.171742" lon="-3.399678">
        <ele>1451.256</ele>
        <time>2016-07-20T16:20:00Z</time>
      </trkpt>
      <trkpt lat="41.171669" lon="-3.399595">
        <ele>1452.292</ele>
        <time>2016-07-20T16:20:01Z</time>
      </trkpt>
      <trkpt lat="41.171601" lon="-3.399514">
        <ele>1453.127</ele>
        <time>2016-07-20T16:20:02Z</time>
      </trkpt>
      <trkpt lat="41.171534" lon="-3.399425">
        <ele>1454.440</ele>
        <time>2016-07-20T16:20:03Z</time>
      </trkpt>
      <trkpt lat="41.171426" lon="-3.399235">
        <ele>1457.340</ele>
        <time>2016-07-20T16:20:05Z</time>
      </trkpt>
      <trkpt lat="41.171322" lon="-3.399055">
        <ele>1460.698</ele>
        <time>2016-07-20T16:20:07Z</time>
      </trkpt>
      <trkpt lat="41.171207" lon="-3.398873">
        <ele>1463.896</ele>
        <time>2016-07-20T16:20:10Z</time>
      </trkpt>
      <trkpt lat="41.171149" lon="-3.398770">
        <ele>1465.331</ele>
        <time>2016-07-20T16:20:11Z</time>
      </trkpt>
      <trkpt lat="41.171039" lon="-3.398559">
        <ele>1467.524</ele>
        <time>2016-07-20T16:20:13Z</time>
      </trkpt>
      <trkpt lat="41.170980" lon="-3.398459">
        <ele>1467.708</ele>
        <time>2016-07-20T16:20:14Z</time>
      </trkpt>
      <trkpt lat="41.170869" lon="-3.398278">
        <ele>1467.660</ele>
        <time>2016-07-20T16:20:16Z</time>
      </trkpt>
      <trkpt lat="41.170808" lon="-3.398181">
        <ele>1467.973</ele>
        <time>2016-07-20T16:20:17Z</time>
      </trkpt>
      <trkpt lat="41.170742" lon="-3.398092">
        <ele>1468.269</ele>
        <time>2016-07-20T16:20:18Z</time>
      </trkpt>
      <trkpt lat="41.170664" lon="-3.398003">
        <ele>1468.455</ele>
        <time>2016-07-20T16:20:19Z</time>
      </trkpt>
      <trkpt lat="41.170588" lon="-3.397930">
        <ele>1468.760</ele>
        <time>2016-07-20T16:20:20Z</time>
      </trkpt>
      <trkpt lat="41.170500" lon="-3.397859">
        <ele>1468.743</ele>
        <time>2016-07-20T16:20:21Z</time>
      </trkpt>
      <trkpt lat="41.170409" lon="-3.397798">
        <ele>1468.553</ele>
        <time>2016-07-20T16:20:22Z</time>
      </trkpt>
      <trkpt lat="41.170318" lon="-3.397746">
        <ele>1468.321</ele>
        <time>2016-07-20T16:20:23Z</time>
      </trkpt>
      <trkpt lat="41.170232" lon="-3.397713">
        <ele>1468.461</ele>
        <time>2016-07-20T16:20:24Z</time>
      </trkpt>
      <trkpt lat="41.170058" lon="-3.397724">
        <ele>1469.121</ele>
        <time>2016-07-20T16:20:26Z</time>
      </trkpt>
      <trkpt lat="41.169896" lon="-3.397834">
        <ele>1471.213</ele>
        <time>2016-07-20T16:20:28Z</time>
      </trkpt>
      <trkpt lat="41.169816" lon="-3.397894">
        <ele>1472.708</ele>
        <time>2016-07-20T16:20:29Z</time>
      </trkpt>
      <trkpt lat="41.169728" lon="-3.397941">
        <ele>1473.957</ele>
        <time>2016-07-20T16:20:30Z</time>
      </trkpt>
      <trkpt lat="41.169632" lon="-3.397964">
        <ele>1475.070</ele>
        <time>2016-07-20T16:20:31Z</time>
      </trkpt>
      <trkpt lat="41.169534" lon="-3.397975">
        <ele>1475.816</ele>
        <time>2016-07-20T16:20:32Z</time>
      </trkpt>
      <trkpt lat="41.169434" lon="-3.397969">
        <ele>1476.382</ele>
        <time>2016-07-20T16:20:33Z</time>
      </trkpt>
      <trkpt lat="41.169326" lon="-3.397965">
        <ele>1476.627</ele>
        <time>2016-07-20T16:20:34Z</time>
      </trkpt>
      <trkpt lat="41.169216" lon="-3.397960">
        <ele>1476.650</ele>
        <time>2016-07-20T16:20:35Z</time>
      </trkpt>
      <trkpt lat="41.169106" lon="-3.397960">
        <ele>1476.680</ele>
        <time>2016-07-20T16:20:36Z</time>
      </trkpt>
      <trkpt lat="41.168994" lon="-3.397964">
        <ele>1476.738</ele>
        <time>2016-07-20T16:20:37Z</time>
      </trkpt>
      <trkpt lat="41.168881" lon="-3.397968">
        <ele>1476.759</ele>
        <time>2016-07-20T16:20:38Z</time>
      </trkpt>
      <trkpt lat="41.168771" lon="-3.397971">
        <ele>1476.703</ele>
        <time>2016-07-20T16:20:39Z</time>
      </trkpt>
      <trkpt lat="41.168666" lon="-3.397976">
        <ele>1477.223</ele>
        <time>2016-07-20T16:20:40Z</time>
      </trkpt>
      <trkpt lat="41.168557" lon="-3.397979">
        <ele>1478.208</ele>
        <time>2016-07-20T16:20:41Z</time>
      </trkpt>
      <trkpt lat="41.168447" lon="-3.397980">
        <ele>1479.476</ele>
        <time>2016-07-20T16:20:42Z</time>
      </trkpt>
      <trkpt lat="41.168337" lon="-3.397990">
        <ele>1480.539</ele>
        <time>2016-07-20T16:20:43Z</time>
      </trkpt>
      <trkpt lat="41.168229" lon="-3.398004">
        <ele>1481.715</ele>
        <time>2016-07-20T16:20:44Z</time>
      </trkpt>
      <trkpt lat="41.168120" lon="-3.398021">
        <ele>1482.751</ele>
        <time>2016-07-20T16:20:45Z</time>
      </trkpt>
      <trkpt lat="41.168011" lon="-3.398045">
        <ele>1483.546</ele>
        <time>2016-07-20T16:20:46Z</time>
      </trkpt>
      <trkpt lat="41.167908" lon="-3.398076">
        <ele>1484.739</ele>
        <time>2016-07-20T16:20:47Z</time>
      </trkpt>
      <trkpt lat="41.167806" lon="-3.398114">
        <ele>1485.689</ele>
        <time>2016-07-20T16:20:48Z</time>
      </trkpt>
      <trkpt lat="41.167702" lon="-3.398157">
        <ele>1486.277</ele>
        <time>2016-07-20T16:20:49Z</time>
      </trkpt>
      <trkpt lat="41.167601" lon="-3.398201">
        <ele>1486.999</ele>
        <time>2016-07-20T16:20:50Z</time>
      </trkpt>
      <trkpt lat="41.167511" lon="-3.398250">
        <ele>1487.707</ele>
        <time>2016-07-20T16:20:51Z</time>
      </trkpt>
      <trkpt lat="41.167433" lon="-3.398314">
        <ele>1488.527</ele>
        <time>2016-07-20T16:20:52Z</time>
      </trkpt>
      <trkpt lat="41.167300" lon="-3.398480">
        <ele>1489.908</ele>
        <time>2016-07-20T16:20:54Z</time>
      </trkpt>
      <trkpt lat="41.167240" lon="-3.398587">
        <ele>1490.630</ele>
        <time>2016-07-20T16:20:55Z</time>
      </trkpt>
      <trkpt lat="41.167183" lon="-3.398709">
        <ele>1491.163</ele>
        <time>2016-07-20T16:20:56Z</time>
      </trkpt>
      <trkpt lat="41.167130" lon="-3.398836">
        <ele>1491.449</ele>
        <time>2016-07-20T16:20:57Z</time>
      </trkpt>
      <trkpt lat="41.167075" lon="-3.398970">
        <ele>1491.535</ele>
        <time>2016-07-20T16:20:58Z</time>
      </trkpt>
      <trkpt lat="41.167015" lon="-3.399098">
        <ele>1492.060</ele>
        <time>2016-07-20T16:20:59Z</time>
      </trkpt>
      <trkpt lat="41.166945" lon="-3.399212">
        <ele>1492.743</ele>
        <time>2016-07-20T16:21:00Z</time>
      </trkpt>
      <trkpt lat="41.166868" lon="-3.399297">
        <ele>1493.573</ele>
        <time>2016-07-20T16:21:01Z</time>
      </trkpt>
      <trkpt lat="41.166783" lon="-3.399362">
        <ele>1494.481</ele>
        <time>2016-07-20T16:21:02Z</time>
      </trkpt>
      <trkpt lat="41.166666" lon="-3.399440">
        <ele>1496.451</ele>
        <time>2016-07-20T16:21:04Z</time>
      </trkpt>
      <trkpt lat="41.166557" lon="-3.399516">
        <ele>1498.101</ele>
        <time>2016-07-20T16:21:41Z</time>
      </trkpt>
      <trkpt lat="41.166485" lon="-3.399592">
        <ele>1497.811</ele>
        <time>2016-07-20T16:21:43Z</time>
      </trkpt>
      <trkpt lat="41.166401" lon="-3.399679">
        <ele>1498.008</ele>
        <time>2016-07-20T16:21:45Z</time>
      </trkpt>
      <trkpt lat="41.166298" lon="-3.399788">
        <ele>1498.666</ele>
        <time>2016-07-20T16:21:47Z</time>
      </trkpt>
      <trkpt lat="41.166158" lon="-3.399883">
        <ele>1498.669</ele>
        <time>2016-07-20T16:21:49Z</time>
      </trkpt>
      <trkpt lat="41.166001" lon="-3.399956">
        <ele>1498.625</ele>
        <time>2016-07-20T16:21:51Z</time>
      </trkpt>
      <trkpt lat="41.165834" lon="-3.400020">
        <ele>1499.221</ele>
        <time>2016-07-20T16:21:53Z</time>
      </trkpt>
      <trkpt lat="41.165673" lon="-3.400089">
        <ele>1500.696</ele>
        <time>2016-07-20T16:21:55Z</time>
      </trkpt>
      <trkpt lat="41.165522" lon="-3.400159">
        <ele>1502.319</ele>
        <time>2016-07-20T16:21:58Z</time>
      </trkpt>
      <trkpt lat="41.165378" lon="-3.400255">
        <ele>1503.239</ele>
        <time>2016-07-20T16:21:59Z</time>
      </trkpt>
      <trkpt lat="41.165260" lon="-3.400395">
        <ele>1504.117</ele>
        <time>2016-07-20T16:22:02Z</time>
      </trkpt>
      <trkpt lat="41.165172" lon="-3.400604">
        <ele>1505.698</ele>
        <time>2016-07-20T16:22:04Z</time>
      </trkpt>
      <trkpt lat="41.165138" lon="-3.400719">
        <ele>1506.415</ele>
        <time>2016-07-20T16:22:05Z</time>
      </trkpt>
      <trkpt lat="41.165050" lon="-3.400930">
        <ele>1507.826</ele>
        <time>2016-07-20T16:22:07Z</time>
      </trkpt>
      <trkpt lat="41.164997" lon="-3.401034">
        <ele>1508.808</ele>
        <time>2016-07-20T16:22:08Z</time>
      </trkpt>
      <trkpt lat="41.164940" lon="-3.401137">
        <ele>1510.030</ele>
        <time>2016-07-20T16:22:09Z</time>
      </trkpt>
      <trkpt lat="41.164884" lon="-3.401235">
        <ele>1511.073</ele>
        <time>2016-07-20T16:22:10Z</time>
      </trkpt>
      <trkpt lat="41.164777" lon="-3.401407">
        <ele>1512.539</ele>
        <time>2016-07-20T16:22:12Z</time>
      </trkpt>
      <trkpt lat="41.164685" lon="-3.401526">
        <ele>1513.965</ele>
        <time>2016-07-20T16:22:14Z</time>
      </trkpt>
      <trkpt lat="41.164593" lon="-3.401552">
        <ele>1516.270</ele>
        <time>2016-07-20T16:22:16Z</time>
      </trkpt>
      <trkpt lat="41.164492" lon="-3.401489">
        <ele>1518.343</ele>
        <time>2016-07-20T16:22:18Z</time>
      </trkpt>
      <trkpt lat="41.164363" lon="-3.401334">
        <ele>1520.313</ele>
        <time>2016-07-20T16:22:20Z</time>
      </trkpt>
      <trkpt lat="41.164304" lon="-3.401241">
        <ele>1521.891</ele>
        <time>2016-07-20T16:22:21Z</time>
      </trkpt>
      <trkpt lat="41.164240" lon="-3.401128">
        <ele>1523.555</ele>
        <time>2016-07-20T16:22:22Z</time>
      </trkpt>
      <trkpt lat="41.164182" lon="-3.401025">
        <ele>1525.407</ele>
        <time>2016-07-20T16:22:23Z</time>
      </trkpt>
      <trkpt lat="41.164118" lon="-3.400940">
        <ele>1527.617</ele>
        <time>2016-07-20T16:22:24Z</time>
      </trkpt>
      <trkpt lat="41.164034" lon="-3.400852">
        <ele>1529.108</ele>
        <time>2016-07-20T16:22:25Z</time>
      </trkpt>
      <trkpt lat="41.163940" lon="-3.400774">
        <ele>1530.096</ele>
        <time>2016-07-20T16:22:26Z</time>
      </trkpt>
      <trkpt lat="41.163862" lon="-3.400701">
        <ele>1531.439</ele>
        <time>2016-07-20T16:22:27Z</time>
      </trkpt>
      <trkpt lat="41.163714" lon="-3.400529">
        <ele>1535.265</ele>
        <time>2016-07-20T16:22:29Z</time>
      </trkpt>
      <trkpt lat="41.163633" lon="-3.400420">
        <ele>1536.141</ele>
        <time>2016-07-20T16:22:30Z</time>
      </trkpt>
      <trkpt lat="41.163565" lon="-3.400317">
        <ele>1537.376</ele>
        <time>2016-07-20T16:22:31Z</time>
      </trkpt>
      <trkpt lat="41.163494" lon="-3.400210">
        <ele>1538.729</ele>
        <time>2016-07-20T16:22:32Z</time>
      </trkpt>
      <trkpt lat="41.163420" lon="-3.400095">
        <ele>1540.099</ele>
        <time>2016-07-20T16:22:33Z</time>
      </trkpt>
      <trkpt lat="41.163346" lon="-3.399981">
        <ele>1541.037</ele>
        <time>2016-07-20T16:22:34Z</time>
      </trkpt>
      <trkpt lat="41.163270" lon="-3.399868">
        <ele>1541.916</ele>
        <time>2016-07-20T16:22:35Z</time>
      </trkpt>
      <trkpt lat="41.163184" lon="-3.399744">
        <ele>1542.176</ele>
        <time>2016-07-20T16:22:36Z</time>
      </trkpt>
      <trkpt lat="41.163102" lon="-3.399636">
        <ele>1542.813</ele>
        <time>2016-07-20T16:22:37Z</time>
      </trkpt>
      <trkpt lat="41.163016" lon="-3.399536">
        <ele>1543.208</ele>
        <time>2016-07-20T16:22:38Z</time>
      </trkpt>
      <trkpt lat="41.162945" lon="-3.399454">
        <ele>1544.052</ele>
        <time>2016-07-20T16:22:39Z</time>
      </trkpt>
      <trkpt lat="41.162862" lon="-3.399359">
        <ele>1544.445</ele>
        <time>2016-07-20T16:22:40Z</time>
      </trkpt>
      <trkpt lat="41.162781" lon="-3.399281">
        <ele>1544.741</ele>
        <time>2016-07-20T16:22:41Z</time>
      </trkpt>
      <trkpt lat="41.162652" lon="-3.399186">
        <ele>1545.967</ele>
        <time>2016-07-20T16:22:43Z</time>
      </trkpt>
      <trkpt lat="41.162503" lon="-3.399176">
        <ele>1547.012</ele>
        <time>2016-07-20T16:22:45Z</time>
      </trkpt>
      <trkpt lat="41.162412" lon="-3.399193">
        <ele>1546.845</ele>
        <time>2016-07-20T16:22:46Z</time>
      </trkpt>
      <trkpt lat="41.162243" lon="-3.399212">
        <ele>1545.265</ele>
        <time>2016-07-20T16:22:48Z</time>
      </trkpt>
      <trkpt lat="41.162092" lon="-3.399131">
        <ele>1544.393</ele>
        <time>2016-07-20T16:22:50Z</time>
      </trkpt>
      <trkpt lat="41.161984" lon="-3.398962">
        <ele>1544.679</ele>
        <time>2016-07-20T16:22:52Z</time>
      </trkpt>
      <trkpt lat="41.161939" lon="-3.398852">
        <ele>1545.405</ele>
        <time>2016-07-20T16:22:53Z</time>
      </trkpt>
      <trkpt lat="41.161880" lon="-3.398635">
        <ele>1546.325</ele>
        <time>2016-07-20T16:22:55Z</time>
      </trkpt>
      <trkpt lat="41.161850" lon="-3.398507">
        <ele>1546.408</ele>
        <time>2016-07-20T16:22:56Z</time>
      </trkpt>
      <trkpt lat="41.161817" lon="-3.398372">
        <ele>1546.338</ele>
        <time>2016-07-20T16:22:57Z</time>
      </trkpt>
      <trkpt lat="41.161781" lon="-3.398236">
        <ele>1546.511</ele>
        <time>2016-07-20T16:22:58Z</time>
      </trkpt>
      <trkpt lat="41.161741" lon="-3.398102">
        <ele>1547.447</ele>
        <time>2016-07-20T16:22:59Z</time>
      </trkpt>
      <trkpt lat="41.161700" lon="-3.397963">
        <ele>1548.833</ele>
        <time>2016-07-20T16:23:00Z</time>
      </trkpt>
      <trkpt lat="41.161662" lon="-3.397818">
        <ele>1550.078</ele>
        <time>2016-07-20T16:23:01Z</time>
      </trkpt>
      <trkpt lat="41.161627" lon="-3.397666">
        <ele>1551.241</ele>
        <time>2016-07-20T16:23:02Z</time>
      </trkpt>
      <trkpt lat="41.161601" lon="-3.397508">
        <ele>1552.511</ele>
        <time>2016-07-20T16:23:03Z</time>
      </trkpt>
      <trkpt lat="41.161582" lon="-3.397376">
        <ele>1553.939</ele>
        <time>2016-07-20T16:23:04Z</time>
      </trkpt>
      <trkpt lat="41.161564" lon="-3.397214">
        <ele>1555.447</ele>
        <time>2016-07-20T16:23:05Z</time>
      </trkpt>
      <trkpt lat="41.161538" lon="-3.397068">
        <ele>1557.329</ele>
        <time>2016-07-20T16:23:06Z</time>
      </trkpt>
      <trkpt lat="41.161518" lon="-3.396930">
        <ele>1559.121</ele>
        <time>2016-07-20T16:23:07Z</time>
      </trkpt>
      <trkpt lat="41.161504" lon="-3.396778">
        <ele>1561.008</ele>
        <time>2016-07-20T16:23:08Z</time>
      </trkpt>
      <trkpt lat="41.161507" lon="-3.396611">
        <ele>1563.355</ele>
        <time>2016-07-20T16:23:09Z</time>
      </trkpt>
      <trkpt lat="41.161525" lon="-3.396449">
        <ele>1565.278</ele>
        <time>2016-07-20T16:23:10Z</time>
      </trkpt>
      <trkpt lat="41.161544" lon="-3.396281">
        <ele>1566.674</ele>
        <time>2016-07-20T16:23:11Z</time>
      </trkpt>
      <trkpt lat="41.161563" lon="-3.396138">
        <ele>1567.920</ele>
        <time>2016-07-20T16:23:12Z</time>
      </trkpt>
      <trkpt lat="41.161576" lon="-3.395994">
        <ele>1568.535</ele>
        <time>2016-07-20T16:23:13Z</time>
      </trkpt>
      <trkpt lat="41.161585" lon="-3.395859">
        <ele>1568.898</ele>
        <time>2016-07-20T16:23:14Z</time>
      </trkpt>
      <trkpt lat="41.161582" lon="-3.395707">
        <ele>1569.238</ele>
        <time>2016-07-20T16:23:15Z</time>
      </trkpt>
      <trkpt lat="41.161567" lon="-3.395554">
        <ele>1569.376</ele>
        <time>2016-07-20T16:23:16Z</time>
      </trkpt>
      <trkpt lat="41.161545" lon="-3.395410">
        <ele>1569.214</ele>
        <time>2016-07-20T16:23:17Z</time>
      </trkpt>
      <trkpt lat="41.161484" lon="-3.395135">
        <ele>1569.154</ele>
        <time>2016-07-20T16:23:18Z</time>
      </trkpt>
      <trkpt lat="41.161449" lon="-3.394996">
        <ele>1568.809</ele>
        <time>2016-07-20T16:23:19Z</time>
      </trkpt>
      <trkpt lat="41.161404" lon="-3.394864">
        <ele>1568.608</ele>
        <time>2016-07-20T16:23:20Z</time>
      </trkpt>
      <trkpt lat="41.161350" lon="-3.394737">
        <ele>1568.252</ele>
        <time>2016-07-20T16:23:21Z</time>
      </trkpt>
      <trkpt lat="41.161281" lon="-3.394600">
        <ele>1567.575</ele>
        <time>2016-07-20T16:23:22Z</time>
      </trkpt>
      <trkpt lat="41.161211" lon="-3.394453">
        <ele>1567.291</ele>
        <time>2016-07-20T16:23:23Z</time>
      </trkpt>
      <trkpt lat="41.161148" lon="-3.394317">
        <ele>1567.557</ele>
        <time>2016-07-20T16:23:24Z</time>
      </trkpt>
      <trkpt lat="41.161090" lon="-3.394178">
        <ele>1567.922</ele>
        <time>2016-07-20T16:23:25Z</time>
      </trkpt>
      <trkpt lat="41.161043" lon="-3.394027">
        <ele>1568.355</ele>
        <time>2016-07-20T16:23:26Z</time>
      </trkpt>
      <trkpt lat="41.160996" lon="-3.393889">
        <ele>1568.285</ele>
        <time>2016-07-20T16:23:27Z</time>
      </trkpt>
      <trkpt lat="41.160940" lon="-3.393753">
        <ele>1567.933</ele>
        <time>2016-07-20T16:23:28Z</time>
      </trkpt>
      <trkpt lat="41.160882" lon="-3.393625">
        <ele>1567.137</ele>
        <time>2016-07-20T16:23:29Z</time>
      </trkpt>
      <trkpt lat="41.160826" lon="-3.393512">
        <ele>1566.349</ele>
        <time>2016-07-20T16:23:30Z</time>
      </trkpt>
      <trkpt lat="41.160768" lon="-3.393382">
        <ele>1565.113</ele>
        <time>2016-07-20T16:23:31Z</time>
      </trkpt>
      <trkpt lat="41.160709" lon="-3.393251">
        <ele>1564.108</ele>
        <time>2016-07-20T16:23:32Z</time>
      </trkpt>
      <trkpt lat="41.160654" lon="-3.393132">
        <ele>1563.854</ele>
        <time>2016-07-20T16:23:33Z</time>
      </trkpt>
      <trkpt lat="41.160594" lon="-3.393008">
        <ele>1563.587</ele>
        <time>2016-07-20T16:23:34Z</time>
      </trkpt>
      <trkpt lat="41.160535" lon="-3.392877">
        <ele>1563.223</ele>
        <time>2016-07-20T16:23:35Z</time>
      </trkpt>
      <trkpt lat="41.160484" lon="-3.392746">
        <ele>1563.019</ele>
        <time>2016-07-20T16:23:36Z</time>
      </trkpt>
      <trkpt lat="41.160447" lon="-3.392622">
        <ele>1563.124</ele>
        <time>2016-07-20T16:23:37Z</time>
      </trkpt>
      <trkpt lat="41.160408" lon="-3.392488">
        <ele>1563.437</ele>
        <time>2016-07-20T16:23:38Z</time>
      </trkpt>
      <trkpt lat="41.160372" lon="-3.392360">
        <ele>1563.787</ele>
        <time>2016-07-20T16:23:39Z</time>
      </trkpt>
      <trkpt lat="41.160333" lon="-3.392250">
        <ele>1564.345</ele>
        <time>2016-07-20T16:23:40Z</time>
      </trkpt>
      <trkpt lat="41.160291" lon="-3.392137">
        <ele>1565.285</ele>
        <time>2016-07-20T16:23:41Z</time>
      </trkpt>
      <trkpt lat="41.160214" lon="-3.391935">
        <ele>1567.289</ele>
        <time>2016-07-20T16:23:43Z</time>
      </trkpt>
      <trkpt lat="41.160137" lon="-3.391754">
        <ele>1569.217</ele>
        <time>2016-07-20T16:23:45Z</time>
      </trkpt>
      <trkpt lat="41.160080" lon="-3.391613">
        <ele>1570.908</ele>
        <time>2016-07-20T16:23:47Z</time>
      </trkpt>
      <trkpt lat="41.160028" lon="-3.391513">
        <ele>1572.899</ele>
        <time>2016-07-20T16:23:49Z</time>
      </trkpt>
      <trkpt lat="41.159938" lon="-3.391454">
        <ele>1573.042</ele>
        <time>2016-07-20T16:23:52Z</time>
      </trkpt>
      <trkpt lat="41.159847" lon="-3.391500">
        <ele>1572.698</ele>
        <time>2016-07-20T16:24:00Z</time>
      </trkpt>
      <trkpt lat="41.159788" lon="-3.391605">
        <ele>1572.044</ele>
        <time>2016-07-20T16:24:07Z</time>
      </trkpt>
      <trkpt lat="41.159771" lon="-3.391754">
        <ele>1571.969</ele>
        <time>2016-07-20T16:24:11Z</time>
      </trkpt>
      <trkpt lat="41.159776" lon="-3.391913">
        <ele>1572.032</ele>
        <time>2016-07-20T16:24:14Z</time>
      </trkpt>
      <trkpt lat="41.159785" lon="-3.392093">
        <ele>1572.342</ele>
        <time>2016-07-20T16:24:17Z</time>
      </trkpt>
      <trkpt lat="41.159795" lon="-3.392252">
        <ele>1571.840</ele>
        <time>2016-07-20T16:24:19Z</time>
      </trkpt>
      <trkpt lat="41.159796" lon="-3.392390">
        <ele>1569.832</ele>
        <time>2016-07-20T16:24:21Z</time>
      </trkpt>
      <trkpt lat="41.159794" lon="-3.392565">
        <ele>1569.292</ele>
        <time>2016-07-20T16:24:23Z</time>
      </trkpt>
      <trkpt lat="41.159789" lon="-3.392762">
        <ele>1569.411</ele>
        <time>2016-07-20T16:24:25Z</time>
      </trkpt>
      <trkpt lat="41.159782" lon="-3.393008">
        <ele>1570.408</ele>
        <time>2016-07-20T16:24:27Z</time>
      </trkpt>
      <trkpt lat="41.159779" lon="-3.393149">
        <ele>1571.264</ele>
        <time>2016-07-20T16:24:28Z</time>
      </trkpt>
      <trkpt lat="41.159773" lon="-3.393279">
        <ele>1571.737</ele>
        <time>2016-07-20T16:24:29Z</time>
      </trkpt>
      <trkpt lat="41.159759" lon="-3.393512">
        <ele>1573.013</ele>
        <time>2016-07-20T16:24:31Z</time>
      </trkpt>
      <trkpt lat="41.159759" lon="-3.393633">
        <ele>1573.539</ele>
        <time>2016-07-20T16:24:32Z</time>
      </trkpt>
      <trkpt lat="41.159775" lon="-3.393842">
        <ele>1573.664</ele>
        <time>2016-07-20T16:24:34Z</time>
      </trkpt>
      <trkpt lat="41.159789" lon="-3.394022">
        <ele>1573.167</ele>
        <time>2016-07-20T16:24:36Z</time>
      </trkpt>
      <trkpt lat="41.159794" lon="-3.394200">
        <ele>1572.877</ele>
        <time>2016-07-20T16:24:38Z</time>
      </trkpt>
      <trkpt lat="41.159777" lon="-3.394422">
        <ele>1572.895</ele>
        <time>2016-07-20T16:24:40Z</time>
      </trkpt>
      <trkpt lat="41.159756" lon="-3.394552">
        <ele>1573.071</ele>
        <time>2016-07-20T16:24:41Z</time>
      </trkpt>
      <trkpt lat="41.159726" lon="-3.394682">
        <ele>1573.441</ele>
        <time>2016-07-20T16:24:42Z</time>
      </trkpt>
      <trkpt lat="41.159691" lon="-3.394806">
        <ele>1573.515</ele>
        <time>2016-07-20T16:24:43Z</time>
      </trkpt>
      <trkpt lat="41.159652" lon="-3.394914">
        <ele>1573.108</ele>
        <time>2016-07-20T16:24:44Z</time>
      </trkpt>
      <trkpt lat="41.159605" lon="-3.395041">
        <ele>1572.888</ele>
        <time>2016-07-20T16:24:45Z</time>
      </trkpt>
      <trkpt lat="41.159557" lon="-3.395159">
        <ele>1572.571</ele>
        <time>2016-07-20T16:24:46Z</time>
      </trkpt>
      <trkpt lat="41.159506" lon="-3.395266">
        <ele>1572.287</ele>
        <time>2016-07-20T16:24:47Z</time>
      </trkpt>
      <trkpt lat="41.159385" lon="-3.395464">
        <ele>1571.743</ele>
        <time>2016-07-20T16:24:49Z</time>
      </trkpt>
      <trkpt lat="41.159309" lon="-3.395552">
        <ele>1571.568</ele>
        <time>2016-07-20T16:24:50Z</time>
      </trkpt>
      <trkpt lat="41.159226" lon="-3.395635">
        <ele>1571.411</ele>
        <time>2016-07-20T16:24:51Z</time>
      </trkpt>
      <trkpt lat="41.159138" lon="-3.395716">
        <ele>1571.541</ele>
        <time>2016-07-20T16:24:52Z</time>
      </trkpt>
      <trkpt lat="41.159052" lon="-3.395794">
        <ele>1571.589</ele>
        <time>2016-07-20T16:24:53Z</time>
      </trkpt>
      <trkpt lat="41.158967" lon="-3.395867">
        <ele>1571.729</ele>
        <time>2016-07-20T16:24:54Z</time>
      </trkpt>
      <trkpt lat="41.158887" lon="-3.395940">
        <ele>1572.100</ele>
        <time>2016-07-20T16:24:55Z</time>
      </trkpt>
      <trkpt lat="41.158811" lon="-3.396009">
        <ele>1572.420</ele>
        <time>2016-07-20T16:24:56Z</time>
      </trkpt>
      <trkpt lat="41.158677" lon="-3.396155">
        <ele>1573.208</ele>
        <time>2016-07-20T16:24:58Z</time>
      </trkpt>
      <trkpt lat="41.158554" lon="-3.396306">
        <ele>1574.773</ele>
        <time>2016-07-20T16:25:00Z</time>
      </trkpt>
      <trkpt lat="41.158454" lon="-3.396469">
        <ele>1575.536</ele>
        <time>2016-07-20T16:25:02Z</time>
      </trkpt>
      <trkpt lat="41.158390" lon="-3.396644">
        <ele>1575.872</ele>
        <time>2016-07-20T16:25:04Z</time>
      </trkpt>
      <trkpt lat="41.158345" lon="-3.396827">
        <ele>1576.438</ele>
        <time>2016-07-20T16:25:06Z</time>
      </trkpt>
      <trkpt lat="41.158309" lon="-3.397021">
        <ele>1577.213</ele>
        <time>2016-07-20T16:25:08Z</time>
      </trkpt>
      <trkpt lat="41.158274" lon="-3.397233">
        <ele>1578.296</ele>
        <time>2016-07-20T16:25:10Z</time>
      </trkpt>
      <trkpt lat="41.158234" lon="-3.397442">
        <ele>1578.376</ele>
        <time>2016-07-20T16:25:12Z</time>
      </trkpt>
      <trkpt lat="41.158183" lon="-3.397662">
        <ele>1577.954</ele>
        <time>2016-07-20T16:25:14Z</time>
      </trkpt>
      <trkpt lat="41.158126" lon="-3.397875">
        <ele>1577.539</ele>
        <time>2016-07-20T16:25:16Z</time>
      </trkpt>
      <trkpt lat="41.158096" lon="-3.397994">
        <ele>1577.501</ele>
        <time>2016-07-20T16:25:17Z</time>
      </trkpt>
      <trkpt lat="41.158038" lon="-3.398211">
        <ele>1577.221</ele>
        <time>2016-07-20T16:25:19Z</time>
      </trkpt>
      <trkpt lat="41.157990" lon="-3.398426">
        <ele>1577.308</ele>
        <time>2016-07-20T16:25:21Z</time>
      </trkpt>
      <trkpt lat="41.157962" lon="-3.398647">
        <ele>1577.534</ele>
        <time>2016-07-20T16:25:23Z</time>
      </trkpt>
      <trkpt lat="41.157952" lon="-3.398880">
        <ele>1577.367</ele>
        <time>2016-07-20T16:25:25Z</time>
      </trkpt>
      <trkpt lat="41.157951" lon="-3.399011">
        <ele>1577.473</ele>
        <time>2016-07-20T16:25:26Z</time>
      </trkpt>
      <trkpt lat="41.157954" lon="-3.399141">
        <ele>1577.569</ele>
        <time>2016-07-20T16:25:27Z</time>
      </trkpt>
      <trkpt lat="41.157976" lon="-3.399366">
        <ele>1577.374</ele>
        <time>2016-07-20T16:25:29Z</time>
      </trkpt>
      <trkpt lat="41.158020" lon="-3.399562">
        <ele>1577.477</ele>
        <time>2016-07-20T16:25:31Z</time>
      </trkpt>
      <trkpt lat="41.158055" lon="-3.399673">
        <ele>1577.967</ele>
        <time>2016-07-20T16:25:32Z</time>
      </trkpt>
      <trkpt lat="41.158154" lon="-3.399933">
        <ele>1579.315</ele>
        <time>2016-07-20T16:25:34Z</time>
      </trkpt>
      <trkpt lat="41.158236" lon="-3.400093">
        <ele>1579.657</ele>
        <time>2016-07-20T16:25:36Z</time>
      </trkpt>
      <trkpt lat="41.158346" lon="-3.400247">
        <ele>1580.100</ele>
        <time>2016-07-20T16:25:38Z</time>
      </trkpt>
      <trkpt lat="41.158475" lon="-3.400397">
        <ele>1581.420</ele>
        <time>2016-07-20T16:25:40Z</time>
      </trkpt>
      <trkpt lat="41.158591" lon="-3.400526">
        <ele>1582.608</ele>
        <time>2016-07-20T16:25:42Z</time>
      </trkpt>
      <trkpt lat="41.158686" lon="-3.400662">
        <ele>1582.976</ele>
        <time>2016-07-20T16:25:44Z</time>
      </trkpt>
      <trkpt lat="41.158785" lon="-3.400847">
        <ele>1583.039</ele>
        <time>2016-07-20T16:25:46Z</time>
      </trkpt>
      <trkpt lat="41.158840" lon="-3.400950">
        <ele>1583.325</ele>
        <time>2016-07-20T16:25:47Z</time>
      </trkpt>
      <trkpt lat="41.158897" lon="-3.401056">
        <ele>1583.651</ele>
        <time>2016-07-20T16:25:48Z</time>
      </trkpt>
      <trkpt lat="41.158952" lon="-3.401151">
        <ele>1583.716</ele>
        <time>2016-07-20T16:25:49Z</time>
      </trkpt>
      <trkpt lat="41.159011" lon="-3.401253">
        <ele>1584.349</ele>
        <time>2016-07-20T16:25:50Z</time>
      </trkpt>
      <trkpt lat="41.159114" lon="-3.401426">
        <ele>1585.549</ele>
        <time>2016-07-20T16:25:52Z</time>
      </trkpt>
      <trkpt lat="41.159173" lon="-3.401517">
        <ele>1586.517</ele>
        <time>2016-07-20T16:25:53Z</time>
      </trkpt>
      <trkpt lat="41.159291" lon="-3.401682">
        <ele>1588.916</ele>
        <time>2016-07-20T16:25:55Z</time>
      </trkpt>
      <trkpt lat="41.159412" lon="-3.401849">
        <ele>1591.076</ele>
        <time>2016-07-20T16:25:57Z</time>
      </trkpt>
      <trkpt lat="41.159479" lon="-3.401935">
        <ele>1592.013</ele>
        <time>2016-07-20T16:25:58Z</time>
      </trkpt>
      <trkpt lat="41.159607" lon="-3.402099">
        <ele>1593.708</ele>
        <time>2016-07-20T16:26:00Z</time>
      </trkpt>
      <trkpt lat="41.159674" lon="-3.402181">
        <ele>1594.612</ele>
        <time>2016-07-20T16:26:01Z</time>
      </trkpt>
      <trkpt lat="41.159739" lon="-3.402264">
        <ele>1595.285</ele>
        <time>2016-07-20T16:26:02Z</time>
      </trkpt>
      <trkpt lat="41.159849" lon="-3.402414">
        <ele>1595.461</ele>
        <time>2016-07-20T16:26:04Z</time>
      </trkpt>
      <trkpt lat="41.159907" lon="-3.402506">
        <ele>1595.787</ele>
        <time>2016-07-20T16:26:05Z</time>
      </trkpt>
      <trkpt lat="41.159990" lon="-3.402696">
        <ele>1596.062</ele>
        <time>2016-07-20T16:26:07Z</time>
      </trkpt>
      <trkpt lat="41.160029" lon="-3.402816">
        <ele>1596.595</ele>
        <time>2016-07-20T16:26:08Z</time>
      </trkpt>
      <trkpt lat="41.160066" lon="-3.402930">
        <ele>1597.335</ele>
        <time>2016-07-20T16:26:09Z</time>
      </trkpt>
      <trkpt lat="41.160147" lon="-3.403129">
        <ele>1599.133</ele>
        <time>2016-07-20T16:26:11Z</time>
      </trkpt>
      <trkpt lat="41.160250" lon="-3.403320">
        <ele>1600.789</ele>
        <time>2016-07-20T16:26:13Z</time>
      </trkpt>
      <trkpt lat="41.160349" lon="-3.403512">
        <ele>1602.006</ele>
        <time>2016-07-20T16:26:15Z</time>
      </trkpt>
      <trkpt lat="41.160437" lon="-3.403726">
        <ele>1603.426</ele>
        <time>2016-07-20T16:26:17Z</time>
      </trkpt>
      <trkpt lat="41.160507" lon="-3.403920">
        <ele>1603.408</ele>
        <time>2016-07-20T16:26:20Z</time>
      </trkpt>
      <trkpt lat="41.160548" lon="-3.404027">
        <ele>1602.929</ele>
        <time>2016-07-20T16:26:21Z</time>
      </trkpt>
      <trkpt lat="41.160597" lon="-3.404146">
        <ele>1602.362</ele>
        <time>2016-07-20T16:26:22Z</time>
      </trkpt>
      <trkpt lat="41.160681" lon="-3.404344">
        <ele>1600.948</ele>
        <time>2016-07-20T16:26:24Z</time>
      </trkpt>
      <trkpt lat="41.160743" lon="-3.404556">
        <ele>1599.644</ele>
        <time>2016-07-20T16:26:26Z</time>
      </trkpt>
      <trkpt lat="41.160756" lon="-3.404690">
        <ele>1599.939</ele>
        <time>2016-07-20T16:26:27Z</time>
      </trkpt>
      <trkpt lat="41.160753" lon="-3.404826">
        <ele>1600.522</ele>
        <time>2016-07-20T16:26:28Z</time>
      </trkpt>
      <trkpt lat="41.160740" lon="-3.404954">
        <ele>1601.472</ele>
        <time>2016-07-20T16:26:29Z</time>
      </trkpt>
      <trkpt lat="41.160688" lon="-3.405149">
        <ele>1601.820</ele>
        <time>2016-07-20T16:26:31Z</time>
      </trkpt>
      <trkpt lat="41.160613" lon="-3.405350">
        <ele>1599.799</ele>
        <time>2016-07-20T16:26:33Z</time>
      </trkpt>
      <trkpt lat="41.160574" lon="-3.405471">
        <ele>1599.207</ele>
        <time>2016-07-20T16:26:34Z</time>
      </trkpt>
      <trkpt lat="41.160539" lon="-3.405590">
        <ele>1598.927</ele>
        <time>2016-07-20T16:26:35Z</time>
      </trkpt>
      <trkpt lat="41.160498" lon="-3.405722">
        <ele>1598.908</ele>
        <time>2016-07-20T16:26:36Z</time>
      </trkpt>
      <trkpt lat="41.160454" lon="-3.405851">
        <ele>1599.890</ele>
        <time>2016-07-20T16:26:37Z</time>
      </trkpt>
      <trkpt lat="41.160409" lon="-3.405975">
        <ele>1600.733</ele>
        <time>2016-07-20T16:26:38Z</time>
      </trkpt>
      <trkpt lat="41.160359" lon="-3.406118">
        <ele>1601.779</ele>
        <time>2016-07-20T16:26:39Z</time>
      </trkpt>
      <trkpt lat="41.160308" lon="-3.406245">
        <ele>1602.425</ele>
        <time>2016-07-20T16:26:40Z</time>
      </trkpt>
      <trkpt lat="41.160255" lon="-3.406381">
        <ele>1603.440</ele>
        <time>2016-07-20T16:26:41Z</time>
      </trkpt>
      <trkpt lat="41.160202" lon="-3.406504">
        <ele>1604.753</ele>
        <time>2016-07-20T16:26:42Z</time>
      </trkpt>
      <trkpt lat="41.160152" lon="-3.406614">
        <ele>1605.943</ele>
        <time>2016-07-20T16:26:43Z</time>
      </trkpt>
      <trkpt lat="41.160102" lon="-3.406731">
        <ele>1607.491</ele>
        <time>2016-07-20T16:26:44Z</time>
      </trkpt>
      <trkpt lat="41.160048" lon="-3.406839">
        <ele>1608.658</ele>
        <time>2016-07-20T16:26:45Z</time>
      </trkpt>
      <trkpt lat="41.159995" lon="-3.406946">
        <ele>1609.752</ele>
        <time>2016-07-20T16:26:46Z</time>
      </trkpt>
      <trkpt lat="41.159947" lon="-3.407058">
        <ele>1610.917</ele>
        <time>2016-07-20T16:26:47Z</time>
      </trkpt>
      <trkpt lat="41.159900" lon="-3.407171">
        <ele>1612.308</ele>
        <time>2016-07-20T16:26:48Z</time>
      </trkpt>
      <trkpt lat="41.159853" lon="-3.407295">
        <ele>1613.326</ele>
        <time>2016-07-20T16:26:49Z</time>
      </trkpt>
      <trkpt lat="41.159808" lon="-3.407420">
        <ele>1614.139</ele>
        <time>2016-07-20T16:26:50Z</time>
      </trkpt>
      <trkpt lat="41.159764" lon="-3.407543">
        <ele>1615.065</ele>
        <time>2016-07-20T16:26:51Z</time>
      </trkpt>
      <trkpt lat="41.159720" lon="-3.407662">
        <ele>1615.621</ele>
        <time>2016-07-20T16:26:52Z</time>
      </trkpt>
      <trkpt lat="41.159678" lon="-3.407774">
        <ele>1616.256</ele>
        <time>2016-07-20T16:26:53Z</time>
      </trkpt>
      <trkpt lat="41.159634" lon="-3.407892">
        <ele>1616.939</ele>
        <time>2016-07-20T16:26:54Z</time>
      </trkpt>
      <trkpt lat="41.159585" lon="-3.408001">
        <ele>1617.969</ele>
        <time>2016-07-20T16:26:55Z</time>
      </trkpt>
      <trkpt lat="41.159534" lon="-3.408128">
        <ele>1618.997</ele>
        <time>2016-07-20T16:26:56Z</time>
      </trkpt>
      <trkpt lat="41.159485" lon="-3.408249">
        <ele>1620.357</ele>
        <time>2016-07-20T16:26:57Z</time>
      </trkpt>
      <trkpt lat="41.159437" lon="-3.408359">
        <ele>1621.600</ele>
        <time>2016-07-20T16:26:58Z</time>
      </trkpt>
      <trkpt lat="41.159385" lon="-3.408472">
        <ele>1622.720</ele>
        <time>2016-07-20T16:26:59Z</time>
      </trkpt>
      <trkpt lat="41.159336" lon="-3.408573">
        <ele>1624.108</ele>
        <time>2016-07-20T16:27:00Z</time>
      </trkpt>
      <trkpt lat="41.159287" lon="-3.408673">
        <ele>1625.146</ele>
        <time>2016-07-20T16:27:01Z</time>
      </trkpt>
      <trkpt lat="41.159189" lon="-3.408855">
        <ele>1627.049</ele>
        <time>2016-07-20T16:27:03Z</time>
      </trkpt>
      <trkpt lat="41.159093" lon="-3.409020">
        <ele>1627.965</ele>
        <time>2016-07-20T16:27:05Z</time>
      </trkpt>
      <trkpt lat="41.158998" lon="-3.409153">
        <ele>1627.951</ele>
        <time>2016-07-20T16:27:07Z</time>
      </trkpt>
      <trkpt lat="41.158930" lon="-3.409291">
        <ele>1627.866</ele>
        <time>2016-07-20T16:27:10Z</time>
      </trkpt>
      <trkpt lat="41.158961" lon="-3.409444">
        <ele>1628.039</ele>
        <time>2016-07-20T16:27:14Z</time>
      </trkpt>
      <trkpt lat="41.159027" lon="-3.409558">
        <ele>1627.749</ele>
        <time>2016-07-20T16:27:16Z</time>
      </trkpt>
      <trkpt lat="41.159126" lon="-3.409673">
        <ele>1627.157</ele>
        <time>2016-07-20T16:27:18Z</time>
      </trkpt>
      <trkpt lat="41.159249" lon="-3.409742">
        <ele>1626.715</ele>
        <time>2016-07-20T16:27:20Z</time>
      </trkpt>
      <trkpt lat="41.159394" lon="-3.409798">
        <ele>1626.965</ele>
        <time>2016-07-20T16:27:22Z</time>
      </trkpt>
      <trkpt lat="41.159545" lon="-3.409860">
        <ele>1628.611</ele>
        <time>2016-07-20T16:27:24Z</time>
      </trkpt>
      <trkpt lat="41.159681" lon="-3.409944">
        <ele>1629.708</ele>
        <time>2016-07-20T16:27:26Z</time>
      </trkpt>
      <trkpt lat="41.159817" lon="-3.410044">
        <ele>1629.842</ele>
        <time>2016-07-20T16:27:28Z</time>
      </trkpt>
      <trkpt lat="41.159963" lon="-3.410147">
        <ele>1629.365</ele>
        <time>2016-07-20T16:27:30Z</time>
      </trkpt>
      <trkpt lat="41.160120" lon="-3.410248">
        <ele>1628.551</ele>
        <time>2016-07-20T16:27:32Z</time>
      </trkpt>
      <trkpt lat="41.160332" lon="-3.410358">
        <ele>1627.747</ele>
        <time>2016-07-20T16:27:34Z</time>
      </trkpt>
      <trkpt lat="41.160465" lon="-3.410432">
        <ele>1627.762</ele>
        <time>2016-07-20T16:27:36Z</time>
      </trkpt>
      <trkpt lat="41.160585" lon="-3.410500">
        <ele>1627.685</ele>
        <time>2016-07-20T16:27:38Z</time>
      </trkpt>
      <trkpt lat="41.160711" lon="-3.410564">
        <ele>1627.975</ele>
        <time>2016-07-20T16:27:40Z</time>
      </trkpt>
      <trkpt lat="41.160837" lon="-3.410635">
        <ele>1628.343</ele>
        <time>2016-07-20T16:27:42Z</time>
      </trkpt>
      <trkpt lat="41.160972" lon="-3.410735">
        <ele>1629.456</ele>
        <time>2016-07-20T16:27:44Z</time>
      </trkpt>
      <trkpt lat="41.161097" lon="-3.410830">
        <ele>1629.759</ele>
        <time>2016-07-20T16:27:46Z</time>
      </trkpt>
      <trkpt lat="41.161225" lon="-3.410944">
        <ele>1629.314</ele>
        <time>2016-07-20T16:27:48Z</time>
      </trkpt>
      <trkpt lat="41.161353" lon="-3.411063">
        <ele>1629.108</ele>
        <time>2016-07-20T16:27:50Z</time>
      </trkpt>
      <trkpt lat="41.161473" lon="-3.411186">
        <ele>1628.646</ele>
        <time>2016-07-20T16:27:52Z</time>
      </trkpt>
      <trkpt lat="41.161589" lon="-3.411316">
        <ele>1627.649</ele>
        <time>2016-07-20T16:27:54Z</time>
      </trkpt>
      <trkpt lat="41.161710" lon="-3.411465">
        <ele>1627.955</ele>
        <time>2016-07-20T16:27:56Z</time>
      </trkpt>
      <trkpt lat="41.161803" lon="-3.411601">
        <ele>1627.771</ele>
        <time>2016-07-20T16:27:58Z</time>
      </trkpt>
      <trkpt lat="41.161905" lon="-3.411753">
        <ele>1628.176</ele>
        <time>2016-07-20T16:28:00Z</time>
      </trkpt>
      <trkpt lat="41.161985" lon="-3.411924">
        <ele>1629.589</ele>
        <time>2016-07-20T16:28:02Z</time>
      </trkpt>
      <trkpt lat="41.162041" lon="-3.412105">
        <ele>1631.849</ele>
        <time>2016-07-20T16:28:04Z</time>
      </trkpt>
      <trkpt lat="41.162040" lon="-3.412282">
        <ele>1633.657</ele>
        <time>2016-07-20T16:28:06Z</time>
      </trkpt>
      <trkpt lat="41.161978" lon="-3.412485">
        <ele>1635.914</ele>
        <time>2016-07-20T16:28:08Z</time>
      </trkpt>
      <trkpt lat="41.161886" lon="-3.412673">
        <ele>1638.254</ele>
        <time>2016-07-20T16:28:10Z</time>
      </trkpt>
      <trkpt lat="41.161807" lon="-3.412872">
        <ele>1640.409</ele>
        <time>2016-07-20T16:28:13Z</time>
      </trkpt>
      <trkpt lat="41.161735" lon="-3.413058">
        <ele>1641.508</ele>
        <time>2016-07-20T16:28:14Z</time>
      </trkpt>
      <trkpt lat="41.161668" lon="-3.413257">
        <ele>1642.012</ele>
        <time>2016-07-20T16:28:17Z</time>
      </trkpt>
      <trkpt lat="41.161639" lon="-3.413371">
        <ele>1642.025</ele>
        <time>2016-07-20T16:28:18Z</time>
      </trkpt>
      <trkpt lat="41.161616" lon="-3.413487">
        <ele>1642.031</ele>
        <time>2016-07-20T16:28:19Z</time>
      </trkpt>
      <trkpt lat="41.161576" lon="-3.413710">
        <ele>1641.887</ele>
        <time>2016-07-20T16:28:21Z</time>
      </trkpt>
      <trkpt lat="41.161561" lon="-3.413832">
        <ele>1641.732</ele>
        <time>2016-07-20T16:28:22Z</time>
      </trkpt>
      <trkpt lat="41.161553" lon="-3.413956">
        <ele>1641.685</ele>
        <time>2016-07-20T16:28:23Z</time>
      </trkpt>
      <trkpt lat="41.161544" lon="-3.414081">
        <ele>1641.745</ele>
        <time>2016-07-20T16:28:24Z</time>
      </trkpt>
      <trkpt lat="41.161539" lon="-3.414203">
        <ele>1641.543</ele>
        <time>2016-07-20T16:28:25Z</time>
      </trkpt>
      <trkpt lat="41.161535" lon="-3.414424">
        <ele>1640.421</ele>
        <time>2016-07-20T16:28:27Z</time>
      </trkpt>
      <trkpt lat="41.161571" lon="-3.414642">
        <ele>1638.941</ele>
        <time>2016-07-20T16:28:29Z</time>
      </trkpt>
      <trkpt lat="41.161622" lon="-3.414866">
        <ele>1636.805</ele>
        <time>2016-07-20T16:28:31Z</time>
      </trkpt>
      <trkpt lat="41.161682" lon="-3.415093">
        <ele>1634.408</ele>
        <time>2016-07-20T16:28:33Z</time>
      </trkpt>
      <trkpt lat="41.161717" lon="-3.415219">
        <ele>1633.313</ele>
        <time>2016-07-20T16:28:34Z</time>
      </trkpt>
      <trkpt lat="41.161758" lon="-3.415348">
        <ele>1632.846</ele>
        <time>2016-07-20T16:28:35Z</time>
      </trkpt>
      <trkpt lat="41.161797" lon="-3.415465">
        <ele>1632.132</ele>
        <time>2016-07-20T16:28:36Z</time>
      </trkpt>
      <trkpt lat="41.161841" lon="-3.415583">
        <ele>1631.448</ele>
        <time>2016-07-20T16:28:37Z</time>
      </trkpt>
      <trkpt lat="41.161936" lon="-3.415762">
        <ele>1630.363</ele>
        <time>2016-07-20T16:28:39Z</time>
      </trkpt>
      <trkpt lat="41.162061" lon="-3.415891">
        <ele>1630.146</ele>
        <time>2016-07-20T16:28:41Z</time>
      </trkpt>
      <trkpt lat="41.162198" lon="-3.416017">
        <ele>1629.966</ele>
        <time>2016-07-20T16:28:43Z</time>
      </trkpt>
      <trkpt lat="41.162346" lon="-3.416135">
        <ele>1630.444</ele>
        <time>2016-07-20T16:28:45Z</time>
      </trkpt>
      <trkpt lat="41.162509" lon="-3.416249">
        <ele>1631.265</ele>
        <time>2016-07-20T16:28:47Z</time>
      </trkpt>
      <trkpt lat="41.162590" lon="-3.416306">
        <ele>1630.968</ele>
        <time>2016-07-20T16:28:48Z</time>
      </trkpt>
      <trkpt lat="41.162738" lon="-3.416443">
        <ele>1630.014</ele>
        <time>2016-07-20T16:28:50Z</time>
      </trkpt>
      <trkpt lat="41.162808" lon="-3.416530">
        <ele>1630.208</ele>
        <time>2016-07-20T16:28:51Z</time>
      </trkpt>
      <trkpt lat="41.162929" lon="-3.416702">
        <ele>1630.357</ele>
        <time>2016-07-20T16:28:53Z</time>
      </trkpt>
      <trkpt lat="41.163046" lon="-3.416879">
        <ele>1630.330</ele>
        <time>2016-07-20T16:28:55Z</time>
      </trkpt>
      <trkpt lat="41.163161" lon="-3.417052">
        <ele>1629.336</ele>
        <time>2016-07-20T16:28:57Z</time>
      </trkpt>
      <trkpt lat="41.163231" lon="-3.417159">
        <ele>1628.832</ele>
        <time>2016-07-20T16:28:58Z</time>
      </trkpt>
      <trkpt lat="41.163347" lon="-3.417336">
        <ele>1627.637</ele>
        <time>2016-07-20T16:29:00Z</time>
      </trkpt>
      <trkpt lat="41.163463" lon="-3.417527">
        <ele>1627.090</ele>
        <time>2016-07-20T16:29:02Z</time>
      </trkpt>
      <trkpt lat="41.163517" lon="-3.417626">
        <ele>1626.670</ele>
        <time>2016-07-20T16:29:03Z</time>
      </trkpt>
      <trkpt lat="41.163590" lon="-3.417812">
        <ele>1625.648</ele>
        <time>2016-07-20T16:29:05Z</time>
      </trkpt>
      <trkpt lat="41.163650" lon="-3.418016">
        <ele>1624.282</ele>
        <time>2016-07-20T16:29:07Z</time>
      </trkpt>
      <trkpt lat="41.163721" lon="-3.418232">
        <ele>1622.743</ele>
        <time>2016-07-20T16:29:09Z</time>
      </trkpt>
      <trkpt lat="41.163780" lon="-3.418430">
        <ele>1622.217</ele>
        <time>2016-07-20T16:29:11Z</time>
      </trkpt>
      <trkpt lat="41.163779" lon="-3.418602">
        <ele>1622.208</ele>
        <time>2016-07-20T16:29:13Z</time>
      </trkpt>
      <trkpt lat="41.163702" lon="-3.418734">
        <ele>1621.769</ele>
        <time>2016-07-20T16:29:14Z</time>
      </trkpt>
      <trkpt lat="41.163560" lon="-3.418756">
        <ele>1620.342</ele>
        <time>2016-07-20T16:29:16Z</time>
      </trkpt>
      <trkpt lat="41.163404" lon="-3.418731">
        <ele>1619.988</ele>
        <time>2016-07-20T16:29:18Z</time>
      </trkpt>
      <trkpt lat="41.163217" lon="-3.418707">
        <ele>1619.164</ele>
        <time>2016-07-20T16:29:20Z</time>
      </trkpt>
      <trkpt lat="41.163111" lon="-3.418698">
        <ele>1618.939</ele>
        <time>2016-07-20T16:29:21Z</time>
      </trkpt>
      <trkpt lat="41.163015" lon="-3.418694">
        <ele>1618.882</ele>
        <time>2016-07-20T16:29:22Z</time>
      </trkpt>
      <trkpt lat="41.162837" lon="-3.418707">
        <ele>1619.532</ele>
        <time>2016-07-20T16:29:24Z</time>
      </trkpt>
      <trkpt lat="41.162740" lon="-3.418711">
        <ele>1619.440</ele>
        <time>2016-07-20T16:29:25Z</time>
      </trkpt>
      <trkpt lat="41.162643" lon="-3.418723">
        <ele>1618.752</ele>
        <time>2016-07-20T16:29:26Z</time>
      </trkpt>
      <trkpt lat="41.162489" lon="-3.418767">
        <ele>1617.853</ele>
        <time>2016-07-20T16:29:28Z</time>
      </trkpt>
      <trkpt lat="41.162348" lon="-3.418834">
        <ele>1618.108</ele>
        <time>2016-07-20T16:29:30Z</time>
      </trkpt>
      <trkpt lat="41.162190" lon="-3.418940">
        <ele>1618.508</ele>
        <time>2016-07-20T16:29:32Z</time>
      </trkpt>
      <trkpt lat="41.162040" lon="-3.419069">
        <ele>1618.666</ele>
        <time>2016-07-20T16:29:34Z</time>
      </trkpt>
      <trkpt lat="41.161956" lon="-3.419133">
        <ele>1618.219</ele>
        <time>2016-07-20T16:29:35Z</time>
      </trkpt>
      <trkpt lat="41.161871" lon="-3.419177">
        <ele>1617.735</ele>
        <time>2016-07-20T16:29:36Z</time>
      </trkpt>
      <trkpt lat="41.161786" lon="-3.419219">
        <ele>1617.141</ele>
        <time>2016-07-20T16:29:37Z</time>
      </trkpt>
      <trkpt lat="41.161695" lon="-3.419254">
        <ele>1615.946</ele>
        <time>2016-07-20T16:29:38Z</time>
      </trkpt>
      <trkpt lat="41.161600" lon="-3.419288">
        <ele>1614.539</ele>
        <time>2016-07-20T16:29:39Z</time>
      </trkpt>
      <trkpt lat="41.161505" lon="-3.419322">
        <ele>1613.749</ele>
        <time>2016-07-20T16:29:40Z</time>
      </trkpt>
      <trkpt lat="41.161414" lon="-3.419359">
        <ele>1613.127</ele>
        <time>2016-07-20T16:29:41Z</time>
      </trkpt>
      <trkpt lat="41.161254" lon="-3.419424">
        <ele>1611.752</ele>
        <time>2016-07-20T16:29:43Z</time>
      </trkpt>
      <trkpt lat="41.161123" lon="-3.419498">
        <ele>1610.053</ele>
        <time>2016-07-20T16:29:45Z</time>
      </trkpt>
      <trkpt lat="41.161007" lon="-3.419621">
        <ele>1609.108</ele>
        <time>2016-07-20T16:29:47Z</time>
      </trkpt>
      <trkpt lat="41.160883" lon="-3.419769">
        <ele>1607.308</ele>
        <time>2016-07-20T16:29:49Z</time>
      </trkpt>
      <trkpt lat="41.160743" lon="-3.419883">
        <ele>1606.466</ele>
        <time>2016-07-20T16:29:52Z</time>
      </trkpt>
      <trkpt lat="41.160575" lon="-3.419952">
        <ele>1605.659</ele>
        <time>2016-07-20T16:29:54Z</time>
      </trkpt>
      <trkpt lat="41.160397" lon="-3.419994">
        <ele>1605.045</ele>
        <time>2016-07-20T16:29:56Z</time>
      </trkpt>
      <trkpt lat="41.160303" lon="-3.420005">
        <ele>1604.171</ele>
        <time>2016-07-20T16:29:57Z</time>
      </trkpt>
      <trkpt lat="41.160211" lon="-3.420012">
        <ele>1603.436</ele>
        <time>2016-07-20T16:29:58Z</time>
      </trkpt>
      <trkpt lat="41.160112" lon="-3.420015">
        <ele>1602.229</ele>
        <time>2016-07-20T16:29:59Z</time>
      </trkpt>
      <trkpt lat="41.160004" lon="-3.420018">
        <ele>1601.069</ele>
        <time>2016-07-20T16:30:00Z</time>
      </trkpt>
      <trkpt lat="41.159908" lon="-3.420023">
        <ele>1600.127</ele>
        <time>2016-07-20T16:30:01Z</time>
      </trkpt>
      <trkpt lat="41.159802" lon="-3.420025">
        <ele>1599.027</ele>
        <time>2016-07-20T16:30:02Z</time>
      </trkpt>
      <trkpt lat="41.159702" lon="-3.420028">
        <ele>1598.368</ele>
        <time>2016-07-20T16:30:03Z</time>
      </trkpt>
      <trkpt lat="41.159596" lon="-3.420026">
        <ele>1597.414</ele>
        <time>2016-07-20T16:30:04Z</time>
      </trkpt>
      <trkpt lat="41.159489" lon="-3.420021">
        <ele>1596.308</ele>
        <time>2016-07-20T16:30:05Z</time>
      </trkpt>
      <trkpt lat="41.159390" lon="-3.420014">
        <ele>1595.693</ele>
        <time>2016-07-20T16:30:06Z</time>
      </trkpt>
      <trkpt lat="41.159291" lon="-3.420006">
        <ele>1594.886</ele>
        <time>2016-07-20T16:30:07Z</time>
      </trkpt>
      <trkpt lat="41.159200" lon="-3.419994">
        <ele>1593.972</ele>
        <time>2016-07-20T16:30:08Z</time>
      </trkpt>
      <trkpt lat="41.159043" lon="-3.419990">
        <ele>1592.038</ele>
        <time>2016-07-20T16:30:10Z</time>
      </trkpt>
      <trkpt lat="41.158894" lon="-3.420036">
        <ele>1589.573</ele>
        <time>2016-07-20T16:30:12Z</time>
      </trkpt>
      <trkpt lat="41.158777" lon="-3.420150">
        <ele>1587.246</ele>
        <time>2016-07-20T16:30:14Z</time>
      </trkpt>
      <trkpt lat="41.158709" lon="-3.420312">
        <ele>1584.656</ele>
        <time>2016-07-20T16:30:16Z</time>
      </trkpt>
      <trkpt lat="41.158660" lon="-3.420526">
        <ele>1582.534</ele>
        <time>2016-07-20T16:30:18Z</time>
      </trkpt>
      <trkpt lat="41.158637" lon="-3.420651">
        <ele>1581.636</ele>
        <time>2016-07-20T16:30:19Z</time>
      </trkpt>
      <trkpt lat="41.158611" lon="-3.420767">
        <ele>1580.317</ele>
        <time>2016-07-20T16:30:20Z</time>
      </trkpt>
      <trkpt lat="41.158586" lon="-3.420893">
        <ele>1579.418</ele>
        <time>2016-07-20T16:30:21Z</time>
      </trkpt>
      <trkpt lat="41.158564" lon="-3.421018">
        <ele>1578.408</ele>
        <time>2016-07-20T16:30:22Z</time>
      </trkpt>
      <trkpt lat="41.158546" lon="-3.421144">
        <ele>1577.774</ele>
        <time>2016-07-20T16:30:23Z</time>
      </trkpt>
      <trkpt lat="41.158535" lon="-3.421269">
        <ele>1576.737</ele>
        <time>2016-07-20T16:30:24Z</time>
      </trkpt>
      <trkpt lat="41.158526" lon="-3.421420">
        <ele>1575.533</ele>
        <time>2016-07-20T16:30:25Z</time>
      </trkpt>
      <trkpt lat="41.158526" lon="-3.421569">
        <ele>1574.589</ele>
        <time>2016-07-20T16:30:26Z</time>
      </trkpt>
      <trkpt lat="41.158527" lon="-3.421732">
        <ele>1573.324</ele>
        <time>2016-07-20T16:30:27Z</time>
      </trkpt>
      <trkpt lat="41.158535" lon="-3.421874">
        <ele>1572.157</ele>
        <time>2016-07-20T16:30:28Z</time>
      </trkpt>
      <trkpt lat="41.158538" lon="-3.422030">
        <ele>1570.857</ele>
        <time>2016-07-20T16:30:29Z</time>
      </trkpt>
      <trkpt lat="41.158549" lon="-3.422178">
        <ele>1570.015</ele>
        <time>2016-07-20T16:30:30Z</time>
      </trkpt>
      <trkpt lat="41.158559" lon="-3.422320">
        <ele>1568.952</ele>
        <time>2016-07-20T16:30:31Z</time>
      </trkpt>
      <trkpt lat="41.158571" lon="-3.422482">
        <ele>1567.853</ele>
        <time>2016-07-20T16:30:32Z</time>
      </trkpt>
      <trkpt lat="41.158579" lon="-3.422617">
        <ele>1567.708</ele>
        <time>2016-07-20T16:30:33Z</time>
      </trkpt>
      <trkpt lat="41.158589" lon="-3.422769">
        <ele>1567.208</ele>
        <time>2016-07-20T16:30:34Z</time>
      </trkpt>
      <trkpt lat="41.158601" lon="-3.422909">
        <ele>1567.136</ele>
        <time>2016-07-20T16:30:35Z</time>
      </trkpt>
      <trkpt lat="41.158616" lon="-3.423036">
        <ele>1567.039</ele>
        <time>2016-07-20T16:30:36Z</time>
      </trkpt>
      <trkpt lat="41.158637" lon="-3.423159">
        <ele>1566.765</ele>
        <time>2016-07-20T16:30:37Z</time>
      </trkpt>
      <trkpt lat="41.158676" lon="-3.423367">
        <ele>1565.691</ele>
        <time>2016-07-20T16:30:39Z</time>
      </trkpt>
      <trkpt lat="41.158709" lon="-3.423553">
        <ele>1564.336</ele>
        <time>2016-07-20T16:30:41Z</time>
      </trkpt>
      <trkpt lat="41.158687" lon="-3.423705">
        <ele>1564.579</ele>
        <time>2016-07-20T16:30:43Z</time>
      </trkpt>
      <trkpt lat="41.158605" lon="-3.423782">
        <ele>1565.889</ele>
        <time>2016-07-20T16:30:45Z</time>
      </trkpt>
      <trkpt lat="41.158515" lon="-3.423807">
        <ele>1566.697</ele>
        <time>2016-07-20T16:30:47Z</time>
      </trkpt>
      <trkpt lat="41.158424" lon="-3.423767">
        <ele>1567.361</ele>
        <time>2016-07-20T16:30:49Z</time>
      </trkpt>
      <trkpt lat="41.158290" lon="-3.423740">
        <ele>1567.021</ele>
        <time>2016-07-20T16:30:51Z</time>
      </trkpt>
      <trkpt lat="41.158156" lon="-3.423781">
        <ele>1566.413</ele>
        <time>2016-07-20T16:30:53Z</time>
      </trkpt>
      <trkpt lat="41.158072" lon="-3.423892">
        <ele>1566.008</ele>
        <time>2016-07-20T16:30:55Z</time>
      </trkpt>
      <trkpt lat="41.158009" lon="-3.424016">
        <ele>1565.477</ele>
        <time>2016-07-20T16:30:57Z</time>
      </trkpt>
      <trkpt lat="41.157916" lon="-3.424091">
        <ele>1563.820</ele>
        <time>2016-07-20T16:30:59Z</time>
      </trkpt>
      <trkpt lat="41.157793" lon="-3.423989">
        <ele>1562.646</ele>
        <time>2016-07-20T16:31:02Z</time>
      </trkpt>
      <trkpt lat="41.157710" lon="-3.423845">
        <ele>1562.092</ele>
        <time>2016-07-20T16:31:04Z</time>
      </trkpt>
      <trkpt lat="41.157610" lon="-3.423710">
        <ele>1562.787</ele>
        <time>2016-07-20T16:31:06Z</time>
      </trkpt>
      <trkpt lat="41.157498" lon="-3.423577">
        <ele>1563.980</ele>
        <time>2016-07-20T16:31:08Z</time>
      </trkpt>
      <trkpt lat="41.157376" lon="-3.423443">
        <ele>1564.460</ele>
        <time>2016-07-20T16:31:10Z</time>
      </trkpt>
      <trkpt lat="41.157266" lon="-3.423347">
        <ele>1563.698</ele>
        <time>2016-07-20T16:31:12Z</time>
      </trkpt>
      <trkpt lat="41.157155" lon="-3.423294">
        <ele>1561.861</ele>
        <time>2016-07-20T16:31:13Z</time>
      </trkpt>
      <trkpt lat="41.157048" lon="-3.423298">
        <ele>1561.121</ele>
        <time>2016-07-20T16:31:15Z</time>
      </trkpt>
      <trkpt lat="41.156916" lon="-3.423364">
        <ele>1562.213</ele>
        <time>2016-07-20T16:31:17Z</time>
      </trkpt>
      <trkpt lat="41.156766" lon="-3.423451">
        <ele>1562.608</ele>
        <time>2016-07-20T16:31:19Z</time>
      </trkpt>
      <trkpt lat="41.156602" lon="-3.423537">
        <ele>1563.047</ele>
        <time>2016-07-20T16:31:21Z</time>
      </trkpt>
      <trkpt lat="41.156511" lon="-3.423578">
        <ele>1563.060</ele>
        <time>2016-07-20T16:31:22Z</time>
      </trkpt>
      <trkpt lat="41.156421" lon="-3.423615">
        <ele>1563.066</ele>
        <time>2016-07-20T16:31:23Z</time>
      </trkpt>
      <trkpt lat="41.156333" lon="-3.423652">
        <ele>1562.792</ele>
        <time>2016-07-20T16:31:24Z</time>
      </trkpt>
      <trkpt lat="41.156175" lon="-3.423722">
        <ele>1562.427</ele>
        <time>2016-07-20T16:31:26Z</time>
      </trkpt>
      <trkpt lat="41.156034" lon="-3.423787">
        <ele>1561.550</ele>
        <time>2016-07-20T16:31:28Z</time>
      </trkpt>
      <trkpt lat="41.155902" lon="-3.423827">
        <ele>1560.670</ele>
        <time>2016-07-20T16:31:30Z</time>
      </trkpt>
      <trkpt lat="41.155825" lon="-3.423750">
        <ele>1559.718</ele>
        <time>2016-07-20T16:31:32Z</time>
      </trkpt>
      <trkpt lat="41.155828" lon="-3.423602">
        <ele>1560.821</ele>
        <time>2016-07-20T16:31:34Z</time>
      </trkpt>
      <trkpt lat="41.155840" lon="-3.423422">
        <ele>1564.841</ele>
        <time>2016-07-20T16:31:36Z</time>
      </trkpt>
      <trkpt lat="41.155857" lon="-3.423175">
        <ele>1569.405</ele>
        <time>2016-07-20T16:31:38Z</time>
      </trkpt>
      <trkpt lat="41.155878" lon="-3.422931">
        <ele>1572.508</ele>
        <time>2016-07-20T16:31:40Z</time>
      </trkpt>
      <trkpt lat="41.155890" lon="-3.422796">
        <ele>1572.853</ele>
        <time>2016-07-20T16:31:41Z</time>
      </trkpt>
      <trkpt lat="41.155897" lon="-3.422659">
        <ele>1572.826</ele>
        <time>2016-07-20T16:31:42Z</time>
      </trkpt>
      <trkpt lat="41.155900" lon="-3.422519">
        <ele>1572.372</ele>
        <time>2016-07-20T16:31:44Z</time>
      </trkpt>
      <trkpt lat="41.155903" lon="-3.422384">
        <ele>1571.888</ele>
        <time>2016-07-20T16:31:45Z</time>
      </trkpt>
      <trkpt lat="41.155905" lon="-3.422150">
        <ele>1571.233</ele>
        <time>2016-07-20T16:31:47Z</time>
      </trkpt>
      <trkpt lat="41.155893" lon="-3.421921">
        <ele>1570.536</ele>
        <time>2016-07-20T16:31:49Z</time>
      </trkpt>
      <trkpt lat="41.155882" lon="-3.421794">
        <ele>1570.136</ele>
        <time>2016-07-20T16:31:50Z</time>
      </trkpt>
      <trkpt lat="41.155868" lon="-3.421669">
        <ele>1570.594</ele>
        <time>2016-07-20T16:31:51Z</time>
      </trkpt>
      <trkpt lat="41.155853" lon="-3.421534">
        <ele>1570.824</ele>
        <time>2016-07-20T16:31:52Z</time>
      </trkpt>
      <trkpt lat="41.155840" lon="-3.421412">
        <ele>1571.704</ele>
        <time>2016-07-20T16:31:53Z</time>
      </trkpt>
      <trkpt lat="41.155831" lon="-3.421293">
        <ele>1572.214</ele>
        <time>2016-07-20T16:31:54Z</time>
      </trkpt>
      <trkpt lat="41.155826" lon="-3.421164">
        <ele>1572.608</ele>
        <time>2016-07-20T16:31:55Z</time>
      </trkpt>
      <trkpt lat="41.155833" lon="-3.420958">
        <ele>1573.583</ele>
        <time>2016-07-20T16:31:57Z</time>
      </trkpt>
      <trkpt lat="41.155836" lon="-3.420783">
        <ele>1573.746</ele>
        <time>2016-07-20T16:31:59Z</time>
      </trkpt>
      <trkpt lat="41.155805" lon="-3.420632">
        <ele>1573.452</ele>
        <time>2016-07-20T16:32:02Z</time>
      </trkpt>
      <trkpt lat="41.155748" lon="-3.420519">
        <ele>1573.468</ele>
        <time>2016-07-20T16:32:05Z</time>
      </trkpt>
      <trkpt lat="41.155656" lon="-3.420378">
        <ele>1574.113</ele>
        <time>2016-07-20T16:32:08Z</time>
      </trkpt>
      <trkpt lat="41.155559" lon="-3.420248">
        <ele>1577.246</ele>
        <time>2016-07-20T16:32:10Z</time>
      </trkpt>
      <trkpt lat="41.155496" lon="-3.420156">
        <ele>1578.956</ele>
        <time>2016-07-20T16:32:11Z</time>
      </trkpt>
      <trkpt lat="41.155432" lon="-3.420064">
        <ele>1580.214</ele>
        <time>2016-07-20T16:32:12Z</time>
      </trkpt>
      <trkpt lat="41.155372" lon="-3.419973">
        <ele>1580.916</ele>
        <time>2016-07-20T16:32:13Z</time>
      </trkpt>
      <trkpt lat="41.155314" lon="-3.419870">
        <ele>1581.576</ele>
        <time>2016-07-20T16:32:14Z</time>
      </trkpt>
      <trkpt lat="41.155253" lon="-3.419771">
        <ele>1582.413</ele>
        <time>2016-07-20T16:32:15Z</time>
      </trkpt>
      <trkpt lat="41.155194" lon="-3.419668">
        <ele>1583.808</ele>
        <time>2016-07-20T16:32:16Z</time>
      </trkpt>
      <trkpt lat="41.155138" lon="-3.419570">
        <ele>1585.172</ele>
        <time>2016-07-20T16:32:17Z</time>
      </trkpt>
      <trkpt lat="41.155068" lon="-3.419463">
        <ele>1586.275</ele>
        <time>2016-07-20T16:32:18Z</time>
      </trkpt>
      <trkpt lat="41.155004" lon="-3.419370">
        <ele>1586.931</ele>
        <time>2016-07-20T16:32:19Z</time>
      </trkpt>
      <trkpt lat="41.154936" lon="-3.419280">
        <ele>1586.837</ele>
        <time>2016-07-20T16:32:20Z</time>
      </trkpt>
      <trkpt lat="41.154803" lon="-3.419137">
        <ele>1585.672</ele>
        <time>2016-07-20T16:32:22Z</time>
      </trkpt>
      <trkpt lat="41.154727" lon="-3.419071">
        <ele>1585.445</ele>
        <time>2016-07-20T16:32:23Z</time>
      </trkpt>
      <trkpt lat="41.154566" lon="-3.418975">
        <ele>1586.845</ele>
        <time>2016-07-20T16:32:25Z</time>
      </trkpt>
      <trkpt lat="41.154482" lon="-3.418924">
        <ele>1587.763</ele>
        <time>2016-07-20T16:32:26Z</time>
      </trkpt>
      <trkpt lat="41.154367" lon="-3.418793">
        <ele>1589.515</ele>
        <time>2016-07-20T16:32:28Z</time>
      </trkpt>
      <trkpt lat="41.154303" lon="-3.418636">
        <ele>1590.465</ele>
        <time>2016-07-20T16:32:30Z</time>
      </trkpt>
      <trkpt lat="41.154253" lon="-3.418457">
        <ele>1592.511</ele>
        <time>2016-07-20T16:32:32Z</time>
      </trkpt>
      <trkpt lat="41.154198" lon="-3.418318">
        <ele>1595.108</ele>
        <time>2016-07-20T16:32:34Z</time>
      </trkpt>
      <trkpt lat="41.154166" lon="-3.418170">
        <ele>1597.842</ele>
        <time>2016-07-20T16:32:36Z</time>
      </trkpt>
      <trkpt lat="41.154143" lon="-3.418004">
        <ele>1600.285</ele>
        <time>2016-07-20T16:32:38Z</time>
      </trkpt>
      <trkpt lat="41.154092" lon="-3.417835">
        <ele>1601.941</ele>
        <time>2016-07-20T16:32:40Z</time>
      </trkpt>
      <trkpt lat="41.153983" lon="-3.417707">
        <ele>1601.557</ele>
        <time>2016-07-20T16:32:42Z</time>
      </trkpt>
      <trkpt lat="41.153869" lon="-3.417618">
        <ele>1599.852</ele>
        <time>2016-07-20T16:32:44Z</time>
      </trkpt>
      <trkpt lat="41.153737" lon="-3.417585">
        <ele>1598.285</ele>
        <time>2016-07-20T16:32:46Z</time>
      </trkpt>
      <trkpt lat="41.153598" lon="-3.417553">
        <ele>1596.355</ele>
        <time>2016-07-20T16:32:48Z</time>
      </trkpt>
      <trkpt lat="41.153454" lon="-3.417497">
        <ele>1593.163</ele>
        <time>2016-07-20T16:32:50Z</time>
      </trkpt>
      <trkpt lat="41.153293" lon="-3.417414">
        <ele>1589.553</ele>
        <time>2016-07-20T16:32:52Z</time>
      </trkpt>
      <trkpt lat="41.153143" lon="-3.417336">
        <ele>1586.904</ele>
        <time>2016-07-20T16:32:54Z</time>
      </trkpt>
      <trkpt lat="41.153027" lon="-3.417231">
        <ele>1585.614</ele>
        <time>2016-07-20T16:32:56Z</time>
      </trkpt>
      <trkpt lat="41.152981" lon="-3.417059">
        <ele>1584.708</ele>
        <time>2016-07-20T16:32:58Z</time>
      </trkpt>
      <trkpt lat="41.152989" lon="-3.416822">
        <ele>1583.296</ele>
        <time>2016-07-20T16:33:00Z</time>
      </trkpt>
      <trkpt lat="41.152945" lon="-3.416640">
        <ele>1583.479</ele>
        <time>2016-07-20T16:33:02Z</time>
      </trkpt>
      <trkpt lat="41.152879" lon="-3.416452">
        <ele>1584.645</ele>
        <time>2016-07-20T16:33:04Z</time>
      </trkpt>
      <trkpt lat="41.152792" lon="-3.416263">
        <ele>1586.361</ele>
        <time>2016-07-20T16:33:06Z</time>
      </trkpt>
      <trkpt lat="41.152710" lon="-3.416107">
        <ele>1588.546</ele>
        <time>2016-07-20T16:33:08Z</time>
      </trkpt>
      <trkpt lat="41.152602" lon="-3.415935">
        <ele>1590.149</ele>
        <time>2016-07-20T16:33:10Z</time>
      </trkpt>
      <trkpt lat="41.152537" lon="-3.415831">
        <ele>1590.389</ele>
        <time>2016-07-20T16:33:11Z</time>
      </trkpt>
      <trkpt lat="41.152497" lon="-3.415716">
        <ele>1590.897</ele>
        <time>2016-07-20T16:33:12Z</time>
      </trkpt>
      <trkpt lat="41.152459" lon="-3.415607">
        <ele>1590.653</ele>
        <time>2016-07-20T16:33:13Z</time>
      </trkpt>
      <trkpt lat="41.152409" lon="-3.415385">
        <ele>1590.504</ele>
        <time>2016-07-20T16:33:15Z</time>
      </trkpt>
      <trkpt lat="41.152360" lon="-3.415195">
        <ele>1590.214</ele>
        <time>2016-07-20T16:33:17Z</time>
      </trkpt>
      <trkpt lat="41.152292" lon="-3.414996">
        <ele>1589.608</ele>
        <time>2016-07-20T16:33:19Z</time>
      </trkpt>
      <trkpt lat="41.152211" lon="-3.414806">
        <ele>1588.356</ele>
        <time>2016-07-20T16:33:21Z</time>
      </trkpt>
      <trkpt lat="41.152145" lon="-3.414712">
        <ele>1588.119</ele>
        <time>2016-07-20T16:33:22Z</time>
      </trkpt>
      <trkpt lat="41.152014" lon="-3.414534">
        <ele>1588.675</ele>
        <time>2016-07-20T16:33:24Z</time>
      </trkpt>
      <trkpt lat="41.151944" lon="-3.414446">
        <ele>1589.141</ele>
        <time>2016-07-20T16:33:25Z</time>
      </trkpt>
      <trkpt lat="41.151806" lon="-3.414287">
        <ele>1589.976</ele>
        <time>2016-07-20T16:33:27Z</time>
      </trkpt>
      <trkpt lat="41.151697" lon="-3.414140">
        <ele>1590.589</ele>
        <time>2016-07-20T16:33:29Z</time>
      </trkpt>
      <trkpt lat="41.151616" lon="-3.413987">
        <ele>1591.519</ele>
        <time>2016-07-20T16:33:31Z</time>
      </trkpt>
      <trkpt lat="41.151545" lon="-3.413831">
        <ele>1592.197</ele>
        <time>2016-07-20T16:33:33Z</time>
      </trkpt>
      <trkpt lat="41.151477" lon="-3.413659">
        <ele>1592.059</ele>
        <time>2016-07-20T16:33:35Z</time>
      </trkpt>
      <trkpt lat="41.151427" lon="-3.413455">
        <ele>1592.403</ele>
        <time>2016-07-20T16:33:37Z</time>
      </trkpt>
      <trkpt lat="41.151407" lon="-3.413246">
        <ele>1594.223</ele>
        <time>2016-07-20T16:33:39Z</time>
      </trkpt>
      <trkpt lat="41.151370" lon="-3.413042">
        <ele>1593.208</ele>
        <time>2016-07-20T16:33:42Z</time>
      </trkpt>
      <trkpt lat="41.151292" lon="-3.412837">
        <ele>1592.346</ele>
        <time>2016-07-20T16:33:44Z</time>
      </trkpt>
      <trkpt lat="41.151250" lon="-3.412713">
        <ele>1591.899</ele>
        <time>2016-07-20T16:33:45Z</time>
      </trkpt>
      <trkpt lat="41.151222" lon="-3.412594">
        <ele>1592.035</ele>
        <time>2016-07-20T16:33:46Z</time>
      </trkpt>
      <trkpt lat="41.151203" lon="-3.412457">
        <ele>1592.171</ele>
        <time>2016-07-20T16:33:47Z</time>
      </trkpt>
      <trkpt lat="41.151188" lon="-3.412327">
        <ele>1592.876</ele>
        <time>2016-07-20T16:33:48Z</time>
      </trkpt>
      <trkpt lat="41.151172" lon="-3.412197">
        <ele>1593.449</ele>
        <time>2016-07-20T16:33:49Z</time>
      </trkpt>
      <trkpt lat="41.151137" lon="-3.411960">
        <ele>1593.939</ele>
        <time>2016-07-20T16:33:51Z</time>
      </trkpt>
      <trkpt lat="41.151086" lon="-3.411836">
        <ele>1593.667</ele>
        <time>2016-07-20T16:33:52Z</time>
      </trkpt>
      <trkpt lat="41.150986" lon="-3.411642">
        <ele>1592.864</ele>
        <time>2016-07-20T16:33:54Z</time>
      </trkpt>
      <trkpt lat="41.150916" lon="-3.411551">
        <ele>1592.406</ele>
        <time>2016-07-20T16:33:55Z</time>
      </trkpt>
      <trkpt lat="41.150795" lon="-3.411389">
        <ele>1592.816</ele>
        <time>2016-07-20T16:33:57Z</time>
      </trkpt>
      <trkpt lat="41.150690" lon="-3.411213">
        <ele>1592.308</ele>
        <time>2016-07-20T16:33:59Z</time>
      </trkpt>
      <trkpt lat="41.150591" lon="-3.411037">
        <ele>1591.717</ele>
        <time>2016-07-20T16:34:01Z</time>
      </trkpt>
      <trkpt lat="41.150535" lon="-3.410927">
        <ele>1590.830</ele>
        <time>2016-07-20T16:34:02Z</time>
      </trkpt>
      <trkpt lat="41.150487" lon="-3.410806">
        <ele>1590.386</ele>
        <time>2016-07-20T16:34:03Z</time>
      </trkpt>
      <trkpt lat="41.150443" lon="-3.410697">
        <ele>1589.322</ele>
        <time>2016-07-20T16:34:04Z</time>
      </trkpt>
      <trkpt lat="41.150399" lon="-3.410572">
        <ele>1587.817</ele>
        <time>2016-07-20T16:34:05Z</time>
      </trkpt>
      <trkpt lat="41.150354" lon="-3.410447">
        <ele>1586.750</ele>
        <time>2016-07-20T16:34:06Z</time>
      </trkpt>
      <trkpt lat="41.150309" lon="-3.410320">
        <ele>1585.850</ele>
        <time>2016-07-20T16:34:07Z</time>
      </trkpt>
      <trkpt lat="41.150263" lon="-3.410199">
        <ele>1585.648</ele>
        <time>2016-07-20T16:34:08Z</time>
      </trkpt>
      <trkpt lat="41.150209" lon="-3.410077">
        <ele>1585.684</ele>
        <time>2016-07-20T16:34:09Z</time>
      </trkpt>
      <trkpt lat="41.150149" lon="-3.409942">
        <ele>1585.507</ele>
        <time>2016-07-20T16:34:10Z</time>
      </trkpt>
      <trkpt lat="41.150092" lon="-3.409817">
        <ele>1585.817</ele>
        <time>2016-07-20T16:34:11Z</time>
      </trkpt>
      <trkpt lat="41.150030" lon="-3.409682">
        <ele>1585.708</ele>
        <time>2016-07-20T16:34:12Z</time>
      </trkpt>
      <trkpt lat="41.149970" lon="-3.409568">
        <ele>1585.489</ele>
        <time>2016-07-20T16:34:13Z</time>
      </trkpt>
      <trkpt lat="41.149903" lon="-3.409451">
        <ele>1585.632</ele>
        <time>2016-07-20T16:34:14Z</time>
      </trkpt>
      <trkpt lat="41.149824" lon="-3.409345">
        <ele>1585.828</ele>
        <time>2016-07-20T16:34:15Z</time>
      </trkpt>
      <trkpt lat="41.149740" lon="-3.409234">
        <ele>1585.914</ele>
        <time>2016-07-20T16:34:16Z</time>
      </trkpt>
      <trkpt lat="41.149654" lon="-3.409130">
        <ele>1585.699</ele>
        <time>2016-07-20T16:34:17Z</time>
      </trkpt>
      <trkpt lat="41.149573" lon="-3.409033">
        <ele>1585.442</ele>
        <time>2016-07-20T16:34:18Z</time>
      </trkpt>
      <trkpt lat="41.149493" lon="-3.408936">
        <ele>1585.242</ele>
        <time>2016-07-20T16:34:19Z</time>
      </trkpt>
      <trkpt lat="41.149407" lon="-3.408838">
        <ele>1585.050</ele>
        <time>2016-07-20T16:34:20Z</time>
      </trkpt>
      <trkpt lat="41.149321" lon="-3.408739">
        <ele>1584.392</ele>
        <time>2016-07-20T16:34:21Z</time>
      </trkpt>
      <trkpt lat="41.149230" lon="-3.408640">
        <ele>1583.773</ele>
        <time>2016-07-20T16:34:22Z</time>
      </trkpt>
      <trkpt lat="41.149144" lon="-3.408547">
        <ele>1583.620</ele>
        <time>2016-07-20T16:34:23Z</time>
      </trkpt>
      <trkpt lat="41.149055" lon="-3.408453">
        <ele>1582.008</ele>
        <time>2016-07-20T16:34:24Z</time>
      </trkpt>
      <trkpt lat="41.148961" lon="-3.408357">
        <ele>1580.290</ele>
        <time>2016-07-20T16:34:25Z</time>
      </trkpt>
      <trkpt lat="41.148862" lon="-3.408263">
        <ele>1578.623</ele>
        <time>2016-07-20T16:34:26Z</time>
      </trkpt>
      <trkpt lat="41.148762" lon="-3.408174">
        <ele>1577.489</ele>
        <time>2016-07-20T16:34:27Z</time>
      </trkpt>
      <trkpt lat="41.148660" lon="-3.408085">
        <ele>1576.445</ele>
        <time>2016-07-20T16:34:28Z</time>
      </trkpt>
      <trkpt lat="41.148554" lon="-3.407991">
        <ele>1574.490</ele>
        <time>2016-07-20T16:34:29Z</time>
      </trkpt>
      <trkpt lat="41.148455" lon="-3.407914">
        <ele>1572.893</ele>
        <time>2016-07-20T16:34:30Z</time>
      </trkpt>
      <trkpt lat="41.148345" lon="-3.407830">
        <ele>1571.253</ele>
        <time>2016-07-20T16:34:31Z</time>
      </trkpt>
      <trkpt lat="41.148238" lon="-3.407745">
        <ele>1570.091</ele>
        <time>2016-07-20T16:34:32Z</time>
      </trkpt>
      <trkpt lat="41.148135" lon="-3.407665">
        <ele>1569.066</ele>
        <time>2016-07-20T16:34:33Z</time>
      </trkpt>
      <trkpt lat="41.148033" lon="-3.407583">
        <ele>1568.329</ele>
        <time>2016-07-20T16:34:34Z</time>
      </trkpt>
      <trkpt lat="41.147933" lon="-3.407508">
        <ele>1567.921</ele>
        <time>2016-07-20T16:34:35Z</time>
      </trkpt>
      <trkpt lat="41.147846" lon="-3.407446">
        <ele>1568.108</ele>
        <time>2016-07-20T16:34:36Z</time>
      </trkpt>
      <trkpt lat="41.147752" lon="-3.407380">
        <ele>1568.327</ele>
        <time>2016-07-20T16:34:37Z</time>
      </trkpt>
      <trkpt lat="41.147667" lon="-3.407318">
        <ele>1568.710</ele>
        <time>2016-07-20T16:34:38Z</time>
      </trkpt>
      <trkpt lat="41.147580" lon="-3.407250">
        <ele>1569.076</ele>
        <time>2016-07-20T16:34:39Z</time>
      </trkpt>
      <trkpt lat="41.147445" lon="-3.407146">
        <ele>1570.192</ele>
        <time>2016-07-20T16:34:41Z</time>
      </trkpt>
      <trkpt lat="41.147322" lon="-3.407032">
        <ele>1570.897</ele>
        <time>2016-07-20T16:34:43Z</time>
      </trkpt>
      <trkpt lat="41.147196" lon="-3.406909">
        <ele>1570.470</ele>
        <time>2016-07-20T16:34:45Z</time>
      </trkpt>
      <trkpt lat="41.147106" lon="-3.406833">
        <ele>1569.720</ele>
        <time>2016-07-20T16:34:47Z</time>
      </trkpt>
      <trkpt lat="41.147028" lon="-3.406718">
        <ele>1568.678</ele>
        <time>2016-07-20T16:35:10Z</time>
      </trkpt>
      <trkpt lat="41.146877" lon="-3.406758">
        <ele>1569.475</ele>
        <time>2016-07-20T16:35:12Z</time>
      </trkpt>
      <trkpt lat="41.146738" lon="-3.406812">
        <ele>1570.428</ele>
        <time>2016-07-20T16:35:14Z</time>
      </trkpt>
      <trkpt lat="41.146627" lon="-3.406893">
        <ele>1569.120</ele>
        <time>2016-07-20T16:35:17Z</time>
      </trkpt>
      <trkpt lat="41.146563" lon="-3.407004">
        <ele>1567.308</ele>
        <time>2016-07-20T16:35:19Z</time>
      </trkpt>
      <trkpt lat="41.146511" lon="-3.407158">
        <ele>1565.498</ele>
        <time>2016-07-20T16:35:21Z</time>
      </trkpt>
      <trkpt lat="41.146485" lon="-3.407300">
        <ele>1563.881</ele>
        <time>2016-07-20T16:35:23Z</time>
      </trkpt>
      <trkpt lat="41.146461" lon="-3.407467">
        <ele>1562.657</ele>
        <time>2016-07-20T16:35:25Z</time>
      </trkpt>
      <trkpt lat="41.146450" lon="-3.407634">
        <ele>1562.523</ele>
        <time>2016-07-20T16:35:27Z</time>
      </trkpt>
      <trkpt lat="41.146451" lon="-3.407804">
        <ele>1562.328</ele>
        <time>2016-07-20T16:35:30Z</time>
      </trkpt>
      <trkpt lat="41.146456" lon="-3.407982">
        <ele>1560.851</ele>
        <time>2016-07-20T16:35:32Z</time>
      </trkpt>
      <trkpt lat="41.146457" lon="-3.408155">
        <ele>1559.641</ele>
        <time>2016-07-20T16:35:34Z</time>
      </trkpt>
      <trkpt lat="41.146430" lon="-3.408348">
        <ele>1558.289</ele>
        <time>2016-07-20T16:35:36Z</time>
      </trkpt>
      <trkpt lat="41.146411" lon="-3.408466">
        <ele>1557.729</ele>
        <time>2016-07-20T16:35:37Z</time>
      </trkpt>
      <trkpt lat="41.146390" lon="-3.408582">
        <ele>1557.700</ele>
        <time>2016-07-20T16:35:38Z</time>
      </trkpt>
      <trkpt lat="41.146323" lon="-3.408810">
        <ele>1557.320</ele>
        <time>2016-07-20T16:35:40Z</time>
      </trkpt>
      <trkpt lat="41.146279" lon="-3.408916">
        <ele>1556.708</ele>
        <time>2016-07-20T16:35:41Z</time>
      </trkpt>
      <trkpt lat="41.146172" lon="-3.409086">
        <ele>1556.363</ele>
        <time>2016-07-20T16:35:43Z</time>
      </trkpt>
      <trkpt lat="41.146032" lon="-3.409195">
        <ele>1555.766</ele>
        <time>2016-07-20T16:35:45Z</time>
      </trkpt>
      <trkpt lat="41.145876" lon="-3.409284">
        <ele>1554.862</ele>
        <time>2016-07-20T16:35:47Z</time>
      </trkpt>
      <trkpt lat="41.145735" lon="-3.409412">
        <ele>1553.848</ele>
        <time>2016-07-20T16:35:49Z</time>
      </trkpt>
      <trkpt lat="41.145596" lon="-3.409550">
        <ele>1552.513</ele>
        <time>2016-07-20T16:35:51Z</time>
      </trkpt>
      <trkpt lat="41.145436" lon="-3.409640">
        <ele>1552.336</ele>
        <time>2016-07-20T16:35:53Z</time>
      </trkpt>
      <trkpt lat="41.145270" lon="-3.409665">
        <ele>1553.376</ele>
        <time>2016-07-20T16:35:55Z</time>
      </trkpt>
      <trkpt lat="41.145101" lon="-3.409711">
        <ele>1554.634</ele>
        <time>2016-07-20T16:35:57Z</time>
      </trkpt>
      <trkpt lat="41.144938" lon="-3.409772">
        <ele>1555.811</ele>
        <time>2016-07-20T16:35:59Z</time>
      </trkpt>
      <trkpt lat="41.144790" lon="-3.409854">
        <ele>1556.921</ele>
        <time>2016-07-20T16:36:01Z</time>
      </trkpt>
      <trkpt lat="41.144671" lon="-3.409974">
        <ele>1558.003</ele>
        <time>2016-07-20T16:36:03Z</time>
      </trkpt>
      <trkpt lat="41.144570" lon="-3.410126">
        <ele>1558.608</ele>
        <time>2016-07-20T16:36:05Z</time>
      </trkpt>
      <trkpt lat="41.144477" lon="-3.410310">
        <ele>1559.172</ele>
        <time>2016-07-20T16:36:07Z</time>
      </trkpt>
      <trkpt lat="41.144378" lon="-3.410491">
        <ele>1559.295</ele>
        <time>2016-07-20T16:36:09Z</time>
      </trkpt>
      <trkpt lat="41.144281" lon="-3.410654">
        <ele>1559.111</ele>
        <time>2016-07-20T16:36:11Z</time>
      </trkpt>
      <trkpt lat="41.144161" lon="-3.410799">
        <ele>1558.477</ele>
        <time>2016-07-20T16:36:13Z</time>
      </trkpt>
      <trkpt lat="41.144079" lon="-3.410860">
        <ele>1558.022</ele>
        <time>2016-07-20T16:36:14Z</time>
      </trkpt>
      <trkpt lat="41.143990" lon="-3.410924">
        <ele>1557.735</ele>
        <time>2016-07-20T16:36:15Z</time>
      </trkpt>
      <trkpt lat="41.143906" lon="-3.410995">
        <ele>1557.655</ele>
        <time>2016-07-20T16:36:16Z</time>
      </trkpt>
      <trkpt lat="41.143827" lon="-3.411071">
        <ele>1557.353</ele>
        <time>2016-07-20T16:36:17Z</time>
      </trkpt>
      <trkpt lat="41.143751" lon="-3.411147">
        <ele>1557.187</ele>
        <time>2016-07-20T16:36:18Z</time>
      </trkpt>
      <trkpt lat="41.143623" lon="-3.411313">
        <ele>1556.642</ele>
        <time>2016-07-20T16:36:20Z</time>
      </trkpt>
      <trkpt lat="41.143529" lon="-3.411492">
        <ele>1554.826</ele>
        <time>2016-07-20T16:36:22Z</time>
      </trkpt>
      <trkpt lat="41.143470" lon="-3.411704">
        <ele>1552.208</ele>
        <time>2016-07-20T16:36:24Z</time>
      </trkpt>
      <trkpt lat="41.143416" lon="-3.411901">
        <ele>1550.539</ele>
        <time>2016-07-20T16:36:26Z</time>
      </trkpt>
      <trkpt lat="41.143323" lon="-3.411991">
        <ele>1549.922</ele>
        <time>2016-07-20T16:36:28Z</time>
      </trkpt>
      <trkpt lat="41.143231" lon="-3.411930">
        <ele>1548.718</ele>
        <time>2016-07-20T16:36:30Z</time>
      </trkpt>
      <trkpt lat="41.143159" lon="-3.411822">
        <ele>1548.034</ele>
        <time>2016-07-20T16:36:32Z</time>
      </trkpt>
      <trkpt lat="41.143085" lon="-3.411704">
        <ele>1547.939</ele>
        <time>2016-07-20T16:36:33Z</time>
      </trkpt>
      <trkpt lat="41.142983" lon="-3.411511">
        <ele>1549.122</ele>
        <time>2016-07-20T16:36:35Z</time>
      </trkpt>
      <trkpt lat="41.142940" lon="-3.411381">
        <ele>1549.762</ele>
        <time>2016-07-20T16:36:36Z</time>
      </trkpt>
      <trkpt lat="41.142903" lon="-3.411242">
        <ele>1549.950</ele>
        <time>2016-07-20T16:36:37Z</time>
      </trkpt>
      <trkpt lat="41.142858" lon="-3.411091">
        <ele>1550.568</ele>
        <time>2016-07-20T16:36:38Z</time>
      </trkpt>
      <trkpt lat="41.142817" lon="-3.410930">
        <ele>1551.242</ele>
        <time>2016-07-20T16:36:39Z</time>
      </trkpt>
      <trkpt lat="41.142789" lon="-3.410806">
        <ele>1552.626</ele>
        <time>2016-07-20T16:36:40Z</time>
      </trkpt>
      <trkpt lat="41.142756" lon="-3.410686">
        <ele>1553.408</ele>
        <time>2016-07-20T16:36:41Z</time>
      </trkpt>
      <trkpt lat="41.142686" lon="-3.410461">
        <ele>1555.117</ele>
        <time>2016-07-20T16:36:42Z</time>
      </trkpt>
      <trkpt lat="41.142610" lon="-3.410261">
        <ele>1555.860</ele>
        <time>2016-07-20T16:36:44Z</time>
      </trkpt>
      <trkpt lat="41.142529" lon="-3.410079">
        <ele>1555.776</ele>
        <time>2016-07-20T16:36:46Z</time>
      </trkpt>
      <trkpt lat="41.142451" lon="-3.409901">
        <ele>1555.092</ele>
        <time>2016-07-20T16:36:48Z</time>
      </trkpt>
      <trkpt lat="41.142367" lon="-3.409723">
        <ele>1554.487</ele>
        <time>2016-07-20T16:36:50Z</time>
      </trkpt>
      <trkpt lat="41.142310" lon="-3.409619">
        <ele>1554.390</ele>
        <time>2016-07-20T16:36:51Z</time>
      </trkpt>
      <trkpt lat="41.142240" lon="-3.409521">
        <ele>1554.490</ele>
        <time>2016-07-20T16:36:52Z</time>
      </trkpt>
      <trkpt lat="41.142164" lon="-3.409421">
        <ele>1555.068</ele>
        <time>2016-07-20T16:36:53Z</time>
      </trkpt>
      <trkpt lat="41.142087" lon="-3.409331">
        <ele>1556.222</ele>
        <time>2016-07-20T16:36:54Z</time>
      </trkpt>
      <trkpt lat="41.142008" lon="-3.409232">
        <ele>1557.962</ele>
        <time>2016-07-20T16:36:55Z</time>
      </trkpt>
      <trkpt lat="41.141933" lon="-3.409143">
        <ele>1559.408</ele>
        <time>2016-07-20T16:36:56Z</time>
      </trkpt>
      <trkpt lat="41.141854" lon="-3.409066">
        <ele>1560.508</ele>
        <time>2016-07-20T16:36:57Z</time>
      </trkpt>
      <trkpt lat="41.141768" lon="-3.408997">
        <ele>1561.423</ele>
        <time>2016-07-20T16:36:58Z</time>
      </trkpt>
      <trkpt lat="41.141675" lon="-3.408948">
        <ele>1562.446</ele>
        <time>2016-07-20T16:36:59Z</time>
      </trkpt>
      <trkpt lat="41.141581" lon="-3.408908">
        <ele>1562.992</ele>
        <time>2016-07-20T16:37:00Z</time>
      </trkpt>
      <trkpt lat="41.141491" lon="-3.408894">
        <ele>1563.248</ele>
        <time>2016-07-20T16:37:01Z</time>
      </trkpt>
      <trkpt lat="41.141311" lon="-3.408902">
        <ele>1562.413</ele>
        <time>2016-07-20T16:37:03Z</time>
      </trkpt>
      <trkpt lat="41.141147" lon="-3.408993">
        <ele>1560.356</ele>
        <time>2016-07-20T16:37:05Z</time>
      </trkpt>
      <trkpt lat="41.140987" lon="-3.409058">
        <ele>1557.076</ele>
        <time>2016-07-20T16:37:07Z</time>
      </trkpt>
      <trkpt lat="41.140850" lon="-3.409046">
        <ele>1554.034</ele>
        <time>2016-07-20T16:37:09Z</time>
      </trkpt>
      <trkpt lat="41.140720" lon="-3.408967">
        <ele>1551.097</ele>
        <time>2016-07-20T16:37:11Z</time>
      </trkpt>
      <trkpt lat="41.140610" lon="-3.408806">
        <ele>1548.223</ele>
        <time>2016-07-20T16:37:13Z</time>
      </trkpt>
      <trkpt lat="41.140495" lon="-3.408612">
        <ele>1546.525</ele>
        <time>2016-07-20T16:37:15Z</time>
      </trkpt>
      <trkpt lat="41.140429" lon="-3.408496">
        <ele>1546.408</ele>
        <time>2016-07-20T16:37:16Z</time>
      </trkpt>
      <trkpt lat="41.140362" lon="-3.408375">
        <ele>1546.570</ele>
        <time>2016-07-20T16:37:17Z</time>
      </trkpt>
      <trkpt lat="41.140302" lon="-3.408269">
        <ele>1547.853</ele>
        <time>2016-07-20T16:37:18Z</time>
      </trkpt>
      <trkpt lat="41.140228" lon="-3.408174">
        <ele>1549.099</ele>
        <time>2016-07-20T16:37:19Z</time>
      </trkpt>
      <trkpt lat="41.140152" lon="-3.408092">
        <ele>1550.665</ele>
        <time>2016-07-20T16:37:20Z</time>
      </trkpt>
      <trkpt lat="41.140063" lon="-3.407997">
        <ele>1552.370</ele>
        <time>2016-07-20T16:37:21Z</time>
      </trkpt>
      <trkpt lat="41.139972" lon="-3.407901">
        <ele>1554.313</ele>
        <time>2016-07-20T16:37:23Z</time>
      </trkpt>
      <trkpt lat="41.139887" lon="-3.407797">
        <ele>1556.143</ele>
        <time>2016-07-20T16:37:24Z</time>
      </trkpt>
      <trkpt lat="41.139791" lon="-3.407672">
        <ele>1557.771</ele>
        <time>2016-07-20T16:37:24Z</time>
      </trkpt>
      <trkpt lat="41.139695" lon="-3.407557">
        <ele>1559.537</ele>
        <time>2016-07-20T16:37:26Z</time>
      </trkpt>
      <trkpt lat="41.139598" lon="-3.407445">
        <ele>1561.049</ele>
        <time>2016-07-20T16:37:26Z</time>
      </trkpt>
      <trkpt lat="41.139498" lon="-3.407344">
        <ele>1562.213</ele>
        <time>2016-07-20T16:37:27Z</time>
      </trkpt>
      <trkpt lat="41.139397" lon="-3.407242">
        <ele>1563.208</ele>
        <time>2016-07-20T16:37:28Z</time>
      </trkpt>
      <trkpt lat="41.139303" lon="-3.407145">
        <ele>1564.374</ele>
        <time>2016-07-20T16:37:30Z</time>
      </trkpt>
      <trkpt lat="41.139200" lon="-3.407042">
        <ele>1565.137</ele>
        <time>2016-07-20T16:37:31Z</time>
      </trkpt>
      <trkpt lat="41.139090" lon="-3.406931">
        <ele>1566.033</ele>
        <time>2016-07-20T16:37:32Z</time>
      </trkpt>
      <trkpt lat="41.138975" lon="-3.406823">
        <ele>1566.399</ele>
        <time>2016-07-20T16:37:33Z</time>
      </trkpt>
      <trkpt lat="41.138858" lon="-3.406719">
        <ele>1566.114</ele>
        <time>2016-07-20T16:37:34Z</time>
      </trkpt>
      <trkpt lat="41.138740" lon="-3.406616">
        <ele>1565.627</ele>
        <time>2016-07-20T16:37:35Z</time>
      </trkpt>
      <trkpt lat="41.138627" lon="-3.406528">
        <ele>1565.447</ele>
        <time>2016-07-20T16:37:36Z</time>
      </trkpt>
      <trkpt lat="41.138504" lon="-3.406436">
        <ele>1563.625</ele>
        <time>2016-07-20T16:37:37Z</time>
      </trkpt>
      <trkpt lat="41.138386" lon="-3.406345">
        <ele>1561.339</ele>
        <time>2016-07-20T16:37:38Z</time>
      </trkpt>
      <trkpt lat="41.138280" lon="-3.406264">
        <ele>1559.301</ele>
        <time>2016-07-20T16:37:39Z</time>
      </trkpt>
      <trkpt lat="41.138193" lon="-3.406168">
        <ele>1558.521</ele>
        <time>2016-07-20T16:37:40Z</time>
      </trkpt>
      <trkpt lat="41.138112" lon="-3.406069">
        <ele>1558.408</ele>
        <time>2016-07-20T16:37:41Z</time>
      </trkpt>
      <trkpt lat="41.138025" lon="-3.405953">
        <ele>1558.644</ele>
        <time>2016-07-20T16:37:42Z</time>
      </trkpt>
      <trkpt lat="41.137944" lon="-3.405830">
        <ele>1558.457</ele>
        <time>2016-07-20T16:37:43Z</time>
      </trkpt>
      <trkpt lat="41.137874" lon="-3.405692">
        <ele>1558.423</ele>
        <time>2016-07-20T16:37:44Z</time>
      </trkpt>
      <trkpt lat="41.137814" lon="-3.405566">
        <ele>1558.459</ele>
        <time>2016-07-20T16:37:45Z</time>
      </trkpt>
      <trkpt lat="41.137756" lon="-3.405450">
        <ele>1558.184</ele>
        <time>2016-07-20T16:37:46Z</time>
      </trkpt>
      <trkpt lat="41.137702" lon="-3.405335">
        <ele>1557.457</ele>
        <time>2016-07-20T16:37:47Z</time>
      </trkpt>
      <trkpt lat="41.137656" lon="-3.405226">
        <ele>1557.127</ele>
        <time>2016-07-20T16:37:48Z</time>
      </trkpt>
      <trkpt lat="41.137602" lon="-3.404988">
        <ele>1558.075</ele>
        <time>2016-07-20T16:37:50Z</time>
      </trkpt>
      <trkpt lat="41.137607" lon="-3.404868">
        <ele>1558.497</ele>
        <time>2016-07-20T16:37:51Z</time>
      </trkpt>
      <trkpt lat="41.137613" lon="-3.404734">
        <ele>1559.123</ele>
        <time>2016-07-20T16:37:52Z</time>
      </trkpt>
      <trkpt lat="41.137626" lon="-3.404583">
        <ele>1560.225</ele>
        <time>2016-07-20T16:37:53Z</time>
      </trkpt>
      <trkpt lat="41.137638" lon="-3.404437">
        <ele>1561.208</ele>
        <time>2016-07-20T16:37:54Z</time>
      </trkpt>
      <trkpt lat="41.137646" lon="-3.404289">
        <ele>1562.080</ele>
        <time>2016-07-20T16:37:55Z</time>
      </trkpt>
      <trkpt lat="41.137639" lon="-3.404132">
        <ele>1563.113</ele>
        <time>2016-07-20T16:37:56Z</time>
      </trkpt>
      <trkpt lat="41.137631" lon="-3.403980">
        <ele>1563.969</ele>
        <time>2016-07-20T16:37:57Z</time>
      </trkpt>
      <trkpt lat="41.137625" lon="-3.403832">
        <ele>1565.415</ele>
        <time>2016-07-20T16:37:58Z</time>
      </trkpt>
      <trkpt lat="41.137625" lon="-3.403689">
        <ele>1566.130</ele>
        <time>2016-07-20T16:37:59Z</time>
      </trkpt>
      <trkpt lat="41.137628" lon="-3.403558">
        <ele>1566.263</ele>
        <time>2016-07-20T16:38:00Z</time>
      </trkpt>
      <trkpt lat="41.137665" lon="-3.403435">
        <ele>1566.393</ele>
        <time>2016-07-20T16:38:01Z</time>
      </trkpt>
      <trkpt lat="41.137724" lon="-3.403313">
        <ele>1566.441</ele>
        <time>2016-07-20T16:38:02Z</time>
      </trkpt>
      <trkpt lat="41.137783" lon="-3.403184">
        <ele>1566.234</ele>
        <time>2016-07-20T16:38:03Z</time>
      </trkpt>
      <trkpt lat="41.137836" lon="-3.403042">
        <ele>1566.355</ele>
        <time>2016-07-20T16:38:04Z</time>
      </trkpt>
      <trkpt lat="41.137874" lon="-3.402910">
        <ele>1566.010</ele>
        <time>2016-07-20T16:38:05Z</time>
      </trkpt>
      <trkpt lat="41.137911" lon="-3.402797">
        <ele>1565.008</ele>
        <time>2016-07-20T16:38:06Z</time>
      </trkpt>
      <trkpt lat="41.137942" lon="-3.402683">
        <ele>1564.514</ele>
        <time>2016-07-20T16:38:07Z</time>
      </trkpt>
      <trkpt lat="41.137950" lon="-3.402488">
        <ele>1561.947</ele>
        <time>2016-07-20T16:38:09Z</time>
      </trkpt>
      <trkpt lat="41.137890" lon="-3.402319">
        <ele>1557.483</ele>
        <time>2016-07-20T16:38:11Z</time>
      </trkpt>
      <trkpt lat="41.137780" lon="-3.402193">
        <ele>1553.519</ele>
        <time>2016-07-20T16:38:13Z</time>
      </trkpt>
      <trkpt lat="41.137619" lon="-3.402085">
        <ele>1550.194</ele>
        <time>2016-07-20T16:38:15Z</time>
      </trkpt>
      <trkpt lat="41.137530" lon="-3.402064">
        <ele>1548.417</ele>
        <time>2016-07-20T16:38:16Z</time>
      </trkpt>
      <trkpt lat="41.137355" lon="-3.402058">
        <ele>1545.817</ele>
        <time>2016-07-20T16:38:18Z</time>
      </trkpt>
      <trkpt lat="41.137187" lon="-3.402080">
        <ele>1543.945</ele>
        <time>2016-07-20T16:38:20Z</time>
      </trkpt>
      <trkpt lat="41.137011" lon="-3.402128">
        <ele>1541.617</ele>
        <time>2016-07-20T16:38:22Z</time>
      </trkpt>
      <trkpt lat="41.136920" lon="-3.402160">
        <ele>1541.287</ele>
        <time>2016-07-20T16:38:23Z</time>
      </trkpt>
      <trkpt lat="41.136832" lon="-3.402189">
        <ele>1540.815</ele>
        <time>2016-07-20T16:38:24Z</time>
      </trkpt>
      <trkpt lat="41.136741" lon="-3.402218">
        <ele>1540.508</ele>
        <time>2016-07-20T16:38:25Z</time>
      </trkpt>
      <trkpt lat="41.136650" lon="-3.402226">
        <ele>1539.882</ele>
        <time>2016-07-20T16:38:26Z</time>
      </trkpt>
      <trkpt lat="41.136511" lon="-3.402199">
        <ele>1539.685</ele>
        <time>2016-07-20T16:38:28Z</time>
      </trkpt>
      <trkpt lat="41.136416" lon="-3.402099">
        <ele>1540.131</ele>
        <time>2016-07-20T16:38:30Z</time>
      </trkpt>
      <trkpt lat="41.136361" lon="-3.401981">
        <ele>1540.897</ele>
        <time>2016-07-20T16:38:32Z</time>
      </trkpt>
      <trkpt lat="41.136339" lon="-3.401845">
        <ele>1540.962</ele>
        <time>2016-07-20T16:38:34Z</time>
      </trkpt>
      <trkpt lat="41.136319" lon="-3.401728">
        <ele>1541.485</ele>
        <time>2016-07-20T16:38:36Z</time>
      </trkpt>
      <trkpt lat="41.136287" lon="-3.401585">
        <ele>1542.115</ele>
        <time>2016-07-20T16:38:38Z</time>
      </trkpt>
      <trkpt lat="41.136235" lon="-3.401414">
        <ele>1543.223</ele>
        <time>2016-07-20T16:38:40Z</time>
      </trkpt>
      <trkpt lat="41.136198" lon="-3.401296">
        <ele>1544.367</ele>
        <time>2016-07-20T16:38:41Z</time>
      </trkpt>
      <trkpt lat="41.136170" lon="-3.401173">
        <ele>1545.681</ele>
        <time>2016-07-20T16:38:42Z</time>
      </trkpt>
      <trkpt lat="41.136140" lon="-3.401038">
        <ele>1546.719</ele>
        <time>2016-07-20T16:38:43Z</time>
      </trkpt>
      <trkpt lat="41.136112" lon="-3.400903">
        <ele>1547.508</ele>
        <time>2016-07-20T16:38:44Z</time>
      </trkpt>
      <trkpt lat="41.136075" lon="-3.400653">
        <ele>1549.427</ele>
        <time>2016-07-20T16:38:46Z</time>
      </trkpt>
      <trkpt lat="41.136040" lon="-3.400414">
        <ele>1552.120</ele>
        <time>2016-07-20T16:38:48Z</time>
      </trkpt>
      <trkpt lat="41.136012" lon="-3.400299">
        <ele>1552.946</ele>
        <time>2016-07-20T16:38:49Z</time>
      </trkpt>
      <trkpt lat="41.135931" lon="-3.400065">
        <ele>1554.552</ele>
        <time>2016-07-20T16:38:51Z</time>
      </trkpt>
      <trkpt lat="41.135884" lon="-3.399945">
        <ele>1555.017</ele>
        <time>2016-07-20T16:38:52Z</time>
      </trkpt>
      <trkpt lat="41.135834" lon="-3.399827">
        <ele>1555.150</ele>
        <time>2016-07-20T16:38:53Z</time>
      </trkpt>
      <trkpt lat="41.135770" lon="-3.399700">
        <ele>1554.950</ele>
        <time>2016-07-20T16:38:54Z</time>
      </trkpt>
      <trkpt lat="41.135643" lon="-3.399475">
        <ele>1555.238</ele>
        <time>2016-07-20T16:38:55Z</time>
      </trkpt>
      <trkpt lat="41.135585" lon="-3.399374">
        <ele>1556.087</ele>
        <time>2016-07-20T16:38:56Z</time>
      </trkpt>
      <trkpt lat="41.135508" lon="-3.399264">
        <ele>1556.542</ele>
        <time>2016-07-20T16:38:57Z</time>
      </trkpt>
      <trkpt lat="41.135428" lon="-3.399161">
        <ele>1556.926</ele>
        <time>2016-07-20T16:38:58Z</time>
      </trkpt>
      <trkpt lat="41.135341" lon="-3.399055">
        <ele>1557.208</ele>
        <time>2016-07-20T16:38:59Z</time>
      </trkpt>
      <trkpt lat="41.135249" lon="-3.398953">
        <ele>1557.119</ele>
        <time>2016-07-20T16:39:00Z</time>
      </trkpt>
      <trkpt lat="41.135160" lon="-3.398859">
        <ele>1557.482</ele>
        <time>2016-07-20T16:39:01Z</time>
      </trkpt>
      <trkpt lat="41.135078" lon="-3.398772">
        <ele>1557.098</ele>
        <time>2016-07-20T16:39:02Z</time>
      </trkpt>
      <trkpt lat="41.135003" lon="-3.398688">
        <ele>1556.184</ele>
        <time>2016-07-20T16:39:03Z</time>
      </trkpt>
      <trkpt lat="41.134929" lon="-3.398605">
        <ele>1555.499</ele>
        <time>2016-07-20T16:39:04Z</time>
      </trkpt>
      <trkpt lat="41.134841" lon="-3.398517">
        <ele>1554.682</ele>
        <time>2016-07-20T16:39:05Z</time>
      </trkpt>
      <trkpt lat="41.134753" lon="-3.398433">
        <ele>1553.832</ele>
        <time>2016-07-20T16:39:06Z</time>
      </trkpt>
      <trkpt lat="41.134663" lon="-3.398361">
        <ele>1553.730</ele>
        <time>2016-07-20T16:39:07Z</time>
      </trkpt>
      <trkpt lat="41.134560" lon="-3.398286">
        <ele>1553.484</ele>
        <time>2016-07-20T16:39:08Z</time>
      </trkpt>
      <trkpt lat="41.134465" lon="-3.398222">
        <ele>1553.307</ele>
        <time>2016-07-20T16:39:09Z</time>
      </trkpt>
      <trkpt lat="41.134350" lon="-3.398150">
        <ele>1552.717</ele>
        <time>2016-07-20T16:39:10Z</time>
      </trkpt>
      <trkpt lat="41.134240" lon="-3.398080">
        <ele>1552.108</ele>
        <time>2016-07-20T16:39:11Z</time>
      </trkpt>
      <trkpt lat="41.134134" lon="-3.398012">
        <ele>1551.679</ele>
        <time>2016-07-20T16:39:12Z</time>
      </trkpt>
      <trkpt lat="41.134027" lon="-3.397938">
        <ele>1552.082</ele>
        <time>2016-07-20T16:39:13Z</time>
      </trkpt>
      <trkpt lat="41.133922" lon="-3.397861">
        <ele>1551.938</ele>
        <time>2016-07-20T16:39:14Z</time>
      </trkpt>
      <trkpt lat="41.133828" lon="-3.397795">
        <ele>1552.294</ele>
        <time>2016-07-20T16:39:15Z</time>
      </trkpt>
      <trkpt lat="41.133735" lon="-3.397728">
        <ele>1552.089</ele>
        <time>2016-07-20T16:39:16Z</time>
      </trkpt>
      <trkpt lat="41.133651" lon="-3.397671">
        <ele>1551.982</ele>
        <time>2016-07-20T16:39:17Z</time>
      </trkpt>
      <trkpt lat="41.133562" lon="-3.397628">
        <ele>1551.822</ele>
        <time>2016-07-20T16:39:18Z</time>
      </trkpt>
      <trkpt lat="41.133474" lon="-3.397583">
        <ele>1551.710</ele>
        <time>2016-07-20T16:39:19Z</time>
      </trkpt>
      <trkpt lat="41.133295" lon="-3.397491">
        <ele>1550.849</ele>
        <time>2016-07-20T16:39:21Z</time>
      </trkpt>
      <trkpt lat="41.133204" lon="-3.397455">
        <ele>1550.902</ele>
        <time>2016-07-20T16:39:22Z</time>
      </trkpt>
      <trkpt lat="41.133039" lon="-3.397385">
        <ele>1551.422</ele>
        <time>2016-07-20T16:39:24Z</time>
      </trkpt>
      <trkpt lat="41.132945" lon="-3.397348">
        <ele>1550.808</ele>
        <time>2016-07-20T16:39:25Z</time>
      </trkpt>
      <trkpt lat="41.132850" lon="-3.397313">
        <ele>1550.025</ele>
        <time>2016-07-20T16:39:26Z</time>
      </trkpt>
      <trkpt lat="41.132695" lon="-3.397264">
        <ele>1548.618</ele>
        <time>2016-07-20T16:39:28Z</time>
      </trkpt>
      <trkpt lat="41.132564" lon="-3.397222">
        <ele>1546.144</ele>
        <time>2016-07-20T16:39:30Z</time>
      </trkpt>
      <trkpt lat="41.132452" lon="-3.397174">
        <ele>1545.270</ele>
        <time>2016-07-20T16:39:32Z</time>
      </trkpt>
      <trkpt lat="41.132359" lon="-3.397114">
        <ele>1545.275</ele>
        <time>2016-07-20T16:39:34Z</time>
      </trkpt>
      <trkpt lat="41.132299" lon="-3.397001">
        <ele>1546.178</ele>
        <time>2016-07-20T16:39:49Z</time>
      </trkpt>
      <trkpt lat="41.132206" lon="-3.396913">
        <ele>1549.348</ele>
        <time>2016-07-20T16:39:52Z</time>
      </trkpt>
      <trkpt lat="41.132098" lon="-3.396858">
        <ele>1552.236</ele>
        <time>2016-07-20T16:39:54Z</time>
      </trkpt>
      <trkpt lat="41.131929" lon="-3.396756">
        <ele>1552.897</ele>
        <time>2016-07-20T16:39:56Z</time>
      </trkpt>
      <trkpt lat="41.131839" lon="-3.396703">
        <ele>1552.423</ele>
        <time>2016-07-20T16:39:57Z</time>
      </trkpt>
      <trkpt lat="41.131667" lon="-3.396586">
        <ele>1552.125</ele>
        <time>2016-07-20T16:39:59Z</time>
      </trkpt>
      <trkpt lat="41.131577" lon="-3.396520">
        <ele>1552.208</ele>
        <time>2016-07-20T16:40:00Z</time>
      </trkpt>
      <trkpt lat="41.131487" lon="-3.396449">
        <ele>1552.710</ele>
        <time>2016-07-20T16:40:01Z</time>
      </trkpt>
      <trkpt lat="41.131391" lon="-3.396371">
        <ele>1553.613</ele>
        <time>2016-07-20T16:40:02Z</time>
      </trkpt>
      <trkpt lat="41.131286" lon="-3.396274">
        <ele>1554.319</ele>
        <time>2016-07-20T16:40:03Z</time>
      </trkpt>
      <trkpt lat="41.131190" lon="-3.396187">
        <ele>1555.645</ele>
        <time>2016-07-20T16:40:04Z</time>
      </trkpt>
      <trkpt lat="41.131088" lon="-3.396093">
        <ele>1556.820</ele>
        <time>2016-07-20T16:40:05Z</time>
      </trkpt>
      <trkpt lat="41.130986" lon="-3.396000">
        <ele>1557.633</ele>
        <time>2016-07-20T16:40:06Z</time>
      </trkpt>
      <trkpt lat="41.130882" lon="-3.395904">
        <ele>1558.933</ele>
        <time>2016-07-20T16:40:07Z</time>
      </trkpt>
      <trkpt lat="41.130774" lon="-3.395804">
        <ele>1560.441</ele>
        <time>2016-07-20T16:40:08Z</time>
      </trkpt>
      <trkpt lat="41.130673" lon="-3.395704">
        <ele>1561.642</ele>
        <time>2016-07-20T16:40:09Z</time>
      </trkpt>
      <trkpt lat="41.130520" lon="-3.395571">
        <ele>1564.122</ele>
        <time>2016-07-20T16:40:11Z</time>
      </trkpt>
      <trkpt lat="41.130374" lon="-3.395452">
        <ele>1566.814</ele>
        <time>2016-07-20T16:40:13Z</time>
      </trkpt>
      <trkpt lat="41.130293" lon="-3.395382">
        <ele>1567.608</ele>
        <time>2016-07-20T16:40:14Z</time>
      </trkpt>
      <trkpt lat="41.130214" lon="-3.395296">
        <ele>1568.675</ele>
        <time>2016-07-20T16:40:15Z</time>
      </trkpt>
      <trkpt lat="41.130123" lon="-3.395191">
        <ele>1569.428</ele>
        <time>2016-07-20T16:40:16Z</time>
      </trkpt>
      <trkpt lat="41.130037" lon="-3.395079">
        <ele>1570.714</ele>
        <time>2016-07-20T16:40:17Z</time>
      </trkpt>
      <trkpt lat="41.129938" lon="-3.394940">
        <ele>1572.370</ele>
        <time>2016-07-20T16:40:18Z</time>
      </trkpt>
      <trkpt lat="41.129855" lon="-3.394799">
        <ele>1573.975</ele>
        <time>2016-07-20T16:40:19Z</time>
      </trkpt>
      <trkpt lat="41.129766" lon="-3.394655">
        <ele>1575.168</ele>
        <time>2016-07-20T16:40:20Z</time>
      </trkpt>
      <trkpt lat="41.129689" lon="-3.394528">
        <ele>1576.238</ele>
        <time>2016-07-20T16:40:21Z</time>
      </trkpt>
      <trkpt lat="41.129620" lon="-3.394410">
        <ele>1577.496</ele>
        <time>2016-07-20T16:40:22Z</time>
      </trkpt>
      <trkpt lat="41.129551" lon="-3.394292">
        <ele>1578.787</ele>
        <time>2016-07-20T16:40:23Z</time>
      </trkpt>
      <trkpt lat="41.129438" lon="-3.394109">
        <ele>1580.542</ele>
        <time>2016-07-20T16:40:25Z</time>
      </trkpt>
      <trkpt lat="41.129349" lon="-3.394010">
        <ele>1580.826</ele>
        <time>2016-07-20T16:40:27Z</time>
      </trkpt>
      <trkpt lat="41.129242" lon="-3.393952">
        <ele>1581.708</ele>
        <time>2016-07-20T16:40:30Z</time>
      </trkpt>
      <trkpt lat="41.129123" lon="-3.393971">
        <ele>1582.089</ele>
        <time>2016-07-20T16:40:36Z</time>
      </trkpt>
      <trkpt lat="41.129023" lon="-3.394000">
        <ele>1581.882</ele>
        <time>2016-07-20T16:40:39Z</time>
      </trkpt>
      <trkpt lat="41.128918" lon="-3.394039">
        <ele>1581.498</ele>
        <time>2016-07-20T16:40:41Z</time>
      </trkpt>
      <trkpt lat="41.128765" lon="-3.394122">
        <ele>1580.494</ele>
        <time>2016-07-20T16:40:43Z</time>
      </trkpt>
      <trkpt lat="41.128602" lon="-3.394236">
        <ele>1579.749</ele>
        <time>2016-07-20T16:40:45Z</time>
      </trkpt>
      <trkpt lat="41.128510" lon="-3.394319">
        <ele>1578.742</ele>
        <time>2016-07-20T16:40:46Z</time>
      </trkpt>
      <trkpt lat="41.128425" lon="-3.394405">
        <ele>1577.752</ele>
        <time>2016-07-20T16:40:47Z</time>
      </trkpt>
      <trkpt lat="41.128335" lon="-3.394503">
        <ele>1576.560</ele>
        <time>2016-07-20T16:40:48Z</time>
      </trkpt>
      <trkpt lat="41.128240" lon="-3.394613">
        <ele>1574.774</ele>
        <time>2016-07-20T16:40:49Z</time>
      </trkpt>
      <trkpt lat="41.128148" lon="-3.394720">
        <ele>1573.456</ele>
        <time>2016-07-20T16:40:50Z</time>
      </trkpt>
      <trkpt lat="41.128044" lon="-3.394827">
        <ele>1571.621</ele>
        <time>2016-07-20T16:40:51Z</time>
      </trkpt>
      <trkpt lat="41.127916" lon="-3.394907">
        <ele>1570.108</ele>
        <time>2016-07-20T16:40:52Z</time>
      </trkpt>
      <trkpt lat="41.127773" lon="-3.394966">
        <ele>1568.948</ele>
        <time>2016-07-20T16:40:53Z</time>
      </trkpt>
      <trkpt lat="41.127627" lon="-3.395016">
        <ele>1567.541</ele>
        <time>2016-07-20T16:40:54Z</time>
      </trkpt>
      <trkpt lat="41.127324" lon="-3.395095">
        <ele>1561.837</ele>
        <time>2016-07-20T16:40:55Z</time>
      </trkpt>
      <trkpt lat="41.127169" lon="-3.395110">
        <ele>1559.183</ele>
        <time>2016-07-20T16:40:56Z</time>
      </trkpt>
      <trkpt lat="41.127010" lon="-3.395126">
        <ele>1555.828</ele>
        <time>2016-07-20T16:40:58Z</time>
      </trkpt>
      <trkpt lat="41.126862" lon="-3.395134">
        <ele>1553.141</ele>
        <time>2016-07-20T16:40:59Z</time>
      </trkpt>
      <trkpt lat="41.126576" lon="-3.395114">
        <ele>1548.611</ele>
        <time>2016-07-20T16:41:00Z</time>
      </trkpt>
      <trkpt lat="41.126437" lon="-3.395060">
        <ele>1546.959</ele>
        <time>2016-07-20T16:41:01Z</time>
      </trkpt>
      <trkpt lat="41.126297" lon="-3.395005">
        <ele>1545.657</ele>
        <time>2016-07-20T16:41:02Z</time>
      </trkpt>
      <trkpt lat="41.126151" lon="-3.394953">
        <ele>1544.600</ele>
        <time>2016-07-20T16:41:03Z</time>
      </trkpt>
      <trkpt lat="41.125999" lon="-3.394908">
        <ele>1543.120</ele>
        <time>2016-07-20T16:41:04Z</time>
      </trkpt>
      <trkpt lat="41.125847" lon="-3.394886">
        <ele>1541.708</ele>
        <time>2016-07-20T16:41:05Z</time>
      </trkpt>
      <trkpt lat="41.125700" lon="-3.394866">
        <ele>1540.746</ele>
        <time>2016-07-20T16:41:06Z</time>
      </trkpt>
      <trkpt lat="41.125546" lon="-3.394838">
        <ele>1539.739</ele>
        <time>2016-07-20T16:41:07Z</time>
      </trkpt>
      <trkpt lat="41.125394" lon="-3.394806">
        <ele>1538.385</ele>
        <time>2016-07-20T16:41:08Z</time>
      </trkpt>
      <trkpt lat="41.125238" lon="-3.394771">
        <ele>1537.221</ele>
        <time>2016-07-20T16:41:09Z</time>
      </trkpt>
      <trkpt lat="41.125080" lon="-3.394731">
        <ele>1536.356</ele>
        <time>2016-07-20T16:41:10Z</time>
      </trkpt>
      <trkpt lat="41.124921" lon="-3.394691">
        <ele>1535.499</ele>
        <time>2016-07-20T16:41:11Z</time>
      </trkpt>
      <trkpt lat="41.124768" lon="-3.394642">
        <ele>1534.929</ele>
        <time>2016-07-20T16:41:12Z</time>
      </trkpt>
      <trkpt lat="41.124618" lon="-3.394593">
        <ele>1534.097</ele>
        <time>2016-07-20T16:41:13Z</time>
      </trkpt>
      <trkpt lat="41.124473" lon="-3.394546">
        <ele>1533.199</ele>
        <time>2016-07-20T16:41:14Z</time>
      </trkpt>
      <trkpt lat="41.124330" lon="-3.394513">
        <ele>1531.407</ele>
        <time>2016-07-20T16:41:15Z</time>
      </trkpt>
      <trkpt lat="41.124180" lon="-3.394483">
        <ele>1529.727</ele>
        <time>2016-07-20T16:41:16Z</time>
      </trkpt>
      <trkpt lat="41.124028" lon="-3.394462">
        <ele>1528.008</ele>
        <time>2016-07-20T16:41:17Z</time>
      </trkpt>
      <trkpt lat="41.123875" lon="-3.394447">
        <ele>1526.020</ele>
        <time>2016-07-20T16:41:18Z</time>
      </trkpt>
      <trkpt lat="41.123726" lon="-3.394443">
        <ele>1524.283</ele>
        <time>2016-07-20T16:41:19Z</time>
      </trkpt>
      <trkpt lat="41.123585" lon="-3.394443">
        <ele>1522.049</ele>
        <time>2016-07-20T16:41:21Z</time>
      </trkpt>
      <trkpt lat="41.123451" lon="-3.394445">
        <ele>1519.495</ele>
        <time>2016-07-20T16:41:22Z</time>
      </trkpt>
      <trkpt lat="41.123337" lon="-3.394473">
        <ele>1517.440</ele>
        <time>2016-07-20T16:41:23Z</time>
      </trkpt>
      <trkpt lat="41.123230" lon="-3.394505">
        <ele>1516.053</ele>
        <time>2016-07-20T16:41:24Z</time>
      </trkpt>
      <trkpt lat="41.123136" lon="-3.394576">
        <ele>1514.983</ele>
        <time>2016-07-20T16:41:25Z</time>
      </trkpt>
      <trkpt lat="41.123045" lon="-3.394655">
        <ele>1514.731</ele>
        <time>2016-07-20T16:41:26Z</time>
      </trkpt>
      <trkpt lat="41.122954" lon="-3.394749">
        <ele>1514.969</ele>
        <time>2016-07-20T16:41:27Z</time>
      </trkpt>
      <trkpt lat="41.122869" lon="-3.394837">
        <ele>1515.004</ele>
        <time>2016-07-20T16:41:28Z</time>
      </trkpt>
      <trkpt lat="41.122780" lon="-3.394933">
        <ele>1514.924</ele>
        <time>2016-07-20T16:41:29Z</time>
      </trkpt>
      <trkpt lat="41.122692" lon="-3.395040">
        <ele>1514.808</ele>
        <time>2016-07-20T16:41:30Z</time>
      </trkpt>
      <trkpt lat="41.122602" lon="-3.395156">
        <ele>1514.687</ele>
        <time>2016-07-20T16:41:31Z</time>
      </trkpt>
      <trkpt lat="41.122516" lon="-3.395272">
        <ele>1514.290</ele>
        <time>2016-07-20T16:41:32Z</time>
      </trkpt>
      <trkpt lat="41.122430" lon="-3.395403">
        <ele>1513.616</ele>
        <time>2016-07-20T16:41:33Z</time>
      </trkpt>
      <trkpt lat="41.122342" lon="-3.395545">
        <ele>1512.532</ele>
        <time>2016-07-20T16:41:34Z</time>
      </trkpt>
      <trkpt lat="41.122265" lon="-3.395693">
        <ele>1511.747</ele>
        <time>2016-07-20T16:41:35Z</time>
      </trkpt>
      <trkpt lat="41.122209" lon="-3.395850">
        <ele>1511.050</ele>
        <time>2016-07-20T16:41:36Z</time>
      </trkpt>
      <trkpt lat="41.122149" lon="-3.396028">
        <ele>1509.490</ele>
        <time>2016-07-20T16:41:37Z</time>
      </trkpt>
      <trkpt lat="41.122093" lon="-3.396219">
        <ele>1508.158</ele>
        <time>2016-07-20T16:41:38Z</time>
      </trkpt>
      <trkpt lat="41.122050" lon="-3.396414">
        <ele>1506.764</ele>
        <time>2016-07-20T16:41:39Z</time>
      </trkpt>
      <trkpt lat="41.122042" lon="-3.396611">
        <ele>1505.406</ele>
        <time>2016-07-20T16:41:40Z</time>
      </trkpt>
      <trkpt lat="41.122039" lon="-3.396815">
        <ele>1504.416</ele>
        <time>2016-07-20T16:41:41Z</time>
      </trkpt>
      <trkpt lat="41.122036" lon="-3.397016">
        <ele>1504.308</ele>
        <time>2016-07-20T16:41:42Z</time>
      </trkpt>
      <trkpt lat="41.122034" lon="-3.397196">
        <ele>1504.417</ele>
        <time>2016-07-20T16:41:43Z</time>
      </trkpt>
      <trkpt lat="41.122030" lon="-3.397340">
        <ele>1504.350</ele>
        <time>2016-07-20T16:41:44Z</time>
      </trkpt>
      <trkpt lat="41.122024" lon="-3.397464">
        <ele>1503.676</ele>
        <time>2016-07-20T16:41:45Z</time>
      </trkpt>
      <trkpt lat="41.122012" lon="-3.397592">
        <ele>1503.422</ele>
        <time>2016-07-20T16:41:46Z</time>
      </trkpt>
      <trkpt lat="41.121966" lon="-3.397695">
        <ele>1503.037</ele>
        <time>2016-07-20T16:41:47Z</time>
      </trkpt>
      <trkpt lat="41.121814" lon="-3.397807">
        <ele>1502.030</ele>
        <time>2016-07-20T16:41:49Z</time>
      </trkpt>
      <trkpt lat="41.121716" lon="-3.397850">
        <ele>1502.380</ele>
        <time>2016-07-20T16:41:50Z</time>
      </trkpt>
      <trkpt lat="41.121619" lon="-3.397884">
        <ele>1502.698</ele>
        <time>2016-07-20T16:41:51Z</time>
      </trkpt>
      <trkpt lat="41.121507" lon="-3.397918">
        <ele>1502.488</ele>
        <time>2016-07-20T16:41:52Z</time>
      </trkpt>
      <trkpt lat="41.121413" lon="-3.397968">
        <ele>1502.424</ele>
        <time>2016-07-20T16:41:53Z</time>
      </trkpt>
      <trkpt lat="41.121321" lon="-3.398023">
        <ele>1501.626</ele>
        <time>2016-07-20T16:41:54Z</time>
      </trkpt>
      <trkpt lat="41.121244" lon="-3.398095">
        <ele>1499.608</ele>
        <time>2016-07-20T16:41:55Z</time>
      </trkpt>
      <trkpt lat="41.121163" lon="-3.398176">
        <ele>1497.529</ele>
        <time>2016-07-20T16:41:56Z</time>
      </trkpt>
      <trkpt lat="41.121091" lon="-3.398262">
        <ele>1495.132</ele>
        <time>2016-07-20T16:41:57Z</time>
      </trkpt>
      <trkpt lat="41.121014" lon="-3.398359">
        <ele>1493.338</ele>
        <time>2016-07-20T16:41:58Z</time>
      </trkpt>
      <trkpt lat="41.120935" lon="-3.398457">
        <ele>1492.024</ele>
        <time>2016-07-20T16:41:59Z</time>
      </trkpt>
      <trkpt lat="41.120847" lon="-3.398536">
        <ele>1491.079</ele>
        <time>2016-07-20T16:42:00Z</time>
      </trkpt>
      <trkpt lat="41.120757" lon="-3.398600">
        <ele>1489.892</ele>
        <time>2016-07-20T16:42:01Z</time>
      </trkpt>
      <trkpt lat="41.120662" lon="-3.398640">
        <ele>1489.022</ele>
        <time>2016-07-20T16:42:02Z</time>
      </trkpt>
      <trkpt lat="41.120560" lon="-3.398677">
        <ele>1487.770</ele>
        <time>2016-07-20T16:42:03Z</time>
      </trkpt>
      <trkpt lat="41.120451" lon="-3.398713">
        <ele>1486.357</ele>
        <time>2016-07-20T16:42:04Z</time>
      </trkpt>
      <trkpt lat="41.120335" lon="-3.398743">
        <ele>1485.200</ele>
        <time>2016-07-20T16:42:05Z</time>
      </trkpt>
      <trkpt lat="41.120214" lon="-3.398769">
        <ele>1484.620</ele>
        <time>2016-07-20T16:42:06Z</time>
      </trkpt>
      <trkpt lat="41.120086" lon="-3.398797">
        <ele>1484.608</ele>
        <time>2016-07-20T16:42:07Z</time>
      </trkpt>
      <trkpt lat="41.119957" lon="-3.398800">
        <ele>1484.626</ele>
        <time>2016-07-20T16:42:08Z</time>
      </trkpt>
      <trkpt lat="41.119830" lon="-3.398805">
        <ele>1483.929</ele>
        <time>2016-07-20T16:42:09Z</time>
      </trkpt>
      <trkpt lat="41.119705" lon="-3.398810">
        <ele>1483.295</ele>
        <time>2016-07-20T16:42:10Z</time>
      </trkpt>
      <trkpt lat="41.119583" lon="-3.398819">
        <ele>1482.981</ele>
        <time>2016-07-20T16:42:11Z</time>
      </trkpt>
      <trkpt lat="41.119464" lon="-3.398828">
        <ele>1483.036</ele>
        <time>2016-07-20T16:42:12Z</time>
      </trkpt>
      <trkpt lat="41.119341" lon="-3.398832">
        <ele>1482.869</ele>
        <time>2016-07-20T16:42:13Z</time>
      </trkpt>
      <trkpt lat="41.119217" lon="-3.398824">
        <ele>1482.459</ele>
        <time>2016-07-20T16:42:14Z</time>
      </trkpt>
      <trkpt lat="41.119100" lon="-3.398797">
        <ele>1480.887</ele>
        <time>2016-07-20T16:42:15Z</time>
      </trkpt>
      <trkpt lat="41.118983" lon="-3.398759">
        <ele>1479.038</ele>
        <time>2016-07-20T16:42:16Z</time>
      </trkpt>
      <trkpt lat="41.118872" lon="-3.398673">
        <ele>1476.970</ele>
        <time>2016-07-20T16:42:16Z</time>
      </trkpt>
      <trkpt lat="41.118761" lon="-3.398623">
        <ele>1474.517</ele>
        <time>2016-07-20T16:42:17Z</time>
      </trkpt>
      <trkpt lat="41.118640" lon="-3.398578">
        <ele>1472.608</ele>
        <time>2016-07-20T16:42:18Z</time>
      </trkpt>
      <trkpt lat="41.118513" lon="-3.398538">
        <ele>1470.764</ele>
        <time>2016-07-20T16:42:19Z</time>
      </trkpt>
      <trkpt lat="41.118400" lon="-3.398513">
        <ele>1469.647</ele>
        <time>2016-07-20T16:42:20Z</time>
      </trkpt>
      <trkpt lat="41.118278" lon="-3.398484">
        <ele>1468.713</ele>
        <time>2016-07-20T16:42:21Z</time>
      </trkpt>
      <trkpt lat="41.118156" lon="-3.398463">
        <ele>1468.829</ele>
        <time>2016-07-20T16:42:22Z</time>
      </trkpt>
      <trkpt lat="41.118028" lon="-3.398447">
        <ele>1468.784</ele>
        <time>2016-07-20T16:42:23Z</time>
      </trkpt>
      <trkpt lat="41.117895" lon="-3.398433">
        <ele>1469.117</ele>
        <time>2016-07-20T16:42:25Z</time>
      </trkpt>
      <trkpt lat="41.117636" lon="-3.398427">
        <ele>1469.377</ele>
        <time>2016-07-20T16:42:26Z</time>
      </trkpt>
      <trkpt lat="41.117510" lon="-3.398433">
        <ele>1469.145</ele>
        <time>2016-07-20T16:42:27Z</time>
      </trkpt>
      <trkpt lat="41.117380" lon="-3.398449">
        <ele>1469.477</ele>
        <time>2016-07-20T16:42:28Z</time>
      </trkpt>
      <trkpt lat="41.117242" lon="-3.398473">
        <ele>1469.261</ele>
        <time>2016-07-20T16:42:29Z</time>
      </trkpt>
      <trkpt lat="41.117106" lon="-3.398506">
        <ele>1469.427</ele>
        <time>2016-07-20T16:42:30Z</time>
      </trkpt>
      <trkpt lat="41.116967" lon="-3.398545">
        <ele>1469.408</ele>
        <time>2016-07-20T16:42:31Z</time>
      </trkpt>
      <trkpt lat="41.116834" lon="-3.398589">
        <ele>1469.498</ele>
        <time>2016-07-20T16:42:32Z</time>
      </trkpt>
      <trkpt lat="41.116711" lon="-3.398624">
        <ele>1468.981</ele>
        <time>2016-07-20T16:42:33Z</time>
      </trkpt>
      <trkpt lat="41.116583" lon="-3.398652">
        <ele>1468.547</ele>
        <time>2016-07-20T16:42:34Z</time>
      </trkpt>
      <trkpt lat="41.116439" lon="-3.398675">
        <ele>1468.513</ele>
        <time>2016-07-20T16:42:35Z</time>
      </trkpt>
      <trkpt lat="41.116300" lon="-3.398681">
        <ele>1468.788</ele>
        <time>2016-07-20T16:42:36Z</time>
      </trkpt>
      <trkpt lat="41.116167" lon="-3.398694">
        <ele>1468.691</ele>
        <time>2016-07-20T16:42:37Z</time>
      </trkpt>
      <trkpt lat="41.116042" lon="-3.398713">
        <ele>1468.671</ele>
        <time>2016-07-20T16:42:38Z</time>
      </trkpt>
      <trkpt lat="41.115912" lon="-3.398736">
        <ele>1468.279</ele>
        <time>2016-07-20T16:42:39Z</time>
      </trkpt>
      <trkpt lat="41.115780" lon="-3.398757">
        <ele>1467.449</ele>
        <time>2016-07-20T16:42:40Z</time>
      </trkpt>
      <trkpt lat="41.115657" lon="-3.398778">
        <ele>1466.602</ele>
        <time>2016-07-20T16:42:41Z</time>
      </trkpt>
      <trkpt lat="41.115530" lon="-3.398789">
        <ele>1465.622</ele>
        <time>2016-07-20T16:42:42Z</time>
      </trkpt>
      <trkpt lat="41.115404" lon="-3.398791">
        <ele>1464.608</ele>
        <time>2016-07-20T16:42:43Z</time>
      </trkpt>
      <trkpt lat="41.115292" lon="-3.398739">
        <ele>1463.735</ele>
        <time>2016-07-20T16:42:44Z</time>
      </trkpt>
      <trkpt lat="41.115183" lon="-3.398677">
        <ele>1462.968</ele>
        <time>2016-07-20T16:42:45Z</time>
      </trkpt>
      <trkpt lat="41.115071" lon="-3.398607">
        <ele>1462.794</ele>
        <time>2016-07-20T16:42:46Z</time>
      </trkpt>
      <trkpt lat="41.114959" lon="-3.398533">
        <ele>1462.460</ele>
        <time>2016-07-20T16:42:47Z</time>
      </trkpt>
      <trkpt lat="41.114845" lon="-3.398444">
        <ele>1462.065</ele>
        <time>2016-07-20T16:42:48Z</time>
      </trkpt>
      <trkpt lat="41.114722" lon="-3.398349">
        <ele>1461.738</ele>
        <time>2016-07-20T16:42:49Z</time>
      </trkpt>
      <trkpt lat="41.114607" lon="-3.398252">
        <ele>1462.018</ele>
        <time>2016-07-20T16:42:50Z</time>
      </trkpt>
      <trkpt lat="41.114504" lon="-3.398164">
        <ele>1461.696</ele>
        <time>2016-07-20T16:42:51Z</time>
      </trkpt>
      <trkpt lat="41.114394" lon="-3.398073">
        <ele>1460.879</ele>
        <time>2016-07-20T16:42:52Z</time>
      </trkpt>
      <trkpt lat="41.114284" lon="-3.397984">
        <ele>1459.805</ele>
        <time>2016-07-20T16:42:53Z</time>
      </trkpt>
      <trkpt lat="41.114169" lon="-3.397889">
        <ele>1458.425</ele>
        <time>2016-07-20T16:42:54Z</time>
      </trkpt>
      <trkpt lat="41.114058" lon="-3.397802">
        <ele>1457.308</ele>
        <time>2016-07-20T16:42:55Z</time>
      </trkpt>
      <trkpt lat="41.113941" lon="-3.397712">
        <ele>1456.358</ele>
        <time>2016-07-20T16:42:56Z</time>
      </trkpt>
      <trkpt lat="41.113819" lon="-3.397619">
        <ele>1455.261</ele>
        <time>2016-07-20T16:42:57Z</time>
      </trkpt>
      <trkpt lat="41.113696" lon="-3.397525">
        <ele>1454.117</ele>
        <time>2016-07-20T16:42:58Z</time>
      </trkpt>
      <trkpt lat="41.113571" lon="-3.397428">
        <ele>1453.223</ele>
        <time>2016-07-20T16:42:59Z</time>
      </trkpt>
      <trkpt lat="41.113444" lon="-3.397331">
        <ele>1452.518</ele>
        <time>2016-07-20T16:43:00Z</time>
      </trkpt>
      <trkpt lat="41.113316" lon="-3.397236">
        <ele>1451.471</ele>
        <time>2016-07-20T16:43:01Z</time>
      </trkpt>
      <trkpt lat="41.113187" lon="-3.397139">
        <ele>1450.411</ele>
        <time>2016-07-20T16:43:02Z</time>
      </trkpt>
      <trkpt lat="41.113045" lon="-3.397029">
        <ele>1449.269</ele>
        <time>2016-07-20T16:43:03Z</time>
      </trkpt>
      <trkpt lat="41.112909" lon="-3.396933">
        <ele>1448.419</ele>
        <time>2016-07-20T16:43:04Z</time>
      </trkpt>
      <trkpt lat="41.112770" lon="-3.396841">
        <ele>1447.309</ele>
        <time>2016-07-20T16:43:05Z</time>
      </trkpt>
      <trkpt lat="41.112631" lon="-3.396766">
        <ele>1446.619</ele>
        <time>2016-07-20T16:43:06Z</time>
      </trkpt>
      <trkpt lat="41.112482" lon="-3.396682">
        <ele>1445.608</ele>
        <time>2016-07-20T16:43:07Z</time>
      </trkpt>
      <trkpt lat="41.112333" lon="-3.396583">
        <ele>1444.212</ele>
        <time>2016-07-20T16:43:08Z</time>
      </trkpt>
      <trkpt lat="41.112197" lon="-3.396487">
        <ele>1443.195</ele>
        <time>2016-07-20T16:43:09Z</time>
      </trkpt>
      <trkpt lat="41.112059" lon="-3.396384">
        <ele>1442.271</ele>
        <time>2016-07-20T16:43:10Z</time>
      </trkpt>
      <trkpt lat="41.111916" lon="-3.396273">
        <ele>1441.217</ele>
        <time>2016-07-20T16:43:11Z</time>
      </trkpt>
      <trkpt lat="41.111775" lon="-3.396160">
        <ele>1440.232</ele>
        <time>2016-07-20T16:43:12Z</time>
      </trkpt>
      <trkpt lat="41.111638" lon="-3.396046">
        <ele>1439.725</ele>
        <time>2016-07-20T16:43:13Z</time>
      </trkpt>
      <trkpt lat="41.111495" lon="-3.395923">
        <ele>1439.295</ele>
        <time>2016-07-20T16:43:14Z</time>
      </trkpt>
      <trkpt lat="41.111357" lon="-3.395799">
        <ele>1438.543</ele>
        <time>2016-07-20T16:43:15Z</time>
      </trkpt>
      <trkpt lat="41.111218" lon="-3.395673">
        <ele>1437.718</ele>
        <time>2016-07-20T16:43:16Z</time>
      </trkpt>
      <trkpt lat="41.111078" lon="-3.395546">
        <ele>1437.298</ele>
        <time>2016-07-20T16:43:17Z</time>
      </trkpt>
      <trkpt lat="41.110939" lon="-3.395423">
        <ele>1436.417</ele>
        <time>2016-07-20T16:43:18Z</time>
      </trkpt>
      <trkpt lat="41.110809" lon="-3.395316">
        <ele>1435.608</ele>
        <time>2016-07-20T16:43:19Z</time>
      </trkpt>
      <trkpt lat="41.110684" lon="-3.395212">
        <ele>1435.032</ele>
        <time>2016-07-20T16:43:20Z</time>
      </trkpt>
      <trkpt lat="41.110575" lon="-3.395163">
        <ele>1434.115</ele>
        <time>2016-07-20T16:43:21Z</time>
      </trkpt>
      <trkpt lat="41.110462" lon="-3.395106">
        <ele>1433.441</ele>
        <time>2016-07-20T16:43:22Z</time>
      </trkpt>
      <trkpt lat="41.110356" lon="-3.395058">
        <ele>1432.647</ele>
        <time>2016-07-20T16:43:23Z</time>
      </trkpt>
      <trkpt lat="41.110255" lon="-3.395014">
        <ele>1431.542</ele>
        <time>2016-07-20T16:43:24Z</time>
      </trkpt>
      <trkpt lat="41.110141" lon="-3.394956">
        <ele>1429.935</ele>
        <time>2016-07-20T16:43:25Z</time>
      </trkpt>
      <trkpt lat="41.110032" lon="-3.394902">
        <ele>1428.035</ele>
        <time>2016-07-20T16:43:26Z</time>
      </trkpt>
      <trkpt lat="41.109919" lon="-3.394839">
        <ele>1426.343</ele>
        <time>2016-07-20T16:43:27Z</time>
      </trkpt>
      <trkpt lat="41.109810" lon="-3.394779">
        <ele>1424.772</ele>
        <time>2016-07-20T16:43:28Z</time>
      </trkpt>
      <trkpt lat="41.109702" lon="-3.394724">
        <ele>1422.713</ele>
        <time>2016-07-20T16:43:29Z</time>
      </trkpt>
      <trkpt lat="41.109598" lon="-3.394678">
        <ele>1420.914</ele>
        <time>2016-07-20T16:43:30Z</time>
      </trkpt>
      <trkpt lat="41.109490" lon="-3.394636">
        <ele>1419.108</ele>
        <time>2016-07-20T16:43:31Z</time>
      </trkpt>
      <trkpt lat="41.109370" lon="-3.394595">
        <ele>1417.028</ele>
        <time>2016-07-20T16:43:32Z</time>
      </trkpt>
      <trkpt lat="41.109270" lon="-3.394598">
        <ele>1415.261</ele>
        <time>2016-07-20T16:43:33Z</time>
      </trkpt>
      <trkpt lat="41.109167" lon="-3.394603">
        <ele>1413.527</ele>
        <time>2016-07-20T16:43:35Z</time>
      </trkpt>
      <trkpt lat="41.109072" lon="-3.394637">
        <ele>1412.273</ele>
        <time>2016-07-20T16:43:35Z</time>
      </trkpt>
      <trkpt lat="41.108983" lon="-3.394672">
        <ele>1411.378</ele>
        <time>2016-07-20T16:43:37Z</time>
      </trkpt>
      <trkpt lat="41.108894" lon="-3.394709">
        <ele>1410.591</ele>
        <time>2016-07-20T16:43:38Z</time>
      </trkpt>
      <trkpt lat="41.108731" lon="-3.394787">
        <ele>1408.281</ele>
        <time>2016-07-20T16:43:40Z</time>
      </trkpt>
      <trkpt lat="41.108584" lon="-3.394821">
        <ele>1405.669</ele>
        <time>2016-07-20T16:43:42Z</time>
      </trkpt>
      <trkpt lat="41.108469" lon="-3.394667">
        <ele>1403.867</ele>
        <time>2016-07-20T16:43:44Z</time>
      </trkpt>
      <trkpt lat="41.108472" lon="-3.394457">
        <ele>1403.781</ele>
        <time>2016-07-20T16:43:46Z</time>
      </trkpt>
      <trkpt lat="41.108447" lon="-3.394254">
        <ele>1403.719</ele>
        <time>2016-07-20T16:43:48Z</time>
      </trkpt>
      <trkpt lat="41.108355" lon="-3.394103">
        <ele>1403.408</ele>
        <time>2016-07-20T16:43:50Z</time>
      </trkpt>
      <trkpt lat="41.108228" lon="-3.394013">
        <ele>1402.657</ele>
        <time>2016-07-20T16:43:52Z</time>
      </trkpt>
      <trkpt lat="41.108072" lon="-3.393914">
        <ele>1400.350</ele>
        <time>2016-07-20T16:43:55Z</time>
      </trkpt>
      <trkpt lat="41.107956" lon="-3.393847">
        <ele>1399.456</ele>
        <time>2016-07-20T16:44:19Z</time>
      </trkpt>
      <trkpt lat="41.107866" lon="-3.393791">
        <ele>1398.912</ele>
        <time>2016-07-20T16:44:21Z</time>
      </trkpt>
      <trkpt lat="41.107751" lon="-3.393754">
        <ele>1396.957</ele>
        <time>2016-07-20T16:44:23Z</time>
      </trkpt>
      <trkpt lat="41.107668" lon="-3.393832">
        <ele>1395.930</ele>
        <time>2016-07-20T16:44:25Z</time>
      </trkpt>
      <trkpt lat="41.107622" lon="-3.393966">
        <ele>1395.170</ele>
        <time>2016-07-20T16:44:27Z</time>
      </trkpt>
      <trkpt lat="41.107580" lon="-3.394155">
        <ele>1394.638</ele>
        <time>2016-07-20T16:44:29Z</time>
      </trkpt>
      <trkpt lat="41.107562" lon="-3.394280">
        <ele>1394.472</ele>
        <time>2016-07-20T16:44:30Z</time>
      </trkpt>
      <trkpt lat="41.107546" lon="-3.394412">
        <ele>1394.013</ele>
        <time>2016-07-20T16:44:31Z</time>
      </trkpt>
      <trkpt lat="41.107533" lon="-3.394534">
        <ele>1394.014</ele>
        <time>2016-07-20T16:44:32Z</time>
      </trkpt>
      <trkpt lat="41.107518" lon="-3.394664">
        <ele>1393.608</ele>
        <time>2016-07-20T16:44:33Z</time>
      </trkpt>
      <trkpt lat="41.107503" lon="-3.394798">
        <ele>1393.718</ele>
        <time>2016-07-20T16:44:34Z</time>
      </trkpt>
      <trkpt lat="41.107490" lon="-3.394936">
        <ele>1394.131</ele>
        <time>2016-07-20T16:44:35Z</time>
      </trkpt>
      <trkpt lat="41.107477" lon="-3.395066">
        <ele>1394.387</ele>
        <time>2016-07-20T16:44:36Z</time>
      </trkpt>
      <trkpt lat="41.107463" lon="-3.395201">
        <ele>1394.443</ele>
        <time>2016-07-20T16:44:37Z</time>
      </trkpt>
      <trkpt lat="41.107449" lon="-3.395330">
        <ele>1394.638</ele>
        <time>2016-07-20T16:44:38Z</time>
      </trkpt>
      <trkpt lat="41.107432" lon="-3.395456">
        <ele>1395.131</ele>
        <time>2016-07-20T16:44:39Z</time>
      </trkpt>
      <trkpt lat="41.107414" lon="-3.395574">
        <ele>1395.581</ele>
        <time>2016-07-20T16:44:40Z</time>
      </trkpt>
      <trkpt lat="41.107378" lon="-3.395797">
        <ele>1396.279</ele>
        <time>2016-07-20T16:44:42Z</time>
      </trkpt>
      <trkpt lat="41.107308" lon="-3.396003">
        <ele>1396.939</ele>
        <time>2016-07-20T16:44:44Z</time>
      </trkpt>
      <trkpt lat="41.107193" lon="-3.396171">
        <ele>1397.701</ele>
        <time>2016-07-20T16:44:46Z</time>
      </trkpt>
      <trkpt lat="41.107048" lon="-3.396296">
        <ele>1395.321</ele>
        <time>2016-07-20T16:44:48Z</time>
      </trkpt>
      <trkpt lat="41.106909" lon="-3.396416">
        <ele>1393.108</ele>
        <time>2016-07-20T16:44:50Z</time>
      </trkpt>
      <trkpt lat="41.106770" lon="-3.396536">
        <ele>1390.954</ele>
        <time>2016-07-20T16:44:52Z</time>
      </trkpt>
      <trkpt lat="41.106629" lon="-3.396657">
        <ele>1387.977</ele>
        <time>2016-07-20T16:44:54Z</time>
      </trkpt>
      <trkpt lat="41.106493" lon="-3.396772">
        <ele>1384.453</ele>
        <time>2016-07-20T16:44:56Z</time>
      </trkpt>
      <trkpt lat="41.106362" lon="-3.396893">
        <ele>1381.879</ele>
        <time>2016-07-20T16:44:58Z</time>
      </trkpt>
      <trkpt lat="41.106237" lon="-3.397021">
        <ele>1380.734</ele>
        <time>2016-07-20T16:45:00Z</time>
      </trkpt>
      <trkpt lat="41.106119" lon="-3.397142">
        <ele>1380.677</ele>
        <time>2016-07-20T16:45:02Z</time>
      </trkpt>
      <trkpt lat="41.106000" lon="-3.397256">
        <ele>1380.267</ele>
        <time>2016-07-20T16:45:04Z</time>
      </trkpt>
      <trkpt lat="41.105888" lon="-3.397349">
        <ele>1381.495</ele>
        <time>2016-07-20T16:45:06Z</time>
      </trkpt>
      <trkpt lat="41.105769" lon="-3.397442">
        <ele>1383.621</ele>
        <time>2016-07-20T16:45:08Z</time>
      </trkpt>
      <trkpt lat="41.105639" lon="-3.397551">
        <ele>1384.641</ele>
        <time>2016-07-20T16:45:10Z</time>
      </trkpt>
      <trkpt lat="41.105494" lon="-3.397684">
        <ele>1384.105</ele>
        <time>2016-07-20T16:45:12Z</time>
      </trkpt>
      <trkpt lat="41.105415" lon="-3.397761">
        <ele>1383.408</ele>
        <time>2016-07-20T16:45:13Z</time>
      </trkpt>
      <trkpt lat="41.105339" lon="-3.397841">
        <ele>1382.733</ele>
        <time>2016-07-20T16:45:14Z</time>
      </trkpt>
      <trkpt lat="41.105264" lon="-3.397928">
        <ele>1381.926</ele>
        <time>2016-07-20T16:45:15Z</time>
      </trkpt>
      <trkpt lat="41.105191" lon="-3.398017">
        <ele>1381.052</ele>
        <time>2016-07-20T16:45:16Z</time>
      </trkpt>
      <trkpt lat="41.105119" lon="-3.398112">
        <ele>1380.028</ele>
        <time>2016-07-20T16:45:17Z</time>
      </trkpt>
      <trkpt lat="41.105051" lon="-3.398216">
        <ele>1379.083</ele>
        <time>2016-07-20T16:45:18Z</time>
      </trkpt>
      <trkpt lat="41.104983" lon="-3.398339">
        <ele>1378.676</ele>
        <time>2016-07-20T16:45:19Z</time>
      </trkpt>
      <trkpt lat="41.104921" lon="-3.398476">
        <ele>1378.376</ele>
        <time>2016-07-20T16:45:20Z</time>
      </trkpt>
      <trkpt lat="41.104869" lon="-3.398606">
        <ele>1377.584</ele>
        <time>2016-07-20T16:45:21Z</time>
      </trkpt>
      <trkpt lat="41.104821" lon="-3.398745">
        <ele>1377.285</ele>
        <time>2016-07-20T16:45:22Z</time>
      </trkpt>
      <trkpt lat="41.104781" lon="-3.398910">
        <ele>1376.989</ele>
        <time>2016-07-20T16:45:23Z</time>
      </trkpt>
      <trkpt lat="41.104738" lon="-3.399089">
        <ele>1377.317</ele>
        <time>2016-07-20T16:45:24Z</time>
      </trkpt>
      <trkpt lat="41.104697" lon="-3.399255">
        <ele>1377.708</ele>
        <time>2016-07-20T16:45:25Z</time>
      </trkpt>
      <trkpt lat="41.104657" lon="-3.399409">
        <ele>1377.339</ele>
        <time>2016-07-20T16:45:26Z</time>
      </trkpt>
      <trkpt lat="41.104620" lon="-3.399552">
        <ele>1376.792</ele>
        <time>2016-07-20T16:45:27Z</time>
      </trkpt>
      <trkpt lat="41.104587" lon="-3.399678">
        <ele>1375.868</ele>
        <time>2016-07-20T16:45:28Z</time>
      </trkpt>
      <trkpt lat="41.104531" lon="-3.399890">
        <ele>1373.614</ele>
        <time>2016-07-20T16:45:30Z</time>
      </trkpt>
      <trkpt lat="41.104469" lon="-3.400081">
        <ele>1371.499</ele>
        <time>2016-07-20T16:45:32Z</time>
      </trkpt>
      <trkpt lat="41.104380" lon="-3.400209">
        <ele>1370.792</ele>
        <time>2016-07-20T16:45:34Z</time>
      </trkpt>
      <trkpt lat="41.104283" lon="-3.400238">
        <ele>1370.782</ele>
        <time>2016-07-20T16:45:36Z</time>
      </trkpt>
      <trkpt lat="41.104173" lon="-3.400256">
        <ele>1371.290</ele>
        <time>2016-07-20T16:45:38Z</time>
      </trkpt>
      <trkpt lat="41.104040" lon="-3.400260">
        <ele>1371.155</ele>
        <time>2016-07-20T16:45:40Z</time>
      </trkpt>
      <trkpt lat="41.103887" lon="-3.400241">
        <ele>1370.007</ele>
        <time>2016-07-20T16:45:42Z</time>
      </trkpt>
      <trkpt lat="41.103742" lon="-3.400212">
        <ele>1370.017</ele>
        <time>2016-07-20T16:45:45Z</time>
      </trkpt>
      <trkpt lat="41.103572" lon="-3.400171">
        <ele>1369.808</ele>
        <time>2016-07-20T16:45:47Z</time>
      </trkpt>
      <trkpt lat="41.103482" lon="-3.400147">
        <ele>1370.266</ele>
        <time>2016-07-20T16:45:48Z</time>
      </trkpt>
      <trkpt lat="41.103388" lon="-3.400132">
        <ele>1370.839</ele>
        <time>2016-07-20T16:45:49Z</time>
      </trkpt>
      <trkpt lat="41.103171" lon="-3.400141">
        <ele>1371.135</ele>
        <time>2016-07-20T16:45:50Z</time>
      </trkpt>
      <trkpt lat="41.103051" lon="-3.400165">
        <ele>1371.321</ele>
        <time>2016-07-20T16:45:51Z</time>
      </trkpt>
      <trkpt lat="41.102917" lon="-3.400200">
        <ele>1371.096</ele>
        <time>2016-07-20T16:45:52Z</time>
      </trkpt>
      <trkpt lat="41.102791" lon="-3.400245">
        <ele>1371.539</ele>
        <time>2016-07-20T16:45:53Z</time>
      </trkpt>
      <trkpt lat="41.102652" lon="-3.400307">
        <ele>1371.339</ele>
        <time>2016-07-20T16:45:54Z</time>
      </trkpt>
      <trkpt lat="41.102513" lon="-3.400376">
        <ele>1372.067</ele>
        <time>2016-07-20T16:45:55Z</time>
      </trkpt>
      <trkpt lat="41.102381" lon="-3.400444">
        <ele>1373.558</ele>
        <time>2016-07-20T16:45:56Z</time>
      </trkpt>
      <trkpt lat="41.102246" lon="-3.400517">
        <ele>1375.452</ele>
        <time>2016-07-20T16:45:57Z</time>
      </trkpt>
      <trkpt lat="41.102103" lon="-3.400595">
        <ele>1377.717</ele>
        <time>2016-07-20T16:45:58Z</time>
      </trkpt>
      <trkpt lat="41.101961" lon="-3.400666">
        <ele>1379.708</ele>
        <time>2016-07-20T16:45:59Z</time>
      </trkpt>
      <trkpt lat="41.101823" lon="-3.400726">
        <ele>1381.746</ele>
        <time>2016-07-20T16:46:00Z</time>
      </trkpt>
      <trkpt lat="41.101697" lon="-3.400781">
        <ele>1384.169</ele>
        <time>2016-07-20T16:46:01Z</time>
      </trkpt>
      <trkpt lat="41.101567" lon="-3.400850">
        <ele>1385.515</ele>
        <time>2016-07-20T16:46:02Z</time>
      </trkpt>
      <trkpt lat="41.101455" lon="-3.400921">
        <ele>1386.641</ele>
        <time>2016-07-20T16:46:03Z</time>
      </trkpt>
      <trkpt lat="41.101341" lon="-3.401004">
        <ele>1387.286</ele>
        <time>2016-07-20T16:46:04Z</time>
      </trkpt>
      <trkpt lat="41.101230" lon="-3.401087">
        <ele>1388.269</ele>
        <time>2016-07-20T16:46:05Z</time>
      </trkpt>
      <trkpt lat="41.101113" lon="-3.401161">
        <ele>1389.259</ele>
        <time>2016-07-20T16:46:06Z</time>
      </trkpt>
      <trkpt lat="41.100989" lon="-3.401222">
        <ele>1389.827</ele>
        <time>2016-07-20T16:46:07Z</time>
      </trkpt>
      <trkpt lat="41.100859" lon="-3.401279">
        <ele>1390.784</ele>
        <time>2016-07-20T16:46:08Z</time>
      </trkpt>
      <trkpt lat="41.100734" lon="-3.401321">
        <ele>1391.007</ele>
        <time>2016-07-20T16:46:09Z</time>
      </trkpt>
      <trkpt lat="41.100601" lon="-3.401349">
        <ele>1390.817</ele>
        <time>2016-07-20T16:46:10Z</time>
      </trkpt>
      <trkpt lat="41.100468" lon="-3.401372">
        <ele>1390.108</ele>
        <time>2016-07-20T16:46:11Z</time>
      </trkpt>
      <trkpt lat="41.100344" lon="-3.401392">
        <ele>1388.879</ele>
        <time>2016-07-20T16:46:12Z</time>
      </trkpt>
      <trkpt lat="41.100234" lon="-3.401410">
        <ele>1387.082</ele>
        <time>2016-07-20T16:46:13Z</time>
      </trkpt>
      <trkpt lat="41.100135" lon="-3.401439">
        <ele>1386.138</ele>
        <time>2016-07-20T16:46:14Z</time>
      </trkpt>
      <trkpt lat="41.100000" lon="-3.401514">
        <ele>1385.474</ele>
        <time>2016-07-20T16:46:16Z</time>
      </trkpt>
      <trkpt lat="41.099910" lon="-3.401643">
        <ele>1385.779</ele>
        <time>2016-07-20T16:46:18Z</time>
      </trkpt>
      <trkpt lat="41.099895" lon="-3.401822">
        <ele>1386.622</ele>
        <time>2016-07-20T16:46:20Z</time>
      </trkpt>
      <trkpt lat="41.099934" lon="-3.402026">
        <ele>1387.942</ele>
        <time>2016-07-20T16:46:22Z</time>
      </trkpt>
      <trkpt lat="41.100015" lon="-3.402223">
        <ele>1387.330</ele>
        <time>2016-07-20T16:46:24Z</time>
      </trkpt>
      <trkpt lat="41.100074" lon="-3.402330">
        <ele>1386.933</ele>
        <time>2016-07-20T16:46:25Z</time>
      </trkpt>
      <trkpt lat="41.100145" lon="-3.402444">
        <ele>1386.323</ele>
        <time>2016-07-20T16:46:26Z</time>
      </trkpt>
      <trkpt lat="41.100219" lon="-3.402557">
        <ele>1385.615</ele>
        <time>2016-07-20T16:46:27Z</time>
      </trkpt>
      <trkpt lat="41.100311" lon="-3.402690">
        <ele>1385.308</ele>
        <time>2016-07-20T16:46:28Z</time>
      </trkpt>
      <trkpt lat="41.100399" lon="-3.402820">
        <ele>1384.934</ele>
        <time>2016-07-20T16:46:29Z</time>
      </trkpt>
      <trkpt lat="41.100482" lon="-3.402940">
        <ele>1384.747</ele>
        <time>2016-07-20T16:46:30Z</time>
      </trkpt>
      <trkpt lat="41.100571" lon="-3.403075">
        <ele>1384.153</ele>
        <time>2016-07-20T16:46:31Z</time>
      </trkpt>
      <trkpt lat="41.100649" lon="-3.403208">
        <ele>1383.639</ele>
        <time>2016-07-20T16:46:32Z</time>
      </trkpt>
      <trkpt lat="41.100721" lon="-3.403344">
        <ele>1383.854</ele>
        <time>2016-07-20T16:46:33Z</time>
      </trkpt>
      <trkpt lat="41.100777" lon="-3.403463">
        <ele>1384.657</ele>
        <time>2016-07-20T16:46:34Z</time>
      </trkpt>
      <trkpt lat="41.100845" lon="-3.403651">
        <ele>1384.777</ele>
        <time>2016-07-20T16:46:36Z</time>
      </trkpt>
      <trkpt lat="41.100819" lon="-3.403818">
        <ele>1385.095</ele>
        <time>2016-07-20T16:46:38Z</time>
      </trkpt>
      <trkpt lat="41.100725" lon="-3.403930">
        <ele>1386.699</ele>
        <time>2016-07-20T16:46:40Z</time>
      </trkpt>
      <trkpt lat="41.100568" lon="-3.404041">
        <ele>1389.707</ele>
        <time>2016-07-20T16:46:42Z</time>
      </trkpt>
      <trkpt lat="41.100471" lon="-3.404120">
        <ele>1391.327</ele>
        <time>2016-07-20T16:46:43Z</time>
      </trkpt>
      <trkpt lat="41.100370" lon="-3.404201">
        <ele>1392.408</ele>
        <time>2016-07-20T16:46:44Z</time>
      </trkpt>
      <trkpt lat="41.100257" lon="-3.404298">
        <ele>1393.170</ele>
        <time>2016-07-20T16:46:45Z</time>
      </trkpt>
      <trkpt lat="41.100141" lon="-3.404404">
        <ele>1393.943</ele>
        <time>2016-07-20T16:46:46Z</time>
      </trkpt>
      <trkpt lat="41.100030" lon="-3.404526">
        <ele>1394.379</ele>
        <time>2016-07-20T16:46:47Z</time>
      </trkpt>
      <trkpt lat="41.099916" lon="-3.404651">
        <ele>1394.215</ele>
        <time>2016-07-20T16:46:48Z</time>
      </trkpt>
      <trkpt lat="41.099802" lon="-3.404789">
        <ele>1393.960</ele>
        <time>2016-07-20T16:46:49Z</time>
      </trkpt>
      <trkpt lat="41.099694" lon="-3.404929">
        <ele>1393.223</ele>
        <time>2016-07-20T16:46:50Z</time>
      </trkpt>
      <trkpt lat="41.099595" lon="-3.405079">
        <ele>1392.483</ele>
        <time>2016-07-20T16:46:51Z</time>
      </trkpt>
      <trkpt lat="41.099499" lon="-3.405233">
        <ele>1391.531</ele>
        <time>2016-07-20T16:46:52Z</time>
      </trkpt>
      <trkpt lat="41.099405" lon="-3.405388">
        <ele>1390.595</ele>
        <time>2016-07-20T16:46:53Z</time>
      </trkpt>
      <trkpt lat="41.099314" lon="-3.405548">
        <ele>1388.849</ele>
        <time>2016-07-20T16:46:54Z</time>
      </trkpt>
      <trkpt lat="41.099241" lon="-3.405724">
        <ele>1387.523</ele>
        <time>2016-07-20T16:46:55Z</time>
      </trkpt>
      <trkpt lat="41.099168" lon="-3.405897">
        <ele>1385.908</ele>
        <time>2016-07-20T16:46:56Z</time>
      </trkpt>
      <trkpt lat="41.099102" lon="-3.406070">
        <ele>1384.230</ele>
        <time>2016-07-20T16:46:57Z</time>
      </trkpt>
      <trkpt lat="41.099048" lon="-3.406239">
        <ele>1383.713</ele>
        <time>2016-07-20T16:46:58Z</time>
      </trkpt>
      <trkpt lat="41.099025" lon="-3.406434">
        <ele>1383.449</ele>
        <time>2016-07-20T16:46:59Z</time>
      </trkpt>
      <trkpt lat="41.099013" lon="-3.406609">
        <ele>1383.345</ele>
        <time>2016-07-20T16:47:00Z</time>
      </trkpt>
      <trkpt lat="41.099009" lon="-3.406788">
        <ele>1383.730</ele>
        <time>2016-07-20T16:47:01Z</time>
      </trkpt>
      <trkpt lat="41.099007" lon="-3.406987">
        <ele>1384.023</ele>
        <time>2016-07-20T16:47:02Z</time>
      </trkpt>
      <trkpt lat="41.099011" lon="-3.407190">
        <ele>1384.613</ele>
        <time>2016-07-20T16:47:03Z</time>
      </trkpt>
      <trkpt lat="41.099014" lon="-3.407395">
        <ele>1384.771</ele>
        <time>2016-07-20T16:47:04Z</time>
      </trkpt>
      <trkpt lat="41.099020" lon="-3.407595">
        <ele>1383.988</ele>
        <time>2016-07-20T16:47:05Z</time>
      </trkpt>
      <trkpt lat="41.099025" lon="-3.407808">
        <ele>1383.224</ele>
        <time>2016-07-20T16:47:06Z</time>
      </trkpt>
      <trkpt lat="41.099029" lon="-3.408012">
        <ele>1382.526</ele>
        <time>2016-07-20T16:47:07Z</time>
      </trkpt>
      <trkpt lat="41.099032" lon="-3.408217">
        <ele>1381.708</ele>
        <time>2016-07-20T16:47:08Z</time>
      </trkpt>
      <trkpt lat="41.099037" lon="-3.408418">
        <ele>1380.879</ele>
        <time>2016-07-20T16:47:09Z</time>
      </trkpt>
      <trkpt lat="41.099045" lon="-3.408620">
        <ele>1380.832</ele>
        <time>2016-07-20T16:47:10Z</time>
      </trkpt>
      <trkpt lat="41.099048" lon="-3.408795">
        <ele>1381.538</ele>
        <time>2016-07-20T16:47:11Z</time>
      </trkpt>
      <trkpt lat="41.099041" lon="-3.408954">
        <ele>1382.874</ele>
        <time>2016-07-20T16:47:12Z</time>
      </trkpt>
      <trkpt lat="41.098989" lon="-3.409092">
        <ele>1384.359</ele>
        <time>2016-07-20T16:47:13Z</time>
      </trkpt>
      <trkpt lat="41.098929" lon="-3.409228">
        <ele>1385.352</ele>
        <time>2016-07-20T16:47:14Z</time>
      </trkpt>
      <trkpt lat="41.098864" lon="-3.409353">
        <ele>1386.182</ele>
        <time>2016-07-20T16:47:15Z</time>
      </trkpt>
      <trkpt lat="41.098790" lon="-3.409475">
        <ele>1386.670</ele>
        <time>2016-07-20T16:47:16Z</time>
      </trkpt>
      <trkpt lat="41.098710" lon="-3.409613">
        <ele>1386.616</ele>
        <time>2016-07-20T16:47:17Z</time>
      </trkpt>
      <trkpt lat="41.098633" lon="-3.409763">
        <ele>1386.476</ele>
        <time>2016-07-20T16:47:18Z</time>
      </trkpt>
      <trkpt lat="41.098554" lon="-3.409922">
        <ele>1386.113</ele>
        <time>2016-07-20T16:47:19Z</time>
      </trkpt>
      <trkpt lat="41.098477" lon="-3.410080">
        <ele>1385.708</ele>
        <time>2016-07-20T16:47:20Z</time>
      </trkpt>
      <trkpt lat="41.098403" lon="-3.410236">
        <ele>1385.932</ele>
        <time>2016-07-20T16:47:21Z</time>
      </trkpt>
      <trkpt lat="41.098324" lon="-3.410381">
        <ele>1385.775</ele>
        <time>2016-07-20T16:47:22Z</time>
      </trkpt>
      <trkpt lat="41.098239" lon="-3.410527">
        <ele>1384.851</ele>
        <time>2016-07-20T16:47:24Z</time>
      </trkpt>
      <trkpt lat="41.098151" lon="-3.410627">
        <ele>1384.317</ele>
        <time>2016-07-20T16:47:25Z</time>
      </trkpt>
      <trkpt lat="41.098064" lon="-3.410721">
        <ele>1383.672</ele>
        <time>2016-07-20T16:47:26Z</time>
      </trkpt>
      <trkpt lat="41.097953" lon="-3.410778">
        <ele>1383.425</ele>
        <time>2016-07-20T16:47:27Z</time>
      </trkpt>
      <trkpt lat="41.097849" lon="-3.410820">
        <ele>1382.935</ele>
        <time>2016-07-20T16:47:28Z</time>
      </trkpt>
      <trkpt lat="41.097722" lon="-3.410832">
        <ele>1382.523</ele>
        <time>2016-07-20T16:47:29Z</time>
      </trkpt>
      <trkpt lat="41.097460" lon="-3.410834">
        <ele>1381.364</ele>
        <time>2016-07-20T16:47:30Z</time>
      </trkpt>
      <trkpt lat="41.097319" lon="-3.410819">
        <ele>1379.906</ele>
        <time>2016-07-20T16:47:31Z</time>
      </trkpt>
      <trkpt lat="41.097176" lon="-3.410765">
        <ele>1379.016</ele>
        <time>2016-07-20T16:47:32Z</time>
      </trkpt>
      <trkpt lat="41.097028" lon="-3.410695">
        <ele>1377.908</ele>
        <time>2016-07-20T16:47:33Z</time>
      </trkpt>
      <trkpt lat="41.096879" lon="-3.410609">
        <ele>1376.637</ele>
        <time>2016-07-20T16:47:34Z</time>
      </trkpt>
      <trkpt lat="41.096732" lon="-3.410513">
        <ele>1375.320</ele>
        <time>2016-07-20T16:47:35Z</time>
      </trkpt>
      <trkpt lat="41.096596" lon="-3.410399">
        <ele>1374.896</ele>
        <time>2016-07-20T16:47:36Z</time>
      </trkpt>
      <trkpt lat="41.096460" lon="-3.410288">
        <ele>1374.622</ele>
        <time>2016-07-20T16:47:37Z</time>
      </trkpt>
      <trkpt lat="41.096311" lon="-3.410164">
        <ele>1374.247</ele>
        <time>2016-07-20T16:47:38Z</time>
      </trkpt>
      <trkpt lat="41.096154" lon="-3.410034">
        <ele>1373.590</ele>
        <time>2016-07-20T16:47:39Z</time>
      </trkpt>
      <trkpt lat="41.095999" lon="-3.409906">
        <ele>1373.180</ele>
        <time>2016-07-20T16:47:40Z</time>
      </trkpt>
      <trkpt lat="41.095844" lon="-3.409789">
        <ele>1372.448</ele>
        <time>2016-07-20T16:47:41Z</time>
      </trkpt>
      <trkpt lat="41.095684" lon="-3.409675">
        <ele>1372.073</ele>
        <time>2016-07-20T16:47:42Z</time>
      </trkpt>
      <trkpt lat="41.095370" lon="-3.409449">
        <ele>1369.785</ele>
        <time>2016-07-20T16:47:44Z</time>
      </trkpt>
      <trkpt lat="41.095222" lon="-3.409351">
        <ele>1368.313</ele>
        <time>2016-07-20T16:47:45Z</time>
      </trkpt>
      <trkpt lat="41.095076" lon="-3.409254">
        <ele>1367.008</ele>
        <time>2016-07-20T16:47:46Z</time>
      </trkpt>
      <trkpt lat="41.094942" lon="-3.409170">
        <ele>1365.458</ele>
        <time>2016-07-20T16:47:47Z</time>
      </trkpt>
      <trkpt lat="41.094811" lon="-3.409083">
        <ele>1363.721</ele>
        <time>2016-07-20T16:47:48Z</time>
      </trkpt>
      <trkpt lat="41.094685" lon="-3.408986">
        <ele>1362.247</ele>
        <time>2016-07-20T16:47:49Z</time>
      </trkpt>
      <trkpt lat="41.094562" lon="-3.408888">
        <ele>1361.073</ele>
        <time>2016-07-20T16:47:50Z</time>
      </trkpt>
      <trkpt lat="41.094435" lon="-3.408777">
        <ele>1359.598</ele>
        <time>2016-07-20T16:47:51Z</time>
      </trkpt>
      <trkpt lat="41.094314" lon="-3.408664">
        <ele>1358.381</ele>
        <time>2016-07-20T16:47:52Z</time>
      </trkpt>
      <trkpt lat="41.094203" lon="-3.408549">
        <ele>1356.961</ele>
        <time>2016-07-20T16:47:53Z</time>
      </trkpt>
      <trkpt lat="41.094095" lon="-3.408438">
        <ele>1355.389</ele>
        <time>2016-07-20T16:47:54Z</time>
      </trkpt>
      <trkpt lat="41.094005" lon="-3.408350">
        <ele>1353.933</ele>
        <time>2016-07-20T16:47:55Z</time>
      </trkpt>
      <trkpt lat="41.093869" lon="-3.408265">
        <ele>1351.723</ele>
        <time>2016-07-20T16:47:57Z</time>
      </trkpt>
      <trkpt lat="41.093723" lon="-3.408334">
        <ele>1349.915</ele>
        <time>2016-07-20T16:47:59Z</time>
      </trkpt>
      <trkpt lat="41.093651" lon="-3.408411">
        <ele>1349.508</ele>
        <time>2016-07-20T16:48:00Z</time>
      </trkpt>
      <trkpt lat="41.093569" lon="-3.408513">
        <ele>1348.854</ele>
        <time>2016-07-20T16:48:01Z</time>
      </trkpt>
      <trkpt lat="41.093484" lon="-3.408627">
        <ele>1347.817</ele>
        <time>2016-07-20T16:48:02Z</time>
      </trkpt>
      <trkpt lat="41.093401" lon="-3.408737">
        <ele>1347.213</ele>
        <time>2016-07-20T16:48:03Z</time>
      </trkpt>
      <trkpt lat="41.093313" lon="-3.408842">
        <ele>1346.839</ele>
        <time>2016-07-20T16:48:04Z</time>
      </trkpt>
      <trkpt lat="41.093203" lon="-3.408930">
        <ele>1346.164</ele>
        <time>2016-07-20T16:48:05Z</time>
      </trkpt>
      <trkpt lat="41.093084" lon="-3.409012">
        <ele>1344.387</ele>
        <time>2016-07-20T16:48:06Z</time>
      </trkpt>
      <trkpt lat="41.092956" lon="-3.409095">
        <ele>1342.947</ele>
        <time>2016-07-20T16:48:07Z</time>
      </trkpt>
      <trkpt lat="41.092823" lon="-3.409175">
        <ele>1341.295</ele>
        <time>2016-07-20T16:48:08Z</time>
      </trkpt>
      <trkpt lat="41.092682" lon="-3.409259">
        <ele>1339.618</ele>
        <time>2016-07-20T16:48:09Z</time>
      </trkpt>
      <trkpt lat="41.092551" lon="-3.409341">
        <ele>1338.898</ele>
        <time>2016-07-20T16:48:10Z</time>
      </trkpt>
      <trkpt lat="41.092426" lon="-3.409430">
        <ele>1337.817</ele>
        <time>2016-07-20T16:48:11Z</time>
      </trkpt>
      <trkpt lat="41.092305" lon="-3.409537">
        <ele>1337.408</ele>
        <time>2016-07-20T16:48:12Z</time>
      </trkpt>
      <trkpt lat="41.092195" lon="-3.409650">
        <ele>1337.472</ele>
        <time>2016-07-20T16:48:13Z</time>
      </trkpt>
      <trkpt lat="41.092090" lon="-3.409785">
        <ele>1337.135</ele>
        <time>2016-07-20T16:48:14Z</time>
      </trkpt>
      <trkpt lat="41.091979" lon="-3.409930">
        <ele>1336.031</ele>
        <time>2016-07-20T16:48:15Z</time>
      </trkpt>
      <trkpt lat="41.091874" lon="-3.410070">
        <ele>1334.587</ele>
        <time>2016-07-20T16:48:17Z</time>
      </trkpt>
      <trkpt lat="41.091783" lon="-3.410199">
        <ele>1332.682</ele>
        <time>2016-07-20T16:48:18Z</time>
      </trkpt>
      <trkpt lat="41.091721" lon="-3.410315">
        <ele>1330.625</ele>
        <time>2016-07-20T16:48:19Z</time>
      </trkpt>
      <trkpt lat="41.091684" lon="-3.410444">
        <ele>1328.165</ele>
        <time>2016-07-20T16:48:20Z</time>
      </trkpt>
      <trkpt lat="41.091652" lon="-3.410597">
        <ele>1326.123</ele>
        <time>2016-07-20T16:48:21Z</time>
      </trkpt>
      <trkpt lat="41.091651" lon="-3.410765">
        <ele>1324.334</ele>
        <time>2016-07-20T16:48:22Z</time>
      </trkpt>
      <trkpt lat="41.091659" lon="-3.410933">
        <ele>1322.655</ele>
        <time>2016-07-20T16:48:23Z</time>
      </trkpt>
      <trkpt lat="41.091667" lon="-3.411104">
        <ele>1321.410</ele>
        <time>2016-07-20T16:48:24Z</time>
      </trkpt>
      <trkpt lat="41.091677" lon="-3.411265">
        <ele>1321.208</ele>
        <time>2016-07-20T16:48:25Z</time>
      </trkpt>
      <trkpt lat="41.091691" lon="-3.411446">
        <ele>1321.644</ele>
        <time>2016-07-20T16:48:26Z</time>
      </trkpt>
      <trkpt lat="41.091728" lon="-3.411632">
        <ele>1322.237</ele>
        <time>2016-07-20T16:48:27Z</time>
      </trkpt>
      <trkpt lat="41.091774" lon="-3.411814">
        <ele>1323.713</ele>
        <time>2016-07-20T16:48:28Z</time>
      </trkpt>
      <trkpt lat="41.091827" lon="-3.411985">
        <ele>1325.169</ele>
        <time>2016-07-20T16:48:29Z</time>
      </trkpt>
      <trkpt lat="41.091906" lon="-3.412141">
        <ele>1326.614</ele>
        <time>2016-07-20T16:48:29Z</time>
      </trkpt>
      <trkpt lat="41.091979" lon="-3.412289">
        <ele>1327.597</ele>
        <time>2016-07-20T16:48:30Z</time>
      </trkpt>
      <trkpt lat="41.092050" lon="-3.412379">
        <ele>1328.257</ele>
        <time>2016-07-20T16:48:31Z</time>
      </trkpt>
      <trkpt lat="41.092150" lon="-3.412550">
        <ele>1329.415</ele>
        <time>2016-07-20T16:48:33Z</time>
      </trkpt>
      <trkpt lat="41.092143" lon="-3.412760">
        <ele>1330.772</ele>
        <time>2016-07-20T16:48:35Z</time>
      </trkpt>
      <trkpt lat="41.092122" lon="-3.412884">
        <ele>1331.913</ele>
        <time>2016-07-20T16:48:36Z</time>
      </trkpt>
      <trkpt lat="41.092084" lon="-3.413021">
        <ele>1333.214</ele>
        <time>2016-07-20T16:48:37Z</time>
      </trkpt>
      <trkpt lat="41.092029" lon="-3.413164">
        <ele>1333.608</ele>
        <time>2016-07-20T16:48:38Z</time>
      </trkpt>
      <trkpt lat="41.091972" lon="-3.413303">
        <ele>1334.068</ele>
        <time>2016-07-20T16:48:39Z</time>
      </trkpt>
      <trkpt lat="41.091917" lon="-3.413451">
        <ele>1334.221</ele>
        <time>2016-07-20T16:48:40Z</time>
      </trkpt>
      <trkpt lat="41.091867" lon="-3.413609">
        <ele>1334.447</ele>
        <time>2016-07-20T16:48:41Z</time>
      </trkpt>
      <trkpt lat="41.091827" lon="-3.413782">
        <ele>1333.843</ele>
        <time>2016-07-20T16:48:42Z</time>
      </trkpt>
      <trkpt lat="41.091788" lon="-3.413963">
        <ele>1332.788</ele>
        <time>2016-07-20T16:48:43Z</time>
      </trkpt>
      <trkpt lat="41.091760" lon="-3.414151">
        <ele>1332.121</ele>
        <time>2016-07-20T16:48:44Z</time>
      </trkpt>
      <trkpt lat="41.091736" lon="-3.414337">
        <ele>1332.261</ele>
        <time>2016-07-20T16:48:45Z</time>
      </trkpt>
      <trkpt lat="41.091719" lon="-3.414543">
        <ele>1333.029</ele>
        <time>2016-07-20T16:48:46Z</time>
      </trkpt>
      <trkpt lat="41.091703" lon="-3.414726">
        <ele>1332.449</ele>
        <time>2016-07-20T16:48:47Z</time>
      </trkpt>
      <trkpt lat="41.091695" lon="-3.414901">
        <ele>1332.702</ele>
        <time>2016-07-20T16:48:48Z</time>
      </trkpt>
      <trkpt lat="41.091685" lon="-3.415067">
        <ele>1333.522</ele>
        <time>2016-07-20T16:48:49Z</time>
      </trkpt>
      <trkpt lat="41.091662" lon="-3.415209">
        <ele>1334.308</ele>
        <time>2016-07-20T16:48:50Z</time>
      </trkpt>
      <trkpt lat="41.091636" lon="-3.415341">
        <ele>1335.315</ele>
        <time>2016-07-20T16:48:51Z</time>
      </trkpt>
      <trkpt lat="41.091586" lon="-3.415470">
        <ele>1336.128</ele>
        <time>2016-07-20T16:48:53Z</time>
      </trkpt>
      <trkpt lat="41.091515" lon="-3.415584">
        <ele>1336.664</ele>
        <time>2016-07-20T16:48:53Z</time>
      </trkpt>
      <trkpt lat="41.091433" lon="-3.415675">
        <ele>1337.370</ele>
        <time>2016-07-20T16:48:55Z</time>
      </trkpt>
      <trkpt lat="41.091348" lon="-3.415763">
        <ele>1336.895</ele>
        <time>2016-07-20T16:48:56Z</time>
      </trkpt>
      <trkpt lat="41.091238" lon="-3.415771">
        <ele>1335.788</ele>
        <time>2016-07-20T16:48:57Z</time>
      </trkpt>
      <trkpt lat="41.091117" lon="-3.415773">
        <ele>1334.838</ele>
        <time>2016-07-20T16:48:58Z</time>
      </trkpt>
      <trkpt lat="41.090992" lon="-3.415783">
        <ele>1334.276</ele>
        <time>2016-07-20T16:48:59Z</time>
      </trkpt>
      <trkpt lat="41.090868" lon="-3.415799">
        <ele>1333.979</ele>
        <time>2016-07-20T16:49:00Z</time>
      </trkpt>
      <trkpt lat="41.090750" lon="-3.415822">
        <ele>1333.705</ele>
        <time>2016-07-20T16:49:01Z</time>
      </trkpt>
      <trkpt lat="41.090625" lon="-3.415843">
        <ele>1333.125</ele>
        <time>2016-07-20T16:49:02Z</time>
      </trkpt>
      <trkpt lat="41.090509" lon="-3.415863">
        <ele>1332.508</ele>
        <time>2016-07-20T16:49:03Z</time>
      </trkpt>
      <trkpt lat="41.090389" lon="-3.415842">
        <ele>1331.818</ele>
        <time>2016-07-20T16:49:04Z</time>
      </trkpt>
      <trkpt lat="41.090283" lon="-3.415813">
        <ele>1331.121</ele>
        <time>2016-07-20T16:49:05Z</time>
      </trkpt>
      <trkpt lat="41.090183" lon="-3.415782">
        <ele>1330.477</ele>
        <time>2016-07-20T16:49:06Z</time>
      </trkpt>
      <trkpt lat="41.090089" lon="-3.415764">
        <ele>1329.583</ele>
        <time>2016-07-20T16:49:07Z</time>
      </trkpt>
      <trkpt lat="41.089956" lon="-3.415826">
        <ele>1327.268</ele>
        <time>2016-07-20T16:49:09Z</time>
      </trkpt>
      <trkpt lat="41.089853" lon="-3.415962">
        <ele>1324.441</ele>
        <time>2016-07-20T16:49:11Z</time>
      </trkpt>
      <trkpt lat="41.089830" lon="-3.416174">
        <ele>1323.621</ele>
        <time>2016-07-20T16:49:13Z</time>
      </trkpt>
      <trkpt lat="41.089899" lon="-3.416395">
        <ele>1324.599</ele>
        <time>2016-07-20T16:49:15Z</time>
      </trkpt>
      <trkpt lat="41.089943" lon="-3.416527">
        <ele>1324.427</ele>
        <time>2016-07-20T16:49:16Z</time>
      </trkpt>
      <trkpt lat="41.089996" lon="-3.416672">
        <ele>1324.668</ele>
        <time>2016-07-20T16:49:17Z</time>
      </trkpt>
      <trkpt lat="41.090051" lon="-3.416819">
        <ele>1325.014</ele>
        <time>2016-07-20T16:49:18Z</time>
      </trkpt>
      <trkpt lat="41.090101" lon="-3.416948">
        <ele>1325.108</ele>
        <time>2016-07-20T16:49:19Z</time>
      </trkpt>
      <trkpt lat="41.090144" lon="-3.417057">
        <ele>1325.013</ele>
        <time>2016-07-20T16:49:20Z</time>
      </trkpt>
      <trkpt lat="41.090148" lon="-3.417255">
        <ele>1323.696</ele>
        <time>2016-07-20T16:49:22Z</time>
      </trkpt>
      <trkpt lat="41.090050" lon="-3.417427">
        <ele>1322.852</ele>
        <time>2016-07-20T16:49:24Z</time>
      </trkpt>
      <trkpt lat="41.090008" lon="-3.417539">
        <ele>1322.468</ele>
        <time>2016-07-20T16:49:25Z</time>
      </trkpt>
      <trkpt lat="41.089957" lon="-3.417668">
        <ele>1321.723</ele>
        <time>2016-07-20T16:49:26Z</time>
      </trkpt>
      <trkpt lat="41.089910" lon="-3.417801">
        <ele>1321.386</ele>
        <time>2016-07-20T16:49:27Z</time>
      </trkpt>
      <trkpt lat="41.089859" lon="-3.417930">
        <ele>1321.476</ele>
        <time>2016-07-20T16:49:28Z</time>
      </trkpt>
      <trkpt lat="41.089698" lon="-3.418147">
        <ele>1320.714</ele>
        <time>2016-07-20T16:49:29Z</time>
      </trkpt>
      <trkpt lat="41.089595" lon="-3.418214">
        <ele>1319.583</ele>
        <time>2016-07-20T16:49:30Z</time>
      </trkpt>
      <trkpt lat="41.089495" lon="-3.418293">
        <ele>1318.725</ele>
        <time>2016-07-20T16:49:31Z</time>
      </trkpt>
      <trkpt lat="41.089401" lon="-3.418414">
        <ele>1317.717</ele>
        <time>2016-07-20T16:49:32Z</time>
      </trkpt>
      <trkpt lat="41.089307" lon="-3.418544">
        <ele>1316.508</ele>
        <time>2016-07-20T16:49:33Z</time>
      </trkpt>
      <trkpt lat="41.089217" lon="-3.418681">
        <ele>1315.459</ele>
        <time>2016-07-20T16:49:34Z</time>
      </trkpt>
      <trkpt lat="41.089124" lon="-3.418823">
        <ele>1314.452</ele>
        <time>2016-07-20T16:49:35Z</time>
      </trkpt>
      <trkpt lat="41.089042" lon="-3.418959">
        <ele>1313.718</ele>
        <time>2016-07-20T16:49:36Z</time>
      </trkpt>
      <trkpt lat="41.088969" lon="-3.419086">
        <ele>1313.384</ele>
        <time>2016-07-20T16:49:37Z</time>
      </trkpt>
      <trkpt lat="41.088904" lon="-3.419201">
        <ele>1312.689</ele>
        <time>2016-07-20T16:49:38Z</time>
      </trkpt>
      <trkpt lat="41.088828" lon="-3.419293">
        <ele>1311.912</ele>
        <time>2016-07-20T16:49:39Z</time>
      </trkpt>
      <trkpt lat="41.088663" lon="-3.419387">
        <ele>1311.462</ele>
        <time>2016-07-20T16:49:41Z</time>
      </trkpt>
      <trkpt lat="41.088557" lon="-3.419399">
        <ele>1310.090</ele>
        <time>2016-07-20T16:49:42Z</time>
      </trkpt>
      <trkpt lat="41.088454" lon="-3.419404">
        <ele>1308.142</ele>
        <time>2016-07-20T16:49:43Z</time>
      </trkpt>
      <trkpt lat="41.088343" lon="-3.419419">
        <ele>1307.222</ele>
        <time>2016-07-20T16:49:44Z</time>
      </trkpt>
      <trkpt lat="41.088212" lon="-3.419431">
        <ele>1306.114</ele>
        <time>2016-07-20T16:49:45Z</time>
      </trkpt>
      <trkpt lat="41.088082" lon="-3.419436">
        <ele>1305.408</ele>
        <time>2016-07-20T16:49:46Z</time>
      </trkpt>
      <trkpt lat="41.087962" lon="-3.419427">
        <ele>1304.955</ele>
        <time>2016-07-20T16:49:47Z</time>
      </trkpt>
      <trkpt lat="41.087862" lon="-3.419389">
        <ele>1305.068</ele>
        <time>2016-07-20T16:49:48Z</time>
      </trkpt>
      <trkpt lat="41.087765" lon="-3.419345">
        <ele>1305.364</ele>
        <time>2016-07-20T16:49:49Z</time>
      </trkpt>
      <trkpt lat="41.087667" lon="-3.419289">
        <ele>1305.180</ele>
        <time>2016-07-20T16:49:50Z</time>
      </trkpt>
      <trkpt lat="41.087516" lon="-3.419200">
        <ele>1305.435</ele>
        <time>2016-07-20T16:49:52Z</time>
      </trkpt>
      <trkpt lat="41.087402" lon="-3.419125">
        <ele>1305.278</ele>
        <time>2016-07-20T16:49:54Z</time>
      </trkpt>
      <trkpt lat="41.087310" lon="-3.419058">
        <ele>1304.498</ele>
        <time>2016-07-20T16:49:56Z</time>
      </trkpt>
      <trkpt lat="41.087226" lon="-3.418997">
        <ele>1303.376</ele>
        <time>2016-07-20T16:49:58Z</time>
      </trkpt>
      <trkpt lat="41.087133" lon="-3.419000">
        <ele>1302.662</ele>
        <time>2016-07-20T16:50:08Z</time>
      </trkpt>
      <trkpt lat="41.087028" lon="-3.419054">
        <ele>1302.483</ele>
        <time>2016-07-20T16:50:13Z</time>
      </trkpt>
      <trkpt lat="41.087121" lon="-3.418979">
        <ele>1303.611</ele>
        <time>2016-07-20T16:50:23Z</time>
      </trkpt>
      <trkpt lat="41.087189" lon="-3.418836">
        <ele>1306.208</ele>
        <time>2016-07-20T16:50:31Z</time>
      </trkpt>
      <trkpt lat="41.087278" lon="-3.418747">
        <ele>1307.017</ele>
        <time>2016-07-20T16:50:33Z</time>
      </trkpt>
      <trkpt lat="41.087365" lon="-3.418648">
        <ele>1306.640</ele>
        <time>2016-07-20T16:50:35Z</time>
      </trkpt>
      <trkpt lat="41.087482" lon="-3.418550">
        <ele>1306.936</ele>
        <time>2016-07-20T16:50:37Z</time>
      </trkpt>
      <trkpt lat="41.087615" lon="-3.418500">
        <ele>1305.352</ele>
        <time>2016-07-20T16:50:39Z</time>
      </trkpt>
      <trkpt lat="41.087738" lon="-3.418472">
        <ele>1304.647</ele>
        <time>2016-07-20T16:50:41Z</time>
      </trkpt>
      <trkpt lat="41.087890" lon="-3.418448">
        <ele>1303.190</ele>
        <time>2016-07-20T16:50:43Z</time>
      </trkpt>
      <trkpt lat="41.088039" lon="-3.418407">
        <ele>1302.590</ele>
        <time>2016-07-20T16:50:45Z</time>
      </trkpt>
      <trkpt lat="41.088175" lon="-3.418285">
        <ele>1303.098</ele>
        <time>2016-07-20T16:50:47Z</time>
      </trkpt>
      <trkpt lat="41.088297" lon="-3.418096">
        <ele>1302.183</ele>
        <time>2016-07-20T16:50:49Z</time>
      </trkpt>
      <trkpt lat="41.088348" lon="-3.417971">
        <ele>1301.725</ele>
        <time>2016-07-20T16:50:50Z</time>
      </trkpt>
      <trkpt lat="41.088394" lon="-3.417828">
        <ele>1301.017</ele>
        <time>2016-07-20T16:50:51Z</time>
      </trkpt>
      <trkpt lat="41.088437" lon="-3.417690">
        <ele>1300.208</ele>
        <time>2016-07-20T16:50:52Z</time>
      </trkpt>
      <trkpt lat="41.088479" lon="-3.417555">
        <ele>1300.089</ele>
        <time>2016-07-20T16:50:53Z</time>
      </trkpt>
      <trkpt lat="41.088524" lon="-3.417417">
        <ele>1299.992</ele>
        <time>2016-07-20T16:50:54Z</time>
      </trkpt>
      <trkpt lat="41.088571" lon="-3.417294">
        <ele>1298.828</ele>
        <time>2016-07-20T16:50:55Z</time>
      </trkpt>
      <trkpt lat="41.088607" lon="-3.417084">
        <ele>1295.164</ele>
        <time>2016-07-20T16:50:57Z</time>
      </trkpt>
      <trkpt lat="41.088544" lon="-3.416870">
        <ele>1291.889</ele>
        <time>2016-07-20T16:50:59Z</time>
      </trkpt>
      <trkpt lat="41.088494" lon="-3.416750">
        <ele>1290.712</ele>
        <time>2016-07-20T16:51:00Z</time>
      </trkpt>
      <trkpt lat="41.088435" lon="-3.416613">
        <ele>1289.632</ele>
        <time>2016-07-20T16:51:01Z</time>
      </trkpt>
      <trkpt lat="41.088375" lon="-3.416482">
        <ele>1289.170</ele>
        <time>2016-07-20T16:51:02Z</time>
      </trkpt>
      <trkpt lat="41.088307" lon="-3.416338">
        <ele>1288.882</ele>
        <time>2016-07-20T16:51:03Z</time>
      </trkpt>
      <trkpt lat="41.088228" lon="-3.416176">
        <ele>1289.043</ele>
        <time>2016-07-20T16:51:04Z</time>
      </trkpt>
      <trkpt lat="41.088151" lon="-3.416012">
        <ele>1289.517</ele>
        <time>2016-07-20T16:51:05Z</time>
      </trkpt>
      <trkpt lat="41.088083" lon="-3.415855">
        <ele>1289.008</ele>
        <time>2016-07-20T16:51:06Z</time>
      </trkpt>
      <trkpt lat="41.088015" lon="-3.415693">
        <ele>1288.559</ele>
        <time>2016-07-20T16:51:07Z</time>
      </trkpt>
      <trkpt lat="41.087953" lon="-3.415528">
        <ele>1288.242</ele>
        <time>2016-07-20T16:51:08Z</time>
      </trkpt>
      <trkpt lat="41.087902" lon="-3.415372">
        <ele>1288.248</ele>
        <time>2016-07-20T16:51:09Z</time>
      </trkpt>
      <trkpt lat="41.087864" lon="-3.415231">
        <ele>1287.994</ele>
        <time>2016-07-20T16:51:10Z</time>
      </trkpt>
      <trkpt lat="41.087837" lon="-3.415103">
        <ele>1287.599</ele>
        <time>2016-07-20T16:51:11Z</time>
      </trkpt>
      <trkpt lat="41.087843" lon="-3.414970">
        <ele>1286.972</ele>
        <time>2016-07-20T16:51:12Z</time>
      </trkpt>
      <trkpt lat="41.087857" lon="-3.414841">
        <ele>1286.752</ele>
        <time>2016-07-20T16:51:13Z</time>
      </trkpt>
      <trkpt lat="41.087902" lon="-3.414724">
        <ele>1286.350</ele>
        <time>2016-07-20T16:51:14Z</time>
      </trkpt>
      <trkpt lat="41.087959" lon="-3.414598">
        <ele>1285.929</ele>
        <time>2016-07-20T16:51:15Z</time>
      </trkpt>
      <trkpt lat="41.088028" lon="-3.414474">
        <ele>1285.300</ele>
        <time>2016-07-20T16:51:16Z</time>
      </trkpt>
      <trkpt lat="41.088125" lon="-3.414369">
        <ele>1284.520</ele>
        <time>2016-07-20T16:51:17Z</time>
      </trkpt>
      <trkpt lat="41.088246" lon="-3.414287">
        <ele>1283.908</ele>
        <time>2016-07-20T16:51:18Z</time>
      </trkpt>
      <trkpt lat="41.088374" lon="-3.414214">
        <ele>1283.263</ele>
        <time>2016-07-20T16:51:19Z</time>
      </trkpt>
      <trkpt lat="41.088506" lon="-3.414148">
        <ele>1282.846</ele>
        <time>2016-07-20T16:51:20Z</time>
      </trkpt>
      <trkpt lat="41.088657" lon="-3.414099">
        <ele>1282.642</ele>
        <time>2016-07-20T16:51:21Z</time>
      </trkpt>
      <trkpt lat="41.088803" lon="-3.414054">
        <ele>1283.418</ele>
        <time>2016-07-20T16:51:22Z</time>
      </trkpt>
      <trkpt lat="41.088956" lon="-3.414005">
        <ele>1283.843</ele>
        <time>2016-07-20T16:51:23Z</time>
      </trkpt>
      <trkpt lat="41.089115" lon="-3.413965">
        <ele>1284.226</ele>
        <time>2016-07-20T16:51:24Z</time>
      </trkpt>
      <trkpt lat="41.089273" lon="-3.413929">
        <ele>1284.956</ele>
        <time>2016-07-20T16:51:25Z</time>
      </trkpt>
      <trkpt lat="41.089411" lon="-3.413886">
        <ele>1285.844</ele>
        <time>2016-07-20T16:51:26Z</time>
      </trkpt>
      <trkpt lat="41.089542" lon="-3.413843">
        <ele>1285.611</ele>
        <time>2016-07-20T16:51:27Z</time>
      </trkpt>
      <trkpt lat="41.089658" lon="-3.413804">
        <ele>1286.021</ele>
        <time>2016-07-20T16:51:28Z</time>
      </trkpt>
      <trkpt lat="41.089756" lon="-3.413740">
        <ele>1287.003</ele>
        <time>2016-07-20T16:51:29Z</time>
      </trkpt>
      <trkpt lat="41.089826" lon="-3.413654">
        <ele>1287.008</ele>
        <time>2016-07-20T16:51:30Z</time>
      </trkpt>
      <trkpt lat="41.089871" lon="-3.413543">
        <ele>1286.962</ele>
        <time>2016-07-20T16:51:31Z</time>
      </trkpt>
      <trkpt lat="41.089864" lon="-3.413319">
        <ele>1286.475</ele>
        <time>2016-07-20T16:51:33Z</time>
      </trkpt>
      <trkpt lat="41.089782" lon="-3.413105">
        <ele>1288.811</ele>
        <time>2016-07-20T16:51:35Z</time>
      </trkpt>
      <trkpt lat="41.089733" lon="-3.412992">
        <ele>1290.787</ele>
        <time>2016-07-20T16:51:37Z</time>
      </trkpt>
      <trkpt lat="41.089675" lon="-3.412862">
        <ele>1292.082</ele>
        <time>2016-07-20T16:51:38Z</time>
      </trkpt>
      <trkpt lat="41.089596" lon="-3.412745">
        <ele>1293.095</ele>
        <time>2016-07-20T16:51:39Z</time>
      </trkpt>
      <trkpt lat="41.089513" lon="-3.412635">
        <ele>1293.895</ele>
        <time>2016-07-20T16:51:40Z</time>
      </trkpt>
      <trkpt lat="41.089415" lon="-3.412530">
        <ele>1293.983</ele>
        <time>2016-07-20T16:51:41Z</time>
      </trkpt>
      <trkpt lat="41.089310" lon="-3.412424">
        <ele>1294.083</ele>
        <time>2016-07-20T16:51:42Z</time>
      </trkpt>
      <trkpt lat="41.089186" lon="-3.412311">
        <ele>1293.025</ele>
        <time>2016-07-20T16:51:43Z</time>
      </trkpt>
      <trkpt lat="41.089069" lon="-3.412206">
        <ele>1292.417</ele>
        <time>2016-07-20T16:51:44Z</time>
      </trkpt>
      <trkpt lat="41.088951" lon="-3.412106">
        <ele>1291.208</ele>
        <time>2016-07-20T16:51:45Z</time>
      </trkpt>
      <trkpt lat="41.088825" lon="-3.412015">
        <ele>1290.589</ele>
        <time>2016-07-20T16:51:46Z</time>
      </trkpt>
      <trkpt lat="41.088705" lon="-3.411962">
        <ele>1289.532</ele>
        <time>2016-07-20T16:51:47Z</time>
      </trkpt>
      <trkpt lat="41.088549" lon="-3.411938">
        <ele>1288.528</ele>
        <time>2016-07-20T16:51:48Z</time>
      </trkpt>
      <trkpt lat="41.088398" lon="-3.411894">
        <ele>1287.684</ele>
        <time>2016-07-20T16:51:49Z</time>
      </trkpt>
      <trkpt lat="41.088258" lon="-3.411839">
        <ele>1286.799</ele>
        <time>2016-07-20T16:51:50Z</time>
      </trkpt>
      <trkpt lat="41.088147" lon="-3.411744">
        <ele>1286.432</ele>
        <time>2016-07-20T16:51:51Z</time>
      </trkpt>
      <trkpt lat="41.088038" lon="-3.411644">
        <ele>1285.712</ele>
        <time>2016-07-20T16:51:52Z</time>
      </trkpt>
      <trkpt lat="41.087923" lon="-3.411537">
        <ele>1285.190</ele>
        <time>2016-07-20T16:51:53Z</time>
      </trkpt>
      <trkpt lat="41.087815" lon="-3.411423">
        <ele>1284.722</ele>
        <time>2016-07-20T16:51:54Z</time>
      </trkpt>
      <trkpt lat="41.087721" lon="-3.411303">
        <ele>1284.562</ele>
        <time>2016-07-20T16:51:55Z</time>
      </trkpt>
      <trkpt lat="41.087663" lon="-3.411154">
        <ele>1284.008</ele>
        <time>2016-07-20T16:51:56Z</time>
      </trkpt>
      <trkpt lat="41.087605" lon="-3.411005">
        <ele>1283.008</ele>
        <time>2016-07-20T16:51:57Z</time>
      </trkpt>
      <trkpt lat="41.087576" lon="-3.410801">
        <ele>1282.233</ele>
        <time>2016-07-20T16:51:58Z</time>
      </trkpt>
      <trkpt lat="41.087554" lon="-3.410582">
        <ele>1281.966</ele>
        <time>2016-07-20T16:51:59Z</time>
      </trkpt>
      <trkpt lat="41.087517" lon="-3.410351">
        <ele>1280.962</ele>
        <time>2016-07-20T16:52:00Z</time>
      </trkpt>
      <trkpt lat="41.087482" lon="-3.410132">
        <ele>1280.418</ele>
        <time>2016-07-20T16:52:01Z</time>
      </trkpt>
      <trkpt lat="41.087448" lon="-3.409900">
        <ele>1279.093</ele>
        <time>2016-07-20T16:52:02Z</time>
      </trkpt>
      <trkpt lat="41.087417" lon="-3.409686">
        <ele>1278.166</ele>
        <time>2016-07-20T16:52:03Z</time>
      </trkpt>
      <trkpt lat="41.087398" lon="-3.409462">
        <ele>1277.756</ele>
        <time>2016-07-20T16:52:04Z</time>
      </trkpt>
      <trkpt lat="41.087396" lon="-3.409240">
        <ele>1276.984</ele>
        <time>2016-07-20T16:52:05Z</time>
      </trkpt>
      <trkpt lat="41.087386" lon="-3.409028">
        <ele>1276.094</ele>
        <time>2016-07-20T16:52:06Z</time>
      </trkpt>
      <trkpt lat="41.087389" lon="-3.408815">
        <ele>1275.557</ele>
        <time>2016-07-20T16:52:07Z</time>
      </trkpt>
      <trkpt lat="41.087412" lon="-3.408609">
        <ele>1275.422</ele>
        <time>2016-07-20T16:52:08Z</time>
      </trkpt>
      <trkpt lat="41.087446" lon="-3.408411">
        <ele>1275.808</ele>
        <time>2016-07-20T16:52:09Z</time>
      </trkpt>
      <trkpt lat="41.087489" lon="-3.408219">
        <ele>1276.450</ele>
        <time>2016-07-20T16:52:10Z</time>
      </trkpt>
      <trkpt lat="41.087546" lon="-3.408024">
        <ele>1276.793</ele>
        <time>2016-07-20T16:52:11Z</time>
      </trkpt>
      <trkpt lat="41.087663" lon="-3.407619">
        <ele>1275.869</ele>
        <time>2016-07-20T16:52:12Z</time>
      </trkpt>
      <trkpt lat="41.087717" lon="-3.407419">
        <ele>1275.395</ele>
        <time>2016-07-20T16:52:13Z</time>
      </trkpt>
      <trkpt lat="41.087757" lon="-3.407217">
        <ele>1275.190</ele>
        <time>2016-07-20T16:52:14Z</time>
      </trkpt>
      <trkpt lat="41.087798" lon="-3.407015">
        <ele>1276.013</ele>
        <time>2016-07-20T16:52:15Z</time>
      </trkpt>
      <trkpt lat="41.087803" lon="-3.406813">
        <ele>1276.523</ele>
        <time>2016-07-20T16:52:16Z</time>
      </trkpt>
      <trkpt lat="41.087807" lon="-3.406638">
        <ele>1276.561</ele>
        <time>2016-07-20T16:52:17Z</time>
      </trkpt>
      <trkpt lat="41.087802" lon="-3.406491">
        <ele>1276.132</ele>
        <time>2016-07-20T16:52:18Z</time>
      </trkpt>
      <trkpt lat="41.087792" lon="-3.406349">
        <ele>1275.392</ele>
        <time>2016-07-20T16:52:19Z</time>
      </trkpt>
      <trkpt lat="41.087793" lon="-3.406223">
        <ele>1274.411</ele>
        <time>2016-07-20T16:52:20Z</time>
      </trkpt>
      <trkpt lat="41.087835" lon="-3.406034">
        <ele>1274.408</ele>
        <time>2016-07-20T16:52:22Z</time>
      </trkpt>
      <trkpt lat="41.087947" lon="-3.405884">
        <ele>1272.814</ele>
        <time>2016-07-20T16:52:24Z</time>
      </trkpt>
      <trkpt lat="41.088107" lon="-3.405749">
        <ele>1270.477</ele>
        <time>2016-07-20T16:52:26Z</time>
      </trkpt>
      <trkpt lat="41.088201" lon="-3.405688">
        <ele>1269.653</ele>
        <time>2016-07-20T16:52:27Z</time>
      </trkpt>
      <trkpt lat="41.088297" lon="-3.405637">
        <ele>1269.039</ele>
        <time>2016-07-20T16:52:28Z</time>
      </trkpt>
      <trkpt lat="41.088417" lon="-3.405620">
        <ele>1268.934</ele>
        <time>2016-07-20T16:52:29Z</time>
      </trkpt>
      <trkpt lat="41.088551" lon="-3.405629">
        <ele>1268.767</ele>
        <time>2016-07-20T16:52:30Z</time>
      </trkpt>
      <trkpt lat="41.088690" lon="-3.405638">
        <ele>1268.877</ele>
        <time>2016-07-20T16:52:31Z</time>
      </trkpt>
      <trkpt lat="41.088824" lon="-3.405649">
        <ele>1268.655</ele>
        <time>2016-07-20T16:52:32Z</time>
      </trkpt>
      <trkpt lat="41.088945" lon="-3.405654">
        <ele>1268.675</ele>
        <time>2016-07-20T16:52:33Z</time>
      </trkpt>
      <trkpt lat="41.089069" lon="-3.405629">
        <ele>1268.828</ele>
        <time>2016-07-20T16:52:34Z</time>
      </trkpt>
      <trkpt lat="41.089182" lon="-3.405598">
        <ele>1269.820</ele>
        <time>2016-07-20T16:52:35Z</time>
      </trkpt>
      <trkpt lat="41.089283" lon="-3.405559">
        <ele>1269.608</ele>
        <time>2016-07-20T16:52:36Z</time>
      </trkpt>
      <trkpt lat="41.089381" lon="-3.405522">
        <ele>1268.688</ele>
        <time>2016-07-20T16:52:37Z</time>
      </trkpt>
      <trkpt lat="41.089476" lon="-3.405491">
        <ele>1267.731</ele>
        <time>2016-07-20T16:52:38Z</time>
      </trkpt>
      <trkpt lat="41.089579" lon="-3.405489">
        <ele>1267.567</ele>
        <time>2016-07-20T16:52:39Z</time>
      </trkpt>
      <trkpt lat="41.089671" lon="-3.405519">
        <ele>1267.453</ele>
        <time>2016-07-20T16:52:40Z</time>
      </trkpt>
      <trkpt lat="41.089799" lon="-3.405611">
        <ele>1266.998</ele>
        <time>2016-07-20T16:52:42Z</time>
      </trkpt>
      <trkpt lat="41.089906" lon="-3.405718">
        <ele>1266.691</ele>
        <time>2016-07-20T16:52:44Z</time>
      </trkpt>
      <trkpt lat="41.090004" lon="-3.405702">
        <ele>1266.471</ele>
        <time>2016-07-20T16:52:48Z</time>
      </trkpt>
      <trkpt lat="41.089952" lon="-3.405582">
        <ele>1265.719</ele>
        <time>2016-07-20T16:52:52Z</time>
      </trkpt>
      <trkpt lat="41.089870" lon="-3.405516">
        <ele>1262.722</ele>
        <time>2016-07-20T16:52:54Z</time>
      </trkpt>
      <trkpt lat="41.089769" lon="-3.405431">
        <ele>1258.962</ele>
        <time>2016-07-20T16:52:57Z</time>
      </trkpt>
      <trkpt lat="41.089667" lon="-3.405358">
        <ele>1256.508</ele>
        <time>2016-07-20T16:52:59Z</time>
      </trkpt>
      <trkpt lat="41.089562" lon="-3.405284">
        <ele>1256.408</ele>
        <time>2016-07-20T16:53:01Z</time>
      </trkpt>
      <trkpt lat="41.089436" lon="-3.405225">
        <ele>1256.453</ele>
        <time>2016-07-20T16:53:03Z</time>
      </trkpt>
      <trkpt lat="41.089314" lon="-3.405245">
        <ele>1256.436</ele>
        <time>2016-07-20T16:53:05Z</time>
      </trkpt>
      <trkpt lat="41.089187" lon="-3.405286">
        <ele>1256.632</ele>
        <time>2016-07-20T16:53:07Z</time>
      </trkpt>
      <trkpt lat="41.089054" lon="-3.405293">
        <ele>1256.048</ele>
        <time>2016-07-20T16:53:09Z</time>
      </trkpt>
      <trkpt lat="41.088934" lon="-3.405233">
        <ele>1254.553</ele>
        <time>2016-07-20T16:53:11Z</time>
      </trkpt>
      <trkpt lat="41.088830" lon="-3.405104">
        <ele>1252.596</ele>
        <time>2016-07-20T16:53:13Z</time>
      </trkpt>
      <trkpt lat="41.088698" lon="-3.404986">
        <ele>1251.746</ele>
        <time>2016-07-20T16:53:15Z</time>
      </trkpt>
      <trkpt lat="41.088565" lon="-3.404931">
        <ele>1251.024</ele>
        <time>2016-07-20T16:53:17Z</time>
      </trkpt>
      <trkpt lat="41.088417" lon="-3.404925">
        <ele>1249.865</ele>
        <time>2016-07-20T16:53:19Z</time>
      </trkpt>
      <trkpt lat="41.088317" lon="-3.404805">
        <ele>1249.168</ele>
        <time>2016-07-20T16:53:21Z</time>
      </trkpt>
      <trkpt lat="41.088278" lon="-3.404628">
        <ele>1247.714</ele>
        <time>2016-07-20T16:53:23Z</time>
      </trkpt>
      <trkpt lat="41.088277" lon="-3.404416">
        <ele>1247.208</ele>
        <time>2016-07-20T16:53:25Z</time>
      </trkpt>
      <trkpt lat="41.088236" lon="-3.404214">
        <ele>1247.557</ele>
        <time>2016-07-20T16:53:27Z</time>
      </trkpt>
      <trkpt lat="41.088176" lon="-3.404018">
        <ele>1247.260</ele>
        <time>2016-07-20T16:53:29Z</time>
      </trkpt>
      <trkpt lat="41.088103" lon="-3.403826">
        <ele>1247.616</ele>
        <time>2016-07-20T16:53:31Z</time>
      </trkpt>
      <trkpt lat="41.087989" lon="-3.403656">
        <ele>1247.352</ele>
        <time>2016-07-20T16:53:33Z</time>
      </trkpt>
      <trkpt lat="41.087770" lon="-3.403488">
        <ele>1247.957</ele>
        <time>2016-07-20T16:53:35Z</time>
      </trkpt>
      <trkpt lat="41.087685" lon="-3.403443">
        <ele>1247.010</ele>
        <time>2016-07-20T16:53:36Z</time>
      </trkpt>
      <trkpt lat="41.087520" lon="-3.403357">
        <ele>1245.440</ele>
        <time>2016-07-20T16:53:38Z</time>
      </trkpt>
      <trkpt lat="41.087359" lon="-3.403268">
        <ele>1243.298</ele>
        <time>2016-07-20T16:53:40Z</time>
      </trkpt>
      <trkpt lat="41.087263" lon="-3.403205">
        <ele>1241.494</ele>
        <time>2016-07-20T16:53:41Z</time>
      </trkpt>
      <trkpt lat="41.087111" lon="-3.403123">
        <ele>1239.357</ele>
        <time>2016-07-20T16:53:43Z</time>
      </trkpt>
      <trkpt lat="41.086954" lon="-3.403076">
        <ele>1237.822</ele>
        <time>2016-07-20T16:53:45Z</time>
      </trkpt>
      <trkpt lat="41.086874" lon="-3.403012">
        <ele>1235.608</ele>
        <time>2016-07-20T16:53:46Z</time>
      </trkpt>
      <trkpt lat="41.086794" lon="-3.402941">
        <ele>1233.690</ele>
        <time>2016-07-20T16:53:47Z</time>
      </trkpt>
      <trkpt lat="41.086720" lon="-3.402862">
        <ele>1232.463</ele>
        <time>2016-07-20T16:53:48Z</time>
      </trkpt>
      <trkpt lat="41.086654" lon="-3.402775">
        <ele>1231.059</ele>
        <time>2016-07-20T16:53:49Z</time>
      </trkpt>
      <trkpt lat="41.086583" lon="-3.402693">
        <ele>1230.225</ele>
        <time>2016-07-20T16:53:50Z</time>
      </trkpt>
      <trkpt lat="41.086499" lon="-3.402631">
        <ele>1228.650</ele>
        <time>2016-07-20T16:53:51Z</time>
      </trkpt>
      <trkpt lat="41.086357" lon="-3.402539">
        <ele>1226.583</ele>
        <time>2016-07-20T16:53:53Z</time>
      </trkpt>
      <trkpt lat="41.086226" lon="-3.402501">
        <ele>1225.573</ele>
        <time>2016-07-20T16:53:55Z</time>
      </trkpt>
      <trkpt lat="41.086117" lon="-3.402403">
        <ele>1226.411</ele>
        <time>2016-07-20T16:53:57Z</time>
      </trkpt>
      <trkpt lat="41.086005" lon="-3.402281">
        <ele>1227.651</ele>
        <time>2016-07-20T16:53:59Z</time>
      </trkpt>
      <trkpt lat="41.085927" lon="-3.402212">
        <ele>1228.101</ele>
        <time>2016-07-20T16:54:00Z</time>
      </trkpt>
      <trkpt lat="41.085831" lon="-3.402128">
        <ele>1228.111</ele>
        <time>2016-07-20T16:54:01Z</time>
      </trkpt>
      <trkpt lat="41.085738" lon="-3.402052">
        <ele>1228.408</ele>
        <time>2016-07-20T16:54:02Z</time>
      </trkpt>
      <trkpt lat="41.085649" lon="-3.401976">
        <ele>1228.526</ele>
        <time>2016-07-20T16:54:03Z</time>
      </trkpt>
      <trkpt lat="41.085570" lon="-3.401907">
        <ele>1228.179</ele>
        <time>2016-07-20T16:54:04Z</time>
      </trkpt>
      <trkpt lat="41.085486" lon="-3.401837">
        <ele>1228.445</ele>
        <time>2016-07-20T16:54:05Z</time>
      </trkpt>
      <trkpt lat="41.085398" lon="-3.401773">
        <ele>1228.391</ele>
        <time>2016-07-20T16:54:06Z</time>
      </trkpt>
      <trkpt lat="41.085312" lon="-3.401698">
        <ele>1228.496</ele>
        <time>2016-07-20T16:54:07Z</time>
      </trkpt>
      <trkpt lat="41.085238" lon="-3.401618">
        <ele>1228.179</ele>
        <time>2016-07-20T16:54:08Z</time>
      </trkpt>
      <trkpt lat="41.085181" lon="-3.401522">
        <ele>1228.039</ele>
        <time>2016-07-20T16:54:09Z</time>
      </trkpt>
      <trkpt lat="41.085116" lon="-3.401409">
        <ele>1227.987</ele>
        <time>2016-07-20T16:54:10Z</time>
      </trkpt>
      <trkpt lat="41.085063" lon="-3.401291">
        <ele>1227.228</ele>
        <time>2016-07-20T16:54:11Z</time>
      </trkpt>
      <trkpt lat="41.085011" lon="-3.401165">
        <ele>1226.089</ele>
        <time>2016-07-20T16:54:12Z</time>
      </trkpt>
      <trkpt lat="41.084971" lon="-3.401052">
        <ele>1225.017</ele>
        <time>2016-07-20T16:54:13Z</time>
      </trkpt>
      <trkpt lat="41.084930" lon="-3.400945">
        <ele>1223.908</ele>
        <time>2016-07-20T16:54:14Z</time>
      </trkpt>
      <trkpt lat="41.084887" lon="-3.400833">
        <ele>1223.053</ele>
        <time>2016-07-20T16:54:15Z</time>
      </trkpt>
      <trkpt lat="41.084812" lon="-3.400638">
        <ele>1219.196</ele>
        <time>2016-07-20T16:54:18Z</time>
      </trkpt>
      <trkpt lat="41.084758" lon="-3.400507">
        <ele>1213.962</ele>
        <time>2016-07-20T16:54:20Z</time>
      </trkpt>
      <trkpt lat="41.084677" lon="-3.400453">
        <ele>1210.758</ele>
        <time>2016-07-20T16:54:22Z</time>
      </trkpt>
      <trkpt lat="41.084562" lon="-3.400533">
        <ele>1206.193</ele>
        <time>2016-07-20T16:54:25Z</time>
      </trkpt>
      <trkpt lat="41.084468" lon="-3.400638">
        <ele>1204.256</ele>
        <time>2016-07-20T16:54:27Z</time>
      </trkpt>
      <trkpt lat="41.084393" lon="-3.400706">
        <ele>1202.666</ele>
        <time>2016-07-20T16:54:28Z</time>
      </trkpt>
      <trkpt lat="41.084317" lon="-3.400770">
        <ele>1201.514</ele>
        <time>2016-07-20T16:54:29Z</time>
      </trkpt>
      <trkpt lat="41.084166" lon="-3.400890">
        <ele>1200.749</ele>
        <time>2016-07-20T16:54:31Z</time>
      </trkpt>
      <trkpt lat="41.084011" lon="-3.400984">
        <ele>1200.202</ele>
        <time>2016-07-20T16:54:33Z</time>
      </trkpt>
      <trkpt lat="41.083847" lon="-3.401052">
        <ele>1199.922</ele>
        <time>2016-07-20T16:54:35Z</time>
      </trkpt>
      <trkpt lat="41.083712" lon="-3.401114">
        <ele>1198.708</ele>
        <time>2016-07-20T16:54:37Z</time>
      </trkpt>
      <trkpt lat="41.083591" lon="-3.401212">
        <ele>1196.155</ele>
        <time>2016-07-20T16:54:39Z</time>
      </trkpt>
      <trkpt lat="41.083461" lon="-3.401291">
        <ele>1195.038</ele>
        <time>2016-07-20T16:54:41Z</time>
      </trkpt>
      <trkpt lat="41.083306" lon="-3.401350">
        <ele>1194.484</ele>
        <time>2016-07-20T16:54:43Z</time>
      </trkpt>
      <trkpt lat="41.083177" lon="-3.401440">
        <ele>1194.170</ele>
        <time>2016-07-20T16:54:45Z</time>
      </trkpt>
      <trkpt lat="41.083071" lon="-3.401568">
        <ele>1192.815</ele>
        <time>2016-07-20T16:54:47Z</time>
      </trkpt>
      <trkpt lat="41.082975" lon="-3.401725">
        <ele>1191.598</ele>
        <time>2016-07-20T16:54:49Z</time>
      </trkpt>
      <trkpt lat="41.082856" lon="-3.401863">
        <ele>1189.178</ele>
        <time>2016-07-20T16:54:51Z</time>
      </trkpt>
      <trkpt lat="41.082638" lon="-3.401992">
        <ele>1185.856</ele>
        <time>2016-07-20T16:54:53Z</time>
      </trkpt>
      <trkpt lat="41.082402" lon="-3.402087">
        <ele>1181.846</ele>
        <time>2016-07-20T16:54:56Z</time>
      </trkpt>
      <trkpt lat="41.082239" lon="-3.402086">
        <ele>1179.788</ele>
        <time>2016-07-20T16:54:58Z</time>
      </trkpt>
      <trkpt lat="41.082074" lon="-3.402114">
        <ele>1177.316</ele>
        <time>2016-07-20T16:55:00Z</time>
      </trkpt>
      <trkpt lat="41.081989" lon="-3.402162">
        <ele>1176.108</ele>
        <time>2016-07-20T16:55:01Z</time>
      </trkpt>
      <trkpt lat="41.081900" lon="-3.402212">
        <ele>1174.675</ele>
        <time>2016-07-20T16:55:02Z</time>
      </trkpt>
      <trkpt lat="41.081741" lon="-3.402297">
        <ele>1172.338</ele>
        <time>2016-07-20T16:55:04Z</time>
      </trkpt>
      <trkpt lat="41.081564" lon="-3.402321">
        <ele>1168.054</ele>
        <time>2016-07-20T16:55:06Z</time>
      </trkpt>
      <trkpt lat="41.081395" lon="-3.402267">
        <ele>1165.330</ele>
        <time>2016-07-20T16:55:08Z</time>
      </trkpt>
      <trkpt lat="41.081302" lon="-3.402223">
        <ele>1164.775</ele>
        <time>2016-07-20T16:55:09Z</time>
      </trkpt>
      <trkpt lat="41.081212" lon="-3.402172">
        <ele>1164.188</ele>
        <time>2016-07-20T16:55:10Z</time>
      </trkpt>
      <trkpt lat="41.081125" lon="-3.402119">
        <ele>1163.958</ele>
        <time>2016-07-20T16:55:11Z</time>
      </trkpt>
      <trkpt lat="41.081044" lon="-3.402066">
        <ele>1163.136</ele>
        <time>2016-07-20T16:55:12Z</time>
      </trkpt>
      <trkpt lat="41.080909" lon="-3.401976">
        <ele>1161.715</ele>
        <time>2016-07-20T16:55:14Z</time>
      </trkpt>
      <trkpt lat="41.080804" lon="-3.401903">
        <ele>1161.365</ele>
        <time>2016-07-20T16:55:16Z</time>
      </trkpt>
      <trkpt lat="41.080714" lon="-3.401939">
        <ele>1162.911</ele>
        <time>2016-07-20T16:55:18Z</time>
      </trkpt>
      <trkpt lat="41.080667" lon="-3.402077">
        <ele>1163.708</ele>
        <time>2016-07-20T16:55:21Z</time>
      </trkpt>
      <trkpt lat="41.080740" lon="-3.402161">
        <ele>1164.522</ele>
        <time>2016-07-20T16:55:23Z</time>
      </trkpt>
      <trkpt lat="41.080869" lon="-3.402254">
        <ele>1164.415</ele>
        <time>2016-07-20T16:55:25Z</time>
      </trkpt>
      <trkpt lat="41.081006" lon="-3.402327">
        <ele>1162.611</ele>
        <time>2016-07-20T16:55:27Z</time>
      </trkpt>
      <trkpt lat="41.081151" lon="-3.402395">
        <ele>1161.527</ele>
        <time>2016-07-20T16:55:29Z</time>
      </trkpt>
      <trkpt lat="41.081254" lon="-3.402457">
        <ele>1161.462</ele>
        <time>2016-07-20T16:55:31Z</time>
      </trkpt>
      <trkpt lat="41.081337" lon="-3.402579">
        <ele>1160.645</ele>
        <time>2016-07-20T16:55:33Z</time>
      </trkpt>
      <trkpt lat="41.081430" lon="-3.402765">
        <ele>1159.875</ele>
        <time>2016-07-20T16:55:35Z</time>
      </trkpt>
      <trkpt lat="41.081519" lon="-3.402926">
        <ele>1159.233</ele>
        <time>2016-07-20T16:55:37Z</time>
      </trkpt>
      <trkpt lat="41.081619" lon="-3.403077">
        <ele>1157.165</ele>
        <time>2016-07-20T16:55:39Z</time>
      </trkpt>
      <trkpt lat="41.081732" lon="-3.403219">
        <ele>1155.568</ele>
        <time>2016-07-20T16:55:41Z</time>
      </trkpt>
      <trkpt lat="41.081843" lon="-3.403385">
        <ele>1154.114</ele>
        <time>2016-07-20T16:55:43Z</time>
      </trkpt>
      <trkpt lat="41.081956" lon="-3.403544">
        <ele>1153.208</ele>
        <time>2016-07-20T16:55:45Z</time>
      </trkpt>
      <trkpt lat="41.082077" lon="-3.403699">
        <ele>1152.237</ele>
        <time>2016-07-20T16:55:47Z</time>
      </trkpt>
      <trkpt lat="41.082201" lon="-3.403833">
        <ele>1150.320</ele>
        <time>2016-07-20T16:55:49Z</time>
      </trkpt>
      <trkpt lat="41.082312" lon="-3.403955">
        <ele>1147.676</ele>
        <time>2016-07-20T16:55:52Z</time>
      </trkpt>
      <trkpt lat="41.082407" lon="-3.404123">
        <ele>1146.012</ele>
        <time>2016-07-20T16:55:54Z</time>
      </trkpt>
      <trkpt lat="41.082491" lon="-3.404297">
        <ele>1143.137</ele>
        <time>2016-07-20T16:55:56Z</time>
      </trkpt>
      <trkpt lat="41.082536" lon="-3.404487">
        <ele>1141.140</ele>
        <time>2016-07-20T16:55:58Z</time>
      </trkpt>
      <trkpt lat="41.082563" lon="-3.404662">
        <ele>1141.030</ele>
        <time>2016-07-20T16:56:00Z</time>
      </trkpt>
      <trkpt lat="41.082559" lon="-3.404837">
        <ele>1138.618</ele>
        <time>2016-07-20T16:56:02Z</time>
      </trkpt>
      <trkpt lat="41.082549" lon="-3.404996">
        <ele>1135.991</ele>
        <time>2016-07-20T16:56:04Z</time>
      </trkpt>
      <trkpt lat="41.082530" lon="-3.405152">
        <ele>1134.681</ele>
        <time>2016-07-20T16:56:06Z</time>
      </trkpt>
      <trkpt lat="41.082469" lon="-3.405276">
        <ele>1135.019</ele>
        <time>2016-07-20T16:56:08Z</time>
      </trkpt>
      <trkpt lat="41.082412" lon="-3.405379">
        <ele>1135.408</ele>
        <time>2016-07-20T16:56:10Z</time>
      </trkpt>
      <trkpt lat="41.082359" lon="-3.405477">
        <ele>1135.150</ele>
        <time>2016-07-20T16:56:13Z</time>
      </trkpt>
      <trkpt lat="41.082312" lon="-3.405596">
        <ele>1134.923</ele>
        <time>2016-07-20T16:56:16Z</time>
      </trkpt>
      <trkpt lat="41.082256" lon="-3.405737">
        <ele>1133.539</ele>
        <time>2016-07-20T16:56:19Z</time>
      </trkpt>
      <trkpt lat="41.082191" lon="-3.405858">
        <ele>1132.745</ele>
        <time>2016-07-20T16:56:21Z</time>
      </trkpt>
      <trkpt lat="41.082099" lon="-3.405938">
        <ele>1132.720</ele>
        <time>2016-07-20T16:56:23Z</time>
      </trkpt>
      <trkpt lat="41.081970" lon="-3.405952">
        <ele>1132.573</ele>
        <time>2016-07-20T16:56:26Z</time>
      </trkpt>
      <trkpt lat="41.081871" lon="-3.405931">
        <ele>1133.063</ele>
        <time>2016-07-20T16:56:29Z</time>
      </trkpt>
      <trkpt lat="41.081798" lon="-3.405845">
        <ele>1133.121</ele>
        <time>2016-07-20T16:56:33Z</time>
      </trkpt>
      <trkpt lat="41.081770" lon="-3.405641">
        <ele>1133.347</ele>
        <time>2016-07-20T16:56:36Z</time>
      </trkpt>
      <trkpt lat="41.081750" lon="-3.405491">
        <ele>1134.029</ele>
        <time>2016-07-20T16:56:39Z</time>
      </trkpt>
      <trkpt lat="41.081772" lon="-3.405609">
        <ele>1134.121</ele>
        <time>2016-07-20T16:58:23Z</time>
      </trkpt>
      <trkpt lat="41.081745" lon="-3.405749">
        <ele>1133.908</ele>
        <time>2016-07-20T16:58:32Z</time>
      </trkpt>
      <trkpt lat="41.081839" lon="-3.405818">
        <ele>1132.455</ele>
        <time>2016-07-20T16:59:00Z</time>
      </trkpt>
      <trkpt lat="41.081921" lon="-3.405758">
        <ele>1130.468</ele>
        <time>2016-07-20T16:59:32Z</time>
      </trkpt>
      <trkpt lat="41.081960" lon="-3.405644">
        <ele>1126.314</ele>
        <time>2016-07-20T16:59:57Z</time>
      </trkpt>
      <trkpt lat="41.081924" lon="-3.405778">
        <ele>1144.450</ele>
        <time>2016-07-20T17:16:22Z</time>
      </trkpt>
      <trkpt lat="41.081909" lon="-3.405660">
        <ele>1145.895</ele>
        <time>2016-07-20T17:19:03Z</time>
      </trkpt>
      <trkpt lat="41.081809" lon="-3.405685">
        <ele>1144.438</ele>
        <time>2016-07-20T17:20:58Z</time>
      </trkpt>
      <trkpt lat="41.081900" lon="-3.405650">
        <ele>1144.928</ele>
        <time>2016-07-20T17:21:40Z</time>
      </trkpt>
      <trkpt lat="41.081973" lon="-3.405721">
        <ele>1143.766</ele>
        <time>2016-07-20T17:33:18Z</time>
      </trkpt>
      <trkpt lat="41.082011" lon="-3.405967">
        <ele>1142.444</ele>
        <time>2016-07-20T17:34:04Z</time>
      </trkpt>
      <trkpt lat="41.081876" lon="-3.405859">
        <ele>1144.505</ele>
        <time>2016-07-20T17:34:41Z</time>
      </trkpt>
      <trkpt lat="41.081816" lon="-3.405970">
        <ele>1146.615</ele>
        <time>2016-07-20T17:35:28Z</time>
      </trkpt>
      <trkpt lat="41.081899" lon="-3.405881">
        <ele>1147.008</ele>
        <time>2016-07-20T17:35:59Z</time>
      </trkpt>
      <trkpt lat="41.081948" lon="-3.405757">
        <ele>1145.315</ele>
        <time>2016-07-20T17:36:29Z</time>
      </trkpt>
      <trkpt lat="41.081832" lon="-3.405668">
        <ele>1143.628</ele>
        <time>2016-07-20T17:36:56Z</time>
      </trkpt>
      <trkpt lat="41.081748" lon="-3.405588">
        <ele>1139.894</ele>
        <time>2016-07-20T17:37:15Z</time>
      </trkpt>
      <trkpt lat="41.081698" lon="-3.405477">
        <ele>1140.040</ele>
        <time>2016-07-20T17:37:30Z</time>
      </trkpt>
      <trkpt lat="41.081663" lon="-3.405353">
        <ele>1140.865</ele>
        <time>2016-07-20T17:39:29Z</time>
      </trkpt>
      <trkpt lat="41.081583" lon="-3.405257">
        <ele>1146.128</ele>
        <time>2016-07-20T17:39:33Z</time>
      </trkpt>
      <trkpt lat="41.081523" lon="-3.405166">
        <ele>1154.038</ele>
        <time>2016-07-20T17:39:36Z</time>
      </trkpt>
      <trkpt lat="41.081465" lon="-3.405067">
        <ele>1157.646</ele>
        <time>2016-07-20T17:39:38Z</time>
      </trkpt>
      <trkpt lat="41.081385" lon="-3.404922">
        <ele>1159.051</ele>
        <time>2016-07-20T17:39:40Z</time>
      </trkpt>
      <trkpt lat="41.081303" lon="-3.404757">
        <ele>1160.601</ele>
        <time>2016-07-20T17:39:42Z</time>
      </trkpt>
      <trkpt lat="41.081226" lon="-3.404601">
        <ele>1161.811</ele>
        <time>2016-07-20T17:39:44Z</time>
      </trkpt>
      <trkpt lat="41.081160" lon="-3.404474">
        <ele>1162.408</ele>
        <time>2016-07-20T17:39:46Z</time>
      </trkpt>
      <trkpt lat="41.081092" lon="-3.404360">
        <ele>1162.336</ele>
        <time>2016-07-20T17:39:49Z</time>
      </trkpt>
      <trkpt lat="41.081015" lon="-3.404277">
        <ele>1162.649</ele>
        <time>2016-07-20T17:39:53Z</time>
      </trkpt>
      <trkpt lat="41.080926" lon="-3.404198">
        <ele>1162.965</ele>
        <time>2016-07-20T17:39:56Z</time>
      </trkpt>
      <trkpt lat="41.080823" lon="-3.404142">
        <ele>1164.431</ele>
        <time>2016-07-20T17:39:58Z</time>
      </trkpt>
      <trkpt lat="41.080726" lon="-3.404115">
        <ele>1165.746</ele>
        <time>2016-07-20T17:40:00Z</time>
      </trkpt>
      <trkpt lat="41.080607" lon="-3.404076">
        <ele>1165.739</ele>
        <time>2016-07-20T17:40:02Z</time>
      </trkpt>
      <trkpt lat="41.080489" lon="-3.404017">
        <ele>1163.089</ele>
        <time>2016-07-20T17:40:04Z</time>
      </trkpt>
      <trkpt lat="41.080364" lon="-3.403996">
        <ele>1161.557</ele>
        <time>2016-07-20T17:40:06Z</time>
      </trkpt>
      <trkpt lat="41.080271" lon="-3.404036">
        <ele>1161.186</ele>
        <time>2016-07-20T17:40:08Z</time>
      </trkpt>
      <trkpt lat="41.080175" lon="-3.404144">
        <ele>1159.460</ele>
        <time>2016-07-20T17:40:10Z</time>
      </trkpt>
      <trkpt lat="41.080088" lon="-3.404312">
        <ele>1159.426</ele>
        <time>2016-07-20T17:40:11Z</time>
      </trkpt>
      <trkpt lat="41.080009" lon="-3.404517">
        <ele>1160.308</ele>
        <time>2016-07-20T17:40:13Z</time>
      </trkpt>
      <trkpt lat="41.079938" lon="-3.404726">
        <ele>1161.329</ele>
        <time>2016-07-20T17:40:15Z</time>
      </trkpt>
      <trkpt lat="41.079927" lon="-3.404941">
        <ele>1162.192</ele>
        <time>2016-07-20T17:40:18Z</time>
      </trkpt>
      <trkpt lat="41.080019" lon="-3.405085">
        <ele>1163.758</ele>
        <time>2016-07-20T17:40:20Z</time>
      </trkpt>
      <trkpt lat="41.080153" lon="-3.405115">
        <ele>1166.074</ele>
        <time>2016-07-20T17:40:22Z</time>
      </trkpt>
      <trkpt lat="41.080269" lon="-3.405142">
        <ele>1166.969</ele>
        <time>2016-07-20T17:40:24Z</time>
      </trkpt>
      <trkpt lat="41.080409" lon="-3.405231">
        <ele>1167.662</ele>
        <time>2016-07-20T17:40:26Z</time>
      </trkpt>
      <trkpt lat="41.080484" lon="-3.405378">
        <ele>1167.742</ele>
        <time>2016-07-20T17:40:28Z</time>
      </trkpt>
      <trkpt lat="41.080494" lon="-3.405496">
        <ele>1165.970</ele>
        <time>2016-07-20T17:40:30Z</time>
      </trkpt>
      <trkpt lat="41.080417" lon="-3.405566">
        <ele>1164.218</ele>
        <time>2016-07-20T17:40:32Z</time>
      </trkpt>
      <trkpt lat="41.080269" lon="-3.405577">
        <ele>1163.898</ele>
        <time>2016-07-20T17:40:34Z</time>
      </trkpt>
      <trkpt lat="41.080119" lon="-3.405576">
        <ele>1165.817</ele>
        <time>2016-07-20T17:40:36Z</time>
      </trkpt>
      <trkpt lat="41.079949" lon="-3.405607">
        <ele>1167.808</ele>
        <time>2016-07-20T17:40:38Z</time>
      </trkpt>
      <trkpt lat="41.079783" lon="-3.405610">
        <ele>1169.812</ele>
        <time>2016-07-20T17:40:40Z</time>
      </trkpt>
      <trkpt lat="41.079609" lon="-3.405586">
        <ele>1171.865</ele>
        <time>2016-07-20T17:40:42Z</time>
      </trkpt>
      <trkpt lat="41.079457" lon="-3.405535">
        <ele>1173.261</ele>
        <time>2016-07-20T17:40:44Z</time>
      </trkpt>
      <trkpt lat="41.079318" lon="-3.405508">
        <ele>1175.927</ele>
        <time>2016-07-20T17:40:46Z</time>
      </trkpt>
      <trkpt lat="41.079232" lon="-3.405624">
        <ele>1177.772</ele>
        <time>2016-07-20T17:40:49Z</time>
      </trkpt>
      <trkpt lat="41.079321" lon="-3.405707">
        <ele>1181.415</ele>
        <time>2016-07-20T17:40:52Z</time>
      </trkpt>
      <trkpt lat="41.079425" lon="-3.405713">
        <ele>1185.525</ele>
        <time>2016-07-20T17:40:54Z</time>
      </trkpt>
      <trkpt lat="41.079521" lon="-3.405726">
        <ele>1187.983</ele>
        <time>2016-07-20T17:40:56Z</time>
      </trkpt>
      <trkpt lat="41.079639" lon="-3.405781">
        <ele>1190.751</ele>
        <time>2016-07-20T17:40:58Z</time>
      </trkpt>
      <trkpt lat="41.079785" lon="-3.405914">
        <ele>1192.601</ele>
        <time>2016-07-20T17:41:00Z</time>
      </trkpt>
      <trkpt lat="41.079862" lon="-3.406002">
        <ele>1193.111</ele>
        <time>2016-07-20T17:41:01Z</time>
      </trkpt>
      <trkpt lat="41.079946" lon="-3.406083">
        <ele>1193.708</ele>
        <time>2016-07-20T17:41:02Z</time>
      </trkpt>
      <trkpt lat="41.080026" lon="-3.406161">
        <ele>1194.386</ele>
        <time>2016-07-20T17:41:03Z</time>
      </trkpt>
      <trkpt lat="41.080105" lon="-3.406222">
        <ele>1195.489</ele>
        <time>2016-07-20T17:41:04Z</time>
      </trkpt>
      <trkpt lat="41.080247" lon="-3.406341">
        <ele>1196.675</ele>
        <time>2016-07-20T17:41:06Z</time>
      </trkpt>
      <trkpt lat="41.080353" lon="-3.406452">
        <ele>1198.161</ele>
        <time>2016-07-20T17:41:08Z</time>
      </trkpt>
      <trkpt lat="41.080381" lon="-3.406688">
        <ele>1199.736</ele>
        <time>2016-07-20T17:41:10Z</time>
      </trkpt>
      <trkpt lat="41.080301" lon="-3.406824">
        <ele>1200.719</ele>
        <time>2016-07-20T17:41:12Z</time>
      </trkpt>
      <trkpt lat="41.080199" lon="-3.406816">
        <ele>1201.269</ele>
        <time>2016-07-20T17:41:14Z</time>
      </trkpt>
      <trkpt lat="41.080068" lon="-3.406713">
        <ele>1202.067</ele>
        <time>2016-07-20T17:41:16Z</time>
      </trkpt>
      <trkpt lat="41.079927" lon="-3.406629">
        <ele>1202.424</ele>
        <time>2016-07-20T17:41:18Z</time>
      </trkpt>
      <trkpt lat="41.079777" lon="-3.406550">
        <ele>1202.504</ele>
        <time>2016-07-20T17:41:20Z</time>
      </trkpt>
      <trkpt lat="41.079625" lon="-3.406458">
        <ele>1202.314</ele>
        <time>2016-07-20T17:41:22Z</time>
      </trkpt>
      <trkpt lat="41.079469" lon="-3.406376">
        <ele>1202.408</ele>
        <time>2016-07-20T17:41:24Z</time>
      </trkpt>
      <trkpt lat="41.079380" lon="-3.406340">
        <ele>1202.873</ele>
        <time>2016-07-20T17:41:25Z</time>
      </trkpt>
      <trkpt lat="41.079288" lon="-3.406319">
        <ele>1203.016</ele>
        <time>2016-07-20T17:41:26Z</time>
      </trkpt>
      <trkpt lat="41.079192" lon="-3.406308">
        <ele>1203.672</ele>
        <time>2016-07-20T17:41:27Z</time>
      </trkpt>
      <trkpt lat="41.079093" lon="-3.406308">
        <ele>1203.938</ele>
        <time>2016-07-20T17:41:28Z</time>
      </trkpt>
      <trkpt lat="41.078998" lon="-3.406308">
        <ele>1204.113</ele>
        <time>2016-07-20T17:41:29Z</time>
      </trkpt>
      <trkpt lat="41.078905" lon="-3.406311">
        <ele>1204.486</ele>
        <time>2016-07-20T17:41:30Z</time>
      </trkpt>
      <trkpt lat="41.078806" lon="-3.406307">
        <ele>1205.236</ele>
        <time>2016-07-20T17:41:31Z</time>
      </trkpt>
      <trkpt lat="41.078705" lon="-3.406308">
        <ele>1205.234</ele>
        <time>2016-07-20T17:41:32Z</time>
      </trkpt>
      <trkpt lat="41.078531" lon="-3.406313">
        <ele>1206.367</ele>
        <time>2016-07-20T17:41:34Z</time>
      </trkpt>
      <trkpt lat="41.078367" lon="-3.406304">
        <ele>1208.781</ele>
        <time>2016-07-20T17:41:36Z</time>
      </trkpt>
      <trkpt lat="41.078190" lon="-3.406233">
        <ele>1210.419</ele>
        <time>2016-07-20T17:41:38Z</time>
      </trkpt>
      <trkpt lat="41.078091" lon="-3.406172">
        <ele>1210.908</ele>
        <time>2016-07-20T17:41:39Z</time>
      </trkpt>
      <trkpt lat="41.078006" lon="-3.406107">
        <ele>1210.967</ele>
        <time>2016-07-20T17:41:40Z</time>
      </trkpt>
      <trkpt lat="41.077920" lon="-3.406032">
        <ele>1210.750</ele>
        <time>2016-07-20T17:41:41Z</time>
      </trkpt>
      <trkpt lat="41.077842" lon="-3.405961">
        <ele>1210.926</ele>
        <time>2016-07-20T17:41:42Z</time>
      </trkpt>
      <trkpt lat="41.077759" lon="-3.405892">
        <ele>1211.212</ele>
        <time>2016-07-20T17:41:43Z</time>
      </trkpt>
      <trkpt lat="41.077675" lon="-3.405830">
        <ele>1211.467</ele>
        <time>2016-07-20T17:41:44Z</time>
      </trkpt>
      <trkpt lat="41.077592" lon="-3.405777">
        <ele>1211.140</ele>
        <time>2016-07-20T17:41:45Z</time>
      </trkpt>
      <trkpt lat="41.077491" lon="-3.405723">
        <ele>1211.170</ele>
        <time>2016-07-20T17:41:46Z</time>
      </trkpt>
      <trkpt lat="41.077397" lon="-3.405651">
        <ele>1210.998</ele>
        <time>2016-07-20T17:41:47Z</time>
      </trkpt>
      <trkpt lat="41.077311" lon="-3.405582">
        <ele>1211.268</ele>
        <time>2016-07-20T17:41:48Z</time>
      </trkpt>
      <trkpt lat="41.077220" lon="-3.405500">
        <ele>1211.842</ele>
        <time>2016-07-20T17:41:50Z</time>
      </trkpt>
      <trkpt lat="41.077129" lon="-3.405414">
        <ele>1212.626</ele>
        <time>2016-07-20T17:41:50Z</time>
      </trkpt>
      <trkpt lat="41.077044" lon="-3.405329">
        <ele>1213.608</ele>
        <time>2016-07-20T17:41:51Z</time>
      </trkpt>
      <trkpt lat="41.076967" lon="-3.405249">
        <ele>1214.747</ele>
        <time>2016-07-20T17:41:53Z</time>
      </trkpt>
      <trkpt lat="41.076895" lon="-3.405175">
        <ele>1215.850</ele>
        <time>2016-07-20T17:41:54Z</time>
      </trkpt>
      <trkpt lat="41.076787" lon="-3.405015">
        <ele>1219.466</ele>
        <time>2016-07-20T17:41:56Z</time>
      </trkpt>
      <trkpt lat="41.076750" lon="-3.404795">
        <ele>1222.972</ele>
        <time>2016-07-20T17:41:58Z</time>
      </trkpt>
      <trkpt lat="41.076758" lon="-3.404574">
        <ele>1225.657</ele>
        <time>2016-07-20T17:42:00Z</time>
      </trkpt>
      <trkpt lat="41.076783" lon="-3.404374">
        <ele>1227.310</ele>
        <time>2016-07-20T17:42:02Z</time>
      </trkpt>
      <trkpt lat="41.076775" lon="-3.404190">
        <ele>1230.290</ele>
        <time>2016-07-20T17:42:04Z</time>
      </trkpt>
      <trkpt lat="41.076720" lon="-3.404060">
        <ele>1236.668</ele>
        <time>2016-07-20T17:42:06Z</time>
      </trkpt>
      <trkpt lat="41.076640" lon="-3.403946">
        <ele>1241.645</ele>
        <time>2016-07-20T17:42:08Z</time>
      </trkpt>
      <trkpt lat="41.076554" lon="-3.403814">
        <ele>1246.147</ele>
        <time>2016-07-20T17:42:10Z</time>
      </trkpt>
      <trkpt lat="41.076424" lon="-3.403695">
        <ele>1247.811</ele>
        <time>2016-07-20T17:42:12Z</time>
      </trkpt>
      <trkpt lat="41.076275" lon="-3.403582">
        <ele>1249.108</ele>
        <time>2016-07-20T17:42:14Z</time>
      </trkpt>
      <trkpt lat="41.076138" lon="-3.403488">
        <ele>1249.385</ele>
        <time>2016-07-20T17:42:16Z</time>
      </trkpt>
      <trkpt lat="41.076005" lon="-3.403380">
        <ele>1249.488</ele>
        <time>2016-07-20T17:42:18Z</time>
      </trkpt>
      <trkpt lat="41.075968" lon="-3.403249">
        <ele>1248.414</ele>
        <time>2016-07-20T17:42:20Z</time>
      </trkpt>
      <trkpt lat="41.075954" lon="-3.403112">
        <ele>1247.550</ele>
        <time>2016-07-20T17:42:22Z</time>
      </trkpt>
      <trkpt lat="41.075921" lon="-3.402969">
        <ele>1247.995</ele>
        <time>2016-07-20T17:42:24Z</time>
      </trkpt>
      <trkpt lat="41.075857" lon="-3.402824">
        <ele>1248.848</ele>
        <time>2016-07-20T17:42:26Z</time>
      </trkpt>
      <trkpt lat="41.075772" lon="-3.402701">
        <ele>1247.678</ele>
        <time>2016-07-20T17:42:28Z</time>
      </trkpt>
      <trkpt lat="41.075653" lon="-3.402621">
        <ele>1246.346</ele>
        <time>2016-07-20T17:42:30Z</time>
      </trkpt>
      <trkpt lat="41.075526" lon="-3.402601">
        <ele>1245.177</ele>
        <time>2016-07-20T17:42:32Z</time>
      </trkpt>
      <trkpt lat="41.075391" lon="-3.402628">
        <ele>1244.561</ele>
        <time>2016-07-20T17:42:34Z</time>
      </trkpt>
      <trkpt lat="41.075263" lon="-3.402735">
        <ele>1245.927</ele>
        <time>2016-07-20T17:42:36Z</time>
      </trkpt>
      <trkpt lat="41.075144" lon="-3.402865">
        <ele>1247.408</ele>
        <time>2016-07-20T17:42:38Z</time>
      </trkpt>
      <trkpt lat="41.075022" lon="-3.403019">
        <ele>1248.288</ele>
        <time>2016-07-20T17:42:40Z</time>
      </trkpt>
      <trkpt lat="41.074903" lon="-3.403178">
        <ele>1249.211</ele>
        <time>2016-07-20T17:42:42Z</time>
      </trkpt>
      <trkpt lat="41.074784" lon="-3.403311">
        <ele>1250.027</ele>
        <time>2016-07-20T17:42:44Z</time>
      </trkpt>
      <trkpt lat="41.074576" lon="-3.403456">
        <ele>1251.263</ele>
        <time>2016-07-20T17:42:46Z</time>
      </trkpt>
      <trkpt lat="41.074497" lon="-3.403629">
        <ele>1252.238</ele>
        <time>2016-07-20T17:42:48Z</time>
      </trkpt>
      <trkpt lat="41.074424" lon="-3.403828">
        <ele>1253.651</ele>
        <time>2016-07-20T17:42:50Z</time>
      </trkpt>
      <trkpt lat="41.074387" lon="-3.403938">
        <ele>1255.281</ele>
        <time>2016-07-20T17:42:51Z</time>
      </trkpt>
      <trkpt lat="41.074348" lon="-3.404060">
        <ele>1256.449</ele>
        <time>2016-07-20T17:42:52Z</time>
      </trkpt>
      <trkpt lat="41.074318" lon="-3.404184">
        <ele>1258.067</ele>
        <time>2016-07-20T17:42:53Z</time>
      </trkpt>
      <trkpt lat="41.074286" lon="-3.404316">
        <ele>1258.881</ele>
        <time>2016-07-20T17:42:54Z</time>
      </trkpt>
      <trkpt lat="41.074251" lon="-3.404455">
        <ele>1259.819</ele>
        <time>2016-07-20T17:42:55Z</time>
      </trkpt>
      <trkpt lat="41.074220" lon="-3.404584">
        <ele>1260.708</ele>
        <time>2016-07-20T17:42:56Z</time>
      </trkpt>
      <trkpt lat="41.074177" lon="-3.404729">
        <ele>1262.317</ele>
        <time>2016-07-20T17:42:57Z</time>
      </trkpt>
      <trkpt lat="41.074133" lon="-3.404866">
        <ele>1263.640</ele>
        <time>2016-07-20T17:42:58Z</time>
      </trkpt>
      <trkpt lat="41.074072" lon="-3.404978">
        <ele>1265.496</ele>
        <time>2016-07-20T17:42:59Z</time>
      </trkpt>
      <trkpt lat="41.074011" lon="-3.405083">
        <ele>1267.172</ele>
        <time>2016-07-20T17:43:00Z</time>
      </trkpt>
      <trkpt lat="41.073949" lon="-3.405187">
        <ele>1268.297</ele>
        <time>2016-07-20T17:43:01Z</time>
      </trkpt>
      <trkpt lat="41.073894" lon="-3.405302">
        <ele>1269.250</ele>
        <time>2016-07-20T17:43:02Z</time>
      </trkpt>
      <trkpt lat="41.073845" lon="-3.405427">
        <ele>1269.530</ele>
        <time>2016-07-20T17:43:03Z</time>
      </trkpt>
      <trkpt lat="41.073804" lon="-3.405542">
        <ele>1269.758</ele>
        <time>2016-07-20T17:43:04Z</time>
      </trkpt>
      <trkpt lat="41.073762" lon="-3.405653">
        <ele>1270.183</ele>
        <time>2016-07-20T17:43:05Z</time>
      </trkpt>
      <trkpt lat="41.073718" lon="-3.405767">
        <ele>1270.525</ele>
        <time>2016-07-20T17:43:06Z</time>
      </trkpt>
      <trkpt lat="41.073674" lon="-3.405879">
        <ele>1270.317</ele>
        <time>2016-07-20T17:43:07Z</time>
      </trkpt>
      <trkpt lat="41.073596" lon="-3.406075">
        <ele>1270.308</ele>
        <time>2016-07-20T17:43:09Z</time>
      </trkpt>
      <trkpt lat="41.073575" lon="-3.406303">
        <ele>1271.289</ele>
        <time>2016-07-20T17:43:11Z</time>
      </trkpt>
      <trkpt lat="41.073572" lon="-3.406428">
        <ele>1272.042</ele>
        <time>2016-07-20T17:43:12Z</time>
      </trkpt>
      <trkpt lat="41.073578" lon="-3.406548">
        <ele>1272.928</ele>
        <time>2016-07-20T17:43:13Z</time>
      </trkpt>
      <trkpt lat="41.073582" lon="-3.406700">
        <ele>1273.234</ele>
        <time>2016-07-20T17:43:14Z</time>
      </trkpt>
      <trkpt lat="41.073588" lon="-3.406831">
        <ele>1273.929</ele>
        <time>2016-07-20T17:43:15Z</time>
      </trkpt>
      <trkpt lat="41.073587" lon="-3.406970">
        <ele>1274.232</ele>
        <time>2016-07-20T17:43:16Z</time>
      </trkpt>
      <trkpt lat="41.073582" lon="-3.407100">
        <ele>1274.372</ele>
        <time>2016-07-20T17:43:17Z</time>
      </trkpt>
      <trkpt lat="41.073579" lon="-3.407227">
        <ele>1274.650</ele>
        <time>2016-07-20T17:43:18Z</time>
      </trkpt>
      <trkpt lat="41.073586" lon="-3.407355">
        <ele>1275.238</ele>
        <time>2016-07-20T17:43:19Z</time>
      </trkpt>
      <trkpt lat="41.073597" lon="-3.407475">
        <ele>1275.870</ele>
        <time>2016-07-20T17:43:20Z</time>
      </trkpt>
      <trkpt lat="41.073591" lon="-3.407674">
        <ele>1275.417</ele>
        <time>2016-07-20T17:43:22Z</time>
      </trkpt>
      <trkpt lat="41.073464" lon="-3.407839">
        <ele>1276.108</ele>
        <time>2016-07-20T17:43:24Z</time>
      </trkpt>
      <trkpt lat="41.073335" lon="-3.407933">
        <ele>1275.894</ele>
        <time>2016-07-20T17:43:26Z</time>
      </trkpt>
      <trkpt lat="41.073189" lon="-3.408084">
        <ele>1275.347</ele>
        <time>2016-07-20T17:43:28Z</time>
      </trkpt>
      <trkpt lat="41.073124" lon="-3.408186">
        <ele>1275.783</ele>
        <time>2016-07-20T17:43:29Z</time>
      </trkpt>
      <trkpt lat="41.073066" lon="-3.408293">
        <ele>1276.199</ele>
        <time>2016-07-20T17:43:30Z</time>
      </trkpt>
      <trkpt lat="41.073002" lon="-3.408408">
        <ele>1277.524</ele>
        <time>2016-07-20T17:43:31Z</time>
      </trkpt>
      <trkpt lat="41.072934" lon="-3.408520">
        <ele>1278.827</ele>
        <time>2016-07-20T17:43:32Z</time>
      </trkpt>
      <trkpt lat="41.072869" lon="-3.408643">
        <ele>1279.737</ele>
        <time>2016-07-20T17:43:33Z</time>
      </trkpt>
      <trkpt lat="41.072804" lon="-3.408771">
        <ele>1281.175</ele>
        <time>2016-07-20T17:43:34Z</time>
      </trkpt>
      <trkpt lat="41.072751" lon="-3.408896">
        <ele>1282.881</ele>
        <time>2016-07-20T17:43:35Z</time>
      </trkpt>
      <trkpt lat="41.072701" lon="-3.409011">
        <ele>1285.061</ele>
        <time>2016-07-20T17:43:36Z</time>
      </trkpt>
      <trkpt lat="41.072644" lon="-3.409225">
        <ele>1288.617</ele>
        <time>2016-07-20T17:43:38Z</time>
      </trkpt>
      <trkpt lat="41.072599" lon="-3.409329">
        <ele>1290.208</ele>
        <time>2016-07-20T17:43:39Z</time>
      </trkpt>
      <trkpt lat="41.072477" lon="-3.409505">
        <ele>1292.349</ele>
        <time>2016-07-20T17:43:41Z</time>
      </trkpt>
      <trkpt lat="41.072395" lon="-3.409567">
        <ele>1293.062</ele>
        <time>2016-07-20T17:43:42Z</time>
      </trkpt>
      <trkpt lat="41.072310" lon="-3.409629">
        <ele>1293.488</ele>
        <time>2016-07-20T17:43:43Z</time>
      </trkpt>
      <trkpt lat="41.072223" lon="-3.409681">
        <ele>1294.424</ele>
        <time>2016-07-20T17:43:44Z</time>
      </trkpt>
      <trkpt lat="41.072127" lon="-3.409723">
        <ele>1294.299</ele>
        <time>2016-07-20T17:43:45Z</time>
      </trkpt>
      <trkpt lat="41.072035" lon="-3.409772">
        <ele>1293.732</ele>
        <time>2016-07-20T17:43:46Z</time>
      </trkpt>
      <trkpt lat="41.071901" lon="-3.409905">
        <ele>1294.782</ele>
        <time>2016-07-20T17:43:48Z</time>
      </trkpt>
      <trkpt lat="41.071799" lon="-3.410073">
        <ele>1294.660</ele>
        <time>2016-07-20T17:43:50Z</time>
      </trkpt>
      <trkpt lat="41.071741" lon="-3.410168">
        <ele>1294.538</ele>
        <time>2016-07-20T17:43:51Z</time>
      </trkpt>
      <trkpt lat="41.071677" lon="-3.410274">
        <ele>1293.670</ele>
        <time>2016-07-20T17:43:52Z</time>
      </trkpt>
      <trkpt lat="41.071602" lon="-3.410380">
        <ele>1293.417</ele>
        <time>2016-07-20T17:43:53Z</time>
      </trkpt>
      <trkpt lat="41.071519" lon="-3.410490">
        <ele>1294.108</ele>
        <time>2016-07-20T17:43:54Z</time>
      </trkpt>
      <trkpt lat="41.071431" lon="-3.410594">
        <ele>1295.074</ele>
        <time>2016-07-20T17:43:55Z</time>
      </trkpt>
      <trkpt lat="41.071297" lon="-3.410779">
        <ele>1297.367</ele>
        <time>2016-07-20T17:43:57Z</time>
      </trkpt>
      <trkpt lat="41.071194" lon="-3.410842">
        <ele>1298.833</ele>
        <time>2016-07-20T17:44:00Z</time>
      </trkpt>
      <trkpt lat="41.071038" lon="-3.410764">
        <ele>1298.459</ele>
        <time>2016-07-20T17:44:02Z</time>
      </trkpt>
      <trkpt lat="41.070887" lon="-3.410641">
        <ele>1298.874</ele>
        <time>2016-07-20T17:44:04Z</time>
      </trkpt>
      <trkpt lat="41.070806" lon="-3.410577">
        <ele>1299.047</ele>
        <time>2016-07-20T17:44:05Z</time>
      </trkpt>
      <trkpt lat="41.070723" lon="-3.410504">
        <ele>1299.687</ele>
        <time>2016-07-20T17:44:06Z</time>
      </trkpt>
      <trkpt lat="41.070636" lon="-3.410425">
        <ele>1300.535</ele>
        <time>2016-07-20T17:44:07Z</time>
      </trkpt>
      <trkpt lat="41.070544" lon="-3.410345">
        <ele>1301.416</ele>
        <time>2016-07-20T17:44:08Z</time>
      </trkpt>
      <trkpt lat="41.070448" lon="-3.410269">
        <ele>1302.776</ele>
        <time>2016-07-20T17:44:09Z</time>
      </trkpt>
      <trkpt lat="41.070356" lon="-3.410201">
        <ele>1304.413</ele>
        <time>2016-07-20T17:44:10Z</time>
      </trkpt>
      <trkpt lat="41.070196" lon="-3.410150">
        <ele>1307.708</ele>
        <time>2016-07-20T17:44:12Z</time>
      </trkpt>
      <trkpt lat="41.070051" lon="-3.410163">
        <ele>1311.752</ele>
        <time>2016-07-20T17:44:14Z</time>
      </trkpt>
      <trkpt lat="41.069914" lon="-3.410252">
        <ele>1314.065</ele>
        <time>2016-07-20T17:44:16Z</time>
      </trkpt>
      <trkpt lat="41.069801" lon="-3.410409">
        <ele>1315.611</ele>
        <time>2016-07-20T17:44:18Z</time>
      </trkpt>
      <trkpt lat="41.069715" lon="-3.410621">
        <ele>1315.517</ele>
        <time>2016-07-20T17:44:20Z</time>
      </trkpt>
      <trkpt lat="41.069672" lon="-3.410737">
        <ele>1316.322</ele>
        <time>2016-07-20T17:44:21Z</time>
      </trkpt>
      <trkpt lat="41.069642" lon="-3.410868">
        <ele>1316.615</ele>
        <time>2016-07-20T17:44:22Z</time>
      </trkpt>
      <trkpt lat="41.069607" lon="-3.410997">
        <ele>1317.315</ele>
        <time>2016-07-20T17:44:23Z</time>
      </trkpt>
      <trkpt lat="41.069567" lon="-3.411116">
        <ele>1317.973</ele>
        <time>2016-07-20T17:44:24Z</time>
      </trkpt>
      <trkpt lat="41.069524" lon="-3.411226">
        <ele>1318.888</ele>
        <time>2016-07-20T17:44:25Z</time>
      </trkpt>
      <trkpt lat="41.069460" lon="-3.411337">
        <ele>1318.624</ele>
        <time>2016-07-20T17:44:26Z</time>
      </trkpt>
      <trkpt lat="41.069399" lon="-3.411446">
        <ele>1319.226</ele>
        <time>2016-07-20T17:44:27Z</time>
      </trkpt>
      <trkpt lat="41.069332" lon="-3.411557">
        <ele>1319.608</ele>
        <time>2016-07-20T17:44:28Z</time>
      </trkpt>
      <trkpt lat="41.069260" lon="-3.411665">
        <ele>1320.439</ele>
        <time>2016-07-20T17:44:29Z</time>
      </trkpt>
      <trkpt lat="41.069176" lon="-3.411762">
        <ele>1321.192</ele>
        <time>2016-07-20T17:44:30Z</time>
      </trkpt>
      <trkpt lat="41.069086" lon="-3.411861">
        <ele>1322.338</ele>
        <time>2016-07-20T17:44:31Z</time>
      </trkpt>
      <trkpt lat="41.068994" lon="-3.411964">
        <ele>1323.514</ele>
        <time>2016-07-20T17:44:32Z</time>
      </trkpt>
      <trkpt lat="41.068906" lon="-3.412057">
        <ele>1325.099</ele>
        <time>2016-07-20T17:44:33Z</time>
      </trkpt>
      <trkpt lat="41.068815" lon="-3.412152">
        <ele>1327.182</ele>
        <time>2016-07-20T17:44:34Z</time>
      </trkpt>
      <trkpt lat="41.068728" lon="-3.412250">
        <ele>1328.542</ele>
        <time>2016-07-20T17:44:35Z</time>
      </trkpt>
      <trkpt lat="41.068641" lon="-3.412354">
        <ele>1329.490</ele>
        <time>2016-07-20T17:44:36Z</time>
      </trkpt>
      <trkpt lat="41.068552" lon="-3.412462">
        <ele>1329.878</ele>
        <time>2016-07-20T17:44:37Z</time>
      </trkpt>
      <trkpt lat="41.068467" lon="-3.412575">
        <ele>1331.033</ele>
        <time>2016-07-20T17:44:38Z</time>
      </trkpt>
      <trkpt lat="41.068381" lon="-3.412695">
        <ele>1332.026</ele>
        <time>2016-07-20T17:44:39Z</time>
      </trkpt>
      <trkpt lat="41.068297" lon="-3.412801">
        <ele>1332.708</ele>
        <time>2016-07-20T17:44:40Z</time>
      </trkpt>
      <trkpt lat="41.068207" lon="-3.412894">
        <ele>1333.518</ele>
        <time>2016-07-20T17:44:41Z</time>
      </trkpt>
      <trkpt lat="41.068110" lon="-3.412983">
        <ele>1334.191</ele>
        <time>2016-07-20T17:44:42Z</time>
      </trkpt>
      <trkpt lat="41.068009" lon="-3.413079">
        <ele>1334.767</ele>
        <time>2016-07-20T17:44:43Z</time>
      </trkpt>
      <trkpt lat="41.067912" lon="-3.413177">
        <ele>1335.263</ele>
        <time>2016-07-20T17:44:44Z</time>
      </trkpt>
      <trkpt lat="41.067831" lon="-3.413274">
        <ele>1335.768</ele>
        <time>2016-07-20T17:44:45Z</time>
      </trkpt>
      <trkpt lat="41.067755" lon="-3.413384">
        <ele>1336.251</ele>
        <time>2016-07-20T17:44:46Z</time>
      </trkpt>
      <trkpt lat="41.067673" lon="-3.413495">
        <ele>1336.961</ele>
        <time>2016-07-20T17:44:47Z</time>
      </trkpt>
      <trkpt lat="41.067598" lon="-3.413598">
        <ele>1337.679</ele>
        <time>2016-07-20T17:44:48Z</time>
      </trkpt>
      <trkpt lat="41.067525" lon="-3.413698">
        <ele>1338.842</ele>
        <time>2016-07-20T17:44:49Z</time>
      </trkpt>
      <trkpt lat="41.067448" lon="-3.413793">
        <ele>1339.522</ele>
        <time>2016-07-20T17:44:50Z</time>
      </trkpt>
      <trkpt lat="41.067381" lon="-3.413888">
        <ele>1340.814</ele>
        <time>2016-07-20T17:44:51Z</time>
      </trkpt>
      <trkpt lat="41.067316" lon="-3.414087">
        <ele>1343.108</ele>
        <time>2016-07-20T17:44:53Z</time>
      </trkpt>
      <trkpt lat="41.067279" lon="-3.414202">
        <ele>1344.025</ele>
        <time>2016-07-20T17:44:54Z</time>
      </trkpt>
      <trkpt lat="41.067213" lon="-3.414312">
        <ele>1345.468</ele>
        <time>2016-07-20T17:44:55Z</time>
      </trkpt>
      <trkpt lat="41.067149" lon="-3.414422">
        <ele>1347.694</ele>
        <time>2016-07-20T17:44:56Z</time>
      </trkpt>
      <trkpt lat="41.067091" lon="-3.414541">
        <ele>1349.870</ele>
        <time>2016-07-20T17:44:57Z</time>
      </trkpt>
      <trkpt lat="41.067032" lon="-3.414649">
        <ele>1351.395</ele>
        <time>2016-07-20T17:44:58Z</time>
      </trkpt>
      <trkpt lat="41.066957" lon="-3.414742">
        <ele>1352.498</ele>
        <time>2016-07-20T17:44:59Z</time>
      </trkpt>
      <trkpt lat="41.066864" lon="-3.414837">
        <ele>1353.158</ele>
        <time>2016-07-20T17:45:00Z</time>
      </trkpt>
      <trkpt lat="41.066762" lon="-3.414928">
        <ele>1353.656</ele>
        <time>2016-07-20T17:45:01Z</time>
      </trkpt>
      <trkpt lat="41.066655" lon="-3.414988">
        <ele>1354.675</ele>
        <time>2016-07-20T17:45:02Z</time>
      </trkpt>
      <trkpt lat="41.066553" lon="-3.415047">
        <ele>1354.928</ele>
        <time>2016-07-20T17:45:03Z</time>
      </trkpt>
      <trkpt lat="41.066451" lon="-3.415100">
        <ele>1355.520</ele>
        <time>2016-07-20T17:45:04Z</time>
      </trkpt>
      <trkpt lat="41.066361" lon="-3.415152">
        <ele>1356.008</ele>
        <time>2016-07-20T17:45:05Z</time>
      </trkpt>
      <trkpt lat="41.066216" lon="-3.415273">
        <ele>1356.128</ele>
        <time>2016-07-20T17:45:07Z</time>
      </trkpt>
      <trkpt lat="41.066089" lon="-3.415369">
        <ele>1356.341</ele>
        <time>2016-07-20T17:45:09Z</time>
      </trkpt>
      <trkpt lat="41.065967" lon="-3.415429">
        <ele>1357.167</ele>
        <time>2016-07-20T17:45:10Z</time>
      </trkpt>
      <trkpt lat="41.065831" lon="-3.415450">
        <ele>1358.923</ele>
        <time>2016-07-20T17:45:12Z</time>
      </trkpt>
      <trkpt lat="41.065673" lon="-3.415482">
        <ele>1360.638</ele>
        <time>2016-07-20T17:45:14Z</time>
      </trkpt>
      <trkpt lat="41.065583" lon="-3.415502">
        <ele>1361.641</ele>
        <time>2016-07-20T17:45:15Z</time>
      </trkpt>
      <trkpt lat="41.065486" lon="-3.415530">
        <ele>1362.981</ele>
        <time>2016-07-20T17:45:16Z</time>
      </trkpt>
      <trkpt lat="41.065333" lon="-3.415625">
        <ele>1365.159</ele>
        <time>2016-07-20T17:45:18Z</time>
      </trkpt>
      <trkpt lat="41.065182" lon="-3.415711">
        <ele>1367.239</ele>
        <time>2016-07-20T17:45:20Z</time>
      </trkpt>
      <trkpt lat="41.065021" lon="-3.415721">
        <ele>1367.901</ele>
        <time>2016-07-20T17:45:22Z</time>
      </trkpt>
      <trkpt lat="41.064896" lon="-3.415619">
        <ele>1369.321</ele>
        <time>2016-07-20T17:45:24Z</time>
      </trkpt>
      <trkpt lat="41.064762" lon="-3.415467">
        <ele>1370.408</ele>
        <time>2016-07-20T17:45:26Z</time>
      </trkpt>
      <trkpt lat="41.064702" lon="-3.415360">
        <ele>1370.514</ele>
        <time>2016-07-20T17:45:27Z</time>
      </trkpt>
      <trkpt lat="41.064639" lon="-3.415246">
        <ele>1370.567</ele>
        <time>2016-07-20T17:45:28Z</time>
      </trkpt>
      <trkpt lat="41.064584" lon="-3.415117">
        <ele>1371.183</ele>
        <time>2016-07-20T17:45:29Z</time>
      </trkpt>
      <trkpt lat="41.064529" lon="-3.414985">
        <ele>1372.439</ele>
        <time>2016-07-20T17:45:30Z</time>
      </trkpt>
      <trkpt lat="41.064478" lon="-3.414853">
        <ele>1374.194</ele>
        <time>2016-07-20T17:45:31Z</time>
      </trkpt>
      <trkpt lat="41.064422" lon="-3.414719">
        <ele>1375.947</ele>
        <time>2016-07-20T17:45:32Z</time>
      </trkpt>
      <trkpt lat="41.064372" lon="-3.414592">
        <ele>1377.467</ele>
        <time>2016-07-20T17:45:33Z</time>
      </trkpt>
      <trkpt lat="41.064319" lon="-3.414473">
        <ele>1378.355</ele>
        <time>2016-07-20T17:45:34Z</time>
      </trkpt>
      <trkpt lat="41.064264" lon="-3.414353">
        <ele>1379.061</ele>
        <time>2016-07-20T17:45:36Z</time>
      </trkpt>
      <trkpt lat="41.064198" lon="-3.414233">
        <ele>1379.421</ele>
        <time>2016-07-20T17:45:36Z</time>
      </trkpt>
      <trkpt lat="41.064128" lon="-3.414107">
        <ele>1379.713</ele>
        <time>2016-07-20T17:45:37Z</time>
      </trkpt>
      <trkpt lat="41.064045" lon="-3.413998">
        <ele>1379.708</ele>
        <time>2016-07-20T17:45:38Z</time>
      </trkpt>
      <trkpt lat="41.063985" lon="-3.413879">
        <ele>1379.897</ele>
        <time>2016-07-20T17:45:39Z</time>
      </trkpt>
      <trkpt lat="41.063920" lon="-3.413772">
        <ele>1380.970</ele>
        <time>2016-07-20T17:45:40Z</time>
      </trkpt>
      <trkpt lat="41.063861" lon="-3.413658">
        <ele>1381.826</ele>
        <time>2016-07-20T17:45:41Z</time>
      </trkpt>
      <trkpt lat="41.063795" lon="-3.413545">
        <ele>1382.342</ele>
        <time>2016-07-20T17:45:42Z</time>
      </trkpt>
      <trkpt lat="41.063729" lon="-3.413432">
        <ele>1382.347</ele>
        <time>2016-07-20T17:45:43Z</time>
      </trkpt>
      <trkpt lat="41.063658" lon="-3.413331">
        <ele>1381.840</ele>
        <time>2016-07-20T17:45:44Z</time>
      </trkpt>
      <trkpt lat="41.063524" lon="-3.413190">
        <ele>1382.370</ele>
        <time>2016-07-20T17:45:46Z</time>
      </trkpt>
      <trkpt lat="41.063440" lon="-3.413135">
        <ele>1382.448</ele>
        <time>2016-07-20T17:45:47Z</time>
      </trkpt>
      <trkpt lat="41.063301" lon="-3.413057">
        <ele>1382.298</ele>
        <time>2016-07-20T17:45:49Z</time>
      </trkpt>
      <trkpt lat="41.063169" lon="-3.412982">
        <ele>1383.115</ele>
        <time>2016-07-20T17:45:51Z</time>
      </trkpt>
      <trkpt lat="41.063042" lon="-3.412856">
        <ele>1385.826</ele>
        <time>2016-07-20T17:45:54Z</time>
      </trkpt>
      <trkpt lat="41.062962" lon="-3.412673">
        <ele>1388.508</ele>
        <time>2016-07-20T17:45:56Z</time>
      </trkpt>
      <trkpt lat="41.062889" lon="-3.412471">
        <ele>1390.920</ele>
        <time>2016-07-20T17:45:58Z</time>
      </trkpt>
      <trkpt lat="41.062848" lon="-3.412363">
        <ele>1392.123</ele>
        <time>2016-07-20T17:45:59Z</time>
      </trkpt>
      <trkpt lat="41.062781" lon="-3.412151">
        <ele>1393.169</ele>
        <time>2016-07-20T17:46:01Z</time>
      </trkpt>
      <trkpt lat="41.062753" lon="-3.412029">
        <ele>1393.415</ele>
        <time>2016-07-20T17:46:02Z</time>
      </trkpt>
      <trkpt lat="41.062725" lon="-3.411893">
        <ele>1394.180</ele>
        <time>2016-07-20T17:46:03Z</time>
      </trkpt>
      <trkpt lat="41.062721" lon="-3.411770">
        <ele>1395.623</ele>
        <time>2016-07-20T17:46:04Z</time>
      </trkpt>
      <trkpt lat="41.062655" lon="-3.411553">
        <ele>1397.583</ele>
        <time>2016-07-20T17:46:06Z</time>
      </trkpt>
      <trkpt lat="41.062607" lon="-3.411415">
        <ele>1397.891</ele>
        <time>2016-07-20T17:46:07Z</time>
      </trkpt>
      <trkpt lat="41.062561" lon="-3.411283">
        <ele>1397.819</ele>
        <time>2016-07-20T17:46:08Z</time>
      </trkpt>
      <trkpt lat="41.062513" lon="-3.411165">
        <ele>1397.609</ele>
        <time>2016-07-20T17:46:09Z</time>
      </trkpt>
      <trkpt lat="41.062463" lon="-3.411058">
        <ele>1397.319</ele>
        <time>2016-07-20T17:46:10Z</time>
      </trkpt>
      <trkpt lat="41.062407" lon="-3.410956">
        <ele>1397.808</ele>
        <time>2016-07-20T17:46:11Z</time>
      </trkpt>
      <trkpt lat="41.062348" lon="-3.410849">
        <ele>1398.412</ele>
        <time>2016-07-20T17:46:12Z</time>
      </trkpt>
      <trkpt lat="41.062286" lon="-3.410755">
        <ele>1398.945</ele>
        <time>2016-07-20T17:46:13Z</time>
      </trkpt>
      <trkpt lat="41.062146" lon="-3.410632">
        <ele>1397.841</ele>
        <time>2016-07-20T17:46:15Z</time>
      </trkpt>
      <trkpt lat="41.061995" lon="-3.410576">
        <ele>1396.047</ele>
        <time>2016-07-20T17:46:17Z</time>
      </trkpt>
      <trkpt lat="41.061897" lon="-3.410599">
        <ele>1396.092</ele>
        <time>2016-07-20T17:46:18Z</time>
      </trkpt>
      <trkpt lat="41.061751" lon="-3.410647">
        <ele>1395.025</ele>
        <time>2016-07-20T17:46:20Z</time>
      </trkpt>
      <trkpt lat="41.061609" lon="-3.410699">
        <ele>1394.775</ele>
        <time>2016-07-20T17:46:22Z</time>
      </trkpt>
      <trkpt lat="41.061483" lon="-3.410671">
        <ele>1396.993</ele>
        <time>2016-07-20T17:46:24Z</time>
      </trkpt>
      <trkpt lat="41.061319" lon="-3.410563">
        <ele>1399.261</ele>
        <time>2016-07-20T17:46:26Z</time>
      </trkpt>
      <trkpt lat="41.061236" lon="-3.410492">
        <ele>1399.621</ele>
        <time>2016-07-20T17:46:27Z</time>
      </trkpt>
      <trkpt lat="41.061147" lon="-3.410297">
        <ele>1401.313</ele>
        <time>2016-07-20T17:46:29Z</time>
      </trkpt>
      <trkpt lat="41.061099" lon="-3.410191">
        <ele>1402.608</ele>
        <time>2016-07-20T17:46:30Z</time>
      </trkpt>
      <trkpt lat="41.061052" lon="-3.410070">
        <ele>1403.857</ele>
        <time>2016-07-20T17:46:31Z</time>
      </trkpt>
      <trkpt lat="41.060997" lon="-3.409946">
        <ele>1404.930</ele>
        <time>2016-07-20T17:46:32Z</time>
      </trkpt>
      <trkpt lat="41.060944" lon="-3.409820">
        <ele>1406.896</ele>
        <time>2016-07-20T17:46:33Z</time>
      </trkpt>
      <trkpt lat="41.060885" lon="-3.409691">
        <ele>1408.452</ele>
        <time>2016-07-20T17:46:34Z</time>
      </trkpt>
      <trkpt lat="41.060821" lon="-3.409565">
        <ele>1410.457</ele>
        <time>2016-07-20T17:46:35Z</time>
      </trkpt>
      <trkpt lat="41.060759" lon="-3.409447">
        <ele>1412.420</ele>
        <time>2016-07-20T17:46:36Z</time>
      </trkpt>
      <trkpt lat="41.060693" lon="-3.409321">
        <ele>1413.660</ele>
        <time>2016-07-20T17:46:37Z</time>
      </trkpt>
      <trkpt lat="41.060643" lon="-3.409195">
        <ele>1414.948</ele>
        <time>2016-07-20T17:46:38Z</time>
      </trkpt>
      <trkpt lat="41.060596" lon="-3.409064">
        <ele>1416.232</ele>
        <time>2016-07-20T17:46:39Z</time>
      </trkpt>
      <trkpt lat="41.060573" lon="-3.408926">
        <ele>1417.492</ele>
        <time>2016-07-20T17:46:40Z</time>
      </trkpt>
      <trkpt lat="41.060569" lon="-3.408778">
        <ele>1418.311</ele>
        <time>2016-07-20T17:46:41Z</time>
      </trkpt>
      <trkpt lat="41.060558" lon="-3.408632">
        <ele>1418.708</ele>
        <time>2016-07-20T17:46:42Z</time>
      </trkpt>
      <trkpt lat="41.060544" lon="-3.408497">
        <ele>1419.054</ele>
        <time>2016-07-20T17:46:43Z</time>
      </trkpt>
      <trkpt lat="41.060526" lon="-3.408369">
        <ele>1420.067</ele>
        <time>2016-07-20T17:46:44Z</time>
      </trkpt>
      <trkpt lat="41.060510" lon="-3.408242">
        <ele>1421.253</ele>
        <time>2016-07-20T17:46:45Z</time>
      </trkpt>
      <trkpt lat="41.060500" lon="-3.408116">
        <ele>1422.389</ele>
        <time>2016-07-20T17:46:46Z</time>
      </trkpt>
      <trkpt lat="41.060494" lon="-3.407995">
        <ele>1423.464</ele>
        <time>2016-07-20T17:46:47Z</time>
      </trkpt>
      <trkpt lat="41.060504" lon="-3.407763">
        <ele>1423.557</ele>
        <time>2016-07-20T17:46:49Z</time>
      </trkpt>
      <trkpt lat="41.060524" lon="-3.407545">
        <ele>1425.817</ele>
        <time>2016-07-20T17:46:51Z</time>
      </trkpt>
      <trkpt lat="41.060485" lon="-3.407352">
        <ele>1428.195</ele>
        <time>2016-07-20T17:46:53Z</time>
      </trkpt>
      <trkpt lat="41.060412" lon="-3.407189">
        <ele>1430.159</ele>
        <time>2016-07-20T17:46:55Z</time>
      </trkpt>
      <trkpt lat="41.060267" lon="-3.407201">
        <ele>1431.903</ele>
        <time>2016-07-20T17:46:57Z</time>
      </trkpt>
      <trkpt lat="41.060147" lon="-3.407271">
        <ele>1433.723</ele>
        <time>2016-07-20T17:46:59Z</time>
      </trkpt>
      <trkpt lat="41.059948" lon="-3.407381">
        <ele>1433.508</ele>
        <time>2016-07-20T17:47:01Z</time>
      </trkpt>
      <trkpt lat="41.059827" lon="-3.407454">
        <ele>1433.356</ele>
        <time>2016-07-20T17:47:03Z</time>
      </trkpt>
      <trkpt lat="41.059714" lon="-3.407539">
        <ele>1433.799</ele>
        <time>2016-07-20T17:47:05Z</time>
      </trkpt>
      <trkpt lat="41.059607" lon="-3.407635">
        <ele>1435.085</ele>
        <time>2016-07-20T17:47:07Z</time>
      </trkpt>
      <trkpt lat="41.059492" lon="-3.407764">
        <ele>1435.771</ele>
        <time>2016-07-20T17:47:09Z</time>
      </trkpt>
      <trkpt lat="41.059383" lon="-3.407916">
        <ele>1436.396</ele>
        <time>2016-07-20T17:47:11Z</time>
      </trkpt>
      <trkpt lat="41.059260" lon="-3.408074">
        <ele>1437.689</ele>
        <time>2016-07-20T17:47:13Z</time>
      </trkpt>
      <trkpt lat="41.059121" lon="-3.408177">
        <ele>1440.659</ele>
        <time>2016-07-20T17:47:15Z</time>
      </trkpt>
      <trkpt lat="41.058988" lon="-3.408263">
        <ele>1440.947</ele>
        <time>2016-07-20T17:47:17Z</time>
      </trkpt>
      <trkpt lat="41.058899" lon="-3.408310">
        <ele>1440.783</ele>
        <time>2016-07-20T17:47:18Z</time>
      </trkpt>
      <trkpt lat="41.058752" lon="-3.408396">
        <ele>1441.325</ele>
        <time>2016-07-20T17:47:20Z</time>
      </trkpt>
      <trkpt lat="41.058610" lon="-3.408485">
        <ele>1441.217</ele>
        <time>2016-07-20T17:47:22Z</time>
      </trkpt>
      <trkpt lat="41.058459" lon="-3.408588">
        <ele>1441.008</ele>
        <time>2016-07-20T17:47:24Z</time>
      </trkpt>
      <trkpt lat="41.058353" lon="-3.408671">
        <ele>1441.799</ele>
        <time>2016-07-20T17:47:27Z</time>
      </trkpt>
      <trkpt lat="41.058255" lon="-3.408733">
        <ele>1442.182</ele>
        <time>2016-07-20T17:47:29Z</time>
      </trkpt>
      <trkpt lat="41.058155" lon="-3.408794">
        <ele>1442.618</ele>
        <time>2016-07-20T17:47:31Z</time>
      </trkpt>
      <trkpt lat="41.058047" lon="-3.408812">
        <ele>1444.514</ele>
        <time>2016-07-20T17:47:33Z</time>
      </trkpt>
      <trkpt lat="41.057975" lon="-3.408732">
        <ele>1445.189</ele>
        <time>2016-07-20T17:47:35Z</time>
      </trkpt>
      <trkpt lat="41.057922" lon="-3.408604">
        <ele>1446.042</ele>
        <time>2016-07-20T17:47:37Z</time>
      </trkpt>
      <trkpt lat="41.057872" lon="-3.408462">
        <ele>1447.462</ele>
        <time>2016-07-20T17:47:40Z</time>
      </trkpt>
      <trkpt lat="41.057817" lon="-3.408326">
        <ele>1449.280</ele>
        <time>2016-07-20T17:47:42Z</time>
      </trkpt>
      <trkpt lat="41.057713" lon="-3.408153">
        <ele>1451.048</ele>
        <time>2016-07-20T17:47:44Z</time>
      </trkpt>
      <trkpt lat="41.057641" lon="-3.408068">
        <ele>1451.561</ele>
        <time>2016-07-20T17:47:45Z</time>
      </trkpt>
      <trkpt lat="41.057563" lon="-3.407974">
        <ele>1452.017</ele>
        <time>2016-07-20T17:47:46Z</time>
      </trkpt>
      <trkpt lat="41.057489" lon="-3.407880">
        <ele>1452.408</ele>
        <time>2016-07-20T17:47:47Z</time>
      </trkpt>
      <trkpt lat="41.057416" lon="-3.407787">
        <ele>1452.855</ele>
        <time>2016-07-20T17:47:48Z</time>
      </trkpt>
      <trkpt lat="41.057333" lon="-3.407684">
        <ele>1453.648</ele>
        <time>2016-07-20T17:47:49Z</time>
      </trkpt>
      <trkpt lat="41.057252" lon="-3.407586">
        <ele>1454.364</ele>
        <time>2016-07-20T17:47:50Z</time>
      </trkpt>
      <trkpt lat="41.057171" lon="-3.407500">
        <ele>1454.860</ele>
        <time>2016-07-20T17:47:51Z</time>
      </trkpt>
      <trkpt lat="41.057090" lon="-3.407416">
        <ele>1455.055</ele>
        <time>2016-07-20T17:47:52Z</time>
      </trkpt>
      <trkpt lat="41.057006" lon="-3.407327">
        <ele>1455.068</ele>
        <time>2016-07-20T17:47:53Z</time>
      </trkpt>
      <trkpt lat="41.056930" lon="-3.407239">
        <ele>1455.018</ele>
        <time>2016-07-20T17:47:54Z</time>
      </trkpt>
      <trkpt lat="41.056851" lon="-3.407150">
        <ele>1454.876</ele>
        <time>2016-07-20T17:47:55Z</time>
      </trkpt>
      <trkpt lat="41.056773" lon="-3.407064">
        <ele>1454.835</ele>
        <time>2016-07-20T17:47:56Z</time>
      </trkpt>
      <trkpt lat="41.056702" lon="-3.406983">
        <ele>1454.986</ele>
        <time>2016-07-20T17:47:57Z</time>
      </trkpt>
      <trkpt lat="41.056578" lon="-3.406805">
        <ele>1455.414</ele>
        <time>2016-07-20T17:47:59Z</time>
      </trkpt>
      <trkpt lat="41.056520" lon="-3.406706">
        <ele>1455.708</ele>
        <time>2016-07-20T17:48:00Z</time>
      </trkpt>
      <trkpt lat="41.056480" lon="-3.406597">
        <ele>1456.754</ele>
        <time>2016-07-20T17:48:01Z</time>
      </trkpt>
      <trkpt lat="41.056393" lon="-3.406386">
        <ele>1459.897</ele>
        <time>2016-07-20T17:48:03Z</time>
      </trkpt>
      <trkpt lat="41.056281" lon="-3.406263">
        <ele>1462.763</ele>
        <time>2016-07-20T17:48:05Z</time>
      </trkpt>
      <trkpt lat="41.056169" lon="-3.406163">
        <ele>1463.549</ele>
        <time>2016-07-20T17:48:07Z</time>
      </trkpt>
      <trkpt lat="41.056049" lon="-3.406076">
        <ele>1462.744</ele>
        <time>2016-07-20T17:48:09Z</time>
      </trkpt>
      <trkpt lat="41.055942" lon="-3.405964">
        <ele>1461.177</ele>
        <time>2016-07-20T17:48:11Z</time>
      </trkpt>
      <trkpt lat="41.055831" lon="-3.405825">
        <ele>1459.567</ele>
        <time>2016-07-20T17:48:13Z</time>
      </trkpt>
      <trkpt lat="41.055736" lon="-3.405683">
        <ele>1458.785</ele>
        <time>2016-07-20T17:48:15Z</time>
      </trkpt>
      <trkpt lat="41.055703" lon="-3.405534">
        <ele>1460.069</ele>
        <time>2016-07-20T17:48:17Z</time>
      </trkpt>
      <trkpt lat="41.055720" lon="-3.405342">
        <ele>1462.204</ele>
        <time>2016-07-20T17:48:19Z</time>
      </trkpt>
      <trkpt lat="41.055766" lon="-3.405136">
        <ele>1464.324</ele>
        <time>2016-07-20T17:48:21Z</time>
      </trkpt>
      <trkpt lat="41.055757" lon="-3.404935">
        <ele>1466.908</ele>
        <time>2016-07-20T17:48:23Z</time>
      </trkpt>
      <trkpt lat="41.055747" lon="-3.404782">
        <ele>1469.457</ele>
        <time>2016-07-20T17:48:25Z</time>
      </trkpt>
      <trkpt lat="41.055661" lon="-3.404704">
        <ele>1469.690</ele>
        <time>2016-07-20T17:48:28Z</time>
      </trkpt>
      <trkpt lat="41.055516" lon="-3.404629">
        <ele>1470.926</ele>
        <time>2016-07-20T17:48:31Z</time>
      </trkpt>
      <trkpt lat="41.055339" lon="-3.404499">
        <ele>1471.362</ele>
        <time>2016-07-20T17:48:33Z</time>
      </trkpt>
      <trkpt lat="41.055260" lon="-3.404442">
        <ele>1471.287</ele>
        <time>2016-07-20T17:48:34Z</time>
      </trkpt>
      <trkpt lat="41.055119" lon="-3.404328">
        <ele>1470.460</ele>
        <time>2016-07-20T17:48:36Z</time>
      </trkpt>
      <trkpt lat="41.055040" lon="-3.404266">
        <ele>1471.050</ele>
        <time>2016-07-20T17:48:37Z</time>
      </trkpt>
      <trkpt lat="41.054958" lon="-3.404213">
        <ele>1472.098</ele>
        <time>2016-07-20T17:48:38Z</time>
      </trkpt>
      <trkpt lat="41.054811" lon="-3.404135">
        <ele>1473.432</ele>
        <time>2016-07-20T17:48:40Z</time>
      </trkpt>
      <trkpt lat="41.054721" lon="-3.404103">
        <ele>1473.692</ele>
        <time>2016-07-20T17:48:42Z</time>
      </trkpt>
      <trkpt lat="41.054648" lon="-3.404011">
        <ele>1476.811</ele>
        <time>2016-07-20T17:49:12Z</time>
      </trkpt>
      <trkpt lat="41.054541" lon="-3.403917">
        <ele>1478.108</ele>
        <time>2016-07-20T17:49:15Z</time>
      </trkpt>
      <trkpt lat="41.054445" lon="-3.403816">
        <ele>1477.284</ele>
        <time>2016-07-20T17:49:17Z</time>
      </trkpt>
      <trkpt lat="41.054335" lon="-3.403694">
        <ele>1477.757</ele>
        <time>2016-07-20T17:49:19Z</time>
      </trkpt>
      <trkpt lat="41.054246" lon="-3.403548">
        <ele>1477.643</ele>
        <time>2016-07-20T17:49:21Z</time>
      </trkpt>
      <trkpt lat="41.054154" lon="-3.403356">
        <ele>1478.499</ele>
        <time>2016-07-20T17:49:23Z</time>
      </trkpt>
      <trkpt lat="41.054038" lon="-3.403173">
        <ele>1479.064</ele>
        <time>2016-07-20T17:49:25Z</time>
      </trkpt>
      <trkpt lat="41.053910" lon="-3.403006">
        <ele>1480.217</ele>
        <time>2016-07-20T17:49:27Z</time>
      </trkpt>
      <trkpt lat="41.053841" lon="-3.402921">
        <ele>1481.197</ele>
        <time>2016-07-20T17:49:28Z</time>
      </trkpt>
      <trkpt lat="41.053775" lon="-3.402835">
        <ele>1482.655</ele>
        <time>2016-07-20T17:49:29Z</time>
      </trkpt>
      <trkpt lat="41.053712" lon="-3.402746">
        <ele>1484.474</ele>
        <time>2016-07-20T17:49:30Z</time>
      </trkpt>
      <trkpt lat="41.053648" lon="-3.402650">
        <ele>1486.056</ele>
        <time>2016-07-20T17:49:31Z</time>
      </trkpt>
      <trkpt lat="41.053572" lon="-3.402566">
        <ele>1487.321</ele>
        <time>2016-07-20T17:49:32Z</time>
      </trkpt>
      <trkpt lat="41.053504" lon="-3.402486">
        <ele>1488.008</ele>
        <time>2016-07-20T17:49:33Z</time>
      </trkpt>
      <trkpt lat="41.053441" lon="-3.402399">
        <ele>1488.428</ele>
        <time>2016-07-20T17:49:34Z</time>
      </trkpt>
      <trkpt lat="41.053384" lon="-3.402298">
        <ele>1488.841</ele>
        <time>2016-07-20T17:49:35Z</time>
      </trkpt>
      <trkpt lat="41.053279" lon="-3.402103">
        <ele>1490.357</ele>
        <time>2016-07-20T17:49:37Z</time>
      </trkpt>
      <trkpt lat="41.053210" lon="-3.401991">
        <ele>1491.343</ele>
        <time>2016-07-20T17:49:38Z</time>
      </trkpt>
      <trkpt lat="41.053131" lon="-3.401875">
        <ele>1491.738</ele>
        <time>2016-07-20T17:49:39Z</time>
      </trkpt>
      <trkpt lat="41.053045" lon="-3.401763">
        <ele>1491.921</ele>
        <time>2016-07-20T17:49:40Z</time>
      </trkpt>
      <trkpt lat="41.052992" lon="-3.401659">
        <ele>1491.881</ele>
        <time>2016-07-20T17:49:41Z</time>
      </trkpt>
      <trkpt lat="41.052937" lon="-3.401551">
        <ele>1491.539</ele>
        <time>2016-07-20T17:49:42Z</time>
      </trkpt>
      <trkpt lat="41.052880" lon="-3.401442">
        <ele>1491.412</ele>
        <time>2016-07-20T17:49:43Z</time>
      </trkpt>
      <trkpt lat="41.052826" lon="-3.401339">
        <ele>1490.832</ele>
        <time>2016-07-20T17:49:44Z</time>
      </trkpt>
      <trkpt lat="41.052691" lon="-3.401049">
        <ele>1487.505</ele>
        <time>2016-07-20T17:49:46Z</time>
      </trkpt>
      <trkpt lat="41.052636" lon="-3.400952">
        <ele>1486.008</ele>
        <time>2016-07-20T17:49:47Z</time>
      </trkpt>
      <trkpt lat="41.052498" lon="-3.400779">
        <ele>1484.822</ele>
        <time>2016-07-20T17:49:49Z</time>
      </trkpt>
      <trkpt lat="41.052415" lon="-3.400695">
        <ele>1484.855</ele>
        <time>2016-07-20T17:49:50Z</time>
      </trkpt>
      <trkpt lat="41.052320" lon="-3.400613">
        <ele>1485.061</ele>
        <time>2016-07-20T17:49:51Z</time>
      </trkpt>
      <trkpt lat="41.052238" lon="-3.400528">
        <ele>1485.047</ele>
        <time>2016-07-20T17:49:52Z</time>
      </trkpt>
      <trkpt lat="41.052169" lon="-3.400447">
        <ele>1485.322</ele>
        <time>2016-07-20T17:49:53Z</time>
      </trkpt>
      <trkpt lat="41.052100" lon="-3.400364">
        <ele>1485.615</ele>
        <time>2016-07-20T17:49:54Z</time>
      </trkpt>
      <trkpt lat="41.051973" lon="-3.400216">
        <ele>1486.285</ele>
        <time>2016-07-20T17:49:56Z</time>
      </trkpt>
      <trkpt lat="41.051845" lon="-3.400099">
        <ele>1485.833</ele>
        <time>2016-07-20T17:49:58Z</time>
      </trkpt>
      <trkpt lat="41.051720" lon="-3.400009">
        <ele>1484.131</ele>
        <time>2016-07-20T17:50:00Z</time>
      </trkpt>
      <trkpt lat="41.051560" lon="-3.399927">
        <ele>1480.861</ele>
        <time>2016-07-20T17:50:02Z</time>
      </trkpt>
      <trkpt lat="41.051403" lon="-3.399862">
        <ele>1475.707</ele>
        <time>2016-07-20T17:50:04Z</time>
      </trkpt>
      <trkpt lat="41.051242" lon="-3.399818">
        <ele>1471.808</ele>
        <time>2016-07-20T17:50:06Z</time>
      </trkpt>
      <trkpt lat="41.051094" lon="-3.399770">
        <ele>1468.264</ele>
        <time>2016-07-20T17:50:08Z</time>
      </trkpt>
      <trkpt lat="41.050971" lon="-3.399680">
        <ele>1465.587</ele>
        <time>2016-07-20T17:50:10Z</time>
      </trkpt>
      <trkpt lat="41.050847" lon="-3.399577">
        <ele>1463.923</ele>
        <time>2016-07-20T17:50:12Z</time>
      </trkpt>
      <trkpt lat="41.050757" lon="-3.399489">
        <ele>1463.729</ele>
        <time>2016-07-20T17:50:14Z</time>
      </trkpt>
      <trkpt lat="41.050665" lon="-3.399392">
        <ele>1464.014</ele>
        <time>2016-07-20T17:50:17Z</time>
      </trkpt>
      <trkpt lat="41.050570" lon="-3.399304">
        <ele>1465.977</ele>
        <time>2016-07-20T17:50:52Z</time>
      </trkpt>
      <trkpt lat="41.050483" lon="-3.399208">
        <ele>1470.427</ele>
        <time>2016-07-20T17:50:55Z</time>
      </trkpt>
      <trkpt lat="41.050421" lon="-3.399098">
        <ele>1477.115</ele>
        <time>2016-07-20T17:50:58Z</time>
      </trkpt>
      <trkpt lat="41.050373" lon="-3.398980">
        <ele>1482.629</ele>
        <time>2016-07-20T17:51:00Z</time>
      </trkpt>
      <trkpt lat="41.050332" lon="-3.398852">
        <ele>1486.300</ele>
        <time>2016-07-20T17:51:02Z</time>
      </trkpt>
      <trkpt lat="41.050286" lon="-3.398715">
        <ele>1487.620</ele>
        <time>2016-07-20T17:51:04Z</time>
      </trkpt>
      <trkpt lat="41.050234" lon="-3.398581">
        <ele>1486.508</ele>
        <time>2016-07-20T17:51:06Z</time>
      </trkpt>
      <trkpt lat="41.050166" lon="-3.398438">
        <ele>1484.583</ele>
        <time>2016-07-20T17:51:08Z</time>
      </trkpt>
      <trkpt lat="41.050097" lon="-3.398318">
        <ele>1483.796</ele>
        <time>2016-07-20T17:51:10Z</time>
      </trkpt>
      <trkpt lat="41.050043" lon="-3.398216">
        <ele>1484.032</ele>
        <time>2016-07-20T17:51:12Z</time>
      </trkpt>
      <trkpt lat="41.050006" lon="-3.398079">
        <ele>1483.698</ele>
        <time>2016-07-20T17:51:15Z</time>
      </trkpt>
      <trkpt lat="41.049979" lon="-3.397966">
        <ele>1483.553</ele>
        <time>2016-07-20T17:51:17Z</time>
      </trkpt>
      <trkpt lat="41.049961" lon="-3.397841">
        <ele>1474.516</ele>
        <time>2016-07-20T17:52:39Z</time>
      </trkpt>
      <trkpt lat="41.049928" lon="-3.397724">
        <ele>1473.846</ele>
        <time>2016-07-20T17:52:46Z</time>
      </trkpt>
      <trkpt lat="41.049904" lon="-3.397609">
        <ele>1473.514</ele>
        <time>2016-07-20T17:52:56Z</time>
      </trkpt>
      <trkpt lat="41.049863" lon="-3.397503">
        <ele>1473.571</ele>
        <time>2016-07-20T17:53:09Z</time>
      </trkpt>
      <trkpt lat="41.049936" lon="-3.397431">
        <ele>1473.641</ele>
        <time>2016-07-20T17:53:31Z</time>
      </trkpt>
      <trkpt lat="41.049868" lon="-3.397527">
        <ele>1471.515</ele>
        <time>2016-07-20T17:55:41Z</time>
      </trkpt>
      <trkpt lat="41.049840" lon="-3.397672">
        <ele>1474.308</ele>
        <time>2016-07-20T17:55:53Z</time>
      </trkpt>
      <trkpt lat="41.049853" lon="-3.397790">
        <ele>1475.858</ele>
        <time>2016-07-20T17:56:02Z</time>
      </trkpt>
      <trkpt lat="41.049902" lon="-3.397894">
        <ele>1475.961</ele>
        <time>2016-07-20T17:56:13Z</time>
      </trkpt>
      <trkpt lat="41.049999" lon="-3.397850">
        <ele>1474.597</ele>
        <time>2016-07-20T17:56:23Z</time>
      </trkpt>
      <trkpt lat="41.050023" lon="-3.397730">
        <ele>1473.083</ele>
        <time>2016-07-20T17:56:49Z</time>
      </trkpt>
      <trkpt lat="41.050032" lon="-3.397606">
        <ele>1474.288</ele>
        <time>2016-07-20T17:57:20Z</time>
      </trkpt>
      <trkpt lat="41.050026" lon="-3.397471">
        <ele>1474.851</ele>
        <time>2016-07-20T17:57:33Z</time>
      </trkpt>
      <trkpt lat="41.050118" lon="-3.397438">
        <ele>1476.921</ele>
        <time>2016-07-20T17:57:44Z</time>
      </trkpt>
      <trkpt lat="41.050014" lon="-3.397390">
        <ele>1474.339</ele>
        <time>2016-07-20T17:58:24Z</time>
      </trkpt>
      <trkpt lat="41.050105" lon="-3.397410">
        <ele>1468.129</ele>
        <time>2016-07-20T18:02:17Z</time>
      </trkpt>
      <trkpt lat="41.050029" lon="-3.397341">
        <ele>1466.800</ele>
        <time>2016-07-20T18:03:18Z</time>
      </trkpt>
      <trkpt lat="41.049939" lon="-3.397313">
        <ele>1463.720</ele>
        <time>2016-07-20T18:04:49Z</time>
      </trkpt>
      <trkpt lat="41.049909" lon="-3.397426">
        <ele>1467.108</ele>
        <time>2016-07-20T18:05:58Z</time>
      </trkpt>
      <trkpt lat="41.049983" lon="-3.397345">
        <ele>1468.523</ele>
        <time>2016-07-20T18:06:21Z</time>
      </trkpt>
      <trkpt lat="41.050108" lon="-3.397301">
        <ele>1469.596</ele>
        <time>2016-07-20T18:06:53Z</time>
      </trkpt>
      <trkpt lat="41.050021" lon="-3.397365">
        <ele>1470.372</ele>
        <time>2016-07-20T18:07:02Z</time>
      </trkpt>
      <trkpt lat="41.049951" lon="-3.397439">
        <ele>1472.298</ele>
        <time>2016-07-20T18:10:29Z</time>
      </trkpt>
      <trkpt lat="41.049829" lon="-3.397538">
        <ele>1467.583</ele>
        <time>2016-07-20T18:13:56Z</time>
      </trkpt>
      <trkpt lat="41.049751" lon="-3.397466">
        <ele>1465.696</ele>
        <time>2016-07-20T18:14:09Z</time>
      </trkpt>
      <trkpt lat="41.049843" lon="-3.397468">
        <ele>1468.236</ele>
        <time>2016-07-20T18:14:37Z</time>
      </trkpt>
      <trkpt lat="41.049934" lon="-3.397502">
        <ele>1473.514</ele>
        <time>2016-07-20T18:14:57Z</time>
      </trkpt>
      <trkpt lat="41.049872" lon="-3.397598">
        <ele>1474.822</ele>
        <time>2016-07-20T18:15:43Z</time>
      </trkpt>
      <trkpt lat="41.049872" lon="-3.397724">
        <ele>1475.762</ele>
        <time>2016-07-20T18:15:56Z</time>
      </trkpt>
      <trkpt lat="41.049867" lon="-3.397844">
        <ele>1475.208</ele>
        <time>2016-07-20T18:16:07Z</time>
      </trkpt>
      <trkpt lat="41.049936" lon="-3.397927">
        <ele>1475.408</ele>
        <time>2016-07-20T18:16:22Z</time>
      </trkpt>
      <trkpt lat="41.049896" lon="-3.397765">
        <ele>1472.643</ele>
        <time>2016-07-20T18:19:30Z</time>
      </trkpt>
      <trkpt lat="41.049870" lon="-3.397647">
        <ele>1473.196</ele>
        <time>2016-07-20T18:19:32Z</time>
      </trkpt>
      <trkpt lat="41.049844" lon="-3.397509">
        <ele>1472.982</ele>
        <time>2016-07-20T18:19:35Z</time>
      </trkpt>
      <trkpt lat="41.049808" lon="-3.397356">
        <ele>1472.698</ele>
        <time>2016-07-20T18:19:39Z</time>
      </trkpt>
      <trkpt lat="41.049771" lon="-3.397232">
        <ele>1471.933</ele>
        <time>2016-07-20T18:19:41Z</time>
      </trkpt>
      <trkpt lat="41.049720" lon="-3.397075">
        <ele>1471.586</ele>
        <time>2016-07-20T18:19:43Z</time>
      </trkpt>
      <trkpt lat="41.049664" lon="-3.396915">
        <ele>1471.296</ele>
        <time>2016-07-20T18:19:45Z</time>
      </trkpt>
      <trkpt lat="41.049593" lon="-3.396776">
        <ele>1471.744</ele>
        <time>2016-07-20T18:19:47Z</time>
      </trkpt>
      <trkpt lat="41.049488" lon="-3.396656">
        <ele>1471.995</ele>
        <time>2016-07-20T18:19:49Z</time>
      </trkpt>
      <trkpt lat="41.049376" lon="-3.396549">
        <ele>1472.449</ele>
        <time>2016-07-20T18:19:51Z</time>
      </trkpt>
      <trkpt lat="41.049274" lon="-3.396447">
        <ele>1472.523</ele>
        <time>2016-07-20T18:19:54Z</time>
      </trkpt>
      <trkpt lat="41.049173" lon="-3.396341">
        <ele>1472.408</ele>
        <time>2016-07-20T18:19:56Z</time>
      </trkpt>
      <trkpt lat="41.049069" lon="-3.396230">
        <ele>1472.310</ele>
        <time>2016-07-20T18:19:58Z</time>
      </trkpt>
      <trkpt lat="41.048962" lon="-3.396116">
        <ele>1473.563</ele>
        <time>2016-07-20T18:20:00Z</time>
      </trkpt>
      <trkpt lat="41.048857" lon="-3.396019">
        <ele>1474.549</ele>
        <time>2016-07-20T18:20:02Z</time>
      </trkpt>
      <trkpt lat="41.048768" lon="-3.395941">
        <ele>1475.325</ele>
        <time>2016-07-20T18:20:04Z</time>
      </trkpt>
      <trkpt lat="41.048693" lon="-3.395866">
        <ele>1475.630</ele>
        <time>2016-07-20T18:20:06Z</time>
      </trkpt>
      <trkpt lat="41.048611" lon="-3.395774">
        <ele>1475.893</ele>
        <time>2016-07-20T18:20:08Z</time>
      </trkpt>
      <trkpt lat="41.048545" lon="-3.395675">
        <ele>1476.713</ele>
        <time>2016-07-20T18:20:10Z</time>
      </trkpt>
      <trkpt lat="41.048448" lon="-3.395464">
        <ele>1478.581</ele>
        <time>2016-07-20T18:20:13Z</time>
      </trkpt>
      <trkpt lat="41.048389" lon="-3.395313">
        <ele>1479.059</ele>
        <time>2016-07-20T18:20:15Z</time>
      </trkpt>
      <trkpt lat="41.048336" lon="-3.395161">
        <ele>1478.303</ele>
        <time>2016-07-20T18:20:17Z</time>
      </trkpt>
      <trkpt lat="41.048296" lon="-3.395032">
        <ele>1477.823</ele>
        <time>2016-07-20T18:20:19Z</time>
      </trkpt>
      <trkpt lat="41.048244" lon="-3.394860">
        <ele>1477.708</ele>
        <time>2016-07-20T18:20:23Z</time>
      </trkpt>
      <trkpt lat="41.048211" lon="-3.394740">
        <ele>1477.786</ele>
        <time>2016-07-20T18:20:26Z</time>
      </trkpt>
      <trkpt lat="41.048168" lon="-3.394596">
        <ele>1479.079</ele>
        <time>2016-07-20T18:20:29Z</time>
      </trkpt>
      <trkpt lat="41.048120" lon="-3.394444">
        <ele>1479.895</ele>
        <time>2016-07-20T18:20:31Z</time>
      </trkpt>
      <trkpt lat="41.048064" lon="-3.394256">
        <ele>1481.011</ele>
        <time>2016-07-20T18:20:33Z</time>
      </trkpt>
      <trkpt lat="41.048006" lon="-3.394077">
        <ele>1481.626</ele>
        <time>2016-07-20T18:20:35Z</time>
      </trkpt>
      <trkpt lat="41.047939" lon="-3.393880">
        <ele>1481.849</ele>
        <time>2016-07-20T18:20:37Z</time>
      </trkpt>
      <trkpt lat="41.047903" lon="-3.393766">
        <ele>1482.419</ele>
        <time>2016-07-20T18:20:38Z</time>
      </trkpt>
      <trkpt lat="41.047844" lon="-3.393566">
        <ele>1482.517</ele>
        <time>2016-07-20T18:20:40Z</time>
      </trkpt>
      <trkpt lat="41.047789" lon="-3.393368">
        <ele>1482.973</ele>
        <time>2016-07-20T18:20:42Z</time>
      </trkpt>
      <trkpt lat="41.047724" lon="-3.393185">
        <ele>1483.885</ele>
        <time>2016-07-20T18:20:44Z</time>
      </trkpt>
      <trkpt lat="41.047645" lon="-3.393016">
        <ele>1485.013</ele>
        <time>2016-07-20T18:20:46Z</time>
      </trkpt>
      <trkpt lat="41.047577" lon="-3.392837">
        <ele>1486.108</ele>
        <time>2016-07-20T18:20:48Z</time>
      </trkpt>
      <trkpt lat="41.047508" lon="-3.392660">
        <ele>1487.778</ele>
        <time>2016-07-20T18:20:50Z</time>
      </trkpt>
      <trkpt lat="41.047460" lon="-3.392458">
        <ele>1488.511</ele>
        <time>2016-07-20T18:20:52Z</time>
      </trkpt>
      <trkpt lat="41.047456" lon="-3.392227">
        <ele>1489.137</ele>
        <time>2016-07-20T18:20:54Z</time>
      </trkpt>
      <trkpt lat="41.047471" lon="-3.392109">
        <ele>1489.283</ele>
        <time>2016-07-20T18:20:55Z</time>
      </trkpt>
      <trkpt lat="41.047485" lon="-3.391897">
        <ele>1489.128</ele>
        <time>2016-07-20T18:20:57Z</time>
      </trkpt>
      <trkpt lat="41.047498" lon="-3.391678">
        <ele>1489.731</ele>
        <time>2016-07-20T18:20:59Z</time>
      </trkpt>
      <trkpt lat="41.047523" lon="-3.391446">
        <ele>1490.031</ele>
        <time>2016-07-20T18:21:01Z</time>
      </trkpt>
      <trkpt lat="41.047548" lon="-3.391311">
        <ele>1490.399</ele>
        <time>2016-07-20T18:21:02Z</time>
      </trkpt>
      <trkpt lat="41.047572" lon="-3.391174">
        <ele>1490.813</ele>
        <time>2016-07-20T18:21:03Z</time>
      </trkpt>
      <trkpt lat="41.047591" lon="-3.391040">
        <ele>1491.243</ele>
        <time>2016-07-20T18:21:04Z</time>
      </trkpt>
      <trkpt lat="41.047606" lon="-3.390908">
        <ele>1491.207</ele>
        <time>2016-07-20T18:21:05Z</time>
      </trkpt>
      <trkpt lat="41.047619" lon="-3.390781">
        <ele>1490.808</ele>
        <time>2016-07-20T18:21:06Z</time>
      </trkpt>
      <trkpt lat="41.047633" lon="-3.390653">
        <ele>1490.472</ele>
        <time>2016-07-20T18:21:07Z</time>
      </trkpt>
      <trkpt lat="41.047648" lon="-3.390531">
        <ele>1489.965</ele>
        <time>2016-07-20T18:21:08Z</time>
      </trkpt>
      <trkpt lat="41.047669" lon="-3.390414">
        <ele>1489.341</ele>
        <time>2016-07-20T18:21:09Z</time>
      </trkpt>
      <trkpt lat="41.047693" lon="-3.390289">
        <ele>1489.167</ele>
        <time>2016-07-20T18:21:10Z</time>
      </trkpt>
      <trkpt lat="41.047727" lon="-3.390160">
        <ele>1489.322</ele>
        <time>2016-07-20T18:21:11Z</time>
      </trkpt>
      <trkpt lat="41.047757" lon="-3.390042">
        <ele>1489.535</ele>
        <time>2016-07-20T18:21:12Z</time>
      </trkpt>
      <trkpt lat="41.047780" lon="-3.389921">
        <ele>1490.075</ele>
        <time>2016-07-20T18:21:13Z</time>
      </trkpt>
      <trkpt lat="41.047796" lon="-3.389681">
        <ele>1490.233</ele>
        <time>2016-07-20T18:21:15Z</time>
      </trkpt>
      <trkpt lat="41.047798" lon="-3.389549">
        <ele>1490.257</ele>
        <time>2016-07-20T18:21:16Z</time>
      </trkpt>
      <trkpt lat="41.047799" lon="-3.389416">
        <ele>1490.100</ele>
        <time>2016-07-20T18:21:17Z</time>
      </trkpt>
      <trkpt lat="41.047806" lon="-3.389289">
        <ele>1490.120</ele>
        <time>2016-07-20T18:21:18Z</time>
      </trkpt>
      <trkpt lat="41.047811" lon="-3.389169">
        <ele>1490.308</ele>
        <time>2016-07-20T18:21:19Z</time>
      </trkpt>
      <trkpt lat="41.047827" lon="-3.388947">
        <ele>1489.476</ele>
        <time>2016-07-20T18:21:21Z</time>
      </trkpt>
      <trkpt lat="41.047822" lon="-3.388711">
        <ele>1488.129</ele>
        <time>2016-07-20T18:21:23Z</time>
      </trkpt>
      <trkpt lat="41.047805" lon="-3.388591">
        <ele>1487.735</ele>
        <time>2016-07-20T18:21:24Z</time>
      </trkpt>
      <trkpt lat="41.047777" lon="-3.388461">
        <ele>1487.771</ele>
        <time>2016-07-20T18:21:25Z</time>
      </trkpt>
      <trkpt lat="41.047752" lon="-3.388346">
        <ele>1487.276</ele>
        <time>2016-07-20T18:21:26Z</time>
      </trkpt>
      <trkpt lat="41.047706" lon="-3.388127">
        <ele>1486.329</ele>
        <time>2016-07-20T18:21:28Z</time>
      </trkpt>
      <trkpt lat="41.047691" lon="-3.387960">
        <ele>1485.499</ele>
        <time>2016-07-20T18:21:30Z</time>
      </trkpt>
      <trkpt lat="41.047713" lon="-3.387839">
        <ele>1485.077</ele>
        <time>2016-07-20T18:21:33Z</time>
      </trkpt>
      <trkpt lat="41.047769" lon="-3.387735">
        <ele>1482.935</ele>
        <time>2016-07-20T18:22:02Z</time>
      </trkpt>
      <trkpt lat="41.047849" lon="-3.387650">
        <ele>1482.186</ele>
        <time>2016-07-20T18:22:04Z</time>
      </trkpt>
      <trkpt lat="41.047938" lon="-3.387570">
        <ele>1481.914</ele>
        <time>2016-07-20T18:22:06Z</time>
      </trkpt>
      <trkpt lat="41.048095" lon="-3.387433">
        <ele>1482.008</ele>
        <time>2016-07-20T18:22:09Z</time>
      </trkpt>
      <trkpt lat="41.048210" lon="-3.387337">
        <ele>1482.184</ele>
        <time>2016-07-20T18:22:11Z</time>
      </trkpt>
      <trkpt lat="41.048330" lon="-3.387250">
        <ele>1481.657</ele>
        <time>2016-07-20T18:22:13Z</time>
      </trkpt>
      <trkpt lat="41.048456" lon="-3.387157">
        <ele>1481.293</ele>
        <time>2016-07-20T18:22:15Z</time>
      </trkpt>
      <trkpt lat="41.048576" lon="-3.387067">
        <ele>1480.889</ele>
        <time>2016-07-20T18:22:17Z</time>
      </trkpt>
      <trkpt lat="41.048714" lon="-3.386961">
        <ele>1479.974</ele>
        <time>2016-07-20T18:22:19Z</time>
      </trkpt>
      <trkpt lat="41.048799" lon="-3.386894">
        <ele>1479.697</ele>
        <time>2016-07-20T18:22:20Z</time>
      </trkpt>
      <trkpt lat="41.048882" lon="-3.386829">
        <ele>1479.367</ele>
        <time>2016-07-20T18:22:21Z</time>
      </trkpt>
      <trkpt lat="41.048971" lon="-3.386769">
        <ele>1478.855</ele>
        <time>2016-07-20T18:22:22Z</time>
      </trkpt>
      <trkpt lat="41.049057" lon="-3.386709">
        <ele>1478.697</ele>
        <time>2016-07-20T18:22:23Z</time>
      </trkpt>
      <trkpt lat="41.049138" lon="-3.386655">
        <ele>1478.523</ele>
        <time>2016-07-20T18:22:24Z</time>
      </trkpt>
      <trkpt lat="41.049222" lon="-3.386599">
        <ele>1478.525</ele>
        <time>2016-07-20T18:22:25Z</time>
      </trkpt>
      <trkpt lat="41.049315" lon="-3.386536">
        <ele>1478.308</ele>
        <time>2016-07-20T18:22:26Z</time>
      </trkpt>
      <trkpt lat="41.049400" lon="-3.386472">
        <ele>1478.070</ele>
        <time>2016-07-20T18:22:27Z</time>
      </trkpt>
      <trkpt lat="41.049490" lon="-3.386402">
        <ele>1477.773</ele>
        <time>2016-07-20T18:22:28Z</time>
      </trkpt>
      <trkpt lat="41.049585" lon="-3.386330">
        <ele>1477.469</ele>
        <time>2016-07-20T18:22:29Z</time>
      </trkpt>
      <trkpt lat="41.049674" lon="-3.386263">
        <ele>1477.375</ele>
        <time>2016-07-20T18:22:30Z</time>
      </trkpt>
      <trkpt lat="41.049768" lon="-3.386191">
        <ele>1477.460</ele>
        <time>2016-07-20T18:22:31Z</time>
      </trkpt>
      <trkpt lat="41.049869" lon="-3.386122">
        <ele>1477.343</ele>
        <time>2016-07-20T18:22:32Z</time>
      </trkpt>
      <trkpt lat="41.049963" lon="-3.386056">
        <ele>1477.283</ele>
        <time>2016-07-20T18:22:33Z</time>
      </trkpt>
      <trkpt lat="41.050058" lon="-3.385989">
        <ele>1477.111</ele>
        <time>2016-07-20T18:22:34Z</time>
      </trkpt>
      <trkpt lat="41.050148" lon="-3.385926">
        <ele>1477.019</ele>
        <time>2016-07-20T18:22:35Z</time>
      </trkpt>
      <trkpt lat="41.050244" lon="-3.385861">
        <ele>1476.709</ele>
        <time>2016-07-20T18:22:36Z</time>
      </trkpt>
      <trkpt lat="41.050338" lon="-3.385793">
        <ele>1476.719</ele>
        <time>2016-07-20T18:22:37Z</time>
      </trkpt>
      <trkpt lat="41.050430" lon="-3.385727">
        <ele>1476.808</ele>
        <time>2016-07-20T18:22:38Z</time>
      </trkpt>
      <trkpt lat="41.050524" lon="-3.385659">
        <ele>1476.682</ele>
        <time>2016-07-20T18:22:39Z</time>
      </trkpt>
      <trkpt lat="41.050618" lon="-3.385591">
        <ele>1476.265</ele>
        <time>2016-07-20T18:22:40Z</time>
      </trkpt>
      <trkpt lat="41.050712" lon="-3.385520">
        <ele>1476.451</ele>
        <time>2016-07-20T18:22:41Z</time>
      </trkpt>
      <trkpt lat="41.050807" lon="-3.385453">
        <ele>1476.277</ele>
        <time>2016-07-20T18:22:42Z</time>
      </trkpt>
      <trkpt lat="41.050902" lon="-3.385385">
        <ele>1475.952</ele>
        <time>2016-07-20T18:22:43Z</time>
      </trkpt>
      <trkpt lat="41.050992" lon="-3.385315">
        <ele>1475.875</ele>
        <time>2016-07-20T18:22:44Z</time>
      </trkpt>
      <trkpt lat="41.051080" lon="-3.385249">
        <ele>1475.575</ele>
        <time>2016-07-20T18:22:45Z</time>
      </trkpt>
      <trkpt lat="41.051175" lon="-3.385182">
        <ele>1475.733</ele>
        <time>2016-07-20T18:22:46Z</time>
      </trkpt>
      <trkpt lat="41.051256" lon="-3.385116">
        <ele>1475.885</ele>
        <time>2016-07-20T18:22:47Z</time>
      </trkpt>
      <trkpt lat="41.051335" lon="-3.385039">
        <ele>1475.589</ele>
        <time>2016-07-20T18:22:48Z</time>
      </trkpt>
      <trkpt lat="41.051405" lon="-3.384955">
        <ele>1475.417</ele>
        <time>2016-07-20T18:22:49Z</time>
      </trkpt>
      <trkpt lat="41.051469" lon="-3.384863">
        <ele>1475.208</ele>
        <time>2016-07-20T18:22:50Z</time>
      </trkpt>
      <trkpt lat="41.051530" lon="-3.384765">
        <ele>1475.069</ele>
        <time>2016-07-20T18:22:51Z</time>
      </trkpt>
      <trkpt lat="41.051619" lon="-3.384568">
        <ele>1474.662</ele>
        <time>2016-07-20T18:22:53Z</time>
      </trkpt>
      <trkpt lat="41.051657" lon="-3.384392">
        <ele>1475.078</ele>
        <time>2016-07-20T18:22:55Z</time>
      </trkpt>
      <trkpt lat="41.051672" lon="-3.384243">
        <ele>1476.644</ele>
        <time>2016-07-20T18:22:57Z</time>
      </trkpt>
      <trkpt lat="41.051689" lon="-3.384084">
        <ele>1478.269</ele>
        <time>2016-07-20T18:22:59Z</time>
      </trkpt>
      <trkpt lat="41.051705" lon="-3.383911">
        <ele>1480.032</ele>
        <time>2016-07-20T18:23:01Z</time>
      </trkpt>
      <trkpt lat="41.051721" lon="-3.383708">
        <ele>1480.832</ele>
        <time>2016-07-20T18:23:03Z</time>
      </trkpt>
      <trkpt lat="41.051742" lon="-3.383499">
        <ele>1480.270</ele>
        <time>2016-07-20T18:23:05Z</time>
      </trkpt>
      <trkpt lat="41.051775" lon="-3.383277">
        <ele>1480.933</ele>
        <time>2016-07-20T18:23:07Z</time>
      </trkpt>
      <trkpt lat="41.051802" lon="-3.383055">
        <ele>1481.623</ele>
        <time>2016-07-20T18:23:09Z</time>
      </trkpt>
      <trkpt lat="41.051815" lon="-3.382932">
        <ele>1482.415</ele>
        <time>2016-07-20T18:23:10Z</time>
      </trkpt>
      <trkpt lat="41.051823" lon="-3.382812">
        <ele>1483.108</ele>
        <time>2016-07-20T18:23:11Z</time>
      </trkpt>
      <trkpt lat="41.051828" lon="-3.382689">
        <ele>1483.814</ele>
        <time>2016-07-20T18:23:12Z</time>
      </trkpt>
      <trkpt lat="41.051830" lon="-3.382468">
        <ele>1484.057</ele>
        <time>2016-07-20T18:23:14Z</time>
      </trkpt>
      <trkpt lat="41.051840" lon="-3.382015">
        <ele>1482.873</ele>
        <time>2016-07-20T18:23:18Z</time>
      </trkpt>
      <trkpt lat="41.051852" lon="-3.381779">
        <ele>1482.339</ele>
        <time>2016-07-20T18:23:20Z</time>
      </trkpt>
      <trkpt lat="41.051868" lon="-3.381547">
        <ele>1481.294</ele>
        <time>2016-07-20T18:23:22Z</time>
      </trkpt>
      <trkpt lat="41.051878" lon="-3.381425">
        <ele>1481.247</ele>
        <time>2016-07-20T18:23:23Z</time>
      </trkpt>
      <trkpt lat="41.051889" lon="-3.381306">
        <ele>1481.167</ele>
        <time>2016-07-20T18:23:24Z</time>
      </trkpt>
      <trkpt lat="41.051899" lon="-3.381186">
        <ele>1481.485</ele>
        <time>2016-07-20T18:23:25Z</time>
      </trkpt>
      <trkpt lat="41.051910" lon="-3.380954">
        <ele>1481.397</ele>
        <time>2016-07-20T18:23:27Z</time>
      </trkpt>
      <trkpt lat="41.051894" lon="-3.380730">
        <ele>1481.623</ele>
        <time>2016-07-20T18:23:29Z</time>
      </trkpt>
      <trkpt lat="41.051868" lon="-3.380511">
        <ele>1483.125</ele>
        <time>2016-07-20T18:23:31Z</time>
      </trkpt>
      <trkpt lat="41.051828" lon="-3.380302">
        <ele>1484.308</ele>
        <time>2016-07-20T18:23:33Z</time>
      </trkpt>
      <trkpt lat="41.051768" lon="-3.380110">
        <ele>1485.460</ele>
        <time>2016-07-20T18:23:36Z</time>
      </trkpt>
      <trkpt lat="41.051711" lon="-3.379911">
        <ele>1486.083</ele>
        <time>2016-07-20T18:23:38Z</time>
      </trkpt>
      <trkpt lat="41.051683" lon="-3.379798">
        <ele>1485.889</ele>
        <time>2016-07-20T18:23:39Z</time>
      </trkpt>
      <trkpt lat="41.051658" lon="-3.379679">
        <ele>1486.365</ele>
        <time>2016-07-20T18:23:40Z</time>
      </trkpt>
      <trkpt lat="41.051629" lon="-3.379561">
        <ele>1486.590</ele>
        <time>2016-07-20T18:23:41Z</time>
      </trkpt>
      <trkpt lat="41.051602" lon="-3.379438">
        <ele>1486.843</ele>
        <time>2016-07-20T18:23:42Z</time>
      </trkpt>
      <trkpt lat="41.051573" lon="-3.379307">
        <ele>1486.823</ele>
        <time>2016-07-20T18:23:43Z</time>
      </trkpt>
      <trkpt lat="41.051541" lon="-3.379185">
        <ele>1487.011</ele>
        <time>2016-07-20T18:23:44Z</time>
      </trkpt>
      <trkpt lat="41.051506" lon="-3.379053">
        <ele>1487.359</ele>
        <time>2016-07-20T18:23:45Z</time>
      </trkpt>
      <trkpt lat="41.051471" lon="-3.378938">
        <ele>1487.103</ele>
        <time>2016-07-20T18:23:46Z</time>
      </trkpt>
      <trkpt lat="41.051430" lon="-3.378817">
        <ele>1486.923</ele>
        <time>2016-07-20T18:23:47Z</time>
      </trkpt>
      <trkpt lat="41.051392" lon="-3.378698">
        <ele>1486.608</ele>
        <time>2016-07-20T18:23:48Z</time>
      </trkpt>
      <trkpt lat="41.051348" lon="-3.378561">
        <ele>1487.026</ele>
        <time>2016-07-20T18:23:49Z</time>
      </trkpt>
      <trkpt lat="41.051304" lon="-3.378438">
        <ele>1487.119</ele>
        <time>2016-07-20T18:23:50Z</time>
      </trkpt>
      <trkpt lat="41.051254" lon="-3.378319">
        <ele>1487.255</ele>
        <time>2016-07-20T18:23:51Z</time>
      </trkpt>
      <trkpt lat="41.051201" lon="-3.378191">
        <ele>1487.451</ele>
        <time>2016-07-20T18:23:52Z</time>
      </trkpt>
      <trkpt lat="41.051107" lon="-3.377959">
        <ele>1487.596</ele>
        <time>2016-07-20T18:23:53Z</time>
      </trkpt>
      <trkpt lat="41.051056" lon="-3.377838">
        <ele>1487.039</ele>
        <time>2016-07-20T18:23:54Z</time>
      </trkpt>
      <trkpt lat="41.051010" lon="-3.377721">
        <ele>1486.649</ele>
        <time>2016-07-20T18:23:55Z</time>
      </trkpt>
      <trkpt lat="41.050963" lon="-3.377592">
        <ele>1486.587</ele>
        <time>2016-07-20T18:23:56Z</time>
      </trkpt>
      <trkpt lat="41.050915" lon="-3.377468">
        <ele>1486.077</ele>
        <time>2016-07-20T18:23:57Z</time>
      </trkpt>
      <trkpt lat="41.050870" lon="-3.377352">
        <ele>1485.661</ele>
        <time>2016-07-20T18:23:58Z</time>
      </trkpt>
      <trkpt lat="41.050822" lon="-3.377229">
        <ele>1484.827</ele>
        <time>2016-07-20T18:23:59Z</time>
      </trkpt>
      <trkpt lat="41.050781" lon="-3.377116">
        <ele>1484.108</ele>
        <time>2016-07-20T18:24:00Z</time>
      </trkpt>
      <trkpt lat="41.050738" lon="-3.377001">
        <ele>1483.058</ele>
        <time>2016-07-20T18:24:01Z</time>
      </trkpt>
      <trkpt lat="41.050692" lon="-3.376881">
        <ele>1482.481</ele>
        <time>2016-07-20T18:24:02Z</time>
      </trkpt>
      <trkpt lat="41.050648" lon="-3.376760">
        <ele>1481.817</ele>
        <time>2016-07-20T18:24:03Z</time>
      </trkpt>
      <trkpt lat="41.050605" lon="-3.376639">
        <ele>1481.113</ele>
        <time>2016-07-20T18:24:04Z</time>
      </trkpt>
      <trkpt lat="41.050557" lon="-3.376517">
        <ele>1480.798</ele>
        <time>2016-07-20T18:24:05Z</time>
      </trkpt>
      <trkpt lat="41.050512" lon="-3.376408">
        <ele>1479.961</ele>
        <time>2016-07-20T18:24:06Z</time>
      </trkpt>
      <trkpt lat="41.050465" lon="-3.376297">
        <ele>1479.671</ele>
        <time>2016-07-20T18:24:07Z</time>
      </trkpt>
      <trkpt lat="41.050429" lon="-3.376188">
        <ele>1479.489</ele>
        <time>2016-07-20T18:24:08Z</time>
      </trkpt>
      <trkpt lat="41.050349" lon="-3.375981">
        <ele>1477.838</ele>
        <time>2016-07-20T18:24:10Z</time>
      </trkpt>
      <trkpt lat="41.050304" lon="-3.375871">
        <ele>1476.770</ele>
        <time>2016-07-20T18:24:11Z</time>
      </trkpt>
      <trkpt lat="41.050262" lon="-3.375757">
        <ele>1475.817</ele>
        <time>2016-07-20T18:24:12Z</time>
      </trkpt>
      <trkpt lat="41.050223" lon="-3.375644">
        <ele>1474.708</ele>
        <time>2016-07-20T18:24:13Z</time>
      </trkpt>
      <trkpt lat="41.050183" lon="-3.375528">
        <ele>1474.594</ele>
        <time>2016-07-20T18:24:14Z</time>
      </trkpt>
      <trkpt lat="41.050142" lon="-3.375411">
        <ele>1474.457</ele>
        <time>2016-07-20T18:24:15Z</time>
      </trkpt>
      <trkpt lat="41.050105" lon="-3.375303">
        <ele>1474.433</ele>
        <time>2016-07-20T18:24:16Z</time>
      </trkpt>
      <trkpt lat="41.050071" lon="-3.375188">
        <ele>1474.019</ele>
        <time>2016-07-20T18:24:17Z</time>
      </trkpt>
      <trkpt lat="41.050034" lon="-3.375071">
        <ele>1474.154</ele>
        <time>2016-07-20T18:24:18Z</time>
      </trkpt>
      <trkpt lat="41.049996" lon="-3.374959">
        <ele>1473.997</ele>
        <time>2016-07-20T18:24:19Z</time>
      </trkpt>
      <trkpt lat="41.049937" lon="-3.374748">
        <ele>1472.447</ele>
        <time>2016-07-20T18:24:21Z</time>
      </trkpt>
      <trkpt lat="41.049852" lon="-3.374558">
        <ele>1470.515</ele>
        <time>2016-07-20T18:24:23Z</time>
      </trkpt>
      <trkpt lat="41.049755" lon="-3.374407">
        <ele>1470.327</ele>
        <time>2016-07-20T18:24:25Z</time>
      </trkpt>
      <trkpt lat="41.049639" lon="-3.374287">
        <ele>1470.068</ele>
        <time>2016-07-20T18:24:27Z</time>
      </trkpt>
      <trkpt lat="41.049513" lon="-3.374202">
        <ele>1469.214</ele>
        <time>2016-07-20T18:24:29Z</time>
      </trkpt>
      <trkpt lat="41.049384" lon="-3.374145">
        <ele>1468.208</ele>
        <time>2016-07-20T18:24:31Z</time>
      </trkpt>
      <trkpt lat="41.049254" lon="-3.374090">
        <ele>1468.813</ele>
        <time>2016-07-20T18:24:33Z</time>
      </trkpt>
      <trkpt lat="41.049125" lon="-3.374036">
        <ele>1469.066</ele>
        <time>2016-07-20T18:24:35Z</time>
      </trkpt>
      <trkpt lat="41.049009" lon="-3.373981">
        <ele>1468.872</ele>
        <time>2016-07-20T18:24:37Z</time>
      </trkpt>
      <trkpt lat="41.048902" lon="-3.373928">
        <ele>1467.578</ele>
        <time>2016-07-20T18:24:39Z</time>
      </trkpt>
      <trkpt lat="41.048794" lon="-3.373870">
        <ele>1465.793</ele>
        <time>2016-07-20T18:24:41Z</time>
      </trkpt>
      <trkpt lat="41.048692" lon="-3.373809">
        <ele>1463.456</ele>
        <time>2016-07-20T18:24:43Z</time>
      </trkpt>
      <trkpt lat="41.048594" lon="-3.373734">
        <ele>1461.576</ele>
        <time>2016-07-20T18:24:45Z</time>
      </trkpt>
      <trkpt lat="41.048499" lon="-3.373641">
        <ele>1460.584</ele>
        <time>2016-07-20T18:24:47Z</time>
      </trkpt>
      <trkpt lat="41.048427" lon="-3.373529">
        <ele>1459.975</ele>
        <time>2016-07-20T18:24:49Z</time>
      </trkpt>
      <trkpt lat="41.048367" lon="-3.373400">
        <ele>1460.728</ele>
        <time>2016-07-20T18:24:51Z</time>
      </trkpt>
      <trkpt lat="41.048306" lon="-3.373287">
        <ele>1460.320</ele>
        <time>2016-07-20T18:24:53Z</time>
      </trkpt>
      <trkpt lat="41.048241" lon="-3.373182">
        <ele>1459.908</ele>
        <time>2016-07-20T18:24:55Z</time>
      </trkpt>
      <trkpt lat="41.048171" lon="-3.373071">
        <ele>1459.218</ele>
        <time>2016-07-20T18:24:57Z</time>
      </trkpt>
      <trkpt lat="41.048095" lon="-3.372949">
        <ele>1458.111</ele>
        <time>2016-07-20T18:24:59Z</time>
      </trkpt>
      <trkpt lat="41.048023" lon="-3.372804">
        <ele>1457.677</ele>
        <time>2016-07-20T18:25:02Z</time>
      </trkpt>
      <trkpt lat="41.047956" lon="-3.372666">
        <ele>1457.663</ele>
        <time>2016-07-20T18:25:03Z</time>
      </trkpt>
      <trkpt lat="41.047883" lon="-3.372531">
        <ele>1457.988</ele>
        <time>2016-07-20T18:25:05Z</time>
      </trkpt>
      <trkpt lat="41.047806" lon="-3.372384">
        <ele>1457.181</ele>
        <time>2016-07-20T18:25:08Z</time>
      </trkpt>
      <trkpt lat="41.047729" lon="-3.372232">
        <ele>1457.941</ele>
        <time>2016-07-20T18:25:10Z</time>
      </trkpt>
      <trkpt lat="41.047652" lon="-3.372070">
        <ele>1459.739</ele>
        <time>2016-07-20T18:25:12Z</time>
      </trkpt>
      <trkpt lat="41.047580" lon="-3.371915">
        <ele>1459.621</ele>
        <time>2016-07-20T18:25:14Z</time>
      </trkpt>
      <trkpt lat="41.047481" lon="-3.371667">
        <ele>1458.041</ele>
        <time>2016-07-20T18:25:16Z</time>
      </trkpt>
      <trkpt lat="41.047424" lon="-3.371528">
        <ele>1455.705</ele>
        <time>2016-07-20T18:25:18Z</time>
      </trkpt>
      <trkpt lat="41.047377" lon="-3.371411">
        <ele>1452.308</ele>
        <time>2016-07-20T18:25:20Z</time>
      </trkpt>
      <trkpt lat="41.047357" lon="-3.371275">
        <ele>1452.293</ele>
        <time>2016-07-20T18:26:03Z</time>
      </trkpt>
      <trkpt lat="41.047387" lon="-3.371116">
        <ele>1452.556</ele>
        <time>2016-07-20T18:26:08Z</time>
      </trkpt>
      <trkpt lat="41.047397" lon="-3.370994">
        <ele>1453.032</ele>
        <time>2016-07-20T18:26:12Z</time>
      </trkpt>
      <trkpt lat="41.047396" lon="-3.370874">
        <ele>1453.628</ele>
        <time>2016-07-20T18:26:17Z</time>
      </trkpt>
      <trkpt lat="41.047392" lon="-3.370750">
        <ele>1454.083</ele>
        <time>2016-07-20T18:26:22Z</time>
      </trkpt>
      <trkpt lat="41.047426" lon="-3.370860">
        <ele>1454.256</ele>
        <time>2016-07-20T18:27:01Z</time>
      </trkpt>
      <trkpt lat="41.047441" lon="-3.370981">
        <ele>1453.176</ele>
        <time>2016-07-20T18:27:09Z</time>
      </trkpt>
      <trkpt lat="41.047416" lon="-3.371106">
        <ele>1451.084</ele>
        <time>2016-07-20T18:27:39Z</time>
      </trkpt>
      <trkpt lat="41.047383" lon="-3.371218">
        <ele>1450.967</ele>
        <time>2016-07-20T18:27:51Z</time>
      </trkpt>
      <trkpt lat="41.047292" lon="-3.371104">
        <ele>1449.681</ele>
        <time>2016-07-20T18:28:16Z</time>
      </trkpt>
      <trkpt lat="41.047244" lon="-3.370971">
        <ele>1448.019</ele>
        <time>2016-07-20T18:28:18Z</time>
      </trkpt>
      <trkpt lat="41.047200" lon="-3.370814">
        <ele>1447.308</ele>
        <time>2016-07-20T18:28:20Z</time>
      </trkpt>
      <trkpt lat="41.047161" lon="-3.370657">
        <ele>1447.617</ele>
        <time>2016-07-20T18:28:22Z</time>
      </trkpt>
      <trkpt lat="41.047109" lon="-3.370402">
        <ele>1447.550</ele>
        <time>2016-07-20T18:28:25Z</time>
      </trkpt>
      <trkpt lat="41.047092" lon="-3.370208">
        <ele>1447.696</ele>
        <time>2016-07-20T18:28:27Z</time>
      </trkpt>
      <trkpt lat="41.047074" lon="-3.369860">
        <ele>1447.832</ele>
        <time>2016-07-20T18:28:30Z</time>
      </trkpt>
      <trkpt lat="41.047048" lon="-3.369658">
        <ele>1446.457</ele>
        <time>2016-07-20T18:28:32Z</time>
      </trkpt>
      <trkpt lat="41.046991" lon="-3.369472">
        <ele>1446.090</ele>
        <time>2016-07-20T18:28:34Z</time>
      </trkpt>
      <trkpt lat="41.046921" lon="-3.369298">
        <ele>1445.250</ele>
        <time>2016-07-20T18:28:36Z</time>
      </trkpt>
      <trkpt lat="41.046835" lon="-3.369139">
        <ele>1444.378</ele>
        <time>2016-07-20T18:28:38Z</time>
      </trkpt>
      <trkpt lat="41.046735" lon="-3.368982">
        <ele>1442.572</ele>
        <time>2016-07-20T18:28:40Z</time>
      </trkpt>
      <trkpt lat="41.046617" lon="-3.368821">
        <ele>1440.313</ele>
        <time>2016-07-20T18:28:42Z</time>
      </trkpt>
      <trkpt lat="41.046494" lon="-3.368668">
        <ele>1437.714</ele>
        <time>2016-07-20T18:28:44Z</time>
      </trkpt>
      <trkpt lat="41.046421" lon="-3.368584">
        <ele>1436.708</ele>
        <time>2016-07-20T18:28:45Z</time>
      </trkpt>
      <trkpt lat="41.046347" lon="-3.368499">
        <ele>1435.818</ele>
        <time>2016-07-20T18:28:46Z</time>
      </trkpt>
      <trkpt lat="41.046272" lon="-3.368416">
        <ele>1435.531</ele>
        <time>2016-07-20T18:28:47Z</time>
      </trkpt>
      <trkpt lat="41.046201" lon="-3.368338">
        <ele>1434.577</ele>
        <time>2016-07-20T18:28:48Z</time>
      </trkpt>
      <trkpt lat="41.046070" lon="-3.368204">
        <ele>1433.293</ele>
        <time>2016-07-20T18:28:50Z</time>
      </trkpt>
      <trkpt lat="41.045997" lon="-3.368126">
        <ele>1432.628</ele>
        <time>2016-07-20T18:28:51Z</time>
      </trkpt>
      <trkpt lat="41.045920" lon="-3.368049">
        <ele>1432.441</ele>
        <time>2016-07-20T18:28:52Z</time>
      </trkpt>
      <trkpt lat="41.045843" lon="-3.367974">
        <ele>1431.961</ele>
        <time>2016-07-20T18:28:53Z</time>
      </trkpt>
      <trkpt lat="41.045760" lon="-3.367900">
        <ele>1431.389</ele>
        <time>2016-07-20T18:28:54Z</time>
      </trkpt>
      <trkpt lat="41.045673" lon="-3.367823">
        <ele>1430.967</ele>
        <time>2016-07-20T18:28:55Z</time>
      </trkpt>
      <trkpt lat="41.045582" lon="-3.367742">
        <ele>1430.381</ele>
        <time>2016-07-20T18:28:56Z</time>
      </trkpt>
      <trkpt lat="41.045492" lon="-3.367668">
        <ele>1429.919</ele>
        <time>2016-07-20T18:28:57Z</time>
      </trkpt>
      <trkpt lat="41.045396" lon="-3.367601">
        <ele>1429.308</ele>
        <time>2016-07-20T18:28:58Z</time>
      </trkpt>
      <trkpt lat="41.045301" lon="-3.367546">
        <ele>1429.377</ele>
        <time>2016-07-20T18:28:59Z</time>
      </trkpt>
      <trkpt lat="41.045210" lon="-3.367501">
        <ele>1428.990</ele>
        <time>2016-07-20T18:29:00Z</time>
      </trkpt>
      <trkpt lat="41.045115" lon="-3.367473">
        <ele>1428.876</ele>
        <time>2016-07-20T18:29:01Z</time>
      </trkpt>
      <trkpt lat="41.045012" lon="-3.367459">
        <ele>1428.862</ele>
        <time>2016-07-20T18:29:02Z</time>
      </trkpt>
      <trkpt lat="41.044901" lon="-3.367460">
        <ele>1428.387</ele>
        <time>2016-07-20T18:29:03Z</time>
      </trkpt>
      <trkpt lat="41.044796" lon="-3.367474">
        <ele>1428.240</ele>
        <time>2016-07-20T18:29:04Z</time>
      </trkpt>
      <trkpt lat="41.044691" lon="-3.367498">
        <ele>1427.870</ele>
        <time>2016-07-20T18:29:05Z</time>
      </trkpt>
      <trkpt lat="41.044589" lon="-3.367525">
        <ele>1427.518</ele>
        <time>2016-07-20T18:29:06Z</time>
      </trkpt>
      <trkpt lat="41.044477" lon="-3.367557">
        <ele>1427.282</ele>
        <time>2016-07-20T18:29:07Z</time>
      </trkpt>
      <trkpt lat="41.044369" lon="-3.367588">
        <ele>1426.943</ele>
        <time>2016-07-20T18:29:08Z</time>
      </trkpt>
      <trkpt lat="41.044261" lon="-3.367630">
        <ele>1426.617</ele>
        <time>2016-07-20T18:29:09Z</time>
      </trkpt>
      <trkpt lat="41.044154" lon="-3.367656">
        <ele>1425.908</ele>
        <time>2016-07-20T18:29:10Z</time>
      </trkpt>
      <trkpt lat="41.044037" lon="-3.367684">
        <ele>1425.099</ele>
        <time>2016-07-20T18:29:11Z</time>
      </trkpt>
      <trkpt lat="41.043923" lon="-3.367718">
        <ele>1424.192</ele>
        <time>2016-07-20T18:29:12Z</time>
      </trkpt>
      <trkpt lat="41.043797" lon="-3.367759">
        <ele>1423.048</ele>
        <time>2016-07-20T18:29:13Z</time>
      </trkpt>
      <trkpt lat="41.043668" lon="-3.367805">
        <ele>1422.274</ele>
        <time>2016-07-20T18:29:14Z</time>
      </trkpt>
      <trkpt lat="41.043544" lon="-3.367845">
        <ele>1421.659</ele>
        <time>2016-07-20T18:29:15Z</time>
      </trkpt>
      <trkpt lat="41.043420" lon="-3.367892">
        <ele>1420.842</ele>
        <time>2016-07-20T18:29:16Z</time>
      </trkpt>
      <trkpt lat="41.043299" lon="-3.367947">
        <ele>1419.852</ele>
        <time>2016-07-20T18:29:17Z</time>
      </trkpt>
      <trkpt lat="41.043180" lon="-3.367998">
        <ele>1418.890</ele>
        <time>2016-07-20T18:29:18Z</time>
      </trkpt>
      <trkpt lat="41.043060" lon="-3.368054">
        <ele>1417.931</ele>
        <time>2016-07-20T18:29:19Z</time>
      </trkpt>
      <trkpt lat="41.042938" lon="-3.368116">
        <ele>1417.261</ele>
        <time>2016-07-20T18:29:20Z</time>
      </trkpt>
      <trkpt lat="41.042827" lon="-3.368177">
        <ele>1416.007</ele>
        <time>2016-07-20T18:29:21Z</time>
      </trkpt>
      <trkpt lat="41.042720" lon="-3.368237">
        <ele>1415.208</ele>
        <time>2016-07-20T18:29:22Z</time>
      </trkpt>
      <trkpt lat="41.042611" lon="-3.368300">
        <ele>1414.054</ele>
        <time>2016-07-20T18:29:23Z</time>
      </trkpt>
      <trkpt lat="41.042504" lon="-3.368370">
        <ele>1413.687</ele>
        <time>2016-07-20T18:29:24Z</time>
      </trkpt>
      <trkpt lat="41.042404" lon="-3.368436">
        <ele>1412.583</ele>
        <time>2016-07-20T18:29:25Z</time>
      </trkpt>
      <trkpt lat="41.042298" lon="-3.368506">
        <ele>1411.829</ele>
        <time>2016-07-20T18:29:26Z</time>
      </trkpt>
      <trkpt lat="41.042202" lon="-3.368572">
        <ele>1411.454</ele>
        <time>2016-07-20T18:29:27Z</time>
      </trkpt>
      <trkpt lat="41.042103" lon="-3.368642">
        <ele>1411.397</ele>
        <time>2016-07-20T18:29:28Z</time>
      </trkpt>
      <trkpt lat="41.042010" lon="-3.368710">
        <ele>1411.027</ele>
        <time>2016-07-20T18:29:29Z</time>
      </trkpt>
      <trkpt lat="41.041924" lon="-3.368781">
        <ele>1410.925</ele>
        <time>2016-07-20T18:29:30Z</time>
      </trkpt>
      <trkpt lat="41.041836" lon="-3.368849">
        <ele>1411.032</ele>
        <time>2016-07-20T18:29:31Z</time>
      </trkpt>
      <trkpt lat="41.041732" lon="-3.368926">
        <ele>1410.692</ele>
        <time>2016-07-20T18:29:32Z</time>
      </trkpt>
      <trkpt lat="41.041639" lon="-3.368997">
        <ele>1410.511</ele>
        <time>2016-07-20T18:29:33Z</time>
      </trkpt>
      <trkpt lat="41.041543" lon="-3.369059">
        <ele>1410.208</ele>
        <time>2016-07-20T18:29:34Z</time>
      </trkpt>
      <trkpt lat="41.041443" lon="-3.369112">
        <ele>1409.584</ele>
        <time>2016-07-20T18:29:35Z</time>
      </trkpt>
      <trkpt lat="41.041341" lon="-3.369165">
        <ele>1409.297</ele>
        <time>2016-07-20T18:29:36Z</time>
      </trkpt>
      <trkpt lat="41.041239" lon="-3.369214">
        <ele>1408.173</ele>
        <time>2016-07-20T18:29:37Z</time>
      </trkpt>
      <trkpt lat="41.041137" lon="-3.369262">
        <ele>1406.419</ele>
        <time>2016-07-20T18:29:38Z</time>
      </trkpt>
      <trkpt lat="41.041035" lon="-3.369309">
        <ele>1404.974</ele>
        <time>2016-07-20T18:29:39Z</time>
      </trkpt>
      <trkpt lat="41.040934" lon="-3.369361">
        <ele>1403.957</ele>
        <time>2016-07-20T18:29:40Z</time>
      </trkpt>
      <trkpt lat="41.040830" lon="-3.369408">
        <ele>1402.737</ele>
        <time>2016-07-20T18:29:41Z</time>
      </trkpt>
      <trkpt lat="41.040734" lon="-3.369446">
        <ele>1401.635</ele>
        <time>2016-07-20T18:29:42Z</time>
      </trkpt>
      <trkpt lat="41.040631" lon="-3.369481">
        <ele>1400.337</ele>
        <time>2016-07-20T18:29:43Z</time>
      </trkpt>
      <trkpt lat="41.040534" lon="-3.369507">
        <ele>1398.249</ele>
        <time>2016-07-20T18:29:44Z</time>
      </trkpt>
      <trkpt lat="41.040427" lon="-3.369531">
        <ele>1397.013</ele>
        <time>2016-07-20T18:29:45Z</time>
      </trkpt>
      <trkpt lat="41.040321" lon="-3.369553">
        <ele>1396.208</ele>
        <time>2016-07-20T18:29:46Z</time>
      </trkpt>
      <trkpt lat="41.040205" lon="-3.369563">
        <ele>1395.884</ele>
        <time>2016-07-20T18:29:47Z</time>
      </trkpt>
      <trkpt lat="41.040092" lon="-3.369565">
        <ele>1395.067</ele>
        <time>2016-07-20T18:29:48Z</time>
      </trkpt>
      <trkpt lat="41.039980" lon="-3.369564">
        <ele>1394.193</ele>
        <time>2016-07-20T18:29:49Z</time>
      </trkpt>
      <trkpt lat="41.039868" lon="-3.369555">
        <ele>1393.289</ele>
        <time>2016-07-20T18:29:50Z</time>
      </trkpt>
      <trkpt lat="41.039759" lon="-3.369539">
        <ele>1392.214</ele>
        <time>2016-07-20T18:29:51Z</time>
      </trkpt>
      <trkpt lat="41.039651" lon="-3.369519">
        <ele>1390.997</ele>
        <time>2016-07-20T18:29:52Z</time>
      </trkpt>
      <trkpt lat="41.039536" lon="-3.369502">
        <ele>1389.847</ele>
        <time>2016-07-20T18:29:53Z</time>
      </trkpt>
      <trkpt lat="41.039425" lon="-3.369473">
        <ele>1388.625</ele>
        <time>2016-07-20T18:29:54Z</time>
      </trkpt>
      <trkpt lat="41.039328" lon="-3.369444">
        <ele>1387.437</ele>
        <time>2016-07-20T18:29:55Z</time>
      </trkpt>
      <trkpt lat="41.039173" lon="-3.369391">
        <ele>1384.249</ele>
        <time>2016-07-20T18:29:57Z</time>
      </trkpt>
      <trkpt lat="41.039042" lon="-3.369349">
        <ele>1380.413</ele>
        <time>2016-07-20T18:29:59Z</time>
      </trkpt>
      <trkpt lat="41.038921" lon="-3.369304">
        <ele>1377.608</ele>
        <time>2016-07-20T18:30:01Z</time>
      </trkpt>
      <trkpt lat="41.038782" lon="-3.369234">
        <ele>1376.224</ele>
        <time>2016-07-20T18:30:03Z</time>
      </trkpt>
      <trkpt lat="41.038647" lon="-3.369153">
        <ele>1375.587</ele>
        <time>2016-07-20T18:30:06Z</time>
      </trkpt>
      <trkpt lat="41.038502" lon="-3.369060">
        <ele>1374.193</ele>
        <time>2016-07-20T18:30:08Z</time>
      </trkpt>
      <trkpt lat="41.038344" lon="-3.368961">
        <ele>1372.819</ele>
        <time>2016-07-20T18:30:10Z</time>
      </trkpt>
      <trkpt lat="41.038177" lon="-3.368875">
        <ele>1372.374</ele>
        <time>2016-07-20T18:30:12Z</time>
      </trkpt>
      <trkpt lat="41.037999" lon="-3.368838">
        <ele>1372.037</ele>
        <time>2016-07-20T18:30:14Z</time>
      </trkpt>
      <trkpt lat="41.037901" lon="-3.368830">
        <ele>1371.727</ele>
        <time>2016-07-20T18:30:15Z</time>
      </trkpt>
      <trkpt lat="41.037799" lon="-3.368817">
        <ele>1371.395</ele>
        <time>2016-07-20T18:30:16Z</time>
      </trkpt>
      <trkpt lat="41.037696" lon="-3.368812">
        <ele>1371.063</ele>
        <time>2016-07-20T18:30:17Z</time>
      </trkpt>
      <trkpt lat="41.037590" lon="-3.368802">
        <ele>1370.244</ele>
        <time>2016-07-20T18:30:18Z</time>
      </trkpt>
      <trkpt lat="41.037482" lon="-3.368788">
        <ele>1369.818</ele>
        <time>2016-07-20T18:30:19Z</time>
      </trkpt>
      <trkpt lat="41.037373" lon="-3.368778">
        <ele>1369.008</ele>
        <time>2016-07-20T18:30:20Z</time>
      </trkpt>
      <trkpt lat="41.037266" lon="-3.368771">
        <ele>1367.147</ele>
        <time>2016-07-20T18:30:21Z</time>
      </trkpt>
      <trkpt lat="41.037162" lon="-3.368765">
        <ele>1365.450</ele>
        <time>2016-07-20T18:30:22Z</time>
      </trkpt>
      <trkpt lat="41.037057" lon="-3.368767">
        <ele>1363.566</ele>
        <time>2016-07-20T18:30:23Z</time>
      </trkpt>
      <trkpt lat="41.036837" lon="-3.368770">
        <ele>1358.372</ele>
        <time>2016-07-20T18:30:24Z</time>
      </trkpt>
      <trkpt lat="41.036723" lon="-3.368772">
        <ele>1356.627</ele>
        <time>2016-07-20T18:30:25Z</time>
      </trkpt>
      <trkpt lat="41.036602" lon="-3.368768">
        <ele>1354.710</ele>
        <time>2016-07-20T18:30:26Z</time>
      </trkpt>
      <trkpt lat="41.036480" lon="-3.368769">
        <ele>1352.730</ele>
        <time>2016-07-20T18:30:27Z</time>
      </trkpt>
      <trkpt lat="41.036353" lon="-3.368766">
        <ele>1351.798</ele>
        <time>2016-07-20T18:30:28Z</time>
      </trkpt>
      <trkpt lat="41.036223" lon="-3.368759">
        <ele>1351.791</ele>
        <time>2016-07-20T18:30:29Z</time>
      </trkpt>
      <trkpt lat="41.036092" lon="-3.368754">
        <ele>1351.481</ele>
        <time>2016-07-20T18:30:30Z</time>
      </trkpt>
      <trkpt lat="41.035969" lon="-3.368750">
        <ele>1350.519</ele>
        <time>2016-07-20T18:30:31Z</time>
      </trkpt>
      <trkpt lat="41.035852" lon="-3.368752">
        <ele>1349.308</ele>
        <time>2016-07-20T18:30:32Z</time>
      </trkpt>
      <trkpt lat="41.035739" lon="-3.368759">
        <ele>1348.530</ele>
        <time>2016-07-20T18:30:33Z</time>
      </trkpt>
      <trkpt lat="41.035626" lon="-3.368759">
        <ele>1347.623</ele>
        <time>2016-07-20T18:30:34Z</time>
      </trkpt>
      <trkpt lat="41.035515" lon="-3.368759">
        <ele>1347.299</ele>
        <time>2016-07-20T18:30:35Z</time>
      </trkpt>
      <trkpt lat="41.035404" lon="-3.368751">
        <ele>1346.535</ele>
        <time>2016-07-20T18:30:36Z</time>
      </trkpt>
      <trkpt lat="41.035296" lon="-3.368727">
        <ele>1345.950</ele>
        <time>2016-07-20T18:30:37Z</time>
      </trkpt>
      <trkpt lat="41.035186" lon="-3.368704">
        <ele>1345.123</ele>
        <time>2016-07-20T18:30:38Z</time>
      </trkpt>
      <trkpt lat="41.035084" lon="-3.368684">
        <ele>1344.223</ele>
        <time>2016-07-20T18:30:39Z</time>
      </trkpt>
      <trkpt lat="41.034982" lon="-3.368679">
        <ele>1342.861</ele>
        <time>2016-07-20T18:30:40Z</time>
      </trkpt>
      <trkpt lat="41.034884" lon="-3.368684">
        <ele>1341.699</ele>
        <time>2016-07-20T18:30:41Z</time>
      </trkpt>
      <trkpt lat="41.034783" lon="-3.368700">
        <ele>1340.907</ele>
        <time>2016-07-20T18:30:42Z</time>
      </trkpt>
      <trkpt lat="41.034686" lon="-3.368732">
        <ele>1339.627</ele>
        <time>2016-07-20T18:30:43Z</time>
      </trkpt>
      <trkpt lat="41.034588" lon="-3.368768">
        <ele>1338.408</ele>
        <time>2016-07-20T18:30:44Z</time>
      </trkpt>
      <trkpt lat="41.034486" lon="-3.368804">
        <ele>1337.820</ele>
        <time>2016-07-20T18:30:45Z</time>
      </trkpt>
      <trkpt lat="41.034392" lon="-3.368829">
        <ele>1337.383</ele>
        <time>2016-07-20T18:30:46Z</time>
      </trkpt>
      <trkpt lat="41.034289" lon="-3.368840">
        <ele>1336.369</ele>
        <time>2016-07-20T18:30:47Z</time>
      </trkpt>
      <trkpt lat="41.034182" lon="-3.368852">
        <ele>1335.225</ele>
        <time>2016-07-20T18:30:48Z</time>
      </trkpt>
      <trkpt lat="41.034072" lon="-3.368871">
        <ele>1334.560</ele>
        <time>2016-07-20T18:30:49Z</time>
      </trkpt>
      <trkpt lat="41.033962" lon="-3.368890">
        <ele>1334.123</ele>
        <time>2016-07-20T18:30:50Z</time>
      </trkpt>
      <trkpt lat="41.033852" lon="-3.368909">
        <ele>1333.893</ele>
        <time>2016-07-20T18:30:51Z</time>
      </trkpt>
      <trkpt lat="41.033745" lon="-3.368925">
        <ele>1333.471</ele>
        <time>2016-07-20T18:30:52Z</time>
      </trkpt>
      <trkpt lat="41.033631" lon="-3.368942">
        <ele>1332.683</ele>
        <time>2016-07-20T18:30:53Z</time>
      </trkpt>
      <trkpt lat="41.033519" lon="-3.368960">
        <ele>1332.025</ele>
        <time>2016-07-20T18:30:54Z</time>
      </trkpt>
      <trkpt lat="41.033396" lon="-3.368984">
        <ele>1331.717</ele>
        <time>2016-07-20T18:30:55Z</time>
      </trkpt>
      <trkpt lat="41.033272" lon="-3.369010">
        <ele>1331.308</ele>
        <time>2016-07-20T18:30:56Z</time>
      </trkpt>
      <trkpt lat="41.033154" lon="-3.369023">
        <ele>1331.329</ele>
        <time>2016-07-20T18:30:57Z</time>
      </trkpt>
      <trkpt lat="41.033042" lon="-3.369036">
        <ele>1331.082</ele>
        <time>2016-07-20T18:30:58Z</time>
      </trkpt>
      <trkpt lat="41.032926" lon="-3.369051">
        <ele>1330.028</ele>
        <time>2016-07-20T18:30:59Z</time>
      </trkpt>
      <trkpt lat="41.032826" lon="-3.369061">
        <ele>1328.464</ele>
        <time>2016-07-20T18:31:00Z</time>
      </trkpt>
      <trkpt lat="41.032651" lon="-3.369072">
        <ele>1326.199</ele>
        <time>2016-07-20T18:31:02Z</time>
      </trkpt>
      <trkpt lat="41.032500" lon="-3.369064">
        <ele>1324.932</ele>
        <time>2016-07-20T18:31:04Z</time>
      </trkpt>
      <trkpt lat="41.032351" lon="-3.369035">
        <ele>1322.952</ele>
        <time>2016-07-20T18:31:06Z</time>
      </trkpt>
      <trkpt lat="41.032197" lon="-3.368977">
        <ele>1319.970</ele>
        <time>2016-07-20T18:31:08Z</time>
      </trkpt>
      <trkpt lat="41.032031" lon="-3.368901">
        <ele>1316.451</ele>
        <time>2016-07-20T18:31:10Z</time>
      </trkpt>
      <trkpt lat="41.031944" lon="-3.368860">
        <ele>1314.501</ele>
        <time>2016-07-20T18:31:11Z</time>
      </trkpt>
      <trkpt lat="41.031852" lon="-3.368818">
        <ele>1312.311</ele>
        <time>2016-07-20T18:31:12Z</time>
      </trkpt>
      <trkpt lat="41.031762" lon="-3.368777">
        <ele>1310.508</ele>
        <time>2016-07-20T18:31:13Z</time>
      </trkpt>
      <trkpt lat="41.031668" lon="-3.368733">
        <ele>1309.266</ele>
        <time>2016-07-20T18:31:14Z</time>
      </trkpt>
      <trkpt lat="41.031569" lon="-3.368688">
        <ele>1307.789</ele>
        <time>2016-07-20T18:31:15Z</time>
      </trkpt>
      <trkpt lat="41.031470" lon="-3.368650">
        <ele>1306.255</ele>
        <time>2016-07-20T18:31:16Z</time>
      </trkpt>
      <trkpt lat="41.031371" lon="-3.368603">
        <ele>1305.531</ele>
        <time>2016-07-20T18:31:17Z</time>
      </trkpt>
      <trkpt lat="41.031268" lon="-3.368550">
        <ele>1305.036</ele>
        <time>2016-07-20T18:31:18Z</time>
      </trkpt>
      <trkpt lat="41.031164" lon="-3.368499">
        <ele>1304.669</ele>
        <time>2016-07-20T18:31:19Z</time>
      </trkpt>
      <trkpt lat="41.031058" lon="-3.368454">
        <ele>1303.679</ele>
        <time>2016-07-20T18:31:20Z</time>
      </trkpt>
      <trkpt lat="41.030951" lon="-3.368411">
        <ele>1303.477</ele>
        <time>2016-07-20T18:31:21Z</time>
      </trkpt>
      <trkpt lat="41.030844" lon="-3.368371">
        <ele>1302.846</ele>
        <time>2016-07-20T18:31:22Z</time>
      </trkpt>
      <trkpt lat="41.030725" lon="-3.368331">
        <ele>1302.488</ele>
        <time>2016-07-20T18:31:23Z</time>
      </trkpt>
      <trkpt lat="41.030607" lon="-3.368295">
        <ele>1301.716</ele>
        <time>2016-07-20T18:31:24Z</time>
      </trkpt>
      <trkpt lat="41.030499" lon="-3.368261">
        <ele>1301.508</ele>
        <time>2016-07-20T18:31:25Z</time>
      </trkpt>
      <trkpt lat="41.030399" lon="-3.368230">
        <ele>1301.165</ele>
        <time>2016-07-20T18:31:26Z</time>
      </trkpt>
      <trkpt lat="41.030298" lon="-3.368201">
        <ele>1301.128</ele>
        <time>2016-07-20T18:31:27Z</time>
      </trkpt>
      <trkpt lat="41.030193" lon="-3.368179">
        <ele>1300.784</ele>
        <time>2016-07-20T18:31:28Z</time>
      </trkpt>
      <trkpt lat="41.030094" lon="-3.368153">
        <ele>1300.710</ele>
        <time>2016-07-20T18:31:29Z</time>
      </trkpt>
      <trkpt lat="41.029990" lon="-3.368119">
        <ele>1300.365</ele>
        <time>2016-07-20T18:31:30Z</time>
      </trkpt>
      <trkpt lat="41.029890" lon="-3.368088">
        <ele>1299.318</ele>
        <time>2016-07-20T18:31:31Z</time>
      </trkpt>
      <trkpt lat="41.029797" lon="-3.368060">
        <ele>1298.698</ele>
        <time>2016-07-20T18:31:32Z</time>
      </trkpt>
      <trkpt lat="41.029699" lon="-3.368037">
        <ele>1297.476</ele>
        <time>2016-07-20T18:31:33Z</time>
      </trkpt>
      <trkpt lat="41.029604" lon="-3.368028">
        <ele>1296.641</ele>
        <time>2016-07-20T18:31:34Z</time>
      </trkpt>
      <trkpt lat="41.029505" lon="-3.368030">
        <ele>1295.981</ele>
        <time>2016-07-20T18:31:35Z</time>
      </trkpt>
      <trkpt lat="41.029405" lon="-3.368031">
        <ele>1295.409</ele>
        <time>2016-07-20T18:31:36Z</time>
      </trkpt>
      <trkpt lat="41.029306" lon="-3.368030">
        <ele>1294.808</ele>
        <time>2016-07-20T18:31:37Z</time>
      </trkpt>
      <trkpt lat="41.029134" lon="-3.368028">
        <ele>1293.395</ele>
        <time>2016-07-20T18:31:39Z</time>
      </trkpt>
      <trkpt lat="41.029043" lon="-3.368024">
        <ele>1292.488</ele>
        <time>2016-07-20T18:31:40Z</time>
      </trkpt>
      <trkpt lat="41.028873" lon="-3.367994">
        <ele>1291.164</ele>
        <time>2016-07-20T18:31:42Z</time>
      </trkpt>
      <trkpt lat="41.028753" lon="-3.367945">
        <ele>1290.970</ele>
        <time>2016-07-20T18:31:44Z</time>
      </trkpt>
      <trkpt lat="41.028671" lon="-3.367816">
        <ele>1290.495</ele>
        <time>2016-07-20T18:31:46Z</time>
      </trkpt>
      <trkpt lat="41.028626" lon="-3.367645">
        <ele>1290.668</ele>
        <time>2016-07-20T18:31:48Z</time>
      </trkpt>
      <trkpt lat="41.028632" lon="-3.367437">
        <ele>1290.838</ele>
        <time>2016-07-20T18:31:51Z</time>
      </trkpt>
      <trkpt lat="41.028641" lon="-3.367318">
        <ele>1291.476</ele>
        <time>2016-07-20T18:31:52Z</time>
      </trkpt>
      <trkpt lat="41.028666" lon="-3.367074">
        <ele>1292.619</ele>
        <time>2016-07-20T18:31:54Z</time>
      </trkpt>
      <trkpt lat="41.028685" lon="-3.366949">
        <ele>1292.509</ele>
        <time>2016-07-20T18:31:55Z</time>
      </trkpt>
      <trkpt lat="41.028701" lon="-3.366830">
        <ele>1292.119</ele>
        <time>2016-07-20T18:31:56Z</time>
      </trkpt>
      <trkpt lat="41.028717" lon="-3.366701">
        <ele>1291.708</ele>
        <time>2016-07-20T18:31:57Z</time>
      </trkpt>
      <trkpt lat="41.028733" lon="-3.366575">
        <ele>1291.382</ele>
        <time>2016-07-20T18:31:58Z</time>
      </trkpt>
      <trkpt lat="41.028744" lon="-3.366456">
        <ele>1290.555</ele>
        <time>2016-07-20T18:31:59Z</time>
      </trkpt>
      <trkpt lat="41.028756" lon="-3.366328">
        <ele>1289.161</ele>
        <time>2016-07-20T18:32:00Z</time>
      </trkpt>
      <trkpt lat="41.028776" lon="-3.366189">
        <ele>1288.197</ele>
        <time>2016-07-20T18:32:01Z</time>
      </trkpt>
      <trkpt lat="41.028802" lon="-3.366041">
        <ele>1287.352</ele>
        <time>2016-07-20T18:32:02Z</time>
      </trkpt>
      <trkpt lat="41.028833" lon="-3.365897">
        <ele>1286.895</ele>
        <time>2016-07-20T18:32:03Z</time>
      </trkpt>
      <trkpt lat="41.028869" lon="-3.365757">
        <ele>1286.325</ele>
        <time>2016-07-20T18:32:04Z</time>
      </trkpt>
      <trkpt lat="41.028948" lon="-3.365486">
        <ele>1283.693</ele>
        <time>2016-07-20T18:32:05Z</time>
      </trkpt>
      <trkpt lat="41.028989" lon="-3.365334">
        <ele>1282.567</ele>
        <time>2016-07-20T18:32:06Z</time>
      </trkpt>
      <trkpt lat="41.029034" lon="-3.365191">
        <ele>1281.081</ele>
        <time>2016-07-20T18:32:07Z</time>
      </trkpt>
      <trkpt lat="41.029082" lon="-3.365054">
        <ele>1280.019</ele>
        <time>2016-07-20T18:32:08Z</time>
      </trkpt>
      <trkpt lat="41.029142" lon="-3.364931">
        <ele>1279.408</ele>
        <time>2016-07-20T18:32:09Z</time>
      </trkpt>
      <trkpt lat="41.029198" lon="-3.364824">
        <ele>1278.367</ele>
        <time>2016-07-20T18:32:10Z</time>
      </trkpt>
      <trkpt lat="41.029262" lon="-3.364720">
        <ele>1277.240</ele>
        <time>2016-07-20T18:32:11Z</time>
      </trkpt>
      <trkpt lat="41.029336" lon="-3.364610">
        <ele>1276.346</ele>
        <time>2016-07-20T18:32:12Z</time>
      </trkpt>
      <trkpt lat="41.029413" lon="-3.364517">
        <ele>1275.492</ele>
        <time>2016-07-20T18:32:13Z</time>
      </trkpt>
      <trkpt lat="41.029498" lon="-3.364427">
        <ele>1275.167</ele>
        <time>2016-07-20T18:32:14Z</time>
      </trkpt>
      <trkpt lat="41.029590" lon="-3.364336">
        <ele>1275.120</ele>
        <time>2016-07-20T18:32:15Z</time>
      </trkpt>
      <trkpt lat="41.029680" lon="-3.364253">
        <ele>1274.630</ele>
        <time>2016-07-20T18:32:16Z</time>
      </trkpt>
      <trkpt lat="41.029913" lon="-3.363981">
        <ele>1272.498</ele>
        <time>2016-07-20T18:32:19Z</time>
      </trkpt>
      <trkpt lat="41.029971" lon="-3.363869">
        <ele>1271.571</ele>
        <time>2016-07-20T18:32:20Z</time>
      </trkpt>
      <trkpt lat="41.030020" lon="-3.363756">
        <ele>1270.241</ele>
        <time>2016-07-20T18:32:21Z</time>
      </trkpt>
      <trkpt lat="41.030083" lon="-3.363617">
        <ele>1269.915</ele>
        <time>2016-07-20T18:32:22Z</time>
      </trkpt>
      <trkpt lat="41.030142" lon="-3.363490">
        <ele>1269.608</ele>
        <time>2016-07-20T18:32:23Z</time>
      </trkpt>
      <trkpt lat="41.030204" lon="-3.363366">
        <ele>1268.438</ele>
        <time>2016-07-20T18:32:24Z</time>
      </trkpt>
      <trkpt lat="41.030266" lon="-3.363238">
        <ele>1266.531</ele>
        <time>2016-07-20T18:32:25Z</time>
      </trkpt>
      <trkpt lat="41.030336" lon="-3.363099">
        <ele>1265.077</ele>
        <time>2016-07-20T18:32:26Z</time>
      </trkpt>
      <trkpt lat="41.030403" lon="-3.362958">
        <ele>1263.683</ele>
        <time>2016-07-20T18:32:27Z</time>
      </trkpt>
      <trkpt lat="41.030463" lon="-3.362816">
        <ele>1262.198</ele>
        <time>2016-07-20T18:32:28Z</time>
      </trkpt>
      <trkpt lat="41.030538" lon="-3.362652">
        <ele>1261.011</ele>
        <time>2016-07-20T18:32:29Z</time>
      </trkpt>
      <trkpt lat="41.030607" lon="-3.362499">
        <ele>1259.851</ele>
        <time>2016-07-20T18:32:30Z</time>
      </trkpt>
      <trkpt lat="41.030678" lon="-3.362363">
        <ele>1258.599</ele>
        <time>2016-07-20T18:32:31Z</time>
      </trkpt>
      <trkpt lat="41.030752" lon="-3.362220">
        <ele>1257.775</ele>
        <time>2016-07-20T18:32:32Z</time>
      </trkpt>
      <trkpt lat="41.030822" lon="-3.362088">
        <ele>1256.728</ele>
        <time>2016-07-20T18:32:33Z</time>
      </trkpt>
      <trkpt lat="41.030888" lon="-3.361973">
        <ele>1256.020</ele>
        <time>2016-07-20T18:32:34Z</time>
      </trkpt>
      <trkpt lat="41.030957" lon="-3.361854">
        <ele>1255.508</ele>
        <time>2016-07-20T18:32:35Z</time>
      </trkpt>
      <trkpt lat="41.031023" lon="-3.361743">
        <ele>1254.918</ele>
        <time>2016-07-20T18:32:36Z</time>
      </trkpt>
      <trkpt lat="41.031089" lon="-3.361631">
        <ele>1254.131</ele>
        <time>2016-07-20T18:32:37Z</time>
      </trkpt>
      <trkpt lat="41.031163" lon="-3.361519">
        <ele>1253.667</ele>
        <time>2016-07-20T18:32:38Z</time>
      </trkpt>
      <trkpt lat="41.031239" lon="-3.361420">
        <ele>1253.033</ele>
        <time>2016-07-20T18:32:39Z</time>
      </trkpt>
      <trkpt lat="41.031328" lon="-3.361316">
        <ele>1251.928</ele>
        <time>2016-07-20T18:32:40Z</time>
      </trkpt>
      <trkpt lat="41.031417" lon="-3.361211">
        <ele>1251.071</ele>
        <time>2016-07-20T18:32:41Z</time>
      </trkpt>
      <trkpt lat="41.031503" lon="-3.361116">
        <ele>1250.171</ele>
        <time>2016-07-20T18:32:42Z</time>
      </trkpt>
      <trkpt lat="41.031586" lon="-3.361024">
        <ele>1249.369</ele>
        <time>2016-07-20T18:32:43Z</time>
      </trkpt>
      <trkpt lat="41.031665" lon="-3.360926">
        <ele>1248.294</ele>
        <time>2016-07-20T18:32:44Z</time>
      </trkpt>
      <trkpt lat="41.031744" lon="-3.360810">
        <ele>1247.157</ele>
        <time>2016-07-20T18:32:45Z</time>
      </trkpt>
      <trkpt lat="41.031818" lon="-3.360687">
        <ele>1246.222</ele>
        <time>2016-07-20T18:32:46Z</time>
      </trkpt>
      <trkpt lat="41.031893" lon="-3.360556">
        <ele>1245.108</ele>
        <time>2016-07-20T18:32:47Z</time>
      </trkpt>
      <trkpt lat="41.031956" lon="-3.360425">
        <ele>1243.560</ele>
        <time>2016-07-20T18:32:48Z</time>
      </trkpt>
      <trkpt lat="41.032019" lon="-3.360286">
        <ele>1242.053</ele>
        <time>2016-07-20T18:32:49Z</time>
      </trkpt>
      <trkpt lat="41.032074" lon="-3.360157">
        <ele>1240.629</ele>
        <time>2016-07-20T18:32:50Z</time>
      </trkpt>
      <trkpt lat="41.032122" lon="-3.360039">
        <ele>1239.015</ele>
        <time>2016-07-20T18:32:51Z</time>
      </trkpt>
      <trkpt lat="41.032185" lon="-3.359843">
        <ele>1236.550</ele>
        <time>2016-07-20T18:32:53Z</time>
      </trkpt>
      <trkpt lat="41.032172" lon="-3.359669">
        <ele>1234.683</ele>
        <time>2016-07-20T18:32:55Z</time>
      </trkpt>
      <trkpt lat="41.032046" lon="-3.359618">
        <ele>1234.533</ele>
        <time>2016-07-20T18:32:57Z</time>
      </trkpt>
      <trkpt lat="41.031875" lon="-3.359600">
        <ele>1234.541</ele>
        <time>2016-07-20T18:32:59Z</time>
      </trkpt>
      <trkpt lat="41.031777" lon="-3.359570">
        <ele>1234.453</ele>
        <time>2016-07-20T18:33:01Z</time>
      </trkpt>
      <trkpt lat="41.031683" lon="-3.359533">
        <ele>1233.904</ele>
        <time>2016-07-20T18:33:01Z</time>
      </trkpt>
      <trkpt lat="41.031582" lon="-3.359487">
        <ele>1233.014</ele>
        <time>2016-07-20T18:33:02Z</time>
      </trkpt>
      <trkpt lat="41.031485" lon="-3.359438">
        <ele>1231.208</ele>
        <time>2016-07-20T18:33:03Z</time>
      </trkpt>
      <trkpt lat="41.031383" lon="-3.359385">
        <ele>1229.876</ele>
        <time>2016-07-20T18:33:04Z</time>
      </trkpt>
      <trkpt lat="41.031275" lon="-3.359344">
        <ele>1229.089</ele>
        <time>2016-07-20T18:33:06Z</time>
      </trkpt>
      <trkpt lat="41.031159" lon="-3.359308">
        <ele>1228.115</ele>
        <time>2016-07-20T18:33:07Z</time>
      </trkpt>
      <trkpt lat="41.031045" lon="-3.359284">
        <ele>1227.721</ele>
        <time>2016-07-20T18:33:08Z</time>
      </trkpt>
      <trkpt lat="41.030932" lon="-3.359266">
        <ele>1227.786</ele>
        <time>2016-07-20T18:33:09Z</time>
      </trkpt>
      <trkpt lat="41.030827" lon="-3.359258">
        <ele>1228.269</ele>
        <time>2016-07-20T18:33:10Z</time>
      </trkpt>
      <trkpt lat="41.030724" lon="-3.359257">
        <ele>1228.359</ele>
        <time>2016-07-20T18:33:11Z</time>
      </trkpt>
      <trkpt lat="41.030621" lon="-3.359268">
        <ele>1228.587</ele>
        <time>2016-07-20T18:33:12Z</time>
      </trkpt>
      <trkpt lat="41.030524" lon="-3.359272">
        <ele>1228.496</ele>
        <time>2016-07-20T18:33:13Z</time>
      </trkpt>
      <trkpt lat="41.030359" lon="-3.359274">
        <ele>1226.531</ele>
        <time>2016-07-20T18:33:15Z</time>
      </trkpt>
      <trkpt lat="41.030214" lon="-3.359269">
        <ele>1223.824</ele>
        <time>2016-07-20T18:33:17Z</time>
      </trkpt>
      <trkpt lat="41.030099" lon="-3.359207">
        <ele>1220.908</ele>
        <time>2016-07-20T18:33:19Z</time>
      </trkpt>
      <trkpt lat="41.030010" lon="-3.359032">
        <ele>1219.120</ele>
        <time>2016-07-20T18:33:21Z</time>
      </trkpt>
      <trkpt lat="41.029892" lon="-3.358855">
        <ele>1216.333</ele>
        <time>2016-07-20T18:33:23Z</time>
      </trkpt>
      <trkpt lat="41.029782" lon="-3.358682">
        <ele>1214.269</ele>
        <time>2016-07-20T18:33:25Z</time>
      </trkpt>
      <trkpt lat="41.029713" lon="-3.358493">
        <ele>1212.125</ele>
        <time>2016-07-20T18:33:27Z</time>
      </trkpt>
      <trkpt lat="41.029705" lon="-3.358260">
        <ele>1209.840</ele>
        <time>2016-07-20T18:33:29Z</time>
      </trkpt>
      <trkpt lat="41.029745" lon="-3.358052">
        <ele>1207.653</ele>
        <time>2016-07-20T18:33:31Z</time>
      </trkpt>
      <trkpt lat="41.029835" lon="-3.357841">
        <ele>1205.583</ele>
        <time>2016-07-20T18:33:33Z</time>
      </trkpt>
      <trkpt lat="41.029893" lon="-3.357729">
        <ele>1204.561</ele>
        <time>2016-07-20T18:33:34Z</time>
      </trkpt>
      <trkpt lat="41.029978" lon="-3.357554">
        <ele>1202.156</ele>
        <time>2016-07-20T18:33:36Z</time>
      </trkpt>
      <trkpt lat="41.029990" lon="-3.357420">
        <ele>1200.159</ele>
        <time>2016-07-20T18:33:38Z</time>
      </trkpt>
      <trkpt lat="41.029926" lon="-3.357318">
        <ele>1200.014</ele>
        <time>2016-07-20T18:33:40Z</time>
      </trkpt>
      <trkpt lat="41.029778" lon="-3.357290">
        <ele>1201.008</ele>
        <time>2016-07-20T18:33:42Z</time>
      </trkpt>
      <trkpt lat="41.029609" lon="-3.357252">
        <ele>1201.316</ele>
        <time>2016-07-20T18:33:44Z</time>
      </trkpt>
      <trkpt lat="41.029516" lon="-3.357220">
        <ele>1201.899</ele>
        <time>2016-07-20T18:33:45Z</time>
      </trkpt>
      <trkpt lat="41.029416" lon="-3.357180">
        <ele>1201.795</ele>
        <time>2016-07-20T18:33:46Z</time>
      </trkpt>
      <trkpt lat="41.029321" lon="-3.357141">
        <ele>1201.641</ele>
        <time>2016-07-20T18:33:47Z</time>
      </trkpt>
      <trkpt lat="41.029213" lon="-3.357097">
        <ele>1201.016</ele>
        <time>2016-07-20T18:33:48Z</time>
      </trkpt>
      <trkpt lat="41.029106" lon="-3.357049">
        <ele>1200.289</ele>
        <time>2016-07-20T18:33:49Z</time>
      </trkpt>
      <trkpt lat="41.028998" lon="-3.357008">
        <ele>1199.979</ele>
        <time>2016-07-20T18:33:50Z</time>
      </trkpt>
      <trkpt lat="41.028887" lon="-3.356977">
        <ele>1199.127</ele>
        <time>2016-07-20T18:33:51Z</time>
      </trkpt>
      <trkpt lat="41.028782" lon="-3.356937">
        <ele>1198.362</ele>
        <time>2016-07-20T18:33:52Z</time>
      </trkpt>
      <trkpt lat="41.028620" lon="-3.356882">
        <ele>1196.283</ele>
        <time>2016-07-20T18:33:54Z</time>
      </trkpt>
      <trkpt lat="41.028483" lon="-3.356827">
        <ele>1194.011</ele>
        <time>2016-07-20T18:33:56Z</time>
      </trkpt>
      <trkpt lat="41.028369" lon="-3.356776">
        <ele>1192.408</ele>
        <time>2016-07-20T18:33:58Z</time>
      </trkpt>
      <trkpt lat="41.028261" lon="-3.356711">
        <ele>1190.527</ele>
        <time>2016-07-20T18:34:00Z</time>
      </trkpt>
      <trkpt lat="41.028160" lon="-3.356645">
        <ele>1188.040</ele>
        <time>2016-07-20T18:34:02Z</time>
      </trkpt>
      <trkpt lat="41.028083" lon="-3.356566">
        <ele>1186.476</ele>
        <time>2016-07-20T18:34:04Z</time>
      </trkpt>
      <trkpt lat="41.027994" lon="-3.356457">
        <ele>1184.582</ele>
        <time>2016-07-20T18:34:07Z</time>
      </trkpt>
      <trkpt lat="41.027935" lon="-3.356362">
        <ele>1183.597</ele>
        <time>2016-07-20T18:34:09Z</time>
      </trkpt>
      <trkpt lat="41.027885" lon="-3.356213">
        <ele>1182.650</ele>
        <time>2016-07-20T18:34:12Z</time>
      </trkpt>
      <trkpt lat="41.027874" lon="-3.356081">
        <ele>1181.940</ele>
        <time>2016-07-20T18:34:14Z</time>
      </trkpt>
      <trkpt lat="41.027868" lon="-3.355894">
        <ele>1180.418</ele>
        <time>2016-07-20T18:34:16Z</time>
      </trkpt>
      <trkpt lat="41.027821" lon="-3.355678">
        <ele>1180.046</ele>
        <time>2016-07-20T18:34:18Z</time>
      </trkpt>
      <trkpt lat="41.027740" lon="-3.355478">
        <ele>1179.088</ele>
        <time>2016-07-20T18:34:20Z</time>
      </trkpt>
      <trkpt lat="41.027677" lon="-3.355259">
        <ele>1178.516</ele>
        <time>2016-07-20T18:34:22Z</time>
      </trkpt>
      <trkpt lat="41.027659" lon="-3.355139">
        <ele>1178.808</ele>
        <time>2016-07-20T18:34:23Z</time>
      </trkpt>
      <trkpt lat="41.027652" lon="-3.354909">
        <ele>1178.525</ele>
        <time>2016-07-20T18:34:25Z</time>
      </trkpt>
      <trkpt lat="41.027693" lon="-3.354673">
        <ele>1178.658</ele>
        <time>2016-07-20T18:34:26Z</time>
      </trkpt>
      <trkpt lat="41.027731" lon="-3.354558">
        <ele>1178.654</ele>
        <time>2016-07-20T18:34:27Z</time>
      </trkpt>
      <trkpt lat="41.027774" lon="-3.354450">
        <ele>1178.120</ele>
        <time>2016-07-20T18:34:28Z</time>
      </trkpt>
      <trkpt lat="41.027814" lon="-3.354343">
        <ele>1177.415</ele>
        <time>2016-07-20T18:34:29Z</time>
      </trkpt>
      <trkpt lat="41.027860" lon="-3.354236">
        <ele>1177.068</ele>
        <time>2016-07-20T18:34:30Z</time>
      </trkpt>
      <trkpt lat="41.027915" lon="-3.354125">
        <ele>1176.758</ele>
        <time>2016-07-20T18:34:31Z</time>
      </trkpt>
      <trkpt lat="41.027966" lon="-3.354012">
        <ele>1176.486</ele>
        <time>2016-07-20T18:34:32Z</time>
      </trkpt>
      <trkpt lat="41.028013" lon="-3.353908">
        <ele>1175.515</ele>
        <time>2016-07-20T18:34:33Z</time>
      </trkpt>
      <trkpt lat="41.028066" lon="-3.353802">
        <ele>1174.565</ele>
        <time>2016-07-20T18:34:34Z</time>
      </trkpt>
      <trkpt lat="41.028127" lon="-3.353686">
        <ele>1173.711</ele>
        <time>2016-07-20T18:34:35Z</time>
      </trkpt>
      <trkpt lat="41.028193" lon="-3.353580">
        <ele>1172.308</ele>
        <time>2016-07-20T18:34:36Z</time>
      </trkpt>
      <trkpt lat="41.028258" lon="-3.353474">
        <ele>1170.842</ele>
        <time>2016-07-20T18:34:37Z</time>
      </trkpt>
      <trkpt lat="41.028334" lon="-3.353350">
        <ele>1170.095</ele>
        <time>2016-07-20T18:34:38Z</time>
      </trkpt>
      <trkpt lat="41.028400" lon="-3.353234">
        <ele>1169.361</ele>
        <time>2016-07-20T18:34:39Z</time>
      </trkpt>
      <trkpt lat="41.028468" lon="-3.353108">
        <ele>1168.697</ele>
        <time>2016-07-20T18:34:40Z</time>
      </trkpt>
      <trkpt lat="41.028521" lon="-3.352993">
        <ele>1167.892</ele>
        <time>2016-07-20T18:34:41Z</time>
      </trkpt>
      <trkpt lat="41.028567" lon="-3.352875">
        <ele>1167.825</ele>
        <time>2016-07-20T18:34:42Z</time>
      </trkpt>
      <trkpt lat="41.028597" lon="-3.352647">
        <ele>1167.275</ele>
        <time>2016-07-20T18:34:44Z</time>
      </trkpt>
      <trkpt lat="41.028582" lon="-3.352422">
        <ele>1166.433</ele>
        <time>2016-07-20T18:34:46Z</time>
      </trkpt>
      <trkpt lat="41.028604" lon="-3.352171">
        <ele>1166.944</ele>
        <time>2016-07-20T18:34:48Z</time>
      </trkpt>
      <trkpt lat="41.028632" lon="-3.352038">
        <ele>1168.005</ele>
        <time>2016-07-20T18:34:49Z</time>
      </trkpt>
      <trkpt lat="41.028669" lon="-3.351899">
        <ele>1168.815</ele>
        <time>2016-07-20T18:34:50Z</time>
      </trkpt>
      <trkpt lat="41.028723" lon="-3.351758">
        <ele>1169.408</ele>
        <time>2016-07-20T18:34:51Z</time>
      </trkpt>
      <trkpt lat="41.028786" lon="-3.351629">
        <ele>1169.725</ele>
        <time>2016-07-20T18:34:52Z</time>
      </trkpt>
      <trkpt lat="41.028853" lon="-3.351506">
        <ele>1169.698</ele>
        <time>2016-07-20T18:34:53Z</time>
      </trkpt>
      <trkpt lat="41.028928" lon="-3.351372">
        <ele>1169.744</ele>
        <time>2016-07-20T18:34:54Z</time>
      </trkpt>
      <trkpt lat="41.029010" lon="-3.351251">
        <ele>1169.350</ele>
        <time>2016-07-20T18:34:55Z</time>
      </trkpt>
      <trkpt lat="41.029081" lon="-3.351158">
        <ele>1168.765</ele>
        <time>2016-07-20T18:34:56Z</time>
      </trkpt>
      <trkpt lat="41.029156" lon="-3.351088">
        <ele>1167.868</ele>
        <time>2016-07-20T18:34:57Z</time>
      </trkpt>
      <trkpt lat="41.029311" lon="-3.351038">
        <ele>1165.788</ele>
        <time>2016-07-20T18:34:59Z</time>
      </trkpt>
      <trkpt lat="41.029463" lon="-3.351063">
        <ele>1163.246</ele>
        <time>2016-07-20T18:35:01Z</time>
      </trkpt>
      <trkpt lat="41.029579" lon="-3.350939">
        <ele>1161.771</ele>
        <time>2016-07-20T18:35:03Z</time>
      </trkpt>
      <trkpt lat="41.029595" lon="-3.350736">
        <ele>1160.741</ele>
        <time>2016-07-20T18:35:05Z</time>
      </trkpt>
      <trkpt lat="41.029607" lon="-3.350607">
        <ele>1160.015</ele>
        <time>2016-07-20T18:35:06Z</time>
      </trkpt>
      <trkpt lat="41.029620" lon="-3.350471">
        <ele>1159.808</ele>
        <time>2016-07-20T18:35:07Z</time>
      </trkpt>
      <trkpt lat="41.029634" lon="-3.350335">
        <ele>1159.148</ele>
        <time>2016-07-20T18:35:08Z</time>
      </trkpt>
      <trkpt lat="41.029646" lon="-3.350201">
        <ele>1158.871</ele>
        <time>2016-07-20T18:35:09Z</time>
      </trkpt>
      <trkpt lat="41.029672" lon="-3.350060">
        <ele>1158.837</ele>
        <time>2016-07-20T18:35:10Z</time>
      </trkpt>
      <trkpt lat="41.029717" lon="-3.349931">
        <ele>1158.343</ele>
        <time>2016-07-20T18:35:11Z</time>
      </trkpt>
      <trkpt lat="41.029780" lon="-3.349827">
        <ele>1157.468</ele>
        <time>2016-07-20T18:35:12Z</time>
      </trkpt>
      <trkpt lat="41.029866" lon="-3.349733">
        <ele>1156.711</ele>
        <time>2016-07-20T18:35:13Z</time>
      </trkpt>
      <trkpt lat="41.029964" lon="-3.349648">
        <ele>1156.051</ele>
        <time>2016-07-20T18:35:14Z</time>
      </trkpt>
      <trkpt lat="41.030062" lon="-3.349589">
        <ele>1155.049</ele>
        <time>2016-07-20T18:35:15Z</time>
      </trkpt>
      <trkpt lat="41.030172" lon="-3.349557">
        <ele>1154.228</ele>
        <time>2016-07-20T18:35:16Z</time>
      </trkpt>
      <trkpt lat="41.030280" lon="-3.349567">
        <ele>1154.189</ele>
        <time>2016-07-20T18:35:17Z</time>
      </trkpt>
      <trkpt lat="41.030377" lon="-3.349592">
        <ele>1154.717</ele>
        <time>2016-07-20T18:35:18Z</time>
      </trkpt>
      <trkpt lat="41.030464" lon="-3.349634">
        <ele>1154.808</ele>
        <time>2016-07-20T18:35:19Z</time>
      </trkpt>
      <trkpt lat="41.030580" lon="-3.349724">
        <ele>1155.563</ele>
        <time>2016-07-20T18:35:21Z</time>
      </trkpt>
      <trkpt lat="41.030654" lon="-3.349796">
        <ele>1155.886</ele>
        <time>2016-07-20T18:35:33Z</time>
      </trkpt>
      <trkpt lat="41.030756" lon="-3.349818">
        <ele>1156.112</ele>
        <time>2016-07-20T18:35:37Z</time>
      </trkpt>
      <trkpt lat="41.030846" lon="-3.349759">
        <ele>1156.278</ele>
        <time>2016-07-20T18:35:44Z</time>
      </trkpt>
      <trkpt lat="41.030905" lon="-3.349642">
        <ele>1154.513</ele>
        <time>2016-07-20T18:35:52Z</time>
      </trkpt>
      <trkpt lat="41.031015" lon="-3.349555">
        <ele>1151.986</ele>
        <time>2016-07-20T18:35:55Z</time>
      </trkpt>
      <trkpt lat="41.031110" lon="-3.349508">
        <ele>1150.376</ele>
        <time>2016-07-20T18:35:57Z</time>
      </trkpt>
      <trkpt lat="41.031203" lon="-3.349378">
        <ele>1147.284</ele>
        <time>2016-07-20T18:35:59Z</time>
      </trkpt>
      <trkpt lat="41.031190" lon="-3.349207">
        <ele>1145.323</ele>
        <time>2016-07-20T18:36:01Z</time>
      </trkpt>
      <trkpt lat="41.031181" lon="-3.348983">
        <ele>1144.783</ele>
        <time>2016-07-20T18:36:03Z</time>
      </trkpt>
      <trkpt lat="41.031201" lon="-3.348852">
        <ele>1144.711</ele>
        <time>2016-07-20T18:36:04Z</time>
      </trkpt>
      <trkpt lat="41.031232" lon="-3.348720">
        <ele>1144.608</ele>
        <time>2016-07-20T18:36:05Z</time>
      </trkpt>
      <trkpt lat="41.031259" lon="-3.348597">
        <ele>1144.013</ele>
        <time>2016-07-20T18:36:06Z</time>
      </trkpt>
      <trkpt lat="41.031285" lon="-3.348468">
        <ele>1143.716</ele>
        <time>2016-07-20T18:36:07Z</time>
      </trkpt>
      <trkpt lat="41.031313" lon="-3.348327">
        <ele>1143.162</ele>
        <time>2016-07-20T18:36:08Z</time>
      </trkpt>
      <trkpt lat="41.031330" lon="-3.348193">
        <ele>1142.048</ele>
        <time>2016-07-20T18:36:09Z</time>
      </trkpt>
      <trkpt lat="41.031355" lon="-3.347960">
        <ele>1139.523</ele>
        <time>2016-07-20T18:36:11Z</time>
      </trkpt>
      <trkpt lat="41.031376" lon="-3.347831">
        <ele>1138.036</ele>
        <time>2016-07-20T18:36:12Z</time>
      </trkpt>
      <trkpt lat="41.031434" lon="-3.347653">
        <ele>1136.546</ele>
        <time>2016-07-20T18:36:14Z</time>
      </trkpt>
      <trkpt lat="41.031537" lon="-3.347559">
        <ele>1135.644</ele>
        <time>2016-07-20T18:36:16Z</time>
      </trkpt>
      <trkpt lat="41.031694" lon="-3.347526">
        <ele>1136.162</ele>
        <time>2016-07-20T18:36:18Z</time>
      </trkpt>
      <trkpt lat="41.031829" lon="-3.347443">
        <ele>1136.383</ele>
        <time>2016-07-20T18:36:20Z</time>
      </trkpt>
      <trkpt lat="41.031919" lon="-3.347273">
        <ele>1136.411</ele>
        <time>2016-07-20T18:36:21Z</time>
      </trkpt>
      <trkpt lat="41.032018" lon="-3.347089">
        <ele>1137.108</ele>
        <time>2016-07-20T18:36:23Z</time>
      </trkpt>
      <trkpt lat="41.032138" lon="-3.346967">
        <ele>1137.597</ele>
        <time>2016-07-20T18:36:25Z</time>
      </trkpt>
      <trkpt lat="41.032240" lon="-3.346858">
        <ele>1138.160</ele>
        <time>2016-07-20T18:36:27Z</time>
      </trkpt>
      <trkpt lat="41.032296" lon="-3.346750">
        <ele>1138.896</ele>
        <time>2016-07-20T18:36:29Z</time>
      </trkpt>
      <trkpt lat="41.032268" lon="-3.346630">
        <ele>1139.962</ele>
        <time>2016-07-20T18:36:31Z</time>
      </trkpt>
      <trkpt lat="41.032177" lon="-3.346523">
        <ele>1140.327</ele>
        <time>2016-07-20T18:36:33Z</time>
      </trkpt>
      <trkpt lat="41.032085" lon="-3.346385">
        <ele>1139.940</ele>
        <time>2016-07-20T18:36:35Z</time>
      </trkpt>
      <trkpt lat="41.032037" lon="-3.346208">
        <ele>1141.360</ele>
        <time>2016-07-20T18:36:37Z</time>
      </trkpt>
      <trkpt lat="41.032033" lon="-3.346026">
        <ele>1141.628</ele>
        <time>2016-07-20T18:36:39Z</time>
      </trkpt>
      <trkpt lat="41.032117" lon="-3.345760">
        <ele>1142.855</ele>
        <time>2016-07-20T18:36:40Z</time>
      </trkpt>
      <trkpt lat="41.032193" lon="-3.345648">
        <ele>1143.007</ele>
        <time>2016-07-20T18:36:41Z</time>
      </trkpt>
      <trkpt lat="41.032262" lon="-3.345537">
        <ele>1142.917</ele>
        <time>2016-07-20T18:36:42Z</time>
      </trkpt>
      <trkpt lat="41.032328" lon="-3.345426">
        <ele>1142.408</ele>
        <time>2016-07-20T18:36:43Z</time>
      </trkpt>
      <trkpt lat="41.032384" lon="-3.345319">
        <ele>1142.016</ele>
        <time>2016-07-20T18:36:44Z</time>
      </trkpt>
      <trkpt lat="41.032427" lon="-3.345210">
        <ele>1141.429</ele>
        <time>2016-07-20T18:36:45Z</time>
      </trkpt>
      <trkpt lat="41.032459" lon="-3.345089">
        <ele>1140.925</ele>
        <time>2016-07-20T18:36:46Z</time>
      </trkpt>
      <trkpt lat="41.032495" lon="-3.344858">
        <ele>1141.211</ele>
        <time>2016-07-20T18:36:48Z</time>
      </trkpt>
      <trkpt lat="41.032558" lon="-3.344655">
        <ele>1141.976</ele>
        <time>2016-07-20T18:36:50Z</time>
      </trkpt>
      <trkpt lat="41.032558" lon="-3.344457">
        <ele>1142.869</ele>
        <time>2016-07-20T18:36:52Z</time>
      </trkpt>
      <trkpt lat="41.032496" lon="-3.344288">
        <ele>1142.719</ele>
        <time>2016-07-20T18:36:54Z</time>
      </trkpt>
      <trkpt lat="41.032454" lon="-3.344137">
        <ele>1142.277</ele>
        <time>2016-07-20T18:36:56Z</time>
      </trkpt>
      <trkpt lat="41.032459" lon="-3.343962">
        <ele>1141.377</ele>
        <time>2016-07-20T18:36:58Z</time>
      </trkpt>
      <trkpt lat="41.032491" lon="-3.343836">
        <ele>1141.361</ele>
        <time>2016-07-20T18:36:59Z</time>
      </trkpt>
      <trkpt lat="41.032554" lon="-3.343713">
        <ele>1141.927</ele>
        <time>2016-07-20T18:37:00Z</time>
      </trkpt>
      <trkpt lat="41.032622" lon="-3.343604">
        <ele>1143.008</ele>
        <time>2016-07-20T18:37:01Z</time>
      </trkpt>
      <trkpt lat="41.032714" lon="-3.343481">
        <ele>1144.128</ele>
        <time>2016-07-20T18:37:02Z</time>
      </trkpt>
      <trkpt lat="41.032808" lon="-3.343366">
        <ele>1144.861</ele>
        <time>2016-07-20T18:37:03Z</time>
      </trkpt>
      <trkpt lat="41.032897" lon="-3.343256">
        <ele>1145.987</ele>
        <time>2016-07-20T18:37:04Z</time>
      </trkpt>
      <trkpt lat="41.032980" lon="-3.343158">
        <ele>1147.153</ele>
        <time>2016-07-20T18:37:06Z</time>
      </trkpt>
      <trkpt lat="41.033055" lon="-3.343060">
        <ele>1148.128</ele>
        <time>2016-07-20T18:37:07Z</time>
      </trkpt>
      <trkpt lat="41.033095" lon="-3.342951">
        <ele>1148.831</ele>
        <time>2016-07-20T18:37:08Z</time>
      </trkpt>
      <trkpt lat="41.033126" lon="-3.342711">
        <ele>1150.211</ele>
        <time>2016-07-20T18:37:10Z</time>
      </trkpt>
      <trkpt lat="41.033125" lon="-3.342568">
        <ele>1150.899</ele>
        <time>2016-07-20T18:37:11Z</time>
      </trkpt>
      <trkpt lat="41.033128" lon="-3.342431">
        <ele>1151.076</ele>
        <time>2016-07-20T18:37:12Z</time>
      </trkpt>
      <trkpt lat="41.033137" lon="-3.342271">
        <ele>1150.990</ele>
        <time>2016-07-20T18:37:13Z</time>
      </trkpt>
      <trkpt lat="41.033146" lon="-3.342118">
        <ele>1150.819</ele>
        <time>2016-07-20T18:37:14Z</time>
      </trkpt>
      <trkpt lat="41.033154" lon="-3.341979">
        <ele>1150.708</ele>
        <time>2016-07-20T18:37:15Z</time>
      </trkpt>
      <trkpt lat="41.033164" lon="-3.341830">
        <ele>1150.738</ele>
        <time>2016-07-20T18:37:16Z</time>
      </trkpt>
      <trkpt lat="41.033172" lon="-3.341683">
        <ele>1150.771</ele>
        <time>2016-07-20T18:37:17Z</time>
      </trkpt>
      <trkpt lat="41.033174" lon="-3.341547">
        <ele>1150.977</ele>
        <time>2016-07-20T18:37:18Z</time>
      </trkpt>
      <trkpt lat="41.033170" lon="-3.341362">
        <ele>1152.213</ele>
        <time>2016-07-20T18:37:20Z</time>
      </trkpt>
      <trkpt lat="41.033142" lon="-3.341231">
        <ele>1153.038</ele>
        <time>2016-07-20T18:37:23Z</time>
      </trkpt>
      <trkpt lat="41.033067" lon="-3.341129">
        <ele>1154.611</ele>
        <time>2016-07-20T18:37:30Z</time>
      </trkpt>
      <trkpt lat="41.032969" lon="-3.341156">
        <ele>1158.011</ele>
        <time>2016-07-20T18:37:32Z</time>
      </trkpt>
      <trkpt lat="41.032854" lon="-3.341210">
        <ele>1159.939</ele>
        <time>2016-07-20T18:37:34Z</time>
      </trkpt>
      <trkpt lat="41.032694" lon="-3.341276">
        <ele>1160.196</ele>
        <time>2016-07-20T18:37:36Z</time>
      </trkpt>
      <trkpt lat="41.032600" lon="-3.341307">
        <ele>1160.131</ele>
        <time>2016-07-20T18:37:37Z</time>
      </trkpt>
      <trkpt lat="41.032500" lon="-3.341340">
        <ele>1159.824</ele>
        <time>2016-07-20T18:37:38Z</time>
      </trkpt>
      <trkpt lat="41.032396" lon="-3.341380">
        <ele>1159.708</ele>
        <time>2016-07-20T18:37:39Z</time>
      </trkpt>
      <trkpt lat="41.032293" lon="-3.341426">
        <ele>1159.310</ele>
        <time>2016-07-20T18:37:40Z</time>
      </trkpt>
      <trkpt lat="41.032187" lon="-3.341466">
        <ele>1159.063</ele>
        <time>2016-07-20T18:37:41Z</time>
      </trkpt>
      <trkpt lat="41.032076" lon="-3.341512">
        <ele>1158.849</ele>
        <time>2016-07-20T18:37:42Z</time>
      </trkpt>
      <trkpt lat="41.031969" lon="-3.341556">
        <ele>1158.115</ele>
        <time>2016-07-20T18:37:43Z</time>
      </trkpt>
      <trkpt lat="41.031859" lon="-3.341600">
        <ele>1157.610</ele>
        <time>2016-07-20T18:37:44Z</time>
      </trkpt>
      <trkpt lat="41.031745" lon="-3.341643">
        <ele>1157.323</ele>
        <time>2016-07-20T18:37:45Z</time>
      </trkpt>
      <trkpt lat="41.031634" lon="-3.341686">
        <ele>1157.123</ele>
        <time>2016-07-20T18:37:46Z</time>
      </trkpt>
      <trkpt lat="41.031525" lon="-3.341727">
        <ele>1156.921</ele>
        <time>2016-07-20T18:37:47Z</time>
      </trkpt>
      <trkpt lat="41.031412" lon="-3.341769">
        <ele>1156.672</ele>
        <time>2016-07-20T18:37:48Z</time>
      </trkpt>
      <trkpt lat="41.031295" lon="-3.341810">
        <ele>1156.413</ele>
        <time>2016-07-20T18:37:49Z</time>
      </trkpt>
      <trkpt lat="41.031180" lon="-3.341853">
        <ele>1156.214</ele>
        <time>2016-07-20T18:37:50Z</time>
      </trkpt>
      <trkpt lat="41.031068" lon="-3.341896">
        <ele>1156.208</ele>
        <time>2016-07-20T18:37:51Z</time>
      </trkpt>
      <trkpt lat="41.030959" lon="-3.341938">
        <ele>1156.528</ele>
        <time>2016-07-20T18:37:52Z</time>
      </trkpt>
      <trkpt lat="41.030859" lon="-3.341974">
        <ele>1156.411</ele>
        <time>2016-07-20T18:37:53Z</time>
      </trkpt>
      <trkpt lat="41.030761" lon="-3.342023">
        <ele>1156.977</ele>
        <time>2016-07-20T18:37:54Z</time>
      </trkpt>
      <trkpt lat="41.030670" lon="-3.342098">
        <ele>1157.573</ele>
        <time>2016-07-20T18:37:55Z</time>
      </trkpt>
      <trkpt lat="41.030559" lon="-3.342182">
        <ele>1158.168</ele>
        <time>2016-07-20T18:37:56Z</time>
      </trkpt>
      <trkpt lat="41.030443" lon="-3.342267">
        <ele>1158.961</ele>
        <time>2016-07-20T18:37:57Z</time>
      </trkpt>
      <trkpt lat="41.030328" lon="-3.342350">
        <ele>1159.311</ele>
        <time>2016-07-20T18:37:58Z</time>
      </trkpt>
      <trkpt lat="41.030211" lon="-3.342435">
        <ele>1160.019</ele>
        <time>2016-07-20T18:37:59Z</time>
      </trkpt>
      <trkpt lat="41.030097" lon="-3.342516">
        <ele>1160.749</ele>
        <time>2016-07-20T18:38:00Z</time>
      </trkpt>
      <trkpt lat="41.029988" lon="-3.342589">
        <ele>1161.502</ele>
        <time>2016-07-20T18:38:01Z</time>
      </trkpt>
      <trkpt lat="41.029881" lon="-3.342661">
        <ele>1161.922</ele>
        <time>2016-07-20T18:38:02Z</time>
      </trkpt>
      <trkpt lat="41.029772" lon="-3.342730">
        <ele>1163.008</ele>
        <time>2016-07-20T18:38:03Z</time>
      </trkpt>
      <trkpt lat="41.029673" lon="-3.342801">
        <ele>1163.515</ele>
        <time>2016-07-20T18:38:04Z</time>
      </trkpt>
      <trkpt lat="41.029571" lon="-3.342876">
        <ele>1164.398</ele>
        <time>2016-07-20T18:38:05Z</time>
      </trkpt>
      <trkpt lat="41.029472" lon="-3.342953">
        <ele>1165.064</ele>
        <time>2016-07-20T18:38:06Z</time>
      </trkpt>
      <trkpt lat="41.029385" lon="-3.343029">
        <ele>1166.180</ele>
        <time>2016-07-20T18:38:07Z</time>
      </trkpt>
      <trkpt lat="41.029304" lon="-3.343105">
        <ele>1167.195</ele>
        <time>2016-07-20T18:38:08Z</time>
      </trkpt>
      <trkpt lat="41.029230" lon="-3.343190">
        <ele>1167.918</ele>
        <time>2016-07-20T18:38:09Z</time>
      </trkpt>
      <trkpt lat="41.029165" lon="-3.343286">
        <ele>1168.858</ele>
        <time>2016-07-20T18:38:10Z</time>
      </trkpt>
      <trkpt lat="41.029097" lon="-3.343396">
        <ele>1169.046</ele>
        <time>2016-07-20T18:38:11Z</time>
      </trkpt>
      <trkpt lat="41.029029" lon="-3.343510">
        <ele>1169.479</ele>
        <time>2016-07-20T18:38:12Z</time>
      </trkpt>
      <trkpt lat="41.028971" lon="-3.343627">
        <ele>1169.605</ele>
        <time>2016-07-20T18:38:13Z</time>
      </trkpt>
      <trkpt lat="41.028914" lon="-3.343741">
        <ele>1169.725</ele>
        <time>2016-07-20T18:38:14Z</time>
      </trkpt>
      <trkpt lat="41.028848" lon="-3.343849">
        <ele>1170.008</ele>
        <time>2016-07-20T18:38:15Z</time>
      </trkpt>
      <trkpt lat="41.028777" lon="-3.343952">
        <ele>1169.868</ele>
        <time>2016-07-20T18:38:16Z</time>
      </trkpt>
      <trkpt lat="41.028710" lon="-3.344045">
        <ele>1169.511</ele>
        <time>2016-07-20T18:38:17Z</time>
      </trkpt>
      <trkpt lat="41.028639" lon="-3.344129">
        <ele>1169.317</ele>
        <time>2016-07-20T18:38:18Z</time>
      </trkpt>
      <trkpt lat="41.028504" lon="-3.344297">
        <ele>1169.933</ele>
        <time>2016-07-20T18:38:20Z</time>
      </trkpt>
      <trkpt lat="41.028432" lon="-3.344382">
        <ele>1170.638</ele>
        <time>2016-07-20T18:38:21Z</time>
      </trkpt>
      <trkpt lat="41.028346" lon="-3.344458">
        <ele>1170.881</ele>
        <time>2016-07-20T18:38:22Z</time>
      </trkpt>
      <trkpt lat="41.028159" lon="-3.344597">
        <ele>1170.991</ele>
        <time>2016-07-20T18:38:23Z</time>
      </trkpt>
      <trkpt lat="41.028055" lon="-3.344661">
        <ele>1170.129</ele>
        <time>2016-07-20T18:38:25Z</time>
      </trkpt>
      <trkpt lat="41.027954" lon="-3.344715">
        <ele>1169.947</ele>
        <time>2016-07-20T18:38:26Z</time>
      </trkpt>
      <trkpt lat="41.027849" lon="-3.344769">
        <ele>1169.629</ele>
        <time>2016-07-20T18:38:27Z</time>
      </trkpt>
      <trkpt lat="41.027742" lon="-3.344822">
        <ele>1169.221</ele>
        <time>2016-07-20T18:38:28Z</time>
      </trkpt>
      <trkpt lat="41.027637" lon="-3.344867">
        <ele>1168.308</ele>
        <time>2016-07-20T18:38:29Z</time>
      </trkpt>
      <trkpt lat="41.027535" lon="-3.344906">
        <ele>1167.245</ele>
        <time>2016-07-20T18:38:30Z</time>
      </trkpt>
      <trkpt lat="41.027426" lon="-3.344952">
        <ele>1166.088</ele>
        <time>2016-07-20T18:38:31Z</time>
      </trkpt>
      <trkpt lat="41.027315" lon="-3.345008">
        <ele>1164.994</ele>
        <time>2016-07-20T18:38:32Z</time>
      </trkpt>
      <trkpt lat="41.027210" lon="-3.345059">
        <ele>1164.050</ele>
        <time>2016-07-20T18:38:33Z</time>
      </trkpt>
      <trkpt lat="41.027098" lon="-3.345123">
        <ele>1163.525</ele>
        <time>2016-07-20T18:38:34Z</time>
      </trkpt>
      <trkpt lat="41.026990" lon="-3.345183">
        <ele>1163.018</ele>
        <time>2016-07-20T18:38:35Z</time>
      </trkpt>
      <trkpt lat="41.026878" lon="-3.345247">
        <ele>1163.098</ele>
        <time>2016-07-20T18:38:36Z</time>
      </trkpt>
      <trkpt lat="41.026761" lon="-3.345291">
        <ele>1162.886</ele>
        <time>2016-07-20T18:38:37Z</time>
      </trkpt>
      <trkpt lat="41.026638" lon="-3.345329">
        <ele>1162.751</ele>
        <time>2016-07-20T18:38:38Z</time>
      </trkpt>
      <trkpt lat="41.026512" lon="-3.345363">
        <ele>1163.201</ele>
        <time>2016-07-20T18:38:39Z</time>
      </trkpt>
      <trkpt lat="41.026395" lon="-3.345394">
        <ele>1163.011</ele>
        <time>2016-07-20T18:38:40Z</time>
      </trkpt>
      <trkpt lat="41.026288" lon="-3.345435">
        <ele>1162.808</ele>
        <time>2016-07-20T18:38:41Z</time>
      </trkpt>
      <trkpt lat="41.026188" lon="-3.345500">
        <ele>1162.816</ele>
        <time>2016-07-20T18:38:42Z</time>
      </trkpt>
      <trkpt lat="41.026102" lon="-3.345587">
        <ele>1162.419</ele>
        <time>2016-07-20T18:38:43Z</time>
      </trkpt>
      <trkpt lat="41.026035" lon="-3.345693">
        <ele>1161.925</ele>
        <time>2016-07-20T18:38:44Z</time>
      </trkpt>
      <trkpt lat="41.025978" lon="-3.345808">
        <ele>1162.091</ele>
        <time>2016-07-20T18:38:45Z</time>
      </trkpt>
      <trkpt lat="41.025917" lon="-3.345933">
        <ele>1162.016</ele>
        <time>2016-07-20T18:38:46Z</time>
      </trkpt>
      <trkpt lat="41.025860" lon="-3.346054">
        <ele>1162.199</ele>
        <time>2016-07-20T18:38:47Z</time>
      </trkpt>
      <trkpt lat="41.025802" lon="-3.346145">
        <ele>1162.219</ele>
        <time>2016-07-20T18:38:48Z</time>
      </trkpt>
      <trkpt lat="41.025731" lon="-3.346226">
        <ele>1161.927</ele>
        <time>2016-07-20T18:38:49Z</time>
      </trkpt>
      <trkpt lat="41.025559" lon="-3.346347">
        <ele>1162.688</ele>
        <time>2016-07-20T18:38:51Z</time>
      </trkpt>
      <trkpt lat="41.025455" lon="-3.346381">
        <ele>1163.324</ele>
        <time>2016-07-20T18:38:52Z</time>
      </trkpt>
      <trkpt lat="41.025341" lon="-3.346407">
        <ele>1164.626</ele>
        <time>2016-07-20T18:38:53Z</time>
      </trkpt>
      <trkpt lat="41.025218" lon="-3.346433">
        <ele>1165.408</ele>
        <time>2016-07-20T18:38:54Z</time>
      </trkpt>
      <trkpt lat="41.025101" lon="-3.346470">
        <ele>1166.239</ele>
        <time>2016-07-20T18:38:55Z</time>
      </trkpt>
      <trkpt lat="41.024993" lon="-3.346543">
        <ele>1167.072</ele>
        <time>2016-07-20T18:38:56Z</time>
      </trkpt>
      <trkpt lat="41.024912" lon="-3.346641">
        <ele>1167.518</ele>
        <time>2016-07-20T18:38:57Z</time>
      </trkpt>
      <trkpt lat="41.024834" lon="-3.346744">
        <ele>1167.774</ele>
        <time>2016-07-20T18:38:58Z</time>
      </trkpt>
      <trkpt lat="41.024749" lon="-3.346847">
        <ele>1168.599</ele>
        <time>2016-07-20T18:38:59Z</time>
      </trkpt>
      <trkpt lat="41.024669" lon="-3.346936">
        <ele>1169.162</ele>
        <time>2016-07-20T18:39:00Z</time>
      </trkpt>
      <trkpt lat="41.024581" lon="-3.347018">
        <ele>1169.242</ele>
        <time>2016-07-20T18:39:01Z</time>
      </trkpt>
      <trkpt lat="41.024482" lon="-3.347073">
        <ele>1169.710</ele>
        <time>2016-07-20T18:39:02Z</time>
      </trkpt>
      <trkpt lat="41.024394" lon="-3.347115">
        <ele>1169.075</ele>
        <time>2016-07-20T18:39:03Z</time>
      </trkpt>
      <trkpt lat="41.024225" lon="-3.347157">
        <ele>1167.628</ele>
        <time>2016-07-20T18:39:05Z</time>
      </trkpt>
      <trkpt lat="41.024056" lon="-3.347118">
        <ele>1167.520</ele>
        <time>2016-07-20T18:39:07Z</time>
      </trkpt>
      <trkpt lat="41.023897" lon="-3.347016">
        <ele>1168.008</ele>
        <time>2016-07-20T18:39:09Z</time>
      </trkpt>
      <trkpt lat="41.023810" lon="-3.346933">
        <ele>1168.178</ele>
        <time>2016-07-20T18:39:10Z</time>
      </trkpt>
      <trkpt lat="41.023710" lon="-3.346842">
        <ele>1168.141</ele>
        <time>2016-07-20T18:39:11Z</time>
      </trkpt>
      <trkpt lat="41.023610" lon="-3.346751">
        <ele>1167.947</ele>
        <time>2016-07-20T18:39:12Z</time>
      </trkpt>
      <trkpt lat="41.023506" lon="-3.346665">
        <ele>1167.743</ele>
        <time>2016-07-20T18:39:13Z</time>
      </trkpt>
      <trkpt lat="41.023392" lon="-3.346579">
        <ele>1167.658</ele>
        <time>2016-07-20T18:39:14Z</time>
      </trkpt>
      <trkpt lat="41.023273" lon="-3.346492">
        <ele>1167.171</ele>
        <time>2016-07-20T18:39:15Z</time>
      </trkpt>
      <trkpt lat="41.023167" lon="-3.346411">
        <ele>1166.691</ele>
        <time>2016-07-20T18:39:16Z</time>
      </trkpt>
      <trkpt lat="41.023051" lon="-3.346340">
        <ele>1165.759</ele>
        <time>2016-07-20T18:39:17Z</time>
      </trkpt>
      <trkpt lat="41.022937" lon="-3.346279">
        <ele>1165.636</ele>
        <time>2016-07-20T18:39:18Z</time>
      </trkpt>
      <trkpt lat="41.022826" lon="-3.346219">
        <ele>1165.517</ele>
        <time>2016-07-20T18:39:19Z</time>
      </trkpt>
      <trkpt lat="41.022712" lon="-3.346159">
        <ele>1164.418</ele>
        <time>2016-07-20T18:39:20Z</time>
      </trkpt>
      <trkpt lat="41.022609" lon="-3.346116">
        <ele>1164.008</ele>
        <time>2016-07-20T18:39:21Z</time>
      </trkpt>
      <trkpt lat="41.022507" lon="-3.346067">
        <ele>1163.794</ele>
        <time>2016-07-20T18:39:22Z</time>
      </trkpt>
      <trkpt lat="41.022404" lon="-3.346014">
        <ele>1163.557</ele>
        <time>2016-07-20T18:39:23Z</time>
      </trkpt>
      <trkpt lat="41.022309" lon="-3.345960">
        <ele>1163.693</ele>
        <time>2016-07-20T18:39:24Z</time>
      </trkpt>
      <trkpt lat="41.022204" lon="-3.345907">
        <ele>1163.189</ele>
        <time>2016-07-20T18:39:25Z</time>
      </trkpt>
      <trkpt lat="41.022101" lon="-3.345859">
        <ele>1162.544</ele>
        <time>2016-07-20T18:39:26Z</time>
      </trkpt>
      <trkpt lat="41.022003" lon="-3.345808">
        <ele>1161.657</ele>
        <time>2016-07-20T18:39:27Z</time>
      </trkpt>
      <trkpt lat="41.021920" lon="-3.345755">
        <ele>1160.777</ele>
        <time>2016-07-20T18:39:28Z</time>
      </trkpt>
      <trkpt lat="41.021791" lon="-3.345655">
        <ele>1157.565</ele>
        <time>2016-07-20T18:39:30Z</time>
      </trkpt>
      <trkpt lat="41.021708" lon="-3.345577">
        <ele>1154.844</ele>
        <time>2016-07-20T18:39:32Z</time>
      </trkpt>
      <trkpt lat="41.021641" lon="-3.345472">
        <ele>1151.505</ele>
        <time>2016-07-20T18:39:34Z</time>
      </trkpt>
      <trkpt lat="41.021591" lon="-3.345316">
        <ele>1149.315</ele>
        <time>2016-07-20T18:39:36Z</time>
      </trkpt>
      <trkpt lat="41.021544" lon="-3.345132">
        <ele>1148.008</ele>
        <time>2016-07-20T18:39:38Z</time>
      </trkpt>
      <trkpt lat="41.021488" lon="-3.344929">
        <ele>1147.965</ele>
        <time>2016-07-20T18:39:40Z</time>
      </trkpt>
      <trkpt lat="41.021440" lon="-3.344763">
        <ele>1147.458</ele>
        <time>2016-07-20T18:39:42Z</time>
      </trkpt>
      <trkpt lat="41.021405" lon="-3.344614">
        <ele>1146.914</ele>
        <time>2016-07-20T18:39:44Z</time>
      </trkpt>
      <trkpt lat="41.021382" lon="-3.344466">
        <ele>1146.990</ele>
        <time>2016-07-20T18:39:46Z</time>
      </trkpt>
      <trkpt lat="41.021375" lon="-3.344346">
        <ele>1146.665</ele>
        <time>2016-07-20T18:39:49Z</time>
      </trkpt>
      <trkpt lat="41.021416" lon="-3.344233">
        <ele>1145.918</ele>
        <time>2016-07-20T18:39:53Z</time>
      </trkpt>
      <trkpt lat="41.021479" lon="-3.344105">
        <ele>1143.328</ele>
        <time>2016-07-20T18:39:56Z</time>
      </trkpt>
      <trkpt lat="41.021547" lon="-3.343958">
        <ele>1141.756</ele>
        <time>2016-07-20T18:39:58Z</time>
      </trkpt>
      <trkpt lat="41.021637" lon="-3.343769">
        <ele>1141.259</ele>
        <time>2016-07-20T18:40:00Z</time>
      </trkpt>
      <trkpt lat="41.021679" lon="-3.343656">
        <ele>1141.103</ele>
        <time>2016-07-20T18:40:01Z</time>
      </trkpt>
      <trkpt lat="41.021766" lon="-3.343457">
        <ele>1140.423</ele>
        <time>2016-07-20T18:40:03Z</time>
      </trkpt>
      <trkpt lat="41.021815" lon="-3.343358">
        <ele>1140.108</ele>
        <time>2016-07-20T18:40:04Z</time>
      </trkpt>
      <trkpt lat="41.021906" lon="-3.343196">
        <ele>1137.546</ele>
        <time>2016-07-20T18:40:06Z</time>
      </trkpt>
      <trkpt lat="41.021921" lon="-3.343046">
        <ele>1136.089</ele>
        <time>2016-07-20T18:40:08Z</time>
      </trkpt>
      <trkpt lat="41.021883" lon="-3.342851">
        <ele>1134.795</ele>
        <time>2016-07-20T18:40:10Z</time>
      </trkpt>
      <trkpt lat="41.021864" lon="-3.342722">
        <ele>1134.351</ele>
        <time>2016-07-20T18:40:11Z</time>
      </trkpt>
      <trkpt lat="41.021858" lon="-3.342596">
        <ele>1133.376</ele>
        <time>2016-07-20T18:40:12Z</time>
      </trkpt>
      <trkpt lat="41.021856" lon="-3.342458">
        <ele>1132.989</ele>
        <time>2016-07-20T18:40:13Z</time>
      </trkpt>
      <trkpt lat="41.021858" lon="-3.342322">
        <ele>1132.649</ele>
        <time>2016-07-20T18:40:14Z</time>
      </trkpt>
      <trkpt lat="41.021872" lon="-3.342201">
        <ele>1132.377</ele>
        <time>2016-07-20T18:40:15Z</time>
      </trkpt>
      <trkpt lat="41.021951" lon="-3.341990">
        <ele>1130.425</ele>
        <time>2016-07-20T18:40:17Z</time>
      </trkpt>
      <trkpt lat="41.022007" lon="-3.341882">
        <ele>1129.826</ele>
        <time>2016-07-20T18:40:18Z</time>
      </trkpt>
      <trkpt lat="41.022075" lon="-3.341754">
        <ele>1129.108</ele>
        <time>2016-07-20T18:40:19Z</time>
      </trkpt>
      <trkpt lat="41.022135" lon="-3.341642">
        <ele>1128.208</ele>
        <time>2016-07-20T18:40:20Z</time>
      </trkpt>
      <trkpt lat="41.022201" lon="-3.341526">
        <ele>1126.873</ele>
        <time>2016-07-20T18:40:21Z</time>
      </trkpt>
      <trkpt lat="41.022269" lon="-3.341406">
        <ele>1125.986</ele>
        <time>2016-07-20T18:40:22Z</time>
      </trkpt>
      <trkpt lat="41.022334" lon="-3.341288">
        <ele>1125.262</ele>
        <time>2016-07-20T18:40:23Z</time>
      </trkpt>
      <trkpt lat="41.022394" lon="-3.341187">
        <ele>1125.028</ele>
        <time>2016-07-20T18:40:24Z</time>
      </trkpt>
      <trkpt lat="41.022464" lon="-3.341083">
        <ele>1124.983</ele>
        <time>2016-07-20T18:40:25Z</time>
      </trkpt>
      <trkpt lat="41.022533" lon="-3.340998">
        <ele>1123.936</ele>
        <time>2016-07-20T18:40:26Z</time>
      </trkpt>
      <trkpt lat="41.022611" lon="-3.340909">
        <ele>1123.366</ele>
        <time>2016-07-20T18:40:27Z</time>
      </trkpt>
      <trkpt lat="41.022681" lon="-3.340825">
        <ele>1122.674</ele>
        <time>2016-07-20T18:40:28Z</time>
      </trkpt>
      <trkpt lat="41.022760" lon="-3.340636">
        <ele>1121.142</ele>
        <time>2016-07-20T18:40:30Z</time>
      </trkpt>
      <trkpt lat="41.022773" lon="-3.340515">
        <ele>1120.622</ele>
        <time>2016-07-20T18:40:31Z</time>
      </trkpt>
      <trkpt lat="41.022786" lon="-3.340387">
        <ele>1119.814</ele>
        <time>2016-07-20T18:40:32Z</time>
      </trkpt>
      <trkpt lat="41.022799" lon="-3.340269">
        <ele>1118.708</ele>
        <time>2016-07-20T18:40:33Z</time>
      </trkpt>
      <trkpt lat="41.022809" lon="-3.340142">
        <ele>1117.955</ele>
        <time>2016-07-20T18:40:34Z</time>
      </trkpt>
      <trkpt lat="41.022810" lon="-3.340008">
        <ele>1117.318</ele>
        <time>2016-07-20T18:40:35Z</time>
      </trkpt>
      <trkpt lat="41.022786" lon="-3.339886">
        <ele>1117.574</ele>
        <time>2016-07-20T18:40:36Z</time>
      </trkpt>
      <trkpt lat="41.022681" lon="-3.339681">
        <ele>1117.310</ele>
        <time>2016-07-20T18:40:38Z</time>
      </trkpt>
      <trkpt lat="41.022600" lon="-3.339566">
        <ele>1117.165</ele>
        <time>2016-07-20T18:40:39Z</time>
      </trkpt>
      <trkpt lat="41.022529" lon="-3.339463">
        <ele>1117.248</ele>
        <time>2016-07-20T18:40:40Z</time>
      </trkpt>
      <trkpt lat="41.022455" lon="-3.339353">
        <ele>1117.588</ele>
        <time>2016-07-20T18:40:41Z</time>
      </trkpt>
      <trkpt lat="41.022380" lon="-3.339242">
        <ele>1117.346</ele>
        <time>2016-07-20T18:40:42Z</time>
      </trkpt>
      <trkpt lat="41.022295" lon="-3.339130">
        <ele>1117.054</ele>
        <time>2016-07-20T18:40:43Z</time>
      </trkpt>
      <trkpt lat="41.022204" lon="-3.339019">
        <ele>1116.456</ele>
        <time>2016-07-20T18:40:44Z</time>
      </trkpt>
      <trkpt lat="41.022130" lon="-3.338921">
        <ele>1115.711</ele>
        <time>2016-07-20T18:40:45Z</time>
      </trkpt>
      <trkpt lat="41.022056" lon="-3.338824">
        <ele>1114.808</ele>
        <time>2016-07-20T18:40:46Z</time>
      </trkpt>
      <trkpt lat="41.021985" lon="-3.338739">
        <ele>1113.796</ele>
        <time>2016-07-20T18:40:47Z</time>
      </trkpt>
      <trkpt lat="41.021911" lon="-3.338662">
        <ele>1112.869</ele>
        <time>2016-07-20T18:40:48Z</time>
      </trkpt>
      <trkpt lat="41.021835" lon="-3.338583">
        <ele>1112.165</ele>
        <time>2016-07-20T18:40:49Z</time>
      </trkpt>
      <trkpt lat="41.021754" lon="-3.338515">
        <ele>1111.281</ele>
        <time>2016-07-20T18:40:50Z</time>
      </trkpt>
      <trkpt lat="41.021674" lon="-3.338452">
        <ele>1110.466</ele>
        <time>2016-07-20T18:40:52Z</time>
      </trkpt>
      <trkpt lat="41.021513" lon="-3.338382">
        <ele>1109.439</ele>
        <time>2016-07-20T18:40:54Z</time>
      </trkpt>
      <trkpt lat="41.021348" lon="-3.338367">
        <ele>1109.919</ele>
        <time>2016-07-20T18:40:56Z</time>
      </trkpt>
      <trkpt lat="41.021186" lon="-3.338394">
        <ele>1108.737</ele>
        <time>2016-07-20T18:40:58Z</time>
      </trkpt>
      <trkpt lat="41.021052" lon="-3.338417">
        <ele>1105.654</ele>
        <time>2016-07-20T18:41:00Z</time>
      </trkpt>
      <trkpt lat="41.020946" lon="-3.338421">
        <ele>1102.456</ele>
        <time>2016-07-20T18:41:02Z</time>
      </trkpt>
      <trkpt lat="41.020843" lon="-3.338490">
        <ele>1100.111</ele>
        <time>2016-07-20T18:41:05Z</time>
      </trkpt>
      <trkpt lat="41.020840" lon="-3.338668">
        <ele>1097.108</ele>
        <time>2016-07-20T18:41:08Z</time>
      </trkpt>
      <trkpt lat="41.020900" lon="-3.338768">
        <ele>1096.866</ele>
        <time>2016-07-20T18:41:10Z</time>
      </trkpt>
      <trkpt lat="41.021021" lon="-3.338847">
        <ele>1097.299</ele>
        <time>2016-07-20T18:41:12Z</time>
      </trkpt>
      <trkpt lat="41.021145" lon="-3.338970">
        <ele>1096.455</ele>
        <time>2016-07-20T18:41:14Z</time>
      </trkpt>
      <trkpt lat="41.021218" lon="-3.339149">
        <ele>1094.891</ele>
        <time>2016-07-20T18:41:16Z</time>
      </trkpt>
      <trkpt lat="41.021323" lon="-3.339352">
        <ele>1093.586</ele>
        <time>2016-07-20T18:41:18Z</time>
      </trkpt>
      <trkpt lat="41.021405" lon="-3.339538">
        <ele>1091.019</ele>
        <time>2016-07-20T18:41:20Z</time>
      </trkpt>
      <trkpt lat="41.021414" lon="-3.339720">
        <ele>1089.119</ele>
        <time>2016-07-20T18:41:22Z</time>
      </trkpt>
      <trkpt lat="41.021309" lon="-3.339824">
        <ele>1087.637</ele>
        <time>2016-07-20T18:41:24Z</time>
      </trkpt>
      <trkpt lat="41.021148" lon="-3.339932">
        <ele>1086.122</ele>
        <time>2016-07-20T18:41:26Z</time>
      </trkpt>
      <trkpt lat="41.021054" lon="-3.339988">
        <ele>1085.262</ele>
        <time>2016-07-20T18:41:27Z</time>
      </trkpt>
      <trkpt lat="41.020965" lon="-3.340041">
        <ele>1084.808</ele>
        <time>2016-07-20T18:41:28Z</time>
      </trkpt>
      <trkpt lat="41.020871" lon="-3.340097">
        <ele>1084.008</ele>
        <time>2016-07-20T18:41:29Z</time>
      </trkpt>
      <trkpt lat="41.020777" lon="-3.340161">
        <ele>1083.383</ele>
        <time>2016-07-20T18:41:30Z</time>
      </trkpt>
      <trkpt lat="41.020686" lon="-3.340223">
        <ele>1081.856</ele>
        <time>2016-07-20T18:41:31Z</time>
      </trkpt>
      <trkpt lat="41.020596" lon="-3.340286">
        <ele>1080.642</ele>
        <time>2016-07-20T18:41:32Z</time>
      </trkpt>
      <trkpt lat="41.020502" lon="-3.340359">
        <ele>1079.438</ele>
        <time>2016-07-20T18:41:33Z</time>
      </trkpt>
      <trkpt lat="41.020408" lon="-3.340436">
        <ele>1078.243</ele>
        <time>2016-07-20T18:41:34Z</time>
      </trkpt>
      <trkpt lat="41.020313" lon="-3.340513">
        <ele>1077.016</ele>
        <time>2016-07-20T18:41:35Z</time>
      </trkpt>
      <trkpt lat="41.020224" lon="-3.340577">
        <ele>1075.466</ele>
        <time>2016-07-20T18:41:36Z</time>
      </trkpt>
      <trkpt lat="41.020133" lon="-3.340632">
        <ele>1073.864</ele>
        <time>2016-07-20T18:41:37Z</time>
      </trkpt>
      <trkpt lat="41.020035" lon="-3.340668">
        <ele>1072.898</ele>
        <time>2016-07-20T18:41:38Z</time>
      </trkpt>
      <trkpt lat="41.019927" lon="-3.340677">
        <ele>1072.115</ele>
        <time>2016-07-20T18:41:39Z</time>
      </trkpt>
      <trkpt lat="41.019832" lon="-3.340671">
        <ele>1071.426</ele>
        <time>2016-07-20T18:41:40Z</time>
      </trkpt>
      <trkpt lat="41.019674" lon="-3.340708">
        <ele>1070.008</ele>
        <time>2016-07-20T18:41:42Z</time>
      </trkpt>
      <trkpt lat="41.019556" lon="-3.340808">
        <ele>1068.190</ele>
        <time>2016-07-20T18:41:44Z</time>
      </trkpt>
      <trkpt lat="41.019484" lon="-3.340950">
        <ele>1066.243</ele>
        <time>2016-07-20T18:41:46Z</time>
      </trkpt>
      <trkpt lat="41.019414" lon="-3.341057">
        <ele>1064.099</ele>
        <time>2016-07-20T18:41:48Z</time>
      </trkpt>
      <trkpt lat="41.019324" lon="-3.340997">
        <ele>1061.015</ele>
        <time>2016-07-20T18:41:51Z</time>
      </trkpt>
      <trkpt lat="41.019316" lon="-3.340865">
        <ele>1059.930</ele>
        <time>2016-07-20T18:41:53Z</time>
      </trkpt>
      <trkpt lat="41.019338" lon="-3.340658">
        <ele>1058.163</ele>
        <time>2016-07-20T18:41:55Z</time>
      </trkpt>
      <trkpt lat="41.019364" lon="-3.340424">
        <ele>1057.073</ele>
        <time>2016-07-20T18:41:56Z</time>
      </trkpt>
      <trkpt lat="41.019338" lon="-3.340240">
        <ele>1056.771</ele>
        <time>2016-07-20T18:41:58Z</time>
      </trkpt>
      <trkpt lat="41.019237" lon="-3.340137">
        <ele>1056.288</ele>
        <time>2016-07-20T18:42:00Z</time>
      </trkpt>
      <trkpt lat="41.019086" lon="-3.340039">
        <ele>1055.124</ele>
        <time>2016-07-20T18:42:02Z</time>
      </trkpt>
      <trkpt lat="41.018925" lon="-3.339933">
        <ele>1053.126</ele>
        <time>2016-07-20T18:42:04Z</time>
      </trkpt>
      <trkpt lat="41.018818" lon="-3.339907">
        <ele>1051.008</ele>
        <time>2016-07-20T18:42:06Z</time>
      </trkpt>
      <trkpt lat="41.018728" lon="-3.340017">
        <ele>1047.859</ele>
        <time>2016-07-20T18:42:09Z</time>
      </trkpt>
      <trkpt lat="41.018759" lon="-3.340167">
        <ele>1047.632</ele>
        <time>2016-07-20T18:42:11Z</time>
      </trkpt>
      <trkpt lat="41.018839" lon="-3.340383">
        <ele>1047.418</ele>
        <time>2016-07-20T18:42:13Z</time>
      </trkpt>
      <trkpt lat="41.018879" lon="-3.340495">
        <ele>1047.924</ele>
        <time>2016-07-20T18:42:14Z</time>
      </trkpt>
      <trkpt lat="41.018911" lon="-3.340610">
        <ele>1047.769</ele>
        <time>2016-07-20T18:42:15Z</time>
      </trkpt>
      <trkpt lat="41.018936" lon="-3.340857">
        <ele>1046.592</ele>
        <time>2016-07-20T18:42:17Z</time>
      </trkpt>
      <trkpt lat="41.018877" lon="-3.341070">
        <ele>1046.122</ele>
        <time>2016-07-20T18:42:19Z</time>
      </trkpt>
      <trkpt lat="41.018762" lon="-3.341235">
        <ele>1044.720</ele>
        <time>2016-07-20T18:42:21Z</time>
      </trkpt>
      <trkpt lat="41.018620" lon="-3.341375">
        <ele>1042.313</ele>
        <time>2016-07-20T18:42:23Z</time>
      </trkpt>
      <trkpt lat="41.018541" lon="-3.341442">
        <ele>1040.943</ele>
        <time>2016-07-20T18:42:24Z</time>
      </trkpt>
      <trkpt lat="41.018461" lon="-3.341516">
        <ele>1039.707</ele>
        <time>2016-07-20T18:42:25Z</time>
      </trkpt>
      <trkpt lat="41.018376" lon="-3.341587">
        <ele>1038.308</ele>
        <time>2016-07-20T18:42:26Z</time>
      </trkpt>
      <trkpt lat="41.018290" lon="-3.341644">
        <ele>1037.152</ele>
        <time>2016-07-20T18:42:27Z</time>
      </trkpt>
      <trkpt lat="41.018197" lon="-3.341684">
        <ele>1035.735</ele>
        <time>2016-07-20T18:42:28Z</time>
      </trkpt>
      <trkpt lat="41.018104" lon="-3.341700">
        <ele>1034.491</ele>
        <time>2016-07-20T18:42:29Z</time>
      </trkpt>
      <trkpt lat="41.018014" lon="-3.341705">
        <ele>1033.527</ele>
        <time>2016-07-20T18:42:30Z</time>
      </trkpt>
      <trkpt lat="41.017923" lon="-3.341697">
        <ele>1032.252</ele>
        <time>2016-07-20T18:42:31Z</time>
      </trkpt>
      <trkpt lat="41.017831" lon="-3.341683">
        <ele>1030.745</ele>
        <time>2016-07-20T18:42:32Z</time>
      </trkpt>
      <trkpt lat="41.017655" lon="-3.341623">
        <ele>1027.675</ele>
        <time>2016-07-20T18:42:34Z</time>
      </trkpt>
      <trkpt lat="41.017506" lon="-3.341519">
        <ele>1025.313</ele>
        <time>2016-07-20T18:42:36Z</time>
      </trkpt>
      <trkpt lat="41.017428" lon="-3.341456">
        <ele>1024.483</ele>
        <time>2016-07-20T18:42:37Z</time>
      </trkpt>
      <trkpt lat="41.017297" lon="-3.341341">
        <ele>1021.625</ele>
        <time>2016-07-20T18:42:39Z</time>
      </trkpt>
      <trkpt lat="41.017207" lon="-3.341243">
        <ele>1018.817</ele>
        <time>2016-07-20T18:42:41Z</time>
      </trkpt>
      <trkpt lat="41.017132" lon="-3.341159">
        <ele>1016.308</ele>
        <time>2016-07-20T18:42:43Z</time>
      </trkpt>
      <trkpt lat="41.017049" lon="-3.341075">
        <ele>1014.079</ele>
        <time>2016-07-20T18:42:45Z</time>
      </trkpt>
      <trkpt lat="41.016963" lon="-3.341002">
        <ele>1013.312</ele>
        <time>2016-07-20T18:42:47Z</time>
      </trkpt>
      <trkpt lat="41.016853" lon="-3.340953">
        <ele>1013.758</ele>
        <time>2016-07-20T18:42:50Z</time>
      </trkpt>
      <trkpt lat="41.016728" lon="-3.340938">
        <ele>1014.884</ele>
        <time>2016-07-20T18:42:55Z</time>
      </trkpt>
      <trkpt lat="41.016631" lon="-3.340926">
        <ele>1015.129</ele>
        <time>2016-07-20T18:42:57Z</time>
      </trkpt>
      <trkpt lat="41.016518" lon="-3.340928">
        <ele>1015.962</ele>
        <time>2016-07-20T18:43:00Z</time>
      </trkpt>
      <trkpt lat="41.016412" lon="-3.340934">
        <ele>1021.892</ele>
        <time>2016-07-20T18:43:03Z</time>
      </trkpt>
      <trkpt lat="41.016305" lon="-3.340931">
        <ele>1025.650</ele>
        <time>2016-07-20T18:43:05Z</time>
      </trkpt>
      <trkpt lat="41.016178" lon="-3.340919">
        <ele>1028.278</ele>
        <time>2016-07-20T18:43:07Z</time>
      </trkpt>
      <trkpt lat="41.016034" lon="-3.340898">
        <ele>1029.633</ele>
        <time>2016-07-20T18:43:09Z</time>
      </trkpt>
      <trkpt lat="41.015751" lon="-3.340843">
        <ele>1031.326</ele>
        <time>2016-07-20T18:43:12Z</time>
      </trkpt>
      <trkpt lat="41.015662" lon="-3.340814">
        <ele>1031.308</ele>
        <time>2016-07-20T18:43:13Z</time>
      </trkpt>
      <trkpt lat="41.015501" lon="-3.340754">
        <ele>1030.888</ele>
        <time>2016-07-20T18:43:15Z</time>
      </trkpt>
      <trkpt lat="41.015344" lon="-3.340719">
        <ele>1030.561</ele>
        <time>2016-07-20T18:43:17Z</time>
      </trkpt>
      <trkpt lat="41.015169" lon="-3.340741">
        <ele>1030.377</ele>
        <time>2016-07-20T18:43:19Z</time>
      </trkpt>
      <trkpt lat="41.015072" lon="-3.340749">
        <ele>1030.233</ele>
        <time>2016-07-20T18:43:20Z</time>
      </trkpt>
      <trkpt lat="41.014862" lon="-3.340711">
        <ele>1031.838</ele>
        <time>2016-07-20T18:43:21Z</time>
      </trkpt>
      <trkpt lat="41.014759" lon="-3.340674">
        <ele>1032.591</ele>
        <time>2016-07-20T18:43:22Z</time>
      </trkpt>
      <trkpt lat="41.014543" lon="-3.340589">
        <ele>1033.531</ele>
        <time>2016-07-20T18:43:24Z</time>
      </trkpt>
      <trkpt lat="41.014425" lon="-3.340560">
        <ele>1034.639</ele>
        <time>2016-07-20T18:43:25Z</time>
      </trkpt>
      <trkpt lat="41.014311" lon="-3.340532">
        <ele>1037.048</ele>
        <time>2016-07-20T18:43:26Z</time>
      </trkpt>
      <trkpt lat="41.014211" lon="-3.340485">
        <ele>1040.061</ele>
        <time>2016-07-20T18:43:27Z</time>
      </trkpt>
      <trkpt lat="41.014110" lon="-3.340423">
        <ele>1042.517</ele>
        <time>2016-07-20T18:43:28Z</time>
      </trkpt>
      <trkpt lat="41.014004" lon="-3.340357">
        <ele>1045.008</ele>
        <time>2016-07-20T18:43:29Z</time>
      </trkpt>
      <trkpt lat="41.013898" lon="-3.340292">
        <ele>1047.275</ele>
        <time>2016-07-20T18:43:30Z</time>
      </trkpt>
      <trkpt lat="41.013789" lon="-3.340227">
        <ele>1049.498</ele>
        <time>2016-07-20T18:43:31Z</time>
      </trkpt>
      <trkpt lat="41.013681" lon="-3.340165">
        <ele>1050.744</ele>
        <time>2016-07-20T18:43:32Z</time>
      </trkpt>
      <trkpt lat="41.013572" lon="-3.340105">
        <ele>1052.570</ele>
        <time>2016-07-20T18:43:33Z</time>
      </trkpt>
      <trkpt lat="41.013464" lon="-3.340057">
        <ele>1054.075</ele>
        <time>2016-07-20T18:43:34Z</time>
      </trkpt>
      <trkpt lat="41.013359" lon="-3.340010">
        <ele>1055.098</ele>
        <time>2016-07-20T18:43:35Z</time>
      </trkpt>
      <trkpt lat="41.013200" lon="-3.339931">
        <ele>1055.548</ele>
        <time>2016-07-20T18:43:37Z</time>
      </trkpt>
      <trkpt lat="41.013121" lon="-3.339778">
        <ele>1054.676</ele>
        <time>2016-07-20T18:43:39Z</time>
      </trkpt>
      <trkpt lat="41.013090" lon="-3.339592">
        <ele>1053.821</ele>
        <time>2016-07-20T18:43:41Z</time>
      </trkpt>
      <trkpt lat="41.013052" lon="-3.339378">
        <ele>1053.641</ele>
        <time>2016-07-20T18:43:43Z</time>
      </trkpt>
      <trkpt lat="41.013023" lon="-3.339259">
        <ele>1053.305</ele>
        <time>2016-07-20T18:43:44Z</time>
      </trkpt>
      <trkpt lat="41.012995" lon="-3.339130">
        <ele>1053.608</ele>
        <time>2016-07-20T18:43:45Z</time>
      </trkpt>
      <trkpt lat="41.012970" lon="-3.339016">
        <ele>1053.713</ele>
        <time>2016-07-20T18:43:46Z</time>
      </trkpt>
      <trkpt lat="41.012937" lon="-3.338804">
        <ele>1054.326</ele>
        <time>2016-07-20T18:43:48Z</time>
      </trkpt>
      <trkpt lat="41.012975" lon="-3.338647">
        <ele>1055.972</ele>
        <time>2016-07-20T18:43:50Z</time>
      </trkpt>
      <trkpt lat="41.013049" lon="-3.338577">
        <ele>1057.038</ele>
        <time>2016-07-20T18:43:52Z</time>
      </trkpt>
      <trkpt lat="41.013144" lon="-3.338683">
        <ele>1059.373</ele>
        <time>2016-07-20T18:43:55Z</time>
      </trkpt>
      <trkpt lat="41.013254" lon="-3.338828">
        <ele>1061.256</ele>
        <time>2016-07-20T18:43:57Z</time>
      </trkpt>
      <trkpt lat="41.013378" lon="-3.338982">
        <ele>1062.456</ele>
        <time>2016-07-20T18:43:59Z</time>
      </trkpt>
      <trkpt lat="41.013449" lon="-3.339066">
        <ele>1063.044</ele>
        <time>2016-07-20T18:44:00Z</time>
      </trkpt>
      <trkpt lat="41.013518" lon="-3.339143">
        <ele>1063.637</ele>
        <time>2016-07-20T18:44:01Z</time>
      </trkpt>
      <trkpt lat="41.013664" lon="-3.339273">
        <ele>1065.049</ele>
        <time>2016-07-20T18:44:03Z</time>
      </trkpt>
      <trkpt lat="41.013841" lon="-3.339349">
        <ele>1066.713</ele>
        <time>2016-07-20T18:44:05Z</time>
      </trkpt>
      <trkpt lat="41.013934" lon="-3.339376">
        <ele>1067.408</ele>
        <time>2016-07-20T18:44:06Z</time>
      </trkpt>
      <trkpt lat="41.014032" lon="-3.339394">
        <ele>1068.534</ele>
        <time>2016-07-20T18:44:07Z</time>
      </trkpt>
      <trkpt lat="41.014137" lon="-3.339404">
        <ele>1069.247</ele>
        <time>2016-07-20T18:44:08Z</time>
      </trkpt>
      <trkpt lat="41.014244" lon="-3.339414">
        <ele>1069.973</ele>
        <time>2016-07-20T18:44:09Z</time>
      </trkpt>
      <trkpt lat="41.014425" lon="-3.339427">
        <ele>1070.729</ele>
        <time>2016-07-20T18:44:11Z</time>
      </trkpt>
      <trkpt lat="41.014516" lon="-3.339426">
        <ele>1071.054</ele>
        <time>2016-07-20T18:44:12Z</time>
      </trkpt>
      <trkpt lat="41.014693" lon="-3.339382">
        <ele>1071.567</ele>
        <time>2016-07-20T18:44:14Z</time>
      </trkpt>
      <trkpt lat="41.014788" lon="-3.339344">
        <ele>1072.027</ele>
        <time>2016-07-20T18:44:15Z</time>
      </trkpt>
      <trkpt lat="41.014895" lon="-3.339316">
        <ele>1073.175</ele>
        <time>2016-07-20T18:44:16Z</time>
      </trkpt>
      <trkpt lat="41.014994" lon="-3.339305">
        <ele>1073.868</ele>
        <time>2016-07-20T18:44:17Z</time>
      </trkpt>
      <trkpt lat="41.015170" lon="-3.339278">
        <ele>1074.642</ele>
        <time>2016-07-20T18:44:19Z</time>
      </trkpt>
      <trkpt lat="41.015265" lon="-3.339239">
        <ele>1075.226</ele>
        <time>2016-07-20T18:44:21Z</time>
      </trkpt>
      <trkpt lat="41.015440" lon="-3.339166">
        <ele>1075.408</ele>
        <time>2016-07-20T18:44:23Z</time>
      </trkpt>
      <trkpt lat="41.015537" lon="-3.339150">
        <ele>1076.327</ele>
        <time>2016-07-20T18:44:24Z</time>
      </trkpt>
      <trkpt lat="41.015635" lon="-3.339148">
        <ele>1077.730</ele>
        <time>2016-07-20T18:44:25Z</time>
      </trkpt>
      <trkpt lat="41.015728" lon="-3.339148">
        <ele>1078.716</ele>
        <time>2016-07-20T18:44:26Z</time>
      </trkpt>
      <trkpt lat="41.015819" lon="-3.339130">
        <ele>1079.452</ele>
        <time>2016-07-20T18:44:27Z</time>
      </trkpt>
      <trkpt lat="41.015909" lon="-3.339093">
        <ele>1080.217</ele>
        <time>2016-07-20T18:44:28Z</time>
      </trkpt>
      <trkpt lat="41.016171" lon="-3.338891">
        <ele>1081.520</ele>
        <time>2016-07-20T18:44:31Z</time>
      </trkpt>
      <trkpt lat="41.016246" lon="-3.338816">
        <ele>1082.480</ele>
        <time>2016-07-20T18:44:32Z</time>
      </trkpt>
      <trkpt lat="41.016331" lon="-3.338732">
        <ele>1083.568</ele>
        <time>2016-07-20T18:44:33Z</time>
      </trkpt>
      <trkpt lat="41.016424" lon="-3.338634">
        <ele>1084.268</ele>
        <time>2016-07-20T18:44:34Z</time>
      </trkpt>
      <trkpt lat="41.016498" lon="-3.338548">
        <ele>1085.042</ele>
        <time>2016-07-20T18:44:35Z</time>
      </trkpt>
      <trkpt lat="41.016570" lon="-3.338452">
        <ele>1085.126</ele>
        <time>2016-07-20T18:44:36Z</time>
      </trkpt>
      <trkpt lat="41.016637" lon="-3.338343">
        <ele>1085.008</ele>
        <time>2016-07-20T18:44:37Z</time>
      </trkpt>
      <trkpt lat="41.016709" lon="-3.338226">
        <ele>1085.817</ele>
        <time>2016-07-20T18:44:38Z</time>
      </trkpt>
      <trkpt lat="41.016782" lon="-3.338106">
        <ele>1086.890</ele>
        <time>2016-07-20T18:44:39Z</time>
      </trkpt>
      <trkpt lat="41.016842" lon="-3.337990">
        <ele>1087.426</ele>
        <time>2016-07-20T18:44:40Z</time>
      </trkpt>
      <trkpt lat="41.016899" lon="-3.337881">
        <ele>1088.672</ele>
        <time>2016-07-20T18:44:41Z</time>
      </trkpt>
      <trkpt lat="41.016959" lon="-3.337773">
        <ele>1089.487</ele>
        <time>2016-07-20T18:44:42Z</time>
      </trkpt>
      <trkpt lat="41.017010" lon="-3.337675">
        <ele>1090.160</ele>
        <time>2016-07-20T18:44:43Z</time>
      </trkpt>
      <trkpt lat="41.017070" lon="-3.337497">
        <ele>1090.740</ele>
        <time>2016-07-20T18:44:45Z</time>
      </trkpt>
      <trkpt lat="41.017069" lon="-3.337343">
        <ele>1092.358</ele>
        <time>2016-07-20T18:44:47Z</time>
      </trkpt>
      <trkpt lat="41.017006" lon="-3.337215">
        <ele>1093.662</ele>
        <time>2016-07-20T18:44:49Z</time>
      </trkpt>
      <trkpt lat="41.016899" lon="-3.337145">
        <ele>1094.383</ele>
        <time>2016-07-20T18:44:51Z</time>
      </trkpt>
      <trkpt lat="41.016799" lon="-3.337124">
        <ele>1094.611</ele>
        <time>2016-07-20T18:44:53Z</time>
      </trkpt>
      <trkpt lat="41.016674" lon="-3.337102">
        <ele>1094.408</ele>
        <time>2016-07-20T18:44:55Z</time>
      </trkpt>
      <trkpt lat="41.016528" lon="-3.337069">
        <ele>1095.267</ele>
        <time>2016-07-20T18:44:57Z</time>
      </trkpt>
      <trkpt lat="41.016435" lon="-3.337046">
        <ele>1096.170</ele>
        <time>2016-07-20T18:44:58Z</time>
      </trkpt>
      <trkpt lat="41.016347" lon="-3.337018">
        <ele>1095.886</ele>
        <time>2016-07-20T18:44:59Z</time>
      </trkpt>
      <trkpt lat="41.016116" lon="-3.336952">
        <ele>1096.232</ele>
        <time>2016-07-20T18:45:00Z</time>
      </trkpt>
      <trkpt lat="41.016003" lon="-3.336919">
        <ele>1097.017</ele>
        <time>2016-07-20T18:45:01Z</time>
      </trkpt>
      <trkpt lat="41.015883" lon="-3.336881">
        <ele>1097.770</ele>
        <time>2016-07-20T18:45:02Z</time>
      </trkpt>
      <trkpt lat="41.015772" lon="-3.336838">
        <ele>1098.670</ele>
        <time>2016-07-20T18:45:03Z</time>
      </trkpt>
      <trkpt lat="41.015650" lon="-3.336790">
        <ele>1099.898</ele>
        <time>2016-07-20T18:45:04Z</time>
      </trkpt>
      <trkpt lat="41.015557" lon="-3.336747">
        <ele>1100.495</ele>
        <time>2016-07-20T18:45:05Z</time>
      </trkpt>
      <trkpt lat="41.015463" lon="-3.336703">
        <ele>1100.849</ele>
        <time>2016-07-20T18:45:06Z</time>
      </trkpt>
      <trkpt lat="41.015369" lon="-3.336660">
        <ele>1101.023</ele>
        <time>2016-07-20T18:45:07Z</time>
      </trkpt>
      <trkpt lat="41.015268" lon="-3.336616">
        <ele>1101.708</ele>
        <time>2016-07-20T18:45:08Z</time>
      </trkpt>
      <trkpt lat="41.015170" lon="-3.336575">
        <ele>1102.260</ele>
        <time>2016-07-20T18:45:09Z</time>
      </trkpt>
      <trkpt lat="41.015073" lon="-3.336542">
        <ele>1103.053</ele>
        <time>2016-07-20T18:45:10Z</time>
      </trkpt>
      <trkpt lat="41.014966" lon="-3.336527">
        <ele>1103.489</ele>
        <time>2016-07-20T18:45:11Z</time>
      </trkpt>
      <trkpt lat="41.014851" lon="-3.336530">
        <ele>1104.415</ele>
        <time>2016-07-20T18:45:12Z</time>
      </trkpt>
      <trkpt lat="41.014726" lon="-3.336541">
        <ele>1104.870</ele>
        <time>2016-07-20T18:45:13Z</time>
      </trkpt>
      <trkpt lat="41.014616" lon="-3.336543">
        <ele>1105.593</ele>
        <time>2016-07-20T18:45:14Z</time>
      </trkpt>
      <trkpt lat="41.014498" lon="-3.336540">
        <ele>1105.923</ele>
        <time>2016-07-20T18:45:15Z</time>
      </trkpt>
      <trkpt lat="41.014385" lon="-3.336538">
        <ele>1106.481</ele>
        <time>2016-07-20T18:45:16Z</time>
      </trkpt>
      <trkpt lat="41.014272" lon="-3.336533">
        <ele>1107.025</ele>
        <time>2016-07-20T18:45:17Z</time>
      </trkpt>
      <trkpt lat="41.014160" lon="-3.336518">
        <ele>1107.126</ele>
        <time>2016-07-20T18:45:18Z</time>
      </trkpt>
      <trkpt lat="41.014058" lon="-3.336485">
        <ele>1107.108</ele>
        <time>2016-07-20T18:45:19Z</time>
      </trkpt>
      <trkpt lat="41.013969" lon="-3.336428">
        <ele>1107.708</ele>
        <time>2016-07-20T18:45:20Z</time>
      </trkpt>
      <trkpt lat="41.013884" lon="-3.336343">
        <ele>1108.023</ele>
        <time>2016-07-20T18:45:21Z</time>
      </trkpt>
      <trkpt lat="41.013803" lon="-3.336255">
        <ele>1108.246</ele>
        <time>2016-07-20T18:45:22Z</time>
      </trkpt>
      <trkpt lat="41.013716" lon="-3.336167">
        <ele>1108.322</ele>
        <time>2016-07-20T18:45:23Z</time>
      </trkpt>
      <trkpt lat="41.013625" lon="-3.336085">
        <ele>1107.848</ele>
        <time>2016-07-20T18:45:24Z</time>
      </trkpt>
      <trkpt lat="41.013535" lon="-3.336017">
        <ele>1107.623</ele>
        <time>2016-07-20T18:45:25Z</time>
      </trkpt>
      <trkpt lat="41.013447" lon="-3.335965">
        <ele>1107.596</ele>
        <time>2016-07-20T18:45:26Z</time>
      </trkpt>
      <trkpt lat="41.013357" lon="-3.335926">
        <ele>1106.816</ele>
        <time>2016-07-20T18:45:27Z</time>
      </trkpt>
      <trkpt lat="41.013264" lon="-3.335895">
        <ele>1106.414</ele>
        <time>2016-07-20T18:45:28Z</time>
      </trkpt>
      <trkpt lat="41.013104" lon="-3.335818">
        <ele>1105.562</ele>
        <time>2016-07-20T18:45:30Z</time>
      </trkpt>
      <trkpt lat="41.012991" lon="-3.335657">
        <ele>1106.683</ele>
        <time>2016-07-20T18:45:32Z</time>
      </trkpt>
      <trkpt lat="41.012946" lon="-3.335420">
        <ele>1107.611</ele>
        <time>2016-07-20T18:45:34Z</time>
      </trkpt>
      <trkpt lat="41.012927" lon="-3.335290">
        <ele>1107.208</ele>
        <time>2016-07-20T18:45:35Z</time>
      </trkpt>
      <trkpt lat="41.012900" lon="-3.335165">
        <ele>1106.747</ele>
        <time>2016-07-20T18:45:36Z</time>
      </trkpt>
      <trkpt lat="41.012864" lon="-3.335050">
        <ele>1106.760</ele>
        <time>2016-07-20T18:45:37Z</time>
      </trkpt>
      <trkpt lat="41.012818" lon="-3.334948">
        <ele>1106.876</ele>
        <time>2016-07-20T18:45:38Z</time>
      </trkpt>
      <trkpt lat="41.012753" lon="-3.334839">
        <ele>1108.252</ele>
        <time>2016-07-20T18:45:39Z</time>
      </trkpt>
      <trkpt lat="41.012670" lon="-3.334738">
        <ele>1110.787</ele>
        <time>2016-07-20T18:45:40Z</time>
      </trkpt>
      <trkpt lat="41.012584" lon="-3.334638">
        <ele>1112.240</ele>
        <time>2016-07-20T18:45:41Z</time>
      </trkpt>
      <trkpt lat="41.012494" lon="-3.334547">
        <ele>1113.130</ele>
        <time>2016-07-20T18:45:42Z</time>
      </trkpt>
      <trkpt lat="41.012406" lon="-3.334455">
        <ele>1113.378</ele>
        <time>2016-07-20T18:45:43Z</time>
      </trkpt>
      <trkpt lat="41.012323" lon="-3.334367">
        <ele>1113.147</ele>
        <time>2016-07-20T18:45:44Z</time>
      </trkpt>
      <trkpt lat="41.012251" lon="-3.334269">
        <ele>1113.029</ele>
        <time>2016-07-20T18:45:45Z</time>
      </trkpt>
      <trkpt lat="41.012181" lon="-3.334172">
        <ele>1112.521</ele>
        <time>2016-07-20T18:45:46Z</time>
      </trkpt>
      <trkpt lat="41.012117" lon="-3.334084">
        <ele>1112.108</ele>
        <time>2016-07-20T18:45:47Z</time>
      </trkpt>
      <trkpt lat="41.012038" lon="-3.333908">
        <ele>1111.535</ele>
        <time>2016-07-20T18:45:49Z</time>
      </trkpt>
      <trkpt lat="41.012060" lon="-3.333752">
        <ele>1111.388</ele>
        <time>2016-07-20T18:45:51Z</time>
      </trkpt>
      <trkpt lat="41.012149" lon="-3.333703">
        <ele>1113.334</ele>
        <time>2016-07-20T18:45:53Z</time>
      </trkpt>
      <trkpt lat="41.012242" lon="-3.333739">
        <ele>1116.410</ele>
        <time>2016-07-20T18:45:55Z</time>
      </trkpt>
      <trkpt lat="41.012356" lon="-3.333768">
        <ele>1119.675</ele>
        <time>2016-07-20T18:45:57Z</time>
      </trkpt>
      <trkpt lat="41.012517" lon="-3.333790">
        <ele>1122.558</ele>
        <time>2016-07-20T18:45:59Z</time>
      </trkpt>
      <trkpt lat="41.012673" lon="-3.333766">
        <ele>1124.648</ele>
        <time>2016-07-20T18:46:01Z</time>
      </trkpt>
      <trkpt lat="41.012765" lon="-3.333726">
        <ele>1125.766</ele>
        <time>2016-07-20T18:46:02Z</time>
      </trkpt>
      <trkpt lat="41.012876" lon="-3.333681">
        <ele>1127.035</ele>
        <time>2016-07-20T18:46:03Z</time>
      </trkpt>
      <trkpt lat="41.012989" lon="-3.333663">
        <ele>1127.886</ele>
        <time>2016-07-20T18:46:04Z</time>
      </trkpt>
      <trkpt lat="41.013105" lon="-3.333652">
        <ele>1129.114</ele>
        <time>2016-07-20T18:46:05Z</time>
      </trkpt>
      <trkpt lat="41.013227" lon="-3.333642">
        <ele>1130.308</ele>
        <time>2016-07-20T18:46:07Z</time>
      </trkpt>
      <trkpt lat="41.013351" lon="-3.333631">
        <ele>1131.914</ele>
        <time>2016-07-20T18:46:08Z</time>
      </trkpt>
      <trkpt lat="41.013473" lon="-3.333615">
        <ele>1133.547</ele>
        <time>2016-07-20T18:46:09Z</time>
      </trkpt>
      <trkpt lat="41.013587" lon="-3.333590">
        <ele>1135.413</ele>
        <time>2016-07-20T18:46:10Z</time>
      </trkpt>
      <trkpt lat="41.013697" lon="-3.333560">
        <ele>1137.279</ele>
        <time>2016-07-20T18:46:11Z</time>
      </trkpt>
      <trkpt lat="41.013799" lon="-3.333522">
        <ele>1139.234</ele>
        <time>2016-07-20T18:46:12Z</time>
      </trkpt>
      <trkpt lat="41.013887" lon="-3.333481">
        <ele>1141.047</ele>
        <time>2016-07-20T18:46:13Z</time>
      </trkpt>
      <trkpt lat="41.014023" lon="-3.333351">
        <ele>1143.617</ele>
        <time>2016-07-20T18:46:15Z</time>
      </trkpt>
      <trkpt lat="41.014087" lon="-3.333178">
        <ele>1146.515</ele>
        <time>2016-07-20T18:46:17Z</time>
      </trkpt>
      <trkpt lat="41.014078" lon="-3.332954">
        <ele>1147.454</ele>
        <time>2016-07-20T18:46:19Z</time>
      </trkpt>
      <trkpt lat="41.014053" lon="-3.332826">
        <ele>1147.856</ele>
        <time>2016-07-20T18:46:20Z</time>
      </trkpt>
      <trkpt lat="41.014035" lon="-3.332698">
        <ele>1147.611</ele>
        <time>2016-07-20T18:46:21Z</time>
      </trkpt>
      <trkpt lat="41.014019" lon="-3.332553">
        <ele>1147.808</ele>
        <time>2016-07-20T18:46:22Z</time>
      </trkpt>
      <trkpt lat="41.014007" lon="-3.332407">
        <ele>1148.086</ele>
        <time>2016-07-20T18:46:23Z</time>
      </trkpt>
      <trkpt lat="41.013995" lon="-3.332264">
        <ele>1148.399</ele>
        <time>2016-07-20T18:46:24Z</time>
      </trkpt>
      <trkpt lat="41.013994" lon="-3.332132">
        <ele>1148.285</ele>
        <time>2016-07-20T18:46:25Z</time>
      </trkpt>
      <trkpt lat="41.014008" lon="-3.332005">
        <ele>1148.941</ele>
        <time>2016-07-20T18:46:26Z</time>
      </trkpt>
      <trkpt lat="41.014084" lon="-3.331821">
        <ele>1150.316</ele>
        <time>2016-07-20T18:46:28Z</time>
      </trkpt>
      <trkpt lat="41.014223" lon="-3.331763">
        <ele>1152.849</ele>
        <time>2016-07-20T18:46:30Z</time>
      </trkpt>
      <trkpt lat="41.014390" lon="-3.331806">
        <ele>1155.049</ele>
        <time>2016-07-20T18:46:32Z</time>
      </trkpt>
      <trkpt lat="41.014484" lon="-3.331840">
        <ele>1156.097</ele>
        <time>2016-07-20T18:46:33Z</time>
      </trkpt>
      <trkpt lat="41.014589" lon="-3.331865">
        <ele>1157.469</ele>
        <time>2016-07-20T18:46:34Z</time>
      </trkpt>
      <trkpt lat="41.014696" lon="-3.331890">
        <ele>1158.904</ele>
        <time>2016-07-20T18:46:35Z</time>
      </trkpt>
      <trkpt lat="41.014808" lon="-3.331913">
        <ele>1160.024</ele>
        <time>2016-07-20T18:46:36Z</time>
      </trkpt>
      <trkpt lat="41.014932" lon="-3.331934">
        <ele>1160.208</ele>
        <time>2016-07-20T18:46:37Z</time>
      </trkpt>
      <trkpt lat="41.015053" lon="-3.331938">
        <ele>1160.747</ele>
        <time>2016-07-20T18:46:38Z</time>
      </trkpt>
      <trkpt lat="41.015168" lon="-3.331939">
        <ele>1161.120</ele>
        <time>2016-07-20T18:46:39Z</time>
      </trkpt>
      <trkpt lat="41.015275" lon="-3.331935">
        <ele>1161.456</ele>
        <time>2016-07-20T18:46:40Z</time>
      </trkpt>
      <trkpt lat="41.015382" lon="-3.331924">
        <ele>1161.682</ele>
        <time>2016-07-20T18:46:41Z</time>
      </trkpt>
      <trkpt lat="41.015480" lon="-3.331888">
        <ele>1162.247</ele>
        <time>2016-07-20T18:46:42Z</time>
      </trkpt>
      <trkpt lat="41.015575" lon="-3.331846">
        <ele>1162.620</ele>
        <time>2016-07-20T18:46:43Z</time>
      </trkpt>
      <trkpt lat="41.015664" lon="-3.331772">
        <ele>1163.690</ele>
        <time>2016-07-20T18:46:44Z</time>
      </trkpt>
      <trkpt lat="41.015760" lon="-3.331682">
        <ele>1165.058</ele>
        <time>2016-07-20T18:46:45Z</time>
      </trkpt>
      <trkpt lat="41.015833" lon="-3.331571">
        <ele>1166.081</ele>
        <time>2016-07-20T18:46:46Z</time>
      </trkpt>
      <trkpt lat="41.015901" lon="-3.331463">
        <ele>1166.761</ele>
        <time>2016-07-20T18:46:47Z</time>
      </trkpt>
      <trkpt lat="41.015964" lon="-3.331345">
        <ele>1167.817</ele>
        <time>2016-07-20T18:46:48Z</time>
      </trkpt>
      <trkpt lat="41.016030" lon="-3.331209">
        <ele>1169.108</ele>
        <time>2016-07-20T18:46:49Z</time>
      </trkpt>
      <trkpt lat="41.016091" lon="-3.331064">
        <ele>1169.679</ele>
        <time>2016-07-20T18:46:50Z</time>
      </trkpt>
      <trkpt lat="41.016143" lon="-3.330922">
        <ele>1170.392</ele>
        <time>2016-07-20T18:46:51Z</time>
      </trkpt>
      <trkpt lat="41.016192" lon="-3.330777">
        <ele>1171.078</ele>
        <time>2016-07-20T18:46:52Z</time>
      </trkpt>
      <trkpt lat="41.016245" lon="-3.330614">
        <ele>1172.054</ele>
        <time>2016-07-20T18:46:53Z</time>
      </trkpt>
      <trkpt lat="41.016286" lon="-3.330456">
        <ele>1173.549</ele>
        <time>2016-07-20T18:46:54Z</time>
      </trkpt>
      <trkpt lat="41.016325" lon="-3.330288">
        <ele>1174.752</ele>
        <time>2016-07-20T18:46:55Z</time>
      </trkpt>
      <trkpt lat="41.016360" lon="-3.330129">
        <ele>1175.512</ele>
        <time>2016-07-20T18:46:56Z</time>
      </trkpt>
      <trkpt lat="41.016395" lon="-3.329972">
        <ele>1176.750</ele>
        <time>2016-07-20T18:46:57Z</time>
      </trkpt>
      <trkpt lat="41.016440" lon="-3.329833">
        <ele>1177.783</ele>
        <time>2016-07-20T18:46:58Z</time>
      </trkpt>
      <trkpt lat="41.016479" lon="-3.329717">
        <ele>1178.425</ele>
        <time>2016-07-20T18:46:59Z</time>
      </trkpt>
      <trkpt lat="41.016543" lon="-3.329518">
        <ele>1179.517</ele>
        <time>2016-07-20T18:47:01Z</time>
      </trkpt>
      <trkpt lat="41.016526" lon="-3.329345">
        <ele>1182.108</ele>
        <time>2016-07-20T18:47:03Z</time>
      </trkpt>
      <trkpt lat="41.016405" lon="-3.329222">
        <ele>1185.479</ele>
        <time>2016-07-20T18:47:05Z</time>
      </trkpt>
      <trkpt lat="41.016268" lon="-3.329112">
        <ele>1187.672</ele>
        <time>2016-07-20T18:47:07Z</time>
      </trkpt>
      <trkpt lat="41.016189" lon="-3.329044">
        <ele>1188.168</ele>
        <time>2016-07-20T18:47:08Z</time>
      </trkpt>
      <trkpt lat="41.016050" lon="-3.328931">
        <ele>1188.174</ele>
        <time>2016-07-20T18:47:10Z</time>
      </trkpt>
      <trkpt lat="41.015895" lon="-3.328875">
        <ele>1187.799</ele>
        <time>2016-07-20T18:47:12Z</time>
      </trkpt>
      <trkpt lat="41.015807" lon="-3.328835">
        <ele>1187.462</ele>
        <time>2016-07-20T18:47:13Z</time>
      </trkpt>
      <trkpt lat="41.015726" lon="-3.328770">
        <ele>1187.712</ele>
        <time>2016-07-20T18:47:14Z</time>
      </trkpt>
      <trkpt lat="41.015644" lon="-3.328688">
        <ele>1187.980</ele>
        <time>2016-07-20T18:47:15Z</time>
      </trkpt>
      <trkpt lat="41.015562" lon="-3.328601">
        <ele>1188.997</ele>
        <time>2016-07-20T18:47:16Z</time>
      </trkpt>
      <trkpt lat="41.015480" lon="-3.328513">
        <ele>1189.823</ele>
        <time>2016-07-20T18:47:17Z</time>
      </trkpt>
      <trkpt lat="41.015401" lon="-3.328431">
        <ele>1191.125</ele>
        <time>2016-07-20T18:47:19Z</time>
      </trkpt>
      <trkpt lat="41.015310" lon="-3.328343">
        <ele>1191.908</ele>
        <time>2016-07-20T18:47:20Z</time>
      </trkpt>
      <trkpt lat="41.015226" lon="-3.328260">
        <ele>1192.880</ele>
        <time>2016-07-20T18:47:21Z</time>
      </trkpt>
      <trkpt lat="41.015148" lon="-3.328181">
        <ele>1193.823</ele>
        <time>2016-07-20T18:47:22Z</time>
      </trkpt>
      <trkpt lat="41.015072" lon="-3.328099">
        <ele>1194.679</ele>
        <time>2016-07-20T18:47:23Z</time>
      </trkpt>
      <trkpt lat="41.014998" lon="-3.328018">
        <ele>1195.795</ele>
        <time>2016-07-20T18:47:24Z</time>
      </trkpt>
      <trkpt lat="41.014872" lon="-3.327857">
        <ele>1196.820</ele>
        <time>2016-07-20T18:47:25Z</time>
      </trkpt>
      <trkpt lat="41.014785" lon="-3.327666">
        <ele>1198.433</ele>
        <time>2016-07-20T18:47:27Z</time>
      </trkpt>
      <trkpt lat="41.014846" lon="-3.327426">
        <ele>1199.623</ele>
        <time>2016-07-20T18:47:29Z</time>
      </trkpt>
      <trkpt lat="41.014919" lon="-3.327321">
        <ele>1200.171</ele>
        <time>2016-07-20T18:47:30Z</time>
      </trkpt>
      <trkpt lat="41.014989" lon="-3.327232">
        <ele>1201.025</ele>
        <time>2016-07-20T18:47:31Z</time>
      </trkpt>
      <trkpt lat="41.015060" lon="-3.327157">
        <ele>1201.726</ele>
        <time>2016-07-20T18:47:32Z</time>
      </trkpt>
      <trkpt lat="41.015143" lon="-3.327078">
        <ele>1201.908</ele>
        <time>2016-07-20T18:47:33Z</time>
      </trkpt>
      <trkpt lat="41.015226" lon="-3.327016">
        <ele>1201.908</ele>
        <time>2016-07-20T18:47:34Z</time>
      </trkpt>
      <trkpt lat="41.015321" lon="-3.326945">
        <ele>1202.053</ele>
        <time>2016-07-20T18:47:35Z</time>
      </trkpt>
      <trkpt lat="41.015416" lon="-3.326873">
        <ele>1201.476</ele>
        <time>2016-07-20T18:47:36Z</time>
      </trkpt>
      <trkpt lat="41.015513" lon="-3.326801">
        <ele>1201.032</ele>
        <time>2016-07-20T18:47:37Z</time>
      </trkpt>
      <trkpt lat="41.015608" lon="-3.326731">
        <ele>1200.548</ele>
        <time>2016-07-20T18:47:38Z</time>
      </trkpt>
      <trkpt lat="41.015702" lon="-3.326664">
        <ele>1200.113</ele>
        <time>2016-07-20T18:47:39Z</time>
      </trkpt>
      <trkpt lat="41.015789" lon="-3.326602">
        <ele>1199.796</ele>
        <time>2016-07-20T18:47:40Z</time>
      </trkpt>
      <trkpt lat="41.015876" lon="-3.326543">
        <ele>1198.956</ele>
        <time>2016-07-20T18:47:41Z</time>
      </trkpt>
      <trkpt lat="41.015954" lon="-3.326481">
        <ele>1198.644</ele>
        <time>2016-07-20T18:47:42Z</time>
      </trkpt>
      <trkpt lat="41.016087" lon="-3.326334">
        <ele>1197.597</ele>
        <time>2016-07-20T18:47:44Z</time>
      </trkpt>
      <trkpt lat="41.016221" lon="-3.326156">
        <ele>1196.423</ele>
        <time>2016-07-20T18:47:46Z</time>
      </trkpt>
      <trkpt lat="41.016305" lon="-3.326065">
        <ele>1196.425</ele>
        <time>2016-07-20T18:47:47Z</time>
      </trkpt>
      <trkpt lat="41.016405" lon="-3.326011">
        <ele>1196.708</ele>
        <time>2016-07-20T18:47:48Z</time>
      </trkpt>
      <trkpt lat="41.016506" lon="-3.325968">
        <ele>1196.650</ele>
        <time>2016-07-20T18:47:49Z</time>
      </trkpt>
      <trkpt lat="41.016622" lon="-3.325943">
        <ele>1196.743</ele>
        <time>2016-07-20T18:47:50Z</time>
      </trkpt>
      <trkpt lat="41.016740" lon="-3.325914">
        <ele>1196.999</ele>
        <time>2016-07-20T18:47:51Z</time>
      </trkpt>
      <trkpt lat="41.016860" lon="-3.325877">
        <ele>1197.245</ele>
        <time>2016-07-20T18:47:52Z</time>
      </trkpt>
      <trkpt lat="41.016974" lon="-3.325834">
        <ele>1197.640</ele>
        <time>2016-07-20T18:47:53Z</time>
      </trkpt>
      <trkpt lat="41.017087" lon="-3.325782">
        <ele>1197.443</ele>
        <time>2016-07-20T18:47:54Z</time>
      </trkpt>
      <trkpt lat="41.017198" lon="-3.325728">
        <ele>1197.743</ele>
        <time>2016-07-20T18:47:55Z</time>
      </trkpt>
      <trkpt lat="41.017316" lon="-3.325664">
        <ele>1197.621</ele>
        <time>2016-07-20T18:47:56Z</time>
      </trkpt>
      <trkpt lat="41.017418" lon="-3.325562">
        <ele>1197.278</ele>
        <time>2016-07-20T18:47:57Z</time>
      </trkpt>
      <trkpt lat="41.017503" lon="-3.325474">
        <ele>1196.533</ele>
        <time>2016-07-20T18:47:58Z</time>
      </trkpt>
      <trkpt lat="41.017594" lon="-3.325373">
        <ele>1196.226</ele>
        <time>2016-07-20T18:47:59Z</time>
      </trkpt>
      <trkpt lat="41.017688" lon="-3.325261">
        <ele>1195.908</ele>
        <time>2016-07-20T18:48:00Z</time>
      </trkpt>
      <trkpt lat="41.017791" lon="-3.325133">
        <ele>1195.238</ele>
        <time>2016-07-20T18:48:01Z</time>
      </trkpt>
      <trkpt lat="41.017872" lon="-3.324997">
        <ele>1194.531</ele>
        <time>2016-07-20T18:48:02Z</time>
      </trkpt>
      <trkpt lat="41.017958" lon="-3.324854">
        <ele>1193.717</ele>
        <time>2016-07-20T18:48:03Z</time>
      </trkpt>
      <trkpt lat="41.018042" lon="-3.324710">
        <ele>1192.863</ele>
        <time>2016-07-20T18:48:04Z</time>
      </trkpt>
      <trkpt lat="41.018126" lon="-3.324566">
        <ele>1191.528</ele>
        <time>2016-07-20T18:48:05Z</time>
      </trkpt>
      <trkpt lat="41.018209" lon="-3.324409">
        <ele>1190.681</ele>
        <time>2016-07-20T18:48:06Z</time>
      </trkpt>
      <trkpt lat="41.018289" lon="-3.324254">
        <ele>1189.761</ele>
        <time>2016-07-20T18:48:07Z</time>
      </trkpt>
      <trkpt lat="41.018371" lon="-3.324092">
        <ele>1189.029</ele>
        <time>2016-07-20T18:48:08Z</time>
      </trkpt>
      <trkpt lat="41.018448" lon="-3.323929">
        <ele>1188.577</ele>
        <time>2016-07-20T18:48:10Z</time>
      </trkpt>
      <trkpt lat="41.018512" lon="-3.323773">
        <ele>1187.661</ele>
        <time>2016-07-20T18:48:10Z</time>
      </trkpt>
      <trkpt lat="41.018576" lon="-3.323624">
        <ele>1186.627</ele>
        <time>2016-07-20T18:48:12Z</time>
      </trkpt>
      <trkpt lat="41.018635" lon="-3.323494">
        <ele>1185.708</ele>
        <time>2016-07-20T18:48:13Z</time>
      </trkpt>
      <trkpt lat="41.018696" lon="-3.323368">
        <ele>1185.058</ele>
        <time>2016-07-20T18:48:14Z</time>
      </trkpt>
      <trkpt lat="41.018741" lon="-3.323236">
        <ele>1184.341</ele>
        <time>2016-07-20T18:48:15Z</time>
      </trkpt>
      <trkpt lat="41.018783" lon="-3.323103">
        <ele>1183.737</ele>
        <time>2016-07-20T18:48:16Z</time>
      </trkpt>
      <trkpt lat="41.018821" lon="-3.322954">
        <ele>1183.223</ele>
        <time>2016-07-20T18:48:17Z</time>
      </trkpt>
      <trkpt lat="41.018830" lon="-3.322808">
        <ele>1182.868</ele>
        <time>2016-07-20T18:48:18Z</time>
      </trkpt>
      <trkpt lat="41.018830" lon="-3.322646">
        <ele>1183.091</ele>
        <time>2016-07-20T18:48:19Z</time>
      </trkpt>
      <trkpt lat="41.018827" lon="-3.322483">
        <ele>1182.881</ele>
        <time>2016-07-20T18:48:20Z</time>
      </trkpt>
      <trkpt lat="41.018819" lon="-3.322328">
        <ele>1182.069</ele>
        <time>2016-07-20T18:48:21Z</time>
      </trkpt>
      <trkpt lat="41.018807" lon="-3.322183">
        <ele>1181.147</ele>
        <time>2016-07-20T18:48:22Z</time>
      </trkpt>
      <trkpt lat="41.018774" lon="-3.322049">
        <ele>1180.429</ele>
        <time>2016-07-20T18:48:23Z</time>
      </trkpt>
      <trkpt lat="41.018712" lon="-3.321928">
        <ele>1179.621</ele>
        <time>2016-07-20T18:48:24Z</time>
      </trkpt>
      <trkpt lat="41.018649" lon="-3.321817">
        <ele>1178.808</ele>
        <time>2016-07-20T18:48:25Z</time>
      </trkpt>
      <trkpt lat="41.018580" lon="-3.321706">
        <ele>1178.195</ele>
        <time>2016-07-20T18:48:26Z</time>
      </trkpt>
      <trkpt lat="41.018504" lon="-3.321606">
        <ele>1177.438</ele>
        <time>2016-07-20T18:48:27Z</time>
      </trkpt>
      <trkpt lat="41.018424" lon="-3.321510">
        <ele>1176.874</ele>
        <time>2016-07-20T18:48:28Z</time>
      </trkpt>
      <trkpt lat="41.018347" lon="-3.321427">
        <ele>1176.170</ele>
        <time>2016-07-20T18:48:29Z</time>
      </trkpt>
      <trkpt lat="41.018220" lon="-3.321291">
        <ele>1173.735</ele>
        <time>2016-07-20T18:48:31Z</time>
      </trkpt>
      <trkpt lat="41.018179" lon="-3.321100">
        <ele>1172.058</ele>
        <time>2016-07-20T18:48:33Z</time>
      </trkpt>
      <trkpt lat="41.018164" lon="-3.320909">
        <ele>1170.988</ele>
        <time>2016-07-20T18:48:35Z</time>
      </trkpt>
      <trkpt lat="41.018169" lon="-3.320707">
        <ele>1169.416</ele>
        <time>2016-07-20T18:48:37Z</time>
      </trkpt>
      <trkpt lat="41.018225" lon="-3.320485">
        <ele>1168.597</ele>
        <time>2016-07-20T18:48:39Z</time>
      </trkpt>
      <trkpt lat="41.018268" lon="-3.320366">
        <ele>1169.023</ele>
        <time>2016-07-20T18:48:40Z</time>
      </trkpt>
      <trkpt lat="41.018313" lon="-3.320254">
        <ele>1169.125</ele>
        <time>2016-07-20T18:48:41Z</time>
      </trkpt>
      <trkpt lat="41.018366" lon="-3.320132">
        <ele>1169.508</ele>
        <time>2016-07-20T18:48:42Z</time>
      </trkpt>
      <trkpt lat="41.018416" lon="-3.320014">
        <ele>1170.740</ele>
        <time>2016-07-20T18:48:43Z</time>
      </trkpt>
      <trkpt lat="41.018446" lon="-3.319886">
        <ele>1172.713</ele>
        <time>2016-07-20T18:48:44Z</time>
      </trkpt>
      <trkpt lat="41.018467" lon="-3.319770">
        <ele>1174.579</ele>
        <time>2016-07-20T18:48:45Z</time>
      </trkpt>
      <trkpt lat="41.018456" lon="-3.319642">
        <ele>1175.965</ele>
        <time>2016-07-20T18:48:46Z</time>
      </trkpt>
      <trkpt lat="41.018447" lon="-3.319504">
        <ele>1178.290</ele>
        <time>2016-07-20T18:48:47Z</time>
      </trkpt>
      <trkpt lat="41.018454" lon="-3.319372">
        <ele>1180.213</ele>
        <time>2016-07-20T18:48:48Z</time>
      </trkpt>
      <trkpt lat="41.018463" lon="-3.319245">
        <ele>1182.073</ele>
        <time>2016-07-20T18:48:49Z</time>
      </trkpt>
      <trkpt lat="41.018489" lon="-3.319029">
        <ele>1185.841</ele>
        <time>2016-07-20T18:48:51Z</time>
      </trkpt>
      <trkpt lat="41.018501" lon="-3.318861">
        <ele>1189.182</ele>
        <time>2016-07-20T18:48:53Z</time>
      </trkpt>
      <trkpt lat="41.018482" lon="-3.318732">
        <ele>1192.443</ele>
        <time>2016-07-20T18:48:55Z</time>
      </trkpt>
      <trkpt lat="41.018437" lon="-3.318624">
        <ele>1192.917</ele>
        <time>2016-07-20T18:49:05Z</time>
      </trkpt>
      <trkpt lat="41.018507" lon="-3.318505">
        <ele>1194.208</ele>
        <time>2016-07-20T18:49:09Z</time>
      </trkpt>
      <trkpt lat="41.018456" lon="-3.318605">
        <ele>1198.669</ele>
        <time>2016-07-20T18:49:57Z</time>
      </trkpt>
      <trkpt lat="41.018328" lon="-3.318478">
        <ele>1198.552</ele>
        <time>2016-07-20T18:50:06Z</time>
      </trkpt>
      <trkpt lat="41.018285" lon="-3.318358">
        <ele>1198.858</ele>
        <time>2016-07-20T18:50:07Z</time>
      </trkpt>
      <trkpt lat="41.018226" lon="-3.318155">
        <ele>1198.784</ele>
        <time>2016-07-20T18:50:09Z</time>
      </trkpt>
      <trkpt lat="41.018191" lon="-3.318044">
        <ele>1198.229</ele>
        <time>2016-07-20T18:50:10Z</time>
      </trkpt>
      <trkpt lat="41.018118" lon="-3.317866">
        <ele>1196.682</ele>
        <time>2016-07-20T18:50:12Z</time>
      </trkpt>
      <trkpt lat="41.018028" lon="-3.317749">
        <ele>1194.522</ele>
        <time>2016-07-20T18:50:14Z</time>
      </trkpt>
      <trkpt lat="41.017929" lon="-3.317641">
        <ele>1193.270</ele>
        <time>2016-07-20T18:50:16Z</time>
      </trkpt>
      <trkpt lat="41.017856" lon="-3.317495">
        <ele>1192.299</ele>
        <time>2016-07-20T18:50:18Z</time>
      </trkpt>
      <trkpt lat="41.017807" lon="-3.317310">
        <ele>1191.407</ele>
        <time>2016-07-20T18:50:20Z</time>
      </trkpt>
      <trkpt lat="41.017763" lon="-3.317132">
        <ele>1190.027</ele>
        <time>2016-07-20T18:50:22Z</time>
      </trkpt>
      <trkpt lat="41.017726" lon="-3.316940">
        <ele>1188.508</ele>
        <time>2016-07-20T18:50:24Z</time>
      </trkpt>
      <trkpt lat="41.017702" lon="-3.316746">
        <ele>1187.920</ele>
        <time>2016-07-20T18:50:26Z</time>
      </trkpt>
      <trkpt lat="41.017682" lon="-3.316572">
        <ele>1188.493</ele>
        <time>2016-07-20T18:50:28Z</time>
      </trkpt>
      <trkpt lat="41.017661" lon="-3.316421">
        <ele>1187.889</ele>
        <time>2016-07-20T18:50:30Z</time>
      </trkpt>
      <trkpt lat="41.017630" lon="-3.316291">
        <ele>1186.245</ele>
        <time>2016-07-20T18:50:32Z</time>
      </trkpt>
      <trkpt lat="41.017559" lon="-3.316170">
        <ele>1184.020</ele>
        <time>2016-07-20T18:50:34Z</time>
      </trkpt>
      <trkpt lat="41.017442" lon="-3.316067">
        <ele>1183.123</ele>
        <time>2016-07-20T18:50:36Z</time>
      </trkpt>
      <trkpt lat="41.017303" lon="-3.315997">
        <ele>1182.273</ele>
        <time>2016-07-20T18:50:38Z</time>
      </trkpt>
      <trkpt lat="41.017176" lon="-3.315967">
        <ele>1180.191</ele>
        <time>2016-07-20T18:50:40Z</time>
      </trkpt>
      <trkpt lat="41.017063" lon="-3.315990">
        <ele>1179.548</ele>
        <time>2016-07-20T18:50:45Z</time>
      </trkpt>
      <trkpt lat="41.016931" lon="-3.316087">
        <ele>1176.261</ele>
        <time>2016-07-20T18:50:47Z</time>
      </trkpt>
      <trkpt lat="41.016803" lon="-3.316197">
        <ele>1174.417</ele>
        <time>2016-07-20T18:50:49Z</time>
      </trkpt>
      <trkpt lat="41.016686" lon="-3.316344">
        <ele>1172.108</ele>
        <time>2016-07-20T18:50:51Z</time>
      </trkpt>
      <trkpt lat="41.016607" lon="-3.316544">
        <ele>1170.575</ele>
        <time>2016-07-20T18:50:53Z</time>
      </trkpt>
      <trkpt lat="41.016536" lon="-3.316754">
        <ele>1168.938</ele>
        <time>2016-07-20T18:50:55Z</time>
      </trkpt>
      <trkpt lat="41.016435" lon="-3.316866">
        <ele>1168.844</ele>
        <time>2016-07-20T18:50:57Z</time>
      </trkpt>
      <trkpt lat="41.016333" lon="-3.316866">
        <ele>1170.510</ele>
        <time>2016-07-20T18:50:59Z</time>
      </trkpt>
      <trkpt lat="41.016262" lon="-3.316783">
        <ele>1171.415</ele>
        <time>2016-07-20T18:51:01Z</time>
      </trkpt>
      <trkpt lat="41.016224" lon="-3.316671">
        <ele>1171.018</ele>
        <time>2016-07-20T18:51:03Z</time>
      </trkpt>
      <trkpt lat="41.016185" lon="-3.316432">
        <ele>1169.628</ele>
        <time>2016-07-20T18:51:18Z</time>
      </trkpt>
      <trkpt lat="41.016138" lon="-3.316321">
        <ele>1167.366</ele>
        <time>2016-07-20T18:51:20Z</time>
      </trkpt>
      <trkpt lat="41.016067" lon="-3.316151">
        <ele>1165.331</ele>
        <time>2016-07-20T18:51:22Z</time>
      </trkpt>
      <trkpt lat="41.016042" lon="-3.316033">
        <ele>1164.161</ele>
        <time>2016-07-20T18:51:23Z</time>
      </trkpt>
      <trkpt lat="41.016002" lon="-3.315799">
        <ele>1161.807</ele>
        <time>2016-07-20T18:51:25Z</time>
      </trkpt>
      <trkpt lat="41.015981" lon="-3.315664">
        <ele>1161.308</ele>
        <time>2016-07-20T18:51:26Z</time>
      </trkpt>
      <trkpt lat="41.015971" lon="-3.315528">
        <ele>1160.774</ele>
        <time>2016-07-20T18:51:27Z</time>
      </trkpt>
      <trkpt lat="41.015965" lon="-3.315395">
        <ele>1160.027</ele>
        <time>2016-07-20T18:51:28Z</time>
      </trkpt>
      <trkpt lat="41.015981" lon="-3.315265">
        <ele>1159.233</ele>
        <time>2016-07-20T18:51:29Z</time>
      </trkpt>
      <trkpt lat="41.015997" lon="-3.315136">
        <ele>1159.069</ele>
        <time>2016-07-20T18:51:30Z</time>
      </trkpt>
      <trkpt lat="41.016018" lon="-3.315016">
        <ele>1158.044</ele>
        <time>2016-07-20T18:51:31Z</time>
      </trkpt>
      <trkpt lat="41.016042" lon="-3.314891">
        <ele>1157.687</ele>
        <time>2016-07-20T18:51:32Z</time>
      </trkpt>
      <trkpt lat="41.016064" lon="-3.314773">
        <ele>1156.857</ele>
        <time>2016-07-20T18:51:33Z</time>
      </trkpt>
      <trkpt lat="41.016089" lon="-3.314547">
        <ele>1155.455</ele>
        <time>2016-07-20T18:51:35Z</time>
      </trkpt>
      <trkpt lat="41.016080" lon="-3.314308">
        <ele>1156.017</ele>
        <time>2016-07-20T18:51:38Z</time>
      </trkpt>
      <trkpt lat="41.016066" lon="-3.314189">
        <ele>1156.987</ele>
        <time>2016-07-20T18:51:39Z</time>
      </trkpt>
      <trkpt lat="41.016043" lon="-3.314062">
        <ele>1157.915</ele>
        <time>2016-07-20T18:51:40Z</time>
      </trkpt>
      <trkpt lat="41.016010" lon="-3.313931">
        <ele>1158.208</ele>
        <time>2016-07-20T18:51:41Z</time>
      </trkpt>
      <trkpt lat="41.015980" lon="-3.313794">
        <ele>1158.072</ele>
        <time>2016-07-20T18:51:42Z</time>
      </trkpt>
      <trkpt lat="41.015953" lon="-3.313652">
        <ele>1157.565</ele>
        <time>2016-07-20T18:51:43Z</time>
      </trkpt>
      <trkpt lat="41.015927" lon="-3.313508">
        <ele>1156.841</ele>
        <time>2016-07-20T18:51:44Z</time>
      </trkpt>
      <trkpt lat="41.015886" lon="-3.313365">
        <ele>1155.817</ele>
        <time>2016-07-20T18:51:45Z</time>
      </trkpt>
      <trkpt lat="41.015846" lon="-3.313222">
        <ele>1155.012</ele>
        <time>2016-07-20T18:51:46Z</time>
      </trkpt>
      <trkpt lat="41.015804" lon="-3.313103">
        <ele>1153.875</ele>
        <time>2016-07-20T18:51:47Z</time>
      </trkpt>
      <trkpt lat="41.015740" lon="-3.312999">
        <ele>1152.925</ele>
        <time>2016-07-20T18:51:48Z</time>
      </trkpt>
      <trkpt lat="41.015609" lon="-3.312847">
        <ele>1150.923</ele>
        <time>2016-07-20T18:51:50Z</time>
      </trkpt>
      <trkpt lat="41.015531" lon="-3.312772">
        <ele>1149.725</ele>
        <time>2016-07-20T18:51:51Z</time>
      </trkpt>
      <trkpt lat="41.015449" lon="-3.312700">
        <ele>1148.426</ele>
        <time>2016-07-20T18:51:52Z</time>
      </trkpt>
      <trkpt lat="41.015360" lon="-3.312626">
        <ele>1148.008</ele>
        <time>2016-07-20T18:51:53Z</time>
      </trkpt>
      <trkpt lat="41.015266" lon="-3.312548">
        <ele>1147.408</ele>
        <time>2016-07-20T18:51:54Z</time>
      </trkpt>
      <trkpt lat="41.015194" lon="-3.312460">
        <ele>1147.353</ele>
        <time>2016-07-20T18:51:55Z</time>
      </trkpt>
      <trkpt lat="41.015162" lon="-3.312346">
        <ele>1147.026</ele>
        <time>2016-07-20T18:51:56Z</time>
      </trkpt>
      <trkpt lat="41.015161" lon="-3.312227">
        <ele>1146.662</ele>
        <time>2016-07-20T18:51:57Z</time>
      </trkpt>
      <trkpt lat="41.015151" lon="-3.311984">
        <ele>1145.278</ele>
        <time>2016-07-20T18:51:59Z</time>
      </trkpt>
      <trkpt lat="41.015156" lon="-3.311846">
        <ele>1144.693</ele>
        <time>2016-07-20T18:52:00Z</time>
      </trkpt>
      <trkpt lat="41.015169" lon="-3.311713">
        <ele>1144.066</ele>
        <time>2016-07-20T18:52:01Z</time>
      </trkpt>
      <trkpt lat="41.015211" lon="-3.311584">
        <ele>1143.456</ele>
        <time>2016-07-20T18:52:02Z</time>
      </trkpt>
      <trkpt lat="41.015258" lon="-3.311455">
        <ele>1143.034</ele>
        <time>2016-07-20T18:52:03Z</time>
      </trkpt>
      <trkpt lat="41.015305" lon="-3.311323">
        <ele>1142.455</ele>
        <time>2016-07-20T18:52:04Z</time>
      </trkpt>
      <trkpt lat="41.015352" lon="-3.311199">
        <ele>1141.907</ele>
        <time>2016-07-20T18:52:05Z</time>
      </trkpt>
      <trkpt lat="41.015393" lon="-3.311080">
        <ele>1141.117</ele>
        <time>2016-07-20T18:52:06Z</time>
      </trkpt>
      <trkpt lat="41.015432" lon="-3.310950">
        <ele>1141.008</ele>
        <time>2016-07-20T18:52:07Z</time>
      </trkpt>
      <trkpt lat="41.015463" lon="-3.310819">
        <ele>1141.596</ele>
        <time>2016-07-20T18:52:08Z</time>
      </trkpt>
      <trkpt lat="41.015468" lon="-3.310681">
        <ele>1141.849</ele>
        <time>2016-07-20T18:52:09Z</time>
      </trkpt>
      <trkpt lat="41.015470" lon="-3.310554">
        <ele>1141.695</ele>
        <time>2016-07-20T18:52:10Z</time>
      </trkpt>
      <trkpt lat="41.015466" lon="-3.310433">
        <ele>1141.021</ele>
        <time>2016-07-20T18:52:11Z</time>
      </trkpt>
      <trkpt lat="41.015387" lon="-3.310238">
        <ele>1138.756</ele>
        <time>2016-07-20T18:52:13Z</time>
      </trkpt>
      <trkpt lat="41.015262" lon="-3.310065">
        <ele>1137.249</ele>
        <time>2016-07-20T18:52:15Z</time>
      </trkpt>
      <trkpt lat="41.015185" lon="-3.309974">
        <ele>1136.239</ele>
        <time>2016-07-20T18:52:16Z</time>
      </trkpt>
      <trkpt lat="41.015091" lon="-3.309885">
        <ele>1135.327</ele>
        <time>2016-07-20T18:52:17Z</time>
      </trkpt>
      <trkpt lat="41.014985" lon="-3.309801">
        <ele>1134.841</ele>
        <time>2016-07-20T18:52:18Z</time>
      </trkpt>
      <trkpt lat="41.014865" lon="-3.309741">
        <ele>1134.281</ele>
        <time>2016-07-20T18:52:19Z</time>
      </trkpt>
      <trkpt lat="41.014745" lon="-3.309682">
        <ele>1134.309</ele>
        <time>2016-07-20T18:52:20Z</time>
      </trkpt>
      <trkpt lat="41.014637" lon="-3.309641">
        <ele>1133.108</ele>
        <time>2016-07-20T18:52:21Z</time>
      </trkpt>
      <trkpt lat="41.014536" lon="-3.309600">
        <ele>1132.135</ele>
        <time>2016-07-20T18:52:22Z</time>
      </trkpt>
      <trkpt lat="41.014429" lon="-3.309560">
        <ele>1131.098</ele>
        <time>2016-07-20T18:52:23Z</time>
      </trkpt>
      <trkpt lat="41.014314" lon="-3.309513">
        <ele>1129.774</ele>
        <time>2016-07-20T18:52:24Z</time>
      </trkpt>
      <trkpt lat="41.014204" lon="-3.309466">
        <ele>1127.790</ele>
        <time>2016-07-20T18:52:25Z</time>
      </trkpt>
      <trkpt lat="41.014101" lon="-3.309422">
        <ele>1125.995</ele>
        <time>2016-07-20T18:52:26Z</time>
      </trkpt>
      <trkpt lat="41.014003" lon="-3.309399">
        <ele>1124.418</ele>
        <time>2016-07-20T18:52:27Z</time>
      </trkpt>
      <trkpt lat="41.013904" lon="-3.309384">
        <ele>1122.788</ele>
        <time>2016-07-20T18:52:28Z</time>
      </trkpt>
      <trkpt lat="41.013810" lon="-3.309409">
        <ele>1121.156</ele>
        <time>2016-07-20T18:52:29Z</time>
      </trkpt>
      <trkpt lat="41.013716" lon="-3.309441">
        <ele>1119.849</ele>
        <time>2016-07-20T18:52:30Z</time>
      </trkpt>
      <trkpt lat="41.013611" lon="-3.309492">
        <ele>1119.502</ele>
        <time>2016-07-20T18:52:31Z</time>
      </trkpt>
      <trkpt lat="41.013505" lon="-3.309544">
        <ele>1119.222</ele>
        <time>2016-07-20T18:52:32Z</time>
      </trkpt>
      <trkpt lat="41.013399" lon="-3.309598">
        <ele>1119.208</ele>
        <time>2016-07-20T18:52:33Z</time>
      </trkpt>
      <trkpt lat="41.013299" lon="-3.309660">
        <ele>1119.575</ele>
        <time>2016-07-20T18:52:34Z</time>
      </trkpt>
      <trkpt lat="41.013215" lon="-3.309749">
        <ele>1119.558</ele>
        <time>2016-07-20T18:52:35Z</time>
      </trkpt>
      <trkpt lat="41.013132" lon="-3.309847">
        <ele>1119.374</ele>
        <time>2016-07-20T18:52:36Z</time>
      </trkpt>
      <trkpt lat="41.013057" lon="-3.309934">
        <ele>1119.690</ele>
        <time>2016-07-20T18:52:37Z</time>
      </trkpt>
      <trkpt lat="41.012976" lon="-3.310030">
        <ele>1119.375</ele>
        <time>2016-07-20T18:52:38Z</time>
      </trkpt>
      <trkpt lat="41.012894" lon="-3.310091">
        <ele>1119.458</ele>
        <time>2016-07-20T18:52:39Z</time>
      </trkpt>
      <trkpt lat="41.012803" lon="-3.310128">
        <ele>1119.578</ele>
        <time>2016-07-20T18:52:40Z</time>
      </trkpt>
      <trkpt lat="41.012706" lon="-3.310162">
        <ele>1119.126</ele>
        <time>2016-07-20T18:52:41Z</time>
      </trkpt>
      <trkpt lat="41.012547" lon="-3.310142">
        <ele>1118.496</ele>
        <time>2016-07-20T18:52:43Z</time>
      </trkpt>
      <trkpt lat="41.012433" lon="-3.309987">
        <ele>1117.431</ele>
        <time>2016-07-20T18:52:45Z</time>
      </trkpt>
      <trkpt lat="41.012375" lon="-3.309892">
        <ele>1117.624</ele>
        <time>2016-07-20T18:52:46Z</time>
      </trkpt>
      <trkpt lat="41.012312" lon="-3.309672">
        <ele>1119.008</ele>
        <time>2016-07-20T18:52:48Z</time>
      </trkpt>
      <trkpt lat="41.012263" lon="-3.309427">
        <ele>1118.680</ele>
        <time>2016-07-20T18:52:49Z</time>
      </trkpt>
      <trkpt lat="41.012249" lon="-3.309307">
        <ele>1117.753</ele>
        <time>2016-07-20T18:52:50Z</time>
      </trkpt>
      <trkpt lat="41.012225" lon="-3.309097">
        <ele>1116.179</ele>
        <time>2016-07-20T18:52:52Z</time>
      </trkpt>
      <trkpt lat="41.012171" lon="-3.308934">
        <ele>1114.635</ele>
        <time>2016-07-20T18:52:54Z</time>
      </trkpt>
      <trkpt lat="41.012079" lon="-3.308834">
        <ele>1112.750</ele>
        <time>2016-07-20T18:52:56Z</time>
      </trkpt>
      <trkpt lat="41.011945" lon="-3.308744">
        <ele>1112.143</ele>
        <time>2016-07-20T18:52:58Z</time>
      </trkpt>
      <trkpt lat="41.011857" lon="-3.308709">
        <ele>1111.693</ele>
        <time>2016-07-20T18:52:59Z</time>
      </trkpt>
      <trkpt lat="41.011674" lon="-3.308639">
        <ele>1109.151</ele>
        <time>2016-07-20T18:53:01Z</time>
      </trkpt>
      <trkpt lat="41.011567" lon="-3.308588">
        <ele>1108.492</ele>
        <time>2016-07-20T18:53:02Z</time>
      </trkpt>
      <trkpt lat="41.011476" lon="-3.308509">
        <ele>1107.573</ele>
        <time>2016-07-20T18:53:03Z</time>
      </trkpt>
      <trkpt lat="41.011390" lon="-3.308424">
        <ele>1106.620</ele>
        <time>2016-07-20T18:53:04Z</time>
      </trkpt>
      <trkpt lat="41.011309" lon="-3.308333">
        <ele>1105.808</ele>
        <time>2016-07-20T18:53:05Z</time>
      </trkpt>
      <trkpt lat="41.011229" lon="-3.308233">
        <ele>1104.850</ele>
        <time>2016-07-20T18:53:06Z</time>
      </trkpt>
      <trkpt lat="41.011149" lon="-3.308117">
        <ele>1104.263</ele>
        <time>2016-07-20T18:53:07Z</time>
      </trkpt>
      <trkpt lat="41.011074" lon="-3.308002">
        <ele>1103.199</ele>
        <time>2016-07-20T18:53:08Z</time>
      </trkpt>
      <trkpt lat="41.011000" lon="-3.307879">
        <ele>1102.215</ele>
        <time>2016-07-20T18:53:09Z</time>
      </trkpt>
      <trkpt lat="41.010936" lon="-3.307760">
        <ele>1101.140</ele>
        <time>2016-07-20T18:53:10Z</time>
      </trkpt>
      <trkpt lat="41.010860" lon="-3.307637">
        <ele>1100.343</ele>
        <time>2016-07-20T18:53:11Z</time>
      </trkpt>
      <trkpt lat="41.010788" lon="-3.307525">
        <ele>1100.293</ele>
        <time>2016-07-20T18:53:12Z</time>
      </trkpt>
      <trkpt lat="41.010658" lon="-3.307398">
        <ele>1097.221</ele>
        <time>2016-07-20T18:53:14Z</time>
      </trkpt>
      <trkpt lat="41.010518" lon="-3.307382">
        <ele>1095.186</ele>
        <time>2016-07-20T18:53:16Z</time>
      </trkpt>
      <trkpt lat="41.010343" lon="-3.307450">
        <ele>1093.860</ele>
        <time>2016-07-20T18:53:18Z</time>
      </trkpt>
      <trkpt lat="41.010249" lon="-3.307506">
        <ele>1093.726</ele>
        <time>2016-07-20T18:53:19Z</time>
      </trkpt>
      <trkpt lat="41.010145" lon="-3.307565">
        <ele>1094.108</ele>
        <time>2016-07-20T18:53:20Z</time>
      </trkpt>
      <trkpt lat="41.010036" lon="-3.307622">
        <ele>1094.369</ele>
        <time>2016-07-20T18:53:21Z</time>
      </trkpt>
      <trkpt lat="41.009922" lon="-3.307635">
        <ele>1095.032</ele>
        <time>2016-07-20T18:53:22Z</time>
      </trkpt>
      <trkpt lat="41.009804" lon="-3.307620">
        <ele>1095.088</ele>
        <time>2016-07-20T18:53:23Z</time>
      </trkpt>
      <trkpt lat="41.009696" lon="-3.307597">
        <ele>1095.284</ele>
        <time>2016-07-20T18:53:24Z</time>
      </trkpt>
      <trkpt lat="41.009591" lon="-3.307567">
        <ele>1094.979</ele>
        <time>2016-07-20T18:53:25Z</time>
      </trkpt>
      <trkpt lat="41.009486" lon="-3.307535">
        <ele>1094.362</ele>
        <time>2016-07-20T18:53:26Z</time>
      </trkpt>
      <trkpt lat="41.009380" lon="-3.307512">
        <ele>1093.992</ele>
        <time>2016-07-20T18:53:27Z</time>
      </trkpt>
      <trkpt lat="41.009284" lon="-3.307500">
        <ele>1093.270</ele>
        <time>2016-07-20T18:53:28Z</time>
      </trkpt>
      <trkpt lat="41.009177" lon="-3.307515">
        <ele>1092.955</ele>
        <time>2016-07-20T18:53:29Z</time>
      </trkpt>
      <trkpt lat="41.009070" lon="-3.307536">
        <ele>1092.907</ele>
        <time>2016-07-20T18:53:30Z</time>
      </trkpt>
      <trkpt lat="41.008964" lon="-3.307572">
        <ele>1092.417</ele>
        <time>2016-07-20T18:53:31Z</time>
      </trkpt>
      <trkpt lat="41.008857" lon="-3.307613">
        <ele>1092.008</ele>
        <time>2016-07-20T18:53:32Z</time>
      </trkpt>
      <trkpt lat="41.008750" lon="-3.307658">
        <ele>1091.726</ele>
        <time>2016-07-20T18:53:33Z</time>
      </trkpt>
      <trkpt lat="41.008652" lon="-3.307704">
        <ele>1090.869</ele>
        <time>2016-07-20T18:53:34Z</time>
      </trkpt>
      <trkpt lat="41.008566" lon="-3.307754">
        <ele>1090.235</ele>
        <time>2016-07-20T18:53:35Z</time>
      </trkpt>
      <trkpt lat="41.008422" lon="-3.307842">
        <ele>1088.881</ele>
        <time>2016-07-20T18:53:38Z</time>
      </trkpt>
      <trkpt lat="41.008324" lon="-3.307971">
        <ele>1087.866</ele>
        <time>2016-07-20T18:53:40Z</time>
      </trkpt>
      <trkpt lat="41.008266" lon="-3.308160">
        <ele>1087.759</ele>
        <time>2016-07-20T18:53:42Z</time>
      </trkpt>
      <trkpt lat="41.008227" lon="-3.308384">
        <ele>1087.689</ele>
        <time>2016-07-20T18:53:44Z</time>
      </trkpt>
      <trkpt lat="41.008213" lon="-3.308516">
        <ele>1086.667</ele>
        <time>2016-07-20T18:53:45Z</time>
      </trkpt>
      <trkpt lat="41.008221" lon="-3.308759">
        <ele>1083.772</ele>
        <time>2016-07-20T18:53:47Z</time>
      </trkpt>
      <trkpt lat="41.008244" lon="-3.308905">
        <ele>1082.113</ele>
        <time>2016-07-20T18:53:48Z</time>
      </trkpt>
      <trkpt lat="41.008291" lon="-3.309145">
        <ele>1079.214</ele>
        <time>2016-07-20T18:53:50Z</time>
      </trkpt>
      <trkpt lat="41.008321" lon="-3.309280">
        <ele>1077.708</ele>
        <time>2016-07-20T18:53:51Z</time>
      </trkpt>
      <trkpt lat="41.008360" lon="-3.309395">
        <ele>1076.818</ele>
        <time>2016-07-20T18:53:52Z</time>
      </trkpt>
      <trkpt lat="41.008402" lon="-3.309512">
        <ele>1076.391</ele>
        <time>2016-07-20T18:53:53Z</time>
      </trkpt>
      <trkpt lat="41.008453" lon="-3.309641">
        <ele>1075.847</ele>
        <time>2016-07-20T18:53:54Z</time>
      </trkpt>
      <trkpt lat="41.008507" lon="-3.309761">
        <ele>1075.683</ele>
        <time>2016-07-20T18:53:55Z</time>
      </trkpt>
      <trkpt lat="41.008561" lon="-3.309870">
        <ele>1075.528</ele>
        <time>2016-07-20T18:53:56Z</time>
      </trkpt>
      <trkpt lat="41.008612" lon="-3.309983">
        <ele>1075.191</ele>
        <time>2016-07-20T18:53:57Z</time>
      </trkpt>
      <trkpt lat="41.008661" lon="-3.310114">
        <ele>1074.431</ele>
        <time>2016-07-20T18:53:58Z</time>
      </trkpt>
      <trkpt lat="41.008680" lon="-3.310254">
        <ele>1073.939</ele>
        <time>2016-07-20T18:53:59Z</time>
      </trkpt>
      <trkpt lat="41.008683" lon="-3.310400">
        <ele>1073.623</ele>
        <time>2016-07-20T18:54:00Z</time>
      </trkpt>
      <trkpt lat="41.008683" lon="-3.310544">
        <ele>1073.283</ele>
        <time>2016-07-20T18:54:01Z</time>
      </trkpt>
      <trkpt lat="41.008680" lon="-3.310684">
        <ele>1073.411</ele>
        <time>2016-07-20T18:54:02Z</time>
      </trkpt>
      <trkpt lat="41.008677" lon="-3.310806">
        <ele>1073.908</ele>
        <time>2016-07-20T18:54:03Z</time>
      </trkpt>
      <trkpt lat="41.008641" lon="-3.310940">
        <ele>1074.133</ele>
        <time>2016-07-20T18:54:04Z</time>
      </trkpt>
      <trkpt lat="41.008526" lon="-3.311047">
        <ele>1073.996</ele>
        <time>2016-07-20T18:54:06Z</time>
      </trkpt>
      <trkpt lat="41.008427" lon="-3.310995">
        <ele>1072.932</ele>
        <time>2016-07-20T18:54:08Z</time>
      </trkpt>
      <trkpt lat="41.008346" lon="-3.310897">
        <ele>1072.928</ele>
        <time>2016-07-20T18:54:10Z</time>
      </trkpt>
      <trkpt lat="41.008246" lon="-3.310738">
        <ele>1073.963</ele>
        <time>2016-07-20T18:54:12Z</time>
      </trkpt>
      <trkpt lat="41.008186" lon="-3.310637">
        <ele>1074.256</ele>
        <time>2016-07-20T18:54:13Z</time>
      </trkpt>
      <trkpt lat="41.008103" lon="-3.310549">
        <ele>1075.226</ele>
        <time>2016-07-20T18:54:14Z</time>
      </trkpt>
      <trkpt lat="41.008017" lon="-3.310467">
        <ele>1075.654</ele>
        <time>2016-07-20T18:54:15Z</time>
      </trkpt>
      <trkpt lat="41.007917" lon="-3.310382">
        <ele>1076.191</ele>
        <time>2016-07-20T18:54:16Z</time>
      </trkpt>
      <trkpt lat="41.007834" lon="-3.310311">
        <ele>1076.381</ele>
        <time>2016-07-20T18:54:17Z</time>
      </trkpt>
      <trkpt lat="41.007750" lon="-3.310242">
        <ele>1076.119</ele>
        <time>2016-07-20T18:54:18Z</time>
      </trkpt>
      <trkpt lat="41.007649" lon="-3.310153">
        <ele>1075.508</ele>
        <time>2016-07-20T18:54:19Z</time>
      </trkpt>
      <trkpt lat="41.007547" lon="-3.310064">
        <ele>1075.090</ele>
        <time>2016-07-20T18:54:20Z</time>
      </trkpt>
      <trkpt lat="41.007465" lon="-3.309990">
        <ele>1074.483</ele>
        <time>2016-07-20T18:54:21Z</time>
      </trkpt>
      <trkpt lat="41.007362" lon="-3.309894">
        <ele>1074.279</ele>
        <time>2016-07-20T18:54:22Z</time>
      </trkpt>
      <trkpt lat="41.007266" lon="-3.309800">
        <ele>1074.355</ele>
        <time>2016-07-20T18:54:23Z</time>
      </trkpt>
      <trkpt lat="41.007186" lon="-3.309718">
        <ele>1073.430</ele>
        <time>2016-07-20T18:54:24Z</time>
      </trkpt>
      <trkpt lat="41.007118" lon="-3.309630">
        <ele>1072.273</ele>
        <time>2016-07-20T18:54:25Z</time>
      </trkpt>
      <trkpt lat="41.007049" lon="-3.309539">
        <ele>1071.243</ele>
        <time>2016-07-20T18:54:26Z</time>
      </trkpt>
      <trkpt lat="41.006982" lon="-3.309439">
        <ele>1070.551</ele>
        <time>2016-07-20T18:54:27Z</time>
      </trkpt>
      <trkpt lat="41.006911" lon="-3.309320">
        <ele>1071.175</ele>
        <time>2016-07-20T18:54:28Z</time>
      </trkpt>
      <trkpt lat="41.006847" lon="-3.309224">
        <ele>1072.428</ele>
        <time>2016-07-20T18:54:29Z</time>
      </trkpt>
      <trkpt lat="41.006722" lon="-3.309104">
        <ele>1074.720</ele>
        <time>2016-07-20T18:54:31Z</time>
      </trkpt>
      <trkpt lat="41.006597" lon="-3.309090">
        <ele>1076.708</ele>
        <time>2016-07-20T18:54:33Z</time>
      </trkpt>
      <trkpt lat="41.006480" lon="-3.309179">
        <ele>1079.518</ele>
        <time>2016-07-20T18:54:35Z</time>
      </trkpt>
      <trkpt lat="41.006407" lon="-3.309366">
        <ele>1082.891</ele>
        <time>2016-07-20T18:54:37Z</time>
      </trkpt>
      <trkpt lat="41.006369" lon="-3.309475">
        <ele>1085.017</ele>
        <time>2016-07-20T18:54:38Z</time>
      </trkpt>
      <trkpt lat="41.006333" lon="-3.309607">
        <ele>1086.463</ele>
        <time>2016-07-20T18:54:39Z</time>
      </trkpt>
      <trkpt lat="41.006297" lon="-3.309748">
        <ele>1087.988</ele>
        <time>2016-07-20T18:54:40Z</time>
      </trkpt>
      <trkpt lat="41.006259" lon="-3.309906">
        <ele>1089.161</ele>
        <time>2016-07-20T18:54:41Z</time>
      </trkpt>
      <trkpt lat="41.006224" lon="-3.310039">
        <ele>1089.941</ele>
        <time>2016-07-20T18:54:42Z</time>
      </trkpt>
      <trkpt lat="41.006180" lon="-3.310190">
        <ele>1090.569</ele>
        <time>2016-07-20T18:54:43Z</time>
      </trkpt>
      <trkpt lat="41.006134" lon="-3.310334">
        <ele>1090.924</ele>
        <time>2016-07-20T18:54:44Z</time>
      </trkpt>
      <trkpt lat="41.006092" lon="-3.310456">
        <ele>1090.804</ele>
        <time>2016-07-20T18:54:45Z</time>
      </trkpt>
      <trkpt lat="41.006058" lon="-3.310571">
        <ele>1091.114</ele>
        <time>2016-07-20T18:54:46Z</time>
      </trkpt>
      <trkpt lat="41.006054" lon="-3.310772">
        <ele>1091.608</ele>
        <time>2016-07-20T18:54:48Z</time>
      </trkpt>
      <trkpt lat="41.006072" lon="-3.311027">
        <ele>1091.173</ele>
        <time>2016-07-20T18:54:49Z</time>
      </trkpt>
      <trkpt lat="41.006081" lon="-3.311148">
        <ele>1090.996</ele>
        <time>2016-07-20T18:54:50Z</time>
      </trkpt>
      <trkpt lat="41.006035" lon="-3.311346">
        <ele>1090.992</ele>
        <time>2016-07-20T18:54:52Z</time>
      </trkpt>
      <trkpt lat="41.005909" lon="-3.311431">
        <ele>1091.258</ele>
        <time>2016-07-20T18:54:54Z</time>
      </trkpt>
      <trkpt lat="41.005764" lon="-3.311401">
        <ele>1089.133</ele>
        <time>2016-07-20T18:54:56Z</time>
      </trkpt>
      <trkpt lat="41.005676" lon="-3.311370">
        <ele>1088.256</ele>
        <time>2016-07-20T18:54:57Z</time>
      </trkpt>
      <trkpt lat="41.005583" lon="-3.311332">
        <ele>1087.596</ele>
        <time>2016-07-20T18:54:58Z</time>
      </trkpt>
      <trkpt lat="41.005495" lon="-3.311294">
        <ele>1086.924</ele>
        <time>2016-07-20T18:54:59Z</time>
      </trkpt>
      <trkpt lat="41.005400" lon="-3.311246">
        <ele>1086.272</ele>
        <time>2016-07-20T18:55:00Z</time>
      </trkpt>
      <trkpt lat="41.005302" lon="-3.311197">
        <ele>1086.013</ele>
        <time>2016-07-20T18:55:01Z</time>
      </trkpt>
      <trkpt lat="41.005203" lon="-3.311146">
        <ele>1085.614</ele>
        <time>2016-07-20T18:55:02Z</time>
      </trkpt>
      <trkpt lat="41.005049" lon="-3.311079">
        <ele>1084.008</ele>
        <time>2016-07-20T18:55:04Z</time>
      </trkpt>
      <trkpt lat="41.004932" lon="-3.311039">
        <ele>1082.768</ele>
        <time>2016-07-20T18:55:06Z</time>
      </trkpt>
      <trkpt lat="41.004821" lon="-3.311030">
        <ele>1081.861</ele>
        <time>2016-07-20T18:55:08Z</time>
      </trkpt>
      <trkpt lat="41.004699" lon="-3.311078">
        <ele>1080.927</ele>
        <time>2016-07-20T18:55:10Z</time>
      </trkpt>
      <trkpt lat="41.004575" lon="-3.311196">
        <ele>1080.633</ele>
        <time>2016-07-20T18:55:12Z</time>
      </trkpt>
      <trkpt lat="41.004507" lon="-3.311281">
        <ele>1081.248</ele>
        <time>2016-07-20T18:55:13Z</time>
      </trkpt>
      <trkpt lat="41.004398" lon="-3.311440">
        <ele>1083.141</ele>
        <time>2016-07-20T18:55:15Z</time>
      </trkpt>
      <trkpt lat="41.004292" lon="-3.311511">
        <ele>1084.161</ele>
        <time>2016-07-20T18:55:17Z</time>
      </trkpt>
      <trkpt lat="41.004177" lon="-3.311473">
        <ele>1083.669</ele>
        <time>2016-07-20T18:55:19Z</time>
      </trkpt>
      <trkpt lat="41.004111" lon="-3.311309">
        <ele>1082.563</ele>
        <time>2016-07-20T18:55:21Z</time>
      </trkpt>
      <trkpt lat="41.004040" lon="-3.311102">
        <ele>1079.844</ele>
        <time>2016-07-20T18:55:23Z</time>
      </trkpt>
      <trkpt lat="41.004008" lon="-3.310976">
        <ele>1078.418</ele>
        <time>2016-07-20T18:55:24Z</time>
      </trkpt>
      <trkpt lat="41.003979" lon="-3.310849">
        <ele>1077.108</ele>
        <time>2016-07-20T18:55:25Z</time>
      </trkpt>
      <trkpt lat="41.003928" lon="-3.310626">
        <ele>1073.987</ele>
        <time>2016-07-20T18:55:27Z</time>
      </trkpt>
      <trkpt lat="41.003883" lon="-3.310517">
        <ele>1072.710</ele>
        <time>2016-07-20T18:55:28Z</time>
      </trkpt>
      <trkpt lat="41.003832" lon="-3.310407">
        <ele>1071.656</ele>
        <time>2016-07-20T18:55:29Z</time>
      </trkpt>
      <trkpt lat="41.003771" lon="-3.310292">
        <ele>1070.532</ele>
        <time>2016-07-20T18:55:30Z</time>
      </trkpt>
      <trkpt lat="41.003704" lon="-3.310183">
        <ele>1069.087</ele>
        <time>2016-07-20T18:55:31Z</time>
      </trkpt>
      <trkpt lat="41.003626" lon="-3.310089">
        <ele>1067.980</ele>
        <time>2016-07-20T18:55:32Z</time>
      </trkpt>
      <trkpt lat="41.003545" lon="-3.309998">
        <ele>1066.970</ele>
        <time>2016-07-20T18:55:33Z</time>
      </trkpt>
      <trkpt lat="41.003458" lon="-3.309903">
        <ele>1066.458</ele>
        <time>2016-07-20T18:55:34Z</time>
      </trkpt>
      <trkpt lat="41.003378" lon="-3.309814">
        <ele>1065.816</ele>
        <time>2016-07-20T18:55:35Z</time>
      </trkpt>
      <trkpt lat="41.003297" lon="-3.309728">
        <ele>1064.876</ele>
        <time>2016-07-20T18:55:36Z</time>
      </trkpt>
      <trkpt lat="41.003202" lon="-3.309610">
        <ele>1064.513</ele>
        <time>2016-07-20T18:55:37Z</time>
      </trkpt>
      <trkpt lat="41.003103" lon="-3.309493">
        <ele>1064.108</ele>
        <time>2016-07-20T18:55:38Z</time>
      </trkpt>
      <trkpt lat="41.003017" lon="-3.309373">
        <ele>1063.722</ele>
        <time>2016-07-20T18:55:39Z</time>
      </trkpt>
      <trkpt lat="41.002957" lon="-3.309260">
        <ele>1063.375</ele>
        <time>2016-07-20T18:55:40Z</time>
      </trkpt>
      <trkpt lat="41.002890" lon="-3.309136">
        <ele>1062.981</ele>
        <time>2016-07-20T18:55:41Z</time>
      </trkpt>
      <trkpt lat="41.002825" lon="-3.309005">
        <ele>1062.387</ele>
        <time>2016-07-20T18:55:42Z</time>
      </trkpt>
      <trkpt lat="41.002768" lon="-3.308874">
        <ele>1061.282</ele>
        <time>2016-07-20T18:55:43Z</time>
      </trkpt>
      <trkpt lat="41.002731" lon="-3.308733">
        <ele>1059.885</ele>
        <time>2016-07-20T18:55:44Z</time>
      </trkpt>
      <trkpt lat="41.002696" lon="-3.308604">
        <ele>1058.465</ele>
        <time>2016-07-20T18:55:45Z</time>
      </trkpt>
      <trkpt lat="41.002658" lon="-3.308484">
        <ele>1057.143</ele>
        <time>2016-07-20T18:55:46Z</time>
      </trkpt>
      <trkpt lat="41.002540" lon="-3.308314">
        <ele>1054.733</ele>
        <time>2016-07-20T18:55:48Z</time>
      </trkpt>
      <trkpt lat="41.002403" lon="-3.308195">
        <ele>1053.623</ele>
        <time>2016-07-20T18:55:50Z</time>
      </trkpt>
      <trkpt lat="41.002230" lon="-3.308161">
        <ele>1051.915</ele>
        <time>2016-07-20T18:55:52Z</time>
      </trkpt>
      <trkpt lat="41.002136" lon="-3.308148">
        <ele>1051.008</ele>
        <time>2016-07-20T18:55:54Z</time>
      </trkpt>
      <trkpt lat="41.002037" lon="-3.308136">
        <ele>1050.354</ele>
        <time>2016-07-20T18:55:55Z</time>
      </trkpt>
      <trkpt lat="41.001945" lon="-3.308118">
        <ele>1049.897</ele>
        <time>2016-07-20T18:55:56Z</time>
      </trkpt>
      <trkpt lat="41.001835" lon="-3.308045">
        <ele>1048.453</ele>
        <time>2016-07-20T18:55:58Z</time>
      </trkpt>
      <trkpt lat="41.001799" lon="-3.307901">
        <ele>1048.289</ele>
        <time>2016-07-20T18:56:00Z</time>
      </trkpt>
      <trkpt lat="41.001870" lon="-3.307786">
        <ele>1047.414</ele>
        <time>2016-07-20T18:56:02Z</time>
      </trkpt>
      <trkpt lat="41.002000" lon="-3.307777">
        <ele>1044.167</ele>
        <time>2016-07-20T18:56:04Z</time>
      </trkpt>
      <trkpt lat="41.002167" lon="-3.307766">
        <ele>1042.497</ele>
        <time>2016-07-20T18:56:06Z</time>
      </trkpt>
      <trkpt lat="41.002257" lon="-3.307750">
        <ele>1042.095</ele>
        <time>2016-07-20T18:56:07Z</time>
      </trkpt>
      <trkpt lat="41.002429" lon="-3.307677">
        <ele>1041.712</ele>
        <time>2016-07-20T18:56:09Z</time>
      </trkpt>
      <trkpt lat="41.002519" lon="-3.307624">
        <ele>1041.232</ele>
        <time>2016-07-20T18:56:10Z</time>
      </trkpt>
      <trkpt lat="41.002622" lon="-3.307559">
        <ele>1040.305</ele>
        <time>2016-07-20T18:56:11Z</time>
      </trkpt>
      <trkpt lat="41.002716" lon="-3.307501">
        <ele>1039.408</ele>
        <time>2016-07-20T18:56:12Z</time>
      </trkpt>
      <trkpt lat="41.002807" lon="-3.307471">
        <ele>1038.072</ele>
        <time>2016-07-20T18:56:13Z</time>
      </trkpt>
      <trkpt lat="41.002977" lon="-3.307441">
        <ele>1035.585</ele>
        <time>2016-07-20T18:56:15Z</time>
      </trkpt>
      <trkpt lat="41.003177" lon="-3.307469">
        <ele>1033.711</ele>
        <time>2016-07-20T18:56:17Z</time>
      </trkpt>
      <trkpt lat="41.003324" lon="-3.307425">
        <ele>1032.557</ele>
        <time>2016-07-20T18:56:19Z</time>
      </trkpt>
      <trkpt lat="41.003393" lon="-3.307267">
        <ele>1030.622</ele>
        <time>2016-07-20T18:56:21Z</time>
      </trkpt>
      <trkpt lat="41.003432" lon="-3.307083">
        <ele>1030.195</ele>
        <time>2016-07-20T18:56:23Z</time>
      </trkpt>
      <trkpt lat="41.003454" lon="-3.306829">
        <ele>1029.285</ele>
        <time>2016-07-20T18:56:25Z</time>
      </trkpt>
      <trkpt lat="41.003471" lon="-3.306692">
        <ele>1028.683</ele>
        <time>2016-07-20T18:56:26Z</time>
      </trkpt>
      <trkpt lat="41.003512" lon="-3.306556">
        <ele>1028.164</ele>
        <time>2016-07-20T18:56:27Z</time>
      </trkpt>
      <trkpt lat="41.003556" lon="-3.306415">
        <ele>1028.106</ele>
        <time>2016-07-20T18:56:28Z</time>
      </trkpt>
      <trkpt lat="41.003606" lon="-3.306288">
        <ele>1027.516</ele>
        <time>2016-07-20T18:56:29Z</time>
      </trkpt>
      <trkpt lat="41.003655" lon="-3.306158">
        <ele>1026.908</ele>
        <time>2016-07-20T18:56:30Z</time>
      </trkpt>
      <trkpt lat="41.003708" lon="-3.306014">
        <ele>1026.017</ele>
        <time>2016-07-20T18:56:31Z</time>
      </trkpt>
      <trkpt lat="41.003754" lon="-3.305871">
        <ele>1025.320</ele>
        <time>2016-07-20T18:56:32Z</time>
      </trkpt>
      <trkpt lat="41.003780" lon="-3.305738">
        <ele>1024.126</ele>
        <time>2016-07-20T18:56:33Z</time>
      </trkpt>
      <trkpt lat="41.003809" lon="-3.305600">
        <ele>1022.832</ele>
        <time>2016-07-20T18:56:34Z</time>
      </trkpt>
      <trkpt lat="41.003834" lon="-3.305476">
        <ele>1021.577</ele>
        <time>2016-07-20T18:56:35Z</time>
      </trkpt>
      <trkpt lat="41.003862" lon="-3.305358">
        <ele>1020.520</ele>
        <time>2016-07-20T18:56:36Z</time>
      </trkpt>
      <trkpt lat="41.003944" lon="-3.305151">
        <ele>1018.930</ele>
        <time>2016-07-20T18:56:38Z</time>
      </trkpt>
      <trkpt lat="41.004070" lon="-3.304975">
        <ele>1017.238</ele>
        <time>2016-07-20T18:56:40Z</time>
      </trkpt>
      <trkpt lat="41.004141" lon="-3.304899">
        <ele>1016.354</ele>
        <time>2016-07-20T18:56:41Z</time>
      </trkpt>
      <trkpt lat="41.004215" lon="-3.304823">
        <ele>1015.756</ele>
        <time>2016-07-20T18:56:42Z</time>
      </trkpt>
      <trkpt lat="41.004293" lon="-3.304748">
        <ele>1014.811</ele>
        <time>2016-07-20T18:56:43Z</time>
      </trkpt>
      <trkpt lat="41.004373" lon="-3.304670">
        <ele>1014.108</ele>
        <time>2016-07-20T18:56:44Z</time>
      </trkpt>
      <trkpt lat="41.004451" lon="-3.304593">
        <ele>1013.596</ele>
        <time>2016-07-20T18:56:45Z</time>
      </trkpt>
      <trkpt lat="41.004575" lon="-3.304472">
        <ele>1013.179</ele>
        <time>2016-07-20T18:56:47Z</time>
      </trkpt>
      <trkpt lat="41.004692" lon="-3.304344">
        <ele>1013.915</ele>
        <time>2016-07-20T18:56:49Z</time>
      </trkpt>
      <trkpt lat="41.004794" lon="-3.304230">
        <ele>1014.391</ele>
        <time>2016-07-20T18:56:51Z</time>
      </trkpt>
      <trkpt lat="41.004902" lon="-3.304108">
        <ele>1014.296</ele>
        <time>2016-07-20T18:56:53Z</time>
      </trkpt>
      <trkpt lat="41.005036" lon="-3.303969">
        <ele>1013.999</ele>
        <time>2016-07-20T18:56:55Z</time>
      </trkpt>
      <trkpt lat="41.005110" lon="-3.303891">
        <ele>1014.119</ele>
        <time>2016-07-20T18:56:56Z</time>
      </trkpt>
      <trkpt lat="41.005182" lon="-3.303816">
        <ele>1014.457</ele>
        <time>2016-07-20T18:56:57Z</time>
      </trkpt>
      <trkpt lat="41.005256" lon="-3.303738">
        <ele>1014.428</ele>
        <time>2016-07-20T18:56:58Z</time>
      </trkpt>
      <trkpt lat="41.005397" lon="-3.303598">
        <ele>1014.389</ele>
        <time>2016-07-20T18:56:59Z</time>
      </trkpt>
      <trkpt lat="41.005544" lon="-3.303516">
        <ele>1013.317</ele>
        <time>2016-07-20T18:57:01Z</time>
      </trkpt>
      <trkpt lat="41.005697" lon="-3.303494">
        <ele>1011.208</ele>
        <time>2016-07-20T18:57:03Z</time>
      </trkpt>
      <trkpt lat="41.005789" lon="-3.303513">
        <ele>1010.873</ele>
        <time>2016-07-20T18:57:04Z</time>
      </trkpt>
      <trkpt lat="41.005946" lon="-3.303554">
        <ele>1010.626</ele>
        <time>2016-07-20T18:57:06Z</time>
      </trkpt>
      <trkpt lat="41.006073" lon="-3.303465">
        <ele>1009.962</ele>
        <time>2016-07-20T18:57:08Z</time>
      </trkpt>
      <trkpt lat="41.006114" lon="-3.303291">
        <ele>1008.178</ele>
        <time>2016-07-20T18:57:10Z</time>
      </trkpt>
      <trkpt lat="41.006148" lon="-3.303066">
        <ele>1006.773</ele>
        <time>2016-07-20T18:57:12Z</time>
      </trkpt>
      <trkpt lat="41.006183" lon="-3.302832">
        <ele>1004.956</ele>
        <time>2016-07-20T18:57:14Z</time>
      </trkpt>
      <trkpt lat="41.006227" lon="-3.302716">
        <ele>1004.746</ele>
        <time>2016-07-20T18:57:15Z</time>
      </trkpt>
      <trkpt lat="41.006310" lon="-3.302544">
        <ele>1004.194</ele>
        <time>2016-07-20T18:57:17Z</time>
      </trkpt>
      <trkpt lat="41.006338" lon="-3.302406">
        <ele>1002.938</ele>
        <time>2016-07-20T18:57:19Z</time>
      </trkpt>
      <trkpt lat="41.006330" lon="-3.302237">
        <ele>1000.770</ele>
        <time>2016-07-20T18:57:21Z</time>
      </trkpt>
      <trkpt lat="41.006275" lon="-3.302043">
        <ele>998.617</ele>
        <time>2016-07-20T18:57:23Z</time>
      </trkpt>
      <trkpt lat="41.006168" lon="-3.301863">
        <ele>997.508</ele>
        <time>2016-07-20T18:57:25Z</time>
      </trkpt>
      <trkpt lat="41.006056" lon="-3.301773">
        <ele>996.364</ele>
        <time>2016-07-20T18:57:27Z</time>
      </trkpt>
      <trkpt lat="41.005946" lon="-3.301768">
        <ele>995.547</ele>
        <time>2016-07-20T18:57:29Z</time>
      </trkpt>
      <trkpt lat="41.005852" lon="-3.301800">
        <ele>994.833</ele>
        <time>2016-07-20T18:57:31Z</time>
      </trkpt>
      <trkpt lat="41.005770" lon="-3.301883">
        <ele>994.799</ele>
        <time>2016-07-20T18:57:34Z</time>
      </trkpt>
      <trkpt lat="41.005718" lon="-3.301983">
        <ele>994.754</ele>
        <time>2016-07-20T18:57:37Z</time>
      </trkpt>
      <trkpt lat="41.005641" lon="-3.302079">
        <ele>994.317</ele>
        <time>2016-07-20T18:57:44Z</time>
      </trkpt>
      <trkpt lat="41.005548" lon="-3.302168">
        <ele>992.387</ele>
        <time>2016-07-20T18:57:47Z</time>
      </trkpt>
      <trkpt lat="41.005453" lon="-3.302270">
        <ele>989.265</ele>
        <time>2016-07-20T18:57:49Z</time>
      </trkpt>
      <trkpt lat="41.005364" lon="-3.302329">
        <ele>985.788</ele>
        <time>2016-07-20T18:57:52Z</time>
      </trkpt>
      <trkpt lat="41.005334" lon="-3.302198">
        <ele>978.924</ele>
        <time>2016-07-20T18:57:56Z</time>
      </trkpt>
      <trkpt lat="41.005343" lon="-3.302054">
        <ele>977.026</ele>
        <time>2016-07-20T18:57:58Z</time>
      </trkpt>
      <trkpt lat="41.005321" lon="-3.301904">
        <ele>975.708</ele>
        <time>2016-07-20T18:58:00Z</time>
      </trkpt>
      <trkpt lat="41.005263" lon="-3.301780">
        <ele>976.019</ele>
        <time>2016-07-20T18:58:02Z</time>
      </trkpt>
      <trkpt lat="41.005161" lon="-3.301695">
        <ele>977.242</ele>
        <time>2016-07-20T18:58:05Z</time>
      </trkpt>
      <trkpt lat="41.005056" lon="-3.301641">
        <ele>978.868</ele>
        <time>2016-07-20T18:58:08Z</time>
      </trkpt>
      <trkpt lat="41.004931" lon="-3.301601">
        <ele>980.784</ele>
        <time>2016-07-20T18:58:11Z</time>
      </trkpt>
      <trkpt lat="41.004840" lon="-3.301577">
        <ele>980.979</ele>
        <time>2016-07-20T18:58:13Z</time>
      </trkpt>
      <trkpt lat="41.004710" lon="-3.301529">
        <ele>980.722</ele>
        <time>2016-07-20T18:58:16Z</time>
      </trkpt>
      <trkpt lat="41.004629" lon="-3.301473">
        <ele>979.892</ele>
        <time>2016-07-20T18:58:18Z</time>
      </trkpt>
      <trkpt lat="41.004551" lon="-3.301407">
        <ele>978.890</ele>
        <time>2016-07-20T18:58:20Z</time>
      </trkpt>
      <trkpt lat="41.004452" lon="-3.301342">
        <ele>978.013</ele>
        <time>2016-07-20T18:58:23Z</time>
      </trkpt>
      <trkpt lat="41.004353" lon="-3.301323">
        <ele>977.943</ele>
        <time>2016-07-20T18:58:26Z</time>
      </trkpt>
      <trkpt lat="41.004259" lon="-3.301318">
        <ele>977.707</ele>
        <time>2016-07-20T18:58:33Z</time>
      </trkpt>
      <trkpt lat="41.004164" lon="-3.301258">
        <ele>978.908</ele>
        <time>2016-07-20T18:58:59Z</time>
      </trkpt>
      <trkpt lat="41.004066" lon="-3.301204">
        <ele>977.842</ele>
        <time>2016-07-20T18:59:01Z</time>
      </trkpt>
      <trkpt lat="41.003969" lon="-3.301145">
        <ele>977.895</ele>
        <time>2016-07-20T18:59:03Z</time>
      </trkpt>
      <trkpt lat="41.003860" lon="-3.301081">
        <ele>977.711</ele>
        <time>2016-07-20T18:59:04Z</time>
      </trkpt>
      <trkpt lat="41.003745" lon="-3.301012">
        <ele>978.067</ele>
        <time>2016-07-20T18:59:06Z</time>
      </trkpt>
      <trkpt lat="41.003620" lon="-3.300937">
        <ele>979.072</ele>
        <time>2016-07-20T18:59:08Z</time>
      </trkpt>
      <trkpt lat="41.003491" lon="-3.300858">
        <ele>979.045</ele>
        <time>2016-07-20T18:59:10Z</time>
      </trkpt>
      <trkpt lat="41.003373" lon="-3.300790">
        <ele>979.745</ele>
        <time>2016-07-20T18:59:12Z</time>
      </trkpt>
      <trkpt lat="41.003247" lon="-3.300719">
        <ele>981.193</ele>
        <time>2016-07-20T18:59:14Z</time>
      </trkpt>
      <trkpt lat="41.003130" lon="-3.300654">
        <ele>982.284</ele>
        <time>2016-07-20T18:59:16Z</time>
      </trkpt>
      <trkpt lat="41.003016" lon="-3.300590">
        <ele>982.807</ele>
        <time>2016-07-20T18:59:18Z</time>
      </trkpt>
      <trkpt lat="41.002906" lon="-3.300532">
        <ele>983.117</ele>
        <time>2016-07-20T18:59:20Z</time>
      </trkpt>
      <trkpt lat="41.002806" lon="-3.300475">
        <ele>984.308</ele>
        <time>2016-07-20T18:59:22Z</time>
      </trkpt>
      <trkpt lat="41.002993" lon="-3.299367">
        <ele>984.949</ele>
        <time>2016-07-20T18:59:38Z</time>
      </trkpt>
      <trkpt lat="41.003030" lon="-3.299194">
        <ele>983.012</ele>
        <time>2016-07-20T18:59:40Z</time>
      </trkpt>
      <trkpt lat="41.003098" lon="-3.298982">
        <ele>981.498</ele>
        <time>2016-07-20T18:59:42Z</time>
      </trkpt>
      <trkpt lat="41.003140" lon="-3.298766">
        <ele>980.384</ele>
        <time>2016-07-20T18:59:44Z</time>
      </trkpt>
      <trkpt lat="41.003145" lon="-3.298568">
        <ele>978.669</ele>
        <time>2016-07-20T18:59:46Z</time>
      </trkpt>
      <trkpt lat="41.003136" lon="-3.298354">
        <ele>977.972</ele>
        <time>2016-07-20T18:59:48Z</time>
      </trkpt>
      <trkpt lat="41.003105" lon="-3.298163">
        <ele>976.932</ele>
        <time>2016-07-20T18:59:50Z</time>
      </trkpt>
      <trkpt lat="41.003039" lon="-3.297986">
        <ele>976.790</ele>
        <time>2016-07-20T18:59:52Z</time>
      </trkpt>
      <trkpt lat="41.002925" lon="-3.297856">
        <ele>976.833</ele>
        <time>2016-07-20T18:59:54Z</time>
      </trkpt>
      <trkpt lat="41.002803" lon="-3.297794">
        <ele>977.723</ele>
        <time>2016-07-20T18:59:56Z</time>
      </trkpt>
      <trkpt lat="41.002701" lon="-3.297796">
        <ele>977.815</ele>
        <time>2016-07-20T18:59:58Z</time>
      </trkpt>
      <trkpt lat="41.002599" lon="-3.297822">
        <ele>977.208</ele>
        <time>2016-07-20T19:00:01Z</time>
      </trkpt>
      <trkpt lat="41.002491" lon="-3.297808">
        <ele>976.714</ele>
        <time>2016-07-20T19:00:02Z</time>
      </trkpt>
      <trkpt lat="41.002396" lon="-3.297748">
        <ele>976.277</ele>
        <time>2016-07-20T19:00:04Z</time>
      </trkpt>
      <trkpt lat="41.002329" lon="-3.297609">
        <ele>976.063</ele>
        <time>2016-07-20T19:00:08Z</time>
      </trkpt>
      <trkpt lat="41.002320" lon="-3.297431">
        <ele>975.639</ele>
        <time>2016-07-20T19:00:11Z</time>
      </trkpt>
      <trkpt lat="41.002334" lon="-3.297250">
        <ele>975.924</ele>
        <time>2016-07-20T19:00:14Z</time>
      </trkpt>
      <trkpt lat="41.002343" lon="-3.297098">
        <ele>976.767</ele>
        <time>2016-07-20T19:00:16Z</time>
      </trkpt>
      <trkpt lat="41.002354" lon="-3.296915">
        <ele>978.017</ele>
        <time>2016-07-20T19:00:18Z</time>
      </trkpt>
      <trkpt lat="41.002367" lon="-3.296728">
        <ele>978.875</ele>
        <time>2016-07-20T19:00:20Z</time>
      </trkpt>
      <trkpt lat="41.002379" lon="-3.296532">
        <ele>979.248</ele>
        <time>2016-07-20T19:00:22Z</time>
      </trkpt>
      <trkpt lat="41.002389" lon="-3.296342">
        <ele>979.361</ele>
        <time>2016-07-20T19:00:24Z</time>
      </trkpt>
      <trkpt lat="41.002404" lon="-3.296167">
        <ele>978.917</ele>
        <time>2016-07-20T19:00:26Z</time>
      </trkpt>
      <trkpt lat="41.002421" lon="-3.295995">
        <ele>978.508</ele>
        <time>2016-07-20T19:00:28Z</time>
      </trkpt>
      <trkpt lat="41.002436" lon="-3.295815">
        <ele>978.285</ele>
        <time>2016-07-20T19:00:30Z</time>
      </trkpt>
      <trkpt lat="41.002447" lon="-3.295650">
        <ele>977.538</ele>
        <time>2016-07-20T19:00:32Z</time>
      </trkpt>
      <trkpt lat="41.002457" lon="-3.295494">
        <ele>977.314</ele>
        <time>2016-07-20T19:00:34Z</time>
      </trkpt>
      <trkpt lat="41.002467" lon="-3.295333">
        <ele>977.270</ele>
        <time>2016-07-20T19:00:36Z</time>
      </trkpt>
      <trkpt lat="41.002451" lon="-3.295174">
        <ele>977.555</ele>
        <time>2016-07-20T19:00:38Z</time>
      </trkpt>
      <trkpt lat="41.002411" lon="-3.295037">
        <ele>977.038</ele>
        <time>2016-07-20T19:00:40Z</time>
      </trkpt>
      <trkpt lat="41.002362" lon="-3.294891">
        <ele>976.618</ele>
        <time>2016-07-20T19:00:42Z</time>
      </trkpt>
      <trkpt lat="41.002305" lon="-3.294737">
        <ele>976.126</ele>
        <time>2016-07-20T19:00:44Z</time>
      </trkpt>
      <trkpt lat="41.002224" lon="-3.294636">
        <ele>976.349</ele>
        <time>2016-07-20T19:00:46Z</time>
      </trkpt>
      <trkpt lat="41.002117" lon="-3.294740">
        <ele>974.402</ele>
        <time>2016-07-20T19:00:49Z</time>
      </trkpt>
      <trkpt lat="41.002072" lon="-3.294892">
        <ele>973.322</ele>
        <time>2016-07-20T19:00:51Z</time>
      </trkpt>
      <trkpt lat="41.002021" lon="-3.295088">
        <ele>972.608</ele>
        <time>2016-07-20T19:00:53Z</time>
      </trkpt>
      <trkpt lat="41.001925" lon="-3.295236">
        <ele>971.785</ele>
        <time>2016-07-20T19:00:55Z</time>
      </trkpt>
      <trkpt lat="41.001779" lon="-3.295290">
        <ele>970.288</ele>
        <time>2016-07-20T19:00:57Z</time>
      </trkpt>
      <trkpt lat="41.001597" lon="-3.295267">
        <ele>969.224</ele>
        <time>2016-07-20T19:00:59Z</time>
      </trkpt>
      <trkpt lat="41.001487" lon="-3.295255">
        <ele>969.710</ele>
        <time>2016-07-20T19:01:00Z</time>
      </trkpt>
      <trkpt lat="41.001373" lon="-3.295248">
        <ele>970.965</ele>
        <time>2016-07-20T19:01:01Z</time>
      </trkpt>
      <trkpt lat="41.001250" lon="-3.295239">
        <ele>972.558</ele>
        <time>2016-07-20T19:01:02Z</time>
      </trkpt>
      <trkpt lat="41.001132" lon="-3.295231">
        <ele>974.448</ele>
        <time>2016-07-20T19:01:03Z</time>
      </trkpt>
      <trkpt lat="41.001019" lon="-3.295224">
        <ele>975.846</ele>
        <time>2016-07-20T19:01:04Z</time>
      </trkpt>
      <trkpt lat="41.000908" lon="-3.295215">
        <ele>977.221</ele>
        <time>2016-07-20T19:01:05Z</time>
      </trkpt>
      <trkpt lat="41.000794" lon="-3.295204">
        <ele>978.041</ele>
        <time>2016-07-20T19:01:06Z</time>
      </trkpt>
      <trkpt lat="41.000694" lon="-3.295201">
        <ele>978.805</ele>
        <time>2016-07-20T19:01:07Z</time>
      </trkpt>
      <trkpt lat="41.000597" lon="-3.295197">
        <ele>979.108</ele>
        <time>2016-07-20T19:01:08Z</time>
      </trkpt>
      <trkpt lat="41.000463" lon="-3.295147">
        <ele>979.523</ele>
        <time>2016-07-20T19:01:10Z</time>
      </trkpt>
      <trkpt lat="41.000380" lon="-3.295022">
        <ele>978.396</ele>
        <time>2016-07-20T19:01:11Z</time>
      </trkpt>
      <trkpt lat="41.000368" lon="-3.294861">
        <ele>974.522</ele>
        <time>2016-07-20T19:01:13Z</time>
      </trkpt>
      <trkpt lat="41.000385" lon="-3.294656">
        <ele>970.368</ele>
        <time>2016-07-20T19:01:15Z</time>
      </trkpt>
      <trkpt lat="41.000450" lon="-3.294343">
        <ele>964.893</ele>
        <time>2016-07-20T19:01:18Z</time>
      </trkpt>
      <trkpt lat="41.000552" lon="-3.294157">
        <ele>960.866</ele>
        <time>2016-07-20T19:01:20Z</time>
      </trkpt>
      <trkpt lat="41.000593" lon="-3.293942">
        <ele>957.476</ele>
        <time>2016-07-20T19:01:22Z</time>
      </trkpt>
      <trkpt lat="41.000532" lon="-3.293762">
        <ele>955.744</ele>
        <time>2016-07-20T19:01:24Z</time>
      </trkpt>
      <trkpt lat="41.000441" lon="-3.293639">
        <ele>954.098</ele>
        <time>2016-07-20T19:01:26Z</time>
      </trkpt>
      <trkpt lat="41.000363" lon="-3.293507">
        <ele>951.815</ele>
        <time>2016-07-20T19:01:28Z</time>
      </trkpt>
      <trkpt lat="41.000339" lon="-3.293363">
        <ele>949.626</ele>
        <time>2016-07-20T19:01:30Z</time>
      </trkpt>
      <trkpt lat="41.000372" lon="-3.293215">
        <ele>947.708</ele>
        <time>2016-07-20T19:01:32Z</time>
      </trkpt>
      <trkpt lat="41.000451" lon="-3.293009">
        <ele>947.250</ele>
        <time>2016-07-20T19:01:34Z</time>
      </trkpt>
      <trkpt lat="41.000503" lon="-3.292902">
        <ele>946.623</ele>
        <time>2016-07-20T19:01:35Z</time>
      </trkpt>
      <trkpt lat="41.000562" lon="-3.292796">
        <ele>945.949</ele>
        <time>2016-07-20T19:01:36Z</time>
      </trkpt>
      <trkpt lat="41.000625" lon="-3.292686">
        <ele>944.985</ele>
        <time>2016-07-20T19:01:37Z</time>
      </trkpt>
      <trkpt lat="41.000693" lon="-3.292581">
        <ele>943.360</ele>
        <time>2016-07-20T19:01:38Z</time>
      </trkpt>
      <trkpt lat="41.000758" lon="-3.292480">
        <ele>941.963</ele>
        <time>2016-07-20T19:01:39Z</time>
      </trkpt>
      <trkpt lat="41.000825" lon="-3.292382">
        <ele>940.463</ele>
        <time>2016-07-20T19:01:40Z</time>
      </trkpt>
      <trkpt lat="41.000953" lon="-3.292225">
        <ele>937.761</ele>
        <time>2016-07-20T19:01:42Z</time>
      </trkpt>
      <trkpt lat="41.001083" lon="-3.292075">
        <ele>935.479</ele>
        <time>2016-07-20T19:01:44Z</time>
      </trkpt>
      <trkpt lat="41.001158" lon="-3.291993">
        <ele>934.605</ele>
        <time>2016-07-20T19:01:45Z</time>
      </trkpt>
      <trkpt lat="41.001237" lon="-3.291901">
        <ele>934.225</ele>
        <time>2016-07-20T19:01:46Z</time>
      </trkpt>
      <trkpt lat="41.001319" lon="-3.291801">
        <ele>933.908</ele>
        <time>2016-07-20T19:01:47Z</time>
      </trkpt>
      <trkpt lat="41.001404" lon="-3.291709">
        <ele>933.678</ele>
        <time>2016-07-20T19:01:48Z</time>
      </trkpt>
      <trkpt lat="41.001490" lon="-3.291619">
        <ele>933.251</ele>
        <time>2016-07-20T19:01:49Z</time>
      </trkpt>
      <trkpt lat="41.001568" lon="-3.291534">
        <ele>932.467</ele>
        <time>2016-07-20T19:01:50Z</time>
      </trkpt>
      <trkpt lat="41.001679" lon="-3.291384">
        <ele>931.073</ele>
        <time>2016-07-20T19:01:52Z</time>
      </trkpt>
      <trkpt lat="41.001682" lon="-3.291238">
        <ele>930.158</ele>
        <time>2016-07-20T19:01:54Z</time>
      </trkpt>
      <trkpt lat="41.001568" lon="-3.291202">
        <ele>930.261</ele>
        <time>2016-07-20T19:01:57Z</time>
      </trkpt>
      <trkpt lat="41.001462" lon="-3.291318">
        <ele>930.271</ele>
        <time>2016-07-20T19:01:59Z</time>
      </trkpt>
      <trkpt lat="41.001348" lon="-3.291440">
        <ele>930.499</ele>
        <time>2016-07-20T19:02:01Z</time>
      </trkpt>
      <trkpt lat="41.001240" lon="-3.291557">
        <ele>930.548</ele>
        <time>2016-07-20T19:02:03Z</time>
      </trkpt>
      <trkpt lat="41.001133" lon="-3.291656">
        <ele>931.861</ele>
        <time>2016-07-20T19:02:05Z</time>
      </trkpt>
      <trkpt lat="41.001037" lon="-3.291755">
        <ele>934.917</ele>
        <time>2016-07-20T19:02:08Z</time>
      </trkpt>
      <trkpt lat="41.000938" lon="-3.291852">
        <ele>937.208</ele>
        <time>2016-07-20T19:02:11Z</time>
      </trkpt>
      <trkpt lat="41.000862" lon="-3.291923">
        <ele>937.275</ele>
        <time>2016-07-20T19:02:14Z</time>
      </trkpt>
      <trkpt lat="41.000757" lon="-3.292027">
        <ele>937.298</ele>
        <time>2016-07-20T19:02:17Z</time>
      </trkpt>
      <trkpt lat="41.000644" lon="-3.292144">
        <ele>936.714</ele>
        <time>2016-07-20T19:02:19Z</time>
      </trkpt>
      <trkpt lat="41.000572" lon="-3.292219">
        <ele>936.480</ele>
        <time>2016-07-20T19:02:20Z</time>
      </trkpt>
      <trkpt lat="41.000496" lon="-3.292293">
        <ele>936.025</ele>
        <time>2016-07-20T19:02:21Z</time>
      </trkpt>
      <trkpt lat="41.000424" lon="-3.292368">
        <ele>935.398</ele>
        <time>2016-07-20T19:02:22Z</time>
      </trkpt>
      <trkpt lat="41.000337" lon="-3.292457">
        <ele>935.058</ele>
        <time>2016-07-20T19:02:23Z</time>
      </trkpt>
      <trkpt lat="41.000245" lon="-3.292560">
        <ele>934.426</ele>
        <time>2016-07-20T19:02:24Z</time>
      </trkpt>
      <trkpt lat="41.000148" lon="-3.292668">
        <ele>934.277</ele>
        <time>2016-07-20T19:02:25Z</time>
      </trkpt>
      <trkpt lat="41.000052" lon="-3.292774">
        <ele>934.161</ele>
        <time>2016-07-20T19:02:26Z</time>
      </trkpt>
      <trkpt lat="40.999949" lon="-3.292876">
        <ele>933.727</ele>
        <time>2016-07-20T19:02:27Z</time>
      </trkpt>
      <trkpt lat="40.999858" lon="-3.292974">
        <ele>933.208</ele>
        <time>2016-07-20T19:02:28Z</time>
      </trkpt>
      <trkpt lat="40.999775" lon="-3.293062">
        <ele>932.718</ele>
        <time>2016-07-20T19:02:29Z</time>
      </trkpt>
      <trkpt lat="40.999652" lon="-3.293198">
        <ele>931.941</ele>
        <time>2016-07-20T19:02:31Z</time>
      </trkpt>
      <trkpt lat="40.999542" lon="-3.293224">
        <ele>931.547</ele>
        <time>2016-07-20T19:02:33Z</time>
      </trkpt>
      <trkpt lat="40.999451" lon="-3.293139">
        <ele>930.563</ele>
        <time>2016-07-20T19:02:35Z</time>
      </trkpt>
      <trkpt lat="40.999365" lon="-3.292992">
        <ele>930.158</ele>
        <time>2016-07-20T19:02:37Z</time>
      </trkpt>
      <trkpt lat="40.999258" lon="-3.292859">
        <ele>930.461</ele>
        <time>2016-07-20T19:02:39Z</time>
      </trkpt>
      <trkpt lat="40.999133" lon="-3.292845">
        <ele>930.971</ele>
        <time>2016-07-20T19:02:41Z</time>
      </trkpt>
      <trkpt lat="40.998996" lon="-3.292936">
        <ele>932.349</ele>
        <time>2016-07-20T19:02:43Z</time>
      </trkpt>
      <trkpt lat="40.998867" lon="-3.293095">
        <ele>934.165</ele>
        <time>2016-07-20T19:02:45Z</time>
      </trkpt>
      <trkpt lat="40.998804" lon="-3.293199">
        <ele>934.268</ele>
        <time>2016-07-20T19:02:46Z</time>
      </trkpt>
      <trkpt lat="40.998754" lon="-3.293309">
        <ele>934.614</ele>
        <time>2016-07-20T19:02:47Z</time>
      </trkpt>
      <trkpt lat="40.998704" lon="-3.293432">
        <ele>935.008</ele>
        <time>2016-07-20T19:02:48Z</time>
      </trkpt>
      <trkpt lat="40.998674" lon="-3.293549">
        <ele>934.517</ele>
        <time>2016-07-20T19:02:49Z</time>
      </trkpt>
      <trkpt lat="40.998577" lon="-3.293751">
        <ele>935.090</ele>
        <time>2016-07-20T19:02:51Z</time>
      </trkpt>
      <trkpt lat="40.998499" lon="-3.293852">
        <ele>935.496</ele>
        <time>2016-07-20T19:02:52Z</time>
      </trkpt>
      <trkpt lat="40.998416" lon="-3.293955">
        <ele>935.572</ele>
        <time>2016-07-20T19:02:53Z</time>
      </trkpt>
      <trkpt lat="40.998342" lon="-3.294056">
        <ele>935.417</ele>
        <time>2016-07-20T19:02:54Z</time>
      </trkpt>
      <trkpt lat="40.998268" lon="-3.294146">
        <ele>935.420</ele>
        <time>2016-07-20T19:02:55Z</time>
      </trkpt>
      <trkpt lat="40.998185" lon="-3.294223">
        <ele>935.160</ele>
        <time>2016-07-20T19:02:56Z</time>
      </trkpt>
      <trkpt lat="40.998097" lon="-3.294287">
        <ele>934.788</ele>
        <time>2016-07-20T19:02:57Z</time>
      </trkpt>
      <trkpt lat="40.998014" lon="-3.294337">
        <ele>934.243</ele>
        <time>2016-07-20T19:02:58Z</time>
      </trkpt>
      <trkpt lat="40.997923" lon="-3.294378">
        <ele>933.664</ele>
        <time>2016-07-20T19:02:59Z</time>
      </trkpt>
      <trkpt lat="40.997756" lon="-3.294371">
        <ele>932.210</ele>
        <time>2016-07-20T19:03:01Z</time>
      </trkpt>
      <trkpt lat="40.997609" lon="-3.294238">
        <ele>931.008</ele>
        <time>2016-07-20T19:03:03Z</time>
      </trkpt>
      <trkpt lat="40.997554" lon="-3.294142">
        <ele>931.155</ele>
        <time>2016-07-20T19:03:04Z</time>
      </trkpt>
      <trkpt lat="40.997491" lon="-3.294026">
        <ele>930.988</ele>
        <time>2016-07-20T19:03:05Z</time>
      </trkpt>
      <trkpt lat="40.997426" lon="-3.293904">
        <ele>930.764</ele>
        <time>2016-07-20T19:03:06Z</time>
      </trkpt>
      <trkpt lat="40.997354" lon="-3.293770">
        <ele>930.680</ele>
        <time>2016-07-20T19:03:07Z</time>
      </trkpt>
      <trkpt lat="40.997280" lon="-3.293633">
        <ele>930.195</ele>
        <time>2016-07-20T19:03:08Z</time>
      </trkpt>
      <trkpt lat="40.997199" lon="-3.293476">
        <ele>930.258</ele>
        <time>2016-07-20T19:03:09Z</time>
      </trkpt>
      <trkpt lat="40.997118" lon="-3.293321">
        <ele>930.848</ele>
        <time>2016-07-20T19:03:10Z</time>
      </trkpt>
      <trkpt lat="40.996957" lon="-3.293030">
        <ele>931.646</ele>
        <time>2016-07-20T19:03:11Z</time>
      </trkpt>
      <trkpt lat="40.996790" lon="-3.292781">
        <ele>932.341</ele>
        <time>2016-07-20T19:03:13Z</time>
      </trkpt>
      <trkpt lat="40.996700" lon="-3.292679">
        <ele>932.981</ele>
        <time>2016-07-20T19:03:14Z</time>
      </trkpt>
      <trkpt lat="40.996599" lon="-3.292599">
        <ele>933.709</ele>
        <time>2016-07-20T19:03:15Z</time>
      </trkpt>
      <trkpt lat="40.996495" lon="-3.292546">
        <ele>934.008</ele>
        <time>2016-07-20T19:03:16Z</time>
      </trkpt>
      <trkpt lat="40.996388" lon="-3.292504">
        <ele>934.435</ele>
        <time>2016-07-20T19:03:17Z</time>
      </trkpt>
      <trkpt lat="40.996279" lon="-3.292477">
        <ele>934.688</ele>
        <time>2016-07-20T19:03:18Z</time>
      </trkpt>
      <trkpt lat="40.996172" lon="-3.292463">
        <ele>934.924</ele>
        <time>2016-07-20T19:03:19Z</time>
      </trkpt>
      <trkpt lat="40.996061" lon="-3.292459">
        <ele>935.750</ele>
        <time>2016-07-20T19:03:20Z</time>
      </trkpt>
      <trkpt lat="40.995847" lon="-3.292393">
        <ele>937.645</ele>
        <time>2016-07-20T19:03:22Z</time>
      </trkpt>
      <trkpt lat="40.995741" lon="-3.292321">
        <ele>938.118</ele>
        <time>2016-07-20T19:03:23Z</time>
      </trkpt>
      <trkpt lat="40.995649" lon="-3.292225">
        <ele>938.658</ele>
        <time>2016-07-20T19:03:24Z</time>
      </trkpt>
      <trkpt lat="40.995572" lon="-3.292119">
        <ele>938.726</ele>
        <time>2016-07-20T19:03:25Z</time>
      </trkpt>
      <trkpt lat="40.995513" lon="-3.292011">
        <ele>938.844</ele>
        <time>2016-07-20T19:03:26Z</time>
      </trkpt>
      <trkpt lat="40.995433" lon="-3.291949">
        <ele>938.705</ele>
        <time>2016-07-20T19:03:27Z</time>
      </trkpt>
      <trkpt lat="40.995341" lon="-3.291923">
        <ele>938.615</ele>
        <time>2016-07-20T19:03:28Z</time>
      </trkpt>
      <trkpt lat="40.995178" lon="-3.291951">
        <ele>937.908</ele>
        <time>2016-07-20T19:03:30Z</time>
      </trkpt>
      <trkpt lat="40.995084" lon="-3.291990">
        <ele>938.385</ele>
        <time>2016-07-20T19:03:31Z</time>
      </trkpt>
      <trkpt lat="40.994974" lon="-3.292021">
        <ele>938.418</ele>
        <time>2016-07-20T19:03:32Z</time>
      </trkpt>
      <trkpt lat="40.994858" lon="-3.292039">
        <ele>938.724</ele>
        <time>2016-07-20T19:03:33Z</time>
      </trkpt>
      <trkpt lat="40.994741" lon="-3.292049">
        <ele>939.160</ele>
        <time>2016-07-20T19:03:34Z</time>
      </trkpt>
      <trkpt lat="40.994624" lon="-3.292037">
        <ele>939.515</ele>
        <time>2016-07-20T19:03:35Z</time>
      </trkpt>
      <trkpt lat="40.994507" lon="-3.292004">
        <ele>940.068</ele>
        <time>2016-07-20T19:03:36Z</time>
      </trkpt>
      <trkpt lat="40.994392" lon="-3.291964">
        <ele>939.888</ele>
        <time>2016-07-20T19:03:37Z</time>
      </trkpt>
      <trkpt lat="40.994286" lon="-3.291928">
        <ele>939.376</ele>
        <time>2016-07-20T19:03:38Z</time>
      </trkpt>
      <trkpt lat="40.994178" lon="-3.291920">
        <ele>938.838</ele>
        <time>2016-07-20T19:03:39Z</time>
      </trkpt>
      <trkpt lat="40.994071" lon="-3.291954">
        <ele>938.470</ele>
        <time>2016-07-20T19:03:40Z</time>
      </trkpt>
      <trkpt lat="40.993971" lon="-3.292023">
        <ele>938.517</ele>
        <time>2016-07-20T19:03:41Z</time>
      </trkpt>
      <trkpt lat="40.993877" lon="-3.292119">
        <ele>939.208</ele>
        <time>2016-07-20T19:03:42Z</time>
      </trkpt>
      <trkpt lat="40.993785" lon="-3.292228">
        <ele>940.164</ele>
        <time>2016-07-20T19:03:43Z</time>
      </trkpt>
      <trkpt lat="40.993697" lon="-3.292346">
        <ele>941.157</ele>
        <time>2016-07-20T19:03:44Z</time>
      </trkpt>
      <trkpt lat="40.993624" lon="-3.292468">
        <ele>942.193</ele>
        <time>2016-07-20T19:03:45Z</time>
      </trkpt>
      <trkpt lat="40.993555" lon="-3.292589">
        <ele>943.479</ele>
        <time>2016-07-20T19:03:46Z</time>
      </trkpt>
      <trkpt lat="40.993502" lon="-3.292694">
        <ele>944.264</ele>
        <time>2016-07-20T19:03:47Z</time>
      </trkpt>
      <trkpt lat="40.993451" lon="-3.292795">
        <ele>944.887</ele>
        <time>2016-07-20T19:03:48Z</time>
      </trkpt>
      <trkpt lat="40.993336" lon="-3.292964">
        <ele>945.567</ele>
        <time>2016-07-20T19:03:50Z</time>
      </trkpt>
      <trkpt lat="40.993182" lon="-3.293037">
        <ele>945.665</ele>
        <time>2016-07-20T19:03:52Z</time>
      </trkpt>
      <trkpt lat="40.993012" lon="-3.293013">
        <ele>945.996</ele>
        <time>2016-07-20T19:03:54Z</time>
      </trkpt>
      <trkpt lat="40.992910" lon="-3.293000">
        <ele>945.931</ele>
        <time>2016-07-20T19:03:55Z</time>
      </trkpt>
      <trkpt lat="40.992792" lon="-3.292985">
        <ele>946.124</ele>
        <time>2016-07-20T19:03:56Z</time>
      </trkpt>
      <trkpt lat="40.992666" lon="-3.292967">
        <ele>946.708</ele>
        <time>2016-07-20T19:03:57Z</time>
      </trkpt>
      <trkpt lat="40.992534" lon="-3.292948">
        <ele>947.260</ele>
        <time>2016-07-20T19:03:58Z</time>
      </trkpt>
      <trkpt lat="40.992396" lon="-3.292928">
        <ele>948.173</ele>
        <time>2016-07-20T19:03:59Z</time>
      </trkpt>
      <trkpt lat="40.992252" lon="-3.292907">
        <ele>948.829</ele>
        <time>2016-07-20T19:04:00Z</time>
      </trkpt>
      <trkpt lat="40.992105" lon="-3.292885">
        <ele>949.425</ele>
        <time>2016-07-20T19:04:01Z</time>
      </trkpt>
      <trkpt lat="40.991954" lon="-3.292862">
        <ele>949.960</ele>
        <time>2016-07-20T19:04:02Z</time>
      </trkpt>
      <trkpt lat="40.991801" lon="-3.292840">
        <ele>950.623</ele>
        <time>2016-07-20T19:04:03Z</time>
      </trkpt>
      <trkpt lat="40.991644" lon="-3.292822">
        <ele>951.373</ele>
        <time>2016-07-20T19:04:04Z</time>
      </trkpt>
      <trkpt lat="40.991483" lon="-3.292802">
        <ele>951.521</ele>
        <time>2016-07-20T19:04:05Z</time>
      </trkpt>
      <trkpt lat="40.991322" lon="-3.292780">
        <ele>951.798</ele>
        <time>2016-07-20T19:04:07Z</time>
      </trkpt>
      <trkpt lat="40.991160" lon="-3.292758">
        <ele>951.815</ele>
        <time>2016-07-20T19:04:07Z</time>
      </trkpt>
      <trkpt lat="40.990995" lon="-3.292735">
        <ele>951.926</ele>
        <time>2016-07-20T19:04:09Z</time>
      </trkpt>
      <trkpt lat="40.990828" lon="-3.292711">
        <ele>952.008</ele>
        <time>2016-07-20T19:04:10Z</time>
      </trkpt>
      <trkpt lat="40.990659" lon="-3.292688">
        <ele>952.110</ele>
        <time>2016-07-20T19:04:11Z</time>
      </trkpt>
      <trkpt lat="40.990488" lon="-3.292665">
        <ele>952.233</ele>
        <time>2016-07-20T19:04:12Z</time>
      </trkpt>
      <trkpt lat="40.990319" lon="-3.292645">
        <ele>951.939</ele>
        <time>2016-07-20T19:04:13Z</time>
      </trkpt>
      <trkpt lat="40.990145" lon="-3.292627">
        <ele>952.015</ele>
        <time>2016-07-20T19:04:14Z</time>
      </trkpt>
      <trkpt lat="40.989975" lon="-3.292602">
        <ele>952.160</ele>
        <time>2016-07-20T19:04:15Z</time>
      </trkpt>
      <trkpt lat="40.989796" lon="-3.292577">
        <ele>952.053</ele>
        <time>2016-07-20T19:04:16Z</time>
      </trkpt>
      <trkpt lat="40.989616" lon="-3.292553">
        <ele>952.183</ele>
        <time>2016-07-20T19:04:17Z</time>
      </trkpt>
      <trkpt lat="40.989436" lon="-3.292529">
        <ele>952.251</ele>
        <time>2016-07-20T19:04:18Z</time>
      </trkpt>
      <trkpt lat="40.989257" lon="-3.292504">
        <ele>952.434</ele>
        <time>2016-07-20T19:04:19Z</time>
      </trkpt>
      <trkpt lat="40.989082" lon="-3.292480">
        <ele>952.855</ele>
        <time>2016-07-20T19:04:20Z</time>
      </trkpt>
      <trkpt lat="40.988907" lon="-3.292456">
        <ele>953.210</ele>
        <time>2016-07-20T19:04:21Z</time>
      </trkpt>
      <trkpt lat="40.988733" lon="-3.292436">
        <ele>953.508</ele>
        <time>2016-07-20T19:04:22Z</time>
      </trkpt>
      <trkpt lat="40.988562" lon="-3.292429">
        <ele>953.754</ele>
        <time>2016-07-20T19:04:23Z</time>
      </trkpt>
      <trkpt lat="40.988394" lon="-3.292431">
        <ele>954.347</ele>
        <time>2016-07-20T19:04:24Z</time>
      </trkpt>
      <trkpt lat="40.988229" lon="-3.292438">
        <ele>955.093</ele>
        <time>2016-07-20T19:04:25Z</time>
      </trkpt>
      <trkpt lat="40.988067" lon="-3.292451">
        <ele>955.749</ele>
        <time>2016-07-20T19:04:26Z</time>
      </trkpt>
      <trkpt lat="40.987909" lon="-3.292470">
        <ele>956.594</ele>
        <time>2016-07-20T19:04:27Z</time>
      </trkpt>
      <trkpt lat="40.987757" lon="-3.292489">
        <ele>957.137</ele>
        <time>2016-07-20T19:04:28Z</time>
      </trkpt>
      <trkpt lat="40.987609" lon="-3.292512">
        <ele>957.987</ele>
        <time>2016-07-20T19:04:29Z</time>
      </trkpt>
      <trkpt lat="40.987463" lon="-3.292529">
        <ele>959.065</ele>
        <time>2016-07-20T19:04:30Z</time>
      </trkpt>
      <trkpt lat="40.987327" lon="-3.292542">
        <ele>960.041</ele>
        <time>2016-07-20T19:04:31Z</time>
      </trkpt>
      <trkpt lat="40.987203" lon="-3.292544">
        <ele>960.881</ele>
        <time>2016-07-20T19:04:32Z</time>
      </trkpt>
      <trkpt lat="40.987086" lon="-3.292532">
        <ele>961.509</ele>
        <time>2016-07-20T19:04:33Z</time>
      </trkpt>
      <trkpt lat="40.986989" lon="-3.292506">
        <ele>962.008</ele>
        <time>2016-07-20T19:04:34Z</time>
      </trkpt>
      <trkpt lat="40.986905" lon="-3.292463">
        <ele>962.445</ele>
        <time>2016-07-20T19:04:35Z</time>
      </trkpt>
      <trkpt lat="40.986801" lon="-3.292318">
        <ele>963.648</ele>
        <time>2016-07-20T19:04:37Z</time>
      </trkpt>
      <trkpt lat="40.986739" lon="-3.292106">
        <ele>963.824</ele>
        <time>2016-07-20T19:04:39Z</time>
      </trkpt>
      <trkpt lat="40.986707" lon="-3.291985">
        <ele>963.340</ele>
        <time>2016-07-20T19:04:40Z</time>
      </trkpt>
      <trkpt lat="40.986663" lon="-3.291855">
        <ele>962.865</ele>
        <time>2016-07-20T19:04:41Z</time>
      </trkpt>
      <trkpt lat="40.986602" lon="-3.291729">
        <ele>962.998</ele>
        <time>2016-07-20T19:04:42Z</time>
      </trkpt>
      <trkpt lat="40.986528" lon="-3.291632">
        <ele>963.468</ele>
        <time>2016-07-20T19:04:43Z</time>
      </trkpt>
      <trkpt lat="40.986373" lon="-3.291560">
        <ele>963.776</ele>
        <time>2016-07-20T19:04:45Z</time>
      </trkpt>
      <trkpt lat="40.986279" lon="-3.291565">
        <ele>963.248</ele>
        <time>2016-07-20T19:04:46Z</time>
      </trkpt>
      <trkpt lat="40.986183" lon="-3.291598">
        <ele>962.561</ele>
        <time>2016-07-20T19:04:47Z</time>
      </trkpt>
      <trkpt lat="40.986086" lon="-3.291679">
        <ele>961.517</ele>
        <time>2016-07-20T19:04:48Z</time>
      </trkpt>
      <trkpt lat="40.985995" lon="-3.291791">
        <ele>960.408</ele>
        <time>2016-07-20T19:04:49Z</time>
      </trkpt>
      <trkpt lat="40.985902" lon="-3.291902">
        <ele>960.355</ele>
        <time>2016-07-20T19:04:50Z</time>
      </trkpt>
      <trkpt lat="40.985814" lon="-3.292007">
        <ele>960.828</ele>
        <time>2016-07-20T19:04:51Z</time>
      </trkpt>
      <trkpt lat="40.985730" lon="-3.292108">
        <ele>961.474</ele>
        <time>2016-07-20T19:04:52Z</time>
      </trkpt>
      <trkpt lat="40.985661" lon="-3.292214">
        <ele>962.450</ele>
        <time>2016-07-20T19:04:53Z</time>
      </trkpt>
      <trkpt lat="40.985600" lon="-3.292325">
        <ele>963.535</ele>
        <time>2016-07-20T19:04:54Z</time>
      </trkpt>
      <trkpt lat="40.985536" lon="-3.292426">
        <ele>964.648</ele>
        <time>2016-07-20T19:04:55Z</time>
      </trkpt>
      <trkpt lat="40.985460" lon="-3.292519">
        <ele>964.948</ele>
        <time>2016-07-20T19:04:56Z</time>
      </trkpt>
      <trkpt lat="40.985368" lon="-3.292586">
        <ele>965.176</ele>
        <time>2016-07-20T19:04:57Z</time>
      </trkpt>
      <trkpt lat="40.985271" lon="-3.292653">
        <ele>965.019</ele>
        <time>2016-07-20T19:04:58Z</time>
      </trkpt>
      <trkpt lat="40.985169" lon="-3.292721">
        <ele>964.709</ele>
        <time>2016-07-20T19:04:59Z</time>
      </trkpt>
      <trkpt lat="40.985063" lon="-3.292784">
        <ele>964.819</ele>
        <time>2016-07-20T19:05:00Z</time>
      </trkpt>
      <trkpt lat="40.984948" lon="-3.292833">
        <ele>965.208</ele>
        <time>2016-07-20T19:05:01Z</time>
      </trkpt>
      <trkpt lat="40.984827" lon="-3.292860">
        <ele>965.712</ele>
        <time>2016-07-20T19:05:02Z</time>
      </trkpt>
      <trkpt lat="40.984701" lon="-3.292876">
        <ele>966.315</ele>
        <time>2016-07-20T19:05:03Z</time>
      </trkpt>
      <trkpt lat="40.984580" lon="-3.292898">
        <ele>967.081</ele>
        <time>2016-07-20T19:05:04Z</time>
      </trkpt>
      <trkpt lat="40.984356" lon="-3.292999">
        <ele>967.817</ele>
        <time>2016-07-20T19:05:05Z</time>
      </trkpt>
      <trkpt lat="40.984277" lon="-3.293101">
        <ele>968.592</ele>
        <time>2016-07-20T19:05:06Z</time>
      </trkpt>
      <trkpt lat="40.984204" lon="-3.293335">
        <ele>969.115</ele>
        <time>2016-07-20T19:05:08Z</time>
      </trkpt>
      <trkpt lat="40.984160" lon="-3.293475">
        <ele>968.715</ele>
        <time>2016-07-20T19:05:09Z</time>
      </trkpt>
      <trkpt lat="40.984116" lon="-3.293624">
        <ele>968.983</ele>
        <time>2016-07-20T19:05:10Z</time>
      </trkpt>
      <trkpt lat="40.984073" lon="-3.293775">
        <ele>968.734</ele>
        <time>2016-07-20T19:05:11Z</time>
      </trkpt>
      <trkpt lat="40.984025" lon="-3.293925">
        <ele>968.755</ele>
        <time>2016-07-20T19:05:12Z</time>
      </trkpt>
      <trkpt lat="40.983974" lon="-3.294065">
        <ele>969.010</ele>
        <time>2016-07-20T19:05:13Z</time>
      </trkpt>
      <trkpt lat="40.983925" lon="-3.294184">
        <ele>969.108</ele>
        <time>2016-07-20T19:05:14Z</time>
      </trkpt>
      <trkpt lat="40.983870" lon="-3.294290">
        <ele>969.144</ele>
        <time>2016-07-20T19:05:15Z</time>
      </trkpt>
      <trkpt lat="40.983726" lon="-3.294425">
        <ele>968.947</ele>
        <time>2016-07-20T19:05:17Z</time>
      </trkpt>
      <trkpt lat="40.983636" lon="-3.294471">
        <ele>969.343</ele>
        <time>2016-07-20T19:05:18Z</time>
      </trkpt>
      <trkpt lat="40.983526" lon="-3.294524">
        <ele>969.599</ele>
        <time>2016-07-20T19:05:19Z</time>
      </trkpt>
      <trkpt lat="40.983413" lon="-3.294575">
        <ele>969.814</ele>
        <time>2016-07-20T19:05:20Z</time>
      </trkpt>
      <trkpt lat="40.983294" lon="-3.294630">
        <ele>970.047</ele>
        <time>2016-07-20T19:05:21Z</time>
      </trkpt>
      <trkpt lat="40.983178" lon="-3.294684">
        <ele>970.677</ele>
        <time>2016-07-20T19:05:22Z</time>
      </trkpt>
      <trkpt lat="40.983064" lon="-3.294724">
        <ele>971.535</ele>
        <time>2016-07-20T19:05:23Z</time>
      </trkpt>
      <trkpt lat="40.982939" lon="-3.294743">
        <ele>972.011</ele>
        <time>2016-07-20T19:05:24Z</time>
      </trkpt>
      <trkpt lat="40.982820" lon="-3.294739">
        <ele>972.321</ele>
        <time>2016-07-20T19:05:25Z</time>
      </trkpt>
      <trkpt lat="40.982703" lon="-3.294713">
        <ele>972.503</ele>
        <time>2016-07-20T19:05:26Z</time>
      </trkpt>
      <trkpt lat="40.982572" lon="-3.294663">
        <ele>972.508</ele>
        <time>2016-07-20T19:05:27Z</time>
      </trkpt>
      <trkpt lat="40.982451" lon="-3.294599">
        <ele>972.652</ele>
        <time>2016-07-20T19:05:28Z</time>
      </trkpt>
      <trkpt lat="40.982325" lon="-3.294523">
        <ele>973.165</ele>
        <time>2016-07-20T19:05:29Z</time>
      </trkpt>
      <trkpt lat="40.982198" lon="-3.294439">
        <ele>973.891</ele>
        <time>2016-07-20T19:05:30Z</time>
      </trkpt>
      <trkpt lat="40.982086" lon="-3.294362">
        <ele>973.847</ele>
        <time>2016-07-20T19:05:31Z</time>
      </trkpt>
      <trkpt lat="40.981958" lon="-3.294290">
        <ele>974.472</ele>
        <time>2016-07-20T19:05:32Z</time>
      </trkpt>
      <trkpt lat="40.981832" lon="-3.294247">
        <ele>975.145</ele>
        <time>2016-07-20T19:05:33Z</time>
      </trkpt>
      <trkpt lat="40.981714" lon="-3.294245">
        <ele>975.275</ele>
        <time>2016-07-20T19:05:34Z</time>
      </trkpt>
      <trkpt lat="40.981596" lon="-3.294288">
        <ele>975.293</ele>
        <time>2016-07-20T19:05:35Z</time>
      </trkpt>
      <trkpt lat="40.981486" lon="-3.294363">
        <ele>974.813</ele>
        <time>2016-07-20T19:05:36Z</time>
      </trkpt>
      <trkpt lat="40.981393" lon="-3.294460">
        <ele>974.543</ele>
        <time>2016-07-20T19:05:37Z</time>
      </trkpt>
      <trkpt lat="40.981317" lon="-3.294577">
        <ele>974.707</ele>
        <time>2016-07-20T19:05:38Z</time>
      </trkpt>
      <trkpt lat="40.981254" lon="-3.294712">
        <ele>975.208</ele>
        <time>2016-07-20T19:05:39Z</time>
      </trkpt>
      <trkpt lat="40.981190" lon="-3.294850">
        <ele>975.722</ele>
        <time>2016-07-20T19:05:40Z</time>
      </trkpt>
      <trkpt lat="40.981122" lon="-3.294988">
        <ele>976.425</ele>
        <time>2016-07-20T19:05:41Z</time>
      </trkpt>
      <trkpt lat="40.981052" lon="-3.295130">
        <ele>977.141</ele>
        <time>2016-07-20T19:05:42Z</time>
      </trkpt>
      <trkpt lat="40.980984" lon="-3.295267">
        <ele>977.967</ele>
        <time>2016-07-20T19:05:43Z</time>
      </trkpt>
      <trkpt lat="40.980922" lon="-3.295395">
        <ele>978.652</ele>
        <time>2016-07-20T19:05:44Z</time>
      </trkpt>
      <trkpt lat="40.980865" lon="-3.295514">
        <ele>979.455</ele>
        <time>2016-07-20T19:05:45Z</time>
      </trkpt>
      <trkpt lat="40.980803" lon="-3.295616">
        <ele>980.165</ele>
        <time>2016-07-20T19:05:46Z</time>
      </trkpt>
      <trkpt lat="40.980732" lon="-3.295690">
        <ele>980.483</ele>
        <time>2016-07-20T19:05:47Z</time>
      </trkpt>
      <trkpt lat="40.980568" lon="-3.295740">
        <ele>981.172</ele>
        <time>2016-07-20T19:05:49Z</time>
      </trkpt>
      <trkpt lat="40.980450" lon="-3.295652">
        <ele>981.513</ele>
        <time>2016-07-20T19:05:51Z</time>
      </trkpt>
      <trkpt lat="40.980409" lon="-3.295469">
        <ele>981.814</ele>
        <time>2016-07-20T19:05:53Z</time>
      </trkpt>
      <trkpt lat="40.980441" lon="-3.295235">
        <ele>981.308</ele>
        <time>2016-07-20T19:05:55Z</time>
      </trkpt>
      <trkpt lat="40.980466" lon="-3.295088">
        <ele>980.998</ele>
        <time>2016-07-20T19:05:56Z</time>
      </trkpt>
      <trkpt lat="40.980483" lon="-3.294949">
        <ele>980.461</ele>
        <time>2016-07-20T19:05:57Z</time>
      </trkpt>
      <trkpt lat="40.980494" lon="-3.294787">
        <ele>979.867</ele>
        <time>2016-07-20T19:05:58Z</time>
      </trkpt>
      <trkpt lat="40.980493" lon="-3.294648">
        <ele>979.053</ele>
        <time>2016-07-20T19:05:59Z</time>
      </trkpt>
      <trkpt lat="40.980501" lon="-3.294524">
        <ele>977.978</ele>
        <time>2016-07-20T19:06:00Z</time>
      </trkpt>
      <trkpt lat="40.980531" lon="-3.294404">
        <ele>976.821</ele>
        <time>2016-07-20T19:06:01Z</time>
      </trkpt>
      <trkpt lat="40.980587" lon="-3.294278">
        <ele>975.771</ele>
        <time>2016-07-20T19:06:02Z</time>
      </trkpt>
      <trkpt lat="40.980652" lon="-3.294168">
        <ele>974.639</ele>
        <time>2016-07-20T19:06:03Z</time>
      </trkpt>
      <trkpt lat="40.980736" lon="-3.294036">
        <ele>973.911</ele>
        <time>2016-07-20T19:06:05Z</time>
      </trkpt>
      <trkpt lat="40.980819" lon="-3.293907">
        <ele>973.021</ele>
        <time>2016-07-20T19:06:06Z</time>
      </trkpt>
      <trkpt lat="40.980902" lon="-3.293774">
        <ele>971.903</ele>
        <time>2016-07-20T19:06:07Z</time>
      </trkpt>
      <trkpt lat="40.980984" lon="-3.293639">
        <ele>970.508</ele>
        <time>2016-07-20T19:06:08Z</time>
      </trkpt>
      <trkpt lat="40.981063" lon="-3.293489">
        <ele>969.222</ele>
        <time>2016-07-20T19:06:09Z</time>
      </trkpt>
      <trkpt lat="40.981129" lon="-3.293328">
        <ele>967.925</ele>
        <time>2016-07-20T19:06:10Z</time>
      </trkpt>
      <trkpt lat="40.981182" lon="-3.293159">
        <ele>967.321</ele>
        <time>2016-07-20T19:06:11Z</time>
      </trkpt>
      <trkpt lat="40.981236" lon="-3.292984">
        <ele>967.057</ele>
        <time>2016-07-20T19:06:12Z</time>
      </trkpt>
      <trkpt lat="40.981289" lon="-3.292806">
        <ele>967.172</ele>
        <time>2016-07-20T19:06:13Z</time>
      </trkpt>
      <trkpt lat="40.981344" lon="-3.292627">
        <ele>967.275</ele>
        <time>2016-07-20T19:06:14Z</time>
      </trkpt>
      <trkpt lat="40.981388" lon="-3.292447">
        <ele>967.115</ele>
        <time>2016-07-20T19:06:15Z</time>
      </trkpt>
      <trkpt lat="40.981426" lon="-3.292270">
        <ele>966.263</ele>
        <time>2016-07-20T19:06:16Z</time>
      </trkpt>
      <trkpt lat="40.981451" lon="-3.292086">
        <ele>964.978</ele>
        <time>2016-07-20T19:06:17Z</time>
      </trkpt>
      <trkpt lat="40.981452" lon="-3.291900">
        <ele>963.433</ele>
        <time>2016-07-20T19:06:18Z</time>
      </trkpt>
      <trkpt lat="40.981440" lon="-3.291712">
        <ele>962.026</ele>
        <time>2016-07-20T19:06:19Z</time>
      </trkpt>
      <trkpt lat="40.981429" lon="-3.291518">
        <ele>960.808</ele>
        <time>2016-07-20T19:06:20Z</time>
      </trkpt>
      <trkpt lat="40.981424" lon="-3.291328">
        <ele>959.728</ele>
        <time>2016-07-20T19:06:21Z</time>
      </trkpt>
      <trkpt lat="40.981421" lon="-3.291140">
        <ele>958.781</ele>
        <time>2016-07-20T19:06:22Z</time>
      </trkpt>
      <trkpt lat="40.981423" lon="-3.290964">
        <ele>957.777</ele>
        <time>2016-07-20T19:06:23Z</time>
      </trkpt>
      <trkpt lat="40.981420" lon="-3.290806">
        <ele>956.723</ele>
        <time>2016-07-20T19:06:24Z</time>
      </trkpt>
      <trkpt lat="40.981403" lon="-3.290660">
        <ele>955.968</ele>
        <time>2016-07-20T19:06:25Z</time>
      </trkpt>
      <trkpt lat="40.981370" lon="-3.290519">
        <ele>955.361</ele>
        <time>2016-07-20T19:06:26Z</time>
      </trkpt>
      <trkpt lat="40.981333" lon="-3.290399">
        <ele>954.671</ele>
        <time>2016-07-20T19:06:27Z</time>
      </trkpt>
      <trkpt lat="40.981285" lon="-3.290299">
        <ele>953.999</ele>
        <time>2016-07-20T19:06:28Z</time>
      </trkpt>
      <trkpt lat="40.981155" lon="-3.290244">
        <ele>952.559</ele>
        <time>2016-07-20T19:06:30Z</time>
      </trkpt>
      <trkpt lat="40.980987" lon="-3.290245">
        <ele>952.603</ele>
        <time>2016-07-20T19:06:32Z</time>
      </trkpt>
      <trkpt lat="40.980886" lon="-3.290223">
        <ele>952.723</ele>
        <time>2016-07-20T19:06:33Z</time>
      </trkpt>
      <trkpt lat="40.980766" lon="-3.290184">
        <ele>952.408</ele>
        <time>2016-07-20T19:06:34Z</time>
      </trkpt>
      <trkpt lat="40.980630" lon="-3.290134">
        <ele>952.866</ele>
        <time>2016-07-20T19:06:35Z</time>
      </trkpt>
      <trkpt lat="40.980493" lon="-3.290086">
        <ele>953.479</ele>
        <time>2016-07-20T19:06:36Z</time>
      </trkpt>
      <trkpt lat="40.980352" lon="-3.290038">
        <ele>954.425</ele>
        <time>2016-07-20T19:06:37Z</time>
      </trkpt>
      <trkpt lat="40.980203" lon="-3.289987">
        <ele>955.671</ele>
        <time>2016-07-20T19:06:38Z</time>
      </trkpt>
      <trkpt lat="40.980051" lon="-3.289928">
        <ele>956.546</ele>
        <time>2016-07-20T19:06:39Z</time>
      </trkpt>
      <trkpt lat="40.979900" lon="-3.289869">
        <ele>957.259</ele>
        <time>2016-07-20T19:06:40Z</time>
      </trkpt>
      <trkpt lat="40.979740" lon="-3.289805">
        <ele>957.479</ele>
        <time>2016-07-20T19:06:41Z</time>
      </trkpt>
      <trkpt lat="40.979591" lon="-3.289746">
        <ele>958.077</ele>
        <time>2016-07-20T19:06:42Z</time>
      </trkpt>
      <trkpt lat="40.979444" lon="-3.289688">
        <ele>958.485</ele>
        <time>2016-07-20T19:06:43Z</time>
      </trkpt>
      <trkpt lat="40.979289" lon="-3.289628">
        <ele>958.789</ele>
        <time>2016-07-20T19:06:44Z</time>
      </trkpt>
      <trkpt lat="40.979144" lon="-3.289584">
        <ele>959.217</ele>
        <time>2016-07-20T19:06:45Z</time>
      </trkpt>
      <trkpt lat="40.979003" lon="-3.289561">
        <ele>959.708</ele>
        <time>2016-07-20T19:06:46Z</time>
      </trkpt>
      <trkpt lat="40.978859" lon="-3.289554">
        <ele>960.259</ele>
        <time>2016-07-20T19:06:47Z</time>
      </trkpt>
      <trkpt lat="40.978716" lon="-3.289557">
        <ele>960.612</ele>
        <time>2016-07-20T19:06:48Z</time>
      </trkpt>
      <trkpt lat="40.978570" lon="-3.289565">
        <ele>960.968</ele>
        <time>2016-07-20T19:06:49Z</time>
      </trkpt>
      <trkpt lat="40.978421" lon="-3.289576">
        <ele>960.724</ele>
        <time>2016-07-20T19:06:50Z</time>
      </trkpt>
      <trkpt lat="40.978273" lon="-3.289577">
        <ele>960.589</ele>
        <time>2016-07-20T19:06:51Z</time>
      </trkpt>
      <trkpt lat="40.978124" lon="-3.289569">
        <ele>960.512</ele>
        <time>2016-07-20T19:06:52Z</time>
      </trkpt>
      <trkpt lat="40.977979" lon="-3.289552">
        <ele>960.482</ele>
        <time>2016-07-20T19:06:53Z</time>
      </trkpt>
      <trkpt lat="40.977830" lon="-3.289533">
        <ele>959.920</ele>
        <time>2016-07-20T19:06:54Z</time>
      </trkpt>
      <trkpt lat="40.977684" lon="-3.289515">
        <ele>959.312</ele>
        <time>2016-07-20T19:06:55Z</time>
      </trkpt>
      <trkpt lat="40.977542" lon="-3.289495">
        <ele>958.132</ele>
        <time>2016-07-20T19:06:56Z</time>
      </trkpt>
      <trkpt lat="40.977381" lon="-3.289477">
        <ele>958.305</ele>
        <time>2016-07-20T19:06:57Z</time>
      </trkpt>
      <trkpt lat="40.977222" lon="-3.289460">
        <ele>959.008</ele>
        <time>2016-07-20T19:06:58Z</time>
      </trkpt>
      <trkpt lat="40.977069" lon="-3.289436">
        <ele>959.912</ele>
        <time>2016-07-20T19:06:59Z</time>
      </trkpt>
      <trkpt lat="40.976919" lon="-3.289404">
        <ele>960.745</ele>
        <time>2016-07-20T19:07:00Z</time>
      </trkpt>
      <trkpt lat="40.976776" lon="-3.289360">
        <ele>961.661</ele>
        <time>2016-07-20T19:07:01Z</time>
      </trkpt>
      <trkpt lat="40.976497" lon="-3.289247">
        <ele>963.097</ele>
        <time>2016-07-20T19:07:02Z</time>
      </trkpt>
      <trkpt lat="40.976361" lon="-3.289197">
        <ele>963.492</ele>
        <time>2016-07-20T19:07:03Z</time>
      </trkpt>
      <trkpt lat="40.976224" lon="-3.289172">
        <ele>963.955</ele>
        <time>2016-07-20T19:07:04Z</time>
      </trkpt>
      <trkpt lat="40.976088" lon="-3.289169">
        <ele>964.335</ele>
        <time>2016-07-20T19:07:05Z</time>
      </trkpt>
      <trkpt lat="40.975953" lon="-3.289159">
        <ele>964.773</ele>
        <time>2016-07-20T19:07:06Z</time>
      </trkpt>
      <trkpt lat="40.975817" lon="-3.289140">
        <ele>965.123</ele>
        <time>2016-07-20T19:07:07Z</time>
      </trkpt>
      <trkpt lat="40.975681" lon="-3.289110">
        <ele>965.783</ele>
        <time>2016-07-20T19:07:08Z</time>
      </trkpt>
      <trkpt lat="40.975566" lon="-3.289089">
        <ele>966.111</ele>
        <time>2016-07-20T19:07:09Z</time>
      </trkpt>
      <trkpt lat="40.975474" lon="-3.289086">
        <ele>966.508</ele>
        <time>2016-07-20T19:07:10Z</time>
      </trkpt>
      <trkpt lat="40.975388" lon="-3.289136">
        <ele>966.313</ele>
        <time>2016-07-20T19:07:11Z</time>
      </trkpt>
      <trkpt lat="40.975329" lon="-3.289229">
        <ele>966.066</ele>
        <time>2016-07-20T19:07:12Z</time>
      </trkpt>
      <trkpt lat="40.975288" lon="-3.289338">
        <ele>965.582</ele>
        <time>2016-07-20T19:07:13Z</time>
      </trkpt>
      <trkpt lat="40.975213" lon="-3.289543">
        <ele>964.048</ele>
        <time>2016-07-20T19:07:15Z</time>
      </trkpt>
      <trkpt lat="40.975143" lon="-3.289633">
        <ele>962.823</ele>
        <time>2016-07-20T19:07:16Z</time>
      </trkpt>
      <trkpt lat="40.975051" lon="-3.289702">
        <ele>961.946</ele>
        <time>2016-07-20T19:07:17Z</time>
      </trkpt>
      <trkpt lat="40.974950" lon="-3.289750">
        <ele>960.786</ele>
        <time>2016-07-20T19:07:18Z</time>
      </trkpt>
      <trkpt lat="40.974847" lon="-3.289794">
        <ele>960.244</ele>
        <time>2016-07-20T19:07:19Z</time>
      </trkpt>
      <trkpt lat="40.974725" lon="-3.289846">
        <ele>959.839</ele>
        <time>2016-07-20T19:07:20Z</time>
      </trkpt>
      <trkpt lat="40.974601" lon="-3.289901">
        <ele>959.401</ele>
        <time>2016-07-20T19:07:21Z</time>
      </trkpt>
      <trkpt lat="40.974477" lon="-3.289958">
        <ele>959.321</ele>
        <time>2016-07-20T19:07:22Z</time>
      </trkpt>
      <trkpt lat="40.974351" lon="-3.290020">
        <ele>959.708</ele>
        <time>2016-07-20T19:07:23Z</time>
      </trkpt>
      <trkpt lat="40.974222" lon="-3.290083">
        <ele>959.764</ele>
        <time>2016-07-20T19:07:24Z</time>
      </trkpt>
      <trkpt lat="40.974101" lon="-3.290157">
        <ele>959.977</ele>
        <time>2016-07-20T19:07:25Z</time>
      </trkpt>
      <trkpt lat="40.973995" lon="-3.290256">
        <ele>959.793</ele>
        <time>2016-07-20T19:07:26Z</time>
      </trkpt>
      <trkpt lat="40.973911" lon="-3.290361">
        <ele>959.419</ele>
        <time>2016-07-20T19:07:27Z</time>
      </trkpt>
      <trkpt lat="40.973826" lon="-3.290467">
        <ele>958.814</ele>
        <time>2016-07-20T19:07:28Z</time>
      </trkpt>
      <trkpt lat="40.973752" lon="-3.290558">
        <ele>958.177</ele>
        <time>2016-07-20T19:07:29Z</time>
      </trkpt>
      <trkpt lat="40.973676" lon="-3.290632">
        <ele>957.117</ele>
        <time>2016-07-20T19:07:30Z</time>
      </trkpt>
      <trkpt lat="40.973593" lon="-3.290683">
        <ele>956.195</ele>
        <time>2016-07-20T19:07:31Z</time>
      </trkpt>
      <trkpt lat="40.973500" lon="-3.290708">
        <ele>955.095</ele>
        <time>2016-07-20T19:07:32Z</time>
      </trkpt>
      <trkpt lat="40.973400" lon="-3.290717">
        <ele>954.049</ele>
        <time>2016-07-20T19:07:33Z</time>
      </trkpt>
      <trkpt lat="40.973298" lon="-3.290720">
        <ele>952.923</ele>
        <time>2016-07-20T19:07:34Z</time>
      </trkpt>
      <trkpt lat="40.973187" lon="-3.290717">
        <ele>951.708</ele>
        <time>2016-07-20T19:07:35Z</time>
      </trkpt>
      <trkpt lat="40.973062" lon="-3.290715">
        <ele>950.620</ele>
        <time>2016-07-20T19:07:36Z</time>
      </trkpt>
      <trkpt lat="40.972929" lon="-3.290715">
        <ele>949.913</ele>
        <time>2016-07-20T19:07:37Z</time>
      </trkpt>
      <trkpt lat="40.972795" lon="-3.290715">
        <ele>949.599</ele>
        <time>2016-07-20T19:07:38Z</time>
      </trkpt>
      <trkpt lat="40.972660" lon="-3.290711">
        <ele>949.695</ele>
        <time>2016-07-20T19:07:39Z</time>
      </trkpt>
      <trkpt lat="40.972526" lon="-3.290706">
        <ele>950.140</ele>
        <time>2016-07-20T19:07:40Z</time>
      </trkpt>
      <trkpt lat="40.972387" lon="-3.290702">
        <ele>950.823</ele>
        <time>2016-07-20T19:07:41Z</time>
      </trkpt>
      <trkpt lat="40.972256" lon="-3.290703">
        <ele>951.223</ele>
        <time>2016-07-20T19:07:42Z</time>
      </trkpt>
      <trkpt lat="40.972127" lon="-3.290717">
        <ele>951.971</ele>
        <time>2016-07-20T19:07:43Z</time>
      </trkpt>
      <trkpt lat="40.972013" lon="-3.290749">
        <ele>952.475</ele>
        <time>2016-07-20T19:07:44Z</time>
      </trkpt>
      <trkpt lat="40.971909" lon="-3.290811">
        <ele>952.628</ele>
        <time>2016-07-20T19:07:45Z</time>
      </trkpt>
      <trkpt lat="40.971826" lon="-3.290906">
        <ele>952.720</ele>
        <time>2016-07-20T19:07:46Z</time>
      </trkpt>
      <trkpt lat="40.971763" lon="-3.291024">
        <ele>952.708</ele>
        <time>2016-07-20T19:07:47Z</time>
      </trkpt>
      <trkpt lat="40.971702" lon="-3.291138">
        <ele>952.298</ele>
        <time>2016-07-20T19:07:48Z</time>
      </trkpt>
      <trkpt lat="40.971638" lon="-3.291228">
        <ele>951.121</ele>
        <time>2016-07-20T19:07:49Z</time>
      </trkpt>
      <trkpt lat="40.971557" lon="-3.291285">
        <ele>950.167</ele>
        <time>2016-07-20T19:07:50Z</time>
      </trkpt>
      <trkpt lat="40.971462" lon="-3.291301">
        <ele>948.973</ele>
        <time>2016-07-20T19:07:51Z</time>
      </trkpt>
      <trkpt lat="40.971279" lon="-3.291270">
        <ele>946.138</ele>
        <time>2016-07-20T19:07:53Z</time>
      </trkpt>
      <trkpt lat="40.971169" lon="-3.291246">
        <ele>944.941</ele>
        <time>2016-07-20T19:07:54Z</time>
      </trkpt>
      <trkpt lat="40.971053" lon="-3.291224">
        <ele>943.971</ele>
        <time>2016-07-20T19:07:55Z</time>
      </trkpt>
      <trkpt lat="40.970925" lon="-3.291199">
        <ele>942.849</ele>
        <time>2016-07-20T19:07:56Z</time>
      </trkpt>
      <trkpt lat="40.970803" lon="-3.291176">
        <ele>941.962</ele>
        <time>2016-07-20T19:07:57Z</time>
      </trkpt>
      <trkpt lat="40.970676" lon="-3.291148">
        <ele>941.083</ele>
        <time>2016-07-20T19:07:58Z</time>
      </trkpt>
      <trkpt lat="40.970566" lon="-3.291122">
        <ele>940.311</ele>
        <time>2016-07-20T19:07:59Z</time>
      </trkpt>
      <trkpt lat="40.970474" lon="-3.291096">
        <ele>939.908</ele>
        <time>2016-07-20T19:08:00Z</time>
      </trkpt>
      <trkpt lat="40.970328" lon="-3.290988">
        <ele>939.257</ele>
        <time>2016-07-20T19:08:02Z</time>
      </trkpt>
      <trkpt lat="40.970225" lon="-3.290800">
        <ele>939.460</ele>
        <time>2016-07-20T19:08:04Z</time>
      </trkpt>
      <trkpt lat="40.970172" lon="-3.290692">
        <ele>939.336</ele>
        <time>2016-07-20T19:08:06Z</time>
      </trkpt>
      <trkpt lat="40.970114" lon="-3.290577">
        <ele>939.252</ele>
        <time>2016-07-20T19:08:07Z</time>
      </trkpt>
      <trkpt lat="40.970048" lon="-3.290449">
        <ele>939.067</ele>
        <time>2016-07-20T19:08:08Z</time>
      </trkpt>
      <trkpt lat="40.969973" lon="-3.290310">
        <ele>938.820</ele>
        <time>2016-07-20T19:08:09Z</time>
      </trkpt>
      <trkpt lat="40.969893" lon="-3.290166">
        <ele>938.240</ele>
        <time>2016-07-20T19:08:10Z</time>
      </trkpt>
      <trkpt lat="40.969808" lon="-3.290023">
        <ele>937.678</ele>
        <time>2016-07-20T19:08:11Z</time>
      </trkpt>
      <trkpt lat="40.969722" lon="-3.289877">
        <ele>936.966</ele>
        <time>2016-07-20T19:08:12Z</time>
      </trkpt>
      <trkpt lat="40.969637" lon="-3.289731">
        <ele>936.029</ele>
        <time>2016-07-20T19:08:13Z</time>
      </trkpt>
      <trkpt lat="40.969558" lon="-3.289594">
        <ele>934.921</ele>
        <time>2016-07-20T19:08:14Z</time>
      </trkpt>
      <trkpt lat="40.969482" lon="-3.289477">
        <ele>933.808</ele>
        <time>2016-07-20T19:08:15Z</time>
      </trkpt>
      <trkpt lat="40.969393" lon="-3.289399">
        <ele>933.137</ele>
        <time>2016-07-20T19:08:16Z</time>
      </trkpt>
      <trkpt lat="40.969299" lon="-3.289341">
        <ele>932.880</ele>
        <time>2016-07-20T19:08:17Z</time>
      </trkpt>
      <trkpt lat="40.969151" lon="-3.289222">
        <ele>932.686</ele>
        <time>2016-07-20T19:08:19Z</time>
      </trkpt>
      <trkpt lat="40.969037" lon="-3.289054">
        <ele>932.692</ele>
        <time>2016-07-20T19:08:21Z</time>
      </trkpt>
      <trkpt lat="40.968994" lon="-3.288940">
        <ele>932.997</ele>
        <time>2016-07-20T19:08:22Z</time>
      </trkpt>
      <trkpt lat="40.968963" lon="-3.288814">
        <ele>933.560</ele>
        <time>2016-07-20T19:08:23Z</time>
      </trkpt>
      <trkpt lat="40.968936" lon="-3.288681">
        <ele>933.840</ele>
        <time>2016-07-20T19:08:24Z</time>
      </trkpt>
      <trkpt lat="40.968906" lon="-3.288538">
        <ele>933.738</ele>
        <time>2016-07-20T19:08:25Z</time>
      </trkpt>
      <trkpt lat="40.968876" lon="-3.288392">
        <ele>933.445</ele>
        <time>2016-07-20T19:08:26Z</time>
      </trkpt>
      <trkpt lat="40.968842" lon="-3.288230">
        <ele>933.447</ele>
        <time>2016-07-20T19:08:27Z</time>
      </trkpt>
      <trkpt lat="40.968813" lon="-3.288079">
        <ele>932.911</ele>
        <time>2016-07-20T19:08:28Z</time>
      </trkpt>
      <trkpt lat="40.968790" lon="-3.287917">
        <ele>932.608</ele>
        <time>2016-07-20T19:08:29Z</time>
      </trkpt>
      <trkpt lat="40.968776" lon="-3.287750">
        <ele>932.285</ele>
        <time>2016-07-20T19:08:30Z</time>
      </trkpt>
      <trkpt lat="40.968772" lon="-3.287594">
        <ele>931.938</ele>
        <time>2016-07-20T19:08:31Z</time>
      </trkpt>
      <trkpt lat="40.968768" lon="-3.287438">
        <ele>931.774</ele>
        <time>2016-07-20T19:08:32Z</time>
      </trkpt>
      <trkpt lat="40.968766" lon="-3.287291">
        <ele>931.750</ele>
        <time>2016-07-20T19:08:33Z</time>
      </trkpt>
      <trkpt lat="40.968782" lon="-3.287158">
        <ele>931.935</ele>
        <time>2016-07-20T19:08:34Z</time>
      </trkpt>
      <trkpt lat="40.968823" lon="-3.287032">
        <ele>932.138</ele>
        <time>2016-07-20T19:08:35Z</time>
      </trkpt>
      <trkpt lat="40.968878" lon="-3.286908">
        <ele>932.468</ele>
        <time>2016-07-20T19:08:36Z</time>
      </trkpt>
      <trkpt lat="40.968937" lon="-3.286786">
        <ele>932.536</ele>
        <time>2016-07-20T19:08:37Z</time>
      </trkpt>
      <trkpt lat="40.969004" lon="-3.286648">
        <ele>932.777</ele>
        <time>2016-07-20T19:08:38Z</time>
      </trkpt>
      <trkpt lat="40.969065" lon="-3.286522">
        <ele>932.661</ele>
        <time>2016-07-20T19:08:39Z</time>
      </trkpt>
      <trkpt lat="40.969130" lon="-3.286388">
        <ele>932.427</ele>
        <time>2016-07-20T19:08:40Z</time>
      </trkpt>
      <trkpt lat="40.969196" lon="-3.286260">
        <ele>932.308</ele>
        <time>2016-07-20T19:08:41Z</time>
      </trkpt>
      <trkpt lat="40.969262" lon="-3.286137">
        <ele>932.168</ele>
        <time>2016-07-20T19:08:42Z</time>
      </trkpt>
      <trkpt lat="40.969314" lon="-3.286018">
        <ele>931.711</ele>
        <time>2016-07-20T19:08:43Z</time>
      </trkpt>
      <trkpt lat="40.969346" lon="-3.285901">
        <ele>931.587</ele>
        <time>2016-07-20T19:08:44Z</time>
      </trkpt>
      <trkpt lat="40.969320" lon="-3.285681">
        <ele>930.433</ele>
        <time>2016-07-20T19:08:46Z</time>
      </trkpt>
      <trkpt lat="40.969260" lon="-3.285580">
        <ele>930.698</ele>
        <time>2016-07-20T19:08:47Z</time>
      </trkpt>
      <trkpt lat="40.969187" lon="-3.285508">
        <ele>930.661</ele>
        <time>2016-07-20T19:08:48Z</time>
      </trkpt>
      <trkpt lat="40.969074" lon="-3.285329">
        <ele>930.571</ele>
        <time>2016-07-20T19:08:50Z</time>
      </trkpt>
      <trkpt lat="40.969034" lon="-3.285218">
        <ele>930.289</ele>
        <time>2016-07-20T19:08:51Z</time>
      </trkpt>
      <trkpt lat="40.969003" lon="-3.285099">
        <ele>929.812</ele>
        <time>2016-07-20T19:08:52Z</time>
      </trkpt>
      <trkpt lat="40.968997" lon="-3.284963">
        <ele>929.632</ele>
        <time>2016-07-20T19:08:53Z</time>
      </trkpt>
      <trkpt lat="40.969011" lon="-3.284825">
        <ele>929.205</ele>
        <time>2016-07-20T19:08:54Z</time>
      </trkpt>
      <trkpt lat="40.969048" lon="-3.284669">
        <ele>929.308</ele>
        <time>2016-07-20T19:08:55Z</time>
      </trkpt>
      <trkpt lat="40.969080" lon="-3.284514">
        <ele>929.472</ele>
        <time>2016-07-20T19:08:56Z</time>
      </trkpt>
      <trkpt lat="40.969093" lon="-3.284366">
        <ele>929.135</ele>
        <time>2016-07-20T19:08:57Z</time>
      </trkpt>
      <trkpt lat="40.969101" lon="-3.284201">
        <ele>928.671</ele>
        <time>2016-07-20T19:08:58Z</time>
      </trkpt>
      <trkpt lat="40.969109" lon="-3.284032">
        <ele>928.017</ele>
        <time>2016-07-20T19:08:59Z</time>
      </trkpt>
      <trkpt lat="40.969116" lon="-3.283853">
        <ele>927.362</ele>
        <time>2016-07-20T19:09:00Z</time>
      </trkpt>
      <trkpt lat="40.969113" lon="-3.283489">
        <ele>926.155</ele>
        <time>2016-07-20T19:09:01Z</time>
      </trkpt>
      <trkpt lat="40.969096" lon="-3.283299">
        <ele>925.625</ele>
        <time>2016-07-20T19:09:02Z</time>
      </trkpt>
      <trkpt lat="40.969063" lon="-3.283120">
        <ele>925.153</ele>
        <time>2016-07-20T19:09:03Z</time>
      </trkpt>
      <trkpt lat="40.969020" lon="-3.282947">
        <ele>924.614</ele>
        <time>2016-07-20T19:09:04Z</time>
      </trkpt>
      <trkpt lat="40.968975" lon="-3.282772">
        <ele>924.054</ele>
        <time>2016-07-20T19:09:05Z</time>
      </trkpt>
      <trkpt lat="40.968931" lon="-3.282600">
        <ele>923.509</ele>
        <time>2016-07-20T19:09:06Z</time>
      </trkpt>
      <trkpt lat="40.968869" lon="-3.282444">
        <ele>923.008</ele>
        <time>2016-07-20T19:09:07Z</time>
      </trkpt>
      <trkpt lat="40.968791" lon="-3.282303">
        <ele>922.572</ele>
        <time>2016-07-20T19:09:08Z</time>
      </trkpt>
      <trkpt lat="40.968704" lon="-3.282174">
        <ele>922.675</ele>
        <time>2016-07-20T19:09:09Z</time>
      </trkpt>
      <trkpt lat="40.968609" lon="-3.282051">
        <ele>923.331</ele>
        <time>2016-07-20T19:09:10Z</time>
      </trkpt>
      <trkpt lat="40.968516" lon="-3.281931">
        <ele>924.447</ele>
        <time>2016-07-20T19:09:11Z</time>
      </trkpt>
      <trkpt lat="40.968434" lon="-3.281814">
        <ele>925.882</ele>
        <time>2016-07-20T19:09:12Z</time>
      </trkpt>
      <trkpt lat="40.968380" lon="-3.281709">
        <ele>927.155</ele>
        <time>2016-07-20T19:09:13Z</time>
      </trkpt>
      <trkpt lat="40.968370" lon="-3.281492">
        <ele>928.725</ele>
        <time>2016-07-20T19:09:15Z</time>
      </trkpt>
      <trkpt lat="40.968413" lon="-3.281375">
        <ele>929.683</ele>
        <time>2016-07-20T19:09:16Z</time>
      </trkpt>
      <trkpt lat="40.968470" lon="-3.281268">
        <ele>930.043</ele>
        <time>2016-07-20T19:09:17Z</time>
      </trkpt>
      <trkpt lat="40.968522" lon="-3.281157">
        <ele>930.664</ele>
        <time>2016-07-20T19:09:18Z</time>
      </trkpt>
      <trkpt lat="40.968559" lon="-3.281026">
        <ele>931.210</ele>
        <time>2016-07-20T19:09:19Z</time>
      </trkpt>
      <trkpt lat="40.968575" lon="-3.280881">
        <ele>931.908</ele>
        <time>2016-07-20T19:09:20Z</time>
      </trkpt>
      <trkpt lat="40.968577" lon="-3.280741">
        <ele>931.655</ele>
        <time>2016-07-20T19:09:21Z</time>
      </trkpt>
      <trkpt lat="40.968573" lon="-3.280591">
        <ele>931.198</ele>
        <time>2016-07-20T19:09:22Z</time>
      </trkpt>
      <trkpt lat="40.968560" lon="-3.280454">
        <ele>930.434</ele>
        <time>2016-07-20T19:09:23Z</time>
      </trkpt>
      <trkpt lat="40.968515" lon="-3.280248">
        <ele>929.970</ele>
        <time>2016-07-20T19:09:25Z</time>
      </trkpt>
      <trkpt lat="40.968424" lon="-3.280101">
        <ele>929.765</ele>
        <time>2016-07-20T19:09:27Z</time>
      </trkpt>
      <trkpt lat="40.968267" lon="-3.280037">
        <ele>929.338</ele>
        <time>2016-07-20T19:09:29Z</time>
      </trkpt>
      <trkpt lat="40.968119" lon="-3.279989">
        <ele>929.058</ele>
        <time>2016-07-20T19:09:31Z</time>
      </trkpt>
      <trkpt lat="40.967976" lon="-3.279914">
        <ele>929.386</ele>
        <time>2016-07-20T19:09:33Z</time>
      </trkpt>
      <trkpt lat="40.967874" lon="-3.279762">
        <ele>930.588</ele>
        <time>2016-07-20T19:09:35Z</time>
      </trkpt>
      <trkpt lat="40.967820" lon="-3.279579">
        <ele>931.024</ele>
        <time>2016-07-20T19:09:37Z</time>
      </trkpt>
      <trkpt lat="40.967828" lon="-3.279321">
        <ele>930.526</ele>
        <time>2016-07-20T19:09:39Z</time>
      </trkpt>
      <trkpt lat="40.967852" lon="-3.279179">
        <ele>930.408</ele>
        <time>2016-07-20T19:09:40Z</time>
      </trkpt>
      <trkpt lat="40.967876" lon="-3.279034">
        <ele>930.559</ele>
        <time>2016-07-20T19:09:41Z</time>
      </trkpt>
      <trkpt lat="40.967894" lon="-3.278881">
        <ele>930.612</ele>
        <time>2016-07-20T19:09:42Z</time>
      </trkpt>
      <trkpt lat="40.967901" lon="-3.278725">
        <ele>931.088</ele>
        <time>2016-07-20T19:09:43Z</time>
      </trkpt>
      <trkpt lat="40.967903" lon="-3.278576">
        <ele>931.464</ele>
        <time>2016-07-20T19:09:44Z</time>
      </trkpt>
      <trkpt lat="40.967918" lon="-3.278421">
        <ele>932.049</ele>
        <time>2016-07-20T19:09:45Z</time>
      </trkpt>
      <trkpt lat="40.967941" lon="-3.278261">
        <ele>932.642</ele>
        <time>2016-07-20T19:09:46Z</time>
      </trkpt>
      <trkpt lat="40.967977" lon="-3.278095">
        <ele>933.342</ele>
        <time>2016-07-20T19:09:47Z</time>
      </trkpt>
      <trkpt lat="40.968012" lon="-3.277939">
        <ele>933.870</ele>
        <time>2016-07-20T19:09:48Z</time>
      </trkpt>
      <trkpt lat="40.968044" lon="-3.277774">
        <ele>934.151</ele>
        <time>2016-07-20T19:09:49Z</time>
      </trkpt>
      <trkpt lat="40.968076" lon="-3.277616">
        <ele>934.401</ele>
        <time>2016-07-20T19:09:50Z</time>
      </trkpt>
      <trkpt lat="40.968108" lon="-3.277458">
        <ele>934.811</ele>
        <time>2016-07-20T19:09:51Z</time>
      </trkpt>
      <trkpt lat="40.968142" lon="-3.277307">
        <ele>935.108</ele>
        <time>2016-07-20T19:09:52Z</time>
      </trkpt>
      <trkpt lat="40.968183" lon="-3.277154">
        <ele>935.556</ele>
        <time>2016-07-20T19:09:53Z</time>
      </trkpt>
      <trkpt lat="40.968225" lon="-3.277004">
        <ele>936.079</ele>
        <time>2016-07-20T19:09:54Z</time>
      </trkpt>
      <trkpt lat="40.968277" lon="-3.276857">
        <ele>936.795</ele>
        <time>2016-07-20T19:09:55Z</time>
      </trkpt>
      <trkpt lat="40.968334" lon="-3.276707">
        <ele>937.471</ele>
        <time>2016-07-20T19:09:56Z</time>
      </trkpt>
      <trkpt lat="40.968390" lon="-3.276567">
        <ele>937.966</ele>
        <time>2016-07-20T19:09:57Z</time>
      </trkpt>
      <trkpt lat="40.968454" lon="-3.276418">
        <ele>938.259</ele>
        <time>2016-07-20T19:09:58Z</time>
      </trkpt>
      <trkpt lat="40.968524" lon="-3.276271">
        <ele>938.529</ele>
        <time>2016-07-20T19:09:59Z</time>
      </trkpt>
      <trkpt lat="40.968600" lon="-3.276135">
        <ele>938.637</ele>
        <time>2016-07-20T19:10:00Z</time>
      </trkpt>
      <trkpt lat="40.968674" lon="-3.276005">
        <ele>938.612</ele>
        <time>2016-07-20T19:10:01Z</time>
      </trkpt>
      <trkpt lat="40.968745" lon="-3.275877">
        <ele>938.832</ele>
        <time>2016-07-20T19:10:02Z</time>
      </trkpt>
      <trkpt lat="40.968812" lon="-3.275751">
        <ele>939.405</ele>
        <time>2016-07-20T19:10:03Z</time>
      </trkpt>
      <trkpt lat="40.968879" lon="-3.275631">
        <ele>940.108</ele>
        <time>2016-07-20T19:10:04Z</time>
      </trkpt>
      <trkpt lat="40.968945" lon="-3.275520">
        <ele>940.712</ele>
        <time>2016-07-20T19:10:05Z</time>
      </trkpt>
      <trkpt lat="40.969017" lon="-3.275411">
        <ele>941.165</ele>
        <time>2016-07-20T19:10:06Z</time>
      </trkpt>
      <trkpt lat="40.969090" lon="-3.275303">
        <ele>941.391</ele>
        <time>2016-07-20T19:10:07Z</time>
      </trkpt>
      <trkpt lat="40.969165" lon="-3.275196">
        <ele>941.037</ele>
        <time>2016-07-20T19:10:08Z</time>
      </trkpt>
      <trkpt lat="40.969251" lon="-3.275104">
        <ele>940.662</ele>
        <time>2016-07-20T19:10:09Z</time>
      </trkpt>
      <trkpt lat="40.969342" lon="-3.275031">
        <ele>940.365</ele>
        <time>2016-07-20T19:10:10Z</time>
      </trkpt>
      <trkpt lat="40.969439" lon="-3.274976">
        <ele>939.745</ele>
        <time>2016-07-20T19:10:11Z</time>
      </trkpt>
      <trkpt lat="40.969535" lon="-3.274933">
        <ele>939.073</ele>
        <time>2016-07-20T19:10:12Z</time>
      </trkpt>
      <trkpt lat="40.969624" lon="-3.274886">
        <ele>938.526</ele>
        <time>2016-07-20T19:10:13Z</time>
      </trkpt>
      <trkpt lat="40.969755" lon="-3.274779">
        <ele>937.647</ele>
        <time>2016-07-20T19:10:16Z</time>
      </trkpt>
      <trkpt lat="40.969815" lon="-3.274685">
        <ele>937.711</ele>
        <time>2016-07-20T19:10:19Z</time>
      </trkpt>
      <trkpt lat="40.969844" lon="-3.274558">
        <ele>938.108</ele>
        <time>2016-07-20T19:10:24Z</time>
      </trkpt>
      <trkpt lat="40.969852" lon="-3.274419">
        <ele>939.033</ele>
        <time>2016-07-20T19:10:27Z</time>
      </trkpt>
      <trkpt lat="40.969874" lon="-3.274281">
        <ele>939.276</ele>
        <time>2016-07-20T19:10:29Z</time>
      </trkpt>
      <trkpt lat="40.969898" lon="-3.274132">
        <ele>939.212</ele>
        <time>2016-07-20T19:10:31Z</time>
      </trkpt>
      <trkpt lat="40.969914" lon="-3.274006">
        <ele>939.098</ele>
        <time>2016-07-20T19:10:33Z</time>
      </trkpt>
      <trkpt lat="40.969869" lon="-3.274140">
        <ele>939.073</ele>
        <time>2016-07-20T19:10:43Z</time>
      </trkpt>
      <trkpt lat="40.969839" lon="-3.274267">
        <ele>938.746</ele>
        <time>2016-07-20T19:10:58Z</time>
      </trkpt>
      <trkpt lat="40.969830" lon="-3.274397">
        <ele>938.776</ele>
        <time>2016-07-20T19:11:01Z</time>
      </trkpt>
      <trkpt lat="40.969825" lon="-3.274535">
        <ele>938.424</ele>
        <time>2016-07-20T19:11:06Z</time>
      </trkpt>
      <trkpt lat="40.969824" lon="-3.274654">
        <ele>938.035</ele>
        <time>2016-07-20T19:11:12Z</time>
      </trkpt>
      <trkpt lat="40.969910" lon="-3.274700">
        <ele>938.186</ele>
        <time>2016-07-20T19:11:20Z</time>
      </trkpt>
      <trkpt lat="40.969970" lon="-3.274838">
        <ele>937.814</ele>
        <time>2016-07-20T19:11:23Z</time>
      </trkpt>
      <trkpt lat="40.970024" lon="-3.274986">
        <ele>937.008</ele>
        <time>2016-07-20T19:11:26Z</time>
      </trkpt>
      <trkpt lat="40.970114" lon="-3.275072">
        <ele>936.364</ele>
        <time>2016-07-20T19:11:29Z</time>
      </trkpt>
      <trkpt lat="40.970235" lon="-3.275093">
        <ele>935.157</ele>
        <time>2016-07-20T19:11:32Z</time>
      </trkpt>
      <trkpt lat="40.970349" lon="-3.275082">
        <ele>934.053</ele>
        <time>2016-07-20T19:11:35Z</time>
      </trkpt>
      <trkpt lat="40.970463" lon="-3.275170">
        <ele>931.929</ele>
        <time>2016-07-20T19:11:38Z</time>
      </trkpt>
      <trkpt lat="40.970556" lon="-3.275272">
        <ele>931.864</ele>
        <time>2016-07-20T19:11:40Z</time>
      </trkpt>
      <trkpt lat="40.970658" lon="-3.275378">
        <ele>932.127</ele>
        <time>2016-07-20T19:11:42Z</time>
      </trkpt>
      <trkpt lat="40.970779" lon="-3.275504">
        <ele>932.687</ele>
        <time>2016-07-20T19:11:44Z</time>
      </trkpt>
      <trkpt lat="40.970879" lon="-3.275608">
        <ele>933.375</ele>
        <time>2016-07-20T19:11:46Z</time>
      </trkpt>
      <trkpt lat="40.970984" lon="-3.275721">
        <ele>934.797</ele>
        <time>2016-07-20T19:11:48Z</time>
      </trkpt>
      <trkpt lat="40.971090" lon="-3.275832">
        <ele>936.323</ele>
        <time>2016-07-20T19:11:50Z</time>
      </trkpt>
      <trkpt lat="40.971176" lon="-3.275923">
        <ele>937.225</ele>
        <time>2016-07-20T19:11:52Z</time>
      </trkpt>
      <trkpt lat="40.971259" lon="-3.276008">
        <ele>938.708</ele>
        <time>2016-07-20T19:11:54Z</time>
      </trkpt>
      <trkpt lat="40.971370" lon="-3.276074">
        <ele>941.230</ele>
        <time>2016-07-20T19:11:57Z</time>
      </trkpt>
      <trkpt lat="40.971471" lon="-3.276089">
        <ele>941.593</ele>
        <time>2016-07-20T19:12:01Z</time>
      </trkpt>
      <trkpt lat="40.971375" lon="-3.276029">
        <ele>945.499</ele>
        <time>2016-07-20T19:12:25Z</time>
      </trkpt>
      <trkpt lat="40.971281" lon="-3.275976">
        <ele>948.495</ele>
        <time>2016-07-20T19:12:28Z</time>
      </trkpt>
      <trkpt lat="40.971206" lon="-3.275905">
        <ele>949.190</ele>
        <time>2016-07-20T19:12:30Z</time>
      </trkpt>
      <trkpt lat="40.971104" lon="-3.275801">
        <ele>949.223</ele>
        <time>2016-07-20T19:12:32Z</time>
      </trkpt>
      <trkpt lat="40.971001" lon="-3.275691">
        <ele>949.423</ele>
        <time>2016-07-20T19:12:34Z</time>
      </trkpt>
      <trkpt lat="40.970889" lon="-3.275580">
        <ele>948.831</ele>
        <time>2016-07-20T19:12:36Z</time>
      </trkpt>
      <trkpt lat="40.970752" lon="-3.275454">
        <ele>948.026</ele>
        <time>2016-07-20T19:12:38Z</time>
      </trkpt>
      <trkpt lat="40.970635" lon="-3.275339">
        <ele>946.147</ele>
        <time>2016-07-20T19:12:40Z</time>
      </trkpt>
      <trkpt lat="40.970529" lon="-3.275246">
        <ele>943.411</ele>
        <time>2016-07-20T19:12:42Z</time>
      </trkpt>
      <trkpt lat="40.970437" lon="-3.275169">
        <ele>941.608</ele>
        <time>2016-07-20T19:12:44Z</time>
      </trkpt>
      <trkpt lat="40.970357" lon="-3.275108">
        <ele>941.613</ele>
        <time>2016-07-20T19:12:46Z</time>
      </trkpt>
      <trkpt lat="40.970261" lon="-3.275123">
        <ele>941.786</ele>
        <time>2016-07-20T19:12:49Z</time>
      </trkpt>
      <trkpt lat="40.970143" lon="-3.275112">
        <ele>941.472</ele>
        <time>2016-07-20T19:12:53Z</time>
      </trkpt>
      <trkpt lat="40.970042" lon="-3.275042">
        <ele>940.148</ele>
        <time>2016-07-20T19:12:56Z</time>
      </trkpt>
      <trkpt lat="40.969977" lon="-3.274888">
        <ele>938.033</ele>
        <time>2016-07-20T19:12:59Z</time>
      </trkpt>
      <trkpt lat="40.969921" lon="-3.274750">
        <ele>937.246</ele>
        <time>2016-07-20T19:13:01Z</time>
      </trkpt>
      <trkpt lat="40.969863" lon="-3.274618">
        <ele>936.796</ele>
        <time>2016-07-20T19:13:03Z</time>
      </trkpt>
      <trkpt lat="40.969849" lon="-3.274449">
        <ele>936.934</ele>
        <time>2016-07-20T19:13:05Z</time>
      </trkpt>
      <trkpt lat="40.969875" lon="-3.274265">
        <ele>936.097</ele>
        <time>2016-07-20T19:13:07Z</time>
      </trkpt>
      <trkpt lat="40.969911" lon="-3.274061">
        <ele>934.423</ele>
        <time>2016-07-20T19:13:09Z</time>
      </trkpt>
      <trkpt lat="40.969938" lon="-3.273839">
        <ele>934.625</ele>
        <time>2016-07-20T19:13:11Z</time>
      </trkpt>
      <trkpt lat="40.969944" lon="-3.273607">
        <ele>934.908</ele>
        <time>2016-07-20T19:13:13Z</time>
      </trkpt>
      <trkpt lat="40.969939" lon="-3.273485">
        <ele>935.290</ele>
        <time>2016-07-20T19:13:14Z</time>
      </trkpt>
      <trkpt lat="40.969931" lon="-3.273359">
        <ele>935.743</ele>
        <time>2016-07-20T19:13:15Z</time>
      </trkpt>
      <trkpt lat="40.969922" lon="-3.273221">
        <ele>936.369</ele>
        <time>2016-07-20T19:13:16Z</time>
      </trkpt>
      <trkpt lat="40.969918" lon="-3.273098">
        <ele>937.015</ele>
        <time>2016-07-20T19:13:17Z</time>
      </trkpt>
      <trkpt lat="40.969908" lon="-3.272877">
        <ele>938.550</ele>
        <time>2016-07-20T19:13:19Z</time>
      </trkpt>
      <trkpt lat="40.969903" lon="-3.272715">
        <ele>939.823</ele>
        <time>2016-07-20T19:13:21Z</time>
      </trkpt>
      <trkpt lat="40.969884" lon="-3.272566">
        <ele>940.973</ele>
        <time>2016-07-20T19:13:23Z</time>
      </trkpt>
      <trkpt lat="40.969878" lon="-3.272413">
        <ele>942.171</ele>
        <time>2016-07-20T19:13:25Z</time>
      </trkpt>
      <trkpt lat="40.969877" lon="-3.272214">
        <ele>944.224</ele>
        <time>2016-07-20T19:13:27Z</time>
      </trkpt>
      <trkpt lat="40.969887" lon="-3.271978">
        <ele>946.904</ele>
        <time>2016-07-20T19:13:29Z</time>
      </trkpt>
      <trkpt lat="40.969900" lon="-3.271858">
        <ele>948.014</ele>
        <time>2016-07-20T19:13:30Z</time>
      </trkpt>
      <trkpt lat="40.969914" lon="-3.271735">
        <ele>948.708</ele>
        <time>2016-07-20T19:13:31Z</time>
      </trkpt>
      <trkpt lat="40.969925" lon="-3.271605">
        <ele>949.133</ele>
        <time>2016-07-20T19:13:32Z</time>
      </trkpt>
      <trkpt lat="40.969937" lon="-3.271462">
        <ele>949.356</ele>
        <time>2016-07-20T19:13:33Z</time>
      </trkpt>
      <trkpt lat="40.969949" lon="-3.271318">
        <ele>949.792</ele>
        <time>2016-07-20T19:13:34Z</time>
      </trkpt>
      <trkpt lat="40.969961" lon="-3.271163">
        <ele>950.388</ele>
        <time>2016-07-20T19:13:35Z</time>
      </trkpt>
      <trkpt lat="40.969974" lon="-3.270998">
        <ele>951.043</ele>
        <time>2016-07-20T19:13:37Z</time>
      </trkpt>
      <trkpt lat="40.969990" lon="-3.270829">
        <ele>951.696</ele>
        <time>2016-07-20T19:13:38Z</time>
      </trkpt>
      <trkpt lat="40.970010" lon="-3.270647">
        <ele>952.536</ele>
        <time>2016-07-20T19:13:39Z</time>
      </trkpt>
      <trkpt lat="40.970032" lon="-3.270459">
        <ele>953.614</ele>
        <time>2016-07-20T19:13:40Z</time>
      </trkpt>
      <trkpt lat="40.970064" lon="-3.270273">
        <ele>955.016</ele>
        <time>2016-07-20T19:13:41Z</time>
      </trkpt>
      <trkpt lat="40.970112" lon="-3.270076">
        <ele>956.576</ele>
        <time>2016-07-20T19:13:42Z</time>
      </trkpt>
      <trkpt lat="40.970162" lon="-3.269900">
        <ele>957.913</ele>
        <time>2016-07-20T19:13:43Z</time>
      </trkpt>
      <trkpt lat="40.970223" lon="-3.269713">
        <ele>959.308</ele>
        <time>2016-07-20T19:13:44Z</time>
      </trkpt>
      <trkpt lat="40.970284" lon="-3.269525">
        <ele>960.642</ele>
        <time>2016-07-20T19:13:45Z</time>
      </trkpt>
      <trkpt lat="40.970343" lon="-3.269355">
        <ele>962.055</ele>
        <time>2016-07-20T19:13:46Z</time>
      </trkpt>
      <trkpt lat="40.970408" lon="-3.269205">
        <ele>962.981</ele>
        <time>2016-07-20T19:13:47Z</time>
      </trkpt>
      <trkpt lat="40.970483" lon="-3.269065">
        <ele>963.877</ele>
        <time>2016-07-20T19:13:48Z</time>
      </trkpt>
      <trkpt lat="40.970569" lon="-3.268937">
        <ele>964.412</ele>
        <time>2016-07-20T19:13:49Z</time>
      </trkpt>
      <trkpt lat="40.970671" lon="-3.268805">
        <ele>965.265</ele>
        <time>2016-07-20T19:13:50Z</time>
      </trkpt>
      <trkpt lat="40.970771" lon="-3.268671">
        <ele>965.825</ele>
        <time>2016-07-20T19:13:51Z</time>
      </trkpt>
      <trkpt lat="40.970865" lon="-3.268518">
        <ele>966.443</ele>
        <time>2016-07-20T19:13:52Z</time>
      </trkpt>
      <trkpt lat="40.970953" lon="-3.268352">
        <ele>967.331</ele>
        <time>2016-07-20T19:13:53Z</time>
      </trkpt>
      <trkpt lat="40.971051" lon="-3.268180">
        <ele>968.161</ele>
        <time>2016-07-20T19:13:54Z</time>
      </trkpt>
      <trkpt lat="40.971142" lon="-3.268005">
        <ele>968.707</ele>
        <time>2016-07-20T19:13:55Z</time>
      </trkpt>
      <trkpt lat="40.971228" lon="-3.267818">
        <ele>969.108</ele>
        <time>2016-07-20T19:13:56Z</time>
      </trkpt>
      <trkpt lat="40.971315" lon="-3.267616">
        <ele>969.484</ele>
        <time>2016-07-20T19:13:57Z</time>
      </trkpt>
      <trkpt lat="40.971400" lon="-3.267412">
        <ele>969.627</ele>
        <time>2016-07-20T19:13:58Z</time>
      </trkpt>
      <trkpt lat="40.971492" lon="-3.267219">
        <ele>969.423</ele>
        <time>2016-07-20T19:13:59Z</time>
      </trkpt>
      <trkpt lat="40.971592" lon="-3.267028">
        <ele>969.119</ele>
        <time>2016-07-20T19:14:00Z</time>
      </trkpt>
      <trkpt lat="40.971791" lon="-3.266637">
        <ele>968.314</ele>
        <time>2016-07-20T19:14:02Z</time>
      </trkpt>
      <trkpt lat="40.971874" lon="-3.266443">
        <ele>967.867</ele>
        <time>2016-07-20T19:14:03Z</time>
      </trkpt>
      <trkpt lat="40.971956" lon="-3.266262">
        <ele>967.137</ele>
        <time>2016-07-20T19:14:04Z</time>
      </trkpt>
      <trkpt lat="40.972037" lon="-3.266095">
        <ele>966.425</ele>
        <time>2016-07-20T19:14:05Z</time>
      </trkpt>
      <trkpt lat="40.972138" lon="-3.265935">
        <ele>966.248</ele>
        <time>2016-07-20T19:14:06Z</time>
      </trkpt>
      <trkpt lat="40.972249" lon="-3.265783">
        <ele>966.361</ele>
        <time>2016-07-20T19:14:07Z</time>
      </trkpt>
      <trkpt lat="40.972374" lon="-3.265642">
        <ele>966.717</ele>
        <time>2016-07-20T19:14:08Z</time>
      </trkpt>
      <trkpt lat="40.972498" lon="-3.265501">
        <ele>967.208</ele>
        <time>2016-07-20T19:14:09Z</time>
      </trkpt>
      <trkpt lat="40.972611" lon="-3.265355">
        <ele>968.545</ele>
        <time>2016-07-20T19:14:10Z</time>
      </trkpt>
      <trkpt lat="40.972711" lon="-3.265208">
        <ele>969.698</ele>
        <time>2016-07-20T19:14:11Z</time>
      </trkpt>
      <trkpt lat="40.972806" lon="-3.265050">
        <ele>971.354</ele>
        <time>2016-07-20T19:14:12Z</time>
      </trkpt>
      <trkpt lat="40.972876" lon="-3.264895">
        <ele>973.050</ele>
        <time>2016-07-20T19:14:13Z</time>
      </trkpt>
      <trkpt lat="40.972926" lon="-3.264732">
        <ele>974.845</ele>
        <time>2016-07-20T19:14:14Z</time>
      </trkpt>
      <trkpt lat="40.972952" lon="-3.264555">
        <ele>976.878</ele>
        <time>2016-07-20T19:14:15Z</time>
      </trkpt>
      <trkpt lat="40.972961" lon="-3.264382">
        <ele>978.798</ele>
        <time>2016-07-20T19:14:16Z</time>
      </trkpt>
      <trkpt lat="40.972962" lon="-3.264204">
        <ele>980.336</ele>
        <time>2016-07-20T19:14:17Z</time>
      </trkpt>
      <trkpt lat="40.972953" lon="-3.264023">
        <ele>981.811</ele>
        <time>2016-07-20T19:14:18Z</time>
      </trkpt>
      <trkpt lat="40.972940" lon="-3.263837">
        <ele>983.021</ele>
        <time>2016-07-20T19:14:19Z</time>
      </trkpt>
      <trkpt lat="40.972924" lon="-3.263641">
        <ele>984.003</ele>
        <time>2016-07-20T19:14:20Z</time>
      </trkpt>
      <trkpt lat="40.972910" lon="-3.263457">
        <ele>985.108</ele>
        <time>2016-07-20T19:14:21Z</time>
      </trkpt>
      <trkpt lat="40.972897" lon="-3.263276">
        <ele>986.122</ele>
        <time>2016-07-20T19:14:22Z</time>
      </trkpt>
      <trkpt lat="40.972888" lon="-3.263117">
        <ele>987.325</ele>
        <time>2016-07-20T19:14:23Z</time>
      </trkpt>
      <trkpt lat="40.972900" lon="-3.262988">
        <ele>988.121</ele>
        <time>2016-07-20T19:14:24Z</time>
      </trkpt>
      <trkpt lat="40.972939" lon="-3.262852">
        <ele>988.967</ele>
        <time>2016-07-20T19:14:25Z</time>
      </trkpt>
      <trkpt lat="40.972999" lon="-3.262741">
        <ele>989.832</ele>
        <time>2016-07-20T19:14:26Z</time>
      </trkpt>
      <trkpt lat="40.973063" lon="-3.262649">
        <ele>990.555</ele>
        <time>2016-07-20T19:14:27Z</time>
      </trkpt>
      <trkpt lat="40.973118" lon="-3.262552">
        <ele>990.955</ele>
        <time>2016-07-20T19:14:28Z</time>
      </trkpt>
      <trkpt lat="40.973132" lon="-3.262426">
        <ele>991.833</ele>
        <time>2016-07-20T19:14:29Z</time>
      </trkpt>
      <trkpt lat="40.973106" lon="-3.262303">
        <ele>992.417</ele>
        <time>2016-07-20T19:14:30Z</time>
      </trkpt>
      <trkpt lat="40.973052" lon="-3.262200">
        <ele>992.687</ele>
        <time>2016-07-20T19:14:31Z</time>
      </trkpt>
      <trkpt lat="40.972940" lon="-3.261994">
        <ele>994.015</ele>
        <time>2016-07-20T19:14:32Z</time>
      </trkpt>
      <trkpt lat="40.972887" lon="-3.261892">
        <ele>994.908</ele>
        <time>2016-07-20T19:14:33Z</time>
      </trkpt>
      <trkpt lat="40.972826" lon="-3.261765">
        <ele>996.112</ele>
        <time>2016-07-20T19:14:34Z</time>
      </trkpt>
      <trkpt lat="40.972774" lon="-3.261632">
        <ele>997.315</ele>
        <time>2016-07-20T19:14:35Z</time>
      </trkpt>
      <trkpt lat="40.972743" lon="-3.261470">
        <ele>998.951</ele>
        <time>2016-07-20T19:14:36Z</time>
      </trkpt>
      <trkpt lat="40.972722" lon="-3.261293">
        <ele>1000.897</ele>
        <time>2016-07-20T19:14:37Z</time>
      </trkpt>
      <trkpt lat="40.972701" lon="-3.261112">
        <ele>1002.572</ele>
        <time>2016-07-20T19:14:38Z</time>
      </trkpt>
      <trkpt lat="40.972672" lon="-3.260949">
        <ele>1003.895</ele>
        <time>2016-07-20T19:14:39Z</time>
      </trkpt>
      <trkpt lat="40.972624" lon="-3.260805">
        <ele>1005.155</ele>
        <time>2016-07-20T19:14:40Z</time>
      </trkpt>
      <trkpt lat="40.972546" lon="-3.260689">
        <ele>1005.943</ele>
        <time>2016-07-20T19:14:41Z</time>
      </trkpt>
      <trkpt lat="40.972447" lon="-3.260595">
        <ele>1007.221</ele>
        <time>2016-07-20T19:14:42Z</time>
      </trkpt>
      <trkpt lat="40.972340" lon="-3.260520">
        <ele>1008.241</ele>
        <time>2016-07-20T19:14:43Z</time>
      </trkpt>
      <trkpt lat="40.972221" lon="-3.260441">
        <ele>1009.105</ele>
        <time>2016-07-20T19:14:44Z</time>
      </trkpt>
      <trkpt lat="40.972095" lon="-3.260349">
        <ele>1009.708</ele>
        <time>2016-07-20T19:14:45Z</time>
      </trkpt>
      <trkpt lat="40.971974" lon="-3.260251">
        <ele>1010.213</ele>
        <time>2016-07-20T19:14:46Z</time>
      </trkpt>
      <trkpt lat="40.971853" lon="-3.260157">
        <ele>1011.226</ele>
        <time>2016-07-20T19:14:47Z</time>
      </trkpt>
      <trkpt lat="40.971729" lon="-3.260063">
        <ele>1012.152</ele>
        <time>2016-07-20T19:14:48Z</time>
      </trkpt>
      <trkpt lat="40.971606" lon="-3.259964">
        <ele>1012.618</ele>
        <time>2016-07-20T19:14:49Z</time>
      </trkpt>
      <trkpt lat="40.971484" lon="-3.259869">
        <ele>1013.233</ele>
        <time>2016-07-20T19:14:50Z</time>
      </trkpt>
      <trkpt lat="40.971370" lon="-3.259780">
        <ele>1014.066</ele>
        <time>2016-07-20T19:14:51Z</time>
      </trkpt>
      <trkpt lat="40.971264" lon="-3.259688">
        <ele>1014.736</ele>
        <time>2016-07-20T19:14:52Z</time>
      </trkpt>
      <trkpt lat="40.971182" lon="-3.259584">
        <ele>1015.764</ele>
        <time>2016-07-20T19:14:53Z</time>
      </trkpt>
      <trkpt lat="40.971134" lon="-3.259474">
        <ele>1016.446</ele>
        <time>2016-07-20T19:14:54Z</time>
      </trkpt>
      <trkpt lat="40.971100" lon="-3.259346">
        <ele>1017.388</ele>
        <time>2016-07-20T19:14:55Z</time>
      </trkpt>
      <trkpt lat="40.971069" lon="-3.259213">
        <ele>1018.216</ele>
        <time>2016-07-20T19:14:56Z</time>
      </trkpt>
      <trkpt lat="40.971046" lon="-3.259084">
        <ele>1019.208</ele>
        <time>2016-07-20T19:14:57Z</time>
      </trkpt>
      <trkpt lat="40.971037" lon="-3.258959">
        <ele>1020.275</ele>
        <time>2016-07-20T19:14:58Z</time>
      </trkpt>
      <trkpt lat="40.971085" lon="-3.258749">
        <ele>1021.928</ele>
        <time>2016-07-20T19:15:00Z</time>
      </trkpt>
      <trkpt lat="40.971219" lon="-3.258629">
        <ele>1023.034</ele>
        <time>2016-07-20T19:15:02Z</time>
      </trkpt>
      <trkpt lat="40.971311" lon="-3.258596">
        <ele>1023.250</ele>
        <time>2016-07-20T19:15:03Z</time>
      </trkpt>
      <trkpt lat="40.971412" lon="-3.258565">
        <ele>1023.385</ele>
        <time>2016-07-20T19:15:04Z</time>
      </trkpt>
      <trkpt lat="40.971520" lon="-3.258532">
        <ele>1023.698</ele>
        <time>2016-07-20T19:15:05Z</time>
      </trkpt>
      <trkpt lat="40.971633" lon="-3.258496">
        <ele>1023.728</ele>
        <time>2016-07-20T19:15:06Z</time>
      </trkpt>
      <trkpt lat="40.971741" lon="-3.258450">
        <ele>1023.946</ele>
        <time>2016-07-20T19:15:07Z</time>
      </trkpt>
      <trkpt lat="40.971839" lon="-3.258386">
        <ele>1024.248</ele>
        <time>2016-07-20T19:15:08Z</time>
      </trkpt>
      <trkpt lat="40.971921" lon="-3.258309">
        <ele>1024.561</ele>
        <time>2016-07-20T19:15:09Z</time>
      </trkpt>
      <trkpt lat="40.971974" lon="-3.258207">
        <ele>1024.817</ele>
        <time>2016-07-20T19:15:10Z</time>
      </trkpt>
      <trkpt lat="40.971985" lon="-3.257999">
        <ele>1025.208</ele>
        <time>2016-07-20T19:15:12Z</time>
      </trkpt>
      <trkpt lat="40.971844" lon="-3.257870">
        <ele>1025.955</ele>
        <time>2016-07-20T19:15:14Z</time>
      </trkpt>
      <trkpt lat="40.971741" lon="-3.257873">
        <ele>1026.918</ele>
        <time>2016-07-20T19:15:15Z</time>
      </trkpt>
      <trkpt lat="40.971640" lon="-3.257900">
        <ele>1027.864</ele>
        <time>2016-07-20T19:15:16Z</time>
      </trkpt>
      <trkpt lat="40.971530" lon="-3.257926">
        <ele>1029.160</ele>
        <time>2016-07-20T19:15:17Z</time>
      </trkpt>
      <trkpt lat="40.971415" lon="-3.257940">
        <ele>1030.435</ele>
        <time>2016-07-20T19:15:18Z</time>
      </trkpt>
      <trkpt lat="40.971302" lon="-3.257931">
        <ele>1031.548</ele>
        <time>2016-07-20T19:15:19Z</time>
      </trkpt>
      <trkpt lat="40.971195" lon="-3.257907">
        <ele>1033.038</ele>
        <time>2016-07-20T19:15:20Z</time>
      </trkpt>
      <trkpt lat="40.971095" lon="-3.257880">
        <ele>1034.246</ele>
        <time>2016-07-20T19:15:21Z</time>
      </trkpt>
      <trkpt lat="40.970933" lon="-3.257816">
        <ele>1035.134</ele>
        <time>2016-07-20T19:15:23Z</time>
      </trkpt>
      <trkpt lat="40.970764" lon="-3.257775">
        <ele>1035.455</ele>
        <time>2016-07-20T19:15:25Z</time>
      </trkpt>
      <trkpt lat="40.970658" lon="-3.257763">
        <ele>1035.810</ele>
        <time>2016-07-20T19:15:26Z</time>
      </trkpt>
      <trkpt lat="40.970548" lon="-3.257751">
        <ele>1036.308</ele>
        <time>2016-07-20T19:15:28Z</time>
      </trkpt>
      <trkpt lat="40.970436" lon="-3.257737">
        <ele>1036.924</ele>
        <time>2016-07-20T19:15:28Z</time>
      </trkpt>
      <trkpt lat="40.970317" lon="-3.257728">
        <ele>1037.797</ele>
        <time>2016-07-20T19:15:30Z</time>
      </trkpt>
      <trkpt lat="40.970192" lon="-3.257729">
        <ele>1038.633</ele>
        <time>2016-07-20T19:15:31Z</time>
      </trkpt>
      <trkpt lat="40.970079" lon="-3.257752">
        <ele>1039.329</ele>
        <time>2016-07-20T19:15:32Z</time>
      </trkpt>
      <trkpt lat="40.969962" lon="-3.257813">
        <ele>1040.074</ele>
        <time>2016-07-20T19:15:33Z</time>
      </trkpt>
      <trkpt lat="40.969847" lon="-3.257891">
        <ele>1040.757</ele>
        <time>2016-07-20T19:15:34Z</time>
      </trkpt>
      <trkpt lat="40.969732" lon="-3.257973">
        <ele>1041.437</ele>
        <time>2016-07-20T19:15:35Z</time>
      </trkpt>
      <trkpt lat="40.969616" lon="-3.258042">
        <ele>1042.485</ele>
        <time>2016-07-20T19:15:36Z</time>
      </trkpt>
      <trkpt lat="40.969505" lon="-3.258116">
        <ele>1043.327</ele>
        <time>2016-07-20T19:15:37Z</time>
      </trkpt>
      <trkpt lat="40.969398" lon="-3.258186">
        <ele>1044.568</ele>
        <time>2016-07-20T19:15:38Z</time>
      </trkpt>
      <trkpt lat="40.969288" lon="-3.258236">
        <ele>1045.514</ele>
        <time>2016-07-20T19:15:39Z</time>
      </trkpt>
      <trkpt lat="40.969180" lon="-3.258265">
        <ele>1046.308</ele>
        <time>2016-07-20T19:15:40Z</time>
      </trkpt>
      <trkpt lat="40.969070" lon="-3.258272">
        <ele>1047.173</ele>
        <time>2016-07-20T19:15:41Z</time>
      </trkpt>
      <trkpt lat="40.968965" lon="-3.258256">
        <ele>1047.886</ele>
        <time>2016-07-20T19:15:42Z</time>
      </trkpt>
      <trkpt lat="40.968866" lon="-3.258213">
        <ele>1048.262</ele>
        <time>2016-07-20T19:15:43Z</time>
      </trkpt>
      <trkpt lat="40.968766" lon="-3.258151">
        <ele>1048.848</ele>
        <time>2016-07-20T19:15:44Z</time>
      </trkpt>
      <trkpt lat="40.968663" lon="-3.258081">
        <ele>1049.213</ele>
        <time>2016-07-20T19:15:45Z</time>
      </trkpt>
      <trkpt lat="40.968558" lon="-3.258009">
        <ele>1049.446</ele>
        <time>2016-07-20T19:15:46Z</time>
      </trkpt>
      <trkpt lat="40.968450" lon="-3.257929">
        <ele>1049.846</ele>
        <time>2016-07-20T19:15:47Z</time>
      </trkpt>
      <trkpt lat="40.968339" lon="-3.257843">
        <ele>1049.964</ele>
        <time>2016-07-20T19:15:48Z</time>
      </trkpt>
      <trkpt lat="40.968122" lon="-3.257640">
        <ele>1049.617</ele>
        <time>2016-07-20T19:15:50Z</time>
      </trkpt>
      <trkpt lat="40.968013" lon="-3.257530">
        <ele>1049.387</ele>
        <time>2016-07-20T19:15:51Z</time>
      </trkpt>
      <trkpt lat="40.967905" lon="-3.257417">
        <ele>1048.915</ele>
        <time>2016-07-20T19:15:52Z</time>
      </trkpt>
      <trkpt lat="40.967793" lon="-3.257301">
        <ele>1048.408</ele>
        <time>2016-07-20T19:15:53Z</time>
      </trkpt>
      <trkpt lat="40.967675" lon="-3.257169">
        <ele>1048.652</ele>
        <time>2016-07-20T19:15:54Z</time>
      </trkpt>
      <trkpt lat="40.967559" lon="-3.257043">
        <ele>1049.055</ele>
        <time>2016-07-20T19:15:55Z</time>
      </trkpt>
      <trkpt lat="40.967436" lon="-3.256915">
        <ele>1049.741</ele>
        <time>2016-07-20T19:15:56Z</time>
      </trkpt>
      <trkpt lat="40.967312" lon="-3.256782">
        <ele>1050.477</ele>
        <time>2016-07-20T19:15:57Z</time>
      </trkpt>
      <trkpt lat="40.967184" lon="-3.256645">
        <ele>1051.282</ele>
        <time>2016-07-20T19:15:58Z</time>
      </trkpt>
      <trkpt lat="40.967053" lon="-3.256502">
        <ele>1052.125</ele>
        <time>2016-07-20T19:15:59Z</time>
      </trkpt>
      <trkpt lat="40.966920" lon="-3.256357">
        <ele>1053.125</ele>
        <time>2016-07-20T19:16:00Z</time>
      </trkpt>
      <trkpt lat="40.966779" lon="-3.256216">
        <ele>1054.573</ele>
        <time>2016-07-20T19:16:01Z</time>
      </trkpt>
      <trkpt lat="40.966635" lon="-3.256073">
        <ele>1056.189</ele>
        <time>2016-07-20T19:16:02Z</time>
      </trkpt>
      <trkpt lat="40.966490" lon="-3.255933">
        <ele>1057.606</ele>
        <time>2016-07-20T19:16:03Z</time>
      </trkpt>
      <trkpt lat="40.966348" lon="-3.255794">
        <ele>1058.826</ele>
        <time>2016-07-20T19:16:04Z</time>
      </trkpt>
      <trkpt lat="40.966206" lon="-3.255655">
        <ele>1060.308</ele>
        <time>2016-07-20T19:16:05Z</time>
      </trkpt>
      <trkpt lat="40.966071" lon="-3.255503">
        <ele>1061.839</ele>
        <time>2016-07-20T19:16:06Z</time>
      </trkpt>
      <trkpt lat="40.965941" lon="-3.255349">
        <ele>1063.482</ele>
        <time>2016-07-20T19:16:07Z</time>
      </trkpt>
      <trkpt lat="40.965818" lon="-3.255192">
        <ele>1064.818</ele>
        <time>2016-07-20T19:16:08Z</time>
      </trkpt>
      <trkpt lat="40.965696" lon="-3.255038">
        <ele>1066.474</ele>
        <time>2016-07-20T19:16:09Z</time>
      </trkpt>
      <trkpt lat="40.965581" lon="-3.254884">
        <ele>1067.729</ele>
        <time>2016-07-20T19:16:10Z</time>
      </trkpt>
      <trkpt lat="40.965475" lon="-3.254737">
        <ele>1068.922</ele>
        <time>2016-07-20T19:16:11Z</time>
      </trkpt>
      <trkpt lat="40.965380" lon="-3.254599">
        <ele>1069.932</ele>
        <time>2016-07-20T19:16:12Z</time>
      </trkpt>
      <trkpt lat="40.965289" lon="-3.254471">
        <ele>1071.040</ele>
        <time>2016-07-20T19:16:13Z</time>
      </trkpt>
      <trkpt lat="40.965216" lon="-3.254368">
        <ele>1071.877</ele>
        <time>2016-07-20T19:16:14Z</time>
      </trkpt>
      <trkpt lat="40.965142" lon="-3.254277">
        <ele>1072.361</ele>
        <time>2016-07-20T19:16:15Z</time>
      </trkpt>
      <trkpt lat="40.965072" lon="-3.254195">
        <ele>1073.027</ele>
        <time>2016-07-20T19:16:16Z</time>
      </trkpt>
      <trkpt lat="40.964974" lon="-3.254064">
        <ele>1074.308</ele>
        <time>2016-07-20T19:16:17Z</time>
      </trkpt>
      <trkpt lat="40.964916" lon="-3.253954">
        <ele>1074.378</ele>
        <time>2016-07-20T19:16:21Z</time>
      </trkpt>
      <trkpt lat="40.964928" lon="-3.253827">
        <ele>1074.241</ele>
        <time>2016-07-20T19:16:23Z</time>
      </trkpt>
      <trkpt lat="40.964974" lon="-3.253650">
        <ele>1074.067</ele>
        <time>2016-07-20T19:16:25Z</time>
      </trkpt>
      <trkpt lat="40.965044" lon="-3.253417">
        <ele>1073.453</ele>
        <time>2016-07-20T19:16:27Z</time>
      </trkpt>
      <trkpt lat="40.965080" lon="-3.253294">
        <ele>1073.498</ele>
        <time>2016-07-20T19:16:28Z</time>
      </trkpt>
      <trkpt lat="40.965123" lon="-3.253148">
        <ele>1074.051</ele>
        <time>2016-07-20T19:16:29Z</time>
      </trkpt>
      <trkpt lat="40.965172" lon="-3.252981">
        <ele>1074.971</ele>
        <time>2016-07-20T19:16:30Z</time>
      </trkpt>
      <trkpt lat="40.965223" lon="-3.252809">
        <ele>1076.129</ele>
        <time>2016-07-20T19:16:31Z</time>
      </trkpt>
      <trkpt lat="40.965279" lon="-3.252618">
        <ele>1077.579</ele>
        <time>2016-07-20T19:16:32Z</time>
      </trkpt>
      <trkpt lat="40.965336" lon="-3.252424">
        <ele>1078.805</ele>
        <time>2016-07-20T19:16:33Z</time>
      </trkpt>
      <trkpt lat="40.965395" lon="-3.252226">
        <ele>1080.025</ele>
        <time>2016-07-20T19:16:34Z</time>
      </trkpt>
      <trkpt lat="40.965456" lon="-3.252021">
        <ele>1081.408</ele>
        <time>2016-07-20T19:16:35Z</time>
      </trkpt>
      <trkpt lat="40.965518" lon="-3.251810">
        <ele>1082.768</ele>
        <time>2016-07-20T19:16:36Z</time>
      </trkpt>
      <trkpt lat="40.965586" lon="-3.251583">
        <ele>1083.861</ele>
        <time>2016-07-20T19:16:37Z</time>
      </trkpt>
      <trkpt lat="40.965657" lon="-3.251346">
        <ele>1084.867</ele>
        <time>2016-07-20T19:16:38Z</time>
      </trkpt>
      <trkpt lat="40.965732" lon="-3.251097">
        <ele>1085.893</ele>
        <time>2016-07-20T19:16:39Z</time>
      </trkpt>
      <trkpt lat="40.965810" lon="-3.250839">
        <ele>1086.798</ele>
        <time>2016-07-20T19:16:40Z</time>
      </trkpt>
      <trkpt lat="40.965886" lon="-3.250588">
        <ele>1087.461</ele>
        <time>2016-07-20T19:16:41Z</time>
      </trkpt>
      <trkpt lat="40.965963" lon="-3.250336">
        <ele>1088.391</ele>
        <time>2016-07-20T19:16:42Z</time>
      </trkpt>
      <trkpt lat="40.966038" lon="-3.250087">
        <ele>1089.079</ele>
        <time>2016-07-20T19:16:43Z</time>
      </trkpt>
      <trkpt lat="40.966113" lon="-3.249844">
        <ele>1089.574</ele>
        <time>2016-07-20T19:16:44Z</time>
      </trkpt>
      <trkpt lat="40.966187" lon="-3.249602">
        <ele>1090.456</ele>
        <time>2016-07-20T19:16:45Z</time>
      </trkpt>
      <trkpt lat="40.966262" lon="-3.249360">
        <ele>1091.221</ele>
        <time>2016-07-20T19:16:46Z</time>
      </trkpt>
      <trkpt lat="40.966334" lon="-3.249126">
        <ele>1091.808</ele>
        <time>2016-07-20T19:16:47Z</time>
      </trkpt>
      <trkpt lat="40.966404" lon="-3.248896">
        <ele>1092.528</ele>
        <time>2016-07-20T19:16:48Z</time>
      </trkpt>
      <trkpt lat="40.966472" lon="-3.248663">
        <ele>1093.011</ele>
        <time>2016-07-20T19:16:49Z</time>
      </trkpt>
      <trkpt lat="40.966540" lon="-3.248432">
        <ele>1093.417</ele>
        <time>2016-07-20T19:16:50Z</time>
      </trkpt>
      <trkpt lat="40.966612" lon="-3.248211">
        <ele>1093.683</ele>
        <time>2016-07-20T19:16:51Z</time>
      </trkpt>
      <trkpt lat="40.966691" lon="-3.247995">
        <ele>1093.558</ele>
        <time>2016-07-20T19:16:52Z</time>
      </trkpt>
      <trkpt lat="40.966781" lon="-3.247787">
        <ele>1093.481</ele>
        <time>2016-07-20T19:16:53Z</time>
      </trkpt>
      <trkpt lat="40.966888" lon="-3.247590">
        <ele>1093.331</ele>
        <time>2016-07-20T19:16:54Z</time>
      </trkpt>
      <trkpt lat="40.967009" lon="-3.247412">
        <ele>1093.119</ele>
        <time>2016-07-20T19:16:55Z</time>
      </trkpt>
      <trkpt lat="40.967143" lon="-3.247256">
        <ele>1092.792</ele>
        <time>2016-07-20T19:16:56Z</time>
      </trkpt>
      <trkpt lat="40.967298" lon="-3.247115">
        <ele>1092.273</ele>
        <time>2016-07-20T19:16:57Z</time>
      </trkpt>
      <trkpt lat="40.967462" lon="-3.246997">
        <ele>1092.120</ele>
        <time>2016-07-20T19:16:58Z</time>
      </trkpt>
      <trkpt lat="40.967618" lon="-3.246916">
        <ele>1091.508</ele>
        <time>2016-07-20T19:16:59Z</time>
      </trkpt>
      <trkpt lat="40.967781" lon="-3.246859">
        <ele>1090.970</ele>
        <time>2016-07-20T19:17:00Z</time>
      </trkpt>
      <trkpt lat="40.967950" lon="-3.246828">
        <ele>1090.373</ele>
        <time>2016-07-20T19:17:01Z</time>
      </trkpt>
      <trkpt lat="40.968113" lon="-3.246827">
        <ele>1089.459</ele>
        <time>2016-07-20T19:17:02Z</time>
      </trkpt>
      <trkpt lat="40.968286" lon="-3.246852">
        <ele>1088.575</ele>
        <time>2016-07-20T19:17:03Z</time>
      </trkpt>
      <trkpt lat="40.968474" lon="-3.246903">
        <ele>1087.440</ele>
        <time>2016-07-20T19:17:04Z</time>
      </trkpt>
      <trkpt lat="40.968662" lon="-3.246970">
        <ele>1086.363</ele>
        <time>2016-07-20T19:17:05Z</time>
      </trkpt>
      <trkpt lat="40.968843" lon="-3.247045">
        <ele>1085.083</ele>
        <time>2016-07-20T19:17:06Z</time>
      </trkpt>
      <trkpt lat="40.969011" lon="-3.247119">
        <ele>1084.391</ele>
        <time>2016-07-20T19:17:07Z</time>
      </trkpt>
      <trkpt lat="40.969182" lon="-3.247196">
        <ele>1083.629</ele>
        <time>2016-07-20T19:17:08Z</time>
      </trkpt>
      <trkpt lat="40.969356" lon="-3.247250">
        <ele>1083.100</ele>
        <time>2016-07-20T19:17:09Z</time>
      </trkpt>
      <trkpt lat="40.969536" lon="-3.247283">
        <ele>1083.220</ele>
        <time>2016-07-20T19:17:10Z</time>
      </trkpt>
      <trkpt lat="40.969721" lon="-3.247292">
        <ele>1083.208</ele>
        <time>2016-07-20T19:17:11Z</time>
      </trkpt>
      <trkpt lat="40.969904" lon="-3.247268">
        <ele>1083.963</ele>
        <time>2016-07-20T19:17:12Z</time>
      </trkpt>
      <trkpt lat="40.970087" lon="-3.247217">
        <ele>1084.576</ele>
        <time>2016-07-20T19:17:13Z</time>
      </trkpt>
      <trkpt lat="40.970274" lon="-3.247146">
        <ele>1085.222</ele>
        <time>2016-07-20T19:17:15Z</time>
      </trkpt>
      <trkpt lat="40.970462" lon="-3.247065">
        <ele>1086.278</ele>
        <time>2016-07-20T19:17:15Z</time>
      </trkpt>
      <trkpt lat="40.970648" lon="-3.246985">
        <ele>1087.263</ele>
        <time>2016-07-20T19:17:16Z</time>
      </trkpt>
      <trkpt lat="40.970841" lon="-3.246904">
        <ele>1087.946</ele>
        <time>2016-07-20T19:17:17Z</time>
      </trkpt>
      <trkpt lat="40.971033" lon="-3.246820">
        <ele>1088.786</ele>
        <time>2016-07-20T19:17:19Z</time>
      </trkpt>
      <trkpt lat="40.971230" lon="-3.246734">
        <ele>1089.484</ele>
        <time>2016-07-20T19:17:19Z</time>
      </trkpt>
      <trkpt lat="40.971429" lon="-3.246647">
        <ele>1089.975</ele>
        <time>2016-07-20T19:17:21Z</time>
      </trkpt>
      <trkpt lat="40.971631" lon="-3.246558">
        <ele>1089.728</ele>
        <time>2016-07-20T19:17:22Z</time>
      </trkpt>
      <trkpt lat="40.971842" lon="-3.246466">
        <ele>1089.620</ele>
        <time>2016-07-20T19:17:23Z</time>
      </trkpt>
      <trkpt lat="40.972055" lon="-3.246367">
        <ele>1089.408</ele>
        <time>2016-07-20T19:17:24Z</time>
      </trkpt>
      <trkpt lat="40.972279" lon="-3.246263">
        <ele>1089.138</ele>
        <time>2016-07-20T19:17:25Z</time>
      </trkpt>
      <trkpt lat="40.972506" lon="-3.246158">
        <ele>1088.461</ele>
        <time>2016-07-20T19:17:26Z</time>
      </trkpt>
      <trkpt lat="40.972739" lon="-3.246051">
        <ele>1088.187</ele>
        <time>2016-07-20T19:17:27Z</time>
      </trkpt>
      <trkpt lat="40.972971" lon="-3.245946">
        <ele>1087.573</ele>
        <time>2016-07-20T19:17:28Z</time>
      </trkpt>
      <trkpt lat="40.973207" lon="-3.245839">
        <ele>1087.348</ele>
        <time>2016-07-20T19:17:29Z</time>
      </trkpt>
      <trkpt lat="40.973442" lon="-3.245732">
        <ele>1087.281</ele>
        <time>2016-07-20T19:17:30Z</time>
      </trkpt>
      <trkpt lat="40.973672" lon="-3.245632">
        <ele>1087.841</ele>
        <time>2016-07-20T19:17:31Z</time>
      </trkpt>
      <trkpt lat="40.973891" lon="-3.245538">
        <ele>1088.079</ele>
        <time>2016-07-20T19:17:32Z</time>
      </trkpt>
      <trkpt lat="40.974111" lon="-3.245444">
        <ele>1088.283</ele>
        <time>2016-07-20T19:17:33Z</time>
      </trkpt>
      <trkpt lat="40.974334" lon="-3.245347">
        <ele>1088.625</ele>
        <time>2016-07-20T19:17:34Z</time>
      </trkpt>
      <trkpt lat="40.974559" lon="-3.245248">
        <ele>1089.217</ele>
        <time>2016-07-20T19:17:35Z</time>
      </trkpt>
      <trkpt lat="40.974783" lon="-3.245149">
        <ele>1089.908</ele>
        <time>2016-07-20T19:17:36Z</time>
      </trkpt>
      <trkpt lat="40.975000" lon="-3.245054">
        <ele>1090.429</ele>
        <time>2016-07-20T19:17:37Z</time>
      </trkpt>
      <trkpt lat="40.975231" lon="-3.244944">
        <ele>1091.372</ele>
        <time>2016-07-20T19:17:38Z</time>
      </trkpt>
      <trkpt lat="40.975457" lon="-3.244830">
        <ele>1092.318</ele>
        <time>2016-07-20T19:17:39Z</time>
      </trkpt>
      <trkpt lat="40.975675" lon="-3.244721">
        <ele>1093.344</ele>
        <time>2016-07-20T19:17:40Z</time>
      </trkpt>
      <trkpt lat="40.975892" lon="-3.244606">
        <ele>1094.099</ele>
        <time>2016-07-20T19:17:41Z</time>
      </trkpt>
      <trkpt lat="40.976124" lon="-3.244482">
        <ele>1095.292</ele>
        <time>2016-07-20T19:17:42Z</time>
      </trkpt>
      <trkpt lat="40.976346" lon="-3.244363">
        <ele>1095.872</ele>
        <time>2016-07-20T19:17:43Z</time>
      </trkpt>
      <trkpt lat="40.976568" lon="-3.244244">
        <ele>1096.070</ele>
        <time>2016-07-20T19:17:44Z</time>
      </trkpt>
      <trkpt lat="40.976790" lon="-3.244126">
        <ele>1096.441</ele>
        <time>2016-07-20T19:17:45Z</time>
      </trkpt>
      <trkpt lat="40.977024" lon="-3.244001">
        <ele>1096.881</ele>
        <time>2016-07-20T19:17:46Z</time>
      </trkpt>
      <trkpt lat="40.977255" lon="-3.243877">
        <ele>1096.809</ele>
        <time>2016-07-20T19:17:47Z</time>
      </trkpt>
      <trkpt lat="40.977484" lon="-3.243748">
        <ele>1097.008</ele>
        <time>2016-07-20T19:17:48Z</time>
      </trkpt>
      <trkpt lat="40.977715" lon="-3.243618">
        <ele>1097.545</ele>
        <time>2016-07-20T19:17:49Z</time>
      </trkpt>
      <trkpt lat="40.977945" lon="-3.243490">
        <ele>1097.918</ele>
        <time>2016-07-20T19:17:50Z</time>
      </trkpt>
      <trkpt lat="40.978174" lon="-3.243363">
        <ele>1098.544</ele>
        <time>2016-07-20T19:17:51Z</time>
      </trkpt>
      <trkpt lat="40.978402" lon="-3.243238">
        <ele>1099.080</ele>
        <time>2016-07-20T19:17:52Z</time>
      </trkpt>
      <trkpt lat="40.978625" lon="-3.243117">
        <ele>1099.225</ele>
        <time>2016-07-20T19:17:53Z</time>
      </trkpt>
      <trkpt lat="40.978847" lon="-3.242994">
        <ele>1099.798</ele>
        <time>2016-07-20T19:17:54Z</time>
      </trkpt>
      <trkpt lat="40.979065" lon="-3.242874">
        <ele>1099.998</ele>
        <time>2016-07-20T19:17:55Z</time>
      </trkpt>
      <trkpt lat="40.979279" lon="-3.242762">
        <ele>1100.056</ele>
        <time>2016-07-20T19:17:56Z</time>
      </trkpt>
      <trkpt lat="40.979491" lon="-3.242658">
        <ele>1100.238</ele>
        <time>2016-07-20T19:17:57Z</time>
      </trkpt>
      <trkpt lat="40.979704" lon="-3.242565">
        <ele>1100.670</ele>
        <time>2016-07-20T19:17:58Z</time>
      </trkpt>
      <trkpt lat="40.979915" lon="-3.242491">
        <ele>1100.917</ele>
        <time>2016-07-20T19:17:59Z</time>
      </trkpt>
      <trkpt lat="40.980117" lon="-3.242446">
        <ele>1100.808</ele>
        <time>2016-07-20T19:18:00Z</time>
      </trkpt>
      <trkpt lat="40.980316" lon="-3.242421">
        <ele>1100.554</ele>
        <time>2016-07-20T19:18:01Z</time>
      </trkpt>
      <trkpt lat="40.980510" lon="-3.242419">
        <ele>1100.417</ele>
        <time>2016-07-20T19:18:02Z</time>
      </trkpt>
      <trkpt lat="40.980716" lon="-3.242434">
        <ele>1100.693</ele>
        <time>2016-07-20T19:18:03Z</time>
      </trkpt>
      <trkpt lat="40.980924" lon="-3.242472">
        <ele>1100.349</ele>
        <time>2016-07-20T19:18:04Z</time>
      </trkpt>
      <trkpt lat="40.981131" lon="-3.242529">
        <ele>1099.774</ele>
        <time>2016-07-20T19:18:05Z</time>
      </trkpt>
      <trkpt lat="40.981339" lon="-3.242595">
        <ele>1099.267</ele>
        <time>2016-07-20T19:18:06Z</time>
      </trkpt>
      <trkpt lat="40.981549" lon="-3.242664">
        <ele>1098.767</ele>
        <time>2016-07-20T19:18:07Z</time>
      </trkpt>
      <trkpt lat="40.981760" lon="-3.242741">
        <ele>1098.175</ele>
        <time>2016-07-20T19:18:08Z</time>
      </trkpt>
      <trkpt lat="40.981968" lon="-3.242816">
        <ele>1097.372</ele>
        <time>2016-07-20T19:18:09Z</time>
      </trkpt>
      <trkpt lat="40.982189" lon="-3.242897">
        <ele>1096.613</ele>
        <time>2016-07-20T19:18:10Z</time>
      </trkpt>
      <trkpt lat="40.982402" lon="-3.242965">
        <ele>1096.414</ele>
        <time>2016-07-20T19:18:11Z</time>
      </trkpt>
      <trkpt lat="40.982616" lon="-3.243034">
        <ele>1096.008</ele>
        <time>2016-07-20T19:18:12Z</time>
      </trkpt>
      <trkpt lat="40.982833" lon="-3.243086">
        <ele>1095.738</ele>
        <time>2016-07-20T19:18:13Z</time>
      </trkpt>
      <trkpt lat="40.983047" lon="-3.243118">
        <ele>1095.631</ele>
        <time>2016-07-20T19:18:14Z</time>
      </trkpt>
      <trkpt lat="40.983267" lon="-3.243130">
        <ele>1095.617</ele>
        <time>2016-07-20T19:18:15Z</time>
      </trkpt>
      <trkpt lat="40.983483" lon="-3.243123">
        <ele>1095.813</ele>
        <time>2016-07-20T19:18:16Z</time>
      </trkpt>
      <trkpt lat="40.983705" lon="-3.243100">
        <ele>1095.988</ele>
        <time>2016-07-20T19:18:17Z</time>
      </trkpt>
      <trkpt lat="40.983927" lon="-3.243055">
        <ele>1096.121</ele>
        <time>2016-07-20T19:18:18Z</time>
      </trkpt>
      <trkpt lat="40.984135" lon="-3.242987">
        <ele>1096.251</ele>
        <time>2016-07-20T19:18:19Z</time>
      </trkpt>
      <trkpt lat="40.984339" lon="-3.242904">
        <ele>1096.199</ele>
        <time>2016-07-20T19:18:20Z</time>
      </trkpt>
      <trkpt lat="40.984542" lon="-3.242805">
        <ele>1096.014</ele>
        <time>2016-07-20T19:18:21Z</time>
      </trkpt>
      <trkpt lat="40.984944" lon="-3.242559">
        <ele>1096.354</ele>
        <time>2016-07-20T19:18:22Z</time>
      </trkpt>
      <trkpt lat="40.985142" lon="-3.242434">
        <ele>1096.709</ele>
        <time>2016-07-20T19:18:23Z</time>
      </trkpt>
      <trkpt lat="40.985342" lon="-3.242308">
        <ele>1097.508</ele>
        <time>2016-07-20T19:18:24Z</time>
      </trkpt>
      <trkpt lat="40.985540" lon="-3.242183">
        <ele>1098.662</ele>
        <time>2016-07-20T19:18:25Z</time>
      </trkpt>
      <trkpt lat="40.985736" lon="-3.242058">
        <ele>1100.075</ele>
        <time>2016-07-20T19:18:26Z</time>
      </trkpt>
      <trkpt lat="40.985941" lon="-3.241932">
        <ele>1101.431</ele>
        <time>2016-07-20T19:18:27Z</time>
      </trkpt>
      <trkpt lat="40.986134" lon="-3.241814">
        <ele>1102.997</ele>
        <time>2016-07-20T19:18:28Z</time>
      </trkpt>
      <trkpt lat="40.986326" lon="-3.241710">
        <ele>1104.272</ele>
        <time>2016-07-20T19:18:29Z</time>
      </trkpt>
      <trkpt lat="40.986525" lon="-3.241620">
        <ele>1105.225</ele>
        <time>2016-07-20T19:18:30Z</time>
      </trkpt>
      <trkpt lat="40.986723" lon="-3.241559">
        <ele>1106.385</ele>
        <time>2016-07-20T19:18:31Z</time>
      </trkpt>
      <trkpt lat="40.986932" lon="-3.241523">
        <ele>1107.393</ele>
        <time>2016-07-20T19:18:32Z</time>
      </trkpt>
      <trkpt lat="40.987128" lon="-3.241538">
        <ele>1108.738</ele>
        <time>2016-07-20T19:18:33Z</time>
      </trkpt>
      <trkpt lat="40.987322" lon="-3.241583">
        <ele>1109.470</ele>
        <time>2016-07-20T19:18:34Z</time>
      </trkpt>
      <trkpt lat="40.987517" lon="-3.241638">
        <ele>1109.517</ele>
        <time>2016-07-20T19:18:35Z</time>
      </trkpt>
      <trkpt lat="40.987696" lon="-3.241736">
        <ele>1109.908</ele>
        <time>2016-07-20T19:18:36Z</time>
      </trkpt>
      <trkpt lat="40.987868" lon="-3.241865">
        <ele>1110.064</ele>
        <time>2016-07-20T19:18:37Z</time>
      </trkpt>
      <trkpt lat="40.988023" lon="-3.242016">
        <ele>1109.947</ele>
        <time>2016-07-20T19:18:38Z</time>
      </trkpt>
      <trkpt lat="40.988172" lon="-3.242177">
        <ele>1109.693</ele>
        <time>2016-07-20T19:18:39Z</time>
      </trkpt>
      <trkpt lat="40.988321" lon="-3.242350">
        <ele>1109.269</ele>
        <time>2016-07-20T19:18:40Z</time>
      </trkpt>
      <trkpt lat="40.988472" lon="-3.242526">
        <ele>1108.674</ele>
        <time>2016-07-20T19:18:41Z</time>
      </trkpt>
      <trkpt lat="40.988617" lon="-3.242705">
        <ele>1108.337</ele>
        <time>2016-07-20T19:18:42Z</time>
      </trkpt>
      <trkpt lat="40.988767" lon="-3.242891">
        <ele>1107.717</ele>
        <time>2016-07-20T19:18:43Z</time>
      </trkpt>
      <trkpt lat="40.988915" lon="-3.243075">
        <ele>1107.355</ele>
        <time>2016-07-20T19:18:44Z</time>
      </trkpt>
      <trkpt lat="40.989056" lon="-3.243265">
        <ele>1106.464</ele>
        <time>2016-07-20T19:18:45Z</time>
      </trkpt>
      <trkpt lat="40.989195" lon="-3.243460">
        <ele>1106.006</ele>
        <time>2016-07-20T19:18:46Z</time>
      </trkpt>
      <trkpt lat="40.989329" lon="-3.243664">
        <ele>1105.216</ele>
        <time>2016-07-20T19:18:47Z</time>
      </trkpt>
      <trkpt lat="40.989453" lon="-3.243880">
        <ele>1104.408</ele>
        <time>2016-07-20T19:18:48Z</time>
      </trkpt>
      <trkpt lat="40.989565" lon="-3.244108">
        <ele>1103.877</ele>
        <time>2016-07-20T19:18:49Z</time>
      </trkpt>
      <trkpt lat="40.989669" lon="-3.244338">
        <ele>1103.030</ele>
        <time>2016-07-20T19:18:50Z</time>
      </trkpt>
      <trkpt lat="40.989763" lon="-3.244578">
        <ele>1102.316</ele>
        <time>2016-07-20T19:18:51Z</time>
      </trkpt>
      <trkpt lat="40.989844" lon="-3.244823">
        <ele>1101.562</ele>
        <time>2016-07-20T19:18:52Z</time>
      </trkpt>
      <trkpt lat="40.989915" lon="-3.245067">
        <ele>1101.157</ele>
        <time>2016-07-20T19:18:53Z</time>
      </trkpt>
      <trkpt lat="40.989975" lon="-3.245323">
        <ele>1101.010</ele>
        <time>2016-07-20T19:18:54Z</time>
      </trkpt>
      <trkpt lat="40.990031" lon="-3.245580">
        <ele>1100.540</ele>
        <time>2016-07-20T19:18:55Z</time>
      </trkpt>
      <trkpt lat="40.990084" lon="-3.245830">
        <ele>1100.298</ele>
        <time>2016-07-20T19:18:56Z</time>
      </trkpt>
      <trkpt lat="40.990139" lon="-3.246076">
        <ele>1100.055</ele>
        <time>2016-07-20T19:18:57Z</time>
      </trkpt>
      <trkpt lat="40.990185" lon="-3.246309">
        <ele>1100.307</ele>
        <time>2016-07-20T19:18:58Z</time>
      </trkpt>
      <trkpt lat="40.990232" lon="-3.246547">
        <ele>1100.517</ele>
        <time>2016-07-20T19:18:59Z</time>
      </trkpt>
      <trkpt lat="40.990290" lon="-3.246777">
        <ele>1100.808</ele>
        <time>2016-07-20T19:19:00Z</time>
      </trkpt>
      <trkpt lat="40.990359" lon="-3.246999">
        <ele>1101.646</ele>
        <time>2016-07-20T19:19:01Z</time>
      </trkpt>
      <trkpt lat="40.990441" lon="-3.247216">
        <ele>1102.469</ele>
        <time>2016-07-20T19:19:02Z</time>
      </trkpt>
      <trkpt lat="40.990538" lon="-3.247428">
        <ele>1102.895</ele>
        <time>2016-07-20T19:19:03Z</time>
      </trkpt>
      <trkpt lat="40.990648" lon="-3.247598">
        <ele>1103.391</ele>
        <time>2016-07-20T19:19:04Z</time>
      </trkpt>
      <trkpt lat="40.990783" lon="-3.247764">
        <ele>1103.486</ele>
        <time>2016-07-20T19:19:05Z</time>
      </trkpt>
      <trkpt lat="40.990917" lon="-3.247906">
        <ele>1104.169</ele>
        <time>2016-07-20T19:19:06Z</time>
      </trkpt>
      <trkpt lat="40.991071" lon="-3.248033">
        <ele>1104.979</ele>
        <time>2016-07-20T19:19:07Z</time>
      </trkpt>
      <trkpt lat="40.991244" lon="-3.248145">
        <ele>1104.897</ele>
        <time>2016-07-20T19:19:08Z</time>
      </trkpt>
      <trkpt lat="40.991419" lon="-3.248233">
        <ele>1104.163</ele>
        <time>2016-07-20T19:19:09Z</time>
      </trkpt>
      <trkpt lat="40.991594" lon="-3.248291">
        <ele>1103.344</ele>
        <time>2016-07-20T19:19:10Z</time>
      </trkpt>
      <trkpt lat="40.991775" lon="-3.248323">
        <ele>1102.218</ele>
        <time>2016-07-20T19:19:11Z</time>
      </trkpt>
      <trkpt lat="40.991960" lon="-3.248323">
        <ele>1101.108</ele>
        <time>2016-07-20T19:19:12Z</time>
      </trkpt>
      <trkpt lat="40.992152" lon="-3.248304">
        <ele>1100.327</ele>
        <time>2016-07-20T19:19:13Z</time>
      </trkpt>
      <trkpt lat="40.992340" lon="-3.248278">
        <ele>1099.670</ele>
        <time>2016-07-20T19:19:14Z</time>
      </trkpt>
      <trkpt lat="40.992525" lon="-3.248249">
        <ele>1099.016</ele>
        <time>2016-07-20T19:19:15Z</time>
      </trkpt>
      <trkpt lat="40.992720" lon="-3.248221">
        <ele>1098.352</ele>
        <time>2016-07-20T19:19:16Z</time>
      </trkpt>
      <trkpt lat="40.992914" lon="-3.248189">
        <ele>1098.067</ele>
        <time>2016-07-20T19:19:17Z</time>
      </trkpt>
      <trkpt lat="40.993117" lon="-3.248160">
        <ele>1097.380</ele>
        <time>2016-07-20T19:19:18Z</time>
      </trkpt>
      <trkpt lat="40.993320" lon="-3.248130">
        <ele>1096.650</ele>
        <time>2016-07-20T19:19:19Z</time>
      </trkpt>
      <trkpt lat="40.993523" lon="-3.248099">
        <ele>1096.198</ele>
        <time>2016-07-20T19:19:20Z</time>
      </trkpt>
      <trkpt lat="40.993726" lon="-3.248066">
        <ele>1095.552</ele>
        <time>2016-07-20T19:19:21Z</time>
      </trkpt>
      <trkpt lat="40.993924" lon="-3.248030">
        <ele>1095.453</ele>
        <time>2016-07-20T19:19:22Z</time>
      </trkpt>
      <trkpt lat="40.994130" lon="-3.247995">
        <ele>1095.208</ele>
        <time>2016-07-20T19:19:23Z</time>
      </trkpt>
      <trkpt lat="40.994330" lon="-3.247963">
        <ele>1094.708</ele>
        <time>2016-07-20T19:19:24Z</time>
      </trkpt>
      <trkpt lat="40.994529" lon="-3.247932">
        <ele>1094.296</ele>
        <time>2016-07-20T19:19:25Z</time>
      </trkpt>
      <trkpt lat="40.994723" lon="-3.247901">
        <ele>1093.829</ele>
        <time>2016-07-20T19:19:26Z</time>
      </trkpt>
      <trkpt lat="40.994914" lon="-3.247870">
        <ele>1093.215</ele>
        <time>2016-07-20T19:19:27Z</time>
      </trkpt>
      <trkpt lat="40.995106" lon="-3.247838">
        <ele>1092.951</ele>
        <time>2016-07-20T19:19:28Z</time>
      </trkpt>
      <trkpt lat="40.995292" lon="-3.247802">
        <ele>1092.836</ele>
        <time>2016-07-20T19:19:29Z</time>
      </trkpt>
      <trkpt lat="40.995480" lon="-3.247767">
        <ele>1092.939</ele>
        <time>2016-07-20T19:19:30Z</time>
      </trkpt>
      <trkpt lat="40.995669" lon="-3.247735">
        <ele>1092.989</ele>
        <time>2016-07-20T19:19:31Z</time>
      </trkpt>
      <trkpt lat="40.995853" lon="-3.247702">
        <ele>1092.837</ele>
        <time>2016-07-20T19:19:33Z</time>
      </trkpt>
      <trkpt lat="40.996036" lon="-3.247671">
        <ele>1092.685</ele>
        <time>2016-07-20T19:19:34Z</time>
      </trkpt>
      <trkpt lat="40.996216" lon="-3.247641">
        <ele>1092.589</ele>
        <time>2016-07-20T19:19:35Z</time>
      </trkpt>
      <trkpt lat="40.996394" lon="-3.247618">
        <ele>1092.517</ele>
        <time>2016-07-20T19:19:36Z</time>
      </trkpt>
      <trkpt lat="40.996571" lon="-3.247608">
        <ele>1092.308</ele>
        <time>2016-07-20T19:19:37Z</time>
      </trkpt>
      <trkpt lat="40.996741" lon="-3.247606">
        <ele>1092.299</ele>
        <time>2016-07-20T19:19:38Z</time>
      </trkpt>
      <trkpt lat="40.996910" lon="-3.247617">
        <ele>1092.392</ele>
        <time>2016-07-20T19:19:39Z</time>
      </trkpt>
      <trkpt lat="40.997077" lon="-3.247633">
        <ele>1092.698</ele>
        <time>2016-07-20T19:19:40Z</time>
      </trkpt>
      <trkpt lat="40.997248" lon="-3.247654">
        <ele>1092.694</ele>
        <time>2016-07-20T19:19:41Z</time>
      </trkpt>
      <trkpt lat="40.997416" lon="-3.247675">
        <ele>1092.739</ele>
        <time>2016-07-20T19:19:42Z</time>
      </trkpt>
      <trkpt lat="40.997575" lon="-3.247693">
        <ele>1092.622</ele>
        <time>2016-07-20T19:19:43Z</time>
      </trkpt>
      <trkpt lat="40.997739" lon="-3.247713">
        <ele>1092.742</ele>
        <time>2016-07-20T19:19:44Z</time>
      </trkpt>
      <trkpt lat="40.997895" lon="-3.247733">
        <ele>1092.240</ele>
        <time>2016-07-20T19:19:45Z</time>
      </trkpt>
      <trkpt lat="40.998037" lon="-3.247755">
        <ele>1091.552</ele>
        <time>2016-07-20T19:19:46Z</time>
      </trkpt>
      <trkpt lat="40.998162" lon="-3.247772">
        <ele>1091.153</ele>
        <time>2016-07-20T19:19:47Z</time>
      </trkpt>
      <trkpt lat="40.998283" lon="-3.247789">
        <ele>1090.908</ele>
        <time>2016-07-20T19:19:48Z</time>
      </trkpt>
      <trkpt lat="40.998396" lon="-3.247803">
        <ele>1090.808</ele>
        <time>2016-07-20T19:19:49Z</time>
      </trkpt>
      <trkpt lat="40.998508" lon="-3.247820">
        <ele>1090.256</ele>
        <time>2016-07-20T19:19:50Z</time>
      </trkpt>
      <trkpt lat="40.998609" lon="-3.247840">
        <ele>1089.499</ele>
        <time>2016-07-20T19:19:51Z</time>
      </trkpt>
      <trkpt lat="40.998772" lon="-3.247868">
        <ele>1088.355</ele>
        <time>2016-07-20T19:19:53Z</time>
      </trkpt>
      <trkpt lat="40.998917" lon="-3.247889">
        <ele>1087.471</ele>
        <time>2016-07-20T19:19:55Z</time>
      </trkpt>
      <trkpt lat="40.999046" lon="-3.247908">
        <ele>1087.066</ele>
        <time>2016-07-20T19:19:57Z</time>
      </trkpt>
      <trkpt lat="40.999137" lon="-3.247921">
        <ele>1087.059</ele>
        <time>2016-07-20T19:19:59Z</time>
      </trkpt>
      <trkpt lat="40.999257" lon="-3.247932">
        <ele>1087.249</ele>
        <time>2016-07-20T19:20:03Z</time>
      </trkpt>
      <trkpt lat="40.999348" lon="-3.247947">
        <ele>1087.327</ele>
        <time>2016-07-20T19:20:05Z</time>
      </trkpt>
      <trkpt lat="40.999468" lon="-3.247962">
        <ele>1087.232</ele>
        <time>2016-07-20T19:20:07Z</time>
      </trkpt>
      <trkpt lat="40.999614" lon="-3.247983">
        <ele>1087.392</ele>
        <time>2016-07-20T19:20:09Z</time>
      </trkpt>
      <trkpt lat="40.999753" lon="-3.248003">
        <ele>1087.511</ele>
        <time>2016-07-20T19:20:11Z</time>
      </trkpt>
      <trkpt lat="40.999865" lon="-3.248017">
        <ele>1087.908</ele>
        <time>2016-07-20T19:20:13Z</time>
      </trkpt>
      <trkpt lat="40.999947" lon="-3.248087">
        <ele>1087.984</ele>
        <time>2016-07-20T19:20:16Z</time>
      </trkpt>
      <trkpt lat="41.00289100" lon="-3.24889900">
        <ele>1029.0000</ele>
        <time>2010-01-01T00:00:00Z</time>
      </trkpt>
      <trkpt lat="41.00288100" lon="-3.24889800">
        <ele>1029.0000</ele>
        <time>2010-01-01T00:00:00Z</time>
      </trkpt>
      <trkpt lat="41.00290200" lon="-3.24881500">
        <ele>1030.0000</ele>
        <time>2010-01-01T00:00:03Z</time>
      </trkpt>
      <trkpt lat="41.00283100" lon="-3.24860200">
        <ele>1030.0000</ele>
        <time>2010-01-01T00:00:10Z</time>
      </trkpt>
      <trkpt lat="41.00266500" lon="-3.24839100">
        <ele>1030.0000</ele>
        <time>2010-01-01T00:00:19Z</time>
      </trkpt>
      <trkpt lat="41.00255100" lon="-3.24826100">
        <ele>1030.0000</ele>
        <time>2010-01-01T00:00:25Z</time>
      </trkpt>
      <trkpt lat="41.00243200" lon="-3.24820200">
        <ele>1030.0000</ele>
        <time>2010-01-01T00:00:30Z</time>
      </trkpt>
      <trkpt lat="41.00195700" lon="-3.24821100">
        <ele>1029.0000</ele>
        <time>2010-01-01T00:00:49Z</time>
      </trkpt>
      <trkpt lat="41.00144300" lon="-3.24824000">
        <ele>1032.0000</ele>
        <time>2010-01-01T00:01:10Z</time>
      </trkpt>
      <trkpt lat="41.00118200" lon="-3.24821500">
        <ele>1033.0000</ele>
        <time>2010-01-01T00:01:20Z</time>
      </trkpt>
      <trkpt lat="41.00069900" lon="-3.24816100">
        <ele>1034.0000</ele>
        <time>2010-01-01T00:01:39Z</time>
      </trkpt>
      <trkpt lat="41.00050400" lon="-3.24810500">
        <ele>1034.0000</ele>
        <time>2010-01-01T00:01:47Z</time>
      </trkpt>
      <trkpt lat="41.00051300" lon="-3.24799600">
        <ele>1033.0000</ele>
        <time>2010-01-01T00:01:51Z</time>
      </trkpt>
      <trkpt lat="41.00051200" lon="-3.24799200">
        <ele>1033.0000</ele>
        <time>2010-01-01T00:01:51Z</time>
      </trkpt>
      <trkpt lat="41.00053800" lon="-3.24767300">
        <ele>1030.0000</ele>
        <time>2010-01-01T00:02:01Z</time>
      </trkpt>
      <trkpt lat="41.00055100" lon="-3.24751400">
        <ele>1029.0000</ele>
        <time>2010-01-01T00:02:05Z</time>
      </trkpt>
      <trkpt lat="41.00058600" lon="-3.24641700">
        <ele>1030.0000</ele>
        <time>2010-01-01T00:02:39Z</time>
      </trkpt>
      <trkpt lat="41.00067300" lon="-3.24499700">
        <ele>1032.0000</ele>
        <time>2010-01-01T00:03:22Z</time>
      </trkpt>
      <trkpt lat="41.00076900" lon="-3.24378400">
        <ele>1031.0000</ele>
        <time>2010-01-01T00:03:58Z</time>
      </trkpt>
      <trkpt lat="41.00099200" lon="-3.24183300">
        <ele>1034.0000</ele>
        <time>2010-01-01T00:04:58Z</time>
      </trkpt>
      <trkpt lat="41.00095800" lon="-3.24125500">
        <ele>1035.0000</ele>
        <time>2010-01-01T00:05:16Z</time>
      </trkpt>
      <trkpt lat="41.00077600" lon="-3.24065800">
        <ele>1038.0000</ele>
        <time>2010-01-01T00:05:35Z</time>
      </trkpt>
      <trkpt lat="41.00042600" lon="-3.23936500">
        <ele>1034.0000</ele>
        <time>2010-01-01T00:06:16Z</time>
      </trkpt>
      <trkpt lat="41.00022100" lon="-3.23858500">
        <ele>1034.0000</ele>
        <time>2010-01-01T00:06:41Z</time>
      </trkpt>
      <trkpt lat="40.99970200" lon="-3.23665000">
        <ele>1027.0000</ele>
        <time>2010-01-01T00:07:43Z</time>
      </trkpt>
      <trkpt lat="40.99932600" lon="-3.23540200">
        <ele>1027.0000</ele>
        <time>2010-01-01T00:08:24Z</time>
      </trkpt>
      <trkpt lat="40.99883900" lon="-3.23438800">
        <ele>1025.0000</ele>
        <time>2010-01-01T00:09:00Z</time>
      </trkpt>
      <trkpt lat="40.99875400" lon="-3.23421700">
        <ele>1026.0000</ele>
        <time>2010-01-01T00:09:07Z</time>
      </trkpt>
      <trkpt lat="40.99832900" lon="-3.23335100">
        <ele>1020.0000</ele>
        <time>2010-01-01T00:09:38Z</time>
      </trkpt>
      <trkpt lat="40.99824400" lon="-3.23318200">
        <ele>1019.0000</ele>
        <time>2010-01-01T00:09:44Z</time>
      </trkpt>
      <trkpt lat="40.99782800" lon="-3.23231600">
        <ele>1019.0000</ele>
        <time>2010-01-01T00:10:15Z</time>
      </trkpt>
      <trkpt lat="40.99748100" lon="-3.23160900">
        <ele>1016.0000</ele>
        <time>2010-01-01T00:10:40Z</time>
      </trkpt>
      <trkpt lat="40.99674000" lon="-3.23008200">
        <ele>1012.0000</ele>
        <time>2010-01-01T00:11:35Z</time>
      </trkpt>
      <trkpt lat="40.99563800" lon="-3.22781400">
        <ele>1012.0000</ele>
        <time>2010-01-01T00:12:57Z</time>
      </trkpt>
      <trkpt lat="40.99480500" lon="-3.22634400">
        <ele>1011.0000</ele>
        <time>2010-01-01T00:13:52Z</time>
      </trkpt>
      <trkpt lat="40.99374400" lon="-3.22474900">
        <ele>1007.0000</ele>
        <time>2010-01-01T00:14:57Z</time>
      </trkpt>
      <trkpt lat="40.99329800" lon="-3.22355700">
        <ele>1007.0000</ele>
        <time>2010-01-01T00:15:37Z</time>
      </trkpt>
      <trkpt lat="40.99253300" lon="-3.22145800">
        <ele>1004.0000</ele>
        <time>2010-01-01T00:16:47Z</time>
      </trkpt>
      <trkpt lat="40.99201400" lon="-3.22004900">
        <ele>1003.0000</ele>
        <time>2010-01-01T00:17:35Z</time>
      </trkpt>
      <trkpt lat="40.99173300" lon="-3.21907300">
        <ele>1003.0000</ele>
        <time>2010-01-01T00:18:06Z</time>
      </trkpt>
      <trkpt lat="40.99143800" lon="-3.21800500">
        <ele>998.00000</ele>
        <time>2010-01-01T00:18:40Z</time>
      </trkpt>
      <trkpt lat="40.99115700" lon="-3.21753700">
        <ele>998.00000</ele>
        <time>2010-01-01T00:18:59Z</time>
      </trkpt>
      <trkpt lat="40.99084200" lon="-3.21728400">
        <ele>999.00000</ele>
        <time>2010-01-01T00:19:13Z</time>
      </trkpt>
      <trkpt lat="40.99026500" lon="-3.21685800">
        <ele>996.00000</ele>
        <time>2010-01-01T00:19:40Z</time>
      </trkpt>
      <trkpt lat="40.99003100" lon="-3.21656300">
        <ele>993.00000</ele>
        <time>2010-01-01T00:19:53Z</time>
      </trkpt>
      <trkpt lat="40.98988700" lon="-3.21592300">
        <ele>989.00000</ele>
        <time>2010-01-01T00:20:13Z</time>
      </trkpt>
      <trkpt lat="40.98996200" lon="-3.21535200">
        <ele>987.00000</ele>
        <time>2010-01-01T00:20:30Z</time>
      </trkpt>
      <trkpt lat="40.99000900" lon="-3.21452400">
        <ele>985.00000</ele>
        <time>2010-01-01T00:20:55Z</time>
      </trkpt>
      <trkpt lat="40.98990200" lon="-3.21398700">
        <ele>979.00000</ele>
        <time>2010-01-01T00:21:12Z</time>
      </trkpt>
      <trkpt lat="40.98966500" lon="-3.21356900">
        <ele>973.00000</ele>
        <time>2010-01-01T00:21:28Z</time>
      </trkpt>
      <trkpt lat="40.98924400" lon="-3.21323300">
        <ele>968.00000</ele>
        <time>2010-01-01T00:21:48Z</time>
      </trkpt>
      <trkpt lat="40.98916300" lon="-3.21316300">
        <ele>967.00000</ele>
        <time>2010-01-01T00:21:52Z</time>
      </trkpt>
      <trkpt lat="40.98902600" lon="-3.21270800">
        <ele>964.00000</ele>
        <time>2010-01-01T00:22:06Z</time>
      </trkpt>
      <trkpt lat="40.98905100" lon="-3.21257100">
        <ele>964.00000</ele>
        <time>2010-01-01T00:22:11Z</time>
      </trkpt>
      <trkpt lat="40.98908400" lon="-3.21243400">
        <ele>964.00000</ele>
        <time>2010-01-01T00:22:15Z</time>
      </trkpt>
      <trkpt lat="40.98934700" lon="-3.21157100">
        <ele>959.00000</ele>
        <time>2010-01-01T00:22:43Z</time>
      </trkpt>
      <trkpt lat="40.98956200" lon="-3.21110100">
        <ele>952.00000</ele>
        <time>2010-01-01T00:23:00Z</time>
      </trkpt>
      <trkpt lat="40.98960700" lon="-3.21097800">
        <ele>950.00000</ele>
        <time>2010-01-01T00:23:04Z</time>
      </trkpt>
      <trkpt lat="40.98987300" lon="-3.21069900">
        <ele>947.00000</ele>
        <time>2010-01-01T00:23:17Z</time>
      </trkpt>
      <trkpt lat="40.98996200" lon="-3.21071200">
        <ele>948.00000</ele>
        <time>2010-01-01T00:23:21Z</time>
      </trkpt>
      <trkpt lat="40.99057500" lon="-3.21088600">
        <ele>953.00000</ele>
        <time>2010-01-01T00:23:46Z</time>
      </trkpt>
      <trkpt lat="40.99069000" lon="-3.21091300">
        <ele>953.00000</ele>
        <time>2010-01-01T00:23:51Z</time>
      </trkpt>
      <trkpt lat="40.99116500" lon="-3.21144700">
        <ele>951.00000</ele>
        <time>2010-01-01T00:24:16Z</time>
      </trkpt>
      <trkpt lat="40.99134400" lon="-3.21170500">
        <ele>951.00000</ele>
        <time>2010-01-01T00:24:26Z</time>
      </trkpt>
      <trkpt lat="40.99165600" lon="-3.21143400">
        <ele>949.00000</ele>
        <time>2010-01-01T00:24:41Z</time>
      </trkpt>
      <trkpt lat="40.99181100" lon="-3.21106700">
        <ele>945.00000</ele>
        <time>2010-01-01T00:24:54Z</time>
      </trkpt>
      <trkpt lat="40.99188600" lon="-3.21082600">
        <ele>941.00000</ele>
        <time>2010-01-01T00:25:02Z</time>
      </trkpt>
      <trkpt lat="40.99192800" lon="-3.21055900">
        <ele>937.00000</ele>
        <time>2010-01-01T00:25:10Z</time>
      </trkpt>
      <trkpt lat="40.99214600" lon="-3.21006100">
        <ele>937.00000</ele>
        <time>2010-01-01T00:25:27Z</time>
      </trkpt>
      <trkpt lat="40.99247800" lon="-3.20964100">
        <ele>936.00000</ele>
        <time>2010-01-01T00:25:46Z</time>
      </trkpt>
      <trkpt lat="40.99295300" lon="-3.20928400">
        <ele>932.00000</ele>
        <time>2010-01-01T00:26:08Z</time>
      </trkpt>
      <trkpt lat="40.99304600" lon="-3.20922700">
        <ele>930.00000</ele>
        <time>2010-01-01T00:26:12Z</time>
      </trkpt>
      <trkpt lat="40.99323700" lon="-3.20889100">
        <ele>927.00000</ele>
        <time>2010-01-01T00:26:24Z</time>
      </trkpt>
      <trkpt lat="40.99332000" lon="-3.20861700">
        <ele>924.00000</ele>
        <time>2010-01-01T00:26:33Z</time>
      </trkpt>
      <trkpt lat="40.99359100" lon="-3.20821500">
        <ele>923.00000</ele>
        <time>2010-01-01T00:26:50Z</time>
      </trkpt>
      <trkpt lat="40.99376300" lon="-3.20810300">
        <ele>924.00000</ele>
        <time>2010-01-01T00:26:57Z</time>
      </trkpt>
      <trkpt lat="40.99384200" lon="-3.20804700">
        <ele>924.00000</ele>
        <time>2010-01-01T00:27:01Z</time>
      </trkpt>
      <trkpt lat="40.99390200" lon="-3.20798000">
        <ele>923.00000</ele>
        <time>2010-01-01T00:27:04Z</time>
      </trkpt>
      <trkpt lat="40.99388000" lon="-3.20771200">
        <ele>918.00000</ele>
        <time>2010-01-01T00:27:12Z</time>
      </trkpt>
      <trkpt lat="40.99334100" lon="-3.20793600">
        <ele>916.00000</ele>
        <time>2010-01-01T00:27:35Z</time>
      </trkpt>
      <trkpt lat="40.99279000" lon="-3.20810700">
        <ele>918.00000</ele>
        <time>2010-01-01T00:27:57Z</time>
      </trkpt>
      <trkpt lat="40.99233300" lon="-3.20797000">
        <ele>915.00000</ele>
        <time>2010-01-01T00:28:16Z</time>
      </trkpt>
      <trkpt lat="40.99202100" lon="-3.20781100">
        <ele>913.00000</ele>
        <time>2010-01-01T00:28:30Z</time>
      </trkpt>
      <trkpt lat="40.99198400" lon="-3.20717400">
        <ele>907.00000</ele>
        <time>2010-01-01T00:28:49Z</time>
      </trkpt>
      <trkpt lat="40.99207400" lon="-3.20691900">
        <ele>905.00000</ele>
        <time>2010-01-01T00:28:57Z</time>
      </trkpt>
      <trkpt lat="40.99218500" lon="-3.20638900">
        <ele>902.00000</ele>
        <time>2010-01-01T00:29:14Z</time>
      </trkpt>
      <trkpt lat="40.99217100" lon="-3.20612300">
        <ele>899.00000</ele>
        <time>2010-01-01T00:29:22Z</time>
      </trkpt>
      <trkpt lat="40.99215500" lon="-3.20599300">
        <ele>897.00000</ele>
        <time>2010-01-01T00:29:26Z</time>
      </trkpt>
      <trkpt lat="40.99182400" lon="-3.20546700">
        <ele>892.00000</ele>
        <time>2010-01-01T00:29:47Z</time>
      </trkpt>
      <trkpt lat="40.99173800" lon="-3.20542200">
        <ele>892.00000</ele>
        <time>2010-01-01T00:29:50Z</time>
      </trkpt>
      <trkpt lat="40.99135500" lon="-3.20524200">
        <ele>890.00000</ele>
        <time>2010-01-01T00:30:07Z</time>
      </trkpt>
      <trkpt lat="40.99083600" lon="-3.20503600">
        <ele>887.00000</ele>
        <time>2010-01-01T00:30:28Z</time>
      </trkpt>
      <trkpt lat="40.99045600" lon="-3.20510900">
        <ele>884.00000</ele>
        <time>2010-01-01T00:30:44Z</time>
      </trkpt>
      <trkpt lat="40.99037100" lon="-3.20517700">
        <ele>882.00000</ele>
        <time>2010-01-01T00:30:48Z</time>
      </trkpt>
      <trkpt lat="40.98995600" lon="-3.20555400">
        <ele>876.00000</ele>
        <time>2010-01-01T00:31:08Z</time>
      </trkpt>
      <trkpt lat="40.98952300" lon="-3.20592800">
        <ele>873.00000</ele>
        <time>2010-01-01T00:31:29Z</time>
      </trkpt>
      <trkpt lat="40.98937900" lon="-3.20598100">
        <ele>870.00000</ele>
        <time>2010-01-01T00:31:35Z</time>
      </trkpt>
      <trkpt lat="40.98922300" lon="-3.20567400">
        <ele>869.00000</ele>
        <time>2010-01-01T00:31:46Z</time>
      </trkpt>
      <trkpt lat="40.98929600" lon="-3.20526200">
        <ele>868.00000</ele>
        <time>2010-01-01T00:31:59Z</time>
      </trkpt>
      <trkpt lat="40.98948900" lon="-3.20477200">
        <ele>865.00000</ele>
        <time>2010-01-01T00:32:15Z</time>
      </trkpt>
      <trkpt lat="40.98952600" lon="-3.20443600">
        <ele>866.00000</ele>
        <time>2010-01-01T00:32:26Z</time>
      </trkpt>
      <trkpt lat="40.98933200" lon="-3.20376400">
        <ele>863.00000</ele>
        <time>2010-01-01T00:32:47Z</time>
      </trkpt>
      <trkpt lat="40.98916300" lon="-3.20264500">
        <ele>860.00000</ele>
        <time>2010-01-01T00:33:22Z</time>
      </trkpt>
      <trkpt lat="40.98910900" lon="-3.20227200">
        <ele>860.00000</ele>
        <time>2010-01-01T00:33:33Z</time>
      </trkpt>
      <trkpt lat="40.98878000" lon="-3.20090600">
        <ele>859.00000</ele>
        <time>2010-01-01T00:34:17Z</time>
      </trkpt>
      <trkpt lat="40.98860300" lon="-3.19982800">
        <ele>858.00000</ele>
        <time>2010-01-01T00:34:50Z</time>
      </trkpt>
      <trkpt lat="40.98882200" lon="-3.19855500">
        <ele>856.00000</ele>
        <time>2010-01-01T00:35:29Z</time>
      </trkpt>
      <trkpt lat="40.98905300" lon="-3.19720400">
        <ele>848.00000</ele>
        <time>2010-01-01T00:36:11Z</time>
      </trkpt>
      <trkpt lat="40.98902200" lon="-3.19644500">
        <ele>853.00000</ele>
        <time>2010-01-01T00:36:34Z</time>
      </trkpt>
      <trkpt lat="40.98899700" lon="-3.19615100">
        <ele>854.00000</ele>
        <time>2010-01-01T00:36:43Z</time>
      </trkpt>
      <trkpt lat="40.98864200" lon="-3.19537300">
        <ele>852.00000</ele>
        <time>2010-01-01T00:37:11Z</time>
      </trkpt>
      <trkpt lat="40.98793200" lon="-3.19483900">
        <ele>858.00000</ele>
        <time>2010-01-01T00:37:43Z</time>
      </trkpt>
      <trkpt lat="40.98773800" lon="-3.19463100">
        <ele>857.00000</ele>
        <time>2010-01-01T00:37:53Z</time>
      </trkpt>
      <trkpt lat="40.98691700" lon="-3.19380300">
        <ele>854.00000</ele>
        <time>2010-01-01T00:38:35Z</time>
      </trkpt>
      <trkpt lat="40.98669200" lon="-3.19332600">
        <ele>848.00000</ele>
        <time>2010-01-01T00:38:52Z</time>
      </trkpt>
      <trkpt lat="40.98671100" lon="-3.19297600">
        <ele>848.00000</ele>
        <time>2010-01-01T00:39:02Z</time>
      </trkpt>
      <trkpt lat="40.98671500" lon="-3.19285600">
        <ele>849.00000</ele>
        <time>2010-01-01T00:39:06Z</time>
      </trkpt>
      <trkpt lat="40.98654700" lon="-3.19208000">
        <ele>855.00000</ele>
        <time>2010-01-01T00:39:30Z</time>
      </trkpt>
      <trkpt lat="40.98596400" lon="-3.19124600">
        <ele>854.00000</ele>
        <time>2010-01-01T00:40:05Z</time>
      </trkpt>
      <trkpt lat="40.98559300" lon="-3.19085600">
        <ele>858.00000</ele>
        <time>2010-01-01T00:40:23Z</time>
      </trkpt>
      <trkpt lat="40.98486100" lon="-3.19050400">
        <ele>852.00000</ele>
        <time>2010-01-01T00:40:55Z</time>
      </trkpt>
      <trkpt lat="40.98328500" lon="-3.19032800">
        <ele>849.00000</ele>
        <time>2010-01-01T00:41:58Z</time>
      </trkpt>
      <trkpt lat="40.98224700" lon="-3.19041800">
        <ele>850.00000</ele>
        <time>2010-01-01T00:42:40Z</time>
      </trkpt>
      <trkpt lat="40.98087100" lon="-3.19098800">
        <ele>845.00000</ele>
        <time>2010-01-01T00:43:37Z</time>
      </trkpt>
      <trkpt lat="40.98011700" lon="-3.19129000">
        <ele>847.00000</ele>
        <time>2010-01-01T00:44:09Z</time>
      </trkpt>
      <trkpt lat="40.97983900" lon="-3.19122700">
        <ele>849.00000</ele>
        <time>2010-01-01T00:44:20Z</time>
      </trkpt>
      <trkpt lat="40.97976800" lon="-3.19080900">
        <ele>854.00000</ele>
        <time>2010-01-01T00:44:33Z</time>
      </trkpt>
      <trkpt lat="40.98005200" lon="-3.19016800">
        <ele>862.00000</ele>
        <time>2010-01-01T00:44:56Z</time>
      </trkpt>
      <trkpt lat="40.98017400" lon="-3.18990700">
        <ele>866.00000</ele>
        <time>2010-01-01T00:45:05Z</time>
      </trkpt>
      <trkpt lat="40.98036700" lon="-3.18921100">
        <ele>867.00000</ele>
        <time>2010-01-01T00:45:27Z</time>
      </trkpt>
      <trkpt lat="40.98046300" lon="-3.18848300">
        <ele>868.00000</ele>
        <time>2010-01-01T00:45:50Z</time>
      </trkpt>
      <trkpt lat="40.98078400" lon="-3.18767000">
        <ele>875.00000</ele>
        <time>2010-01-01T00:46:17Z</time>
      </trkpt>
      <trkpt lat="40.98114900" lon="-3.18662600">
        <ele>878.00000</ele>
        <time>2010-01-01T00:46:52Z</time>
      </trkpt>
      <trkpt lat="40.98131700" lon="-3.18604100">
        <ele>881.00000</ele>
        <time>2010-01-01T00:47:11Z</time>
      </trkpt>
      <trkpt lat="40.98131000" lon="-3.18577100">
        <ele>880.00000</ele>
        <time>2010-01-01T00:47:19Z</time>
      </trkpt>
      <trkpt lat="40.98129500" lon="-3.18493000">
        <ele>885.00000</ele>
        <time>2010-01-01T00:47:45Z</time>
      </trkpt>
      <trkpt lat="40.98140600" lon="-3.18384200">
        <ele>887.00000</ele>
        <time>2010-01-01T00:48:18Z</time>
      </trkpt>
      <trkpt lat="40.98138500" lon="-3.18344100">
        <ele>882.00000</ele>
        <time>2010-01-01T00:48:30Z</time>
      </trkpt>
      <trkpt lat="40.98117700" lon="-3.18295100">
        <ele>880.00000</ele>
        <time>2010-01-01T00:48:47Z</time>
      </trkpt>
      <trkpt lat="40.98114100" lon="-3.18280400">
        <ele>880.00000</ele>
        <time>2010-01-01T00:48:52Z</time>
      </trkpt>
      <trkpt lat="40.98109800" lon="-3.18165400">
        <ele>878.00000</ele>
        <time>2010-01-01T00:49:26Z</time>
      </trkpt>
      <trkpt lat="40.98126700" lon="-3.18032700">
        <ele>885.00000</ele>
        <time>2010-01-01T00:50:07Z</time>
      </trkpt>
      <trkpt lat="40.98135000" lon="-3.17966000">
        <ele>889.00000</ele>
        <time>2010-01-01T00:50:27Z</time>
      </trkpt>
      <trkpt lat="40.98150600" lon="-3.17883900">
        <ele>892.00000</ele>
        <time>2010-01-01T00:50:53Z</time>
      </trkpt>
      <trkpt lat="40.98157800" lon="-3.17838100">
        <ele>895.00000</ele>
        <time>2010-01-01T00:51:07Z</time>
      </trkpt>
      <trkpt lat="40.98163600" lon="-3.17778200">
        <ele>897.00000</ele>
        <time>2010-01-01T00:51:25Z</time>
      </trkpt>
      <trkpt lat="40.98163700" lon="-3.17763300">
        <ele>898.00000</ele>
        <time>2010-01-01T00:51:30Z</time>
      </trkpt>
      <trkpt lat="40.98161400" lon="-3.17683000">
        <ele>903.00000</ele>
        <time>2010-01-01T00:51:54Z</time>
      </trkpt>
      <trkpt lat="40.98161700" lon="-3.17666500">
        <ele>903.00000</ele>
        <time>2010-01-01T00:51:59Z</time>
      </trkpt>
      <trkpt lat="40.98184800" lon="-3.17593100">
        <ele>906.00000</ele>
        <time>2010-01-01T00:52:23Z</time>
      </trkpt>
      <trkpt lat="40.98200300" lon="-3.17569800">
        <ele>907.00000</ele>
        <time>2010-01-01T00:52:33Z</time>
      </trkpt>
      <trkpt lat="40.98234300" lon="-3.17526200">
        <ele>906.00000</ele>
        <time>2010-01-01T00:52:52Z</time>
      </trkpt>
      <trkpt lat="40.98280700" lon="-3.17474200">
        <ele>911.00000</ele>
        <time>2010-01-01T00:53:16Z</time>
      </trkpt>
      <trkpt lat="40.98312300" lon="-3.17451800">
        <ele>914.00000</ele>
        <time>2010-01-01T00:53:30Z</time>
      </trkpt>
      <trkpt lat="40.98354900" lon="-3.17405600">
        <ele>922.00000</ele>
        <time>2010-01-01T00:53:52Z</time>
      </trkpt>
      <trkpt lat="40.98392100" lon="-3.17376900">
        <ele>924.00000</ele>
        <time>2010-01-01T00:54:09Z</time>
      </trkpt>
      <trkpt lat="40.98426900" lon="-3.17368000">
        <ele>923.00000</ele>
        <time>2010-01-01T00:54:24Z</time>
      </trkpt>
      <trkpt lat="40.98475900" lon="-3.17358000">
        <ele>922.00000</ele>
        <time>2010-01-01T00:54:44Z</time>
      </trkpt>
      <trkpt lat="40.98540800" lon="-3.17334400">
        <ele>928.00000</ele>
        <time>2010-01-01T00:55:10Z</time>
      </trkpt>
      <trkpt lat="40.98550800" lon="-3.17328900">
        <ele>928.00000</ele>
        <time>2010-01-01T00:55:15Z</time>
      </trkpt>
      <trkpt lat="40.98580800" lon="-3.17275500">
        <ele>927.00000</ele>
        <time>2010-01-01T00:55:35Z</time>
      </trkpt>
      <trkpt lat="40.98580400" lon="-3.17219900">
        <ele>935.00000</ele>
        <time>2010-01-01T00:55:52Z</time>
      </trkpt>
      <trkpt lat="40.98570400" lon="-3.17146600">
        <ele>949.00000</ele>
        <time>2010-01-01T00:56:14Z</time>
      </trkpt>
      <trkpt lat="40.98555800" lon="-3.17101100">
        <ele>954.00000</ele>
        <time>2010-01-01T00:56:29Z</time>
      </trkpt>
      <trkpt lat="40.98543100" lon="-3.17081400">
        <ele>956.00000</ele>
        <time>2010-01-01T00:56:37Z</time>
      </trkpt>
      <trkpt lat="40.98484900" lon="-3.17037900">
        <ele>958.00000</ele>
        <time>2010-01-01T00:57:04Z</time>
      </trkpt>
      <trkpt lat="40.98443500" lon="-3.17011100">
        <ele>960.00000</ele>
        <time>2010-01-01T00:57:22Z</time>
      </trkpt>
      <trkpt lat="40.98434900" lon="-3.17000600">
        <ele>962.00000</ele>
        <time>2010-01-01T00:57:27Z</time>
      </trkpt>
      <trkpt lat="40.98398300" lon="-3.16961100">
        <ele>968.00000</ele>
        <time>2010-01-01T00:57:46Z</time>
      </trkpt>
      <trkpt lat="40.98367400" lon="-3.16940600">
        <ele>972.00000</ele>
        <time>2010-01-01T00:58:00Z</time>
      </trkpt>
      <trkpt lat="40.98334900" lon="-3.16906700">
        <ele>977.00000</ele>
        <time>2010-01-01T00:58:16Z</time>
      </trkpt>
      <trkpt lat="40.98299300" lon="-3.16834300">
        <ele>975.00000</ele>
        <time>2010-01-01T00:58:42Z</time>
      </trkpt>
      <trkpt lat="40.98288000" lon="-3.16806600">
        <ele>974.00000</ele>
        <time>2010-01-01T00:58:52Z</time>
      </trkpt>
      <trkpt lat="40.98261600" lon="-3.16723300">
        <ele>975.00000</ele>
        <time>2010-01-01T00:59:19Z</time>
      </trkpt>
      <trkpt lat="40.98260700" lon="-3.16690100">
        <ele>978.00000</ele>
        <time>2010-01-01T00:59:29Z</time>
      </trkpt>
      <trkpt lat="40.98262200" lon="-3.16658100">
        <ele>979.00000</ele>
        <time>2010-01-01T00:59:39Z</time>
      </trkpt>
      <trkpt lat="40.98270900" lon="-3.16571100">
        <ele>979.00000</ele>
        <time>2010-01-01T01:00:05Z</time>
      </trkpt>
      <trkpt lat="40.98255000" lon="-3.16459500">
        <ele>984.00000</ele>
        <time>2010-01-01T01:00:40Z</time>
      </trkpt>
      <trkpt lat="40.98243400" lon="-3.16436800">
        <ele>985.00000</ele>
        <time>2010-01-01T01:00:48Z</time>
      </trkpt>
      <trkpt lat="40.98215600" lon="-3.16417600">
        <ele>986.00000</ele>
        <time>2010-01-01T01:01:00Z</time>
      </trkpt>
      <trkpt lat="40.98192800" lon="-3.16411900">
        <ele>988.00000</ele>
        <time>2010-01-01T01:01:10Z</time>
      </trkpt>
      <trkpt lat="40.98180500" lon="-3.16408000">
        <ele>988.00000</ele>
        <time>2010-01-01T01:01:15Z</time>
      </trkpt>
      <trkpt lat="40.98128700" lon="-3.16370200">
        <ele>990.00000</ele>
        <time>2010-01-01T01:01:38Z</time>
      </trkpt>
      <trkpt lat="40.98111000" lon="-3.16301400">
        <ele>994.00000</ele>
        <time>2010-01-01T01:02:00Z</time>
      </trkpt>
      <trkpt lat="40.98112200" lon="-3.16272300">
        <ele>996.00000</ele>
        <time>2010-01-01T01:02:09Z</time>
      </trkpt>
      <trkpt lat="40.98112100" lon="-3.16259300">
        <ele>998.00000</ele>
        <time>2010-01-01T01:02:13Z</time>
      </trkpt>
      <trkpt lat="40.98087500" lon="-3.16197500">
        <ele>1000.0000</ele>
        <time>2010-01-01T01:02:34Z</time>
      </trkpt>
      <trkpt lat="40.98080100" lon="-3.16190500">
        <ele>999.00000</ele>
        <time>2010-01-01T01:02:38Z</time>
      </trkpt>
      <trkpt lat="40.98045400" lon="-3.16157300">
        <ele>1001.0000</ele>
        <time>2010-01-01T01:02:55Z</time>
      </trkpt>
      <trkpt lat="40.98021800" lon="-3.16116500">
        <ele>1004.0000</ele>
        <time>2010-01-01T01:03:11Z</time>
      </trkpt>
      <trkpt lat="40.97998900" lon="-3.16055600">
        <ele>1009.0000</ele>
        <time>2010-01-01T01:03:31Z</time>
      </trkpt>
      <trkpt lat="40.97980100" lon="-3.16020900">
        <ele>1013.0000</ele>
        <time>2010-01-01T01:03:44Z</time>
      </trkpt>
      <trkpt lat="40.97968000" lon="-3.16004700">
        <ele>1015.0000</ele>
        <time>2010-01-01T01:03:51Z</time>
      </trkpt>
      <trkpt lat="40.97945600" lon="-3.15995500">
        <ele>1015.0000</ele>
        <time>2010-01-01T01:04:00Z</time>
      </trkpt>
      <trkpt lat="40.97882800" lon="-3.15979100">
        <ele>1014.0000</ele>
        <time>2010-01-01T01:04:26Z</time>
      </trkpt>
      <trkpt lat="40.97842800" lon="-3.15980000">
        <ele>1017.0000</ele>
        <time>2010-01-01T01:04:42Z</time>
      </trkpt>
      <trkpt lat="40.97788100" lon="-3.16005100">
        <ele>1016.0000</ele>
        <time>2010-01-01T01:05:05Z</time>
      </trkpt>
      <trkpt lat="40.97730800" lon="-3.16024000">
        <ele>1021.0000</ele>
        <time>2010-01-01T01:05:29Z</time>
      </trkpt>
      <trkpt lat="40.97681000" lon="-3.16020900">
        <ele>1025.0000</ele>
        <time>2010-01-01T01:05:49Z</time>
      </trkpt>
      <trkpt lat="40.97653400" lon="-3.15998500">
        <ele>1024.0000</ele>
        <time>2010-01-01T01:06:02Z</time>
      </trkpt>
      <trkpt lat="40.97643200" lon="-3.15974300">
        <ele>1025.0000</ele>
        <time>2010-01-01T01:06:10Z</time>
      </trkpt>
      <trkpt lat="40.97660900" lon="-3.15955100">
        <ele>1029.0000</ele>
        <time>2010-01-01T01:06:19Z</time>
      </trkpt>
      <trkpt lat="40.97723900" lon="-3.15896400">
        <ele>1029.0000</ele>
        <time>2010-01-01T01:06:50Z</time>
      </trkpt>
      <trkpt lat="40.97769700" lon="-3.15826100">
        <ele>1032.0000</ele>
        <time>2010-01-01T01:07:18Z</time>
      </trkpt>
      <trkpt lat="40.97814800" lon="-3.15713500">
        <ele>1037.0000</ele>
        <time>2010-01-01T01:07:57Z</time>
      </trkpt>
      <trkpt lat="40.97864500" lon="-3.15635100">
        <ele>1040.0000</ele>
        <time>2010-01-01T01:08:28Z</time>
      </trkpt>
      <trkpt lat="40.97901200" lon="-3.15618800">
        <ele>1041.0000</ele>
        <time>2010-01-01T01:08:43Z</time>
      </trkpt>
      <trkpt lat="40.97942000" lon="-3.15662400">
        <ele>1040.0000</ele>
        <time>2010-01-01T01:09:04Z</time>
      </trkpt>
      <trkpt lat="40.97949900" lon="-3.15691000">
        <ele>1040.0000</ele>
        <time>2010-01-01T01:09:13Z</time>
      </trkpt>
      <trkpt lat="40.97966600" lon="-3.15719100">
        <ele>1039.0000</ele>
        <time>2010-01-01T01:09:24Z</time>
      </trkpt>
      <trkpt lat="40.97994000" lon="-3.15733100">
        <ele>1039.0000</ele>
        <time>2010-01-01T01:09:36Z</time>
      </trkpt>
      <trkpt lat="40.98008500" lon="-3.15744100">
        <ele>1039.0000</ele>
        <time>2010-01-01T01:09:43Z</time>
      </trkpt>
      <trkpt lat="40.98046200" lon="-3.15766200">
        <ele>1041.0000</ele>
        <time>2010-01-01T01:09:59Z</time>
      </trkpt>
      <trkpt lat="40.98057700" lon="-3.15773700">
        <ele>1041.0000</ele>
        <time>2010-01-01T01:10:04Z</time>
      </trkpt>
      <trkpt lat="40.98084200" lon="-3.15792400">
        <ele>1041.0000</ele>
        <time>2010-01-01T01:10:16Z</time>
      </trkpt>
      <trkpt lat="40.98130800" lon="-3.15809000">
        <ele>1039.0000</ele>
        <time>2010-01-01T01:10:36Z</time>
      </trkpt>
      <trkpt lat="40.98187500" lon="-3.15797300">
        <ele>1043.0000</ele>
        <time>2010-01-01T01:10:58Z</time>
      </trkpt>
      <trkpt lat="40.98243800" lon="-3.15767900">
        <ele>1046.0000</ele>
        <time>2010-01-01T01:11:23Z</time>
      </trkpt>
      <trkpt lat="40.98285200" lon="-3.15732300">
        <ele>1050.0000</ele>
        <time>2010-01-01T01:11:42Z</time>
      </trkpt>
      <trkpt lat="40.98303300" lon="-3.15718700">
        <ele>1051.0000</ele>
        <time>2010-01-01T01:11:51Z</time>
      </trkpt>
      <trkpt lat="40.98324000" lon="-3.15707000">
        <ele>1049.0000</ele>
        <time>2010-01-01T01:12:00Z</time>
      </trkpt>
      <trkpt lat="40.98336000" lon="-3.15702600">
        <ele>1048.0000</ele>
        <time>2010-01-01T01:12:05Z</time>
      </trkpt>
      <trkpt lat="40.98347100" lon="-3.15682100">
        <ele>1050.0000</ele>
        <time>2010-01-01T01:12:12Z</time>
      </trkpt>
      <trkpt lat="40.98346600" lon="-3.15669800">
        <ele>1052.0000</ele>
        <time>2010-01-01T01:12:16Z</time>
      </trkpt>
      <trkpt lat="40.98346700" lon="-3.15669700">
        <ele>1052.0000</ele>
        <time>2010-01-01T01:12:16Z</time>
      </trkpt>
      <trkpt lat="40.98354700" lon="-3.15670900">
        <ele>1051.0000</ele>
        <time>2010-01-01T01:12:19Z</time>
      </trkpt>
      <trkpt lat="40.98353300" lon="-3.15685700">
        <ele>1048.0000</ele>
        <time>2010-01-01T01:12:24Z</time>
      </trkpt>
      <trkpt lat="40.98353600" lon="-3.15689300">
        <ele>1048.0000</ele>
        <time>2010-01-01T01:12:25Z</time>
      </trkpt>
      <trkpt lat="40.98352000" lon="-3.15698800">
        <ele>1046.0000</ele>
        <time>2010-01-01T01:12:28Z</time>
      </trkpt>
      <trkpt lat="40.98350900" lon="-3.15700500">
        <ele>1046.0000</ele>
        <time>2010-01-01T01:12:29Z</time>
      </trkpt>
      <trkpt lat="40.98340200" lon="-3.15712900">
        <ele>1046.0000</ele>
        <time>2010-01-01T01:12:34Z</time>
      </trkpt>
      <trkpt lat="40.98339500" lon="-3.15715400">
        <ele>1046.0000</ele>
        <time>2010-01-01T01:12:35Z</time>
      </trkpt>
      <trkpt lat="40.98332500" lon="-3.15719500">
        <ele>1046.0000</ele>
        <time>2010-01-01T01:12:38Z</time>
      </trkpt>
      <trkpt lat="40.98328000" lon="-3.15721300">
        <ele>1047.0000</ele>
        <time>2010-01-01T01:12:40Z</time>
      </trkpt>
      <trkpt lat="40.98324400" lon="-3.15735600">
        <ele>1045.0000</ele>
        <time>2010-01-01T01:12:45Z</time>
      </trkpt>
      <trkpt lat="40.98323300" lon="-3.15746700">
        <ele>1043.0000</ele>
        <time>2010-01-01T01:12:48Z</time>
      </trkpt>
      <trkpt lat="40.98313900" lon="-3.15753100">
        <ele>1043.0000</ele>
        <time>2010-01-01T01:12:52Z</time>
      </trkpt>
      <trkpt lat="40.98313400" lon="-3.15754100">
        <ele>1043.0000</ele>
        <time>2010-01-01T01:12:53Z</time>
      </trkpt>
      <trkpt lat="40.98300200" lon="-3.15767200">
        <ele>1042.0000</ele>
        <time>2010-01-01T01:12:59Z</time>
      </trkpt>
      <trkpt lat="40.98286600" lon="-3.15774800">
        <ele>1043.0000</ele>
        <time>2010-01-01T01:13:05Z</time>
      </trkpt>
      <trkpt lat="40.98279000" lon="-3.15776000">
        <ele>1044.0000</ele>
        <time>2010-01-01T01:13:08Z</time>
      </trkpt>
      <trkpt lat="40.98277100" lon="-3.15778600">
        <ele>1043.0000</ele>
        <time>2010-01-01T01:13:09Z</time>
      </trkpt>
      <trkpt lat="40.98273700" lon="-3.15784100">
        <ele>1043.0000</ele>
        <time>2010-01-01T01:13:11Z</time>
      </trkpt>
      <trkpt lat="40.98269500" lon="-3.15787200">
        <ele>1042.0000</ele>
        <time>2010-01-01T01:13:13Z</time>
      </trkpt>
      <trkpt lat="40.98266400" lon="-3.15790300">
        <ele>1042.0000</ele>
        <time>2010-01-01T01:13:15Z</time>
      </trkpt>
      <trkpt lat="40.98260900" lon="-3.15794100">
        <ele>1042.0000</ele>
        <time>2010-01-01T01:13:17Z</time>
      </trkpt>
      <trkpt lat="40.98258500" lon="-3.15799100">
        <ele>1041.0000</ele>
        <time>2010-01-01T01:13:19Z</time>
      </trkpt>
      <trkpt lat="40.98256500" lon="-3.15804300">
        <ele>1040.0000</ele>
        <time>2010-01-01T01:13:21Z</time>
      </trkpt>
      <trkpt lat="40.98253200" lon="-3.15814000">
        <ele>1039.0000</ele>
        <time>2010-01-01T01:13:24Z</time>
      </trkpt>
      <trkpt lat="40.98250800" lon="-3.15823200">
        <ele>1038.0000</ele>
        <time>2010-01-01T01:13:27Z</time>
      </trkpt>
      <trkpt lat="40.98240800" lon="-3.15839300">
        <ele>1036.0000</ele>
        <time>2010-01-01T01:13:33Z</time>
      </trkpt>
      <trkpt lat="40.98233300" lon="-3.15840200">
        <ele>1036.0000</ele>
        <time>2010-01-01T01:13:36Z</time>
      </trkpt>
      <trkpt lat="40.98220000" lon="-3.15840200">
        <ele>1036.0000</ele>
        <time>2010-01-01T01:13:42Z</time>
      </trkpt>
      <trkpt lat="40.98213700" lon="-3.15840400">
        <ele>1036.0000</ele>
        <time>2010-01-01T01:13:44Z</time>
      </trkpt>
      <trkpt lat="40.98211200" lon="-3.15843500">
        <ele>1035.0000</ele>
        <time>2010-01-01T01:13:46Z</time>
      </trkpt>
      <trkpt lat="40.98202600" lon="-3.15853100">
        <ele>1033.0000</ele>
        <time>2010-01-01T01:13:50Z</time>
      </trkpt>
      <trkpt lat="40.98194100" lon="-3.15864300">
        <ele>1031.0000</ele>
        <time>2010-01-01T01:13:55Z</time>
      </trkpt>
      <trkpt lat="40.98190500" lon="-3.15867100">
        <ele>1031.0000</ele>
        <time>2010-01-01T01:13:57Z</time>
      </trkpt>
      <trkpt lat="40.98188500" lon="-3.15867600">
        <ele>1031.0000</ele>
        <time>2010-01-01T01:13:57Z</time>
      </trkpt>
      <trkpt lat="40.98186000" lon="-3.15867100">
        <ele>1031.0000</ele>
        <time>2010-01-01T01:13:58Z</time>
      </trkpt>
      <trkpt lat="40.98178200" lon="-3.15868400">
        <ele>1031.0000</ele>
        <time>2010-01-01T01:14:02Z</time>
      </trkpt>
      <trkpt lat="40.98177400" lon="-3.15869000">
        <ele>1031.0000</ele>
        <time>2010-01-01T01:14:02Z</time>
      </trkpt>
      <trkpt lat="40.98165300" lon="-3.15862000">
        <ele>1032.0000</ele>
        <time>2010-01-01T01:14:07Z</time>
      </trkpt>
      <trkpt lat="40.98161100" lon="-3.15862500">
        <ele>1032.0000</ele>
        <time>2010-01-01T01:14:09Z</time>
      </trkpt>
      <trkpt lat="40.98158200" lon="-3.15864000">
        <ele>1032.0000</ele>
        <time>2010-01-01T01:14:10Z</time>
      </trkpt>
      <trkpt lat="40.98148900" lon="-3.15868400">
        <ele>1031.0000</ele>
        <time>2010-01-01T01:14:14Z</time>
      </trkpt>
      <trkpt lat="40.98142000" lon="-3.15874500">
        <ele>1030.0000</ele>
        <time>2010-01-01T01:14:17Z</time>
      </trkpt>
      <trkpt lat="40.98141100" lon="-3.15875100">
        <ele>1030.0000</ele>
        <time>2010-01-01T01:14:18Z</time>
      </trkpt>
      <trkpt lat="40.98136800" lon="-3.15879100">
        <ele>1029.0000</ele>
        <time>2010-01-01T01:14:20Z</time>
      </trkpt>
      <trkpt lat="40.98134500" lon="-3.15883500">
        <ele>1029.0000</ele>
        <time>2010-01-01T01:14:22Z</time>
      </trkpt>
      <trkpt lat="40.98139500" lon="-3.15894100">
        <ele>1027.0000</ele>
        <time>2010-01-01T01:14:25Z</time>
      </trkpt>
      <trkpt lat="40.98144200" lon="-3.15904900">
        <ele>1025.0000</ele>
        <time>2010-01-01T01:14:29Z</time>
      </trkpt>
      <trkpt lat="40.98136600" lon="-3.15907100">
        <ele>1025.0000</ele>
        <time>2010-01-01T01:14:32Z</time>
      </trkpt>
      <trkpt lat="40.98132500" lon="-3.15897700">
        <ele>1027.0000</ele>
        <time>2010-01-01T01:14:36Z</time>
      </trkpt>
      <trkpt lat="40.98134200" lon="-3.15895700">
        <ele>1027.0000</ele>
        <time>2010-01-01T01:14:36Z</time>
      </trkpt>
      <trkpt lat="40.98137000" lon="-3.15894500">
        <ele>1027.0000</ele>
        <time>2010-01-01T01:14:38Z</time>
      </trkpt>
      <trkpt lat="40.98141900" lon="-3.15891900">
        <ele>1027.0000</ele>
        <time>2010-01-01T01:14:40Z</time>
      </trkpt>
      <trkpt lat="40.98146700" lon="-3.15890400">
        <ele>1028.0000</ele>
        <time>2010-01-01T01:14:42Z</time>
      </trkpt>
      <trkpt lat="40.98150200" lon="-3.15889000">
        <ele>1028.0000</ele>
        <time>2010-01-01T01:14:43Z</time>
      </trkpt>
      <trkpt lat="40.98157200" lon="-3.15886200">
        <ele>1029.0000</ele>
        <time>2010-01-01T01:14:46Z</time>
      </trkpt>
      <trkpt lat="40.98162100" lon="-3.15883600">
        <ele>1029.0000</ele>
        <time>2010-01-01T01:14:48Z</time>
      </trkpt>
      <trkpt lat="40.98165000" lon="-3.15881200">
        <ele>1030.0000</ele>
        <time>2010-01-01T01:14:50Z</time>
      </trkpt>
      <trkpt lat="40.98173300" lon="-3.15881300">
        <ele>1030.0000</ele>
        <time>2010-01-01T01:14:53Z</time>
      </trkpt>
      <trkpt lat="40.98173600" lon="-3.15884600">
        <ele>1029.0000</ele>
        <time>2010-01-01T01:14:54Z</time>
      </trkpt>
      <trkpt lat="40.98176100" lon="-3.15883400">
        <ele>1029.0000</ele>
        <time>2010-01-01T01:14:55Z</time>
      </trkpt>
      <trkpt lat="40.98183000" lon="-3.15882000">
        <ele>1029.0000</ele>
        <time>2010-01-01T01:14:58Z</time>
      </trkpt>
      <trkpt lat="40.98192400" lon="-3.15883400">
        <ele>1029.0000</ele>
        <time>2010-01-01T01:15:02Z</time>
      </trkpt>
      <trkpt lat="40.98201700" lon="-3.15878300">
        <ele>1029.0000</ele>
        <time>2010-01-01T01:15:06Z</time>
      </trkpt>
      <trkpt lat="40.98202400" lon="-3.15877800">
        <ele>1030.0000</ele>
        <time>2010-01-01T01:15:06Z</time>
      </trkpt>
      <trkpt lat="40.98210300" lon="-3.15877300">
        <ele>1029.0000</ele>
        <time>2010-01-01T01:15:09Z</time>
      </trkpt>
      <trkpt lat="40.98214800" lon="-3.15878800">
        <ele>1029.0000</ele>
        <time>2010-01-01T01:15:11Z</time>
      </trkpt>
      <trkpt lat="40.98222300" lon="-3.15880300">
        <ele>1029.0000</ele>
        <time>2010-01-01T01:15:14Z</time>
      </trkpt>
      <trkpt lat="40.98228500" lon="-3.15878100">
        <ele>1029.0000</ele>
        <time>2010-01-01T01:15:17Z</time>
      </trkpt>
      <trkpt lat="40.98234100" lon="-3.15877400">
        <ele>1029.0000</ele>
        <time>2010-01-01T01:15:19Z</time>
      </trkpt>
      <trkpt lat="40.98235900" lon="-3.15872600">
        <ele>1030.0000</ele>
        <time>2010-01-01T01:15:20Z</time>
      </trkpt>
      <trkpt lat="40.98237700" lon="-3.15870700">
        <ele>1030.0000</ele>
        <time>2010-01-01T01:15:21Z</time>
      </trkpt>
      <trkpt lat="40.98245600" lon="-3.15861500">
        <ele>1032.0000</ele>
        <time>2010-01-01T01:15:26Z</time>
      </trkpt>
      <trkpt lat="40.98247100" lon="-3.15849600">
        <ele>1034.0000</ele>
        <time>2010-01-01T01:15:29Z</time>
      </trkpt>
      <trkpt lat="40.98246600" lon="-3.15844900">
        <ele>1035.0000</ele>
        <time>2010-01-01T01:15:31Z</time>
      </trkpt>
      <trkpt lat="40.98257400" lon="-3.15833700">
        <ele>1036.0000</ele>
        <time>2010-01-01T01:15:36Z</time>
      </trkpt>
      <trkpt lat="40.98258600" lon="-3.15815200">
        <ele>1039.0000</ele>
        <time>2010-01-01T01:15:42Z</time>
      </trkpt>
      <trkpt lat="40.98261900" lon="-3.15812700">
        <ele>1039.0000</ele>
        <time>2010-01-01T01:15:43Z</time>
      </trkpt>
      <trkpt lat="40.98262300" lon="-3.15810100">
        <ele>1039.0000</ele>
        <time>2010-01-01T01:15:44Z</time>
      </trkpt>
      <trkpt lat="40.98271600" lon="-3.15795500">
        <ele>1041.0000</ele>
        <time>2010-01-01T01:15:50Z</time>
      </trkpt>
      <trkpt lat="40.98277600" lon="-3.15790500">
        <ele>1042.0000</ele>
        <time>2010-01-01T01:15:53Z</time>
      </trkpt>
      <trkpt lat="40.98288100" lon="-3.15784300">
        <ele>1041.0000</ele>
        <time>2010-01-01T01:15:57Z</time>
      </trkpt>
      <trkpt lat="40.98298400" lon="-3.15769700">
        <ele>1042.0000</ele>
        <time>2010-01-01T01:16:03Z</time>
      </trkpt>
      <trkpt lat="40.98299400" lon="-3.15768400">
        <ele>1042.0000</ele>
        <time>2010-01-01T01:16:04Z</time>
      </trkpt>
      <trkpt lat="40.98302500" lon="-3.15756000">
        <ele>1044.0000</ele>
        <time>2010-01-01T01:16:08Z</time>
      </trkpt>
      <trkpt lat="40.98305700" lon="-3.15754200">
        <ele>1045.0000</ele>
        <time>2010-01-01T01:16:09Z</time>
      </trkpt>
      <trkpt lat="40.98318500" lon="-3.15744400">
        <ele>1044.0000</ele>
        <time>2010-01-01T01:16:15Z</time>
      </trkpt>
      <trkpt lat="40.98330700" lon="-3.15737100">
        <ele>1043.0000</ele>
        <time>2010-01-01T01:16:20Z</time>
      </trkpt>
      <trkpt lat="40.98333100" lon="-3.15733500">
        <ele>1044.0000</ele>
        <time>2010-01-01T01:16:22Z</time>
      </trkpt>
      <trkpt lat="40.98337600" lon="-3.15726800">
        <ele>1044.0000</ele>
        <time>2010-01-01T01:16:25Z</time>
      </trkpt>
      <trkpt lat="40.98339100" lon="-3.15721900">
        <ele>1045.0000</ele>
        <time>2010-01-01T01:16:26Z</time>
      </trkpt>
      <trkpt lat="40.98349100" lon="-3.15717900">
        <ele>1044.0000</ele>
        <time>2010-01-01T01:16:30Z</time>
      </trkpt>
      <trkpt lat="40.98356400" lon="-3.15710400">
        <ele>1044.0000</ele>
        <time>2010-01-01T01:16:34Z</time>
      </trkpt>
      <trkpt lat="40.98358700" lon="-3.15700800">
        <ele>1045.0000</ele>
        <time>2010-01-01T01:16:37Z</time>
      </trkpt>
      <trkpt lat="40.98361100" lon="-3.15679600">
        <ele>1048.0000</ele>
        <time>2010-01-01T01:16:44Z</time>
      </trkpt>
      <trkpt lat="40.98361600" lon="-3.15671200">
        <ele>1050.0000</ele>
        <time>2010-01-01T01:16:46Z</time>
      </trkpt>
      <trkpt lat="40.98359200" lon="-3.15669000">
        <ele>1050.0000</ele>
        <time>2010-01-01T01:16:47Z</time>
      </trkpt>
      <trkpt lat="40.98358300" lon="-3.15668500">
        <ele>1051.0000</ele>
        <time>2010-01-01T01:16:48Z</time>
      </trkpt>
      <trkpt lat="40.98358100" lon="-3.15667500">
        <ele>1051.0000</ele>
        <time>2010-01-01T01:16:48Z</time>
      </trkpt>
      <trkpt lat="40.98358300" lon="-3.15667700">
        <ele>1051.0000</ele>
        <time>2010-01-01T01:16:48Z</time>
      </trkpt>
      <trkpt lat="40.98359400" lon="-3.15669700">
        <ele>1050.0000</ele>
        <time>2010-01-01T01:16:49Z</time>
      </trkpt>
      <trkpt lat="40.98362300" lon="-3.15685900">
        <ele>1047.0000</ele>
        <time>2010-01-01T01:16:54Z</time>
      </trkpt>
      <trkpt lat="40.98361200" lon="-3.15687000">
        <ele>1047.0000</ele>
        <time>2010-01-01T01:16:54Z</time>
      </trkpt>
      <trkpt lat="40.98355000" lon="-3.15681200">
        <ele>1049.0000</ele>
        <time>2010-01-01T01:16:57Z</time>
      </trkpt>
      <trkpt lat="40.98351400" lon="-3.15687600">
        <ele>1048.0000</ele>
        <time>2010-01-01T01:17:00Z</time>
      </trkpt>
      <trkpt lat="40.98340100" lon="-3.15700300">
        <ele>1048.0000</ele>
        <time>2010-01-01T01:17:06Z</time>
      </trkpt>
      <trkpt lat="40.98332400" lon="-3.15702200">
        <ele>1049.0000</ele>
        <time>2010-01-01T01:17:09Z</time>
      </trkpt>
      <trkpt lat="40.98326000" lon="-3.15703400">
        <ele>1050.0000</ele>
        <time>2010-01-01T01:17:12Z</time>
      </trkpt>
      <trkpt lat="40.98328700" lon="-3.15700800">
        <ele>1049.0000</ele>
        <time>2010-01-01T01:17:13Z</time>
      </trkpt>
      <trkpt lat="40.98319400" lon="-3.15710100">
        <ele>1050.0000</ele>
        <time>2010-01-01T01:17:18Z</time>
      </trkpt>
      <trkpt lat="40.98288300" lon="-3.15728400">
        <ele>1051.0000</ele>
        <time>2010-01-01T01:17:31Z</time>
      </trkpt>
      <trkpt lat="40.98270400" lon="-3.15750900">
        <ele>1048.0000</ele>
        <time>2010-01-01T01:17:41Z</time>
      </trkpt>
      <trkpt lat="40.98244700" lon="-3.15771900">
        <ele>1045.0000</ele>
        <time>2010-01-01T01:17:53Z</time>
      </trkpt>
      <trkpt lat="40.98221200" lon="-3.15784400">
        <ele>1044.0000</ele>
        <time>2010-01-01T01:18:03Z</time>
      </trkpt>
      <trkpt lat="40.98141600" lon="-3.15808800">
        <ele>1039.0000</ele>
        <time>2010-01-01T01:18:36Z</time>
      </trkpt>
      <trkpt lat="40.98105900" lon="-3.15806100">
        <ele>1039.0000</ele>
        <time>2010-01-01T01:18:50Z</time>
      </trkpt>
      <trkpt lat="40.98098300" lon="-3.15802300">
        <ele>1040.0000</ele>
        <time>2010-01-01T01:18:54Z</time>
      </trkpt>
      <trkpt lat="40.98064600" lon="-3.15780600">
        <ele>1041.0000</ele>
        <time>2010-01-01T01:19:09Z</time>
      </trkpt>
      <trkpt lat="40.98039600" lon="-3.15768400">
        <ele>1040.0000</ele>
        <time>2010-01-01T01:19:19Z</time>
      </trkpt>
      <trkpt lat="40.98003900" lon="-3.15746000">
        <ele>1038.0000</ele>
        <time>2010-01-01T01:19:35Z</time>
      </trkpt>
      <trkpt lat="40.97971200" lon="-3.15724800">
        <ele>1039.0000</ele>
        <time>2010-01-01T01:19:50Z</time>
      </trkpt>
      <trkpt lat="40.97948200" lon="-3.15696000">
        <ele>1039.0000</ele>
        <time>2010-01-01T01:20:02Z</time>
      </trkpt>
      <trkpt lat="40.97941800" lon="-3.15676600">
        <ele>1039.0000</ele>
        <time>2010-01-01T01:20:09Z</time>
      </trkpt>
      <trkpt lat="40.97939100" lon="-3.15665600">
        <ele>1040.0000</ele>
        <time>2010-01-01T01:20:12Z</time>
      </trkpt>
      <trkpt lat="40.97901900" lon="-3.15620300">
        <ele>1041.0000</ele>
        <time>2010-01-01T01:20:32Z</time>
      </trkpt>
      <trkpt lat="40.97864600" lon="-3.15634100">
        <ele>1040.0000</ele>
        <time>2010-01-01T01:20:48Z</time>
      </trkpt>
      <trkpt lat="40.97834100" lon="-3.15666100">
        <ele>1040.0000</ele>
        <time>2010-01-01T01:21:03Z</time>
      </trkpt>
      <trkpt lat="40.97795100" lon="-3.15741800">
        <ele>1037.0000</ele>
        <time>2010-01-01T01:21:31Z</time>
      </trkpt>
      <trkpt lat="40.97774900" lon="-3.15793500">
        <ele>1034.0000</ele>
        <time>2010-01-01T01:21:49Z</time>
      </trkpt>
      <trkpt lat="40.97765500" lon="-3.15814100">
        <ele>1033.0000</ele>
        <time>2010-01-01T01:21:56Z</time>
      </trkpt>
      <trkpt lat="40.97731000" lon="-3.15873600">
        <ele>1030.0000</ele>
        <time>2010-01-01T01:22:19Z</time>
      </trkpt>
      <trkpt lat="40.97674700" lon="-3.15939600">
        <ele>1031.0000</ele>
        <time>2010-01-01T01:22:49Z</time>
      </trkpt>
      <trkpt lat="40.97660300" lon="-3.15952600">
        <ele>1029.0000</ele>
        <time>2010-01-01T01:22:56Z</time>
      </trkpt>
      <trkpt lat="40.97640900" lon="-3.15967200">
        <ele>1025.0000</ele>
        <time>2010-01-01T01:23:05Z</time>
      </trkpt>
      <trkpt lat="40.97623700" lon="-3.15967100">
        <ele>1024.0000</ele>
        <time>2010-01-01T01:23:12Z</time>
      </trkpt>
      <trkpt lat="40.97582900" lon="-3.15904000">
        <ele>1025.0000</ele>
        <time>2010-01-01T01:23:37Z</time>
      </trkpt>
      <trkpt lat="40.97569700" lon="-3.15863000">
        <ele>1025.0000</ele>
        <time>2010-01-01T01:23:50Z</time>
      </trkpt>
      <trkpt lat="40.97555300" lon="-3.15712500">
        <ele>1020.0000</ele>
        <time>2010-01-01T01:24:36Z</time>
      </trkpt>
      <trkpt lat="40.97533600" lon="-3.15647000">
        <ele>1020.0000</ele>
        <time>2010-01-01T01:24:58Z</time>
      </trkpt>
      <trkpt lat="40.97518600" lon="-3.15627500">
        <ele>1019.0000</ele>
        <time>2010-01-01T01:25:06Z</time>
      </trkpt>
      <trkpt lat="40.97510600" lon="-3.15605500">
        <ele>1019.0000</ele>
        <time>2010-01-01T01:25:13Z</time>
      </trkpt>
      <trkpt lat="40.97509600" lon="-3.15581600">
        <ele>1019.0000</ele>
        <time>2010-01-01T01:25:21Z</time>
      </trkpt>
      <trkpt lat="40.97513000" lon="-3.15555900">
        <ele>1019.0000</ele>
        <time>2010-01-01T01:25:29Z</time>
      </trkpt>
      <trkpt lat="40.97526100" lon="-3.15476400">
        <ele>1023.0000</ele>
        <time>2010-01-01T01:25:53Z</time>
      </trkpt>
      <trkpt lat="40.97535600" lon="-3.15409200">
        <ele>1025.0000</ele>
        <time>2010-01-01T01:26:14Z</time>
      </trkpt>
      <trkpt lat="40.97538500" lon="-3.15328700">
        <ele>1027.0000</ele>
        <time>2010-01-01T01:26:38Z</time>
      </trkpt>
      <trkpt lat="40.97525300" lon="-3.15289500">
        <ele>1030.0000</ele>
        <time>2010-01-01T01:26:51Z</time>
      </trkpt>
      <trkpt lat="40.97502300" lon="-3.15193800">
        <ele>1034.0000</ele>
        <time>2010-01-01T01:27:22Z</time>
      </trkpt>
      <trkpt lat="40.97501500" lon="-3.15171400">
        <ele>1034.0000</ele>
        <time>2010-01-01T01:27:28Z</time>
      </trkpt>
      <trkpt lat="40.97506800" lon="-3.15122500">
        <ele>1034.0000</ele>
        <time>2010-01-01T01:27:43Z</time>
      </trkpt>
      <trkpt lat="40.97519700" lon="-3.15018900">
        <ele>1041.0000</ele>
        <time>2010-01-01T01:28:15Z</time>
      </trkpt>
      <trkpt lat="40.97514600" lon="-3.14982700">
        <ele>1041.0000</ele>
        <time>2010-01-01T01:28:26Z</time>
      </trkpt>
      <trkpt lat="40.97505600" lon="-3.14910300">
        <ele>1042.0000</ele>
        <time>2010-01-01T01:28:48Z</time>
      </trkpt>
      <trkpt lat="40.97490700" lon="-3.14797000">
        <ele>1046.0000</ele>
        <time>2010-01-01T01:29:23Z</time>
      </trkpt>
      <trkpt lat="40.97478800" lon="-3.14753100">
        <ele>1050.0000</ele>
        <time>2010-01-01T01:29:37Z</time>
      </trkpt>
      <trkpt lat="40.97467700" lon="-3.14731300">
        <ele>1050.0000</ele>
        <time>2010-01-01T01:29:45Z</time>
      </trkpt>
      <trkpt lat="40.97450600" lon="-3.14718900">
        <ele>1050.0000</ele>
        <time>2010-01-01T01:29:53Z</time>
      </trkpt>
      <trkpt lat="40.97430300" lon="-3.14745000">
        <ele>1051.0000</ele>
        <time>2010-01-01T01:30:04Z</time>
      </trkpt>
      <trkpt lat="40.97423100" lon="-3.14749500">
        <ele>1051.0000</ele>
        <time>2010-01-01T01:30:07Z</time>
      </trkpt>
      <trkpt lat="40.97401900" lon="-3.14765400">
        <ele>1053.0000</ele>
        <time>2010-01-01T01:30:17Z</time>
      </trkpt>
      <trkpt lat="40.97398200" lon="-3.14768000">
        <ele>1053.0000</ele>
        <time>2010-01-01T01:30:19Z</time>
      </trkpt>
      <trkpt lat="40.97379000" lon="-3.14785900">
        <ele>1055.0000</ele>
        <time>2010-01-01T01:30:28Z</time>
      </trkpt>
      <trkpt lat="40.97341300" lon="-3.14832800">
        <ele>1057.0000</ele>
        <time>2010-01-01T01:30:49Z</time>
      </trkpt>
      <trkpt lat="40.97312500" lon="-3.14892900">
        <ele>1056.0000</ele>
        <time>2010-01-01T01:31:10Z</time>
      </trkpt>
      <trkpt lat="40.97293200" lon="-3.14979200">
        <ele>1057.0000</ele>
        <time>2010-01-01T01:31:38Z</time>
      </trkpt>
      <trkpt lat="40.97269800" lon="-3.15057900">
        <ele>1056.0000</ele>
        <time>2010-01-01T01:32:03Z</time>
      </trkpt>
      <trkpt lat="40.97248000" lon="-3.15141700">
        <ele>1058.0000</ele>
        <time>2010-01-01T01:32:30Z</time>
      </trkpt>
      <trkpt lat="40.97227600" lon="-3.15242500">
        <ele>1059.0000</ele>
        <time>2010-01-01T01:33:02Z</time>
      </trkpt>
      <trkpt lat="40.97200300" lon="-3.15343500">
        <ele>1054.0000</ele>
        <time>2010-01-01T01:33:34Z</time>
      </trkpt>
      <trkpt lat="40.97196000" lon="-3.15358800">
        <ele>1054.0000</ele>
        <time>2010-01-01T01:33:39Z</time>
      </trkpt>
      <trkpt lat="40.97179000" lon="-3.15455100">
        <ele>1056.0000</ele>
        <time>2010-01-01T01:34:09Z</time>
      </trkpt>
      <trkpt lat="40.97178700" lon="-3.15535300">
        <ele>1056.0000</ele>
        <time>2010-01-01T01:34:33Z</time>
      </trkpt>
      <trkpt lat="40.97169100" lon="-3.15588500">
        <ele>1055.0000</ele>
        <time>2010-01-01T01:34:50Z</time>
      </trkpt>
      <trkpt lat="40.97164600" lon="-3.15636100">
        <ele>1056.0000</ele>
        <time>2010-01-01T01:35:04Z</time>
      </trkpt>
      <trkpt lat="40.97164200" lon="-3.15662700">
        <ele>1056.0000</ele>
        <time>2010-01-01T01:35:12Z</time>
      </trkpt>
      <trkpt lat="40.97161900" lon="-3.15702100">
        <ele>1057.0000</ele>
        <time>2010-01-01T01:35:24Z</time>
      </trkpt>
      <trkpt lat="40.97141600" lon="-3.15759700">
        <ele>1058.0000</ele>
        <time>2010-01-01T01:35:43Z</time>
      </trkpt>
      <trkpt lat="40.97126600" lon="-3.15826600">
        <ele>1055.0000</ele>
        <time>2010-01-01T01:36:04Z</time>
      </trkpt>
      <trkpt lat="40.97123800" lon="-3.15843900">
        <ele>1055.0000</ele>
        <time>2010-01-01T01:36:10Z</time>
      </trkpt>
      <trkpt lat="40.97112500" lon="-3.15919100">
        <ele>1055.0000</ele>
        <time>2010-01-01T01:36:33Z</time>
      </trkpt>
      <trkpt lat="40.97093500" lon="-3.16001300">
        <ele>1055.0000</ele>
        <time>2010-01-01T01:36:59Z</time>
      </trkpt>
      <trkpt lat="40.97070900" lon="-3.16054500">
        <ele>1054.0000</ele>
        <time>2010-01-01T01:37:17Z</time>
      </trkpt>
      <trkpt lat="40.97056900" lon="-3.16070100">
        <ele>1054.0000</ele>
        <time>2010-01-01T01:37:25Z</time>
      </trkpt>
      <trkpt lat="40.97019900" lon="-3.16093500">
        <ele>1052.0000</ele>
        <time>2010-01-01T01:37:41Z</time>
      </trkpt>
      <trkpt lat="40.96991300" lon="-3.16102800">
        <ele>1053.0000</ele>
        <time>2010-01-01T01:37:53Z</time>
      </trkpt>
      <trkpt lat="40.96980200" lon="-3.16107500">
        <ele>1054.0000</ele>
        <time>2010-01-01T01:37:57Z</time>
      </trkpt>
      <trkpt lat="40.96974300" lon="-3.16109900">
        <ele>1055.0000</ele>
        <time>2010-01-01T01:38:00Z</time>
      </trkpt>
      <trkpt lat="40.96943100" lon="-3.16118100">
        <ele>1057.0000</ele>
        <time>2010-01-01T01:38:13Z</time>
      </trkpt>
      <trkpt lat="40.96928000" lon="-3.16116700">
        <ele>1058.0000</ele>
        <time>2010-01-01T01:38:19Z</time>
      </trkpt>
      <trkpt lat="40.96904700" lon="-3.16115500">
        <ele>1060.0000</ele>
        <time>2010-01-01T01:38:28Z</time>
      </trkpt>
      <trkpt lat="40.96889300" lon="-3.16113300">
        <ele>1060.0000</ele>
        <time>2010-01-01T01:38:34Z</time>
      </trkpt>
      <trkpt lat="40.96850400" lon="-3.16105600">
        <ele>1065.0000</ele>
        <time>2010-01-01T01:38:50Z</time>
      </trkpt>
      <trkpt lat="40.96811400" lon="-3.16102200">
        <ele>1069.0000</ele>
        <time>2010-01-01T01:39:06Z</time>
      </trkpt>
      <trkpt lat="40.96794000" lon="-3.16106300">
        <ele>1072.0000</ele>
        <time>2010-01-01T01:39:13Z</time>
      </trkpt>
      <trkpt lat="40.96739600" lon="-3.16127500">
        <ele>1074.0000</ele>
        <time>2010-01-01T01:39:35Z</time>
      </trkpt>
      <trkpt lat="40.96715600" lon="-3.16145300">
        <ele>1073.0000</ele>
        <time>2010-01-01T01:39:46Z</time>
      </trkpt>
      <trkpt lat="40.96709300" lon="-3.16148300">
        <ele>1073.0000</ele>
        <time>2010-01-01T01:39:49Z</time>
      </trkpt>
      <trkpt lat="40.96644200" lon="-3.16185200">
        <ele>1081.0000</ele>
        <time>2010-01-01T01:40:17Z</time>
      </trkpt>
      <trkpt lat="40.96568000" lon="-3.16198200">
        <ele>1080.0000</ele>
        <time>2010-01-01T01:40:48Z</time>
      </trkpt>
      <trkpt lat="40.96511000" lon="-3.16205400">
        <ele>1079.0000</ele>
        <time>2010-01-01T01:41:11Z</time>
      </trkpt>
      <trkpt lat="40.96450400" lon="-3.16218000">
        <ele>1077.0000</ele>
        <time>2010-01-01T01:41:36Z</time>
      </trkpt>
      <trkpt lat="40.96432600" lon="-3.16214400">
        <ele>1076.0000</ele>
        <time>2010-01-01T01:41:43Z</time>
      </trkpt>
      <trkpt lat="40.96395300" lon="-3.16211200">
        <ele>1074.0000</ele>
        <time>2010-01-01T01:41:58Z</time>
      </trkpt>
      <trkpt lat="40.96353200" lon="-3.16212200">
        <ele>1075.0000</ele>
        <time>2010-01-01T01:42:15Z</time>
      </trkpt>
      <trkpt lat="40.96335900" lon="-3.16210100">
        <ele>1075.0000</ele>
        <time>2010-01-01T01:42:22Z</time>
      </trkpt>
      <trkpt lat="40.96327100" lon="-3.16209800">
        <ele>1076.0000</ele>
        <time>2010-01-01T01:42:25Z</time>
      </trkpt>
      <trkpt lat="40.96288900" lon="-3.16206600">
        <ele>1077.0000</ele>
        <time>2010-01-01T01:42:41Z</time>
      </trkpt>
      <trkpt lat="40.96210400" lon="-3.16180700">
        <ele>1077.0000</ele>
        <time>2010-01-01T01:43:13Z</time>
      </trkpt>
      <trkpt lat="40.96155100" lon="-3.16144200">
        <ele>1079.0000</ele>
        <time>2010-01-01T01:43:38Z</time>
      </trkpt>
      <trkpt lat="40.96093100" lon="-3.16093900">
        <ele>1076.0000</ele>
        <time>2010-01-01T01:44:07Z</time>
      </trkpt>
      <trkpt lat="40.96037200" lon="-3.16046500">
        <ele>1077.0000</ele>
        <time>2010-01-01T01:44:33Z</time>
      </trkpt>
      <trkpt lat="40.95971300" lon="-3.15979600">
        <ele>1074.0000</ele>
        <time>2010-01-01T01:45:07Z</time>
      </trkpt>
      <trkpt lat="40.95902400" lon="-3.15916800">
        <ele>1073.0000</ele>
        <time>2010-01-01T01:45:40Z</time>
      </trkpt>
      <trkpt lat="40.95830600" lon="-3.15885500">
        <ele>1070.0000</ele>
        <time>2010-01-01T01:46:10Z</time>
      </trkpt>
      <trkpt lat="40.95804200" lon="-3.15870000">
        <ele>1070.0000</ele>
        <time>2010-01-01T01:46:22Z</time>
      </trkpt>
      <trkpt lat="40.95783200" lon="-3.15863400">
        <ele>1070.0000</ele>
        <time>2010-01-01T01:46:30Z</time>
      </trkpt>
      <trkpt lat="40.95741500" lon="-3.15850500">
        <ele>1065.0000</ele>
        <time>2010-01-01T01:46:48Z</time>
      </trkpt>
      <trkpt lat="40.95706400" lon="-3.15834300">
        <ele>1063.0000</ele>
        <time>2010-01-01T01:47:03Z</time>
      </trkpt>
      <trkpt lat="40.95660800" lon="-3.15804800">
        <ele>1059.0000</ele>
        <time>2010-01-01T01:47:23Z</time>
      </trkpt>
      <trkpt lat="40.95630700" lon="-3.15803600">
        <ele>1057.0000</ele>
        <time>2010-01-01T01:47:35Z</time>
      </trkpt>
      <trkpt lat="40.95607800" lon="-3.15818500">
        <ele>1053.0000</ele>
        <time>2010-01-01T01:47:45Z</time>
      </trkpt>
      <trkpt lat="40.95578000" lon="-3.15832600">
        <ele>1048.0000</ele>
        <time>2010-01-01T01:47:58Z</time>
      </trkpt>
      <trkpt lat="40.95532200" lon="-3.15852300">
        <ele>1044.0000</ele>
        <time>2010-01-01T01:48:17Z</time>
      </trkpt>
      <trkpt lat="40.95477500" lon="-3.15897000">
        <ele>1045.0000</ele>
        <time>2010-01-01T01:48:43Z</time>
      </trkpt>
      <trkpt lat="40.95414500" lon="-3.15947300">
        <ele>1047.0000</ele>
        <time>2010-01-01T01:49:12Z</time>
      </trkpt>
      <trkpt lat="40.95402200" lon="-3.15955900">
        <ele>1047.0000</ele>
        <time>2010-01-01T01:49:18Z</time>
      </trkpt>
      <trkpt lat="40.95364900" lon="-3.15950700">
        <ele>1049.0000</ele>
        <time>2010-01-01T01:49:33Z</time>
      </trkpt>
      <trkpt lat="40.95357200" lon="-3.15938800">
        <ele>1049.0000</ele>
        <time>2010-01-01T01:49:38Z</time>
      </trkpt>
      <trkpt lat="40.95313800" lon="-3.15882100">
        <ele>1044.0000</ele>
        <time>2010-01-01T01:50:02Z</time>
      </trkpt>
      <trkpt lat="40.95290500" lon="-3.15877100">
        <ele>1045.0000</ele>
        <time>2010-01-01T01:50:11Z</time>
      </trkpt>
      <trkpt lat="40.95274900" lon="-3.15880900">
        <ele>1046.0000</ele>
        <time>2010-01-01T01:50:18Z</time>
      </trkpt>
      <trkpt lat="40.95217300" lon="-3.15910200">
        <ele>1046.0000</ele>
        <time>2010-01-01T01:50:42Z</time>
      </trkpt>
      <trkpt lat="40.95194600" lon="-3.15915100">
        <ele>1045.0000</ele>
        <time>2010-01-01T01:50:52Z</time>
      </trkpt>
      <trkpt lat="40.95136700" lon="-3.15900000">
        <ele>1043.0000</ele>
        <time>2010-01-01T01:51:15Z</time>
      </trkpt>
      <trkpt lat="40.95106400" lon="-3.15881200">
        <ele>1043.0000</ele>
        <time>2010-01-01T01:51:29Z</time>
      </trkpt>
      <trkpt lat="40.95101500" lon="-3.15877900">
        <ele>1043.0000</ele>
        <time>2010-01-01T01:51:31Z</time>
      </trkpt>
      <trkpt lat="40.95043800" lon="-3.15826400">
        <ele>1039.0000</ele>
        <time>2010-01-01T01:51:59Z</time>
      </trkpt>
      <trkpt lat="40.95019500" lon="-3.15770900">
        <ele>1037.0000</ele>
        <time>2010-01-01T01:52:18Z</time>
      </trkpt>
      <trkpt lat="40.94992400" lon="-3.15720300">
        <ele>1036.0000</ele>
        <time>2010-01-01T01:52:37Z</time>
      </trkpt>
      <trkpt lat="40.94989100" lon="-3.15712400">
        <ele>1036.0000</ele>
        <time>2010-01-01T01:52:40Z</time>
      </trkpt>
      <trkpt lat="40.94976100" lon="-3.15663700">
        <ele>1035.0000</ele>
        <time>2010-01-01T01:52:55Z</time>
      </trkpt>
      <trkpt lat="40.94967800" lon="-3.15628100">
        <ele>1032.0000</ele>
        <time>2010-01-01T01:53:06Z</time>
      </trkpt>
      <trkpt lat="40.94967500" lon="-3.15601900">
        <ele>1030.0000</ele>
        <time>2010-01-01T01:53:14Z</time>
      </trkpt>
      <trkpt lat="40.94958900" lon="-3.15566600">
        <ele>1028.0000</ele>
        <time>2010-01-01T01:53:26Z</time>
      </trkpt>
      <trkpt lat="40.94947800" lon="-3.15553800">
        <ele>1027.0000</ele>
        <time>2010-01-01T01:53:32Z</time>
      </trkpt>
      <trkpt lat="40.94935500" lon="-3.15539500">
        <ele>1025.0000</ele>
        <time>2010-01-01T01:53:38Z</time>
      </trkpt>
      <trkpt lat="40.94923500" lon="-3.15509000">
        <ele>1020.0000</ele>
        <time>2010-01-01T01:53:48Z</time>
      </trkpt>
      <trkpt lat="40.94921900" lon="-3.15501600">
        <ele>1019.0000</ele>
        <time>2010-01-01T01:53:51Z</time>
      </trkpt>
      <trkpt lat="40.94919200" lon="-3.15465800">
        <ele>1015.0000</ele>
        <time>2010-01-01T01:54:02Z</time>
      </trkpt>
      <trkpt lat="40.94915200" lon="-3.15436700">
        <ele>1013.0000</ele>
        <time>2010-01-01T01:54:11Z</time>
      </trkpt>
      <trkpt lat="40.94909400" lon="-3.15428400">
        <ele>1012.0000</ele>
        <time>2010-01-01T01:54:14Z</time>
      </trkpt>
      <trkpt lat="40.94886200" lon="-3.15427200">
        <ele>1009.0000</ele>
        <time>2010-01-01T01:54:23Z</time>
      </trkpt>
      <trkpt lat="40.94877900" lon="-3.15434300">
        <ele>1008.0000</ele>
        <time>2010-01-01T01:54:27Z</time>
      </trkpt>
      <trkpt lat="40.94856300" lon="-3.15457300">
        <ele>1005.0000</ele>
        <time>2010-01-01T01:54:38Z</time>
      </trkpt>
      <trkpt lat="40.94830800" lon="-3.15486400">
        <ele>1002.0000</ele>
        <time>2010-01-01T01:54:52Z</time>
      </trkpt>
      <trkpt lat="40.94817400" lon="-3.15512200">
        <ele>1001.0000</ele>
        <time>2010-01-01T01:55:01Z</time>
      </trkpt>
      <trkpt lat="40.94805000" lon="-3.15540300">
        <ele>1001.0000</ele>
        <time>2010-01-01T01:55:11Z</time>
      </trkpt>
      <trkpt lat="40.94802400" lon="-3.15545100">
        <ele>1001.0000</ele>
        <time>2010-01-01T01:55:13Z</time>
      </trkpt>
      <trkpt lat="40.94797100" lon="-3.15553800">
        <ele>1000.0000</ele>
        <time>2010-01-01T01:55:16Z</time>
      </trkpt>
      <trkpt lat="40.94775300" lon="-3.15559000">
        <ele>994.00000</ele>
        <time>2010-01-01T01:55:25Z</time>
      </trkpt>
      <trkpt lat="40.94765800" lon="-3.15554200">
        <ele>991.00000</ele>
        <time>2010-01-01T01:55:29Z</time>
      </trkpt>
      <trkpt lat="40.94749200" lon="-3.15540700">
        <ele>987.00000</ele>
        <time>2010-01-01T01:55:37Z</time>
      </trkpt>
      <trkpt lat="40.94728600" lon="-3.15514100">
        <ele>982.00000</ele>
        <time>2010-01-01T01:55:49Z</time>
      </trkpt>
      <trkpt lat="40.94706000" lon="-3.15471000">
        <ele>980.00000</ele>
        <time>2010-01-01T01:56:04Z</time>
      </trkpt>
      <trkpt lat="40.94694600" lon="-3.15445400">
        <ele>979.00000</ele>
        <time>2010-01-01T01:56:13Z</time>
      </trkpt>
      <trkpt lat="40.94679500" lon="-3.15406200">
        <ele>975.00000</ele>
        <time>2010-01-01T01:56:27Z</time>
      </trkpt>
      <trkpt lat="40.94670700" lon="-3.15378000">
        <ele>973.00000</ele>
        <time>2010-01-01T01:56:36Z</time>
      </trkpt>
      <trkpt lat="40.94659100" lon="-3.15336600">
        <ele>971.00000</ele>
        <time>2010-01-01T01:56:49Z</time>
      </trkpt>
      <trkpt lat="40.94654000" lon="-3.15324700">
        <ele>969.00000</ele>
        <time>2010-01-01T01:56:53Z</time>
      </trkpt>
      <trkpt lat="40.94638200" lon="-3.15284900">
        <ele>965.00000</ele>
        <time>2010-01-01T01:57:07Z</time>
      </trkpt>
      <trkpt lat="40.94642300" lon="-3.15253500">
        <ele>963.00000</ele>
        <time>2010-01-01T01:57:17Z</time>
      </trkpt>
      <trkpt lat="40.94644500" lon="-3.15242800">
        <ele>962.00000</ele>
        <time>2010-01-01T01:57:20Z</time>
      </trkpt>
      <trkpt lat="40.94645700" lon="-3.15231200">
        <ele>961.00000</ele>
        <time>2010-01-01T01:57:24Z</time>
      </trkpt>
      <trkpt lat="40.94645200" lon="-3.15225200">
        <ele>960.00000</ele>
        <time>2010-01-01T01:57:25Z</time>
      </trkpt>
      <trkpt lat="40.94641600" lon="-3.15200000">
        <ele>958.00000</ele>
        <time>2010-01-01T01:57:33Z</time>
      </trkpt>
      <trkpt lat="40.94648600" lon="-3.15173100">
        <ele>956.00000</ele>
        <time>2010-01-01T01:57:42Z</time>
      </trkpt>
      <trkpt lat="40.94651800" lon="-3.15146300">
        <ele>953.00000</ele>
        <time>2010-01-01T01:57:50Z</time>
      </trkpt>
      <trkpt lat="40.94646300" lon="-3.15102300">
        <ele>948.00000</ele>
        <time>2010-01-01T01:58:03Z</time>
      </trkpt>
      <trkpt lat="40.94644100" lon="-3.15091000">
        <ele>946.00000</ele>
        <time>2010-01-01T01:58:07Z</time>
      </trkpt>
      <trkpt lat="40.94642800" lon="-3.15081400">
        <ele>944.00000</ele>
        <time>2010-01-01T01:58:10Z</time>
      </trkpt>
      <trkpt lat="40.94638500" lon="-3.15055800">
        <ele>941.00000</ele>
        <time>2010-01-01T01:58:18Z</time>
      </trkpt>
      <trkpt lat="40.94630000" lon="-3.15034600">
        <ele>940.00000</ele>
        <time>2010-01-01T01:58:25Z</time>
      </trkpt>
      <trkpt lat="40.94612500" lon="-3.15014100">
        <ele>939.00000</ele>
        <time>2010-01-01T01:58:34Z</time>
      </trkpt>
      <trkpt lat="40.94587400" lon="-3.15003500">
        <ele>938.00000</ele>
        <time>2010-01-01T01:58:45Z</time>
      </trkpt>
      <trkpt lat="40.94537700" lon="-3.14975600">
        <ele>935.00000</ele>
        <time>2010-01-01T01:59:07Z</time>
      </trkpt>
      <trkpt lat="40.94527400" lon="-3.14974700">
        <ele>935.00000</ele>
        <time>2010-01-01T01:59:11Z</time>
      </trkpt>
      <trkpt lat="40.94503300" lon="-3.14973500">
        <ele>934.00000</ele>
        <time>2010-01-01T01:59:20Z</time>
      </trkpt>
      <trkpt lat="40.94475100" lon="-3.14965200">
        <ele>931.00000</ele>
        <time>2010-01-01T01:59:32Z</time>
      </trkpt>
      <trkpt lat="40.94475700" lon="-3.14965600">
        <ele>931.00000</ele>
        <time>2010-01-01T01:59:32Z</time>
      </trkpt>
      <trkpt lat="40.94455000" lon="-3.14934800">
        <ele>926.00000</ele>
        <time>2010-01-01T01:59:45Z</time>
      </trkpt>
      <trkpt lat="40.94441800" lon="-3.14919200">
        <ele>924.00000</ele>
        <time>2010-01-01T01:59:52Z</time>
      </trkpt>
      <trkpt lat="40.94419600" lon="-3.14912000">
        <ele>923.00000</ele>
        <time>2010-01-01T02:00:01Z</time>
      </trkpt>
      <trkpt lat="40.94413800" lon="-3.14910000">
        <ele>923.00000</ele>
        <time>2010-01-01T02:00:03Z</time>
      </trkpt>
      <trkpt lat="40.94397600" lon="-3.14906900">
        <ele>923.00000</ele>
        <time>2010-01-01T02:00:10Z</time>
      </trkpt>
      <trkpt lat="40.94390500" lon="-3.14908200">
        <ele>923.00000</ele>
        <time>2010-01-01T02:00:13Z</time>
      </trkpt>
      <trkpt lat="40.94357400" lon="-3.14922900">
        <ele>927.00000</ele>
        <time>2010-01-01T02:00:27Z</time>
      </trkpt>
      <trkpt lat="40.94346400" lon="-3.14925500">
        <ele>928.00000</ele>
        <time>2010-01-01T02:00:31Z</time>
      </trkpt>
      <trkpt lat="40.94311600" lon="-3.14926600">
        <ele>928.00000</ele>
        <time>2010-01-01T02:00:45Z</time>
      </trkpt>
      <trkpt lat="40.94294100" lon="-3.14916000">
        <ele>928.00000</ele>
        <time>2010-01-01T02:00:53Z</time>
      </trkpt>
      <trkpt lat="40.94288800" lon="-3.14912900">
        <ele>928.00000</ele>
        <time>2010-01-01T02:00:55Z</time>
      </trkpt>
      <trkpt lat="40.94260700" lon="-3.14887200">
        <ele>926.00000</ele>
        <time>2010-01-01T02:01:09Z</time>
      </trkpt>
      <trkpt lat="40.94226600" lon="-3.14840600">
        <ele>926.00000</ele>
        <time>2010-01-01T02:01:28Z</time>
      </trkpt>
      <trkpt lat="40.94222900" lon="-3.14831200">
        <ele>927.00000</ele>
        <time>2010-01-01T02:01:32Z</time>
      </trkpt>
      <trkpt lat="40.94220300" lon="-3.14816700">
        <ele>929.00000</ele>
        <time>2010-01-01T02:01:36Z</time>
      </trkpt>
      <trkpt lat="40.94219100" lon="-3.14816200">
        <ele>929.00000</ele>
        <time>2010-01-01T02:01:37Z</time>
      </trkpt>
      <trkpt lat="40.94210600" lon="-3.14793800">
        <ele>932.00000</ele>
        <time>2010-01-01T02:01:44Z</time>
      </trkpt>
      <trkpt lat="40.94210000" lon="-3.14790900">
        <ele>933.00000</ele>
        <time>2010-01-01T02:01:45Z</time>
      </trkpt>
      <trkpt lat="40.94208200" lon="-3.14790400">
        <ele>933.00000</ele>
        <time>2010-01-01T02:01:46Z</time>
      </trkpt>
      <trkpt lat="40.94198800" lon="-3.14788700">
        <ele>932.00000</ele>
        <time>2010-01-01T02:01:50Z</time>
      </trkpt>
      <trkpt lat="40.94191600" lon="-3.14782900">
        <ele>933.00000</ele>
        <time>2010-01-01T02:01:53Z</time>
      </trkpt>
      <trkpt lat="40.94191600" lon="-3.14780500">
        <ele>933.00000</ele>
        <time>2010-01-01T02:01:54Z</time>
      </trkpt>
      <trkpt lat="40.94192200" lon="-3.14779600">
        <ele>933.00000</ele>
        <time>2010-01-01T02:01:54Z</time>
      </trkpt>
      <trkpt lat="40.94193100" lon="-3.14778100">
        <ele>933.00000</ele>
        <time>2010-01-01T02:01:55Z</time>
      </trkpt>
      <trkpt lat="40.94194600" lon="-3.14778100">
        <ele>932.00000</ele>
        <time>2010-01-01T02:01:55Z</time>
      </trkpt>
      <trkpt lat="40.94193200" lon="-3.14778400">
        <ele>933.00000</ele>
        <time>2010-01-01T02:01:56Z</time>
      </trkpt>
      <trkpt lat="40.94194500" lon="-3.14779000">
        <ele>932.00000</ele>
        <time>2010-01-01T02:01:56Z</time>
      </trkpt>
      <trkpt lat="40.94194600" lon="-3.14781100">
        <ele>932.00000</ele>
        <time>2010-01-01T02:01:57Z</time>
      </trkpt>
      <trkpt lat="40.94194800" lon="-3.14783100">
        <ele>932.00000</ele>
        <time>2010-01-01T02:01:58Z</time>
      </trkpt>
      <trkpt lat="40.94202800" lon="-3.14787900">
        <ele>933.00000</ele>
        <time>2010-01-01T02:02:01Z</time>
      </trkpt>
      <trkpt lat="40.94212700" lon="-3.14796500">
        <ele>932.00000</ele>
        <time>2010-01-01T02:02:06Z</time>
      </trkpt>
      <trkpt lat="40.94212100" lon="-3.14798700">
        <ele>932.00000</ele>
        <time>2010-01-01T02:02:07Z</time>
      </trkpt>
      <trkpt lat="40.94209500" lon="-3.14798200">
        <ele>932.00000</ele>
        <time>2010-01-01T02:02:08Z</time>
      </trkpt>
      <trkpt lat="40.94209000" lon="-3.14796700">
        <ele>932.00000</ele>
        <time>2010-01-01T02:02:08Z</time>
      </trkpt>
      <trkpt lat="40.94210400" lon="-3.14798400">
        <ele>932.00000</ele>
        <time>2010-01-01T02:02:09Z</time>
      </trkpt>
      <trkpt lat="40.94213800" lon="-3.14798100">
        <ele>932.00000</ele>
        <time>2010-01-01T02:02:10Z</time>
      </trkpt>
      <trkpt lat="40.94214500" lon="-3.14798100">
        <ele>932.00000</ele>
        <time>2010-01-01T02:02:11Z</time>
      </trkpt>
      <trkpt lat="40.94211200" lon="-3.14798600">
        <ele>932.00000</ele>
        <time>2010-01-01T02:02:12Z</time>
      </trkpt>
      <trkpt lat="40.94215300" lon="-3.14803100">
        <ele>931.00000</ele>
        <time>2010-01-01T02:02:14Z</time>
      </trkpt>
      <trkpt lat="40.94212700" lon="-3.14805200">
        <ele>931.00000</ele>
        <time>2010-01-01T02:02:15Z</time>
      </trkpt>
      <trkpt lat="40.94218100" lon="-3.14814700">
        <ele>929.00000</ele>
        <time>2010-01-01T02:02:19Z</time>
      </trkpt>
      <trkpt lat="40.94220800" lon="-3.14823100">
        <ele>928.00000</ele>
        <time>2010-01-01T02:02:22Z</time>
      </trkpt>
      <trkpt lat="40.94222000" lon="-3.14832600">
        <ele>927.00000</ele>
        <time>2010-01-01T02:02:25Z</time>
      </trkpt>
      <trkpt lat="40.94227300" lon="-3.14842800">
        <ele>926.00000</ele>
        <time>2010-01-01T02:02:28Z</time>
      </trkpt>
      <trkpt lat="40.94232600" lon="-3.14852800">
        <ele>926.00000</ele>
        <time>2010-01-01T02:02:32Z</time>
      </trkpt>
      <trkpt lat="40.94244500" lon="-3.14872700">
        <ele>925.00000</ele>
        <time>2010-01-01T02:02:40Z</time>
      </trkpt>
      <trkpt lat="40.94245000" lon="-3.14873800">
        <ele>925.00000</ele>
        <time>2010-01-01T02:02:40Z</time>
      </trkpt>
      <trkpt lat="40.94245500" lon="-3.14883600">
        <ele>924.00000</ele>
        <time>2010-01-01T02:02:43Z</time>
      </trkpt>
      <trkpt lat="40.94248300" lon="-3.14898700">
        <ele>923.00000</ele>
        <time>2010-01-01T02:02:48Z</time>
      </trkpt>
      <trkpt lat="40.94249800" lon="-3.14913600">
        <ele>922.00000</ele>
        <time>2010-01-01T02:02:52Z</time>
      </trkpt>
      <trkpt lat="40.94251300" lon="-3.14930000">
        <ele>921.00000</ele>
        <time>2010-01-01T02:02:57Z</time>
      </trkpt>
      <trkpt lat="40.94251100" lon="-3.14932900">
        <ele>920.00000</ele>
        <time>2010-01-01T02:02:58Z</time>
      </trkpt>
      <trkpt lat="40.94252000" lon="-3.14937000">
        <ele>920.00000</ele>
        <time>2010-01-01T02:02:59Z</time>
      </trkpt>
      <trkpt lat="40.94253400" lon="-3.14939600">
        <ele>920.00000</ele>
        <time>2010-01-01T02:03:00Z</time>
      </trkpt>
      <trkpt lat="40.94252900" lon="-3.14942600">
        <ele>920.00000</ele>
        <time>2010-01-01T02:03:01Z</time>
      </trkpt>
      <trkpt lat="40.94253500" lon="-3.14949800">
        <ele>919.00000</ele>
        <time>2010-01-01T02:03:04Z</time>
      </trkpt>
      <trkpt lat="40.94251700" lon="-3.14957400">
        <ele>919.00000</ele>
        <time>2010-01-01T02:03:06Z</time>
      </trkpt>
      <trkpt lat="40.94251300" lon="-3.14960500">
        <ele>918.00000</ele>
        <time>2010-01-01T02:03:07Z</time>
      </trkpt>
      <trkpt lat="40.94250800" lon="-3.14964700">
        <ele>918.00000</ele>
        <time>2010-01-01T02:03:08Z</time>
      </trkpt>
      <trkpt lat="40.94250800" lon="-3.14976100">
        <ele>917.00000</ele>
        <time>2010-01-01T02:03:12Z</time>
      </trkpt>
      <trkpt lat="40.94253300" lon="-3.14991100">
        <ele>917.00000</ele>
        <time>2010-01-01T02:03:16Z</time>
      </trkpt>
      <trkpt lat="40.94256600" lon="-3.14999400">
        <ele>916.00000</ele>
        <time>2010-01-01T02:03:19Z</time>
      </trkpt>
      <trkpt lat="40.94256300" lon="-3.15005000">
        <ele>916.00000</ele>
        <time>2010-01-01T02:03:21Z</time>
      </trkpt>
      <trkpt lat="40.94259400" lon="-3.15017300">
        <ele>914.00000</ele>
        <time>2010-01-01T02:03:25Z</time>
      </trkpt>
      <trkpt lat="40.94258900" lon="-3.15024600">
        <ele>914.00000</ele>
        <time>2010-01-01T02:03:27Z</time>
      </trkpt>
      <trkpt lat="40.94257000" lon="-3.15035500">
        <ele>914.00000</ele>
        <time>2010-01-01T02:03:30Z</time>
      </trkpt>
      <trkpt lat="40.94254600" lon="-3.15047600">
        <ele>913.00000</ele>
        <time>2010-01-01T02:03:34Z</time>
      </trkpt>
      <trkpt lat="40.94254000" lon="-3.15048300">
        <ele>913.00000</ele>
        <time>2010-01-01T02:03:34Z</time>
      </trkpt>
      <trkpt lat="40.94251200" lon="-3.15058900">
        <ele>912.00000</ele>
        <time>2010-01-01T02:03:38Z</time>
      </trkpt>
      <trkpt lat="40.94248600" lon="-3.15081000">
        <ele>912.00000</ele>
        <time>2010-01-01T02:03:45Z</time>
      </trkpt>
      <trkpt lat="40.94248300" lon="-3.15084800">
        <ele>912.00000</ele>
        <time>2010-01-01T02:03:46Z</time>
      </trkpt>
      <trkpt lat="40.94247700" lon="-3.15093700">
        <ele>912.00000</ele>
        <time>2010-01-01T02:03:48Z</time>
      </trkpt>
      <trkpt lat="40.94250400" lon="-3.15108200">
        <ele>912.00000</ele>
        <time>2010-01-01T02:03:53Z</time>
      </trkpt>
      <trkpt lat="40.94251600" lon="-3.15113300">
        <ele>912.00000</ele>
        <time>2010-01-01T02:03:55Z</time>
      </trkpt>
      <trkpt lat="40.94250800" lon="-3.15122700">
        <ele>912.00000</ele>
        <time>2010-01-01T02:03:57Z</time>
      </trkpt>
      <trkpt lat="40.94243000" lon="-3.15129900">
        <ele>912.00000</ele>
        <time>2010-01-01T02:04:01Z</time>
      </trkpt>
      <trkpt lat="40.94238600" lon="-3.15136800">
        <ele>912.00000</ele>
        <time>2010-01-01T02:04:04Z</time>
      </trkpt>
      <trkpt lat="40.94235600" lon="-3.15142200">
        <ele>912.00000</ele>
        <time>2010-01-01T02:04:06Z</time>
      </trkpt>
      <trkpt lat="40.94228600" lon="-3.15157700">
        <ele>913.00000</ele>
        <time>2010-01-01T02:04:11Z</time>
      </trkpt>
      <trkpt lat="40.94221700" lon="-3.15168300">
        <ele>914.00000</ele>
        <time>2010-01-01T02:04:16Z</time>
      </trkpt>
      <trkpt lat="40.94220300" lon="-3.15177700">
        <ele>916.00000</ele>
        <time>2010-01-01T02:04:19Z</time>
      </trkpt>
      <trkpt lat="40.94213700" lon="-3.15192500">
        <ele>919.00000</ele>
        <time>2010-01-01T02:04:24Z</time>
      </trkpt>
      <trkpt lat="40.94205800" lon="-3.15199800">
        <ele>919.00000</ele>
        <time>2010-01-01T02:04:28Z</time>
      </trkpt>
      <trkpt lat="40.94198800" lon="-3.15211000">
        <ele>919.00000</ele>
        <time>2010-01-01T02:04:32Z</time>
      </trkpt>
      <trkpt lat="40.94197400" lon="-3.15212500">
        <ele>919.00000</ele>
        <time>2010-01-01T02:04:33Z</time>
      </trkpt>
      <trkpt lat="40.94195600" lon="-3.15218700">
        <ele>919.00000</ele>
        <time>2010-01-01T02:04:35Z</time>
      </trkpt>
      <trkpt lat="40.94195900" lon="-3.15219200">
        <ele>919.00000</ele>
        <time>2010-01-01T02:04:35Z</time>
      </trkpt>
      <trkpt lat="40.94196600" lon="-3.15229100">
        <ele>920.00000</ele>
        <time>2010-01-01T02:04:38Z</time>
      </trkpt>
      <trkpt lat="40.94198100" lon="-3.15230900">
        <ele>921.00000</ele>
        <time>2010-01-01T02:04:39Z</time>
      </trkpt>
      <trkpt lat="40.94203700" lon="-3.15235100">
        <ele>923.00000</ele>
        <time>2010-01-01T02:04:41Z</time>
      </trkpt>
      <trkpt lat="40.94210000" lon="-3.15236300">
        <ele>924.00000</ele>
        <time>2010-01-01T02:04:44Z</time>
      </trkpt>
      <trkpt lat="40.94213700" lon="-3.15234700">
        <ele>925.00000</ele>
        <time>2010-01-01T02:04:45Z</time>
      </trkpt>
      <trkpt lat="40.94220500" lon="-3.15233900">
        <ele>926.00000</ele>
        <time>2010-01-01T02:04:48Z</time>
      </trkpt>
      <trkpt lat="40.94226200" lon="-3.15236600">
        <ele>928.00000</ele>
        <time>2010-01-01T02:04:51Z</time>
      </trkpt>
      <trkpt lat="40.94230800" lon="-3.15245100">
        <ele>930.00000</ele>
        <time>2010-01-01T02:04:54Z</time>
      </trkpt>
      <trkpt lat="40.94237600" lon="-3.15253400">
        <ele>932.00000</ele>
        <time>2010-01-01T02:04:57Z</time>
      </trkpt>
      <trkpt lat="40.94239900" lon="-3.15255600">
        <ele>932.00000</ele>
        <time>2010-01-01T02:04:59Z</time>
      </trkpt>
      <trkpt lat="40.94250100" lon="-3.15265400">
        <ele>935.00000</ele>
        <time>2010-01-01T02:05:04Z</time>
      </trkpt>
      <trkpt lat="40.94259000" lon="-3.15280300">
        <ele>935.00000</ele>
        <time>2010-01-01T02:05:09Z</time>
      </trkpt>
      <trkpt lat="40.94268200" lon="-3.15300100">
        <ele>936.00000</ele>
        <time>2010-01-01T02:05:16Z</time>
      </trkpt>
      <trkpt lat="40.94271700" lon="-3.15301300">
        <ele>936.00000</ele>
        <time>2010-01-01T02:05:18Z</time>
      </trkpt>
      <trkpt lat="40.94271100" lon="-3.15301600">
        <ele>936.00000</ele>
        <time>2010-01-01T02:05:18Z</time>
      </trkpt>
      <trkpt lat="40.94270500" lon="-3.15302300">
        <ele>936.00000</ele>
        <time>2010-01-01T02:05:18Z</time>
      </trkpt>
      <trkpt lat="40.94264400" lon="-3.15305800">
        <ele>936.00000</ele>
        <time>2010-01-01T02:05:21Z</time>
      </trkpt>
      <trkpt lat="40.94262400" lon="-3.15311100">
        <ele>937.00000</ele>
        <time>2010-01-01T02:05:23Z</time>
      </trkpt>
      <trkpt lat="40.94255300" lon="-3.15319100">
        <ele>937.00000</ele>
        <time>2010-01-01T02:05:27Z</time>
      </trkpt>
      <trkpt lat="40.94247500" lon="-3.15316000">
        <ele>936.00000</ele>
        <time>2010-01-01T02:05:30Z</time>
      </trkpt>
      <trkpt lat="40.94243200" lon="-3.15312900">
        <ele>936.00000</ele>
        <time>2010-01-01T02:05:32Z</time>
      </trkpt>
      <trkpt lat="40.94234400" lon="-3.15310500">
        <ele>934.00000</ele>
        <time>2010-01-01T02:05:35Z</time>
      </trkpt>
      <trkpt lat="40.94231700" lon="-3.15300400">
        <ele>934.00000</ele>
        <time>2010-01-01T02:05:39Z</time>
      </trkpt>
      <trkpt lat="40.94229100" lon="-3.15291300">
        <ele>933.00000</ele>
        <time>2010-01-01T02:05:42Z</time>
      </trkpt>
      <trkpt lat="40.94223000" lon="-3.15275500">
        <ele>931.00000</ele>
        <time>2010-01-01T02:05:47Z</time>
      </trkpt>
      <trkpt lat="40.94218400" lon="-3.15273200">
        <ele>930.00000</ele>
        <time>2010-01-01T02:05:49Z</time>
      </trkpt>
      <trkpt lat="40.94215200" lon="-3.15273000">
        <ele>929.00000</ele>
        <time>2010-01-01T02:05:50Z</time>
      </trkpt>
      <trkpt lat="40.94208300" lon="-3.15273500">
        <ele>927.00000</ele>
        <time>2010-01-01T02:05:53Z</time>
      </trkpt>
      <trkpt lat="40.94207200" lon="-3.15286600">
        <ele>927.00000</ele>
        <time>2010-01-01T02:05:57Z</time>
      </trkpt>
      <trkpt lat="40.94204200" lon="-3.15290800">
        <ele>927.00000</ele>
        <time>2010-01-01T02:05:59Z</time>
      </trkpt>
      <trkpt lat="40.94194500" lon="-3.15301400">
        <ele>923.00000</ele>
        <time>2010-01-01T02:06:04Z</time>
      </trkpt>
      <trkpt lat="40.94189300" lon="-3.15303100">
        <ele>922.00000</ele>
        <time>2010-01-01T02:06:06Z</time>
      </trkpt>
      <trkpt lat="40.94188200" lon="-3.15311100">
        <ele>922.00000</ele>
        <time>2010-01-01T02:06:08Z</time>
      </trkpt>
      <trkpt lat="40.94185000" lon="-3.15305900">
        <ele>920.00000</ele>
        <time>2010-01-01T02:06:10Z</time>
      </trkpt>
      <trkpt lat="40.94184800" lon="-3.15303000">
        <ele>920.00000</ele>
        <time>2010-01-01T02:06:11Z</time>
      </trkpt>
      <trkpt lat="40.94182000" lon="-3.15290300">
        <ele>919.00000</ele>
        <time>2010-01-01T02:06:15Z</time>
      </trkpt>
      <trkpt lat="40.94181000" lon="-3.15287800">
        <ele>919.00000</ele>
        <time>2010-01-01T02:06:16Z</time>
      </trkpt>
      <trkpt lat="40.94174100" lon="-3.15270900">
        <ele>916.00000</ele>
        <time>2010-01-01T02:06:22Z</time>
      </trkpt>
      <trkpt lat="40.94170400" lon="-3.15265500">
        <ele>915.00000</ele>
        <time>2010-01-01T02:06:24Z</time>
      </trkpt>
      <trkpt lat="40.94171400" lon="-3.15253100">
        <ele>915.00000</ele>
        <time>2010-01-01T02:06:28Z</time>
      </trkpt>
      <trkpt lat="40.94170400" lon="-3.15245700">
        <ele>914.00000</ele>
        <time>2010-01-01T02:06:30Z</time>
      </trkpt>
      <trkpt lat="40.94175500" lon="-3.15239100">
        <ele>915.00000</ele>
        <time>2010-01-01T02:06:33Z</time>
      </trkpt>
      <trkpt lat="40.94181800" lon="-3.15233200">
        <ele>917.00000</ele>
        <time>2010-01-01T02:06:36Z</time>
      </trkpt>
      <trkpt lat="40.94176600" lon="-3.15233200">
        <ele>916.00000</ele>
        <time>2010-01-01T02:06:38Z</time>
      </trkpt>
      <trkpt lat="40.94173300" lon="-3.15251500">
        <ele>915.00000</ele>
        <time>2010-01-01T02:06:44Z</time>
      </trkpt>
      <trkpt lat="40.94172400" lon="-3.15250300">
        <ele>915.00000</ele>
        <time>2010-01-01T02:06:44Z</time>
      </trkpt>
      <trkpt lat="40.94167300" lon="-3.15241000">
        <ele>913.00000</ele>
        <time>2010-01-01T02:06:48Z</time>
      </trkpt>
      <trkpt lat="40.94167200" lon="-3.15241100">
        <ele>913.00000</ele>
        <time>2010-01-01T02:06:48Z</time>
      </trkpt>
      <trkpt lat="40.94166600" lon="-3.15246100">
        <ele>913.00000</ele>
        <time>2010-01-01T02:06:49Z</time>
      </trkpt>
      <trkpt lat="40.94170400" lon="-3.15251000">
        <ele>915.00000</ele>
        <time>2010-01-01T02:06:52Z</time>
      </trkpt>
      <trkpt lat="40.94173200" lon="-3.15253400">
        <ele>915.00000</ele>
        <time>2010-01-01T02:06:53Z</time>
      </trkpt>
      <trkpt lat="40.94171800" lon="-3.15250900">
        <ele>915.00000</ele>
        <time>2010-01-01T02:06:54Z</time>
      </trkpt>
      <trkpt lat="40.94175200" lon="-3.15242600">
        <ele>916.00000</ele>
        <time>2010-01-01T02:06:57Z</time>
      </trkpt>
      <trkpt lat="40.94175100" lon="-3.15242200">
        <ele>916.00000</ele>
        <time>2010-01-01T02:06:57Z</time>
      </trkpt>
      <trkpt lat="40.94172100" lon="-3.15238600">
        <ele>915.00000</ele>
        <time>2010-01-01T02:06:58Z</time>
      </trkpt>
      <trkpt lat="40.94172100" lon="-3.15233000">
        <ele>914.00000</ele>
        <time>2010-01-01T02:07:00Z</time>
      </trkpt>
      <trkpt lat="40.94183800" lon="-3.15228000">
        <ele>917.00000</ele>
        <time>2010-01-01T02:07:05Z</time>
      </trkpt>
      <trkpt lat="40.94191000" lon="-3.15218900">
        <ele>918.00000</ele>
        <time>2010-01-01T02:07:09Z</time>
      </trkpt>
      <trkpt lat="40.94192000" lon="-3.15217900">
        <ele>918.00000</ele>
        <time>2010-01-01T02:07:10Z</time>
      </trkpt>
      <trkpt lat="40.94199800" lon="-3.15202600">
        <ele>918.00000</ele>
        <time>2010-01-01T02:07:15Z</time>
      </trkpt>
      <trkpt lat="40.94204600" lon="-3.15196500">
        <ele>918.00000</ele>
        <time>2010-01-01T02:07:18Z</time>
      </trkpt>
      <trkpt lat="40.94212000" lon="-3.15190200">
        <ele>918.00000</ele>
        <time>2010-01-01T02:07:21Z</time>
      </trkpt>
      <trkpt lat="40.94216200" lon="-3.15177600">
        <ele>916.00000</ele>
        <time>2010-01-01T02:07:26Z</time>
      </trkpt>
      <trkpt lat="40.94220300" lon="-3.15171500">
        <ele>915.00000</ele>
        <time>2010-01-01T02:07:28Z</time>
      </trkpt>
      <trkpt lat="40.94227400" lon="-3.15159900">
        <ele>913.00000</ele>
        <time>2010-01-01T02:07:33Z</time>
      </trkpt>
      <trkpt lat="40.94229400" lon="-3.15155700">
        <ele>913.00000</ele>
        <time>2010-01-01T02:07:34Z</time>
      </trkpt>
      <trkpt lat="40.94231400" lon="-3.15150300">
        <ele>912.00000</ele>
        <time>2010-01-01T02:07:36Z</time>
      </trkpt>
      <trkpt lat="40.94234800" lon="-3.15145300">
        <ele>912.00000</ele>
        <time>2010-01-01T02:07:38Z</time>
      </trkpt>
      <trkpt lat="40.94237700" lon="-3.15138200">
        <ele>912.00000</ele>
        <time>2010-01-01T02:07:40Z</time>
      </trkpt>
      <trkpt lat="40.94243100" lon="-3.15132700">
        <ele>912.00000</ele>
        <time>2010-01-01T02:07:43Z</time>
      </trkpt>
      <trkpt lat="40.94251500" lon="-3.15120600">
        <ele>912.00000</ele>
        <time>2010-01-01T02:07:48Z</time>
      </trkpt>
      <trkpt lat="40.94253400" lon="-3.15114100">
        <ele>912.00000</ele>
        <time>2010-01-01T02:07:50Z</time>
      </trkpt>
      <trkpt lat="40.94255700" lon="-3.15109900">
        <ele>912.00000</ele>
        <time>2010-01-01T02:07:52Z</time>
      </trkpt>
      <trkpt lat="40.94251600" lon="-3.15094900">
        <ele>912.00000</ele>
        <time>2010-01-01T02:07:56Z</time>
      </trkpt>
      <trkpt lat="40.94250800" lon="-3.15092200">
        <ele>912.00000</ele>
        <time>2010-01-01T02:07:57Z</time>
      </trkpt>
      <trkpt lat="40.94249000" lon="-3.15085700">
        <ele>912.00000</ele>
        <time>2010-01-01T02:07:59Z</time>
      </trkpt>
      <trkpt lat="40.94249300" lon="-3.15073800">
        <ele>912.00000</ele>
        <time>2010-01-01T02:08:03Z</time>
      </trkpt>
      <trkpt lat="40.94250500" lon="-3.15060900">
        <ele>912.00000</ele>
        <time>2010-01-01T02:08:07Z</time>
      </trkpt>
      <trkpt lat="40.94254600" lon="-3.15045900">
        <ele>913.00000</ele>
        <time>2010-01-01T02:08:12Z</time>
      </trkpt>
      <trkpt lat="40.94257500" lon="-3.15043600">
        <ele>913.00000</ele>
        <time>2010-01-01T02:08:13Z</time>
      </trkpt>
      <trkpt lat="40.94257500" lon="-3.15031300">
        <ele>914.00000</ele>
        <time>2010-01-01T02:08:17Z</time>
      </trkpt>
      <trkpt lat="40.94257800" lon="-3.15030100">
        <ele>914.00000</ele>
        <time>2010-01-01T02:08:17Z</time>
      </trkpt>
      <trkpt lat="40.94259600" lon="-3.15016500">
        <ele>914.00000</ele>
        <time>2010-01-01T02:08:21Z</time>
      </trkpt>
      <trkpt lat="40.94257800" lon="-3.15006400">
        <ele>915.00000</ele>
        <time>2010-01-01T02:08:25Z</time>
      </trkpt>
      <trkpt lat="40.94258700" lon="-3.15001300">
        <ele>915.00000</ele>
        <time>2010-01-01T02:08:26Z</time>
      </trkpt>
      <trkpt lat="40.94255000" lon="-3.14989200">
        <ele>916.00000</ele>
        <time>2010-01-01T02:08:30Z</time>
      </trkpt>
      <trkpt lat="40.94253600" lon="-3.14982600">
        <ele>917.00000</ele>
        <time>2010-01-01T02:08:32Z</time>
      </trkpt>
      <trkpt lat="40.94253900" lon="-3.14966200">
        <ele>918.00000</ele>
        <time>2010-01-01T02:08:37Z</time>
      </trkpt>
      <trkpt lat="40.94255600" lon="-3.14951900">
        <ele>919.00000</ele>
        <time>2010-01-01T02:08:42Z</time>
      </trkpt>
      <trkpt lat="40.94253900" lon="-3.14946700">
        <ele>919.00000</ele>
        <time>2010-01-01T02:08:43Z</time>
      </trkpt>
      <trkpt lat="40.94253300" lon="-3.14933700">
        <ele>921.00000</ele>
        <time>2010-01-01T02:08:47Z</time>
      </trkpt>
      <trkpt lat="40.94252500" lon="-3.14917300">
        <ele>922.00000</ele>
        <time>2010-01-01T02:08:52Z</time>
      </trkpt>
      <trkpt lat="40.94252100" lon="-3.14911200">
        <ele>922.00000</ele>
        <time>2010-01-01T02:08:54Z</time>
      </trkpt>
      <trkpt lat="40.94248000" lon="-3.14896700">
        <ele>923.00000</ele>
        <time>2010-01-01T02:08:59Z</time>
      </trkpt>
      <trkpt lat="40.94253700" lon="-3.14881800">
        <ele>925.00000</ele>
        <time>2010-01-01T02:09:04Z</time>
      </trkpt>
      <trkpt lat="40.94254800" lon="-3.14881100">
        <ele>925.00000</ele>
        <time>2010-01-01T02:09:04Z</time>
      </trkpt>
      <trkpt lat="40.94252300" lon="-3.14875300">
        <ele>925.00000</ele>
        <time>2010-01-01T02:09:06Z</time>
      </trkpt>
      <trkpt lat="40.94248000" lon="-3.14868800">
        <ele>926.00000</ele>
        <time>2010-01-01T02:09:09Z</time>
      </trkpt>
      <trkpt lat="40.94234800" lon="-3.14852200">
        <ele>926.00000</ele>
        <time>2010-01-01T02:09:16Z</time>
      </trkpt>
      <trkpt lat="40.94230900" lon="-3.14847600">
        <ele>926.00000</ele>
        <time>2010-01-01T02:09:18Z</time>
      </trkpt>
      <trkpt lat="40.94225000" lon="-3.14840100">
        <ele>926.00000</ele>
        <time>2010-01-01T02:09:22Z</time>
      </trkpt>
      <trkpt lat="40.94220000" lon="-3.14848400">
        <ele>925.00000</ele>
        <time>2010-01-01T02:09:25Z</time>
      </trkpt>
      <trkpt lat="40.94211200" lon="-3.14852700">
        <ele>927.00000</ele>
        <time>2010-01-01T02:09:28Z</time>
      </trkpt>
      <trkpt lat="40.94202500" lon="-3.14852200">
        <ele>929.00000</ele>
        <time>2010-01-01T02:09:32Z</time>
      </trkpt>
      <trkpt lat="40.94200500" lon="-3.14845600">
        <ele>929.00000</ele>
        <time>2010-01-01T02:09:34Z</time>
      </trkpt>
      <trkpt lat="40.94196100" lon="-3.14823900">
        <ele>931.00000</ele>
        <time>2010-01-01T02:09:41Z</time>
      </trkpt>
      <trkpt lat="40.94194700" lon="-3.14811500">
        <ele>931.00000</ele>
        <time>2010-01-01T02:09:45Z</time>
      </trkpt>
      <trkpt lat="40.94192500" lon="-3.14805100">
        <ele>932.00000</ele>
        <time>2010-01-01T02:09:47Z</time>
      </trkpt>
      <trkpt lat="40.94193300" lon="-3.14798000">
        <ele>932.00000</ele>
        <time>2010-01-01T02:09:49Z</time>
      </trkpt>
      <trkpt lat="40.94197300" lon="-3.14796600">
        <ele>932.00000</ele>
        <time>2010-01-01T02:09:51Z</time>
      </trkpt>
      <trkpt lat="40.94195700" lon="-3.14793600">
        <ele>932.00000</ele>
        <time>2010-01-01T02:09:52Z</time>
      </trkpt>
      <trkpt lat="40.94194600" lon="-3.14792400">
        <ele>932.00000</ele>
        <time>2010-01-01T02:09:52Z</time>
      </trkpt>
      <trkpt lat="40.94192500" lon="-3.14786300">
        <ele>933.00000</ele>
        <time>2010-01-01T02:09:54Z</time>
      </trkpt>
      <trkpt lat="40.94193200" lon="-3.14781400">
        <ele>933.00000</ele>
        <time>2010-01-01T02:09:56Z</time>
      </trkpt>
      <trkpt lat="40.94193900" lon="-3.14778600">
        <ele>933.00000</ele>
        <time>2010-01-01T02:09:57Z</time>
      </trkpt>
      <trkpt lat="40.94192400" lon="-3.14778400">
        <ele>933.00000</ele>
        <time>2010-01-01T02:09:57Z</time>
      </trkpt>
      <trkpt lat="40.94190800" lon="-3.14781200">
        <ele>933.00000</ele>
        <time>2010-01-01T02:09:58Z</time>
      </trkpt>
      <trkpt lat="40.94190000" lon="-3.14780600">
        <ele>933.00000</ele>
        <time>2010-01-01T02:09:59Z</time>
      </trkpt>
      <trkpt lat="40.94191400" lon="-3.14779300">
        <ele>933.00000</ele>
        <time>2010-01-01T02:09:59Z</time>
      </trkpt>
      <trkpt lat="40.94198100" lon="-3.14784000">
        <ele>933.00000</ele>
        <time>2010-01-01T02:10:03Z</time>
      </trkpt>
      <trkpt lat="40.94209600" lon="-3.14794600">
        <ele>932.00000</ele>
        <time>2010-01-01T02:10:08Z</time>
      </trkpt>
      <trkpt lat="40.94212800" lon="-3.14808000">
        <ele>931.00000</ele>
        <time>2010-01-01T02:10:12Z</time>
      </trkpt>
      <trkpt lat="40.94213300" lon="-3.14802900">
        <ele>931.00000</ele>
        <time>2010-01-01T02:10:14Z</time>
      </trkpt>
      <trkpt lat="40.94212300" lon="-3.14796300">
        <ele>932.00000</ele>
        <time>2010-01-01T02:10:16Z</time>
      </trkpt>
      <trkpt lat="40.94212500" lon="-3.14797600">
        <ele>932.00000</ele>
        <time>2010-01-01T02:10:16Z</time>
      </trkpt>
      <trkpt lat="40.94202200" lon="-3.14785900">
        <ele>933.00000</ele>
        <time>2010-01-01T02:10:22Z</time>
      </trkpt>
      <trkpt lat="40.94193800" lon="-3.14778400">
        <ele>933.00000</ele>
        <time>2010-01-01T02:10:26Z</time>
      </trkpt>
      <trkpt lat="40.94194000" lon="-3.14775800">
        <ele>933.00000</ele>
        <time>2010-01-01T02:10:27Z</time>
      </trkpt>
      <trkpt lat="40.94194800" lon="-3.14777100">
        <ele>933.00000</ele>
        <time>2010-01-01T02:10:27Z</time>
      </trkpt>
      <trkpt lat="40.94194300" lon="-3.14777200">
        <ele>933.00000</ele>
        <time>2010-01-01T02:10:27Z</time>
      </trkpt>
      <trkpt lat="40.94197200" lon="-3.14781100">
        <ele>933.00000</ele>
        <time>2010-01-01T02:10:29Z</time>
      </trkpt>
      <trkpt lat="40.94204800" lon="-3.14785300">
        <ele>933.00000</ele>
        <time>2010-01-01T02:10:32Z</time>
      </trkpt>
      <trkpt lat="40.94204700" lon="-3.14785100">
        <ele>933.00000</ele>
        <time>2010-01-01T02:10:32Z</time>
      </trkpt>
      <trkpt lat="40.94192800" lon="-3.14787600">
        <ele>933.00000</ele>
        <time>2010-01-01T02:10:37Z</time>
      </trkpt>
      <trkpt lat="40.94191700" lon="-3.14788900">
        <ele>933.00000</ele>
        <time>2010-01-01T02:10:38Z</time>
      </trkpt>
      <trkpt lat="40.94204800" lon="-3.14786600">
        <ele>933.00000</ele>
        <time>2010-01-01T02:10:43Z</time>
      </trkpt>
      <trkpt lat="40.94217500" lon="-3.14788800">
        <ele>933.00000</ele>
        <time>2010-01-01T02:10:48Z</time>
      </trkpt>
      <trkpt lat="40.94218200" lon="-3.14788400">
        <ele>933.00000</ele>
        <time>2010-01-01T02:10:49Z</time>
      </trkpt>
      <trkpt lat="40.94221000" lon="-3.14792000">
        <ele>933.00000</ele>
        <time>2010-01-01T02:10:50Z</time>
      </trkpt>
      <trkpt lat="40.94221900" lon="-3.14794200">
        <ele>933.00000</ele>
        <time>2010-01-01T02:10:51Z</time>
      </trkpt>
      <trkpt lat="40.94234700" lon="-3.14801700">
        <ele>933.00000</ele>
        <time>2010-01-01T02:10:56Z</time>
      </trkpt>
      <trkpt lat="40.94266900" lon="-3.14821300">
        <ele>935.00000</ele>
        <time>2010-01-01T02:11:11Z</time>
      </trkpt>
      <trkpt lat="40.94290100" lon="-3.14825200">
        <ele>938.00000</ele>
        <time>2010-01-01T02:11:20Z</time>
      </trkpt>
      <trkpt lat="40.94310900" lon="-3.14794100">
        <ele>943.00000</ele>
        <time>2010-01-01T02:11:33Z</time>
      </trkpt>
      <trkpt lat="40.94312800" lon="-3.14786300">
        <ele>944.00000</ele>
        <time>2010-01-01T02:11:35Z</time>
      </trkpt>
      <trkpt lat="40.94312600" lon="-3.14784800">
        <ele>944.00000</ele>
        <time>2010-01-01T02:11:35Z</time>
      </trkpt>
      <trkpt lat="40.94322900" lon="-3.14751700">
        <ele>947.00000</ele>
        <time>2010-01-01T02:11:46Z</time>
      </trkpt>
      <trkpt lat="40.94333100" lon="-3.14731900">
        <ele>947.00000</ele>
        <time>2010-01-01T02:11:54Z</time>
      </trkpt>
      <trkpt lat="40.94355800" lon="-3.14694700">
        <ele>948.00000</ele>
        <time>2010-01-01T02:12:08Z</time>
      </trkpt>
      <trkpt lat="40.94362200" lon="-3.14675300">
        <ele>950.00000</ele>
        <time>2010-01-01T02:12:14Z</time>
      </trkpt>
      <trkpt lat="40.94378000" lon="-3.14625500">
        <ele>955.00000</ele>
        <time>2010-01-01T02:12:31Z</time>
      </trkpt>
      <trkpt lat="40.94389900" lon="-3.14577000">
        <ele>957.00000</ele>
        <time>2010-01-01T02:12:46Z</time>
      </trkpt>
      <trkpt lat="40.94389700" lon="-3.14562400">
        <ele>958.00000</ele>
        <time>2010-01-01T02:12:51Z</time>
      </trkpt>
      <trkpt lat="40.94393400" lon="-3.14544500">
        <ele>960.00000</ele>
        <time>2010-01-01T02:12:56Z</time>
      </trkpt>
      <trkpt lat="40.94409400" lon="-3.14491300">
        <ele>963.00000</ele>
        <time>2010-01-01T02:13:13Z</time>
      </trkpt>
      <trkpt lat="40.94416700" lon="-3.14477900">
        <ele>963.00000</ele>
        <time>2010-01-01T02:13:18Z</time>
      </trkpt>
      <trkpt lat="40.94425800" lon="-3.14449300">
        <ele>966.00000</ele>
        <time>2010-01-01T02:13:28Z</time>
      </trkpt>
      <trkpt lat="40.94430200" lon="-3.14417700">
        <ele>968.00000</ele>
        <time>2010-01-01T02:13:38Z</time>
      </trkpt>
      <trkpt lat="40.94446100" lon="-3.14330100">
        <ele>970.00000</ele>
        <time>2010-01-01T02:14:05Z</time>
      </trkpt>
      <trkpt lat="40.94456900" lon="-3.14274300">
        <ele>975.00000</ele>
        <time>2010-01-01T02:14:22Z</time>
      </trkpt>
      <trkpt lat="40.94458900" lon="-3.14250800">
        <ele>977.00000</ele>
        <time>2010-01-01T02:14:29Z</time>
      </trkpt>
      <trkpt lat="40.94459900" lon="-3.14225900">
        <ele>979.00000</ele>
        <time>2010-01-01T02:14:37Z</time>
      </trkpt>
      <trkpt lat="40.94470600" lon="-3.14198300">
        <ele>979.00000</ele>
        <time>2010-01-01T02:14:46Z</time>
      </trkpt>
      <trkpt lat="40.94475300" lon="-3.14194200">
        <ele>979.00000</ele>
        <time>2010-01-01T02:14:49Z</time>
      </trkpt>
      <trkpt lat="40.94512400" lon="-3.14173600">
        <ele>981.00000</ele>
        <time>2010-01-01T02:15:05Z</time>
      </trkpt>
      <trkpt lat="40.94532800" lon="-3.14164500">
        <ele>981.00000</ele>
        <time>2010-01-01T02:15:13Z</time>
      </trkpt>
      <trkpt lat="40.94543900" lon="-3.14160700">
        <ele>981.00000</ele>
        <time>2010-01-01T02:15:18Z</time>
      </trkpt>
      <trkpt lat="40.94569500" lon="-3.14143700">
        <ele>983.00000</ele>
        <time>2010-01-01T02:15:29Z</time>
      </trkpt>
      <trkpt lat="40.94591900" lon="-3.14117100">
        <ele>987.00000</ele>
        <time>2010-01-01T02:15:41Z</time>
      </trkpt>
      <trkpt lat="40.94597900" lon="-3.14110800">
        <ele>989.00000</ele>
        <time>2010-01-01T02:15:44Z</time>
      </trkpt>
      <trkpt lat="40.94630700" lon="-3.14111400">
        <ele>992.00000</ele>
        <time>2010-01-01T02:15:58Z</time>
      </trkpt>
      <trkpt lat="40.94657200" lon="-3.14135100">
        <ele>994.00000</ele>
        <time>2010-01-01T02:16:10Z</time>
      </trkpt>
      <trkpt lat="40.94670200" lon="-3.14184800">
        <ele>995.00000</ele>
        <time>2010-01-01T02:16:26Z</time>
      </trkpt>
      <trkpt lat="40.94676800" lon="-3.14212100">
        <ele>995.00000</ele>
        <time>2010-01-01T02:16:35Z</time>
      </trkpt>
      <trkpt lat="40.94685600" lon="-3.14263400">
        <ele>996.00000</ele>
        <time>2010-01-01T02:16:51Z</time>
      </trkpt>
      <trkpt lat="40.94697000" lon="-3.14336500">
        <ele>999.00000</ele>
        <time>2010-01-01T02:17:13Z</time>
      </trkpt>
      <trkpt lat="40.94706300" lon="-3.14359500">
        <ele>1000.0000</ele>
        <time>2010-01-01T02:17:21Z</time>
      </trkpt>
      <trkpt lat="40.94720600" lon="-3.14368300">
        <ele>1002.0000</ele>
        <time>2010-01-01T02:17:28Z</time>
      </trkpt>
      <trkpt lat="40.94725700" lon="-3.14369300">
        <ele>1002.0000</ele>
        <time>2010-01-01T02:17:30Z</time>
      </trkpt>
      <trkpt lat="40.94773700" lon="-3.14376300">
        <ele>997.00000</ele>
        <time>2010-01-01T02:17:49Z</time>
      </trkpt>
      <trkpt lat="40.94794500" lon="-3.14358600">
        <ele>996.00000</ele>
        <time>2010-01-01T02:17:59Z</time>
      </trkpt>
      <trkpt lat="40.94795300" lon="-3.14335300">
        <ele>999.00000</ele>
        <time>2010-01-01T02:18:06Z</time>
      </trkpt>
      <trkpt lat="40.94796900" lon="-3.14306600">
        <ele>1002.0000</ele>
        <time>2010-01-01T02:18:15Z</time>
      </trkpt>
      <trkpt lat="40.94798100" lon="-3.14280500">
        <ele>1002.0000</ele>
        <time>2010-01-01T02:18:23Z</time>
      </trkpt>
      <trkpt lat="40.94797800" lon="-3.14271700">
        <ele>1003.0000</ele>
        <time>2010-01-01T02:18:25Z</time>
      </trkpt>
      <trkpt lat="40.94797100" lon="-3.14229300">
        <ele>1004.0000</ele>
        <time>2010-01-01T02:18:38Z</time>
      </trkpt>
      <trkpt lat="40.94794800" lon="-3.14197400">
        <ele>1006.0000</ele>
        <time>2010-01-01T02:18:48Z</time>
      </trkpt>
      <trkpt lat="40.94793800" lon="-3.14187500">
        <ele>1006.0000</ele>
        <time>2010-01-01T02:18:51Z</time>
      </trkpt>
      <trkpt lat="40.94803200" lon="-3.14166100">
        <ele>1006.0000</ele>
        <time>2010-01-01T02:18:58Z</time>
      </trkpt>
      <trkpt lat="40.94821500" lon="-3.14150500">
        <ele>1007.0000</ele>
        <time>2010-01-01T02:19:07Z</time>
      </trkpt>
      <trkpt lat="40.94826500" lon="-3.14154200">
        <ele>1007.0000</ele>
        <time>2010-01-01T02:19:09Z</time>
      </trkpt>
      <trkpt lat="40.94833900" lon="-3.14161600">
        <ele>1006.0000</ele>
        <time>2010-01-01T02:19:13Z</time>
      </trkpt>
      <trkpt lat="40.94865200" lon="-3.14194100">
        <ele>1001.0000</ele>
        <time>2010-01-01T02:19:29Z</time>
      </trkpt>
      <trkpt lat="40.94893800" lon="-3.14214400">
        <ele>998.00000</ele>
        <time>2010-01-01T02:19:42Z</time>
      </trkpt>
      <trkpt lat="40.94900300" lon="-3.14223900">
        <ele>998.00000</ele>
        <time>2010-01-01T02:19:46Z</time>
      </trkpt>
      <trkpt lat="40.94909100" lon="-3.14258100">
        <ele>998.00000</ele>
        <time>2010-01-01T02:19:57Z</time>
      </trkpt>
      <trkpt lat="40.94919800" lon="-3.14268700">
        <ele>997.00000</ele>
        <time>2010-01-01T02:20:02Z</time>
      </trkpt>
      <trkpt lat="40.94981800" lon="-3.14303200">
        <ele>992.00000</ele>
        <time>2010-01-01T02:20:29Z</time>
      </trkpt>
      <trkpt lat="40.95013800" lon="-3.14326200">
        <ele>986.00000</ele>
        <time>2010-01-01T02:20:44Z</time>
      </trkpt>
      <trkpt lat="40.95034600" lon="-3.14353700">
        <ele>984.00000</ele>
        <time>2010-01-01T02:20:55Z</time>
      </trkpt>
      <trkpt lat="40.95049400" lon="-3.14364300">
        <ele>982.00000</ele>
        <time>2010-01-01T02:21:02Z</time>
      </trkpt>
      <trkpt lat="40.95061300" lon="-3.14364800">
        <ele>980.00000</ele>
        <time>2010-01-01T02:21:07Z</time>
      </trkpt>
      <trkpt lat="40.95082400" lon="-3.14363400">
        <ele>976.00000</ele>
        <time>2010-01-01T02:21:15Z</time>
      </trkpt>
      <trkpt lat="40.95104600" lon="-3.14362400">
        <ele>972.00000</ele>
        <time>2010-01-01T02:21:24Z</time>
      </trkpt>
      <trkpt lat="40.95139200" lon="-3.14359800">
        <ele>970.00000</ele>
        <time>2010-01-01T02:21:38Z</time>
      </trkpt>
      <trkpt lat="40.95153100" lon="-3.14356000">
        <ele>971.00000</ele>
        <time>2010-01-01T02:21:44Z</time>
      </trkpt>
      <trkpt lat="40.95152800" lon="-3.14348300">
        <ele>971.00000</ele>
        <time>2010-01-01T02:21:46Z</time>
      </trkpt>
      <trkpt lat="40.95152600" lon="-3.14332100">
        <ele>970.00000</ele>
        <time>2010-01-01T02:21:51Z</time>
      </trkpt>
      <trkpt lat="40.95153500" lon="-3.14316900">
        <ele>969.00000</ele>
        <time>2010-01-01T02:21:56Z</time>
      </trkpt>
      <trkpt lat="40.95158800" lon="-3.14285300">
        <ele>969.00000</ele>
        <time>2010-01-01T02:22:05Z</time>
      </trkpt>
      <trkpt lat="40.95169700" lon="-3.14247800">
        <ele>967.00000</ele>
        <time>2010-01-01T02:22:17Z</time>
      </trkpt>
      <trkpt lat="40.95172500" lon="-3.14209800">
        <ele>962.00000</ele>
        <time>2010-01-01T02:22:29Z</time>
      </trkpt>
      <trkpt lat="40.95169900" lon="-3.14184200">
        <ele>959.00000</ele>
        <time>2010-01-01T02:22:37Z</time>
      </trkpt>
      <trkpt lat="40.95170500" lon="-3.14166700">
        <ele>958.00000</ele>
        <time>2010-01-01T02:22:42Z</time>
      </trkpt>
      <trkpt lat="40.95172700" lon="-3.14148700">
        <ele>957.00000</ele>
        <time>2010-01-01T02:22:48Z</time>
      </trkpt>
      <trkpt lat="40.95174200" lon="-3.14130800">
        <ele>956.00000</ele>
        <time>2010-01-01T02:22:53Z</time>
      </trkpt>
      <trkpt lat="40.95178400" lon="-3.14085700">
        <ele>952.00000</ele>
        <time>2010-01-01T02:23:07Z</time>
      </trkpt>
      <trkpt lat="40.95187200" lon="-3.14041700">
        <ele>949.00000</ele>
        <time>2010-01-01T02:23:21Z</time>
      </trkpt>
      <trkpt lat="40.95189200" lon="-3.14033200">
        <ele>948.00000</ele>
        <time>2010-01-01T02:23:23Z</time>
      </trkpt>
      <trkpt lat="40.95200500" lon="-3.13989900">
        <ele>944.00000</ele>
        <time>2010-01-01T02:23:37Z</time>
      </trkpt>
      <trkpt lat="40.95209200" lon="-3.13954000">
        <ele>940.00000</ele>
        <time>2010-01-01T02:23:49Z</time>
      </trkpt>
      <trkpt lat="40.95210500" lon="-3.13857400">
        <ele>937.00000</ele>
        <time>2010-01-01T02:24:18Z</time>
      </trkpt>
      <trkpt lat="40.95200300" lon="-3.13811400">
        <ele>936.00000</ele>
        <time>2010-01-01T02:24:32Z</time>
      </trkpt>
      <trkpt lat="40.95191900" lon="-3.13705500">
        <ele>934.00000</ele>
        <time>2010-01-01T02:25:04Z</time>
      </trkpt>
      <trkpt lat="40.95199300" lon="-3.13673600">
        <ele>933.00000</ele>
        <time>2010-01-01T02:25:15Z</time>
      </trkpt>
      <trkpt lat="40.95209200" lon="-3.13648900">
        <ele>932.00000</ele>
        <time>2010-01-01T02:25:23Z</time>
      </trkpt>
      <trkpt lat="40.95214700" lon="-3.13622900">
        <ele>931.00000</ele>
        <time>2010-01-01T02:25:31Z</time>
      </trkpt>
      <trkpt lat="40.95231000" lon="-3.13558400">
        <ele>927.00000</ele>
        <time>2010-01-01T02:25:52Z</time>
      </trkpt>
      <trkpt lat="40.95249500" lon="-3.13504300">
        <ele>922.00000</ele>
        <time>2010-01-01T02:26:10Z</time>
      </trkpt>
      <trkpt lat="40.95259400" lon="-3.13472400">
        <ele>920.00000</ele>
        <time>2010-01-01T02:26:20Z</time>
      </trkpt>
      <trkpt lat="40.95275900" lon="-3.13401700">
        <ele>920.00000</ele>
        <time>2010-01-01T02:26:42Z</time>
      </trkpt>
      <trkpt lat="40.95289500" lon="-3.13369500">
        <ele>919.00000</ele>
        <time>2010-01-01T02:26:54Z</time>
      </trkpt>
      <trkpt lat="40.95291900" lon="-3.13288600">
        <ele>918.00000</ele>
        <time>2010-01-01T02:27:18Z</time>
      </trkpt>
      <trkpt lat="40.95295900" lon="-3.13258900">
        <ele>917.00000</ele>
        <time>2010-01-01T02:27:27Z</time>
      </trkpt>
      <trkpt lat="40.95303700" lon="-3.13237400">
        <ele>915.00000</ele>
        <time>2010-01-01T02:27:34Z</time>
      </trkpt>
      <trkpt lat="40.95325500" lon="-3.13161800">
        <ele>914.00000</ele>
        <time>2010-01-01T02:27:59Z</time>
      </trkpt>
      <trkpt lat="40.95330900" lon="-3.13072700">
        <ele>910.00000</ele>
        <time>2010-01-01T02:28:26Z</time>
      </trkpt>
      <trkpt lat="40.95325100" lon="-3.13016100">
        <ele>908.00000</ele>
        <time>2010-01-01T02:28:43Z</time>
      </trkpt>
      <trkpt lat="40.95334900" lon="-3.13005700">
        <ele>907.00000</ele>
        <time>2010-01-01T02:28:48Z</time>
      </trkpt>
      <trkpt lat="40.95349900" lon="-3.12986200">
        <ele>905.00000</ele>
        <time>2010-01-01T02:28:57Z</time>
      </trkpt>
      <trkpt lat="40.95368000" lon="-3.12894900">
        <ele>903.00000</ele>
        <time>2010-01-01T02:29:25Z</time>
      </trkpt>
      <trkpt lat="40.95387600" lon="-3.12845100">
        <ele>902.00000</ele>
        <time>2010-01-01T02:29:42Z</time>
      </trkpt>
      <trkpt lat="40.95452000" lon="-3.12774800">
        <ele>900.00000</ele>
        <time>2010-01-01T02:30:16Z</time>
      </trkpt>
      <trkpt lat="40.95518500" lon="-3.12698000">
        <ele>903.00000</ele>
        <time>2010-01-01T02:30:51Z</time>
      </trkpt>
      <trkpt lat="40.95536600" lon="-3.12659400">
        <ele>906.00000</ele>
        <time>2010-01-01T02:31:05Z</time>
      </trkpt>
      <trkpt lat="40.95554900" lon="-3.12611200">
        <ele>907.00000</ele>
        <time>2010-01-01T02:31:21Z</time>
      </trkpt>
      <trkpt lat="40.95562300" lon="-3.12591800">
        <ele>909.00000</ele>
        <time>2010-01-01T02:31:27Z</time>
      </trkpt>
      <trkpt lat="40.95583200" lon="-3.12524900">
        <ele>910.00000</ele>
        <time>2010-01-01T02:31:49Z</time>
      </trkpt>
      <trkpt lat="40.95585400" lon="-3.12510700">
        <ele>909.00000</ele>
        <time>2010-01-01T02:31:54Z</time>
      </trkpt>
      <trkpt lat="40.95587600" lon="-3.12495700">
        <ele>908.00000</ele>
        <time>2010-01-01T02:31:58Z</time>
      </trkpt>
      <trkpt lat="40.95589100" lon="-3.12487800">
        <ele>907.00000</ele>
        <time>2010-01-01T02:32:01Z</time>
      </trkpt>
      <trkpt lat="40.95615900" lon="-3.12444300">
        <ele>904.00000</ele>
        <time>2010-01-01T02:32:18Z</time>
      </trkpt>
      <trkpt lat="40.95638000" lon="-3.12429000">
        <ele>902.00000</ele>
        <time>2010-01-01T02:32:28Z</time>
      </trkpt>
      <trkpt lat="40.95686000" lon="-3.12395900">
        <ele>903.00000</ele>
        <time>2010-01-01T02:32:49Z</time>
      </trkpt>
      <trkpt lat="40.95750300" lon="-3.12365600">
        <ele>908.00000</ele>
        <time>2010-01-01T02:33:17Z</time>
      </trkpt>
      <trkpt lat="40.95771400" lon="-3.12363900">
        <ele>909.00000</ele>
        <time>2010-01-01T02:33:25Z</time>
      </trkpt>
      <trkpt lat="40.95796900" lon="-3.12356400">
        <ele>910.00000</ele>
        <time>2010-01-01T02:33:36Z</time>
      </trkpt>
      <trkpt lat="40.95820600" lon="-3.12337700">
        <ele>911.00000</ele>
        <time>2010-01-01T02:33:47Z</time>
      </trkpt>
      <trkpt lat="40.95846500" lon="-3.12314100">
        <ele>914.00000</ele>
        <time>2010-01-01T02:33:59Z</time>
      </trkpt>
      <trkpt lat="40.95832400" lon="-3.12326800">
        <ele>912.00000</ele>
        <time>2010-01-01T02:34:06Z</time>
      </trkpt>
      <trkpt lat="40.95835400" lon="-3.12323100">
        <ele>913.00000</ele>
        <time>2010-01-01T02:34:08Z</time>
      </trkpt>
      <trkpt lat="40.95834300" lon="-3.12318800">
        <ele>913.00000</ele>
        <time>2010-01-01T02:34:09Z</time>
      </trkpt>
      <trkpt lat="40.95828300" lon="-3.12318200">
        <ele>912.00000</ele>
        <time>2010-01-01T02:34:12Z</time>
      </trkpt>
      <trkpt lat="40.95818700" lon="-3.12318300">
        <ele>911.00000</ele>
        <time>2010-01-01T02:34:15Z</time>
      </trkpt>
      <trkpt lat="40.95773300" lon="-3.12317900">
        <ele>908.00000</ele>
        <time>2010-01-01T02:34:34Z</time>
      </trkpt>
      <trkpt lat="40.95714000" lon="-3.12314900">
        <ele>907.00000</ele>
        <time>2010-01-01T02:34:57Z</time>
      </trkpt>
      <trkpt lat="40.95647500" lon="-3.12330600">
        <ele>903.00000</ele>
        <time>2010-01-01T02:35:24Z</time>
      </trkpt>
      <trkpt lat="40.95623200" lon="-3.12333200">
        <ele>899.00000</ele>
        <time>2010-01-01T02:35:34Z</time>
      </trkpt>
      <trkpt lat="40.95576000" lon="-3.12340900">
        <ele>896.00000</ele>
        <time>2010-01-01T02:35:53Z</time>
      </trkpt>
      <trkpt lat="40.95524000" lon="-3.12374500">
        <ele>895.00000</ele>
        <time>2010-01-01T02:36:16Z</time>
      </trkpt>
      <trkpt lat="40.95506400" lon="-3.12379400">
        <ele>894.00000</ele>
        <time>2010-01-01T02:36:24Z</time>
      </trkpt>
      <trkpt lat="40.95430200" lon="-3.12369200">
        <ele>890.00000</ele>
        <time>2010-01-01T02:36:54Z</time>
      </trkpt>
      <trkpt lat="40.95390500" lon="-3.12359100">
        <ele>890.00000</ele>
        <time>2010-01-01T02:37:10Z</time>
      </trkpt>
      <trkpt lat="40.95380200" lon="-3.12349200">
        <ele>889.00000</ele>
        <time>2010-01-01T02:37:15Z</time>
      </trkpt>
      <trkpt lat="40.95380500" lon="-3.12345000">
        <ele>889.00000</ele>
        <time>2010-01-01T02:37:17Z</time>
      </trkpt>
      <trkpt lat="40.95389500" lon="-3.12282100">
        <ele>889.00000</ele>
        <time>2010-01-01T02:37:36Z</time>
      </trkpt>
      <trkpt lat="40.95394400" lon="-3.12189700">
        <ele>885.00000</ele>
        <time>2010-01-01T02:38:04Z</time>
      </trkpt>
      <trkpt lat="40.95399800" lon="-3.12104000">
        <ele>882.00000</ele>
        <time>2010-01-01T02:38:30Z</time>
      </trkpt>
      <trkpt lat="40.95399800" lon="-3.12075400">
        <ele>881.00000</ele>
        <time>2010-01-01T02:38:39Z</time>
      </trkpt>
      <trkpt lat="40.95403700" lon="-3.12058200">
        <ele>881.00000</ele>
        <time>2010-01-01T02:38:44Z</time>
      </trkpt>
      <trkpt lat="40.95404300" lon="-3.12022200">
        <ele>880.00000</ele>
        <time>2010-01-01T02:38:55Z</time>
      </trkpt>
      <trkpt lat="40.95400400" lon="-3.12003100">
        <ele>879.00000</ele>
        <time>2010-01-01T02:39:01Z</time>
      </trkpt>
      <trkpt lat="40.95397200" lon="-3.11940700">
        <ele>878.00000</ele>
        <time>2010-01-01T02:39:20Z</time>
      </trkpt>
      <trkpt lat="40.95406200" lon="-3.11889800">
        <ele>877.00000</ele>
        <time>2010-01-01T02:39:36Z</time>
      </trkpt>
      <trkpt lat="40.95427500" lon="-3.11781600">
        <ele>875.00000</ele>
        <time>2010-01-01T02:40:10Z</time>
      </trkpt>
      <trkpt lat="40.95461100" lon="-3.11673800">
        <ele>875.00000</ele>
        <time>2010-01-01T02:40:45Z</time>
      </trkpt>
      <trkpt lat="40.95505000" lon="-3.11564200">
        <ele>871.00000</ele>
        <time>2010-01-01T02:41:22Z</time>
      </trkpt>
      <trkpt lat="40.95535200" lon="-3.11482700">
        <ele>871.00000</ele>
        <time>2010-01-01T02:41:50Z</time>
      </trkpt>
      <trkpt lat="40.95577600" lon="-3.11380300">
        <ele>870.00000</ele>
        <time>2010-01-01T02:42:25Z</time>
      </trkpt>
      <trkpt lat="40.95605600" lon="-3.11282000">
        <ele>871.00000</ele>
        <time>2010-01-01T02:42:57Z</time>
      </trkpt>
      <trkpt lat="40.95623300" lon="-3.11184200">
        <ele>870.00000</ele>
        <time>2010-01-01T02:43:27Z</time>
      </trkpt>
      <trkpt lat="40.95636000" lon="-3.11081000">
        <ele>866.00000</ele>
        <time>2010-01-01T02:43:59Z</time>
      </trkpt>
      <trkpt lat="40.95642800" lon="-3.10980100">
        <ele>865.00000</ele>
        <time>2010-01-01T02:44:29Z</time>
      </trkpt>
      <trkpt lat="40.95642900" lon="-3.10938100">
        <ele>865.00000</ele>
        <time>2010-01-01T02:44:42Z</time>
      </trkpt>
      <trkpt lat="40.95652900" lon="-3.10930100">
        <ele>865.00000</ele>
        <time>2010-01-01T02:44:47Z</time>
      </trkpt>
      <trkpt lat="40.95669800" lon="-3.10929800">
        <ele>866.00000</ele>
        <time>2010-01-01T02:44:54Z</time>
      </trkpt>
      <trkpt lat="40.95676900" lon="-3.10929400">
        <ele>866.00000</ele>
        <time>2010-01-01T02:44:56Z</time>
      </trkpt>
      <trkpt lat="40.95706200" lon="-3.10928200">
        <ele>868.00000</ele>
        <time>2010-01-01T02:45:08Z</time>
      </trkpt>
      <trkpt lat="40.95743600" lon="-3.10929900">
        <ele>868.00000</ele>
        <time>2010-01-01T02:45:23Z</time>
      </trkpt>
      <trkpt lat="40.95757200" lon="-3.10935500">
        <ele>868.00000</ele>
        <time>2010-01-01T02:45:29Z</time>
      </trkpt>
      <trkpt lat="40.95784700" lon="-3.10960300">
        <ele>868.00000</ele>
        <time>2010-01-01T02:45:42Z</time>
      </trkpt>
      <trkpt lat="40.95858400" lon="-3.11031400">
        <ele>867.00000</ele>
        <time>2010-01-01T02:46:19Z</time>
      </trkpt>
      <trkpt lat="40.95886200" lon="-3.11047700">
        <ele>868.00000</ele>
        <time>2010-01-01T02:46:31Z</time>
      </trkpt>
      <trkpt lat="40.95913600" lon="-3.11047200">
        <ele>871.00000</ele>
        <time>2010-01-01T02:46:42Z</time>
      </trkpt>
      <trkpt lat="40.95919500" lon="-3.11039500">
        <ele>872.00000</ele>
        <time>2010-01-01T02:46:45Z</time>
      </trkpt>
      <trkpt lat="40.95909600" lon="-3.11031100">
        <ele>871.00000</ele>
        <time>2010-01-01T02:46:50Z</time>
      </trkpt>
      <trkpt lat="40.95890500" lon="-3.11009600">
        <ele>870.00000</ele>
        <time>2010-01-01T02:47:00Z</time>
      </trkpt>
      <trkpt lat="40.95876200" lon="-3.10975900">
        <ele>870.00000</ele>
        <time>2010-01-01T02:47:12Z</time>
      </trkpt>
      <trkpt lat="40.95854200" lon="-3.10905700">
        <ele>867.00000</ele>
        <time>2010-01-01T02:47:35Z</time>
      </trkpt>
      <trkpt lat="40.95850200" lon="-3.10887100">
        <ele>866.00000</ele>
        <time>2010-01-01T02:47:40Z</time>
      </trkpt>
      <trkpt lat="40.95841600" lon="-3.10846700">
        <ele>865.00000</ele>
        <time>2010-01-01T02:47:53Z</time>
      </trkpt>
      <trkpt lat="40.95821400" lon="-3.10728200">
        <ele>868.00000</ele>
        <time>2010-01-01T02:48:30Z</time>
      </trkpt>
      <trkpt lat="40.95805700" lon="-3.10638400">
        <ele>868.00000</ele>
        <time>2010-01-01T02:48:58Z</time>
      </trkpt>
      <trkpt lat="40.95790100" lon="-3.10555800">
        <ele>868.00000</ele>
        <time>2010-01-01T02:49:23Z</time>
      </trkpt>
      <trkpt lat="40.95759900" lon="-3.10432400">
        <ele>863.00000</ele>
        <time>2010-01-01T02:50:03Z</time>
      </trkpt>
      <trkpt lat="40.95752200" lon="-3.10387500">
        <ele>864.00000</ele>
        <time>2010-01-01T02:50:17Z</time>
      </trkpt>
      <trkpt lat="40.95740700" lon="-3.10360700">
        <ele>864.00000</ele>
        <time>2010-01-01T02:50:26Z</time>
      </trkpt>
      <trkpt lat="40.95735800" lon="-3.10356000">
        <ele>864.00000</ele>
        <time>2010-01-01T02:50:28Z</time>
      </trkpt>
      <trkpt lat="40.95647200" lon="-3.10266800">
        <ele>863.00000</ele>
        <time>2010-01-01T02:51:13Z</time>
      </trkpt>
      <trkpt lat="40.95629500" lon="-3.10249400">
        <ele>861.00000</ele>
        <time>2010-01-01T02:51:22Z</time>
      </trkpt>
      <trkpt lat="40.95620900" lon="-3.10241100">
        <ele>860.00000</ele>
        <time>2010-01-01T02:51:26Z</time>
      </trkpt>
      <trkpt lat="40.95599600" lon="-3.10173400">
        <ele>857.00000</ele>
        <time>2010-01-01T02:51:48Z</time>
      </trkpt>
      <trkpt lat="40.95601200" lon="-3.10144700">
        <ele>859.00000</ele>
        <time>2010-01-01T02:51:57Z</time>
      </trkpt>
      <trkpt lat="40.95615600" lon="-3.09969600">
        <ele>855.00000</ele>
        <time>2010-01-01T02:52:50Z</time>
      </trkpt>
      <trkpt lat="40.95612900" lon="-3.09900600">
        <ele>855.00000</ele>
        <time>2010-01-01T02:53:11Z</time>
      </trkpt>
      <trkpt lat="40.95561800" lon="-3.09680300">
        <ele>853.00000</ele>
        <time>2010-01-01T02:54:21Z</time>
      </trkpt>
      <trkpt lat="40.95539500" lon="-3.09619700">
        <ele>850.00000</ele>
        <time>2010-01-01T02:54:41Z</time>
      </trkpt>
      <trkpt lat="40.95495300" lon="-3.09557100">
        <ele>847.00000</ele>
        <time>2010-01-01T02:55:07Z</time>
      </trkpt>
      <trkpt lat="40.95405400" lon="-3.09433200">
        <ele>847.00000</ele>
        <time>2010-01-01T02:55:59Z</time>
      </trkpt>
      <trkpt lat="40.95333300" lon="-3.09299900">
        <ele>845.00000</ele>
        <time>2010-01-01T02:56:48Z</time>
      </trkpt>
      <trkpt lat="40.95283400" lon="-3.09199200">
        <ele>842.00000</ele>
        <time>2010-01-01T02:57:25Z</time>
      </trkpt>
      <trkpt lat="40.95276800" lon="-3.09180700">
        <ele>843.00000</ele>
        <time>2010-01-01T02:57:31Z</time>
      </trkpt>
      <trkpt lat="40.95263300" lon="-3.09160000">
        <ele>844.00000</ele>
        <time>2010-01-01T02:57:39Z</time>
      </trkpt>
      <trkpt lat="40.95256900" lon="-3.09159700">
        <ele>845.00000</ele>
        <time>2010-01-01T02:57:42Z</time>
      </trkpt>
      <trkpt lat="40.95221100" lon="-3.09160900">
        <ele>844.00000</ele>
        <time>2010-01-01T02:57:56Z</time>
      </trkpt>
      <trkpt lat="40.95209800" lon="-3.09159100">
        <ele>843.00000</ele>
        <time>2010-01-01T02:58:01Z</time>
      </trkpt>
      <trkpt lat="40.95151200" lon="-3.09124000">
        <ele>838.00000</ele>
        <time>2010-01-01T02:58:26Z</time>
      </trkpt>
      <trkpt lat="40.95096100" lon="-3.09039500">
        <ele>836.00000</ele>
        <time>2010-01-01T02:59:00Z</time>
      </trkpt>
      <trkpt lat="40.95086500" lon="-3.09006200">
        <ele>838.00000</ele>
        <time>2010-01-01T02:59:11Z</time>
      </trkpt>
      <trkpt lat="40.95080300" lon="-3.08940900">
        <ele>839.00000</ele>
        <time>2010-01-01T02:59:31Z</time>
      </trkpt>
      <trkpt lat="40.95082200" lon="-3.08890500">
        <ele>837.00000</ele>
        <time>2010-01-01T02:59:46Z</time>
      </trkpt>
      <trkpt lat="40.95082000" lon="-3.08873300">
        <ele>838.00000</ele>
        <time>2010-01-01T02:59:51Z</time>
      </trkpt>
      <trkpt lat="40.95071000" lon="-3.08803300">
        <ele>841.00000</ele>
        <time>2010-01-01T03:00:13Z</time>
      </trkpt>
      <trkpt lat="40.95059700" lon="-3.08771500">
        <ele>841.00000</ele>
        <time>2010-01-01T03:00:24Z</time>
      </trkpt>
      <trkpt lat="40.95046800" lon="-3.08743500">
        <ele>843.00000</ele>
        <time>2010-01-01T03:00:34Z</time>
      </trkpt>
      <trkpt lat="40.94977200" lon="-3.08647800">
        <ele>845.00000</ele>
        <time>2010-01-01T03:01:14Z</time>
      </trkpt>
      <trkpt lat="40.94951900" lon="-3.08580500">
        <ele>839.00000</ele>
        <time>2010-01-01T03:01:36Z</time>
      </trkpt>
      <trkpt lat="40.94943600" lon="-3.08559000">
        <ele>839.00000</ele>
        <time>2010-01-01T03:01:44Z</time>
      </trkpt>
      <trkpt lat="40.94896300" lon="-3.08537800">
        <ele>850.00000</ele>
        <time>2010-01-01T03:02:04Z</time>
      </trkpt>
      <trkpt lat="40.94864900" lon="-3.08544800">
        <ele>853.00000</ele>
        <time>2010-01-01T03:02:16Z</time>
      </trkpt>
      <trkpt lat="40.94796300" lon="-3.08597000">
        <ele>856.00000</ele>
        <time>2010-01-01T03:02:48Z</time>
      </trkpt>
      <trkpt lat="40.94789200" lon="-3.08615800">
        <ele>857.00000</ele>
        <time>2010-01-01T03:02:54Z</time>
      </trkpt>
      <trkpt lat="40.94791400" lon="-3.08621600">
        <ele>858.00000</ele>
        <time>2010-01-01T03:02:56Z</time>
      </trkpt>
      <trkpt lat="40.94794100" lon="-3.08625100">
        <ele>858.00000</ele>
        <time>2010-01-01T03:02:58Z</time>
      </trkpt>
      <trkpt lat="40.94810300" lon="-3.08655800">
        <ele>859.00000</ele>
        <time>2010-01-01T03:03:09Z</time>
      </trkpt>
      <trkpt lat="40.94824900" lon="-3.08690700">
        <ele>860.00000</ele>
        <time>2010-01-01T03:03:21Z</time>
      </trkpt>
      <trkpt lat="40.94827200" lon="-3.08706400">
        <ele>860.00000</ele>
        <time>2010-01-01T03:03:26Z</time>
      </trkpt>
      <trkpt lat="40.94822600" lon="-3.08711200">
        <ele>861.00000</ele>
        <time>2010-01-01T03:03:29Z</time>
      </trkpt>
      <trkpt lat="40.94815800" lon="-3.08717500">
        <ele>863.00000</ele>
        <time>2010-01-01T03:03:32Z</time>
      </trkpt>
      <trkpt lat="40.94808700" lon="-3.08728600">
        <ele>865.00000</ele>
        <time>2010-01-01T03:03:36Z</time>
      </trkpt>
      <trkpt lat="40.94802500" lon="-3.08739000">
        <ele>867.00000</ele>
        <time>2010-01-01T03:03:40Z</time>
      </trkpt>
      <trkpt lat="40.94800900" lon="-3.08741900">
        <ele>868.00000</ele>
        <time>2010-01-01T03:03:41Z</time>
      </trkpt>
      <trkpt lat="40.94791800" lon="-3.08755700">
        <ele>871.00000</ele>
        <time>2010-01-01T03:03:47Z</time>
      </trkpt>
      <trkpt lat="40.94781400" lon="-3.08776100">
        <ele>874.00000</ele>
        <time>2010-01-01T03:03:54Z</time>
      </trkpt>
      <trkpt lat="40.94780400" lon="-3.08782900">
        <ele>874.00000</ele>
        <time>2010-01-01T03:03:56Z</time>
      </trkpt>
      <trkpt lat="40.94979800" lon="-3.08643300">
        <ele>844.00000</ele>
        <time>2010-01-01T00:00:00Z</time>
      </trkpt>
      <trkpt lat="40.94973000" lon="-3.08632400">
        <ele>842.00000</ele>
        <time>2010-01-01T00:00:04Z</time>
      </trkpt>
      <trkpt lat="40.94966200" lon="-3.08616600">
        <ele>840.00000</ele>
        <time>2010-01-01T00:00:09Z</time>
      </trkpt>
      <trkpt lat="40.94961600" lon="-3.08596600">
        <ele>839.00000</ele>
        <time>2010-01-01T00:00:16Z</time>
      </trkpt>
      <trkpt lat="40.94963200" lon="-3.08575200">
        <ele>836.00000</ele>
        <time>2010-01-01T00:00:22Z</time>
      </trkpt>
      <trkpt lat="40.94967900" lon="-3.08553600">
        <ele>833.00000</ele>
        <time>2010-01-01T00:00:29Z</time>
      </trkpt>
      <trkpt lat="40.94975600" lon="-3.08532600">
        <ele>832.00000</ele>
        <time>2010-01-01T00:00:36Z</time>
      </trkpt>
      <trkpt lat="40.94980600" lon="-3.08522600">
        <ele>832.00000</ele>
        <time>2010-01-01T00:00:40Z</time>
      </trkpt>
      <trkpt lat="40.94986500" lon="-3.08513000">
        <ele>832.00000</ele>
        <time>2010-01-01T00:00:43Z</time>
      </trkpt>
      <trkpt lat="40.94993000" lon="-3.08503300">
        <ele>832.00000</ele>
        <time>2010-01-01T00:00:47Z</time>
      </trkpt>
      <trkpt lat="40.94999900" lon="-3.08493200">
        <ele>831.00000</ele>
        <time>2010-01-01T00:00:51Z</time>
      </trkpt>
      <trkpt lat="40.95006300" lon="-3.08482700">
        <ele>831.00000</ele>
        <time>2010-01-01T00:00:55Z</time>
      </trkpt>
      <trkpt lat="40.95011400" lon="-3.08471700">
        <ele>831.00000</ele>
        <time>2010-01-01T00:00:59Z</time>
      </trkpt>
      <trkpt lat="40.95015800" lon="-3.08459500">
        <ele>831.00000</ele>
        <time>2010-01-01T00:01:03Z</time>
      </trkpt>
      <trkpt lat="40.95019400" lon="-3.08446700">
        <ele>830.00000</ele>
        <time>2010-01-01T00:01:08Z</time>
      </trkpt>
      <trkpt lat="40.95022300" lon="-3.08434200">
        <ele>830.00000</ele>
        <time>2010-01-01T00:01:12Z</time>
      </trkpt>
      <trkpt lat="40.95024600" lon="-3.08422300">
        <ele>830.00000</ele>
        <time>2010-01-01T00:01:15Z</time>
      </trkpt>
      <trkpt lat="40.95026200" lon="-3.08410400">
        <ele>829.00000</ele>
        <time>2010-01-01T00:01:19Z</time>
      </trkpt>
      <trkpt lat="40.95027300" lon="-3.08398200">
        <ele>829.00000</ele>
        <time>2010-01-01T00:01:23Z</time>
      </trkpt>
      <trkpt lat="40.95027800" lon="-3.08385500">
        <ele>829.00000</ele>
        <time>2010-01-01T00:01:26Z</time>
      </trkpt>
      <trkpt lat="40.95028200" lon="-3.08371800">
        <ele>829.00000</ele>
        <time>2010-01-01T00:01:31Z</time>
      </trkpt>
      <trkpt lat="40.95028600" lon="-3.08356800">
        <ele>829.00000</ele>
        <time>2010-01-01T00:01:35Z</time>
      </trkpt>
      <trkpt lat="40.95029100" lon="-3.08341000">
        <ele>829.00000</ele>
        <time>2010-01-01T00:01:40Z</time>
      </trkpt>
      <trkpt lat="40.95029500" lon="-3.08324800">
        <ele>830.00000</ele>
        <time>2010-01-01T00:01:45Z</time>
      </trkpt>
      <trkpt lat="40.95030200" lon="-3.08308600">
        <ele>832.00000</ele>
        <time>2010-01-01T00:01:50Z</time>
      </trkpt>
      <trkpt lat="40.95031200" lon="-3.08292800">
        <ele>832.00000</ele>
        <time>2010-01-01T00:01:55Z</time>
      </trkpt>
      <trkpt lat="40.95032400" lon="-3.08278300">
        <ele>833.00000</ele>
        <time>2010-01-01T00:01:59Z</time>
      </trkpt>
      <trkpt lat="40.95034000" lon="-3.08264900">
        <ele>834.00000</ele>
        <time>2010-01-01T00:02:03Z</time>
      </trkpt>
      <trkpt lat="40.95040900" lon="-3.08243500">
        <ele>837.00000</ele>
        <time>2010-01-01T00:02:10Z</time>
      </trkpt>
      <trkpt lat="40.95051900" lon="-3.08225900">
        <ele>840.00000</ele>
        <time>2010-01-01T00:02:17Z</time>
      </trkpt>
      <trkpt lat="40.95058700" lon="-3.08216500">
        <ele>841.00000</ele>
        <time>2010-01-01T00:02:21Z</time>
      </trkpt>
      <trkpt lat="40.95066100" lon="-3.08205700">
        <ele>841.00000</ele>
        <time>2010-01-01T00:02:25Z</time>
      </trkpt>
      <trkpt lat="40.95073900" lon="-3.08194000">
        <ele>841.00000</ele>
        <time>2010-01-01T00:02:30Z</time>
      </trkpt>
      <trkpt lat="40.95080800" lon="-3.08182300">
        <ele>841.00000</ele>
        <time>2010-01-01T00:02:35Z</time>
      </trkpt>
      <trkpt lat="40.95086600" lon="-3.08170300">
        <ele>841.00000</ele>
        <time>2010-01-01T00:02:39Z</time>
      </trkpt>
      <trkpt lat="40.95091800" lon="-3.08157900">
        <ele>842.00000</ele>
        <time>2010-01-01T00:02:43Z</time>
      </trkpt>
      <trkpt lat="40.95096900" lon="-3.08145200">
        <ele>843.00000</ele>
        <time>2010-01-01T00:02:47Z</time>
      </trkpt>
      <trkpt lat="40.95102100" lon="-3.08132600">
        <ele>845.00000</ele>
        <time>2010-01-01T00:02:52Z</time>
      </trkpt>
      <trkpt lat="40.95107200" lon="-3.08120500">
        <ele>847.00000</ele>
        <time>2010-01-01T00:02:56Z</time>
      </trkpt>
      <trkpt lat="40.95112200" lon="-3.08108900">
        <ele>848.00000</ele>
        <time>2010-01-01T00:03:00Z</time>
      </trkpt>
      <trkpt lat="40.95117100" lon="-3.08097200">
        <ele>848.00000</ele>
        <time>2010-01-01T00:03:04Z</time>
      </trkpt>
      <trkpt lat="40.95122000" lon="-3.08085700">
        <ele>849.00000</ele>
        <time>2010-01-01T00:03:08Z</time>
      </trkpt>
      <trkpt lat="40.95126500" lon="-3.08073900">
        <ele>850.00000</ele>
        <time>2010-01-01T00:03:12Z</time>
      </trkpt>
      <trkpt lat="40.95130300" lon="-3.08061700">
        <ele>850.00000</ele>
        <time>2010-01-01T00:03:16Z</time>
      </trkpt>
      <trkpt lat="40.95133700" lon="-3.08049100">
        <ele>851.00000</ele>
        <time>2010-01-01T00:03:20Z</time>
      </trkpt>
      <trkpt lat="40.95136700" lon="-3.08036700">
        <ele>851.00000</ele>
        <time>2010-01-01T00:03:24Z</time>
      </trkpt>
      <trkpt lat="40.95139600" lon="-3.08025200">
        <ele>851.00000</ele>
        <time>2010-01-01T00:03:28Z</time>
      </trkpt>
      <trkpt lat="40.95145400" lon="-3.08004600">
        <ele>852.00000</ele>
        <time>2010-01-01T00:03:34Z</time>
      </trkpt>
      <trkpt lat="40.95150200" lon="-3.07983200">
        <ele>853.00000</ele>
        <time>2010-01-01T00:03:41Z</time>
      </trkpt>
      <trkpt lat="40.95151700" lon="-3.07970300">
        <ele>852.00000</ele>
        <time>2010-01-01T00:03:45Z</time>
      </trkpt>
      <trkpt lat="40.95152500" lon="-3.07955700">
        <ele>852.00000</ele>
        <time>2010-01-01T00:03:49Z</time>
      </trkpt>
      <trkpt lat="40.95153200" lon="-3.07939300">
        <ele>851.00000</ele>
        <time>2010-01-01T00:03:54Z</time>
      </trkpt>
      <trkpt lat="40.95153700" lon="-3.07921500">
        <ele>850.00000</ele>
        <time>2010-01-01T00:04:00Z</time>
      </trkpt>
      <trkpt lat="40.95154600" lon="-3.07903400">
        <ele>849.00000</ele>
        <time>2010-01-01T00:04:05Z</time>
      </trkpt>
      <trkpt lat="40.95155800" lon="-3.07885600">
        <ele>848.00000</ele>
        <time>2010-01-01T00:04:11Z</time>
      </trkpt>
      <trkpt lat="40.95157400" lon="-3.07867800">
        <ele>845.00000</ele>
        <time>2010-01-01T00:04:16Z</time>
      </trkpt>
      <trkpt lat="40.95159300" lon="-3.07849900">
        <ele>843.00000</ele>
        <time>2010-01-01T00:04:22Z</time>
      </trkpt>
      <trkpt lat="40.95161400" lon="-3.07831900">
        <ele>840.00000</ele>
        <time>2010-01-01T00:04:27Z</time>
      </trkpt>
      <trkpt lat="40.95163500" lon="-3.07813800">
        <ele>837.00000</ele>
        <time>2010-01-01T00:04:33Z</time>
      </trkpt>
      <trkpt lat="40.95165900" lon="-3.07795700">
        <ele>834.00000</ele>
        <time>2010-01-01T00:04:38Z</time>
      </trkpt>
      <trkpt lat="40.95169000" lon="-3.07777800">
        <ele>831.00000</ele>
        <time>2010-01-01T00:04:44Z</time>
      </trkpt>
      <trkpt lat="40.95172900" lon="-3.07760100">
        <ele>829.00000</ele>
        <time>2010-01-01T00:04:49Z</time>
      </trkpt>
      <trkpt lat="40.95177200" lon="-3.07742700">
        <ele>827.00000</ele>
        <time>2010-01-01T00:04:55Z</time>
      </trkpt>
      <trkpt lat="40.95181500" lon="-3.07725400">
        <ele>826.00000</ele>
        <time>2010-01-01T00:05:00Z</time>
      </trkpt>
      <trkpt lat="40.95185700" lon="-3.07708300">
        <ele>825.00000</ele>
        <time>2010-01-01T00:05:06Z</time>
      </trkpt>
      <trkpt lat="40.95189800" lon="-3.07691800">
        <ele>825.00000</ele>
        <time>2010-01-01T00:05:11Z</time>
      </trkpt>
      <trkpt lat="40.95193800" lon="-3.07675900">
        <ele>825.00000</ele>
        <time>2010-01-01T00:05:16Z</time>
      </trkpt>
      <trkpt lat="40.95197500" lon="-3.07660700">
        <ele>824.00000</ele>
        <time>2010-01-01T00:05:21Z</time>
      </trkpt>
      <trkpt lat="40.95201000" lon="-3.07646100">
        <ele>824.00000</ele>
        <time>2010-01-01T00:05:26Z</time>
      </trkpt>
      <trkpt lat="40.95204300" lon="-3.07632500">
        <ele>823.00000</ele>
        <time>2010-01-01T00:05:30Z</time>
      </trkpt>
      <trkpt lat="40.95207500" lon="-3.07619800">
        <ele>823.00000</ele>
        <time>2010-01-01T00:05:34Z</time>
      </trkpt>
      <trkpt lat="40.95210400" lon="-3.07608100">
        <ele>823.00000</ele>
        <time>2010-01-01T00:05:38Z</time>
      </trkpt>
      <trkpt lat="40.95215700" lon="-3.07586700">
        <ele>823.00000</ele>
        <time>2010-01-01T00:05:44Z</time>
      </trkpt>
      <trkpt lat="40.95220600" lon="-3.07567400">
        <ele>823.00000</ele>
        <time>2010-01-01T00:05:51Z</time>
      </trkpt>
      <trkpt lat="40.95225100" lon="-3.07548100">
        <ele>823.00000</ele>
        <time>2010-01-01T00:05:57Z</time>
      </trkpt>
      <trkpt lat="40.95228400" lon="-3.07527900">
        <ele>823.00000</ele>
        <time>2010-01-01T00:06:03Z</time>
      </trkpt>
      <trkpt lat="40.95226800" lon="-3.07507200">
        <ele>823.00000</ele>
        <time>2010-01-01T00:06:09Z</time>
      </trkpt>
      <trkpt lat="40.95222400" lon="-3.07488600">
        <ele>823.00000</ele>
        <time>2010-01-01T00:06:15Z</time>
      </trkpt>
      <trkpt lat="40.95217100" lon="-3.07469600">
        <ele>824.00000</ele>
        <time>2010-01-01T00:06:21Z</time>
      </trkpt>
      <trkpt lat="40.95211200" lon="-3.07451100">
        <ele>824.00000</ele>
        <time>2010-01-01T00:06:27Z</time>
      </trkpt>
      <trkpt lat="40.95204300" lon="-3.07434700">
        <ele>825.00000</ele>
        <time>2010-01-01T00:06:33Z</time>
      </trkpt>
      <trkpt lat="40.95196200" lon="-3.07418800">
        <ele>825.00000</ele>
        <time>2010-01-01T00:06:39Z</time>
      </trkpt>
      <trkpt lat="40.95189400" lon="-3.07404200">
        <ele>826.00000</ele>
        <time>2010-01-01T00:06:44Z</time>
      </trkpt>
      <trkpt lat="40.95186200" lon="-3.07391800">
        <ele>827.00000</ele>
        <time>2010-01-01T00:06:48Z</time>
      </trkpt>
      <trkpt lat="40.95185000" lon="-3.07378000">
        <ele>828.00000</ele>
        <time>2010-01-01T00:06:52Z</time>
      </trkpt>
      <trkpt lat="40.95184900" lon="-3.07365100">
        <ele>829.00000</ele>
        <time>2010-01-01T00:06:56Z</time>
      </trkpt>
      <trkpt lat="40.95185000" lon="-3.07352100">
        <ele>829.00000</ele>
        <time>2010-01-01T00:07:00Z</time>
      </trkpt>
      <trkpt lat="40.95186800" lon="-3.07337200">
        <ele>829.00000</ele>
        <time>2010-01-01T00:07:05Z</time>
      </trkpt>
      <trkpt lat="40.95190600" lon="-3.07320700">
        <ele>829.00000</ele>
        <time>2010-01-01T00:07:10Z</time>
      </trkpt>
      <trkpt lat="40.95201100" lon="-3.07300900">
        <ele>830.00000</ele>
        <time>2010-01-01T00:07:17Z</time>
      </trkpt>
      <trkpt lat="40.95218200" lon="-3.07289600">
        <ele>831.00000</ele>
        <time>2010-01-01T00:07:25Z</time>
      </trkpt>
      <trkpt lat="40.95232100" lon="-3.07283900">
        <ele>832.00000</ele>
        <time>2010-01-01T00:07:31Z</time>
      </trkpt>
      <trkpt lat="40.95248300" lon="-3.07276900">
        <ele>834.00000</ele>
        <time>2010-01-01T00:07:37Z</time>
      </trkpt>
      <trkpt lat="40.95264900" lon="-3.07269100">
        <ele>836.00000</ele>
        <time>2010-01-01T00:07:44Z</time>
      </trkpt>
      <trkpt lat="40.95281400" lon="-3.07262300">
        <ele>837.00000</ele>
        <time>2010-01-01T00:07:51Z</time>
      </trkpt>
      <trkpt lat="40.95297600" lon="-3.07255200">
        <ele>838.00000</ele>
        <time>2010-01-01T00:07:58Z</time>
      </trkpt>
      <trkpt lat="40.95312000" lon="-3.07248100">
        <ele>839.00000</ele>
        <time>2010-01-01T00:08:04Z</time>
      </trkpt>
      <trkpt lat="40.95324000" lon="-3.07237300">
        <ele>839.00000</ele>
        <time>2010-01-01T00:08:10Z</time>
      </trkpt>
      <trkpt lat="40.95336000" lon="-3.07223800">
        <ele>840.00000</ele>
        <time>2010-01-01T00:08:16Z</time>
      </trkpt>
      <trkpt lat="40.95349500" lon="-3.07208600">
        <ele>841.00000</ele>
        <time>2010-01-01T00:08:24Z</time>
      </trkpt>
      <trkpt lat="40.95356700" lon="-3.07200600">
        <ele>842.00000</ele>
        <time>2010-01-01T00:08:27Z</time>
      </trkpt>
      <trkpt lat="40.95364200" lon="-3.07193000">
        <ele>842.00000</ele>
        <time>2010-01-01T00:08:31Z</time>
      </trkpt>
      <trkpt lat="40.95379300" lon="-3.07179000">
        <ele>844.00000</ele>
        <time>2010-01-01T00:08:38Z</time>
      </trkpt>
      <trkpt lat="40.95390600" lon="-3.07163700">
        <ele>844.00000</ele>
        <time>2010-01-01T00:08:45Z</time>
      </trkpt>
      <trkpt lat="40.95396400" lon="-3.07144400">
        <ele>845.00000</ele>
        <time>2010-01-01T00:08:51Z</time>
      </trkpt>
      <trkpt lat="40.95397600" lon="-3.07125700">
        <ele>846.00000</ele>
        <time>2010-01-01T00:08:57Z</time>
      </trkpt>
      <trkpt lat="40.95395900" lon="-3.07107600">
        <ele>847.00000</ele>
        <time>2010-01-01T00:09:02Z</time>
      </trkpt>
      <trkpt lat="40.95392100" lon="-3.07089200">
        <ele>848.00000</ele>
        <time>2010-01-01T00:09:08Z</time>
      </trkpt>
      <trkpt lat="40.95388200" lon="-3.07071700">
        <ele>849.00000</ele>
        <time>2010-01-01T00:09:14Z</time>
      </trkpt>
      <trkpt lat="40.95384700" lon="-3.07055100">
        <ele>851.00000</ele>
        <time>2010-01-01T00:09:19Z</time>
      </trkpt>
      <trkpt lat="40.95380300" lon="-3.07038500">
        <ele>852.00000</ele>
        <time>2010-01-01T00:09:24Z</time>
      </trkpt>
      <trkpt lat="40.95374700" lon="-3.07021700">
        <ele>853.00000</ele>
        <time>2010-01-01T00:09:30Z</time>
      </trkpt>
      <trkpt lat="40.95370400" lon="-3.07005700">
        <ele>853.00000</ele>
        <time>2010-01-01T00:09:35Z</time>
      </trkpt>
      <trkpt lat="40.95367300" lon="-3.06989600">
        <ele>852.00000</ele>
        <time>2010-01-01T00:09:40Z</time>
      </trkpt>
      <trkpt lat="40.95366100" lon="-3.06973100">
        <ele>852.00000</ele>
        <time>2010-01-01T00:09:45Z</time>
      </trkpt>
      <trkpt lat="40.95366600" lon="-3.06956200">
        <ele>853.00000</ele>
        <time>2010-01-01T00:09:50Z</time>
      </trkpt>
      <trkpt lat="40.95366600" lon="-3.06938400">
        <ele>854.00000</ele>
        <time>2010-01-01T00:09:55Z</time>
      </trkpt>
      <trkpt lat="40.95366800" lon="-3.06920600">
        <ele>855.00000</ele>
        <time>2010-01-01T00:10:01Z</time>
      </trkpt>
      <trkpt lat="40.95368200" lon="-3.06905300">
        <ele>856.00000</ele>
        <time>2010-01-01T00:10:05Z</time>
      </trkpt>
      <trkpt lat="40.95372000" lon="-3.06892100">
        <ele>857.00000</ele>
        <time>2010-01-01T00:10:10Z</time>
      </trkpt>
      <trkpt lat="40.95377500" lon="-3.06879900">
        <ele>857.00000</ele>
        <time>2010-01-01T00:10:14Z</time>
      </trkpt>
      <trkpt lat="40.95382700" lon="-3.06868200">
        <ele>857.00000</ele>
        <time>2010-01-01T00:10:18Z</time>
      </trkpt>
      <trkpt lat="40.95387300" lon="-3.06855000">
        <ele>858.00000</ele>
        <time>2010-01-01T00:10:23Z</time>
      </trkpt>
      <trkpt lat="40.95391700" lon="-3.06838900">
        <ele>859.00000</ele>
        <time>2010-01-01T00:10:28Z</time>
      </trkpt>
      <trkpt lat="40.95395200" lon="-3.06823300">
        <ele>860.00000</ele>
        <time>2010-01-01T00:10:33Z</time>
      </trkpt>
      <trkpt lat="40.95397100" lon="-3.06808300">
        <ele>861.00000</ele>
        <time>2010-01-01T00:10:37Z</time>
      </trkpt>
      <trkpt lat="40.95397500" lon="-3.06792500">
        <ele>862.00000</ele>
        <time>2010-01-01T00:10:42Z</time>
      </trkpt>
      <trkpt lat="40.95398400" lon="-3.06776100">
        <ele>864.00000</ele>
        <time>2010-01-01T00:10:47Z</time>
      </trkpt>
      <trkpt lat="40.95399500" lon="-3.06756600">
        <ele>865.00000</ele>
        <time>2010-01-01T00:10:53Z</time>
      </trkpt>
      <trkpt lat="40.95402200" lon="-3.06734300">
        <ele>866.00000</ele>
        <time>2010-01-01T00:11:00Z</time>
      </trkpt>
      <trkpt lat="40.95404200" lon="-3.06722600">
        <ele>867.00000</ele>
        <time>2010-01-01T00:11:03Z</time>
      </trkpt>
      <trkpt lat="40.95408200" lon="-3.06700400">
        <ele>867.00000</ele>
        <time>2010-01-01T00:11:10Z</time>
      </trkpt>
      <trkpt lat="40.95413200" lon="-3.06679800">
        <ele>867.00000</ele>
        <time>2010-01-01T00:11:17Z</time>
      </trkpt>
      <trkpt lat="40.95420300" lon="-3.06659900">
        <ele>868.00000</ele>
        <time>2010-01-01T00:11:23Z</time>
      </trkpt>
      <trkpt lat="40.95430200" lon="-3.06641300">
        <ele>870.00000</ele>
        <time>2010-01-01T00:11:30Z</time>
      </trkpt>
      <trkpt lat="40.95436100" lon="-3.06632300">
        <ele>871.00000</ele>
        <time>2010-01-01T00:11:34Z</time>
      </trkpt>
      <trkpt lat="40.95442400" lon="-3.06623900">
        <ele>872.00000</ele>
        <time>2010-01-01T00:11:38Z</time>
      </trkpt>
      <trkpt lat="40.95455900" lon="-3.06611800">
        <ele>874.00000</ele>
        <time>2010-01-01T00:11:44Z</time>
      </trkpt>
      <trkpt lat="40.95469800" lon="-3.06605800">
        <ele>876.00000</ele>
        <time>2010-01-01T00:11:50Z</time>
      </trkpt>
      <trkpt lat="40.95485000" lon="-3.06602700">
        <ele>878.00000</ele>
        <time>2010-01-01T00:11:56Z</time>
      </trkpt>
      <trkpt lat="40.95498000" lon="-3.06596800">
        <ele>879.00000</ele>
        <time>2010-01-01T00:12:02Z</time>
      </trkpt>
      <trkpt lat="40.95502000" lon="-3.06585800">
        <ele>878.00000</ele>
        <time>2010-01-01T00:12:05Z</time>
      </trkpt>
      <trkpt lat="40.95500300" lon="-3.06573700">
        <ele>877.00000</ele>
        <time>2010-01-01T00:12:09Z</time>
      </trkpt>
      <trkpt lat="40.95493700" lon="-3.06562600">
        <ele>876.00000</ele>
        <time>2010-01-01T00:12:13Z</time>
      </trkpt>
      <trkpt lat="40.95483400" lon="-3.06555300">
        <ele>876.00000</ele>
        <time>2010-01-01T00:12:18Z</time>
      </trkpt>
      <trkpt lat="40.95471800" lon="-3.06549400">
        <ele>876.00000</ele>
        <time>2010-01-01T00:12:23Z</time>
      </trkpt>
      <trkpt lat="40.95462100" lon="-3.06540200">
        <ele>876.00000</ele>
        <time>2010-01-01T00:12:28Z</time>
      </trkpt>
      <trkpt lat="40.95455400" lon="-3.06527000">
        <ele>877.00000</ele>
        <time>2010-01-01T00:12:32Z</time>
      </trkpt>
      <trkpt lat="40.95450700" lon="-3.06512700">
        <ele>878.00000</ele>
        <time>2010-01-01T00:12:37Z</time>
      </trkpt>
      <trkpt lat="40.95446000" lon="-3.06497100">
        <ele>878.00000</ele>
        <time>2010-01-01T00:12:42Z</time>
      </trkpt>
      <trkpt lat="40.95441600" lon="-3.06481200">
        <ele>880.00000</ele>
        <time>2010-01-01T00:12:47Z</time>
      </trkpt>
      <trkpt lat="40.95436300" lon="-3.06465400">
        <ele>882.00000</ele>
        <time>2010-01-01T00:12:53Z</time>
      </trkpt>
      <trkpt lat="40.95430500" lon="-3.06450800">
        <ele>883.00000</ele>
        <time>2010-01-01T00:12:58Z</time>
      </trkpt>
      <trkpt lat="40.95425900" lon="-3.06436400">
        <ele>884.00000</ele>
        <time>2010-01-01T00:13:02Z</time>
      </trkpt>
      <trkpt lat="40.95421700" lon="-3.06422700">
        <ele>885.00000</ele>
        <time>2010-01-01T00:13:07Z</time>
      </trkpt>
      <trkpt lat="40.95417700" lon="-3.06408700">
        <ele>886.00000</ele>
        <time>2010-01-01T00:13:11Z</time>
      </trkpt>
      <trkpt lat="40.95413100" lon="-3.06394300">
        <ele>888.00000</ele>
        <time>2010-01-01T00:13:16Z</time>
      </trkpt>
      <trkpt lat="40.95407900" lon="-3.06381100">
        <ele>890.00000</ele>
        <time>2010-01-01T00:13:21Z</time>
      </trkpt>
      <trkpt lat="40.95401700" lon="-3.06367800">
        <ele>892.00000</ele>
        <time>2010-01-01T00:13:25Z</time>
      </trkpt>
      <trkpt lat="40.95395800" lon="-3.06354000">
        <ele>893.00000</ele>
        <time>2010-01-01T00:13:30Z</time>
      </trkpt>
      <trkpt lat="40.95391100" lon="-3.06341300">
        <ele>894.00000</ele>
        <time>2010-01-01T00:13:34Z</time>
      </trkpt>
      <trkpt lat="40.95387800" lon="-3.06330000">
        <ele>895.00000</ele>
        <time>2010-01-01T00:13:38Z</time>
      </trkpt>
      <trkpt lat="40.95383400" lon="-3.06315800">
        <ele>897.00000</ele>
        <time>2010-01-01T00:13:43Z</time>
      </trkpt>
      <trkpt lat="40.95378200" lon="-3.06304400">
        <ele>898.00000</ele>
        <time>2010-01-01T00:13:47Z</time>
      </trkpt>
      <trkpt lat="40.95368200" lon="-3.06286900">
        <ele>901.00000</ele>
        <time>2010-01-01T00:13:53Z</time>
      </trkpt>
      <trkpt lat="40.95357300" lon="-3.06268800">
        <ele>903.00000</ele>
        <time>2010-01-01T00:14:00Z</time>
      </trkpt>
      <trkpt lat="40.95350700" lon="-3.06257900">
        <ele>905.00000</ele>
        <time>2010-01-01T00:14:05Z</time>
      </trkpt>
      <trkpt lat="40.95344200" lon="-3.06247100">
        <ele>907.00000</ele>
        <time>2010-01-01T00:14:09Z</time>
      </trkpt>
      <trkpt lat="40.95337200" lon="-3.06235100">
        <ele>909.00000</ele>
        <time>2010-01-01T00:14:13Z</time>
      </trkpt>
      <trkpt lat="40.95329800" lon="-3.06222400">
        <ele>911.00000</ele>
        <time>2010-01-01T00:14:18Z</time>
      </trkpt>
      <trkpt lat="40.95321900" lon="-3.06209100">
        <ele>913.00000</ele>
        <time>2010-01-01T00:14:23Z</time>
      </trkpt>
      <trkpt lat="40.95312000" lon="-3.06193900">
        <ele>916.00000</ele>
        <time>2010-01-01T00:14:29Z</time>
      </trkpt>
      <trkpt lat="40.95303900" lon="-3.06178400">
        <ele>917.00000</ele>
        <time>2010-01-01T00:14:35Z</time>
      </trkpt>
      <trkpt lat="40.95298000" lon="-3.06164200">
        <ele>917.00000</ele>
        <time>2010-01-01T00:14:40Z</time>
      </trkpt>
      <trkpt lat="40.95293300" lon="-3.06152100">
        <ele>917.00000</ele>
        <time>2010-01-01T00:14:44Z</time>
      </trkpt>
      <trkpt lat="40.95289500" lon="-3.06140200">
        <ele>917.00000</ele>
        <time>2010-01-01T00:14:48Z</time>
      </trkpt>
      <trkpt lat="40.95280000" lon="-3.06129300">
        <ele>916.00000</ele>
        <time>2010-01-01T00:14:53Z</time>
      </trkpt>
      <trkpt lat="40.95270200" lon="-3.06135900">
        <ele>914.00000</ele>
        <time>2010-01-01T00:14:57Z</time>
      </trkpt>
      <trkpt lat="40.95259700" lon="-3.06144700">
        <ele>912.00000</ele>
        <time>2010-01-01T00:15:02Z</time>
      </trkpt>
      <trkpt lat="40.95249600" lon="-3.06155500">
        <ele>910.00000</ele>
        <time>2010-01-01T00:15:08Z</time>
      </trkpt>
      <trkpt lat="40.95241600" lon="-3.06166900">
        <ele>911.00000</ele>
        <time>2010-01-01T00:15:12Z</time>
      </trkpt>
      <trkpt lat="40.95235200" lon="-3.06180600">
        <ele>913.00000</ele>
        <time>2010-01-01T00:15:17Z</time>
      </trkpt>
      <trkpt lat="40.95234000" lon="-3.06194800">
        <ele>915.00000</ele>
        <time>2010-01-01T00:15:21Z</time>
      </trkpt>
      <trkpt lat="40.95232800" lon="-3.06208000">
        <ele>918.00000</ele>
        <time>2010-01-01T00:15:25Z</time>
      </trkpt>
      <trkpt lat="40.95228600" lon="-3.06220200">
        <ele>920.00000</ele>
        <time>2010-01-01T00:15:29Z</time>
      </trkpt>
      <trkpt lat="40.95223800" lon="-3.06233000">
        <ele>922.00000</ele>
        <time>2010-01-01T00:15:34Z</time>
      </trkpt>
      <trkpt lat="40.95219400" lon="-3.06244400">
        <ele>923.00000</ele>
        <time>2010-01-01T00:15:38Z</time>
      </trkpt>
      <trkpt lat="40.95213900" lon="-3.06254300">
        <ele>923.00000</ele>
        <time>2010-01-01T00:15:41Z</time>
      </trkpt>
      <trkpt lat="40.95206500" lon="-3.06261800">
        <ele>923.00000</ele>
        <time>2010-01-01T00:15:45Z</time>
      </trkpt>
      <trkpt lat="40.95196200" lon="-3.06268200">
        <ele>923.00000</ele>
        <time>2010-01-01T00:15:50Z</time>
      </trkpt>
      <trkpt lat="40.95187300" lon="-3.06272900">
        <ele>922.00000</ele>
        <time>2010-01-01T00:15:54Z</time>
      </trkpt>
      <trkpt lat="40.95179200" lon="-3.06279800">
        <ele>921.00000</ele>
        <time>2010-01-01T00:15:57Z</time>
      </trkpt>
      <trkpt lat="40.95172300" lon="-3.06288200">
        <ele>921.00000</ele>
        <time>2010-01-01T00:16:01Z</time>
      </trkpt>
      <trkpt lat="40.95166400" lon="-3.06297600">
        <ele>922.00000</ele>
        <time>2010-01-01T00:16:05Z</time>
      </trkpt>
      <trkpt lat="40.95157600" lon="-3.06308200">
        <ele>923.00000</ele>
        <time>2010-01-01T00:16:10Z</time>
      </trkpt>
      <trkpt lat="40.95147800" lon="-3.06315300">
        <ele>924.00000</ele>
        <time>2010-01-01T00:16:14Z</time>
      </trkpt>
      <trkpt lat="40.95135700" lon="-3.06321500">
        <ele>924.00000</ele>
        <time>2010-01-01T00:16:19Z</time>
      </trkpt>
      <trkpt lat="40.95124200" lon="-3.06328800">
        <ele>925.00000</ele>
        <time>2010-01-01T00:16:24Z</time>
      </trkpt>
      <trkpt lat="40.95117000" lon="-3.06336200">
        <ele>926.00000</ele>
        <time>2010-01-01T00:16:28Z</time>
      </trkpt>
      <trkpt lat="40.95111500" lon="-3.06346000">
        <ele>928.00000</ele>
        <time>2010-01-01T00:16:32Z</time>
      </trkpt>
      <trkpt lat="40.95106200" lon="-3.06358500">
        <ele>931.00000</ele>
        <time>2010-01-01T00:16:36Z</time>
      </trkpt>
      <trkpt lat="40.95101400" lon="-3.06369200">
        <ele>934.00000</ele>
        <time>2010-01-01T00:16:40Z</time>
      </trkpt>
      <trkpt lat="40.95097000" lon="-3.06380000">
        <ele>938.00000</ele>
        <time>2010-01-01T00:16:44Z</time>
      </trkpt>
      <trkpt lat="40.95092400" lon="-3.06392700">
        <ele>942.00000</ele>
        <time>2010-01-01T00:16:48Z</time>
      </trkpt>
      <trkpt lat="40.95088000" lon="-3.06404500">
        <ele>946.00000</ele>
        <time>2010-01-01T00:16:52Z</time>
      </trkpt>
      <trkpt lat="40.95072900" lon="-3.06436100">
        <ele>955.00000</ele>
        <time>2010-01-01T00:17:03Z</time>
      </trkpt>
      <trkpt lat="40.95057400" lon="-3.06478900">
        <ele>961.00000</ele>
        <time>2010-01-01T00:17:17Z</time>
      </trkpt>
      <trkpt lat="40.95055700" lon="-3.06485600">
        <ele>961.00000</ele>
        <time>2010-01-01T00:17:20Z</time>
      </trkpt>
      <trkpt lat="40.95059200" lon="-3.06497100">
        <ele>960.00000</ele>
        <time>2010-01-01T00:17:23Z</time>
      </trkpt>
      <trkpt lat="40.95056300" lon="-3.06494800">
        <ele>961.00000</ele>
        <time>2010-01-01T00:17:25Z</time>
      </trkpt>
      <trkpt lat="40.95053500" lon="-3.06489500">
        <ele>960.00000</ele>
        <time>2010-01-01T00:17:27Z</time>
      </trkpt>
      <trkpt lat="40.95060400" lon="-3.06480200">
        <ele>960.00000</ele>
        <time>2010-01-01T00:17:31Z</time>
      </trkpt>
      <trkpt lat="40.95063900" lon="-3.06468500">
        <ele>960.00000</ele>
        <time>2010-01-01T00:17:34Z</time>
      </trkpt>
      <trkpt lat="40.95069600" lon="-3.06453300">
        <ele>958.00000</ele>
        <time>2010-01-01T00:17:39Z</time>
      </trkpt>
      <trkpt lat="40.95074200" lon="-3.06442100">
        <ele>956.00000</ele>
        <time>2010-01-01T00:17:43Z</time>
      </trkpt>
      <trkpt lat="40.95081000" lon="-3.06427300">
        <ele>952.00000</ele>
        <time>2010-01-01T00:17:49Z</time>
      </trkpt>
      <trkpt lat="40.95086300" lon="-3.06416900">
        <ele>950.00000</ele>
        <time>2010-01-01T00:17:52Z</time>
      </trkpt>
      <trkpt lat="40.95091500" lon="-3.06403800">
        <ele>945.00000</ele>
        <time>2010-01-01T00:17:57Z</time>
      </trkpt>
      <trkpt lat="40.95095300" lon="-3.06392500">
        <ele>941.00000</ele>
        <time>2010-01-01T00:18:01Z</time>
      </trkpt>
      <trkpt lat="40.95098500" lon="-3.06380500">
        <ele>937.00000</ele>
        <time>2010-01-01T00:18:04Z</time>
      </trkpt>
      <trkpt lat="40.95103100" lon="-3.06368200">
        <ele>933.00000</ele>
        <time>2010-01-01T00:18:09Z</time>
      </trkpt>
      <trkpt lat="40.95107800" lon="-3.06355800">
        <ele>930.00000</ele>
        <time>2010-01-01T00:18:13Z</time>
      </trkpt>
      <trkpt lat="40.95113100" lon="-3.06343000">
        <ele>927.00000</ele>
        <time>2010-01-01T00:18:17Z</time>
      </trkpt>
      <trkpt lat="40.95120100" lon="-3.06333800">
        <ele>926.00000</ele>
        <time>2010-01-01T00:18:21Z</time>
      </trkpt>
      <trkpt lat="40.95130400" lon="-3.06327000">
        <ele>925.00000</ele>
        <time>2010-01-01T00:18:26Z</time>
      </trkpt>
      <trkpt lat="40.95142900" lon="-3.06320500">
        <ele>924.00000</ele>
        <time>2010-01-01T00:18:31Z</time>
      </trkpt>
      <trkpt lat="40.95155200" lon="-3.06313000">
        <ele>924.00000</ele>
        <time>2010-01-01T00:18:37Z</time>
      </trkpt>
      <trkpt lat="40.95165100" lon="-3.06302400">
        <ele>923.00000</ele>
        <time>2010-01-01T00:18:42Z</time>
      </trkpt>
      <trkpt lat="40.95171000" lon="-3.06293000">
        <ele>922.00000</ele>
        <time>2010-01-01T00:18:45Z</time>
      </trkpt>
      <trkpt lat="40.95179100" lon="-3.06283100">
        <ele>922.00000</ele>
        <time>2010-01-01T00:18:50Z</time>
      </trkpt>
      <trkpt lat="40.95187900" lon="-3.06276200">
        <ele>922.00000</ele>
        <time>2010-01-01T00:18:54Z</time>
      </trkpt>
      <trkpt lat="40.95199100" lon="-3.06271200">
        <ele>923.00000</ele>
        <time>2010-01-01T00:18:59Z</time>
      </trkpt>
      <trkpt lat="40.95208300" lon="-3.06265800">
        <ele>924.00000</ele>
        <time>2010-01-01T00:19:03Z</time>
      </trkpt>
      <trkpt lat="40.95215600" lon="-3.06256700">
        <ele>924.00000</ele>
        <time>2010-01-01T00:19:07Z</time>
      </trkpt>
      <trkpt lat="40.95221100" lon="-3.06246900">
        <ele>923.00000</ele>
        <time>2010-01-01T00:19:10Z</time>
      </trkpt>
      <trkpt lat="40.95225000" lon="-3.06234300">
        <ele>922.00000</ele>
        <time>2010-01-01T00:19:14Z</time>
      </trkpt>
      <trkpt lat="40.95229000" lon="-3.06223300">
        <ele>921.00000</ele>
        <time>2010-01-01T00:19:18Z</time>
      </trkpt>
      <trkpt lat="40.95231900" lon="-3.06209800">
        <ele>918.00000</ele>
        <time>2010-01-01T00:19:22Z</time>
      </trkpt>
      <trkpt lat="40.95233000" lon="-3.06193400">
        <ele>915.00000</ele>
        <time>2010-01-01T00:19:27Z</time>
      </trkpt>
      <trkpt lat="40.95235200" lon="-3.06180600">
        <ele>913.00000</ele>
        <time>2010-01-01T00:19:31Z</time>
      </trkpt>
      <trkpt lat="40.95241900" lon="-3.06168200">
        <ele>911.00000</ele>
        <time>2010-01-01T00:19:36Z</time>
      </trkpt>
      <trkpt lat="40.95249600" lon="-3.06157600">
        <ele>910.00000</ele>
        <time>2010-01-01T00:19:40Z</time>
      </trkpt>
      <trkpt lat="40.95257600" lon="-3.06149400">
        <ele>912.00000</ele>
        <time>2010-01-01T00:19:44Z</time>
      </trkpt>
      <trkpt lat="40.95265800" lon="-3.06142800">
        <ele>913.00000</ele>
        <time>2010-01-01T00:19:48Z</time>
      </trkpt>
      <trkpt lat="40.95274600" lon="-3.06136600">
        <ele>915.00000</ele>
        <time>2010-01-01T00:19:52Z</time>
      </trkpt>
      <trkpt lat="40.95284500" lon="-3.06128000">
        <ele>917.00000</ele>
        <time>2010-01-01T00:19:57Z</time>
      </trkpt>
      <trkpt lat="40.95285900" lon="-3.06121300">
        <ele>917.00000</ele>
        <time>2010-01-01T00:19:59Z</time>
      </trkpt>
      <trkpt lat="40.95287600" lon="-3.06106200">
        <ele>918.00000</ele>
        <time>2010-01-01T00:20:04Z</time>
      </trkpt>
      <trkpt lat="40.95289200" lon="-3.06085200">
        <ele>917.00000</ele>
        <time>2010-01-01T00:20:10Z</time>
      </trkpt>
      <trkpt lat="40.95291100" lon="-3.06063500">
        <ele>917.00000</ele>
        <time>2010-01-01T00:20:17Z</time>
      </trkpt>
      <trkpt lat="40.95295000" lon="-3.06045600">
        <ele>917.00000</ele>
        <time>2010-01-01T00:20:22Z</time>
      </trkpt>
      <trkpt lat="40.95300200" lon="-3.06030100">
        <ele>917.00000</ele>
        <time>2010-01-01T00:20:27Z</time>
      </trkpt>
      <trkpt lat="40.95305700" lon="-3.06013600">
        <ele>918.00000</ele>
        <time>2010-01-01T00:20:33Z</time>
      </trkpt>
      <trkpt lat="40.95311600" lon="-3.05995100">
        <ele>919.00000</ele>
        <time>2010-01-01T00:20:39Z</time>
      </trkpt>
      <trkpt lat="40.95317500" lon="-3.05975600">
        <ele>921.00000</ele>
        <time>2010-01-01T00:20:45Z</time>
      </trkpt>
      <trkpt lat="40.95322000" lon="-3.05958100">
        <ele>922.00000</ele>
        <time>2010-01-01T00:20:51Z</time>
      </trkpt>
      <trkpt lat="40.95325400" lon="-3.05942000">
        <ele>924.00000</ele>
        <time>2010-01-01T00:20:56Z</time>
      </trkpt>
      <trkpt lat="40.95327300" lon="-3.05927800">
        <ele>927.00000</ele>
        <time>2010-01-01T00:21:00Z</time>
      </trkpt>
      <trkpt lat="40.95327800" lon="-3.05914200">
        <ele>930.00000</ele>
        <time>2010-01-01T00:21:04Z</time>
      </trkpt>
      <trkpt lat="40.95328200" lon="-3.05901300">
        <ele>932.00000</ele>
        <time>2010-01-01T00:21:08Z</time>
      </trkpt>
      <trkpt lat="40.95329500" lon="-3.05883600">
        <ele>936.00000</ele>
        <time>2010-01-01T00:21:14Z</time>
      </trkpt>
      <trkpt lat="40.95330500" lon="-3.05870500">
        <ele>938.00000</ele>
        <time>2010-01-01T00:21:18Z</time>
      </trkpt>
      <trkpt lat="40.95330700" lon="-3.05855200">
        <ele>940.00000</ele>
        <time>2010-01-01T00:21:22Z</time>
      </trkpt>
      <trkpt lat="40.95327800" lon="-3.05841000">
        <ele>942.00000</ele>
        <time>2010-01-01T00:21:27Z</time>
      </trkpt>
      <trkpt lat="40.95322800" lon="-3.05828300">
        <ele>944.00000</ele>
        <time>2010-01-01T00:21:31Z</time>
      </trkpt>
      <trkpt lat="40.95317500" lon="-3.05815200">
        <ele>945.00000</ele>
        <time>2010-01-01T00:21:36Z</time>
      </trkpt>
      <trkpt lat="40.95311900" lon="-3.05797000">
        <ele>948.00000</ele>
        <time>2010-01-01T00:21:42Z</time>
      </trkpt>
      <trkpt lat="40.95315400" lon="-3.05776200">
        <ele>953.00000</ele>
        <time>2010-01-01T00:21:48Z</time>
      </trkpt>
      <trkpt lat="40.95320500" lon="-3.05764200">
        <ele>956.00000</ele>
        <time>2010-01-01T00:21:52Z</time>
      </trkpt>
      <trkpt lat="40.95323400" lon="-3.05747500">
        <ele>960.00000</ele>
        <time>2010-01-01T00:21:57Z</time>
      </trkpt>
      <trkpt lat="40.95321700" lon="-3.05735600">
        <ele>962.00000</ele>
        <time>2010-01-01T00:22:01Z</time>
      </trkpt>
      <trkpt lat="40.95317300" lon="-3.05722800">
        <ele>964.00000</ele>
        <time>2010-01-01T00:22:05Z</time>
      </trkpt>
      <trkpt lat="40.95313100" lon="-3.05709200">
        <ele>966.00000</ele>
        <time>2010-01-01T00:22:10Z</time>
      </trkpt>
      <trkpt lat="40.95310600" lon="-3.05695900">
        <ele>967.00000</ele>
        <time>2010-01-01T00:22:14Z</time>
      </trkpt>
      <trkpt lat="40.95309200" lon="-3.05684100">
        <ele>969.00000</ele>
        <time>2010-01-01T00:22:17Z</time>
      </trkpt>
      <trkpt lat="40.95309600" lon="-3.05671800">
        <ele>970.00000</ele>
        <time>2010-01-01T00:22:21Z</time>
      </trkpt>
      <trkpt lat="40.95311000" lon="-3.05658000">
        <ele>972.00000</ele>
        <time>2010-01-01T00:22:25Z</time>
      </trkpt>
      <trkpt lat="40.95313700" lon="-3.05643000">
        <ele>974.00000</ele>
        <time>2010-01-01T00:22:30Z</time>
      </trkpt>
      <trkpt lat="40.95317600" lon="-3.05628700">
        <ele>976.00000</ele>
        <time>2010-01-01T00:22:35Z</time>
      </trkpt>
      <trkpt lat="40.95323200" lon="-3.05615500">
        <ele>977.00000</ele>
        <time>2010-01-01T00:22:39Z</time>
      </trkpt>
      <trkpt lat="40.95330700" lon="-3.05602100">
        <ele>978.00000</ele>
        <time>2010-01-01T00:22:44Z</time>
      </trkpt>
      <trkpt lat="40.95338600" lon="-3.05588300">
        <ele>979.00000</ele>
        <time>2010-01-01T00:22:49Z</time>
      </trkpt>
      <trkpt lat="40.95346400" lon="-3.05572100">
        <ele>979.00000</ele>
        <time>2010-01-01T00:22:55Z</time>
      </trkpt>
      <trkpt lat="40.95355500" lon="-3.05554500">
        <ele>980.00000</ele>
        <time>2010-01-01T00:23:02Z</time>
      </trkpt>
      <trkpt lat="40.95366100" lon="-3.05536100">
        <ele>981.00000</ele>
        <time>2010-01-01T00:23:09Z</time>
      </trkpt>
      <trkpt lat="40.95371600" lon="-3.05526000">
        <ele>981.00000</ele>
        <time>2010-01-01T00:23:12Z</time>
      </trkpt>
      <trkpt lat="40.95378900" lon="-3.05505200">
        <ele>981.00000</ele>
        <time>2010-01-01T00:23:19Z</time>
      </trkpt>
      <trkpt lat="40.95382900" lon="-3.05483400">
        <ele>983.00000</ele>
        <time>2010-01-01T00:23:26Z</time>
      </trkpt>
      <trkpt lat="40.95385800" lon="-3.05463400">
        <ele>983.00000</ele>
        <time>2010-01-01T00:23:32Z</time>
      </trkpt>
      <trkpt lat="40.95388900" lon="-3.05446000">
        <ele>983.00000</ele>
        <time>2010-01-01T00:23:38Z</time>
      </trkpt>
      <trkpt lat="40.95393400" lon="-3.05428400">
        <ele>983.00000</ele>
        <time>2010-01-01T00:23:43Z</time>
      </trkpt>
      <trkpt lat="40.95399800" lon="-3.05413800">
        <ele>983.00000</ele>
        <time>2010-01-01T00:23:48Z</time>
      </trkpt>
      <trkpt lat="40.95408700" lon="-3.05398500">
        <ele>984.00000</ele>
        <time>2010-01-01T00:23:54Z</time>
      </trkpt>
      <trkpt lat="40.95414600" lon="-3.05382500">
        <ele>984.00000</ele>
        <time>2010-01-01T00:24:00Z</time>
      </trkpt>
      <trkpt lat="40.95419500" lon="-3.05366500">
        <ele>984.00000</ele>
        <time>2010-01-01T00:24:05Z</time>
      </trkpt>
      <trkpt lat="40.95428700" lon="-3.05349500">
        <ele>984.00000</ele>
        <time>2010-01-01T00:24:11Z</time>
      </trkpt>
      <trkpt lat="40.95436200" lon="-3.05330500">
        <ele>985.00000</ele>
        <time>2010-01-01T00:24:18Z</time>
      </trkpt>
      <trkpt lat="40.95443300" lon="-3.05311300">
        <ele>985.00000</ele>
        <time>2010-01-01T00:24:24Z</time>
      </trkpt>
      <trkpt lat="40.95451200" lon="-3.05290700">
        <ele>985.00000</ele>
        <time>2010-01-01T00:24:31Z</time>
      </trkpt>
      <trkpt lat="40.95459300" lon="-3.05270700">
        <ele>985.00000</ele>
        <time>2010-01-01T00:24:38Z</time>
      </trkpt>
      <trkpt lat="40.95465200" lon="-3.05253800">
        <ele>985.00000</ele>
        <time>2010-01-01T00:24:44Z</time>
      </trkpt>
      <trkpt lat="40.95467500" lon="-3.05240700">
        <ele>985.00000</ele>
        <time>2010-01-01T00:24:48Z</time>
      </trkpt>
      <trkpt lat="40.95467700" lon="-3.05228000">
        <ele>985.00000</ele>
        <time>2010-01-01T00:24:52Z</time>
      </trkpt>
      <trkpt lat="40.95470000" lon="-3.05213700">
        <ele>985.00000</ele>
        <time>2010-01-01T00:24:56Z</time>
      </trkpt>
      <trkpt lat="40.95476300" lon="-3.05201200">
        <ele>985.00000</ele>
        <time>2010-01-01T00:25:01Z</time>
      </trkpt>
      <trkpt lat="40.95479900" lon="-3.05190200">
        <ele>984.00000</ele>
        <time>2010-01-01T00:25:04Z</time>
      </trkpt>
      <trkpt lat="40.95481600" lon="-3.05177000">
        <ele>984.00000</ele>
        <time>2010-01-01T00:25:08Z</time>
      </trkpt>
      <trkpt lat="40.95483100" lon="-3.05163700">
        <ele>983.00000</ele>
        <time>2010-01-01T00:25:12Z</time>
      </trkpt>
      <trkpt lat="40.95486800" lon="-3.05150800">
        <ele>983.00000</ele>
        <time>2010-01-01T00:25:16Z</time>
      </trkpt>
      <trkpt lat="40.95490400" lon="-3.05134600">
        <ele>983.00000</ele>
        <time>2010-01-01T00:25:22Z</time>
      </trkpt>
      <trkpt lat="40.95493400" lon="-3.05120000">
        <ele>983.00000</ele>
        <time>2010-01-01T00:25:26Z</time>
      </trkpt>
      <trkpt lat="40.95498600" lon="-3.05102300">
        <ele>984.00000</ele>
        <time>2010-01-01T00:25:32Z</time>
      </trkpt>
      <trkpt lat="40.95504800" lon="-3.05085700">
        <ele>983.00000</ele>
        <time>2010-01-01T00:25:37Z</time>
      </trkpt>
      <trkpt lat="40.95508800" lon="-3.05066600">
        <ele>984.00000</ele>
        <time>2010-01-01T00:25:43Z</time>
      </trkpt>
      <trkpt lat="40.95512600" lon="-3.05045000">
        <ele>984.00000</ele>
        <time>2010-01-01T00:25:50Z</time>
      </trkpt>
      <trkpt lat="40.95516900" lon="-3.05025200">
        <ele>984.00000</ele>
        <time>2010-01-01T00:25:56Z</time>
      </trkpt>
      <trkpt lat="40.95519200" lon="-3.05007200">
        <ele>984.00000</ele>
        <time>2010-01-01T00:26:02Z</time>
      </trkpt>
      <trkpt lat="40.95520700" lon="-3.04986900">
        <ele>983.00000</ele>
        <time>2010-01-01T00:26:08Z</time>
      </trkpt>
      <trkpt lat="40.95523300" lon="-3.04964800">
        <ele>982.00000</ele>
        <time>2010-01-01T00:26:15Z</time>
      </trkpt>
      <trkpt lat="40.95525200" lon="-3.04953100">
        <ele>982.00000</ele>
        <time>2010-01-01T00:26:18Z</time>
      </trkpt>
      <trkpt lat="40.95527400" lon="-3.04941000">
        <ele>981.00000</ele>
        <time>2010-01-01T00:26:22Z</time>
      </trkpt>
      <trkpt lat="40.95530100" lon="-3.04927800">
        <ele>981.00000</ele>
        <time>2010-01-01T00:26:26Z</time>
      </trkpt>
      <trkpt lat="40.95533000" lon="-3.04914300">
        <ele>980.00000</ele>
        <time>2010-01-01T00:26:31Z</time>
      </trkpt>
      <trkpt lat="40.95535700" lon="-3.04901200">
        <ele>980.00000</ele>
        <time>2010-01-01T00:26:35Z</time>
      </trkpt>
      <trkpt lat="40.95537900" lon="-3.04889100">
        <ele>980.00000</ele>
        <time>2010-01-01T00:26:38Z</time>
      </trkpt>
      <trkpt lat="40.95541500" lon="-3.04869400">
        <ele>979.00000</ele>
        <time>2010-01-01T00:26:45Z</time>
      </trkpt>
      <trkpt lat="40.95548200" lon="-3.04854100">
        <ele>979.00000</ele>
        <time>2010-01-01T00:26:50Z</time>
      </trkpt>
      <trkpt lat="40.95553300" lon="-3.04835400">
        <ele>979.00000</ele>
        <time>2010-01-01T00:26:56Z</time>
      </trkpt>
      <trkpt lat="40.95555900" lon="-3.04814200">
        <ele>978.00000</ele>
        <time>2010-01-01T00:27:02Z</time>
      </trkpt>
      <trkpt lat="40.95558400" lon="-3.04795400">
        <ele>977.00000</ele>
        <time>2010-01-01T00:27:08Z</time>
      </trkpt>
      <trkpt lat="40.95560600" lon="-3.04781500">
        <ele>976.00000</ele>
        <time>2010-01-01T00:27:13Z</time>
      </trkpt>
      <trkpt lat="40.95562200" lon="-3.04768300">
        <ele>976.00000</ele>
        <time>2010-01-01T00:27:17Z</time>
      </trkpt>
      <trkpt lat="40.95563500" lon="-3.04755300">
        <ele>976.00000</ele>
        <time>2010-01-01T00:27:21Z</time>
      </trkpt>
      <trkpt lat="40.95566800" lon="-3.04735100">
        <ele>976.00000</ele>
        <time>2010-01-01T00:27:27Z</time>
      </trkpt>
      <trkpt lat="40.95570500" lon="-3.04711900">
        <ele>976.00000</ele>
        <time>2010-01-01T00:27:34Z</time>
      </trkpt>
      <trkpt lat="40.95571600" lon="-3.04700000">
        <ele>976.00000</ele>
        <time>2010-01-01T00:27:38Z</time>
      </trkpt>
      <trkpt lat="40.95572500" lon="-3.04687600">
        <ele>976.00000</ele>
        <time>2010-01-01T00:27:41Z</time>
      </trkpt>
      <trkpt lat="40.95573200" lon="-3.04674800">
        <ele>976.00000</ele>
        <time>2010-01-01T00:27:45Z</time>
      </trkpt>
      <trkpt lat="40.95573700" lon="-3.04661700">
        <ele>976.00000</ele>
        <time>2010-01-01T00:27:49Z</time>
      </trkpt>
      <trkpt lat="40.95574100" lon="-3.04648600">
        <ele>976.00000</ele>
        <time>2010-01-01T00:27:53Z</time>
      </trkpt>
      <trkpt lat="40.95574800" lon="-3.04636200">
        <ele>976.00000</ele>
        <time>2010-01-01T00:27:57Z</time>
      </trkpt>
      <trkpt lat="40.95576700" lon="-3.04615200">
        <ele>975.00000</ele>
        <time>2010-01-01T00:28:03Z</time>
      </trkpt>
      <trkpt lat="40.95576900" lon="-3.04598500">
        <ele>974.00000</ele>
        <time>2010-01-01T00:28:08Z</time>
      </trkpt>
      <trkpt lat="40.95576400" lon="-3.04586400">
        <ele>973.00000</ele>
        <time>2010-01-01T00:28:12Z</time>
      </trkpt>
      <trkpt lat="40.95578200" lon="-3.04573600">
        <ele>972.00000</ele>
        <time>2010-01-01T00:28:16Z</time>
      </trkpt>
      <trkpt lat="40.95581900" lon="-3.04559200">
        <ele>971.00000</ele>
        <time>2010-01-01T00:28:21Z</time>
      </trkpt>
      <trkpt lat="40.95586100" lon="-3.04543100">
        <ele>970.00000</ele>
        <time>2010-01-01T00:28:26Z</time>
      </trkpt>
      <trkpt lat="40.95591800" lon="-3.04524100">
        <ele>970.00000</ele>
        <time>2010-01-01T00:28:32Z</time>
      </trkpt>
      <trkpt lat="40.95595800" lon="-3.04506700">
        <ele>970.00000</ele>
        <time>2010-01-01T00:28:37Z</time>
      </trkpt>
      <trkpt lat="40.95599900" lon="-3.04486200">
        <ele>971.00000</ele>
        <time>2010-01-01T00:28:44Z</time>
      </trkpt>
      <trkpt lat="40.95602200" lon="-3.04473800">
        <ele>971.00000</ele>
        <time>2010-01-01T00:28:48Z</time>
      </trkpt>
      <trkpt lat="40.95604500" lon="-3.04461400">
        <ele>972.00000</ele>
        <time>2010-01-01T00:28:51Z</time>
      </trkpt>
      <trkpt lat="40.95606400" lon="-3.04449300">
        <ele>972.00000</ele>
        <time>2010-01-01T00:28:55Z</time>
      </trkpt>
      <trkpt lat="40.95609200" lon="-3.04427600">
        <ele>973.00000</ele>
        <time>2010-01-01T00:29:02Z</time>
      </trkpt>
      <trkpt lat="40.95611100" lon="-3.04410000">
        <ele>974.00000</ele>
        <time>2010-01-01T00:29:07Z</time>
      </trkpt>
      <trkpt lat="40.95612700" lon="-3.04391900">
        <ele>974.00000</ele>
        <time>2010-01-01T00:29:13Z</time>
      </trkpt>
      <trkpt lat="40.95614400" lon="-3.04378000">
        <ele>974.00000</ele>
        <time>2010-01-01T00:29:17Z</time>
      </trkpt>
      <trkpt lat="40.95615600" lon="-3.04362100">
        <ele>974.00000</ele>
        <time>2010-01-01T00:29:22Z</time>
      </trkpt>
      <trkpt lat="40.95615700" lon="-3.04343000">
        <ele>974.00000</ele>
        <time>2010-01-01T00:29:28Z</time>
      </trkpt>
      <trkpt lat="40.95616000" lon="-3.04331100">
        <ele>974.00000</ele>
        <time>2010-01-01T00:29:31Z</time>
      </trkpt>
      <trkpt lat="40.95616300" lon="-3.04318000">
        <ele>974.00000</ele>
        <time>2010-01-01T00:29:35Z</time>
      </trkpt>
      <trkpt lat="40.95616600" lon="-3.04304400">
        <ele>974.00000</ele>
        <time>2010-01-01T00:29:39Z</time>
      </trkpt>
      <trkpt lat="40.95617100" lon="-3.04290300">
        <ele>973.00000</ele>
        <time>2010-01-01T00:29:44Z</time>
      </trkpt>
      <trkpt lat="40.95617600" lon="-3.04276300">
        <ele>972.00000</ele>
        <time>2010-01-01T00:29:48Z</time>
      </trkpt>
      <trkpt lat="40.95618300" lon="-3.04262700">
        <ele>972.00000</ele>
        <time>2010-01-01T00:29:52Z</time>
      </trkpt>
      <trkpt lat="40.95619400" lon="-3.04249500">
        <ele>972.00000</ele>
        <time>2010-01-01T00:29:56Z</time>
      </trkpt>
      <trkpt lat="40.95620600" lon="-3.04236900">
        <ele>972.00000</ele>
        <time>2010-01-01T00:30:00Z</time>
      </trkpt>
      <trkpt lat="40.95622400" lon="-3.04215700">
        <ele>973.00000</ele>
        <time>2010-01-01T00:30:06Z</time>
      </trkpt>
      <trkpt lat="40.95628400" lon="-3.04203200">
        <ele>973.00000</ele>
        <time>2010-01-01T00:30:11Z</time>
      </trkpt>
      <trkpt lat="40.95640000" lon="-3.04202200">
        <ele>974.00000</ele>
        <time>2010-01-01T00:30:15Z</time>
      </trkpt>
      <trkpt lat="40.95647800" lon="-3.04212100">
        <ele>974.00000</ele>
        <time>2010-01-01T00:30:20Z</time>
      </trkpt>
      <trkpt lat="40.95659700" lon="-3.04223500">
        <ele>974.00000</ele>
        <time>2010-01-01T00:30:26Z</time>
      </trkpt>
      <trkpt lat="40.95671900" lon="-3.04235200">
        <ele>974.00000</ele>
        <time>2010-01-01T00:30:32Z</time>
      </trkpt>
      <trkpt lat="40.95682500" lon="-3.04248400">
        <ele>975.00000</ele>
        <time>2010-01-01T00:30:37Z</time>
      </trkpt>
      <trkpt lat="40.95693000" lon="-3.04261800">
        <ele>975.00000</ele>
        <time>2010-01-01T00:30:43Z</time>
      </trkpt>
      <trkpt lat="40.95704500" lon="-3.04274100">
        <ele>975.00000</ele>
        <time>2010-01-01T00:30:49Z</time>
      </trkpt>
      <trkpt lat="40.95717500" lon="-3.04286400">
        <ele>975.00000</ele>
        <time>2010-01-01T00:30:56Z</time>
      </trkpt>
      <trkpt lat="40.95728700" lon="-3.04300200">
        <ele>973.00000</ele>
        <time>2010-01-01T00:31:02Z</time>
      </trkpt>
      <trkpt lat="40.95738500" lon="-3.04313100">
        <ele>972.00000</ele>
        <time>2010-01-01T00:31:07Z</time>
      </trkpt>
      <trkpt lat="40.95748500" lon="-3.04314100">
        <ele>971.00000</ele>
        <time>2010-01-01T00:31:11Z</time>
      </trkpt>
      <trkpt lat="40.95755800" lon="-3.04305600">
        <ele>971.00000</ele>
        <time>2010-01-01T00:31:15Z</time>
      </trkpt>
      <trkpt lat="40.95762300" lon="-3.04292100">
        <ele>972.00000</ele>
        <time>2010-01-01T00:31:20Z</time>
      </trkpt>
      <trkpt lat="40.95768200" lon="-3.04279400">
        <ele>972.00000</ele>
        <time>2010-01-01T00:31:24Z</time>
      </trkpt>
      <trkpt lat="40.95772900" lon="-3.04266400">
        <ele>973.00000</ele>
        <time>2010-01-01T00:31:29Z</time>
      </trkpt>
      <trkpt lat="40.95779100" lon="-3.04251400">
        <ele>973.00000</ele>
        <time>2010-01-01T00:31:34Z</time>
      </trkpt>
      <trkpt lat="40.95785400" lon="-3.04237200">
        <ele>974.00000</ele>
        <time>2010-01-01T00:31:39Z</time>
      </trkpt>
      <trkpt lat="40.95795700" lon="-3.04223800">
        <ele>975.00000</ele>
        <time>2010-01-01T00:31:45Z</time>
      </trkpt>
      <trkpt lat="40.95804400" lon="-3.04207200">
        <ele>976.00000</ele>
        <time>2010-01-01T00:31:51Z</time>
      </trkpt>
      <trkpt lat="40.95812700" lon="-3.04186700">
        <ele>976.00000</ele>
        <time>2010-01-01T00:31:58Z</time>
      </trkpt>
      <trkpt lat="40.95817800" lon="-3.04175900">
        <ele>975.00000</ele>
        <time>2010-01-01T00:32:02Z</time>
      </trkpt>
      <trkpt lat="40.95822700" lon="-3.04164900">
        <ele>974.00000</ele>
        <time>2010-01-01T00:32:06Z</time>
      </trkpt>
      <trkpt lat="40.95830900" lon="-3.04144900">
        <ele>973.00000</ele>
        <time>2010-01-01T00:32:12Z</time>
      </trkpt>
      <trkpt lat="40.95839500" lon="-3.04129200">
        <ele>973.00000</ele>
        <time>2010-01-01T00:32:18Z</time>
      </trkpt>
      <trkpt lat="40.95846700" lon="-3.04112900">
        <ele>973.00000</ele>
        <time>2010-01-01T00:32:24Z</time>
      </trkpt>
      <trkpt lat="40.95852700" lon="-3.04097400">
        <ele>973.00000</ele>
        <time>2010-01-01T00:32:29Z</time>
      </trkpt>
      <trkpt lat="40.95856800" lon="-3.04085300">
        <ele>973.00000</ele>
        <time>2010-01-01T00:32:33Z</time>
      </trkpt>
      <trkpt lat="40.95860900" lon="-3.04073600">
        <ele>973.00000</ele>
        <time>2010-01-01T00:32:37Z</time>
      </trkpt>
      <trkpt lat="40.95865000" lon="-3.04061000">
        <ele>973.00000</ele>
        <time>2010-01-01T00:32:41Z</time>
      </trkpt>
      <trkpt lat="40.95869200" lon="-3.04049800">
        <ele>973.00000</ele>
        <time>2010-01-01T00:32:45Z</time>
      </trkpt>
      <trkpt lat="40.95875900" lon="-3.04039600">
        <ele>972.00000</ele>
        <time>2010-01-01T00:32:49Z</time>
      </trkpt>
      <trkpt lat="40.95882700" lon="-3.04030800">
        <ele>971.00000</ele>
        <time>2010-01-01T00:32:53Z</time>
      </trkpt>
      <trkpt lat="40.95893500" lon="-3.04014600">
        <ele>968.00000</ele>
        <time>2010-01-01T00:33:00Z</time>
      </trkpt>
      <trkpt lat="40.95901600" lon="-3.04003500">
        <ele>966.00000</ele>
        <time>2010-01-01T00:33:04Z</time>
      </trkpt>
      <trkpt lat="40.95908500" lon="-3.03994700">
        <ele>963.00000</ele>
        <time>2010-01-01T00:33:08Z</time>
      </trkpt>
      <trkpt lat="40.95915200" lon="-3.03985200">
        <ele>961.00000</ele>
        <time>2010-01-01T00:33:12Z</time>
      </trkpt>
      <trkpt lat="40.95923200" lon="-3.03974200">
        <ele>959.00000</ele>
        <time>2010-01-01T00:33:17Z</time>
      </trkpt>
      <trkpt lat="40.95931200" lon="-3.03963000">
        <ele>958.00000</ele>
        <time>2010-01-01T00:33:21Z</time>
      </trkpt>
      <trkpt lat="40.95939500" lon="-3.03951600">
        <ele>957.00000</ele>
        <time>2010-01-01T00:33:26Z</time>
      </trkpt>
      <trkpt lat="40.95947200" lon="-3.03940700">
        <ele>956.00000</ele>
        <time>2010-01-01T00:33:31Z</time>
      </trkpt>
      <trkpt lat="40.95956200" lon="-3.03928700">
        <ele>954.00000</ele>
        <time>2010-01-01T00:33:36Z</time>
      </trkpt>
      <trkpt lat="40.95964400" lon="-3.03917100">
        <ele>952.00000</ele>
        <time>2010-01-01T00:33:41Z</time>
      </trkpt>
      <trkpt lat="40.95970900" lon="-3.03907200">
        <ele>952.00000</ele>
        <time>2010-01-01T00:33:44Z</time>
      </trkpt>
      <trkpt lat="40.95978200" lon="-3.03895600">
        <ele>952.00000</ele>
        <time>2010-01-01T00:33:49Z</time>
      </trkpt>
      <trkpt lat="40.95982800" lon="-3.03885300">
        <ele>953.00000</ele>
        <time>2010-01-01T00:33:53Z</time>
      </trkpt>
      <trkpt lat="40.95986300" lon="-3.03871600">
        <ele>954.00000</ele>
        <time>2010-01-01T00:33:57Z</time>
      </trkpt>
      <trkpt lat="40.95989800" lon="-3.03858600">
        <ele>954.00000</ele>
        <time>2010-01-01T00:34:01Z</time>
      </trkpt>
      <trkpt lat="40.95993300" lon="-3.03844800">
        <ele>952.00000</ele>
        <time>2010-01-01T00:34:06Z</time>
      </trkpt>
      <trkpt lat="40.95996200" lon="-3.03831800">
        <ele>950.00000</ele>
        <time>2010-01-01T00:34:10Z</time>
      </trkpt>
      <trkpt lat="40.95999200" lon="-3.03818100">
        <ele>948.00000</ele>
        <time>2010-01-01T00:34:14Z</time>
      </trkpt>
      <trkpt lat="40.96002100" lon="-3.03805200">
        <ele>946.00000</ele>
        <time>2010-01-01T00:34:18Z</time>
      </trkpt>
      <trkpt lat="40.96004900" lon="-3.03790000">
        <ele>944.00000</ele>
        <time>2010-01-01T00:34:23Z</time>
      </trkpt>
      <trkpt lat="40.96007800" lon="-3.03778300">
        <ele>942.00000</ele>
        <time>2010-01-01T00:34:27Z</time>
      </trkpt>
      <trkpt lat="40.96010500" lon="-3.03763600">
        <ele>940.00000</ele>
        <time>2010-01-01T00:34:31Z</time>
      </trkpt>
      <trkpt lat="40.96013300" lon="-3.03749800">
        <ele>938.00000</ele>
        <time>2010-01-01T00:34:35Z</time>
      </trkpt>
      <trkpt lat="40.96015700" lon="-3.03737800">
        <ele>937.00000</ele>
        <time>2010-01-01T00:34:39Z</time>
      </trkpt>
      <trkpt lat="40.96018000" lon="-3.03726100">
        <ele>936.00000</ele>
        <time>2010-01-01T00:34:43Z</time>
      </trkpt>
      <trkpt lat="40.96020800" lon="-3.03713000">
        <ele>934.00000</ele>
        <time>2010-01-01T00:34:47Z</time>
      </trkpt>
      <trkpt lat="40.96023800" lon="-3.03701100">
        <ele>932.00000</ele>
        <time>2010-01-01T00:34:51Z</time>
      </trkpt>
      <trkpt lat="40.96026100" lon="-3.03686700">
        <ele>930.00000</ele>
        <time>2010-01-01T00:34:55Z</time>
      </trkpt>
      <trkpt lat="40.96028600" lon="-3.03673400">
        <ele>928.00000</ele>
        <time>2010-01-01T00:34:59Z</time>
      </trkpt>
      <trkpt lat="40.96031400" lon="-3.03660300">
        <ele>926.00000</ele>
        <time>2010-01-01T00:35:03Z</time>
      </trkpt>
      <trkpt lat="40.96032300" lon="-3.03647000">
        <ele>924.00000</ele>
        <time>2010-01-01T00:35:07Z</time>
      </trkpt>
      <trkpt lat="40.96034300" lon="-3.03633500">
        <ele>921.00000</ele>
        <time>2010-01-01T00:35:12Z</time>
      </trkpt>
      <trkpt lat="40.96036400" lon="-3.03619600">
        <ele>917.00000</ele>
        <time>2010-01-01T00:35:16Z</time>
      </trkpt>
      <trkpt lat="40.96036500" lon="-3.03606900">
        <ele>916.00000</ele>
        <time>2010-01-01T00:35:20Z</time>
      </trkpt>
      <trkpt lat="40.96036400" lon="-3.03593300">
        <ele>914.00000</ele>
        <time>2010-01-01T00:35:24Z</time>
      </trkpt>
      <trkpt lat="40.96036900" lon="-3.03579900">
        <ele>913.00000</ele>
        <time>2010-01-01T00:35:28Z</time>
      </trkpt>
      <trkpt lat="40.96037600" lon="-3.03566600">
        <ele>912.00000</ele>
        <time>2010-01-01T00:35:32Z</time>
      </trkpt>
      <trkpt lat="40.96041500" lon="-3.03555000">
        <ele>911.00000</ele>
        <time>2010-01-01T00:35:36Z</time>
      </trkpt>
      <trkpt lat="40.96050400" lon="-3.03550600">
        <ele>909.00000</ele>
        <time>2010-01-01T00:35:40Z</time>
      </trkpt>
      <trkpt lat="40.96060700" lon="-3.03542800">
        <ele>909.00000</ele>
        <time>2010-01-01T00:35:44Z</time>
      </trkpt>
      <trkpt lat="40.96066500" lon="-3.03533400">
        <ele>911.00000</ele>
        <time>2010-01-01T00:35:48Z</time>
      </trkpt>
      <trkpt lat="40.96063500" lon="-3.03521800">
        <ele>911.00000</ele>
        <time>2010-01-01T00:35:52Z</time>
      </trkpt>
      <trkpt lat="40.96058600" lon="-3.03510300">
        <ele>911.00000</ele>
        <time>2010-01-01T00:35:56Z</time>
      </trkpt>
      <trkpt lat="40.96055800" lon="-3.03497300">
        <ele>912.00000</ele>
        <time>2010-01-01T00:36:00Z</time>
      </trkpt>
      <trkpt lat="40.96064600" lon="-3.03484500">
        <ele>915.00000</ele>
        <time>2010-01-01T00:36:05Z</time>
      </trkpt>
      <trkpt lat="40.96072500" lon="-3.03477400">
        <ele>918.00000</ele>
        <time>2010-01-01T00:36:09Z</time>
      </trkpt>
      <trkpt lat="40.96078000" lon="-3.03467700">
        <ele>921.00000</ele>
        <time>2010-01-01T00:36:13Z</time>
      </trkpt>
      <trkpt lat="40.96084900" lon="-3.03459800">
        <ele>924.00000</ele>
        <time>2010-01-01T00:36:16Z</time>
      </trkpt>
      <trkpt lat="40.96092500" lon="-3.03453100">
        <ele>928.00000</ele>
        <time>2010-01-01T00:36:20Z</time>
      </trkpt>
      <trkpt lat="40.96099800" lon="-3.03445300">
        <ele>931.00000</ele>
        <time>2010-01-01T00:36:24Z</time>
      </trkpt>
      <trkpt lat="40.96106500" lon="-3.03436500">
        <ele>935.00000</ele>
        <time>2010-01-01T00:36:27Z</time>
      </trkpt>
      <trkpt lat="40.96113800" lon="-3.03428100">
        <ele>939.00000</ele>
        <time>2010-01-01T00:36:31Z</time>
      </trkpt>
      <trkpt lat="40.96121400" lon="-3.03420700">
        <ele>942.00000</ele>
        <time>2010-01-01T00:36:35Z</time>
      </trkpt>
      <trkpt lat="40.96137200" lon="-3.03398900">
        <ele>949.00000</ele>
        <time>2010-01-01T00:36:44Z</time>
      </trkpt>
      <trkpt lat="40.96144700" lon="-3.03391500">
        <ele>952.00000</ele>
        <time>2010-01-01T00:36:48Z</time>
      </trkpt>
      <trkpt lat="40.96151700" lon="-3.03384000">
        <ele>954.00000</ele>
        <time>2010-01-01T00:36:52Z</time>
      </trkpt>
      <trkpt lat="40.96160800" lon="-3.03377800">
        <ele>956.00000</ele>
        <time>2010-01-01T00:36:56Z</time>
      </trkpt>
      <trkpt lat="40.96171800" lon="-3.03373400">
        <ele>957.00000</ele>
        <time>2010-01-01T00:37:00Z</time>
      </trkpt>
      <trkpt lat="40.96185300" lon="-3.03370200">
        <ele>958.00000</ele>
        <time>2010-01-01T00:37:06Z</time>
      </trkpt>
      <trkpt lat="40.96199000" lon="-3.03369200">
        <ele>958.00000</ele>
        <time>2010-01-01T00:37:11Z</time>
      </trkpt>
      <trkpt lat="40.96211200" lon="-3.03367700">
        <ele>958.00000</ele>
        <time>2010-01-01T00:37:16Z</time>
      </trkpt>
      <trkpt lat="40.96224200" lon="-3.03365700">
        <ele>958.00000</ele>
        <time>2010-01-01T00:37:21Z</time>
      </trkpt>
      <trkpt lat="40.96236300" lon="-3.03363900">
        <ele>958.00000</ele>
        <time>2010-01-01T00:37:26Z</time>
      </trkpt>
      <trkpt lat="40.96246800" lon="-3.03361800">
        <ele>958.00000</ele>
        <time>2010-01-01T00:37:30Z</time>
      </trkpt>
      <trkpt lat="40.96258800" lon="-3.03359800">
        <ele>958.00000</ele>
        <time>2010-01-01T00:37:35Z</time>
      </trkpt>
      <trkpt lat="40.96272100" lon="-3.03356700">
        <ele>958.00000</ele>
        <time>2010-01-01T00:37:41Z</time>
      </trkpt>
      <trkpt lat="40.96285900" lon="-3.03353800">
        <ele>959.00000</ele>
        <time>2010-01-01T00:37:46Z</time>
      </trkpt>
      <trkpt lat="40.96299200" lon="-3.03351400">
        <ele>961.00000</ele>
        <time>2010-01-01T00:37:52Z</time>
      </trkpt>
      <trkpt lat="40.96309800" lon="-3.03349900">
        <ele>962.00000</ele>
        <time>2010-01-01T00:37:56Z</time>
      </trkpt>
      <trkpt lat="40.96320300" lon="-3.03349000">
        <ele>963.00000</ele>
        <time>2010-01-01T00:38:00Z</time>
      </trkpt>
      <trkpt lat="40.96333100" lon="-3.03346700">
        <ele>964.00000</ele>
        <time>2010-01-01T00:38:05Z</time>
      </trkpt>
      <trkpt lat="40.96346700" lon="-3.03343600">
        <ele>965.00000</ele>
        <time>2010-01-01T00:38:11Z</time>
      </trkpt>
      <trkpt lat="40.96361100" lon="-3.03341000">
        <ele>965.00000</ele>
        <time>2010-01-01T00:38:17Z</time>
      </trkpt>
      <trkpt lat="40.96375000" lon="-3.03339200">
        <ele>965.00000</ele>
        <time>2010-01-01T00:38:22Z</time>
      </trkpt>
      <trkpt lat="40.96386600" lon="-3.03338000">
        <ele>965.00000</ele>
        <time>2010-01-01T00:38:27Z</time>
      </trkpt>
      <trkpt lat="40.96395800" lon="-3.03336000">
        <ele>966.00000</ele>
        <time>2010-01-01T00:38:31Z</time>
      </trkpt>
      <trkpt lat="40.96409400" lon="-3.03333900">
        <ele>966.00000</ele>
        <time>2010-01-01T00:38:36Z</time>
      </trkpt>
      <trkpt lat="40.96422500" lon="-3.03331400">
        <ele>967.00000</ele>
        <time>2010-01-01T00:38:41Z</time>
      </trkpt>
      <trkpt lat="40.96432500" lon="-3.03327700">
        <ele>967.00000</ele>
        <time>2010-01-01T00:38:46Z</time>
      </trkpt>
      <trkpt lat="40.96442100" lon="-3.03322500">
        <ele>968.00000</ele>
        <time>2010-01-01T00:38:50Z</time>
      </trkpt>
      <trkpt lat="40.96452800" lon="-3.03316100">
        <ele>968.00000</ele>
        <time>2010-01-01T00:38:54Z</time>
      </trkpt>
      <trkpt lat="40.96466100" lon="-3.03307300">
        <ele>969.00000</ele>
        <time>2010-01-01T00:39:00Z</time>
      </trkpt>
      <trkpt lat="40.96480100" lon="-3.03298400">
        <ele>970.00000</ele>
        <time>2010-01-01T00:39:07Z</time>
      </trkpt>
      <trkpt lat="40.96491700" lon="-3.03291400">
        <ele>971.00000</ele>
        <time>2010-01-01T00:39:12Z</time>
      </trkpt>
      <trkpt lat="40.96501600" lon="-3.03285700">
        <ele>971.00000</ele>
        <time>2010-01-01T00:39:16Z</time>
      </trkpt>
      <trkpt lat="40.96512500" lon="-3.03279300">
        <ele>971.00000</ele>
        <time>2010-01-01T00:39:21Z</time>
      </trkpt>
      <trkpt lat="40.96524300" lon="-3.03272700">
        <ele>972.00000</ele>
        <time>2010-01-01T00:39:26Z</time>
      </trkpt>
      <trkpt lat="40.96537300" lon="-3.03265800">
        <ele>971.00000</ele>
        <time>2010-01-01T00:39:32Z</time>
      </trkpt>
      <trkpt lat="40.96550500" lon="-3.03259000">
        <ele>970.00000</ele>
        <time>2010-01-01T00:39:37Z</time>
      </trkpt>
      <trkpt lat="40.96560600" lon="-3.03252900">
        <ele>969.00000</ele>
        <time>2010-01-01T00:39:42Z</time>
      </trkpt>
      <trkpt lat="40.96570800" lon="-3.03247100">
        <ele>969.00000</ele>
        <time>2010-01-01T00:39:46Z</time>
      </trkpt>
      <trkpt lat="40.96581600" lon="-3.03241600">
        <ele>969.00000</ele>
        <time>2010-01-01T00:39:51Z</time>
      </trkpt>
      <trkpt lat="40.96586200" lon="-3.03238800">
        <ele>968.00000</ele>
        <time>2010-01-01T00:39:53Z</time>
      </trkpt>
      <trkpt lat="40.96594800" lon="-3.03234600">
        <ele>968.00000</ele>
        <time>2010-01-01T00:39:56Z</time>
      </trkpt>
      <trkpt lat="40.96609200" lon="-3.03228400">
        <ele>967.00000</ele>
        <time>2010-01-01T00:40:02Z</time>
      </trkpt>
      <trkpt lat="40.96618000" lon="-3.03224800">
        <ele>968.00000</ele>
        <time>2010-01-01T00:40:06Z</time>
      </trkpt>
      <trkpt lat="40.96627700" lon="-3.03221100">
        <ele>968.00000</ele>
        <time>2010-01-01T00:40:10Z</time>
      </trkpt>
      <trkpt lat="40.96637900" lon="-3.03217700">
        <ele>969.00000</ele>
        <time>2010-01-01T00:40:14Z</time>
      </trkpt>
      <trkpt lat="40.96648300" lon="-3.03214800">
        <ele>969.00000</ele>
        <time>2010-01-01T00:40:19Z</time>
      </trkpt>
      <trkpt lat="40.96658600" lon="-3.03212300">
        <ele>969.00000</ele>
        <time>2010-01-01T00:40:23Z</time>
      </trkpt>
      <trkpt lat="40.96668600" lon="-3.03210300">
        <ele>969.00000</ele>
        <time>2010-01-01T00:40:27Z</time>
      </trkpt>
      <trkpt lat="40.96678300" lon="-3.03208900">
        <ele>969.00000</ele>
        <time>2010-01-01T00:40:31Z</time>
      </trkpt>
      <trkpt lat="40.96688300" lon="-3.03207400">
        <ele>969.00000</ele>
        <time>2010-01-01T00:40:35Z</time>
      </trkpt>
      <trkpt lat="40.96698000" lon="-3.03205800">
        <ele>969.00000</ele>
        <time>2010-01-01T00:40:39Z</time>
      </trkpt>
      <trkpt lat="40.96707700" lon="-3.03203500">
        <ele>969.00000</ele>
        <time>2010-01-01T00:40:43Z</time>
      </trkpt>
      <trkpt lat="40.96717000" lon="-3.03201100">
        <ele>969.00000</ele>
        <time>2010-01-01T00:40:46Z</time>
      </trkpt>
      <trkpt lat="40.96734200" lon="-3.03197100">
        <ele>969.00000</ele>
        <time>2010-01-01T00:40:53Z</time>
      </trkpt>
      <trkpt lat="40.96749200" lon="-3.03193900">
        <ele>969.00000</ele>
        <time>2010-01-01T00:41:00Z</time>
      </trkpt>
      <trkpt lat="40.96763600" lon="-3.03190700">
        <ele>970.00000</ele>
        <time>2010-01-01T00:41:05Z</time>
      </trkpt>
      <trkpt lat="40.96778100" lon="-3.03186300">
        <ele>970.00000</ele>
        <time>2010-01-01T00:41:11Z</time>
      </trkpt>
      <trkpt lat="40.96790700" lon="-3.03179300">
        <ele>970.00000</ele>
        <time>2010-01-01T00:41:17Z</time>
      </trkpt>
      <trkpt lat="40.96800800" lon="-3.03174800">
        <ele>970.00000</ele>
        <time>2010-01-01T00:41:21Z</time>
      </trkpt>
      <trkpt lat="40.96812400" lon="-3.03173000">
        <ele>970.00000</ele>
        <time>2010-01-01T00:41:26Z</time>
      </trkpt>
      <trkpt lat="40.96822800" lon="-3.03172100">
        <ele>970.00000</ele>
        <time>2010-01-01T00:41:30Z</time>
      </trkpt>
      <trkpt lat="40.96832100" lon="-3.03170400">
        <ele>970.00000</ele>
        <time>2010-01-01T00:41:34Z</time>
      </trkpt>
      <trkpt lat="40.96843400" lon="-3.03168700">
        <ele>971.00000</ele>
        <time>2010-01-01T00:41:38Z</time>
      </trkpt>
      <trkpt lat="40.96855900" lon="-3.03166500">
        <ele>970.00000</ele>
        <time>2010-01-01T00:41:43Z</time>
      </trkpt>
      <trkpt lat="40.96869700" lon="-3.03163200">
        <ele>971.00000</ele>
        <time>2010-01-01T00:41:49Z</time>
      </trkpt>
      <trkpt lat="40.96883000" lon="-3.03159500">
        <ele>971.00000</ele>
        <time>2010-01-01T00:41:54Z</time>
      </trkpt>
      <trkpt lat="40.96894500" lon="-3.03156200">
        <ele>971.00000</ele>
        <time>2010-01-01T00:41:59Z</time>
      </trkpt>
      <trkpt lat="40.96907600" lon="-3.03151700">
        <ele>971.00000</ele>
        <time>2010-01-01T00:42:04Z</time>
      </trkpt>
      <trkpt lat="40.96917700" lon="-3.03147900">
        <ele>970.00000</ele>
        <time>2010-01-01T00:42:09Z</time>
      </trkpt>
      <trkpt lat="40.96929800" lon="-3.03146300">
        <ele>969.00000</ele>
        <time>2010-01-01T00:42:14Z</time>
      </trkpt>
      <trkpt lat="40.96941100" lon="-3.03145500">
        <ele>968.00000</ele>
        <time>2010-01-01T00:42:18Z</time>
      </trkpt>
      <trkpt lat="40.96952700" lon="-3.03142800">
        <ele>967.00000</ele>
        <time>2010-01-01T00:42:23Z</time>
      </trkpt>
      <trkpt lat="40.96964700" lon="-3.03143400">
        <ele>967.00000</ele>
        <time>2010-01-01T00:42:28Z</time>
      </trkpt>
      <trkpt lat="40.96976300" lon="-3.03144900">
        <ele>967.00000</ele>
        <time>2010-01-01T00:42:32Z</time>
      </trkpt>
      <trkpt lat="40.96985600" lon="-3.03144400">
        <ele>968.00000</ele>
        <time>2010-01-01T00:42:36Z</time>
      </trkpt>
      <trkpt lat="40.96997400" lon="-3.03139800">
        <ele>968.00000</ele>
        <time>2010-01-01T00:42:41Z</time>
      </trkpt>
      <trkpt lat="40.97005800" lon="-3.03135100">
        <ele>968.00000</ele>
        <time>2010-01-01T00:42:45Z</time>
      </trkpt>
      <trkpt lat="40.97015100" lon="-3.03129600">
        <ele>968.00000</ele>
        <time>2010-01-01T00:42:49Z</time>
      </trkpt>
      <trkpt lat="40.97025000" lon="-3.03124300">
        <ele>968.00000</ele>
        <time>2010-01-01T00:42:53Z</time>
      </trkpt>
      <trkpt lat="40.97036100" lon="-3.03119900">
        <ele>969.00000</ele>
        <time>2010-01-01T00:42:58Z</time>
      </trkpt>
      <trkpt lat="40.97048100" lon="-3.03117500">
        <ele>969.00000</ele>
        <time>2010-01-01T00:43:02Z</time>
      </trkpt>
      <trkpt lat="40.97058200" lon="-3.03116100">
        <ele>969.00000</ele>
        <time>2010-01-01T00:43:06Z</time>
      </trkpt>
      <trkpt lat="40.97067700" lon="-3.03114000">
        <ele>969.00000</ele>
        <time>2010-01-01T00:43:10Z</time>
      </trkpt>
      <trkpt lat="40.97078400" lon="-3.03107900">
        <ele>969.00000</ele>
        <time>2010-01-01T00:43:15Z</time>
      </trkpt>
      <trkpt lat="40.97087700" lon="-3.03099900">
        <ele>969.00000</ele>
        <time>2010-01-01T00:43:19Z</time>
      </trkpt>
      <trkpt lat="40.97095700" lon="-3.03090700">
        <ele>969.00000</ele>
        <time>2010-01-01T00:43:24Z</time>
      </trkpt>
      <trkpt lat="40.97104400" lon="-3.03081500">
        <ele>969.00000</ele>
        <time>2010-01-01T00:43:28Z</time>
      </trkpt>
      <trkpt lat="40.97114200" lon="-3.03074700">
        <ele>969.00000</ele>
        <time>2010-01-01T00:43:33Z</time>
      </trkpt>
      <trkpt lat="40.97126200" lon="-3.03068200">
        <ele>970.00000</ele>
        <time>2010-01-01T00:43:38Z</time>
      </trkpt>
      <trkpt lat="40.97140100" lon="-3.03061600">
        <ele>970.00000</ele>
        <time>2010-01-01T00:43:44Z</time>
      </trkpt>
      <trkpt lat="40.97152700" lon="-3.03054400">
        <ele>969.00000</ele>
        <time>2010-01-01T00:43:49Z</time>
      </trkpt>
      <trkpt lat="40.97164300" lon="-3.03047300">
        <ele>968.00000</ele>
        <time>2010-01-01T00:43:54Z</time>
      </trkpt>
      <trkpt lat="40.97175200" lon="-3.03038300">
        <ele>967.00000</ele>
        <time>2010-01-01T00:43:59Z</time>
      </trkpt>
      <trkpt lat="40.97183900" lon="-3.03027300">
        <ele>966.00000</ele>
        <time>2010-01-01T00:44:04Z</time>
      </trkpt>
      <trkpt lat="40.97199700" lon="-3.03014000">
        <ele>965.00000</ele>
        <time>2010-01-01T00:44:12Z</time>
      </trkpt>
      <trkpt lat="40.97207400" lon="-3.03007800">
        <ele>964.00000</ele>
        <time>2010-01-01T00:44:15Z</time>
      </trkpt>
      <trkpt lat="40.97221100" lon="-3.02996700">
        <ele>964.00000</ele>
        <time>2010-01-01T00:44:22Z</time>
      </trkpt>
      <trkpt lat="40.97230500" lon="-3.02993000">
        <ele>964.00000</ele>
        <time>2010-01-01T00:44:26Z</time>
      </trkpt>
      <trkpt lat="40.97237600" lon="-3.02982600">
        <ele>963.00000</ele>
        <time>2010-01-01T00:44:30Z</time>
      </trkpt>
      <trkpt lat="40.97228500" lon="-3.02979600">
        <ele>962.00000</ele>
        <time>2010-01-01T00:44:34Z</time>
      </trkpt>
      <trkpt lat="40.97217400" lon="-3.02979900">
        <ele>962.00000</ele>
        <time>2010-01-01T00:44:38Z</time>
      </trkpt>
      <trkpt lat="40.97204800" lon="-3.02980500">
        <ele>962.00000</ele>
        <time>2010-01-01T00:44:43Z</time>
      </trkpt>
      <trkpt lat="40.97193200" lon="-3.02980400">
        <ele>961.00000</ele>
        <time>2010-01-01T00:44:48Z</time>
      </trkpt>
      <trkpt lat="40.97180300" lon="-3.02981500">
        <ele>960.00000</ele>
        <time>2010-01-01T00:44:53Z</time>
      </trkpt>
      <trkpt lat="40.97168800" lon="-3.02982900">
        <ele>959.00000</ele>
        <time>2010-01-01T00:44:58Z</time>
      </trkpt>
      <trkpt lat="40.97159600" lon="-3.02983100">
        <ele>959.00000</ele>
        <time>2010-01-01T00:45:01Z</time>
      </trkpt>
      <trkpt lat="40.97147200" lon="-3.02982500">
        <ele>959.00000</ele>
        <time>2010-01-01T00:45:06Z</time>
      </trkpt>
      <trkpt lat="40.97135700" lon="-3.02982300">
        <ele>959.00000</ele>
        <time>2010-01-01T00:45:11Z</time>
      </trkpt>
      <trkpt lat="40.97125500" lon="-3.02982500">
        <ele>959.00000</ele>
        <time>2010-01-01T00:45:15Z</time>
      </trkpt>
      <trkpt lat="40.97115100" lon="-3.02983300">
        <ele>959.00000</ele>
        <time>2010-01-01T00:45:19Z</time>
      </trkpt>
      <trkpt lat="40.97105200" lon="-3.02984800">
        <ele>958.00000</ele>
        <time>2010-01-01T00:45:23Z</time>
      </trkpt>
      <trkpt lat="40.97092200" lon="-3.02987300">
        <ele>957.00000</ele>
        <time>2010-01-01T00:45:28Z</time>
      </trkpt>
      <trkpt lat="40.97080000" lon="-3.02986800">
        <ele>955.00000</ele>
        <time>2010-01-01T00:45:33Z</time>
      </trkpt>
      <trkpt lat="40.97067100" lon="-3.02989600">
        <ele>954.00000</ele>
        <time>2010-01-01T00:45:38Z</time>
      </trkpt>
      <trkpt lat="40.97053600" lon="-3.02993000">
        <ele>953.00000</ele>
        <time>2010-01-01T00:45:44Z</time>
      </trkpt>
      <trkpt lat="40.97042600" lon="-3.02994300">
        <ele>952.00000</ele>
        <time>2010-01-01T00:45:48Z</time>
      </trkpt>
      <trkpt lat="40.97030300" lon="-3.02991100">
        <ele>950.00000</ele>
        <time>2010-01-01T00:45:53Z</time>
      </trkpt>
      <trkpt lat="40.97017700" lon="-3.02987800">
        <ele>949.00000</ele>
        <time>2010-01-01T00:45:59Z</time>
      </trkpt>
      <trkpt lat="40.97006400" lon="-3.02987500">
        <ele>948.00000</ele>
        <time>2010-01-01T00:46:03Z</time>
      </trkpt>
      <trkpt lat="40.96996800" lon="-3.02986200">
        <ele>947.00000</ele>
        <time>2010-01-01T00:46:07Z</time>
      </trkpt>
      <trkpt lat="40.96987500" lon="-3.02982100">
        <ele>946.00000</ele>
        <time>2010-01-01T00:46:11Z</time>
      </trkpt>
      <trkpt lat="40.96977300" lon="-3.02977800">
        <ele>945.00000</ele>
        <time>2010-01-01T00:46:15Z</time>
      </trkpt>
      <trkpt lat="40.96966200" lon="-3.02973300">
        <ele>945.00000</ele>
        <time>2010-01-01T00:46:20Z</time>
      </trkpt>
      <trkpt lat="40.96956800" lon="-3.02970400">
        <ele>945.00000</ele>
        <time>2010-01-01T00:46:24Z</time>
      </trkpt>
      <trkpt lat="40.96946900" lon="-3.02967000">
        <ele>945.00000</ele>
        <time>2010-01-01T00:46:28Z</time>
      </trkpt>
      <trkpt lat="40.96937200" lon="-3.02963500">
        <ele>946.00000</ele>
        <time>2010-01-01T00:46:32Z</time>
      </trkpt>
      <trkpt lat="40.96923400" lon="-3.02959000">
        <ele>947.00000</ele>
        <time>2010-01-01T00:46:37Z</time>
      </trkpt>
      <trkpt lat="40.96914300" lon="-3.02955700">
        <ele>947.00000</ele>
        <time>2010-01-01T00:46:41Z</time>
      </trkpt>
      <trkpt lat="40.96904600" lon="-3.02951600">
        <ele>947.00000</ele>
        <time>2010-01-01T00:46:45Z</time>
      </trkpt>
      <trkpt lat="40.96892900" lon="-3.02947000">
        <ele>946.00000</ele>
        <time>2010-01-01T00:46:50Z</time>
      </trkpt>
      <trkpt lat="40.96883500" lon="-3.02941500">
        <ele>945.00000</ele>
        <time>2010-01-01T00:46:54Z</time>
      </trkpt>
      <trkpt lat="40.96874400" lon="-3.02937500">
        <ele>944.00000</ele>
        <time>2010-01-01T00:46:58Z</time>
      </trkpt>
      <trkpt lat="40.96864200" lon="-3.02930100">
        <ele>943.00000</ele>
        <time>2010-01-01T00:47:03Z</time>
      </trkpt>
      <trkpt lat="40.96857400" lon="-3.02921100">
        <ele>942.00000</ele>
        <time>2010-01-01T00:47:07Z</time>
      </trkpt>
      <trkpt lat="40.96850700" lon="-3.02910200">
        <ele>941.00000</ele>
        <time>2010-01-01T00:47:11Z</time>
      </trkpt>
      <trkpt lat="40.96842500" lon="-3.02901100">
        <ele>940.00000</ele>
        <time>2010-01-01T00:47:15Z</time>
      </trkpt>
      <trkpt lat="40.96832500" lon="-3.02890900">
        <ele>939.00000</ele>
        <time>2010-01-01T00:47:20Z</time>
      </trkpt>
      <trkpt lat="40.96823000" lon="-3.02880800">
        <ele>939.00000</ele>
        <time>2010-01-01T00:47:25Z</time>
      </trkpt>
      <trkpt lat="40.96813200" lon="-3.02869900">
        <ele>939.00000</ele>
        <time>2010-01-01T00:47:30Z</time>
      </trkpt>
      <trkpt lat="40.96802400" lon="-3.02858600">
        <ele>938.00000</ele>
        <time>2010-01-01T00:47:36Z</time>
      </trkpt>
      <trkpt lat="40.96792400" lon="-3.02849000">
        <ele>938.00000</ele>
        <time>2010-01-01T00:47:41Z</time>
      </trkpt>
      <trkpt lat="40.96783900" lon="-3.02840600">
        <ele>938.00000</ele>
        <time>2010-01-01T00:47:45Z</time>
      </trkpt>
      <trkpt lat="40.96773900" lon="-3.02831400">
        <ele>937.00000</ele>
        <time>2010-01-01T00:47:50Z</time>
      </trkpt>
      <trkpt lat="40.96763300" lon="-3.02822400">
        <ele>936.00000</ele>
        <time>2010-01-01T00:47:55Z</time>
      </trkpt>
      <trkpt lat="40.96753400" lon="-3.02814100">
        <ele>935.00000</ele>
        <time>2010-01-01T00:48:00Z</time>
      </trkpt>
      <trkpt lat="40.96745500" lon="-3.02806300">
        <ele>934.00000</ele>
        <time>2010-01-01T00:48:04Z</time>
      </trkpt>
      <trkpt lat="40.96737000" lon="-3.02798400">
        <ele>933.00000</ele>
        <time>2010-01-01T00:48:08Z</time>
      </trkpt>
      <trkpt lat="40.96728300" lon="-3.02790100">
        <ele>933.00000</ele>
        <time>2010-01-01T00:48:12Z</time>
      </trkpt>
      <trkpt lat="40.96719400" lon="-3.02782000">
        <ele>933.00000</ele>
        <time>2010-01-01T00:48:16Z</time>
      </trkpt>
      <trkpt lat="40.96709600" lon="-3.02772500">
        <ele>933.00000</ele>
        <time>2010-01-01T00:48:21Z</time>
      </trkpt>
      <trkpt lat="40.96699700" lon="-3.02762800">
        <ele>933.00000</ele>
        <time>2010-01-01T00:48:26Z</time>
      </trkpt>
      <trkpt lat="40.96688300" lon="-3.02752100">
        <ele>932.00000</ele>
        <time>2010-01-01T00:48:32Z</time>
      </trkpt>
      <trkpt lat="40.96678800" lon="-3.02743000">
        <ele>932.00000</ele>
        <time>2010-01-01T00:48:36Z</time>
      </trkpt>
      <trkpt lat="40.96671100" lon="-3.02733800">
        <ele>932.00000</ele>
        <time>2010-01-01T00:48:41Z</time>
      </trkpt>
      <trkpt lat="40.96662800" lon="-3.02723500">
        <ele>932.00000</ele>
        <time>2010-01-01T00:48:45Z</time>
      </trkpt>
      <trkpt lat="40.96652400" lon="-3.02712600">
        <ele>932.00000</ele>
        <time>2010-01-01T00:48:50Z</time>
      </trkpt>
      <trkpt lat="40.96642000" lon="-3.02701900">
        <ele>932.00000</ele>
        <time>2010-01-01T00:48:56Z</time>
      </trkpt>
      <trkpt lat="40.96630800" lon="-3.02689800">
        <ele>930.00000</ele>
        <time>2010-01-01T00:49:01Z</time>
      </trkpt>
      <trkpt lat="40.96619400" lon="-3.02677300">
        <ele>929.00000</ele>
        <time>2010-01-01T00:49:07Z</time>
      </trkpt>
      <trkpt lat="40.96607300" lon="-3.02664900">
        <ele>927.00000</ele>
        <time>2010-01-01T00:49:13Z</time>
      </trkpt>
      <trkpt lat="40.96595200" lon="-3.02653200">
        <ele>927.00000</ele>
        <time>2010-01-01T00:49:19Z</time>
      </trkpt>
      <trkpt lat="40.96584200" lon="-3.02641300">
        <ele>926.00000</ele>
        <time>2010-01-01T00:49:25Z</time>
      </trkpt>
      <trkpt lat="40.96572700" lon="-3.02628700">
        <ele>925.00000</ele>
        <time>2010-01-01T00:49:31Z</time>
      </trkpt>
      <trkpt lat="40.96561200" lon="-3.02615700">
        <ele>925.00000</ele>
        <time>2010-01-01T00:49:37Z</time>
      </trkpt>
      <trkpt lat="40.96549600" lon="-3.02602600">
        <ele>924.00000</ele>
        <time>2010-01-01T00:49:43Z</time>
      </trkpt>
      <trkpt lat="40.96538300" lon="-3.02591200">
        <ele>923.00000</ele>
        <time>2010-01-01T00:49:49Z</time>
      </trkpt>
      <trkpt lat="40.96526600" lon="-3.02579800">
        <ele>922.00000</ele>
        <time>2010-01-01T00:49:55Z</time>
      </trkpt>
      <trkpt lat="40.96515000" lon="-3.02568600">
        <ele>922.00000</ele>
        <time>2010-01-01T00:50:01Z</time>
      </trkpt>
      <trkpt lat="40.96504200" lon="-3.02556800">
        <ele>921.00000</ele>
        <time>2010-01-01T00:50:06Z</time>
      </trkpt>
      <trkpt lat="40.96493300" lon="-3.02544900">
        <ele>921.00000</ele>
        <time>2010-01-01T00:50:12Z</time>
      </trkpt>
      <trkpt lat="40.96481800" lon="-3.02532400">
        <ele>920.00000</ele>
        <time>2010-01-01T00:50:18Z</time>
      </trkpt>
      <trkpt lat="40.96469400" lon="-3.02518600">
        <ele>920.00000</ele>
        <time>2010-01-01T00:50:24Z</time>
      </trkpt>
      <trkpt lat="40.96457400" lon="-3.02506000">
        <ele>918.00000</ele>
        <time>2010-01-01T00:50:30Z</time>
      </trkpt>
      <trkpt lat="40.96446600" lon="-3.02494900">
        <ele>917.00000</ele>
        <time>2010-01-01T00:50:36Z</time>
      </trkpt>
      <trkpt lat="40.96437600" lon="-3.02485100">
        <ele>916.00000</ele>
        <time>2010-01-01T00:50:41Z</time>
      </trkpt>
      <trkpt lat="40.96430300" lon="-3.02476300">
        <ele>916.00000</ele>
        <time>2010-01-01T00:50:44Z</time>
      </trkpt>
      <trkpt lat="40.96423800" lon="-3.02466700">
        <ele>916.00000</ele>
        <time>2010-01-01T00:50:48Z</time>
      </trkpt>
      <trkpt lat="40.96417200" lon="-3.02457400">
        <ele>916.00000</ele>
        <time>2010-01-01T00:50:52Z</time>
      </trkpt>
      <trkpt lat="40.96410500" lon="-3.02446300">
        <ele>917.00000</ele>
        <time>2010-01-01T00:50:57Z</time>
      </trkpt>
      <trkpt lat="40.96402500" lon="-3.02434500">
        <ele>917.00000</ele>
        <time>2010-01-01T00:51:01Z</time>
      </trkpt>
      <trkpt lat="40.96393000" lon="-3.02420100">
        <ele>916.00000</ele>
        <time>2010-01-01T00:51:07Z</time>
      </trkpt>
      <trkpt lat="40.96383300" lon="-3.02406600">
        <ele>915.00000</ele>
        <time>2010-01-01T00:51:13Z</time>
      </trkpt>
      <trkpt lat="40.96374700" lon="-3.02393700">
        <ele>915.00000</ele>
        <time>2010-01-01T00:51:18Z</time>
      </trkpt>
      <trkpt lat="40.96365600" lon="-3.02378300">
        <ele>914.00000</ele>
        <time>2010-01-01T00:51:24Z</time>
      </trkpt>
      <trkpt lat="40.96357800" lon="-3.02363500">
        <ele>914.00000</ele>
        <time>2010-01-01T00:51:29Z</time>
      </trkpt>
      <trkpt lat="40.96350300" lon="-3.02349100">
        <ele>915.00000</ele>
        <time>2010-01-01T00:51:35Z</time>
      </trkpt>
      <trkpt lat="40.96341500" lon="-3.02332900">
        <ele>914.00000</ele>
        <time>2010-01-01T00:51:41Z</time>
      </trkpt>
      <trkpt lat="40.96333800" lon="-3.02318600">
        <ele>913.00000</ele>
        <time>2010-01-01T00:51:46Z</time>
      </trkpt>
      <trkpt lat="40.96325900" lon="-3.02303900">
        <ele>914.00000</ele>
        <time>2010-01-01T00:51:51Z</time>
      </trkpt>
      <trkpt lat="40.96319700" lon="-3.02292200">
        <ele>915.00000</ele>
        <time>2010-01-01T00:51:56Z</time>
      </trkpt>
      <trkpt lat="40.96312800" lon="-3.02279200">
        <ele>915.00000</ele>
        <time>2010-01-01T00:52:00Z</time>
      </trkpt>
      <trkpt lat="40.96303800" lon="-3.02262700">
        <ele>915.00000</ele>
        <time>2010-01-01T00:52:07Z</time>
      </trkpt>
      <trkpt lat="40.96295900" lon="-3.02249100">
        <ele>914.00000</ele>
        <time>2010-01-01T00:52:12Z</time>
      </trkpt>
      <trkpt lat="40.96287500" lon="-3.02234000">
        <ele>914.00000</ele>
        <time>2010-01-01T00:52:18Z</time>
      </trkpt>
      <trkpt lat="40.96281300" lon="-3.02225200">
        <ele>913.00000</ele>
        <time>2010-01-01T00:52:21Z</time>
      </trkpt>
      <trkpt lat="40.96271800" lon="-3.02213300">
        <ele>911.00000</ele>
        <time>2010-01-01T00:52:26Z</time>
      </trkpt>
      <trkpt lat="40.96261400" lon="-3.02200400">
        <ele>911.00000</ele>
        <time>2010-01-01T00:52:32Z</time>
      </trkpt>
      <trkpt lat="40.96251100" lon="-3.02187300">
        <ele>910.00000</ele>
        <time>2010-01-01T00:52:38Z</time>
      </trkpt>
      <trkpt lat="40.96241000" lon="-3.02174600">
        <ele>908.00000</ele>
        <time>2010-01-01T00:52:43Z</time>
      </trkpt>
      <trkpt lat="40.96232300" lon="-3.02164300">
        <ele>908.00000</ele>
        <time>2010-01-01T00:52:48Z</time>
      </trkpt>
      <trkpt lat="40.96222800" lon="-3.02150500">
        <ele>906.00000</ele>
        <time>2010-01-01T00:52:54Z</time>
      </trkpt>
      <trkpt lat="40.96213700" lon="-3.02142900">
        <ele>905.00000</ele>
        <time>2010-01-01T00:52:58Z</time>
      </trkpt>
      <trkpt lat="40.96206200" lon="-3.02136000">
        <ele>905.00000</ele>
        <time>2010-01-01T00:53:02Z</time>
      </trkpt>
      <trkpt lat="40.96195500" lon="-3.02128500">
        <ele>905.00000</ele>
        <time>2010-01-01T00:53:06Z</time>
      </trkpt>
      <trkpt lat="40.96183700" lon="-3.02119000">
        <ele>904.00000</ele>
        <time>2010-01-01T00:53:12Z</time>
      </trkpt>
      <trkpt lat="40.96171800" lon="-3.02108300">
        <ele>903.00000</ele>
        <time>2010-01-01T00:53:18Z</time>
      </trkpt>
      <trkpt lat="40.96157800" lon="-3.02102600">
        <ele>903.00000</ele>
        <time>2010-01-01T00:53:24Z</time>
      </trkpt>
      <trkpt lat="40.96142100" lon="-3.02104200">
        <ele>903.00000</ele>
        <time>2010-01-01T00:53:30Z</time>
      </trkpt>
      <trkpt lat="40.96127800" lon="-3.02108300">
        <ele>903.00000</ele>
        <time>2010-01-01T00:53:36Z</time>
      </trkpt>
      <trkpt lat="40.96113400" lon="-3.02104300">
        <ele>902.00000</ele>
        <time>2010-01-01T00:53:42Z</time>
      </trkpt>
      <trkpt lat="40.96098300" lon="-3.02094900">
        <ele>901.00000</ele>
        <time>2010-01-01T00:53:48Z</time>
      </trkpt>
      <trkpt lat="40.96089700" lon="-3.02090100">
        <ele>900.00000</ele>
        <time>2010-01-01T00:53:52Z</time>
      </trkpt>
      <trkpt lat="40.96073300" lon="-3.02083900">
        <ele>900.00000</ele>
        <time>2010-01-01T00:53:59Z</time>
      </trkpt>
      <trkpt lat="40.96059500" lon="-3.02080400">
        <ele>900.00000</ele>
        <time>2010-01-01T00:54:05Z</time>
      </trkpt>
      <trkpt lat="40.96048300" lon="-3.02078200">
        <ele>900.00000</ele>
        <time>2010-01-01T00:54:09Z</time>
      </trkpt>
      <trkpt lat="40.96037500" lon="-3.02074100">
        <ele>900.00000</ele>
        <time>2010-01-01T00:54:14Z</time>
      </trkpt>
      <trkpt lat="40.96025900" lon="-3.02069100">
        <ele>900.00000</ele>
        <time>2010-01-01T00:54:18Z</time>
      </trkpt>
      <trkpt lat="40.96013200" lon="-3.02059900">
        <ele>899.00000</ele>
        <time>2010-01-01T00:54:24Z</time>
      </trkpt>
      <trkpt lat="40.95999200" lon="-3.02049100">
        <ele>898.00000</ele>
        <time>2010-01-01T00:54:31Z</time>
      </trkpt>
      <trkpt lat="40.95985600" lon="-3.02039800">
        <ele>898.00000</ele>
        <time>2010-01-01T00:54:37Z</time>
      </trkpt>
      <trkpt lat="40.95972000" lon="-3.02029400">
        <ele>897.00000</ele>
        <time>2010-01-01T00:54:43Z</time>
      </trkpt>
      <trkpt lat="40.95962500" lon="-3.02016300">
        <ele>896.00000</ele>
        <time>2010-01-01T00:54:49Z</time>
      </trkpt>
      <trkpt lat="40.95953200" lon="-3.02000500">
        <ele>894.00000</ele>
        <time>2010-01-01T00:54:55Z</time>
      </trkpt>
      <trkpt lat="40.95940600" lon="-3.01986900">
        <ele>894.00000</ele>
        <time>2010-01-01T00:55:01Z</time>
      </trkpt>
      <trkpt lat="40.95925400" lon="-3.01981300">
        <ele>893.00000</ele>
        <time>2010-01-01T00:55:08Z</time>
      </trkpt>
      <trkpt lat="40.95909300" lon="-3.01981300">
        <ele>893.00000</ele>
        <time>2010-01-01T00:55:14Z</time>
      </trkpt>
      <trkpt lat="40.95893600" lon="-3.01979400">
        <ele>893.00000</ele>
        <time>2010-01-01T00:55:20Z</time>
      </trkpt>
      <trkpt lat="40.95880700" lon="-3.01970300">
        <ele>893.00000</ele>
        <time>2010-01-01T00:55:26Z</time>
      </trkpt>
      <trkpt lat="40.95868500" lon="-3.01954500">
        <ele>893.00000</ele>
        <time>2010-01-01T00:55:33Z</time>
      </trkpt>
      <trkpt lat="40.95856500" lon="-3.01938700">
        <ele>893.00000</ele>
        <time>2010-01-01T00:55:40Z</time>
      </trkpt>
      <trkpt lat="40.95845800" lon="-3.01925300">
        <ele>892.00000</ele>
        <time>2010-01-01T00:55:46Z</time>
      </trkpt>
      <trkpt lat="40.95833600" lon="-3.01915100">
        <ele>892.00000</ele>
        <time>2010-01-01T00:55:51Z</time>
      </trkpt>
      <trkpt lat="40.95819400" lon="-3.01908600">
        <ele>891.00000</ele>
        <time>2010-01-01T00:55:57Z</time>
      </trkpt>
      <trkpt lat="40.95804100" lon="-3.01907300">
        <ele>891.00000</ele>
        <time>2010-01-01T00:56:04Z</time>
      </trkpt>
      <trkpt lat="40.95788500" lon="-3.01906100">
        <ele>891.00000</ele>
        <time>2010-01-01T00:56:10Z</time>
      </trkpt>
      <trkpt lat="40.95774200" lon="-3.01897100">
        <ele>891.00000</ele>
        <time>2010-01-01T00:56:16Z</time>
      </trkpt>
      <trkpt lat="40.95766600" lon="-3.01890400">
        <ele>891.00000</ele>
        <time>2010-01-01T00:56:20Z</time>
      </trkpt>
      <trkpt lat="40.95744000" lon="-3.01869800">
        <ele>890.00000</ele>
        <time>2010-01-01T00:56:31Z</time>
      </trkpt>
      <trkpt lat="40.95730200" lon="-3.01858900">
        <ele>889.00000</ele>
        <time>2010-01-01T00:56:37Z</time>
      </trkpt>
      <trkpt lat="40.95714400" lon="-3.01854100">
        <ele>890.00000</ele>
        <time>2010-01-01T00:56:44Z</time>
      </trkpt>
      <trkpt lat="40.95696900" lon="-3.01848900">
        <ele>891.00000</ele>
        <time>2010-01-01T00:56:51Z</time>
      </trkpt>
      <trkpt lat="40.95682900" lon="-3.01837400">
        <ele>890.00000</ele>
        <time>2010-01-01T00:56:58Z</time>
      </trkpt>
      <trkpt lat="40.95671200" lon="-3.01823300">
        <ele>888.00000</ele>
        <time>2010-01-01T00:57:04Z</time>
      </trkpt>
      <trkpt lat="40.95660200" lon="-3.01810600">
        <ele>887.00000</ele>
        <time>2010-01-01T00:57:10Z</time>
      </trkpt>
      <trkpt lat="40.95651300" lon="-3.01801300">
        <ele>887.00000</ele>
        <time>2010-01-01T00:57:14Z</time>
      </trkpt>
      <trkpt lat="40.95642100" lon="-3.01793900">
        <ele>887.00000</ele>
        <time>2010-01-01T00:57:19Z</time>
      </trkpt>
      <trkpt lat="40.95630800" lon="-3.01784900">
        <ele>886.00000</ele>
        <time>2010-01-01T00:57:24Z</time>
      </trkpt>
      <trkpt lat="40.95619900" lon="-3.01778900">
        <ele>886.00000</ele>
        <time>2010-01-01T00:57:29Z</time>
      </trkpt>
      <trkpt lat="40.95606600" lon="-3.01780300">
        <ele>885.00000</ele>
        <time>2010-01-01T00:57:34Z</time>
      </trkpt>
      <trkpt lat="40.95598500" lon="-3.01786300">
        <ele>885.00000</ele>
        <time>2010-01-01T00:57:38Z</time>
      </trkpt>
      <trkpt lat="40.95588500" lon="-3.01791800">
        <ele>885.00000</ele>
        <time>2010-01-01T00:57:42Z</time>
      </trkpt>
      <trkpt lat="40.95574900" lon="-3.01790500">
        <ele>884.00000</ele>
        <time>2010-01-01T00:57:47Z</time>
      </trkpt>
      <trkpt lat="40.95559300" lon="-3.01783800">
        <ele>883.00000</ele>
        <time>2010-01-01T00:57:54Z</time>
      </trkpt>
      <trkpt lat="40.95543500" lon="-3.01777300">
        <ele>883.00000</ele>
        <time>2010-01-01T00:58:01Z</time>
      </trkpt>
      <trkpt lat="40.95528000" lon="-3.01773700">
        <ele>883.00000</ele>
        <time>2010-01-01T00:58:07Z</time>
      </trkpt>
      <trkpt lat="40.95516000" lon="-3.01773600">
        <ele>882.00000</ele>
        <time>2010-01-01T00:58:12Z</time>
      </trkpt>
      <trkpt lat="40.95506500" lon="-3.01776700">
        <ele>882.00000</ele>
        <time>2010-01-01T00:58:16Z</time>
      </trkpt>
      <trkpt lat="40.95497100" lon="-3.01782300">
        <ele>883.00000</ele>
        <time>2010-01-01T00:58:20Z</time>
      </trkpt>
      <trkpt lat="40.95487900" lon="-3.01788000">
        <ele>885.00000</ele>
        <time>2010-01-01T00:58:24Z</time>
      </trkpt>
      <trkpt lat="40.95476400" lon="-3.01795700">
        <ele>886.00000</ele>
        <time>2010-01-01T00:58:29Z</time>
      </trkpt>
      <trkpt lat="40.95461900" lon="-3.01801000">
        <ele>888.00000</ele>
        <time>2010-01-01T00:58:35Z</time>
      </trkpt>
      <trkpt lat="40.95446400" lon="-3.01801800">
        <ele>889.00000</ele>
        <time>2010-01-01T00:58:41Z</time>
      </trkpt>
      <trkpt lat="40.95431200" lon="-3.01798800">
        <ele>888.00000</ele>
        <time>2010-01-01T00:58:47Z</time>
      </trkpt>
      <trkpt lat="40.95417500" lon="-3.01795900">
        <ele>887.00000</ele>
        <time>2010-01-01T00:58:53Z</time>
      </trkpt>
      <trkpt lat="40.95405300" lon="-3.01792300">
        <ele>886.00000</ele>
        <time>2010-01-01T00:58:58Z</time>
      </trkpt>
      <trkpt lat="40.95394900" lon="-3.01790600">
        <ele>885.00000</ele>
        <time>2010-01-01T00:59:02Z</time>
      </trkpt>
      <trkpt lat="40.95383200" lon="-3.01785700">
        <ele>884.00000</ele>
        <time>2010-01-01T00:59:07Z</time>
      </trkpt>
      <trkpt lat="40.95376300" lon="-3.01775600">
        <ele>883.00000</ele>
        <time>2010-01-01T00:59:11Z</time>
      </trkpt>
      <trkpt lat="40.95367100" lon="-3.01768500">
        <ele>884.00000</ele>
        <time>2010-01-01T00:59:15Z</time>
      </trkpt>
      <trkpt lat="40.95356600" lon="-3.01762900">
        <ele>884.00000</ele>
        <time>2010-01-01T00:59:20Z</time>
      </trkpt>
      <trkpt lat="40.95344100" lon="-3.01755500">
        <ele>884.00000</ele>
        <time>2010-01-01T00:59:25Z</time>
      </trkpt>
      <trkpt lat="40.95330200" lon="-3.01749200">
        <ele>883.00000</ele>
        <time>2010-01-01T00:59:31Z</time>
      </trkpt>
      <trkpt lat="40.95316000" lon="-3.01743800">
        <ele>882.00000</ele>
        <time>2010-01-01T00:59:37Z</time>
      </trkpt>
      <trkpt lat="40.95306900" lon="-3.01733300">
        <ele>882.00000</ele>
        <time>2010-01-01T00:59:42Z</time>
      </trkpt>
      <trkpt lat="40.95305000" lon="-3.01717400">
        <ele>883.00000</ele>
        <time>2010-01-01T00:59:47Z</time>
      </trkpt>
      <trkpt lat="40.95306300" lon="-3.01697700">
        <ele>885.00000</ele>
        <time>2010-01-01T00:59:53Z</time>
      </trkpt>
      <trkpt lat="40.95308600" lon="-3.01678300">
        <ele>887.00000</ele>
        <time>2010-01-01T00:59:59Z</time>
      </trkpt>
      <trkpt lat="40.95313300" lon="-3.01662600">
        <ele>888.00000</ele>
        <time>2010-01-01T01:00:04Z</time>
      </trkpt>
      <trkpt lat="40.95319600" lon="-3.01644800">
        <ele>889.00000</ele>
        <time>2010-01-01T01:00:10Z</time>
      </trkpt>
      <trkpt lat="40.95328700" lon="-3.01626200">
        <ele>892.00000</ele>
        <time>2010-01-01T01:00:17Z</time>
      </trkpt>
      <trkpt lat="40.95338500" lon="-3.01609000">
        <ele>893.00000</ele>
        <time>2010-01-01T01:00:23Z</time>
      </trkpt>
      <trkpt lat="40.95348800" lon="-3.01592900">
        <ele>894.00000</ele>
        <time>2010-01-01T01:00:29Z</time>
      </trkpt>
      <trkpt lat="40.95360000" lon="-3.01578400">
        <ele>894.00000</ele>
        <time>2010-01-01T01:00:36Z</time>
      </trkpt>
      <trkpt lat="40.95372100" lon="-3.01568300">
        <ele>896.00000</ele>
        <time>2010-01-01T01:00:41Z</time>
      </trkpt>
      <trkpt lat="40.95383200" lon="-3.01563300">
        <ele>897.00000</ele>
        <time>2010-01-01T01:00:46Z</time>
      </trkpt>
      <trkpt lat="40.95394400" lon="-3.01561900">
        <ele>899.00000</ele>
        <time>2010-01-01T01:00:51Z</time>
      </trkpt>
      <trkpt lat="40.95406400" lon="-3.01561200">
        <ele>901.00000</ele>
        <time>2010-01-01T01:00:55Z</time>
      </trkpt>
      <trkpt lat="40.95417700" lon="-3.01559000">
        <ele>903.00000</ele>
        <time>2010-01-01T01:01:00Z</time>
      </trkpt>
      <trkpt lat="40.95427900" lon="-3.01554000">
        <ele>904.00000</ele>
        <time>2010-01-01T01:01:04Z</time>
      </trkpt>
      <trkpt lat="40.95434800" lon="-3.01543700">
        <ele>906.00000</ele>
        <time>2010-01-01T01:01:09Z</time>
      </trkpt>
      <trkpt lat="40.95438100" lon="-3.01529000">
        <ele>907.00000</ele>
        <time>2010-01-01T01:01:13Z</time>
      </trkpt>
      <trkpt lat="40.95442900" lon="-3.01510600">
        <ele>909.00000</ele>
        <time>2010-01-01T01:01:19Z</time>
      </trkpt>
      <trkpt lat="40.95452500" lon="-3.01493900">
        <ele>910.00000</ele>
        <time>2010-01-01T01:01:25Z</time>
      </trkpt>
      <trkpt lat="40.95464800" lon="-3.01477000">
        <ele>912.00000</ele>
        <time>2010-01-01T01:01:32Z</time>
      </trkpt>
      <trkpt lat="40.95469700" lon="-3.01466900">
        <ele>913.00000</ele>
        <time>2010-01-01T01:01:36Z</time>
      </trkpt>
      <trkpt lat="40.95474700" lon="-3.01456300">
        <ele>915.00000</ele>
        <time>2010-01-01T01:01:40Z</time>
      </trkpt>
      <trkpt lat="40.95480500" lon="-3.01446000">
        <ele>916.00000</ele>
        <time>2010-01-01T01:01:44Z</time>
      </trkpt>
      <trkpt lat="40.95486900" lon="-3.01436500">
        <ele>917.00000</ele>
        <time>2010-01-01T01:01:48Z</time>
      </trkpt>
      <trkpt lat="40.95500800" lon="-3.01422900">
        <ele>920.00000</ele>
        <time>2010-01-01T01:01:55Z</time>
      </trkpt>
      <trkpt lat="40.95513200" lon="-3.01413200">
        <ele>921.00000</ele>
        <time>2010-01-01T01:02:00Z</time>
      </trkpt>
      <trkpt lat="40.95519800" lon="-3.01399100">
        <ele>922.00000</ele>
        <time>2010-01-01T01:02:05Z</time>
      </trkpt>
      <trkpt lat="40.95523200" lon="-3.01381800">
        <ele>924.00000</ele>
        <time>2010-01-01T01:02:11Z</time>
      </trkpt>
      <trkpt lat="40.95527000" lon="-3.01362700">
        <ele>926.00000</ele>
        <time>2010-01-01T01:02:17Z</time>
      </trkpt>
      <trkpt lat="40.95529000" lon="-3.01340800">
        <ele>928.00000</ele>
        <time>2010-01-01T01:02:23Z</time>
      </trkpt>
      <trkpt lat="40.95528600" lon="-3.01318000">
        <ele>930.00000</ele>
        <time>2010-01-01T01:02:30Z</time>
      </trkpt>
      <trkpt lat="40.95530200" lon="-3.01294900">
        <ele>932.00000</ele>
        <time>2010-01-01T01:02:37Z</time>
      </trkpt>
      <trkpt lat="40.95536000" lon="-3.01273400">
        <ele>934.00000</ele>
        <time>2010-01-01T01:02:44Z</time>
      </trkpt>
      <trkpt lat="40.95542500" lon="-3.01254900">
        <ele>936.00000</ele>
        <time>2010-01-01T01:02:50Z</time>
      </trkpt>
      <trkpt lat="40.95546600" lon="-3.01238400">
        <ele>939.00000</ele>
        <time>2010-01-01T01:02:56Z</time>
      </trkpt>
      <trkpt lat="40.95555400" lon="-3.01222600">
        <ele>942.00000</ele>
        <time>2010-01-01T01:03:02Z</time>
      </trkpt>
      <trkpt lat="40.95557700" lon="-3.01205500">
        <ele>944.00000</ele>
        <time>2010-01-01T01:03:07Z</time>
      </trkpt>
      <trkpt lat="40.95553900" lon="-3.01188900">
        <ele>944.00000</ele>
        <time>2010-01-01T01:03:12Z</time>
      </trkpt>
      <trkpt lat="40.95543200" lon="-3.01174900">
        <ele>943.00000</ele>
        <time>2010-01-01T01:03:18Z</time>
      </trkpt>
      <trkpt lat="40.95530300" lon="-3.01162500">
        <ele>941.00000</ele>
        <time>2010-01-01T01:03:24Z</time>
      </trkpt>
      <trkpt lat="40.95517000" lon="-3.01147700">
        <ele>941.00000</ele>
        <time>2010-01-01T01:03:31Z</time>
      </trkpt>
      <trkpt lat="40.95506700" lon="-3.01129900">
        <ele>942.00000</ele>
        <time>2010-01-01T01:03:38Z</time>
      </trkpt>
      <trkpt lat="40.95506200" lon="-3.01114000">
        <ele>944.00000</ele>
        <time>2010-01-01T01:03:43Z</time>
      </trkpt>
      <trkpt lat="40.95511300" lon="-3.01086900">
        <ele>946.00000</ele>
        <time>2010-01-01T01:03:51Z</time>
      </trkpt>
      <trkpt lat="40.95514000" lon="-3.01063400">
        <ele>948.00000</ele>
        <time>2010-01-01T01:03:59Z</time>
      </trkpt>
      <trkpt lat="40.95513800" lon="-3.01050600">
        <ele>949.00000</ele>
        <time>2010-01-01T01:04:02Z</time>
      </trkpt>
      <trkpt lat="40.95513500" lon="-3.01037000">
        <ele>949.00000</ele>
        <time>2010-01-01T01:04:07Z</time>
      </trkpt>
      <trkpt lat="40.95512200" lon="-3.01006400">
        <ele>949.00000</ele>
        <time>2010-01-01T01:04:16Z</time>
      </trkpt>
      <trkpt lat="40.95511100" lon="-3.00988900">
        <ele>948.00000</ele>
        <time>2010-01-01T01:04:21Z</time>
      </trkpt>
      <trkpt lat="40.95509700" lon="-3.00970600">
        <ele>948.00000</ele>
        <time>2010-01-01T01:04:27Z</time>
      </trkpt>
      <trkpt lat="40.95508000" lon="-3.00951200">
        <ele>947.00000</ele>
        <time>2010-01-01T01:04:33Z</time>
      </trkpt>
      <trkpt lat="40.95506800" lon="-3.00931300">
        <ele>947.00000</ele>
        <time>2010-01-01T01:04:39Z</time>
      </trkpt>
      <trkpt lat="40.95505400" lon="-3.00911700">
        <ele>948.00000</ele>
        <time>2010-01-01T01:04:45Z</time>
      </trkpt>
      <trkpt lat="40.95504400" lon="-3.00892800">
        <ele>948.00000</ele>
        <time>2010-01-01T01:04:50Z</time>
      </trkpt>
      <trkpt lat="40.95503500" lon="-3.00873500">
        <ele>948.00000</ele>
        <time>2010-01-01T01:04:56Z</time>
      </trkpt>
      <trkpt lat="40.95501800" lon="-3.00854100">
        <ele>948.00000</ele>
        <time>2010-01-01T01:05:02Z</time>
      </trkpt>
      <trkpt lat="40.95500500" lon="-3.00833900">
        <ele>948.00000</ele>
        <time>2010-01-01T01:05:08Z</time>
      </trkpt>
      <trkpt lat="40.95498700" lon="-3.00814600">
        <ele>949.00000</ele>
        <time>2010-01-01T01:05:14Z</time>
      </trkpt>
      <trkpt lat="40.95497000" lon="-3.00796300">
        <ele>948.00000</ele>
        <time>2010-01-01T01:05:20Z</time>
      </trkpt>
      <trkpt lat="40.95495600" lon="-3.00779300">
        <ele>948.00000</ele>
        <time>2010-01-01T01:05:25Z</time>
      </trkpt>
      <trkpt lat="40.95494200" lon="-3.00762900">
        <ele>948.00000</ele>
        <time>2010-01-01T01:05:30Z</time>
      </trkpt>
      <trkpt lat="40.95492800" lon="-3.00746900">
        <ele>948.00000</ele>
        <time>2010-01-01T01:05:35Z</time>
      </trkpt>
      <trkpt lat="40.95491000" lon="-3.00731500">
        <ele>948.00000</ele>
        <time>2010-01-01T01:05:39Z</time>
      </trkpt>
      <trkpt lat="40.95489100" lon="-3.00716800">
        <ele>947.00000</ele>
        <time>2010-01-01T01:05:44Z</time>
      </trkpt>
      <trkpt lat="40.95486600" lon="-3.00702600">
        <ele>947.00000</ele>
        <time>2010-01-01T01:05:48Z</time>
      </trkpt>
      <trkpt lat="40.95482700" lon="-3.00687900">
        <ele>947.00000</ele>
        <time>2010-01-01T01:05:53Z</time>
      </trkpt>
      <trkpt lat="40.95482100" lon="-3.00675300">
        <ele>946.00000</ele>
        <time>2010-01-01T01:05:57Z</time>
      </trkpt>
      <trkpt lat="40.95490800" lon="-3.00656100">
        <ele>945.00000</ele>
        <time>2010-01-01T01:06:04Z</time>
      </trkpt>
      <trkpt lat="40.95504800" lon="-3.00641900">
        <ele>944.00000</ele>
        <time>2010-01-01T01:06:11Z</time>
      </trkpt>
      <trkpt lat="40.95513300" lon="-3.00636200">
        <ele>944.00000</ele>
        <time>2010-01-01T01:06:14Z</time>
      </trkpt>
      <trkpt lat="40.95523600" lon="-3.00629900">
        <ele>944.00000</ele>
        <time>2010-01-01T01:06:19Z</time>
      </trkpt>
      <trkpt lat="40.95535400" lon="-3.00622900">
        <ele>944.00000</ele>
        <time>2010-01-01T01:06:24Z</time>
      </trkpt>
      <trkpt lat="40.95547500" lon="-3.00615300">
        <ele>943.00000</ele>
        <time>2010-01-01T01:06:30Z</time>
      </trkpt>
      <trkpt lat="40.95559400" lon="-3.00607800">
        <ele>943.00000</ele>
        <time>2010-01-01T01:06:35Z</time>
      </trkpt>
      <trkpt lat="40.95571100" lon="-3.00600800">
        <ele>943.00000</ele>
        <time>2010-01-01T01:06:40Z</time>
      </trkpt>
      <trkpt lat="40.95582800" lon="-3.00594300">
        <ele>943.00000</ele>
        <time>2010-01-01T01:06:45Z</time>
      </trkpt>
      <trkpt lat="40.95594500" lon="-3.00588000">
        <ele>943.00000</ele>
        <time>2010-01-01T01:06:50Z</time>
      </trkpt>
      <trkpt lat="40.95606700" lon="-3.00581000">
        <ele>943.00000</ele>
        <time>2010-01-01T01:06:55Z</time>
      </trkpt>
      <trkpt lat="40.95615800" lon="-3.00575800">
        <ele>944.00000</ele>
        <time>2010-01-01T01:06:59Z</time>
      </trkpt>
      <trkpt lat="40.95628400" lon="-3.00570800">
        <ele>944.00000</ele>
        <time>2010-01-01T01:07:05Z</time>
      </trkpt>
      <trkpt lat="40.95636700" lon="-3.00564000">
        <ele>944.00000</ele>
        <time>2010-01-01T01:07:09Z</time>
      </trkpt>
      <trkpt lat="40.95630600" lon="-3.00551800">
        <ele>943.00000</ele>
        <time>2010-01-01T01:07:13Z</time>
      </trkpt>
      <trkpt lat="40.95618300" lon="-3.00545700">
        <ele>943.00000</ele>
        <time>2010-01-01T01:07:18Z</time>
      </trkpt>
      <trkpt lat="40.95615300" lon="-3.00533200">
        <ele>943.00000</ele>
        <time>2010-01-01T01:07:22Z</time>
      </trkpt>
      <trkpt lat="40.95622200" lon="-3.00516400">
        <ele>941.00000</ele>
        <time>2010-01-01T01:07:28Z</time>
      </trkpt>
      <trkpt lat="40.95626700" lon="-3.00495100">
        <ele>939.00000</ele>
        <time>2010-01-01T01:07:35Z</time>
      </trkpt>
      <trkpt lat="40.95627700" lon="-3.00482600">
        <ele>939.00000</ele>
        <time>2010-01-01T01:07:38Z</time>
      </trkpt>
      <trkpt lat="40.95628200" lon="-3.00469600">
        <ele>938.00000</ele>
        <time>2010-01-01T01:07:42Z</time>
      </trkpt>
      <trkpt lat="40.95628800" lon="-3.00456100">
        <ele>938.00000</ele>
        <time>2010-01-01T01:07:47Z</time>
      </trkpt>
      <trkpt lat="40.95627800" lon="-3.00443500">
        <ele>937.00000</ele>
        <time>2010-01-01T01:07:50Z</time>
      </trkpt>
      <trkpt lat="40.95626200" lon="-3.00431300">
        <ele>937.00000</ele>
        <time>2010-01-01T01:07:54Z</time>
      </trkpt>
      <trkpt lat="40.95621900" lon="-3.00407900">
        <ele>936.00000</ele>
        <time>2010-01-01T01:08:01Z</time>
      </trkpt>
      <trkpt lat="40.95619100" lon="-3.00386400">
        <ele>934.00000</ele>
        <time>2010-01-01T01:08:08Z</time>
      </trkpt>
      <trkpt lat="40.95615200" lon="-3.00365900">
        <ele>932.00000</ele>
        <time>2010-01-01T01:08:14Z</time>
      </trkpt>
      <trkpt lat="40.95612400" lon="-3.00353900">
        <ele>930.00000</ele>
        <time>2010-01-01T01:08:18Z</time>
      </trkpt>
      <trkpt lat="40.95609800" lon="-3.00340600">
        <ele>928.00000</ele>
        <time>2010-01-01T01:08:22Z</time>
      </trkpt>
      <trkpt lat="40.95606700" lon="-3.00327000">
        <ele>926.00000</ele>
        <time>2010-01-01T01:08:27Z</time>
      </trkpt>
      <trkpt lat="40.95604500" lon="-3.00312600">
        <ele>925.00000</ele>
        <time>2010-01-01T01:08:31Z</time>
      </trkpt>
      <trkpt lat="40.95602500" lon="-3.00298100">
        <ele>924.00000</ele>
        <time>2010-01-01T01:08:36Z</time>
      </trkpt>
      <trkpt lat="40.95601400" lon="-3.00283600">
        <ele>924.00000</ele>
        <time>2010-01-01T01:08:40Z</time>
      </trkpt>
      <trkpt lat="40.95600500" lon="-3.00270000">
        <ele>923.00000</ele>
        <time>2010-01-01T01:08:44Z</time>
      </trkpt>
      <trkpt lat="40.95600100" lon="-3.00257200">
        <ele>921.00000</ele>
        <time>2010-01-01T01:08:48Z</time>
      </trkpt>
      <trkpt lat="40.95599700" lon="-3.00244400">
        <ele>919.00000</ele>
        <time>2010-01-01T01:08:52Z</time>
      </trkpt>
      <trkpt lat="40.95598200" lon="-3.00230400">
        <ele>917.00000</ele>
        <time>2010-01-01T01:08:56Z</time>
      </trkpt>
      <trkpt lat="40.95595200" lon="-3.00214900">
        <ele>916.00000</ele>
        <time>2010-01-01T01:09:01Z</time>
      </trkpt>
      <trkpt lat="40.95591000" lon="-3.00200100">
        <ele>915.00000</ele>
        <time>2010-01-01T01:09:06Z</time>
      </trkpt>
      <trkpt lat="40.95585900" lon="-3.00185500">
        <ele>915.00000</ele>
        <time>2010-01-01T01:09:11Z</time>
      </trkpt>
      <trkpt lat="40.95579900" lon="-3.00172700">
        <ele>915.00000</ele>
        <time>2010-01-01T01:09:15Z</time>
      </trkpt>
      <trkpt lat="40.95573500" lon="-3.00161700">
        <ele>914.00000</ele>
        <time>2010-01-01T01:09:19Z</time>
      </trkpt>
      <trkpt lat="40.95566200" lon="-3.00151500">
        <ele>914.00000</ele>
        <time>2010-01-01T01:09:24Z</time>
      </trkpt>
      <trkpt lat="40.95558700" lon="-3.00141500">
        <ele>912.00000</ele>
        <time>2010-01-01T01:09:28Z</time>
      </trkpt>
      <trkpt lat="40.95552200" lon="-3.00130600">
        <ele>911.00000</ele>
        <time>2010-01-01T01:09:32Z</time>
      </trkpt>
      <trkpt lat="40.95547500" lon="-3.00119800">
        <ele>911.00000</ele>
        <time>2010-01-01T01:09:36Z</time>
      </trkpt>
      <trkpt lat="40.95540500" lon="-3.00098100">
        <ele>909.00000</ele>
        <time>2010-01-01T01:09:43Z</time>
      </trkpt>
      <trkpt lat="40.95536000" lon="-3.00077300">
        <ele>909.00000</ele>
        <time>2010-01-01T01:09:49Z</time>
      </trkpt>
      <trkpt lat="40.95532500" lon="-3.00057800">
        <ele>909.00000</ele>
        <time>2010-01-01T01:09:55Z</time>
      </trkpt>
      <trkpt lat="40.95527100" lon="-3.00037900">
        <ele>907.00000</ele>
        <time>2010-01-01T01:10:02Z</time>
      </trkpt>
      <trkpt lat="40.95522400" lon="-3.00027400">
        <ele>906.00000</ele>
        <time>2010-01-01T01:10:06Z</time>
      </trkpt>
      <trkpt lat="40.95517700" lon="-3.00016700">
        <ele>906.00000</ele>
        <time>2010-01-01T01:10:09Z</time>
      </trkpt>
      <trkpt lat="40.95512500" lon="-3.00006300">
        <ele>905.00000</ele>
        <time>2010-01-01T01:10:13Z</time>
      </trkpt>
      <trkpt lat="40.95502100" lon="-2.99987400">
        <ele>904.00000</ele>
        <time>2010-01-01T01:10:20Z</time>
      </trkpt>
      <trkpt lat="40.95496100" lon="-2.99977600">
        <ele>903.00000</ele>
        <time>2010-01-01T01:10:24Z</time>
      </trkpt>
      <trkpt lat="40.95489700" lon="-2.99968000">
        <ele>902.00000</ele>
        <time>2010-01-01T01:10:28Z</time>
      </trkpt>
      <trkpt lat="40.95483300" lon="-2.99958900">
        <ele>902.00000</ele>
        <time>2010-01-01T01:10:32Z</time>
      </trkpt>
      <trkpt lat="40.95470500" lon="-2.99941600">
        <ele>900.00000</ele>
        <time>2010-01-01T01:10:39Z</time>
      </trkpt>
      <trkpt lat="40.95464000" lon="-2.99932400">
        <ele>900.00000</ele>
        <time>2010-01-01T01:10:43Z</time>
      </trkpt>
      <trkpt lat="40.95457400" lon="-2.99922000">
        <ele>900.00000</ele>
        <time>2010-01-01T01:10:47Z</time>
      </trkpt>
      <trkpt lat="40.95451400" lon="-2.99910800">
        <ele>900.00000</ele>
        <time>2010-01-01T01:10:51Z</time>
      </trkpt>
      <trkpt lat="40.95446200" lon="-2.99900000">
        <ele>900.00000</ele>
        <time>2010-01-01T01:10:55Z</time>
      </trkpt>
      <trkpt lat="40.95441100" lon="-2.99887800">
        <ele>899.00000</ele>
        <time>2010-01-01T01:10:59Z</time>
      </trkpt>
      <trkpt lat="40.95436500" lon="-2.99874500">
        <ele>900.00000</ele>
        <time>2010-01-01T01:11:04Z</time>
      </trkpt>
      <trkpt lat="40.95430800" lon="-2.99860100">
        <ele>900.00000</ele>
        <time>2010-01-01T01:11:08Z</time>
      </trkpt>
      <trkpt lat="40.95424500" lon="-2.99845500">
        <ele>900.00000</ele>
        <time>2010-01-01T01:11:14Z</time>
      </trkpt>
      <trkpt lat="40.95418400" lon="-2.99832600">
        <ele>900.00000</ele>
        <time>2010-01-01T01:11:18Z</time>
      </trkpt>
      <trkpt lat="40.95406800" lon="-2.99809400">
        <ele>899.00000</ele>
        <time>2010-01-01T01:11:27Z</time>
      </trkpt>
      <trkpt lat="40.95401800" lon="-2.99797700">
        <ele>898.00000</ele>
        <time>2010-01-01T01:11:31Z</time>
      </trkpt>
      <trkpt lat="40.95397900" lon="-2.99786300">
        <ele>898.00000</ele>
        <time>2010-01-01T01:11:34Z</time>
      </trkpt>
      <trkpt lat="40.95389900" lon="-2.99766300">
        <ele>896.00000</ele>
        <time>2010-01-01T01:11:41Z</time>
      </trkpt>
      <trkpt lat="40.95384800" lon="-2.99755500">
        <ele>895.00000</ele>
        <time>2010-01-01T01:11:45Z</time>
      </trkpt>
      <trkpt lat="40.95374900" lon="-2.99733500">
        <ele>891.00000</ele>
        <time>2010-01-01T01:11:53Z</time>
      </trkpt>
      <trkpt lat="40.95370200" lon="-2.99722300">
        <ele>889.00000</ele>
        <time>2010-01-01T01:11:57Z</time>
      </trkpt>
      <trkpt lat="40.95365100" lon="-2.99711300">
        <ele>887.00000</ele>
        <time>2010-01-01T01:12:01Z</time>
      </trkpt>
      <trkpt lat="40.95356400" lon="-2.99690100">
        <ele>885.00000</ele>
        <time>2010-01-01T01:12:08Z</time>
      </trkpt>
      <trkpt lat="40.95351300" lon="-2.99678100">
        <ele>885.00000</ele>
        <time>2010-01-01T01:12:12Z</time>
      </trkpt>
      <trkpt lat="40.95344700" lon="-2.99666500">
        <ele>885.00000</ele>
        <time>2010-01-01T01:12:16Z</time>
      </trkpt>
      <trkpt lat="40.95337600" lon="-2.99655400">
        <ele>884.00000</ele>
        <time>2010-01-01T01:12:21Z</time>
      </trkpt>
      <trkpt lat="40.95330500" lon="-2.99644500">
        <ele>883.00000</ele>
        <time>2010-01-01T01:12:25Z</time>
      </trkpt>
      <trkpt lat="40.95323600" lon="-2.99633800">
        <ele>883.00000</ele>
        <time>2010-01-01T01:12:29Z</time>
      </trkpt>
      <trkpt lat="40.95317200" lon="-2.99623500">
        <ele>882.00000</ele>
        <time>2010-01-01T01:12:33Z</time>
      </trkpt>
      <trkpt lat="40.95311600" lon="-2.99613500">
        <ele>881.00000</ele>
        <time>2010-01-01T01:12:37Z</time>
      </trkpt>
      <trkpt lat="40.95302200" lon="-2.99593600">
        <ele>881.00000</ele>
        <time>2010-01-01T01:12:44Z</time>
      </trkpt>
      <trkpt lat="40.95295300" lon="-2.99573100">
        <ele>881.00000</ele>
        <time>2010-01-01T01:12:51Z</time>
      </trkpt>
      <trkpt lat="40.95287600" lon="-2.99553600">
        <ele>880.00000</ele>
        <time>2010-01-01T01:12:58Z</time>
      </trkpt>
      <trkpt lat="40.95283800" lon="-2.99542800">
        <ele>881.00000</ele>
        <time>2010-01-01T01:13:01Z</time>
      </trkpt>
      <trkpt lat="40.95280300" lon="-2.99531100">
        <ele>881.00000</ele>
        <time>2010-01-01T01:13:05Z</time>
      </trkpt>
      <trkpt lat="40.95277400" lon="-2.99518900">
        <ele>880.00000</ele>
        <time>2010-01-01T01:13:09Z</time>
      </trkpt>
      <trkpt lat="40.95274900" lon="-2.99506500">
        <ele>880.00000</ele>
        <time>2010-01-01T01:13:13Z</time>
      </trkpt>
      <trkpt lat="40.95272400" lon="-2.99494100">
        <ele>880.00000</ele>
        <time>2010-01-01T01:13:17Z</time>
      </trkpt>
      <trkpt lat="40.95269900" lon="-2.99481700">
        <ele>879.00000</ele>
        <time>2010-01-01T01:13:21Z</time>
      </trkpt>
      <trkpt lat="40.95267500" lon="-2.99469400">
        <ele>878.00000</ele>
        <time>2010-01-01T01:13:25Z</time>
      </trkpt>
      <trkpt lat="40.95265000" lon="-2.99457400">
        <ele>878.00000</ele>
        <time>2010-01-01T01:13:28Z</time>
      </trkpt>
      <trkpt lat="40.95262300" lon="-2.99445700">
        <ele>877.00000</ele>
        <time>2010-01-01T01:13:32Z</time>
      </trkpt>
      <trkpt lat="40.95259800" lon="-2.99433900">
        <ele>877.00000</ele>
        <time>2010-01-01T01:13:36Z</time>
      </trkpt>
      <trkpt lat="40.95257400" lon="-2.99421200">
        <ele>876.00000</ele>
        <time>2010-01-01T01:13:40Z</time>
      </trkpt>
      <trkpt lat="40.95255400" lon="-2.99407700">
        <ele>876.00000</ele>
        <time>2010-01-01T01:13:44Z</time>
      </trkpt>
      <trkpt lat="40.95253900" lon="-2.99393600">
        <ele>876.00000</ele>
        <time>2010-01-01T01:13:48Z</time>
      </trkpt>
      <trkpt lat="40.95253300" lon="-2.99379300">
        <ele>876.00000</ele>
        <time>2010-01-01T01:13:52Z</time>
      </trkpt>
      <trkpt lat="40.95254000" lon="-2.99364200">
        <ele>877.00000</ele>
        <time>2010-01-01T01:13:57Z</time>
      </trkpt>
      <trkpt lat="40.95255300" lon="-2.99348200">
        <ele>877.00000</ele>
        <time>2010-01-01T01:14:02Z</time>
      </trkpt>
      <trkpt lat="40.95256500" lon="-2.99332000">
        <ele>876.00000</ele>
        <time>2010-01-01T01:14:07Z</time>
      </trkpt>
      <trkpt lat="40.95256800" lon="-2.99316000">
        <ele>876.00000</ele>
        <time>2010-01-01T01:14:12Z</time>
      </trkpt>
      <trkpt lat="40.95256000" lon="-2.99300200">
        <ele>875.00000</ele>
        <time>2010-01-01T01:14:16Z</time>
      </trkpt>
      <trkpt lat="40.95254100" lon="-2.99285500">
        <ele>875.00000</ele>
        <time>2010-01-01T01:14:21Z</time>
      </trkpt>
      <trkpt lat="40.95252600" lon="-2.99271200">
        <ele>875.00000</ele>
        <time>2010-01-01T01:14:25Z</time>
      </trkpt>
      <trkpt lat="40.95252000" lon="-2.99256500">
        <ele>876.00000</ele>
        <time>2010-01-01T01:14:30Z</time>
      </trkpt>
      <trkpt lat="40.95251400" lon="-2.99241400">
        <ele>876.00000</ele>
        <time>2010-01-01T01:14:34Z</time>
      </trkpt>
      <trkpt lat="40.95250200" lon="-2.99225500">
        <ele>877.00000</ele>
        <time>2010-01-01T01:14:39Z</time>
      </trkpt>
      <trkpt lat="40.95249000" lon="-2.99209100">
        <ele>878.00000</ele>
        <time>2010-01-01T01:14:44Z</time>
      </trkpt>
      <trkpt lat="40.95246600" lon="-2.99194600">
        <ele>878.00000</ele>
        <time>2010-01-01T01:14:49Z</time>
      </trkpt>
      <trkpt lat="40.95243400" lon="-2.99181200">
        <ele>878.00000</ele>
        <time>2010-01-01T01:14:53Z</time>
      </trkpt>
      <trkpt lat="40.95238600" lon="-2.99169700">
        <ele>877.00000</ele>
        <time>2010-01-01T01:14:57Z</time>
      </trkpt>
      <trkpt lat="40.95233000" lon="-2.99158600">
        <ele>877.00000</ele>
        <time>2010-01-01T01:15:01Z</time>
      </trkpt>
      <trkpt lat="40.95226100" lon="-2.99148700">
        <ele>877.00000</ele>
        <time>2010-01-01T01:15:05Z</time>
      </trkpt>
      <trkpt lat="40.95218900" lon="-2.99138300">
        <ele>876.00000</ele>
        <time>2010-01-01T01:15:09Z</time>
      </trkpt>
      <trkpt lat="40.95212200" lon="-2.99126400">
        <ele>875.00000</ele>
        <time>2010-01-01T01:15:14Z</time>
      </trkpt>
      <trkpt lat="40.95205400" lon="-2.99114000">
        <ele>874.00000</ele>
        <time>2010-01-01T01:15:18Z</time>
      </trkpt>
      <trkpt lat="40.95198100" lon="-2.99102200">
        <ele>873.00000</ele>
        <time>2010-01-01T01:15:23Z</time>
      </trkpt>
      <trkpt lat="40.95191100" lon="-2.99090000">
        <ele>871.00000</ele>
        <time>2010-01-01T01:15:28Z</time>
      </trkpt>
      <trkpt lat="40.95184600" lon="-2.99078900">
        <ele>870.00000</ele>
        <time>2010-01-01T01:15:32Z</time>
      </trkpt>
      <trkpt lat="40.95178900" lon="-2.99067600">
        <ele>870.00000</ele>
        <time>2010-01-01T01:15:36Z</time>
      </trkpt>
      <trkpt lat="40.95173100" lon="-2.99056500">
        <ele>869.00000</ele>
        <time>2010-01-01T01:15:40Z</time>
      </trkpt>
      <trkpt lat="40.95167400" lon="-2.99044300">
        <ele>868.00000</ele>
        <time>2010-01-01T01:15:44Z</time>
      </trkpt>
      <trkpt lat="40.95161500" lon="-2.99031400">
        <ele>869.00000</ele>
        <time>2010-01-01T01:15:49Z</time>
      </trkpt>
      <trkpt lat="40.95154400" lon="-2.99018500">
        <ele>869.00000</ele>
        <time>2010-01-01T01:15:54Z</time>
      </trkpt>
      <trkpt lat="40.95147100" lon="-2.99005000">
        <ele>869.00000</ele>
        <time>2010-01-01T01:15:59Z</time>
      </trkpt>
      <trkpt lat="40.95139300" lon="-2.98991900">
        <ele>869.00000</ele>
        <time>2010-01-01T01:16:04Z</time>
      </trkpt>
      <trkpt lat="40.95132700" lon="-2.98977900">
        <ele>868.00000</ele>
        <time>2010-01-01T01:16:09Z</time>
      </trkpt>
      <trkpt lat="40.95126600" lon="-2.98963900">
        <ele>869.00000</ele>
        <time>2010-01-01T01:16:14Z</time>
      </trkpt>
      <trkpt lat="40.95120800" lon="-2.98950000">
        <ele>870.00000</ele>
        <time>2010-01-01T01:16:18Z</time>
      </trkpt>
      <trkpt lat="40.95114900" lon="-2.98938000">
        <ele>871.00000</ele>
        <time>2010-01-01T01:16:23Z</time>
      </trkpt>
      <trkpt lat="40.95106800" lon="-2.98928200">
        <ele>871.00000</ele>
        <time>2010-01-01T01:16:27Z</time>
      </trkpt>
      <trkpt lat="40.95097100" lon="-2.98920400">
        <ele>870.00000</ele>
        <time>2010-01-01T01:16:32Z</time>
      </trkpt>
      <trkpt lat="40.95086400" lon="-2.98914500">
        <ele>869.00000</ele>
        <time>2010-01-01T01:16:36Z</time>
      </trkpt>
      <trkpt lat="40.95075700" lon="-2.98908700">
        <ele>868.00000</ele>
        <time>2010-01-01T01:16:41Z</time>
      </trkpt>
      <trkpt lat="40.95064100" lon="-2.98903700">
        <ele>866.00000</ele>
        <time>2010-01-01T01:16:46Z</time>
      </trkpt>
      <trkpt lat="40.95053200" lon="-2.98899400">
        <ele>865.00000</ele>
        <time>2010-01-01T01:16:50Z</time>
      </trkpt>
      <trkpt lat="40.95039300" lon="-2.98894300">
        <ele>864.00000</ele>
        <time>2010-01-01T01:16:56Z</time>
      </trkpt>
      <trkpt lat="40.95029200" lon="-2.98881900">
        <ele>864.00000</ele>
        <time>2010-01-01T01:17:02Z</time>
      </trkpt>
      <trkpt lat="40.95020600" lon="-2.98867700">
        <ele>865.00000</ele>
        <time>2010-01-01T01:17:07Z</time>
      </trkpt>
      <trkpt lat="40.95011600" lon="-2.98854200">
        <ele>866.00000</ele>
        <time>2010-01-01T01:17:13Z</time>
      </trkpt>
      <trkpt lat="40.95002500" lon="-2.98840400">
        <ele>865.00000</ele>
        <time>2010-01-01T01:17:18Z</time>
      </trkpt>
      <trkpt lat="40.94994000" lon="-2.98826500">
        <ele>865.00000</ele>
        <time>2010-01-01T01:17:24Z</time>
      </trkpt>
      <trkpt lat="40.94986400" lon="-2.98812400">
        <ele>865.00000</ele>
        <time>2010-01-01T01:17:29Z</time>
      </trkpt>
      <trkpt lat="40.94979500" lon="-2.98797700">
        <ele>864.00000</ele>
        <time>2010-01-01T01:17:34Z</time>
      </trkpt>
      <trkpt lat="40.94972200" lon="-2.98783700">
        <ele>864.00000</ele>
        <time>2010-01-01T01:17:39Z</time>
      </trkpt>
      <trkpt lat="40.94964000" lon="-2.98770800">
        <ele>864.00000</ele>
        <time>2010-01-01T01:17:44Z</time>
      </trkpt>
      <trkpt lat="40.94955000" lon="-2.98758700">
        <ele>864.00000</ele>
        <time>2010-01-01T01:17:49Z</time>
      </trkpt>
      <trkpt lat="40.94945200" lon="-2.98748100">
        <ele>863.00000</ele>
        <time>2010-01-01T01:17:55Z</time>
      </trkpt>
      <trkpt lat="40.94934600" lon="-2.98739000">
        <ele>862.00000</ele>
        <time>2010-01-01T01:18:00Z</time>
      </trkpt>
      <trkpt lat="40.94923200" lon="-2.98729500">
        <ele>861.00000</ele>
        <time>2010-01-01T01:18:05Z</time>
      </trkpt>
      <trkpt lat="40.94912400" lon="-2.98719400">
        <ele>861.00000</ele>
        <time>2010-01-01T01:18:10Z</time>
      </trkpt>
      <trkpt lat="40.94901900" lon="-2.98708200">
        <ele>861.00000</ele>
        <time>2010-01-01T01:18:16Z</time>
      </trkpt>
      <trkpt lat="40.94891100" lon="-2.98696100">
        <ele>861.00000</ele>
        <time>2010-01-01T01:18:21Z</time>
      </trkpt>
      <trkpt lat="40.94880800" lon="-2.98682900">
        <ele>861.00000</ele>
        <time>2010-01-01T01:18:27Z</time>
      </trkpt>
      <trkpt lat="40.94871100" lon="-2.98669800">
        <ele>861.00000</ele>
        <time>2010-01-01T01:18:33Z</time>
      </trkpt>
      <trkpt lat="40.94862300" lon="-2.98656300">
        <ele>860.00000</ele>
        <time>2010-01-01T01:18:38Z</time>
      </trkpt>
      <trkpt lat="40.94853700" lon="-2.98641500">
        <ele>859.00000</ele>
        <time>2010-01-01T01:18:44Z</time>
      </trkpt>
      <trkpt lat="40.94845000" lon="-2.98625700">
        <ele>857.00000</ele>
        <time>2010-01-01T01:18:50Z</time>
      </trkpt>
      <trkpt lat="40.94837100" lon="-2.98609800">
        <ele>856.00000</ele>
        <time>2010-01-01T01:18:55Z</time>
      </trkpt>
      <trkpt lat="40.94829800" lon="-2.98593300">
        <ele>856.00000</ele>
        <time>2010-01-01T01:19:01Z</time>
      </trkpt>
      <trkpt lat="40.94823500" lon="-2.98576000">
        <ele>855.00000</ele>
        <time>2010-01-01T01:19:07Z</time>
      </trkpt>
      <trkpt lat="40.94818200" lon="-2.98558100">
        <ele>854.00000</ele>
        <time>2010-01-01T01:19:13Z</time>
      </trkpt>
      <trkpt lat="40.94813700" lon="-2.98540000">
        <ele>852.00000</ele>
        <time>2010-01-01T01:19:18Z</time>
      </trkpt>
      <trkpt lat="40.94809500" lon="-2.98522300">
        <ele>851.00000</ele>
        <time>2010-01-01T01:19:24Z</time>
      </trkpt>
      <trkpt lat="40.94805100" lon="-2.98505200">
        <ele>850.00000</ele>
        <time>2010-01-01T01:19:30Z</time>
      </trkpt>
      <trkpt lat="40.94801000" lon="-2.98488600">
        <ele>849.00000</ele>
        <time>2010-01-01T01:19:35Z</time>
      </trkpt>
      <trkpt lat="40.94797400" lon="-2.98473500">
        <ele>849.00000</ele>
        <time>2010-01-01T01:19:40Z</time>
      </trkpt>
      <trkpt lat="40.94794700" lon="-2.98459200">
        <ele>849.00000</ele>
        <time>2010-01-01T01:19:44Z</time>
      </trkpt>
      <trkpt lat="40.94792300" lon="-2.98445200">
        <ele>849.00000</ele>
        <time>2010-01-01T01:19:48Z</time>
      </trkpt>
      <trkpt lat="40.94785400" lon="-2.98425100">
        <ele>849.00000</ele>
        <time>2010-01-01T01:19:55Z</time>
      </trkpt>
      <trkpt lat="40.94778900" lon="-2.98407500">
        <ele>849.00000</ele>
        <time>2010-01-01T01:20:01Z</time>
      </trkpt>
      <trkpt lat="40.94775600" lon="-2.98387200">
        <ele>849.00000</ele>
        <time>2010-01-01T01:20:07Z</time>
      </trkpt>
      <trkpt lat="40.94773100" lon="-2.98365000">
        <ele>848.00000</ele>
        <time>2010-01-01T01:20:14Z</time>
      </trkpt>
      <trkpt lat="40.94772100" lon="-2.98352900">
        <ele>848.00000</ele>
        <time>2010-01-01T01:20:18Z</time>
      </trkpt>
      <trkpt lat="40.94771800" lon="-2.98331100">
        <ele>849.00000</ele>
        <time>2010-01-01T01:20:24Z</time>
      </trkpt>
      <trkpt lat="40.94773700" lon="-2.98314100">
        <ele>849.00000</ele>
        <time>2010-01-01T01:20:30Z</time>
      </trkpt>
      <trkpt lat="40.94775400" lon="-2.98296400">
        <ele>850.00000</ele>
        <time>2010-01-01T01:20:35Z</time>
      </trkpt>
      <trkpt lat="40.94777200" lon="-2.98274500">
        <ele>850.00000</ele>
        <time>2010-01-01T01:20:42Z</time>
      </trkpt>
      <trkpt lat="40.94777900" lon="-2.98262000">
        <ele>849.00000</ele>
        <time>2010-01-01T01:20:45Z</time>
      </trkpt>
      <trkpt lat="40.94778600" lon="-2.98249000">
        <ele>848.00000</ele>
        <time>2010-01-01T01:20:49Z</time>
      </trkpt>
      <trkpt lat="40.94779300" lon="-2.98235900">
        <ele>848.00000</ele>
        <time>2010-01-01T01:20:53Z</time>
      </trkpt>
      <trkpt lat="40.94779400" lon="-2.98222700">
        <ele>848.00000</ele>
        <time>2010-01-01T01:20:57Z</time>
      </trkpt>
      <trkpt lat="40.94780700" lon="-2.98210500">
        <ele>848.00000</ele>
        <time>2010-01-01T01:21:01Z</time>
      </trkpt>
      <trkpt lat="40.94782700" lon="-2.98198700">
        <ele>849.00000</ele>
        <time>2010-01-01T01:21:05Z</time>
      </trkpt>
      <trkpt lat="40.94784800" lon="-2.98187000">
        <ele>849.00000</ele>
        <time>2010-01-01T01:21:08Z</time>
      </trkpt>
      <trkpt lat="40.94792000" lon="-2.98163700">
        <ele>849.00000</ele>
        <time>2010-01-01T01:21:16Z</time>
      </trkpt>
      <trkpt lat="40.94796900" lon="-2.98153800">
        <ele>850.00000</ele>
        <time>2010-01-01T01:21:20Z</time>
      </trkpt>
      <trkpt lat="40.94802600" lon="-2.98144400">
        <ele>850.00000</ele>
        <time>2010-01-01T01:21:23Z</time>
      </trkpt>
      <trkpt lat="40.94809500" lon="-2.98134800">
        <ele>851.00000</ele>
        <time>2010-01-01T01:21:27Z</time>
      </trkpt>
      <trkpt lat="40.94818800" lon="-2.98117800">
        <ele>851.00000</ele>
        <time>2010-01-01T01:21:34Z</time>
      </trkpt>
      <trkpt lat="40.94818600" lon="-2.98102300">
        <ele>851.00000</ele>
        <time>2010-01-01T01:21:38Z</time>
      </trkpt>
      <trkpt lat="40.94813100" lon="-2.98104300">
        <ele>850.00000</ele>
        <time>2010-01-01T01:21:40Z</time>
      </trkpt>
      <trkpt lat="40.94812500" lon="-2.98089900">
        <ele>850.00000</ele>
        <time>2010-01-01T01:21:45Z</time>
      </trkpt>
      <trkpt lat="40.94811100" lon="-2.98076600">
        <ele>850.00000</ele>
        <time>2010-01-01T01:21:49Z</time>
      </trkpt>
      <trkpt lat="40.94806300" lon="-2.98064300">
        <ele>850.00000</ele>
        <time>2010-01-01T01:21:53Z</time>
      </trkpt>
      <trkpt lat="40.94801400" lon="-2.98048600">
        <ele>849.00000</ele>
        <time>2010-01-01T01:21:58Z</time>
      </trkpt>
      <trkpt lat="40.94798300" lon="-2.98028200">
        <ele>849.00000</ele>
        <time>2010-01-01T01:22:05Z</time>
      </trkpt>
      <trkpt lat="40.94795800" lon="-2.98005700">
        <ele>849.00000</ele>
        <time>2010-01-01T01:22:11Z</time>
      </trkpt>
      <trkpt lat="40.94791400" lon="-2.97984200">
        <ele>849.00000</ele>
        <time>2010-01-01T01:22:18Z</time>
      </trkpt>
      <trkpt lat="40.94787200" lon="-2.97964700">
        <ele>848.00000</ele>
        <time>2010-01-01T01:22:24Z</time>
      </trkpt>
      <trkpt lat="40.94781900" lon="-2.97944100">
        <ele>847.00000</ele>
        <time>2010-01-01T01:22:31Z</time>
      </trkpt>
      <trkpt lat="40.94779000" lon="-2.97932400">
        <ele>846.00000</ele>
        <time>2010-01-01T01:22:35Z</time>
      </trkpt>
      <trkpt lat="40.94776600" lon="-2.97907800">
        <ele>845.00000</ele>
        <time>2010-01-01T01:22:42Z</time>
      </trkpt>
      <trkpt lat="40.94776600" lon="-2.97895500">
        <ele>845.00000</ele>
        <time>2010-01-01T01:22:46Z</time>
      </trkpt>
      <trkpt lat="40.94774600" lon="-2.97874900">
        <ele>843.00000</ele>
        <time>2010-01-01T01:22:52Z</time>
      </trkpt>
      <trkpt lat="40.94774000" lon="-2.97859600">
        <ele>842.00000</ele>
        <time>2010-01-01T01:22:57Z</time>
      </trkpt>
      <trkpt lat="40.94767900" lon="-2.97840000">
        <ele>840.00000</ele>
        <time>2010-01-01T01:23:03Z</time>
      </trkpt>
      <trkpt lat="40.94760700" lon="-2.97826500">
        <ele>838.00000</ele>
        <time>2010-01-01T01:23:08Z</time>
      </trkpt>
      <trkpt lat="40.94747700" lon="-2.97821700">
        <ele>838.00000</ele>
        <time>2010-01-01T01:23:14Z</time>
      </trkpt>
      <trkpt lat="40.94736700" lon="-2.97815200">
        <ele>837.00000</ele>
        <time>2010-01-01T01:23:18Z</time>
      </trkpt>
      <trkpt lat="40.94728000" lon="-2.97806300">
        <ele>837.00000</ele>
        <time>2010-01-01T01:23:23Z</time>
      </trkpt>
      <trkpt lat="40.94721900" lon="-2.97796600">
        <ele>836.00000</ele>
        <time>2010-01-01T01:23:27Z</time>
      </trkpt>
      <trkpt lat="40.94723600" lon="-2.97781900">
        <ele>834.00000</ele>
        <time>2010-01-01T01:23:31Z</time>
      </trkpt>
      <trkpt lat="40.94732100" lon="-2.97774500">
        <ele>833.00000</ele>
        <time>2010-01-01T01:23:35Z</time>
      </trkpt>
      <trkpt lat="40.94743400" lon="-2.97765700">
        <ele>831.00000</ele>
        <time>2010-01-01T01:23:40Z</time>
      </trkpt>
      <trkpt lat="40.94757100" lon="-2.97755100">
        <ele>829.00000</ele>
        <time>2010-01-01T01:23:47Z</time>
      </trkpt>
      <trkpt lat="40.94766800" lon="-2.97744500">
        <ele>827.00000</ele>
        <time>2010-01-01T01:23:52Z</time>
      </trkpt>
      <trkpt lat="40.94769400" lon="-2.97727800">
        <ele>825.00000</ele>
        <time>2010-01-01T01:23:57Z</time>
      </trkpt>
      <trkpt lat="40.94771100" lon="-2.97720400">
        <ele>824.00000</ele>
        <time>2010-01-01T01:23:59Z</time>
      </trkpt>
      <trkpt lat="40.94769900" lon="-2.97709900">
        <ele>823.00000</ele>
        <time>2010-01-01T01:24:02Z</time>
      </trkpt>
      <trkpt lat="40.94769700" lon="-2.97696000">
        <ele>822.00000</ele>
        <time>2010-01-01T01:24:07Z</time>
      </trkpt>
      <trkpt lat="40.94769300" lon="-2.97676100">
        <ele>821.00000</ele>
        <time>2010-01-01T01:24:13Z</time>
      </trkpt>
      <trkpt lat="40.94767400" lon="-2.97651400">
        <ele>820.00000</ele>
        <time>2010-01-01T01:24:20Z</time>
      </trkpt>
      <trkpt lat="40.94766900" lon="-2.97638300">
        <ele>819.00000</ele>
        <time>2010-01-01T01:24:24Z</time>
      </trkpt>
      <trkpt lat="40.94766800" lon="-2.97613300">
        <ele>818.00000</ele>
        <time>2010-01-01T01:24:32Z</time>
      </trkpt>
      <trkpt lat="40.94767600" lon="-2.97596500">
        <ele>817.00000</ele>
        <time>2010-01-01T01:24:37Z</time>
      </trkpt>
      <trkpt lat="40.94773300" lon="-2.97581700">
        <ele>816.00000</ele>
        <time>2010-01-01T01:24:42Z</time>
      </trkpt>
      <trkpt lat="40.94776800" lon="-2.97569000">
        <ele>816.00000</ele>
        <time>2010-01-01T01:24:46Z</time>
      </trkpt>
      <trkpt lat="40.94782500" lon="-2.97555800">
        <ele>815.00000</ele>
        <time>2010-01-01T01:24:50Z</time>
      </trkpt>
      <trkpt lat="40.94792600" lon="-2.97541500">
        <ele>814.00000</ele>
        <time>2010-01-01T01:24:56Z</time>
      </trkpt>
      <trkpt lat="40.94801800" lon="-2.97526700">
        <ele>813.00000</ele>
        <time>2010-01-01T01:25:02Z</time>
      </trkpt>
      <trkpt lat="40.94805400" lon="-2.97506500">
        <ele>812.00000</ele>
        <time>2010-01-01T01:25:08Z</time>
      </trkpt>
      <trkpt lat="40.94805700" lon="-2.97494100">
        <ele>811.00000</ele>
        <time>2010-01-01T01:25:12Z</time>
      </trkpt>
      <trkpt lat="40.94804900" lon="-2.97480900">
        <ele>811.00000</ele>
        <time>2010-01-01T01:25:16Z</time>
      </trkpt>
      <trkpt lat="40.94803300" lon="-2.97466800">
        <ele>810.00000</ele>
        <time>2010-01-01T01:25:21Z</time>
      </trkpt>
      <trkpt lat="40.94801800" lon="-2.97452600">
        <ele>810.00000</ele>
        <time>2010-01-01T01:25:25Z</time>
      </trkpt>
      <trkpt lat="40.94800600" lon="-2.97439000">
        <ele>810.00000</ele>
        <time>2010-01-01T01:25:29Z</time>
      </trkpt>
      <trkpt lat="40.94800000" lon="-2.97426100">
        <ele>810.00000</ele>
        <time>2010-01-01T01:25:33Z</time>
      </trkpt>
      <trkpt lat="40.94799800" lon="-2.97413900">
        <ele>809.00000</ele>
        <time>2010-01-01T01:25:37Z</time>
      </trkpt>
      <trkpt lat="40.94800600" lon="-2.97401400">
        <ele>809.00000</ele>
        <time>2010-01-01T01:25:40Z</time>
      </trkpt>
      <trkpt lat="40.94802800" lon="-2.97377700">
        <ele>809.00000</ele>
        <time>2010-01-01T01:25:48Z</time>
      </trkpt>
      <trkpt lat="40.94805300" lon="-2.97356300">
        <ele>808.00000</ele>
        <time>2010-01-01T01:25:54Z</time>
      </trkpt>
      <trkpt lat="40.94806900" lon="-2.97336700">
        <ele>808.00000</ele>
        <time>2010-01-01T01:26:00Z</time>
      </trkpt>
      <trkpt lat="40.94809900" lon="-2.97310000">
        <ele>807.00000</ele>
        <time>2010-01-01T01:26:08Z</time>
      </trkpt>
      <trkpt lat="40.94812100" lon="-2.97292100">
        <ele>807.00000</ele>
        <time>2010-01-01T01:26:14Z</time>
      </trkpt>
      <trkpt lat="40.94815200" lon="-2.97261300">
        <ele>806.00000</ele>
        <time>2010-01-01T01:26:23Z</time>
      </trkpt>
      <trkpt lat="40.94818000" lon="-2.97240600">
        <ele>806.00000</ele>
        <time>2010-01-01T01:26:30Z</time>
      </trkpt>
      <trkpt lat="40.94820800" lon="-2.97208200">
        <ele>806.00000</ele>
        <time>2010-01-01T01:26:39Z</time>
      </trkpt>
      <trkpt lat="40.94822700" lon="-2.97186400">
        <ele>805.00000</ele>
        <time>2010-01-01T01:26:46Z</time>
      </trkpt>
      <trkpt lat="40.94825900" lon="-2.97166300">
        <ele>804.00000</ele>
        <time>2010-01-01T01:26:52Z</time>
      </trkpt>
      <trkpt lat="40.94831000" lon="-2.97148600">
        <ele>804.00000</ele>
        <time>2010-01-01T01:26:58Z</time>
      </trkpt>
      <trkpt lat="40.94837600" lon="-2.97131900">
        <ele>803.00000</ele>
        <time>2010-01-01T01:27:04Z</time>
      </trkpt>
      <trkpt lat="40.94845300" lon="-2.97115100">
        <ele>803.00000</ele>
        <time>2010-01-01T01:27:10Z</time>
      </trkpt>
      <trkpt lat="40.94852100" lon="-2.97099400">
        <ele>803.00000</ele>
        <time>2010-01-01T01:27:15Z</time>
      </trkpt>
      <trkpt lat="40.94858000" lon="-2.97084500">
        <ele>803.00000</ele>
        <time>2010-01-01T01:27:20Z</time>
      </trkpt>
      <trkpt lat="40.94858800" lon="-2.97071200">
        <ele>804.00000</ele>
        <time>2010-01-01T01:27:24Z</time>
      </trkpt>
      <trkpt lat="40.94856400" lon="-2.97056000">
        <ele>804.00000</ele>
        <time>2010-01-01T01:27:29Z</time>
      </trkpt>
      <trkpt lat="40.94855000" lon="-2.97035300">
        <ele>805.00000</ele>
        <time>2010-01-01T01:27:35Z</time>
      </trkpt>
      <trkpt lat="40.94854900" lon="-2.97023100">
        <ele>805.00000</ele>
        <time>2010-01-01T01:27:39Z</time>
      </trkpt>
      <trkpt lat="40.94853700" lon="-2.97002200">
        <ele>806.00000</ele>
        <time>2010-01-01T01:27:45Z</time>
      </trkpt>
      <trkpt lat="40.94849000" lon="-2.96988900">
        <ele>806.00000</ele>
        <time>2010-01-01T01:27:50Z</time>
      </trkpt>
      <trkpt lat="40.94837700" lon="-2.96984500">
        <ele>805.00000</ele>
        <time>2010-01-01T01:27:54Z</time>
      </trkpt>
      <trkpt lat="40.94827100" lon="-2.96986200">
        <ele>805.00000</ele>
        <time>2010-01-01T01:27:59Z</time>
      </trkpt>
      <trkpt lat="40.94816900" lon="-2.96987600">
        <ele>804.00000</ele>
        <time>2010-01-01T01:28:03Z</time>
      </trkpt>
      <trkpt lat="40.94805500" lon="-2.96986800">
        <ele>804.00000</ele>
        <time>2010-01-01T01:28:07Z</time>
      </trkpt>
      <trkpt lat="40.94795300" lon="-2.96983200">
        <ele>804.00000</ele>
        <time>2010-01-01T01:28:12Z</time>
      </trkpt>
      <trkpt lat="40.94785600" lon="-2.96974400">
        <ele>805.00000</ele>
        <time>2010-01-01T01:28:16Z</time>
      </trkpt>
      <trkpt lat="40.94776500" lon="-2.96959300">
        <ele>806.00000</ele>
        <time>2010-01-01T01:28:22Z</time>
      </trkpt>
      <trkpt lat="40.94767500" lon="-2.96939900">
        <ele>806.00000</ele>
        <time>2010-01-01T01:28:29Z</time>
      </trkpt>
      <trkpt lat="40.94762800" lon="-2.96929800">
        <ele>806.00000</ele>
        <time>2010-01-01T01:28:33Z</time>
      </trkpt>
      <trkpt lat="40.94751200" lon="-2.96915200">
        <ele>806.00000</ele>
        <time>2010-01-01T01:28:39Z</time>
      </trkpt>
      <trkpt lat="40.94736400" lon="-2.96907900">
        <ele>807.00000</ele>
        <time>2010-01-01T01:28:45Z</time>
      </trkpt>
      <trkpt lat="40.94727500" lon="-2.96905700">
        <ele>807.00000</ele>
        <time>2010-01-01T01:28:49Z</time>
      </trkpt>
      <trkpt lat="40.94711400" lon="-2.96899400">
        <ele>807.00000</ele>
        <time>2010-01-01T01:28:56Z</time>
      </trkpt>
      <trkpt lat="40.94698600" lon="-2.96890400">
        <ele>807.00000</ele>
        <time>2010-01-01T01:29:01Z</time>
      </trkpt>
      <trkpt lat="40.94686600" lon="-2.96884200">
        <ele>808.00000</ele>
        <time>2010-01-01T01:29:07Z</time>
      </trkpt>
      <trkpt lat="40.94674700" lon="-2.96881900">
        <ele>808.00000</ele>
        <time>2010-01-01T01:29:11Z</time>
      </trkpt>
      <trkpt lat="40.94659600" lon="-2.96880300">
        <ele>809.00000</ele>
        <time>2010-01-01T01:29:17Z</time>
      </trkpt>
      <trkpt lat="40.94642700" lon="-2.96878200">
        <ele>809.00000</ele>
        <time>2010-01-01T01:29:24Z</time>
      </trkpt>
      <trkpt lat="40.94627400" lon="-2.96874300">
        <ele>809.00000</ele>
        <time>2010-01-01T01:29:31Z</time>
      </trkpt>
      <trkpt lat="40.94614200" lon="-2.96869500">
        <ele>809.00000</ele>
        <time>2010-01-01T01:29:36Z</time>
      </trkpt>
      <trkpt lat="40.94601700" lon="-2.96861500">
        <ele>808.00000</ele>
        <time>2010-01-01T01:29:42Z</time>
      </trkpt>
      <trkpt lat="40.94595200" lon="-2.96847100">
        <ele>808.00000</ele>
        <time>2010-01-01T01:29:47Z</time>
      </trkpt>
      <trkpt lat="40.94591300" lon="-2.96836000">
        <ele>808.00000</ele>
        <time>2010-01-01T01:29:50Z</time>
      </trkpt>
      <trkpt lat="40.94585200" lon="-2.96825400">
        <ele>807.00000</ele>
        <time>2010-01-01T01:29:54Z</time>
      </trkpt>
      <trkpt lat="40.94577900" lon="-2.96816800">
        <ele>807.00000</ele>
        <time>2010-01-01T01:29:58Z</time>
      </trkpt>
      <trkpt lat="40.94569000" lon="-2.96810000">
        <ele>806.00000</ele>
        <time>2010-01-01T01:30:02Z</time>
      </trkpt>
      <trkpt lat="40.94557500" lon="-2.96803300">
        <ele>805.00000</ele>
        <time>2010-01-01T01:30:07Z</time>
      </trkpt>
      <trkpt lat="40.94545900" lon="-2.96796700">
        <ele>805.00000</ele>
        <time>2010-01-01T01:30:12Z</time>
      </trkpt>
      <trkpt lat="40.94535500" lon="-2.96789000">
        <ele>804.00000</ele>
        <time>2010-01-01T01:30:17Z</time>
      </trkpt>
      <trkpt lat="40.94528500" lon="-2.96780700">
        <ele>804.00000</ele>
        <time>2010-01-01T01:30:21Z</time>
      </trkpt>
      <trkpt lat="40.94520900" lon="-2.96772200">
        <ele>804.00000</ele>
        <time>2010-01-01T01:30:25Z</time>
      </trkpt>
      <trkpt lat="40.94506700" lon="-2.96759900">
        <ele>804.00000</ele>
        <time>2010-01-01T01:30:32Z</time>
      </trkpt>
      <trkpt lat="40.94498400" lon="-2.96753900">
        <ele>805.00000</ele>
        <time>2010-01-01T01:30:36Z</time>
      </trkpt>
      <trkpt lat="40.94488900" lon="-2.96756200">
        <ele>805.00000</ele>
        <time>2010-01-01T01:30:39Z</time>
      </trkpt>
      <trkpt lat="40.94478700" lon="-2.96757700">
        <ele>805.00000</ele>
        <time>2010-01-01T01:30:44Z</time>
      </trkpt>
      <trkpt lat="40.94469500" lon="-2.96757100">
        <ele>804.00000</ele>
        <time>2010-01-01T01:30:47Z</time>
      </trkpt>
      <trkpt lat="40.94459800" lon="-2.96762000">
        <ele>804.00000</ele>
        <time>2010-01-01T01:30:51Z</time>
      </trkpt>
      <trkpt lat="40.94449400" lon="-2.96760200">
        <ele>804.00000</ele>
        <time>2010-01-01T01:30:56Z</time>
      </trkpt>
      <trkpt lat="40.94447800" lon="-2.96746100">
        <ele>805.00000</ele>
        <time>2010-01-01T01:31:00Z</time>
      </trkpt>
      <trkpt lat="40.94443200" lon="-2.96735700">
        <ele>805.00000</ele>
        <time>2010-01-01T01:31:04Z</time>
      </trkpt>
      <trkpt lat="40.94432900" lon="-2.96730200">
        <ele>805.00000</ele>
        <time>2010-01-01T01:31:08Z</time>
      </trkpt>
      <trkpt lat="40.94423200" lon="-2.96725300">
        <ele>805.00000</ele>
        <time>2010-01-01T01:31:12Z</time>
      </trkpt>
      <trkpt lat="40.94411400" lon="-2.96719700">
        <ele>805.00000</ele>
        <time>2010-01-01T01:31:17Z</time>
      </trkpt>
      <trkpt lat="40.94399000" lon="-2.96715600">
        <ele>805.00000</ele>
        <time>2010-01-01T01:31:22Z</time>
      </trkpt>
      <trkpt lat="40.94386800" lon="-2.96713700">
        <ele>806.00000</ele>
        <time>2010-01-01T01:31:27Z</time>
      </trkpt>
      <trkpt lat="40.94376700" lon="-2.96711300">
        <ele>806.00000</ele>
        <time>2010-01-01T01:31:31Z</time>
      </trkpt>
      <trkpt lat="40.94360000" lon="-2.96708500">
        <ele>806.00000</ele>
        <time>2010-01-01T01:31:38Z</time>
      </trkpt>
      <trkpt lat="40.94350400" lon="-2.96706800">
        <ele>806.00000</ele>
        <time>2010-01-01T01:31:42Z</time>
      </trkpt>
      <trkpt lat="40.94339700" lon="-2.96705800">
        <ele>806.00000</ele>
        <time>2010-01-01T01:31:46Z</time>
      </trkpt>
      <trkpt lat="40.94328300" lon="-2.96705700">
        <ele>806.00000</ele>
        <time>2010-01-01T01:31:51Z</time>
      </trkpt>
      <trkpt lat="40.94317100" lon="-2.96707100">
        <ele>806.00000</ele>
        <time>2010-01-01T01:31:55Z</time>
      </trkpt>
      <trkpt lat="40.94307100" lon="-2.96707600">
        <ele>806.00000</ele>
        <time>2010-01-01T01:31:59Z</time>
      </trkpt>
      <trkpt lat="40.94296400" lon="-2.96710800">
        <ele>806.00000</ele>
        <time>2010-01-01T01:32:04Z</time>
      </trkpt>
      <trkpt lat="40.94285500" lon="-2.96712600">
        <ele>806.00000</ele>
        <time>2010-01-01T01:32:08Z</time>
      </trkpt>
      <trkpt lat="40.94274500" lon="-2.96713100">
        <ele>807.00000</ele>
        <time>2010-01-01T01:32:12Z</time>
      </trkpt>
      <trkpt lat="40.94265300" lon="-2.96716000">
        <ele>807.00000</ele>
        <time>2010-01-01T01:32:16Z</time>
      </trkpt>
      <trkpt lat="40.94254400" lon="-2.96718900">
        <ele>807.00000</ele>
        <time>2010-01-01T01:32:21Z</time>
      </trkpt>
      <trkpt lat="40.94245700" lon="-2.96715900">
        <ele>807.00000</ele>
        <time>2010-01-01T01:32:24Z</time>
      </trkpt>
      <trkpt lat="40.94236100" lon="-2.96705400">
        <ele>808.00000</ele>
        <time>2010-01-01T01:32:29Z</time>
      </trkpt>
      <trkpt lat="40.94225400" lon="-2.96695300">
        <ele>808.00000</ele>
        <time>2010-01-01T01:32:35Z</time>
      </trkpt>
      <trkpt lat="40.94218200" lon="-2.96687600">
        <ele>808.00000</ele>
        <time>2010-01-01T01:32:38Z</time>
      </trkpt>
      <trkpt lat="40.94208400" lon="-2.96674900">
        <ele>810.00000</ele>
        <time>2010-01-01T01:32:44Z</time>
      </trkpt>
      <trkpt lat="40.94213100" lon="-2.96662600">
        <ele>812.00000</ele>
        <time>2010-01-01T01:32:48Z</time>
      </trkpt>
      <trkpt lat="40.94223200" lon="-2.96663500">
        <ele>811.00000</ele>
        <time>2010-01-01T01:32:52Z</time>
      </trkpt>
      <trkpt lat="40.94233000" lon="-2.96659700">
        <ele>812.00000</ele>
        <time>2010-01-01T01:32:56Z</time>
      </trkpt>
      <trkpt lat="40.94240800" lon="-2.96647200">
        <ele>814.00000</ele>
        <time>2010-01-01T01:33:01Z</time>
      </trkpt>
      <trkpt lat="40.94245100" lon="-2.96636600">
        <ele>815.00000</ele>
        <time>2010-01-01T01:33:05Z</time>
      </trkpt>
      <trkpt lat="40.94248200" lon="-2.96624800">
        <ele>817.00000</ele>
        <time>2010-01-01T01:33:08Z</time>
      </trkpt>
      <trkpt lat="40.94251700" lon="-2.96609700">
        <ele>819.00000</ele>
        <time>2010-01-01T01:33:13Z</time>
      </trkpt>
      <trkpt lat="40.94255500" lon="-2.96593500">
        <ele>821.00000</ele>
        <time>2010-01-01T01:33:18Z</time>
      </trkpt>
      <trkpt lat="40.94258700" lon="-2.96582200">
        <ele>823.00000</ele>
        <time>2010-01-01T01:33:22Z</time>
      </trkpt>
      <trkpt lat="40.94264100" lon="-2.96566900">
        <ele>826.00000</ele>
        <time>2010-01-01T01:33:27Z</time>
      </trkpt>
      <trkpt lat="40.94271000" lon="-2.96555800">
        <ele>829.00000</ele>
        <time>2010-01-01T01:33:31Z</time>
      </trkpt>
      <trkpt lat="40.94280300" lon="-2.96545500">
        <ele>831.00000</ele>
        <time>2010-01-01T01:33:36Z</time>
      </trkpt>
      <trkpt lat="40.94285600" lon="-2.96532900">
        <ele>832.00000</ele>
        <time>2010-01-01T01:33:41Z</time>
      </trkpt>
      <trkpt lat="40.94295800" lon="-2.96521200">
        <ele>833.00000</ele>
        <time>2010-01-01T01:33:46Z</time>
      </trkpt>
      <trkpt lat="40.94307800" lon="-2.96509100">
        <ele>834.00000</ele>
        <time>2010-01-01T01:33:52Z</time>
      </trkpt>
      <trkpt lat="40.94320300" lon="-2.96500300">
        <ele>834.00000</ele>
        <time>2010-01-01T01:33:58Z</time>
      </trkpt>
      <trkpt lat="40.94334400" lon="-2.96495600">
        <ele>834.00000</ele>
        <time>2010-01-01T01:34:04Z</time>
      </trkpt>
      <trkpt lat="40.94350400" lon="-2.96493000">
        <ele>835.00000</ele>
        <time>2010-01-01T01:34:10Z</time>
      </trkpt>
      <trkpt lat="40.94365700" lon="-2.96489200">
        <ele>836.00000</ele>
        <time>2010-01-01T01:34:16Z</time>
      </trkpt>
      <trkpt lat="40.94379400" lon="-2.96486600">
        <ele>836.00000</ele>
        <time>2010-01-01T01:34:22Z</time>
      </trkpt>
      <trkpt lat="40.94388500" lon="-2.96483300">
        <ele>837.00000</ele>
        <time>2010-01-01T01:34:26Z</time>
      </trkpt>
      <trkpt lat="40.94397700" lon="-2.96476700">
        <ele>838.00000</ele>
        <time>2010-01-01T01:34:30Z</time>
      </trkpt>
      <trkpt lat="40.94407100" lon="-2.96465000">
        <ele>839.00000</ele>
        <time>2010-01-01T01:34:35Z</time>
      </trkpt>
      <trkpt lat="40.94417100" lon="-2.96450200">
        <ele>841.00000</ele>
        <time>2010-01-01T01:34:41Z</time>
      </trkpt>
      <trkpt lat="40.94428200" lon="-2.96436800">
        <ele>841.00000</ele>
        <time>2010-01-01T01:34:47Z</time>
      </trkpt>
      <trkpt lat="40.94438400" lon="-2.96424800">
        <ele>842.00000</ele>
        <time>2010-01-01T01:34:52Z</time>
      </trkpt>
      <trkpt lat="40.94448700" lon="-2.96415800">
        <ele>842.00000</ele>
        <time>2010-01-01T01:34:57Z</time>
      </trkpt>
      <trkpt lat="40.94460000" lon="-2.96411600">
        <ele>842.00000</ele>
        <time>2010-01-01T01:35:02Z</time>
      </trkpt>
      <trkpt lat="40.94471400" lon="-2.96405300">
        <ele>843.00000</ele>
        <time>2010-01-01T01:35:07Z</time>
      </trkpt>
      <trkpt lat="40.94483900" lon="-2.96401900">
        <ele>844.00000</ele>
        <time>2010-01-01T01:35:12Z</time>
      </trkpt>
      <trkpt lat="40.94499000" lon="-2.96398900">
        <ele>845.00000</ele>
        <time>2010-01-01T01:35:18Z</time>
      </trkpt>
      <trkpt lat="40.94513300" lon="-2.96397300">
        <ele>846.00000</ele>
        <time>2010-01-01T01:35:24Z</time>
      </trkpt>
      <trkpt lat="40.94526700" lon="-2.96394900">
        <ele>848.00000</ele>
        <time>2010-01-01T01:35:29Z</time>
      </trkpt>
      <trkpt lat="40.94540500" lon="-2.96393100">
        <ele>850.00000</ele>
        <time>2010-01-01T01:35:35Z</time>
      </trkpt>
      <trkpt lat="40.94552600" lon="-2.96384000">
        <ele>854.00000</ele>
        <time>2010-01-01T01:35:40Z</time>
      </trkpt>
      <trkpt lat="40.94552900" lon="-2.96369000">
        <ele>858.00000</ele>
        <time>2010-01-01T01:35:45Z</time>
      </trkpt>
      <trkpt lat="40.94541500" lon="-2.96361200">
        <ele>859.00000</ele>
        <time>2010-01-01T01:35:50Z</time>
      </trkpt>
      <trkpt lat="40.94531100" lon="-2.96356600">
        <ele>859.00000</ele>
        <time>2010-01-01T01:35:54Z</time>
      </trkpt>
      <trkpt lat="40.94518200" lon="-2.96351300">
        <ele>859.00000</ele>
        <time>2010-01-01T01:36:00Z</time>
      </trkpt>
      <trkpt lat="40.94503900" lon="-2.96344600">
        <ele>860.00000</ele>
        <time>2010-01-01T01:36:06Z</time>
      </trkpt>
      <trkpt lat="40.94489000" lon="-2.96338400">
        <ele>862.00000</ele>
        <time>2010-01-01T01:36:12Z</time>
      </trkpt>
      <trkpt lat="40.94474300" lon="-2.96332300">
        <ele>863.00000</ele>
        <time>2010-01-01T01:36:18Z</time>
      </trkpt>
      <trkpt lat="40.94460600" lon="-2.96326100">
        <ele>863.00000</ele>
        <time>2010-01-01T01:36:24Z</time>
      </trkpt>
      <trkpt lat="40.94447700" lon="-2.96320800">
        <ele>862.00000</ele>
        <time>2010-01-01T01:36:30Z</time>
      </trkpt>
      <trkpt lat="40.94434400" lon="-2.96318300">
        <ele>863.00000</ele>
        <time>2010-01-01T01:36:35Z</time>
      </trkpt>
      <trkpt lat="40.94420700" lon="-2.96319000">
        <ele>863.00000</ele>
        <time>2010-01-01T01:36:40Z</time>
      </trkpt>
      <trkpt lat="40.94408000" lon="-2.96320600">
        <ele>864.00000</ele>
        <time>2010-01-01T01:36:46Z</time>
      </trkpt>
      <trkpt lat="40.94395800" lon="-2.96316900">
        <ele>866.00000</ele>
        <time>2010-01-01T01:36:51Z</time>
      </trkpt>
      <trkpt lat="40.94385100" lon="-2.96310200">
        <ele>869.00000</ele>
        <time>2010-01-01T01:36:55Z</time>
      </trkpt>
      <trkpt lat="40.94374600" lon="-2.96309200">
        <ele>870.00000</ele>
        <time>2010-01-01T01:37:00Z</time>
      </trkpt>
      <trkpt lat="40.94363800" lon="-2.96316400">
        <ele>868.00000</ele>
        <time>2010-01-01T01:37:04Z</time>
      </trkpt>
      <trkpt lat="40.94352300" lon="-2.96320100">
        <ele>867.00000</ele>
        <time>2010-01-01T01:37:09Z</time>
      </trkpt>
      <trkpt lat="40.94341000" lon="-2.96319700">
        <ele>868.00000</ele>
        <time>2010-01-01T01:37:14Z</time>
      </trkpt>
      <trkpt lat="40.94330400" lon="-2.96318300">
        <ele>868.00000</ele>
        <time>2010-01-01T01:37:18Z</time>
      </trkpt>
      <trkpt lat="40.94319600" lon="-2.96317000">
        <ele>869.00000</ele>
        <time>2010-01-01T01:37:22Z</time>
      </trkpt>
      <trkpt lat="40.94307300" lon="-2.96315500">
        <ele>870.00000</ele>
        <time>2010-01-01T01:37:27Z</time>
      </trkpt>
      <trkpt lat="40.94294700" lon="-2.96313100">
        <ele>871.00000</ele>
        <time>2010-01-01T01:37:32Z</time>
      </trkpt>
      <trkpt lat="40.94281800" lon="-2.96312200">
        <ele>871.00000</ele>
        <time>2010-01-01T01:37:37Z</time>
      </trkpt>
      <trkpt lat="40.94265500" lon="-2.96323200">
        <ele>869.00000</ele>
        <time>2010-01-01T01:37:45Z</time>
      </trkpt>
      <trkpt lat="40.94248500" lon="-2.96325000">
        <ele>868.00000</ele>
        <time>2010-01-01T01:37:52Z</time>
      </trkpt>
      <trkpt lat="40.94239400" lon="-2.96312600">
        <ele>869.00000</ele>
        <time>2010-01-01T01:37:57Z</time>
      </trkpt>
      <trkpt lat="40.94241000" lon="-2.96299400">
        <ele>871.00000</ele>
        <time>2010-01-01T01:38:01Z</time>
      </trkpt>
      <trkpt lat="40.94244800" lon="-2.96282900">
        <ele>875.00000</ele>
        <time>2010-01-01T01:38:06Z</time>
      </trkpt>
      <trkpt lat="40.94246900" lon="-2.96263900">
        <ele>880.00000</ele>
        <time>2010-01-01T01:38:12Z</time>
      </trkpt>
      <trkpt lat="40.94245600" lon="-2.96247200">
        <ele>883.00000</ele>
        <time>2010-01-01T01:38:17Z</time>
      </trkpt>
      <trkpt lat="40.94234300" lon="-2.96239100">
        <ele>884.00000</ele>
        <time>2010-01-01T01:38:22Z</time>
      </trkpt>
      <trkpt lat="40.94222500" lon="-2.96246100">
        <ele>882.00000</ele>
        <time>2010-01-01T01:38:27Z</time>
      </trkpt>
      <trkpt lat="40.94208400" lon="-2.96252900">
        <ele>880.00000</ele>
        <time>2010-01-01T01:38:33Z</time>
      </trkpt>
      <trkpt lat="40.94193900" lon="-2.96253600">
        <ele>879.00000</ele>
        <time>2010-01-01T01:38:39Z</time>
      </trkpt>
      <trkpt lat="40.94180800" lon="-2.96250700">
        <ele>882.00000</ele>
        <time>2010-01-01T01:38:44Z</time>
      </trkpt>
      <trkpt lat="40.94171000" lon="-2.96247400">
        <ele>884.00000</ele>
        <time>2010-01-01T01:38:48Z</time>
      </trkpt>
      <trkpt lat="40.94161300" lon="-2.96246600">
        <ele>884.00000</ele>
        <time>2010-01-01T01:38:52Z</time>
      </trkpt>
      <trkpt lat="40.94151400" lon="-2.96245900">
        <ele>885.00000</ele>
        <time>2010-01-01T01:38:56Z</time>
      </trkpt>
      <trkpt lat="40.94141200" lon="-2.96246700">
        <ele>886.00000</ele>
        <time>2010-01-01T01:39:00Z</time>
      </trkpt>
      <trkpt lat="40.94129800" lon="-2.96248400">
        <ele>885.00000</ele>
        <time>2010-01-01T01:39:05Z</time>
      </trkpt>
      <trkpt lat="40.94115200" lon="-2.96249800">
        <ele>884.00000</ele>
        <time>2010-01-01T01:39:11Z</time>
      </trkpt>
      <trkpt lat="40.94099300" lon="-2.96247500">
        <ele>883.00000</ele>
        <time>2010-01-01T01:39:17Z</time>
      </trkpt>
      <trkpt lat="40.94089800" lon="-2.96244600">
        <ele>882.00000</ele>
        <time>2010-01-01T01:39:21Z</time>
      </trkpt>
      <trkpt lat="40.94079200" lon="-2.96240200">
        <ele>882.00000</ele>
        <time>2010-01-01T01:39:26Z</time>
      </trkpt>
      <trkpt lat="40.94068100" lon="-2.96234200">
        <ele>882.00000</ele>
        <time>2010-01-01T01:39:30Z</time>
      </trkpt>
      <trkpt lat="40.94057300" lon="-2.96227000">
        <ele>882.00000</ele>
        <time>2010-01-01T01:39:35Z</time>
      </trkpt>
      <trkpt lat="40.94047500" lon="-2.96218400">
        <ele>883.00000</ele>
        <time>2010-01-01T01:39:40Z</time>
      </trkpt>
      <trkpt lat="40.94038700" lon="-2.96209200">
        <ele>883.00000</ele>
        <time>2010-01-01T01:39:44Z</time>
      </trkpt>
      <trkpt lat="40.94030800" lon="-2.96200300">
        <ele>883.00000</ele>
        <time>2010-01-01T01:39:49Z</time>
      </trkpt>
      <trkpt lat="40.94023100" lon="-2.96191400">
        <ele>882.00000</ele>
        <time>2010-01-01T01:39:53Z</time>
      </trkpt>
      <trkpt lat="40.94010300" lon="-2.96175000">
        <ele>881.00000</ele>
        <time>2010-01-01T01:40:00Z</time>
      </trkpt>
      <trkpt lat="40.94000500" lon="-2.96165800">
        <ele>881.00000</ele>
        <time>2010-01-01T01:40:05Z</time>
      </trkpt>
      <trkpt lat="40.93989200" lon="-2.96163400">
        <ele>883.00000</ele>
        <time>2010-01-01T01:40:09Z</time>
      </trkpt>
      <trkpt lat="40.93973600" lon="-2.96167200">
        <ele>884.00000</ele>
        <time>2010-01-01T01:40:16Z</time>
      </trkpt>
      <trkpt lat="40.93957000" lon="-2.96174900">
        <ele>886.00000</ele>
        <time>2010-01-01T01:40:23Z</time>
      </trkpt>
      <trkpt lat="40.93940700" lon="-2.96185200">
        <ele>888.00000</ele>
        <time>2010-01-01T01:40:30Z</time>
      </trkpt>
      <trkpt lat="40.93925700" lon="-2.96194200">
        <ele>888.00000</ele>
        <time>2010-01-01T01:40:36Z</time>
      </trkpt>
      <trkpt lat="40.93912400" lon="-2.96200500">
        <ele>888.00000</ele>
        <time>2010-01-01T01:40:42Z</time>
      </trkpt>
      <trkpt lat="40.93899900" lon="-2.96205900">
        <ele>888.00000</ele>
        <time>2010-01-01T01:40:47Z</time>
      </trkpt>
      <trkpt lat="40.93890800" lon="-2.96208900">
        <ele>887.00000</ele>
        <time>2010-01-01T01:40:51Z</time>
      </trkpt>
      <trkpt lat="40.93887700" lon="-2.96213600">
        <ele>887.00000</ele>
        <time>2010-01-01T01:40:53Z</time>
      </trkpt>
      <trkpt lat="40.93897900" lon="-2.96208900">
        <ele>888.00000</ele>
        <time>2010-01-01T01:40:57Z</time>
      </trkpt>
      <trkpt lat="40.93911100" lon="-2.96199600">
        <ele>888.00000</ele>
        <time>2010-01-01T01:41:03Z</time>
      </trkpt>
      <trkpt lat="40.93925200" lon="-2.96190300">
        <ele>888.00000</ele>
        <time>2010-01-01T01:41:10Z</time>
      </trkpt>
      <trkpt lat="40.93933400" lon="-2.96185000">
        <ele>887.00000</ele>
        <time>2010-01-01T01:41:13Z</time>
      </trkpt>
      <trkpt lat="40.93942200" lon="-2.96179300">
        <ele>887.00000</ele>
        <time>2010-01-01T01:41:17Z</time>
      </trkpt>
      <trkpt lat="40.93951700" lon="-2.96173600">
        <ele>886.00000</ele>
        <time>2010-01-01T01:41:21Z</time>
      </trkpt>
      <trkpt lat="40.93961300" lon="-2.96168400">
        <ele>885.00000</ele>
        <time>2010-01-01T01:41:26Z</time>
      </trkpt>
      <trkpt lat="40.93970100" lon="-2.96164600">
        <ele>884.00000</ele>
        <time>2010-01-01T01:41:29Z</time>
      </trkpt>
      <trkpt lat="40.93986800" lon="-2.96162200">
        <ele>883.00000</ele>
        <time>2010-01-01T01:41:36Z</time>
      </trkpt>
      <trkpt lat="40.94001700" lon="-2.96171000">
        <ele>882.00000</ele>
        <time>2010-01-01T01:41:42Z</time>
      </trkpt>
      <trkpt lat="40.94010100" lon="-2.96179900">
        <ele>882.00000</ele>
        <time>2010-01-01T01:41:47Z</time>
      </trkpt>
      <trkpt lat="40.94019400" lon="-2.96190500">
        <ele>882.00000</ele>
        <time>2010-01-01T01:41:52Z</time>
      </trkpt>
      <trkpt lat="40.94029100" lon="-2.96201200">
        <ele>883.00000</ele>
        <time>2010-01-01T01:41:57Z</time>
      </trkpt>
      <trkpt lat="40.94038700" lon="-2.96210900">
        <ele>883.00000</ele>
        <time>2010-01-01T01:42:02Z</time>
      </trkpt>
      <trkpt lat="40.94047900" lon="-2.96219200">
        <ele>883.00000</ele>
        <time>2010-01-01T01:42:06Z</time>
      </trkpt>
      <trkpt lat="40.94057100" lon="-2.96226200">
        <ele>882.00000</ele>
        <time>2010-01-01T01:42:10Z</time>
      </trkpt>
      <trkpt lat="40.94066300" lon="-2.96232300">
        <ele>882.00000</ele>
        <time>2010-01-01T01:42:14Z</time>
      </trkpt>
      <trkpt lat="40.94075200" lon="-2.96237300">
        <ele>882.00000</ele>
        <time>2010-01-01T01:42:18Z</time>
      </trkpt>
      <trkpt lat="40.94090600" lon="-2.96243500">
        <ele>882.00000</ele>
        <time>2010-01-01T01:42:25Z</time>
      </trkpt>
      <trkpt lat="40.94103300" lon="-2.96246100">
        <ele>883.00000</ele>
        <time>2010-01-01T01:42:30Z</time>
      </trkpt>
      <trkpt lat="40.94113900" lon="-2.96244000">
        <ele>884.00000</ele>
        <time>2010-01-01T01:42:34Z</time>
      </trkpt>
      <trkpt lat="40.94119600" lon="-2.96246200">
        <ele>884.00000</ele>
        <time>2010-01-01T01:42:37Z</time>
      </trkpt>
      <trkpt lat="40.94111400" lon="-2.96238400">
        <ele>884.00000</ele>
        <time>2010-01-01T01:42:41Z</time>
      </trkpt>
      <trkpt lat="40.94101400" lon="-2.96232700">
        <ele>883.00000</ele>
        <time>2010-01-01T01:42:45Z</time>
      </trkpt>
      <trkpt lat="40.94089900" lon="-2.96224400">
        <ele>883.00000</ele>
        <time>2010-01-01T01:42:50Z</time>
      </trkpt>
      <trkpt lat="40.94078100" lon="-2.96214300">
        <ele>882.00000</ele>
        <time>2010-01-01T01:42:56Z</time>
      </trkpt>
      <trkpt lat="40.94066600" lon="-2.96203200">
        <ele>882.00000</ele>
        <time>2010-01-01T01:43:01Z</time>
      </trkpt>
      <trkpt lat="40.94055400" lon="-2.96191600">
        <ele>881.00000</ele>
        <time>2010-01-01T01:43:07Z</time>
      </trkpt>
      <trkpt lat="40.94046200" lon="-2.96179200">
        <ele>881.00000</ele>
        <time>2010-01-01T01:43:12Z</time>
      </trkpt>
      <trkpt lat="40.94038800" lon="-2.96165400">
        <ele>880.00000</ele>
        <time>2010-01-01T01:43:18Z</time>
      </trkpt>
      <trkpt lat="40.94033600" lon="-2.96150500">
        <ele>879.00000</ele>
        <time>2010-01-01T01:43:23Z</time>
      </trkpt>
      <trkpt lat="40.94029800" lon="-2.96135300">
        <ele>879.00000</ele>
        <time>2010-01-01T01:43:27Z</time>
      </trkpt>
      <trkpt lat="40.94028000" lon="-2.96120000">
        <ele>880.00000</ele>
        <time>2010-01-01T01:43:32Z</time>
      </trkpt>
      <trkpt lat="40.94028100" lon="-2.96105100">
        <ele>880.00000</ele>
        <time>2010-01-01T01:43:37Z</time>
      </trkpt>
      <trkpt lat="40.94030200" lon="-2.96090500">
        <ele>880.00000</ele>
        <time>2010-01-01T01:43:41Z</time>
      </trkpt>
      <trkpt lat="40.94032900" lon="-2.96076400">
        <ele>879.00000</ele>
        <time>2010-01-01T01:43:45Z</time>
      </trkpt>
      <trkpt lat="40.94034000" lon="-2.96062000">
        <ele>877.00000</ele>
        <time>2010-01-01T01:43:50Z</time>
      </trkpt>
      <trkpt lat="40.94033000" lon="-2.96047400">
        <ele>875.00000</ele>
        <time>2010-01-01T01:43:54Z</time>
      </trkpt>
      <trkpt lat="40.94030800" lon="-2.96032500">
        <ele>874.00000</ele>
        <time>2010-01-01T01:43:59Z</time>
      </trkpt>
      <trkpt lat="40.94028900" lon="-2.96017600">
        <ele>873.00000</ele>
        <time>2010-01-01T01:44:03Z</time>
      </trkpt>
      <trkpt lat="40.94030000" lon="-2.96002600">
        <ele>871.00000</ele>
        <time>2010-01-01T01:44:08Z</time>
      </trkpt>
      <trkpt lat="40.94032800" lon="-2.95987600">
        <ele>871.00000</ele>
        <time>2010-01-01T01:44:13Z</time>
      </trkpt>
      <trkpt lat="40.94035700" lon="-2.95972600">
        <ele>870.00000</ele>
        <time>2010-01-01T01:44:17Z</time>
      </trkpt>
      <trkpt lat="40.94036400" lon="-2.95957800">
        <ele>870.00000</ele>
        <time>2010-01-01T01:44:22Z</time>
      </trkpt>
      <trkpt lat="40.94035900" lon="-2.95943100">
        <ele>869.00000</ele>
        <time>2010-01-01T01:44:26Z</time>
      </trkpt>
      <trkpt lat="40.94034800" lon="-2.95927300">
        <ele>869.00000</ele>
        <time>2010-01-01T01:44:31Z</time>
      </trkpt>
      <trkpt lat="40.94033300" lon="-2.95911000">
        <ele>870.00000</ele>
        <time>2010-01-01T01:44:36Z</time>
      </trkpt>
      <trkpt lat="40.94032000" lon="-2.95895100">
        <ele>870.00000</ele>
        <time>2010-01-01T01:44:41Z</time>
      </trkpt>
      <trkpt lat="40.94030400" lon="-2.95864100">
        <ele>868.00000</ele>
        <time>2010-01-01T01:44:50Z</time>
      </trkpt>
      <trkpt lat="40.94029900" lon="-2.95848900">
        <ele>867.00000</ele>
        <time>2010-01-01T01:44:55Z</time>
      </trkpt>
      <trkpt lat="40.94029100" lon="-2.95819200">
        <ele>865.00000</ele>
        <time>2010-01-01T01:45:04Z</time>
      </trkpt>
      <trkpt lat="40.94025600" lon="-2.95806100">
        <ele>864.00000</ele>
        <time>2010-01-01T01:45:08Z</time>
      </trkpt>
      <trkpt lat="40.94018900" lon="-2.95795300">
        <ele>863.00000</ele>
        <time>2010-01-01T01:45:12Z</time>
      </trkpt>
      <trkpt lat="40.94010800" lon="-2.95786200">
        <ele>862.00000</ele>
        <time>2010-01-01T01:45:17Z</time>
      </trkpt>
      <trkpt lat="40.94002100" lon="-2.95779200">
        <ele>861.00000</ele>
        <time>2010-01-01T01:45:21Z</time>
      </trkpt>
      <trkpt lat="40.93992000" lon="-2.95774400">
        <ele>860.00000</ele>
        <time>2010-01-01T01:45:25Z</time>
      </trkpt>
      <trkpt lat="40.93980300" lon="-2.95770600">
        <ele>859.00000</ele>
        <time>2010-01-01T01:45:30Z</time>
      </trkpt>
      <trkpt lat="40.93967000" lon="-2.95766600">
        <ele>858.00000</ele>
        <time>2010-01-01T01:45:35Z</time>
      </trkpt>
      <trkpt lat="40.93952700" lon="-2.95762000">
        <ele>857.00000</ele>
        <time>2010-01-01T01:45:41Z</time>
      </trkpt>
      <trkpt lat="40.93938300" lon="-2.95757500">
        <ele>856.00000</ele>
        <time>2010-01-01T01:45:47Z</time>
      </trkpt>
      <trkpt lat="40.93924100" lon="-2.95753600">
        <ele>855.00000</ele>
        <time>2010-01-01T01:45:53Z</time>
      </trkpt>
      <trkpt lat="40.93910000" lon="-2.95750000">
        <ele>854.00000</ele>
        <time>2010-01-01T01:45:59Z</time>
      </trkpt>
      <trkpt lat="40.93896000" lon="-2.95746800">
        <ele>851.00000</ele>
        <time>2010-01-01T01:46:04Z</time>
      </trkpt>
      <trkpt lat="40.93882300" lon="-2.95744100">
        <ele>850.00000</ele>
        <time>2010-01-01T01:46:10Z</time>
      </trkpt>
      <trkpt lat="40.93869600" lon="-2.95740200">
        <ele>849.00000</ele>
        <time>2010-01-01T01:46:15Z</time>
      </trkpt>
      <trkpt lat="40.93857400" lon="-2.95736300">
        <ele>848.00000</ele>
        <time>2010-01-01T01:46:20Z</time>
      </trkpt>
      <trkpt lat="40.93845500" lon="-2.95732500">
        <ele>846.00000</ele>
        <time>2010-01-01T01:46:25Z</time>
      </trkpt>
      <trkpt lat="40.93834200" lon="-2.95728500">
        <ele>845.00000</ele>
        <time>2010-01-01T01:46:30Z</time>
      </trkpt>
      <trkpt lat="40.93823400" lon="-2.95723900">
        <ele>844.00000</ele>
        <time>2010-01-01T01:46:34Z</time>
      </trkpt>
      <trkpt lat="40.93813300" lon="-2.95719000">
        <ele>843.00000</ele>
        <time>2010-01-01T01:46:38Z</time>
      </trkpt>
      <trkpt lat="40.93803700" lon="-2.95713100">
        <ele>843.00000</ele>
        <time>2010-01-01T01:46:43Z</time>
      </trkpt>
      <trkpt lat="40.93791100" lon="-2.95698100">
        <ele>843.00000</ele>
        <time>2010-01-01T01:46:49Z</time>
      </trkpt>
      <trkpt lat="40.93786700" lon="-2.95687600">
        <ele>843.00000</ele>
        <time>2010-01-01T01:46:53Z</time>
      </trkpt>
      <trkpt lat="40.93781800" lon="-2.95676900">
        <ele>843.00000</ele>
        <time>2010-01-01T01:46:57Z</time>
      </trkpt>
      <trkpt lat="40.93780100" lon="-2.95662600">
        <ele>843.00000</ele>
        <time>2010-01-01T01:47:01Z</time>
      </trkpt>
      <trkpt lat="40.93778200" lon="-2.95645500">
        <ele>843.00000</ele>
        <time>2010-01-01T01:47:06Z</time>
      </trkpt>
      <trkpt lat="40.93775100" lon="-2.95627100">
        <ele>843.00000</ele>
        <time>2010-01-01T01:47:12Z</time>
      </trkpt>
      <trkpt lat="40.93771600" lon="-2.95608100">
        <ele>842.00000</ele>
        <time>2010-01-01T01:47:18Z</time>
      </trkpt>
      <trkpt lat="40.93767800" lon="-2.95587200">
        <ele>840.00000</ele>
        <time>2010-01-01T01:47:25Z</time>
      </trkpt>
      <trkpt lat="40.93763800" lon="-2.95565400">
        <ele>838.00000</ele>
        <time>2010-01-01T01:47:31Z</time>
      </trkpt>
      <trkpt lat="40.93758800" lon="-2.95544500">
        <ele>836.00000</ele>
        <time>2010-01-01T01:47:38Z</time>
      </trkpt>
      <trkpt lat="40.93753600" lon="-2.95523900">
        <ele>835.00000</ele>
        <time>2010-01-01T01:47:45Z</time>
      </trkpt>
      <trkpt lat="40.93748800" lon="-2.95503600">
        <ele>835.00000</ele>
        <time>2010-01-01T01:47:51Z</time>
      </trkpt>
      <trkpt lat="40.93744300" lon="-2.95484300">
        <ele>834.00000</ele>
        <time>2010-01-01T01:47:57Z</time>
      </trkpt>
      <trkpt lat="40.93740000" lon="-2.95464900">
        <ele>834.00000</ele>
        <time>2010-01-01T01:48:03Z</time>
      </trkpt>
      <trkpt lat="40.93736100" lon="-2.95446000">
        <ele>834.00000</ele>
        <time>2010-01-01T01:48:09Z</time>
      </trkpt>
      <trkpt lat="40.93732500" lon="-2.95427500">
        <ele>834.00000</ele>
        <time>2010-01-01T01:48:15Z</time>
      </trkpt>
      <trkpt lat="40.93729000" lon="-2.95409800">
        <ele>834.00000</ele>
        <time>2010-01-01T01:48:20Z</time>
      </trkpt>
      <trkpt lat="40.93725500" lon="-2.95393400">
        <ele>834.00000</ele>
        <time>2010-01-01T01:48:26Z</time>
      </trkpt>
      <trkpt lat="40.93718400" lon="-2.95379400">
        <ele>833.00000</ele>
        <time>2010-01-01T01:48:31Z</time>
      </trkpt>
      <trkpt lat="40.93710000" lon="-2.95367400">
        <ele>833.00000</ele>
        <time>2010-01-01T01:48:36Z</time>
      </trkpt>
      <trkpt lat="40.93701000" lon="-2.95356000">
        <ele>832.00000</ele>
        <time>2010-01-01T01:48:41Z</time>
      </trkpt>
      <trkpt lat="40.93690900" lon="-2.95344600">
        <ele>830.00000</ele>
        <time>2010-01-01T01:48:46Z</time>
      </trkpt>
      <trkpt lat="40.93679000" lon="-2.95333000">
        <ele>830.00000</ele>
        <time>2010-01-01T01:48:52Z</time>
      </trkpt>
      <trkpt lat="40.93665800" lon="-2.95320300">
        <ele>830.00000</ele>
        <time>2010-01-01T01:48:58Z</time>
      </trkpt>
      <trkpt lat="40.93651600" lon="-2.95306400">
        <ele>828.00000</ele>
        <time>2010-01-01T01:49:05Z</time>
      </trkpt>
      <trkpt lat="40.93637000" lon="-2.95291900">
        <ele>827.00000</ele>
        <time>2010-01-01T01:49:13Z</time>
      </trkpt>
      <trkpt lat="40.93622500" lon="-2.95277200">
        <ele>825.00000</ele>
        <time>2010-01-01T01:49:20Z</time>
      </trkpt>
      <trkpt lat="40.93608100" lon="-2.95262600">
        <ele>824.00000</ele>
        <time>2010-01-01T01:49:27Z</time>
      </trkpt>
      <trkpt lat="40.93594700" lon="-2.95247900">
        <ele>823.00000</ele>
        <time>2010-01-01T01:49:34Z</time>
      </trkpt>
      <trkpt lat="40.93581900" lon="-2.95233000">
        <ele>823.00000</ele>
        <time>2010-01-01T01:49:41Z</time>
      </trkpt>
      <trkpt lat="40.93569600" lon="-2.95217900">
        <ele>822.00000</ele>
        <time>2010-01-01T01:49:48Z</time>
      </trkpt>
      <trkpt lat="40.93558100" lon="-2.95202900">
        <ele>822.00000</ele>
        <time>2010-01-01T01:49:54Z</time>
      </trkpt>
      <trkpt lat="40.93546300" lon="-2.95187500">
        <ele>822.00000</ele>
        <time>2010-01-01T01:50:01Z</time>
      </trkpt>
      <trkpt lat="40.93533700" lon="-2.95171200">
        <ele>822.00000</ele>
        <time>2010-01-01T01:50:08Z</time>
      </trkpt>
      <trkpt lat="40.93520500" lon="-2.95154200">
        <ele>820.00000</ele>
        <time>2010-01-01T01:50:15Z</time>
      </trkpt>
      <trkpt lat="40.93506900" lon="-2.95136600">
        <ele>819.00000</ele>
        <time>2010-01-01T01:50:23Z</time>
      </trkpt>
      <trkpt lat="40.93493300" lon="-2.95118900">
        <ele>819.00000</ele>
        <time>2010-01-01T01:50:31Z</time>
      </trkpt>
      <trkpt lat="40.93479800" lon="-2.95101400">
        <ele>820.00000</ele>
        <time>2010-01-01T01:50:38Z</time>
      </trkpt>
      <trkpt lat="40.93466700" lon="-2.95083800">
        <ele>821.00000</ele>
        <time>2010-01-01T01:50:46Z</time>
      </trkpt>
      <trkpt lat="40.93454000" lon="-2.95066400">
        <ele>819.00000</ele>
        <time>2010-01-01T01:50:53Z</time>
      </trkpt>
      <trkpt lat="40.93441500" lon="-2.95049300">
        <ele>818.00000</ele>
        <time>2010-01-01T01:51:00Z</time>
      </trkpt>
      <trkpt lat="40.93429600" lon="-2.95032800">
        <ele>816.00000</ele>
        <time>2010-01-01T01:51:07Z</time>
      </trkpt>
      <trkpt lat="40.93417600" lon="-2.95017000">
        <ele>816.00000</ele>
        <time>2010-01-01T01:51:14Z</time>
      </trkpt>
      <trkpt lat="40.93406000" lon="-2.95001700">
        <ele>815.00000</ele>
        <time>2010-01-01T01:51:20Z</time>
      </trkpt>
      <trkpt lat="40.93384000" lon="-2.94972100">
        <ele>814.00000</ele>
        <time>2010-01-01T01:51:33Z</time>
      </trkpt>
      <trkpt lat="40.93373000" lon="-2.94957900">
        <ele>814.00000</ele>
        <time>2010-01-01T01:51:39Z</time>
      </trkpt>
      <trkpt lat="40.93362800" lon="-2.94945000">
        <ele>814.00000</ele>
        <time>2010-01-01T01:51:45Z</time>
      </trkpt>
      <trkpt lat="40.93353300" lon="-2.94933800">
        <ele>814.00000</ele>
        <time>2010-01-01T01:51:50Z</time>
      </trkpt>
      <trkpt lat="40.93344400" lon="-2.94924700">
        <ele>813.00000</ele>
        <time>2010-01-01T01:51:54Z</time>
      </trkpt>
      <trkpt lat="40.93330800" lon="-2.94907700">
        <ele>812.00000</ele>
        <time>2010-01-01T01:52:02Z</time>
      </trkpt>
      <trkpt lat="40.93321200" lon="-2.94894700">
        <ele>811.00000</ele>
        <time>2010-01-01T01:52:07Z</time>
      </trkpt>
      <trkpt lat="40.93321200" lon="-2.94873200">
        <ele>810.00000</ele>
        <time>2010-01-01T01:52:14Z</time>
      </trkpt>
      <trkpt lat="40.93324100" lon="-2.94858000">
        <ele>809.00000</ele>
        <time>2010-01-01T01:52:19Z</time>
      </trkpt>
      <trkpt lat="40.93328100" lon="-2.94839200">
        <ele>809.00000</ele>
        <time>2010-01-01T01:52:24Z</time>
      </trkpt>
      <trkpt lat="40.93333900" lon="-2.94799700">
        <ele>808.00000</ele>
        <time>2010-01-01T01:52:37Z</time>
      </trkpt>
      <trkpt lat="40.93337300" lon="-2.94778800">
        <ele>808.00000</ele>
        <time>2010-01-01T01:52:43Z</time>
      </trkpt>
      <trkpt lat="40.93338600" lon="-2.94757700">
        <ele>808.00000</ele>
        <time>2010-01-01T01:52:50Z</time>
      </trkpt>
      <trkpt lat="40.93338800" lon="-2.94737300">
        <ele>808.00000</ele>
        <time>2010-01-01T01:52:56Z</time>
      </trkpt>
      <trkpt lat="40.93338300" lon="-2.94718100">
        <ele>808.00000</ele>
        <time>2010-01-01T01:53:02Z</time>
      </trkpt>
      <trkpt lat="40.93336700" lon="-2.94699600">
        <ele>809.00000</ele>
        <time>2010-01-01T01:53:07Z</time>
      </trkpt>
      <trkpt lat="40.93335700" lon="-2.94681800">
        <ele>809.00000</ele>
        <time>2010-01-01T01:53:13Z</time>
      </trkpt>
      <trkpt lat="40.93333400" lon="-2.94648000">
        <ele>809.00000</ele>
        <time>2010-01-01T01:53:23Z</time>
      </trkpt>
      <trkpt lat="40.93336600" lon="-2.94634200">
        <ele>808.00000</ele>
        <time>2010-01-01T01:53:27Z</time>
      </trkpt>
      <trkpt lat="40.93345700" lon="-2.94608300">
        <ele>807.00000</ele>
        <time>2010-01-01T01:53:36Z</time>
      </trkpt>
      <trkpt lat="40.93346900" lon="-2.94595900">
        <ele>807.00000</ele>
        <time>2010-01-01T01:53:40Z</time>
      </trkpt>
      <trkpt lat="40.93340800" lon="-2.94578700">
        <ele>807.00000</ele>
        <time>2010-01-01T01:53:45Z</time>
      </trkpt>
      <trkpt lat="40.93325200" lon="-2.94573600">
        <ele>807.00000</ele>
        <time>2010-01-01T01:53:52Z</time>
      </trkpt>
      <trkpt lat="40.93309800" lon="-2.94581400">
        <ele>807.00000</ele>
        <time>2010-01-01T01:53:58Z</time>
      </trkpt>
      <trkpt lat="40.93294500" lon="-2.94587500">
        <ele>808.00000</ele>
        <time>2010-01-01T01:54:05Z</time>
      </trkpt>
      <trkpt lat="40.93288000" lon="-2.94577700">
        <ele>808.00000</ele>
        <time>2010-01-01T01:54:09Z</time>
      </trkpt>
      <trkpt lat="40.93281800" lon="-2.94566100">
        <ele>809.00000</ele>
        <time>2010-01-01T01:54:13Z</time>
      </trkpt>
      <trkpt lat="40.93276900" lon="-2.94552900">
        <ele>809.00000</ele>
        <time>2010-01-01T01:54:17Z</time>
      </trkpt>
      <trkpt lat="40.93271900" lon="-2.94538600">
        <ele>809.00000</ele>
        <time>2010-01-01T01:54:22Z</time>
      </trkpt>
      <trkpt lat="40.93266800" lon="-2.94523700">
        <ele>809.00000</ele>
        <time>2010-01-01T01:54:27Z</time>
      </trkpt>
      <trkpt lat="40.93261000" lon="-2.94508800">
        <ele>809.00000</ele>
        <time>2010-01-01T01:54:32Z</time>
      </trkpt>
      <trkpt lat="40.93253800" lon="-2.94495000">
        <ele>809.00000</ele>
        <time>2010-01-01T01:54:37Z</time>
      </trkpt>
      <trkpt lat="40.93245600" lon="-2.94482400">
        <ele>809.00000</ele>
        <time>2010-01-01T01:54:42Z</time>
      </trkpt>
      <trkpt lat="40.93236900" lon="-2.94469500">
        <ele>809.00000</ele>
        <time>2010-01-01T01:54:48Z</time>
      </trkpt>
      <trkpt lat="40.93227600" lon="-2.94456200">
        <ele>809.00000</ele>
        <time>2010-01-01T01:54:53Z</time>
      </trkpt>
      <trkpt lat="40.93218300" lon="-2.94442900">
        <ele>808.00000</ele>
        <time>2010-01-01T01:54:59Z</time>
      </trkpt>
      <trkpt lat="40.93208700" lon="-2.94429500">
        <ele>807.00000</ele>
        <time>2010-01-01T01:55:04Z</time>
      </trkpt>
      <trkpt lat="40.93198700" lon="-2.94416000">
        <ele>806.00000</ele>
        <time>2010-01-01T01:55:10Z</time>
      </trkpt>
      <trkpt lat="40.93188600" lon="-2.94402500">
        <ele>805.00000</ele>
        <time>2010-01-01T01:55:16Z</time>
      </trkpt>
      <trkpt lat="40.93178300" lon="-2.94389000">
        <ele>804.00000</ele>
        <time>2010-01-01T01:55:21Z</time>
      </trkpt>
      <trkpt lat="40.93167900" lon="-2.94375500">
        <ele>804.00000</ele>
        <time>2010-01-01T01:55:27Z</time>
      </trkpt>
      <trkpt lat="40.93157400" lon="-2.94361900">
        <ele>804.00000</ele>
        <time>2010-01-01T01:55:33Z</time>
      </trkpt>
      <trkpt lat="40.93147200" lon="-2.94348100">
        <ele>805.00000</ele>
        <time>2010-01-01T01:55:39Z</time>
      </trkpt>
      <trkpt lat="40.93137100" lon="-2.94334300">
        <ele>805.00000</ele>
        <time>2010-01-01T01:55:45Z</time>
      </trkpt>
      <trkpt lat="40.93126700" lon="-2.94321000">
        <ele>804.00000</ele>
        <time>2010-01-01T01:55:51Z</time>
      </trkpt>
      <trkpt lat="40.93116400" lon="-2.94307800">
        <ele>803.00000</ele>
        <time>2010-01-01T01:55:56Z</time>
      </trkpt>
      <trkpt lat="40.93106500" lon="-2.94294400">
        <ele>802.00000</ele>
        <time>2010-01-01T01:56:02Z</time>
      </trkpt>
      <trkpt lat="40.93097600" lon="-2.94280600">
        <ele>801.00000</ele>
        <time>2010-01-01T01:56:07Z</time>
      </trkpt>
      <trkpt lat="40.93089300" lon="-2.94266400">
        <ele>802.00000</ele>
        <time>2010-01-01T01:56:13Z</time>
      </trkpt>
      <trkpt lat="40.93081600" lon="-2.94252600">
        <ele>802.00000</ele>
        <time>2010-01-01T01:56:18Z</time>
      </trkpt>
      <trkpt lat="40.93073700" lon="-2.94239400">
        <ele>803.00000</ele>
        <time>2010-01-01T01:56:23Z</time>
      </trkpt>
      <trkpt lat="40.93067500" lon="-2.94225300">
        <ele>803.00000</ele>
        <time>2010-01-01T01:56:28Z</time>
      </trkpt>
      <trkpt lat="40.93061600" lon="-2.94210700">
        <ele>803.00000</ele>
        <time>2010-01-01T01:56:33Z</time>
      </trkpt>
      <trkpt lat="40.93055000" lon="-2.94195800">
        <ele>803.00000</ele>
        <time>2010-01-01T01:56:38Z</time>
      </trkpt>
      <trkpt lat="40.93048300" lon="-2.94180400">
        <ele>803.00000</ele>
        <time>2010-01-01T01:56:44Z</time>
      </trkpt>
      <trkpt lat="40.93041800" lon="-2.94164900">
        <ele>803.00000</ele>
        <time>2010-01-01T01:56:49Z</time>
      </trkpt>
      <trkpt lat="40.93035300" lon="-2.94150300">
        <ele>803.00000</ele>
        <time>2010-01-01T01:56:54Z</time>
      </trkpt>
      <trkpt lat="40.93027900" lon="-2.94137200">
        <ele>804.00000</ele>
        <time>2010-01-01T01:56:59Z</time>
      </trkpt>
      <trkpt lat="40.93019100" lon="-2.94126900">
        <ele>804.00000</ele>
        <time>2010-01-01T01:57:04Z</time>
      </trkpt>
      <trkpt lat="40.93009000" lon="-2.94120400">
        <ele>804.00000</ele>
        <time>2010-01-01T01:57:08Z</time>
      </trkpt>
      <trkpt lat="40.92998500" lon="-2.94116100">
        <ele>804.00000</ele>
        <time>2010-01-01T01:57:13Z</time>
      </trkpt>
      <trkpt lat="40.92987700" lon="-2.94112600">
        <ele>804.00000</ele>
        <time>2010-01-01T01:57:17Z</time>
      </trkpt>
      <trkpt lat="40.92976200" lon="-2.94110000">
        <ele>804.00000</ele>
        <time>2010-01-01T01:57:22Z</time>
      </trkpt>
      <trkpt lat="40.92964500" lon="-2.94107800">
        <ele>803.00000</ele>
        <time>2010-01-01T01:57:27Z</time>
      </trkpt>
      <trkpt lat="40.92952900" lon="-2.94106000">
        <ele>801.00000</ele>
        <time>2010-01-01T01:57:31Z</time>
      </trkpt>
      <trkpt lat="40.92941100" lon="-2.94104500">
        <ele>800.00000</ele>
        <time>2010-01-01T01:57:36Z</time>
      </trkpt>
      <trkpt lat="40.92930300" lon="-2.94100900">
        <ele>798.00000</ele>
        <time>2010-01-01T01:57:40Z</time>
      </trkpt>
      <trkpt lat="40.92919700" lon="-2.94095300">
        <ele>796.00000</ele>
        <time>2010-01-01T01:57:45Z</time>
      </trkpt>
      <trkpt lat="40.92912400" lon="-2.94086400">
        <ele>795.00000</ele>
        <time>2010-01-01T01:57:49Z</time>
      </trkpt>
      <trkpt lat="40.92907800" lon="-2.94074400">
        <ele>794.00000</ele>
        <time>2010-01-01T01:57:53Z</time>
      </trkpt>
      <trkpt lat="40.92904200" lon="-2.94060400">
        <ele>794.00000</ele>
        <time>2010-01-01T01:57:58Z</time>
      </trkpt>
      <trkpt lat="40.92901700" lon="-2.94045000">
        <ele>793.00000</ele>
        <time>2010-01-01T01:58:02Z</time>
      </trkpt>
      <trkpt lat="40.92899800" lon="-2.94029500">
        <ele>793.00000</ele>
        <time>2010-01-01T01:58:07Z</time>
      </trkpt>
      <trkpt lat="40.92899500" lon="-2.94015200">
        <ele>793.00000</ele>
        <time>2010-01-01T01:58:11Z</time>
      </trkpt>
      <trkpt lat="40.92900700" lon="-2.94001200">
        <ele>792.00000</ele>
        <time>2010-01-01T01:58:16Z</time>
      </trkpt>
      <trkpt lat="40.92902900" lon="-2.93987200">
        <ele>792.00000</ele>
        <time>2010-01-01T01:58:20Z</time>
      </trkpt>
      <trkpt lat="40.92907700" lon="-2.93973000">
        <ele>791.00000</ele>
        <time>2010-01-01T01:58:25Z</time>
      </trkpt>
      <trkpt lat="40.92913400" lon="-2.93959300">
        <ele>790.00000</ele>
        <time>2010-01-01T01:58:29Z</time>
      </trkpt>
      <trkpt lat="40.92919600" lon="-2.93946500">
        <ele>790.00000</ele>
        <time>2010-01-01T01:58:34Z</time>
      </trkpt>
      <trkpt lat="40.92926200" lon="-2.93935300">
        <ele>790.00000</ele>
        <time>2010-01-01T01:58:38Z</time>
      </trkpt>
      <trkpt lat="40.92940900" lon="-2.93918200">
        <ele>791.00000</ele>
        <time>2010-01-01T01:58:46Z</time>
      </trkpt>
      <trkpt lat="40.92950600" lon="-2.93902400">
        <ele>792.00000</ele>
        <time>2010-01-01T01:58:52Z</time>
      </trkpt>
      <trkpt lat="40.92951100" lon="-2.93882300">
        <ele>792.00000</ele>
        <time>2010-01-01T01:58:58Z</time>
      </trkpt>
      <trkpt lat="40.92948300" lon="-2.93870400">
        <ele>791.00000</ele>
        <time>2010-01-01T01:59:02Z</time>
      </trkpt>
      <trkpt lat="40.92944400" lon="-2.93858200">
        <ele>789.00000</ele>
        <time>2010-01-01T01:59:06Z</time>
      </trkpt>
      <trkpt lat="40.92939900" lon="-2.93845100">
        <ele>789.00000</ele>
        <time>2010-01-01T01:59:10Z</time>
      </trkpt>
      <trkpt lat="40.92934800" lon="-2.93832800">
        <ele>788.00000</ele>
        <time>2010-01-01T01:59:15Z</time>
      </trkpt>
      <trkpt lat="40.92930000" lon="-2.93820200">
        <ele>788.00000</ele>
        <time>2010-01-01T01:59:19Z</time>
      </trkpt>
      <trkpt lat="40.92925400" lon="-2.93807500">
        <ele>789.00000</ele>
        <time>2010-01-01T01:59:23Z</time>
      </trkpt>
      <trkpt lat="40.92921200" lon="-2.93795000">
        <ele>790.00000</ele>
        <time>2010-01-01T01:59:27Z</time>
      </trkpt>
      <trkpt lat="40.92917100" lon="-2.93782200">
        <ele>791.00000</ele>
        <time>2010-01-01T01:59:32Z</time>
      </trkpt>
      <trkpt lat="40.92912700" lon="-2.93769700">
        <ele>792.00000</ele>
        <time>2010-01-01T01:59:36Z</time>
      </trkpt>
      <trkpt lat="40.92908100" lon="-2.93757100">
        <ele>792.00000</ele>
        <time>2010-01-01T01:59:40Z</time>
      </trkpt>
      <trkpt lat="40.92903600" lon="-2.93744200">
        <ele>792.00000</ele>
        <time>2010-01-01T01:59:44Z</time>
      </trkpt>
      <trkpt lat="40.92898900" lon="-2.93731000">
        <ele>792.00000</ele>
        <time>2010-01-01T01:59:49Z</time>
      </trkpt>
      <trkpt lat="40.92894500" lon="-2.93717900">
        <ele>792.00000</ele>
        <time>2010-01-01T01:59:53Z</time>
      </trkpt>
      <trkpt lat="40.92890100" lon="-2.93705000">
        <ele>792.00000</ele>
        <time>2010-01-01T01:59:57Z</time>
      </trkpt>
      <trkpt lat="40.92885700" lon="-2.93692800">
        <ele>792.00000</ele>
        <time>2010-01-01T02:00:01Z</time>
      </trkpt>
      <trkpt lat="40.92881700" lon="-2.93681100">
        <ele>792.00000</ele>
        <time>2010-01-01T02:00:05Z</time>
      </trkpt>
      <trkpt lat="40.92878100" lon="-2.93669600">
        <ele>792.00000</ele>
        <time>2010-01-01T02:00:09Z</time>
      </trkpt>
      <trkpt lat="40.92870300" lon="-2.93648800">
        <ele>793.00000</ele>
        <time>2010-01-01T02:00:16Z</time>
      </trkpt>
      <trkpt lat="40.92863400" lon="-2.93631900">
        <ele>793.00000</ele>
        <time>2010-01-01T02:00:22Z</time>
      </trkpt>
      <trkpt lat="40.92858300" lon="-2.93617800">
        <ele>793.00000</ele>
        <time>2010-01-01T02:00:27Z</time>
      </trkpt>
      <trkpt lat="40.92853500" lon="-2.93606600">
        <ele>794.00000</ele>
        <time>2010-01-01T02:00:31Z</time>
      </trkpt>
      <trkpt lat="40.92846600" lon="-2.93592900">
        <ele>794.00000</ele>
        <time>2010-01-01T02:00:35Z</time>
      </trkpt>
      <trkpt lat="40.92840900" lon="-2.93582400">
        <ele>794.00000</ele>
        <time>2010-01-01T02:00:39Z</time>
      </trkpt>
      <trkpt lat="40.92832000" lon="-2.93569400">
        <ele>794.00000</ele>
        <time>2010-01-01T02:00:45Z</time>
      </trkpt>
      <trkpt lat="40.92822400" lon="-2.93552400">
        <ele>795.00000</ele>
        <time>2010-01-01T02:00:51Z</time>
      </trkpt>
      <trkpt lat="40.92816800" lon="-2.93542400">
        <ele>795.00000</ele>
        <time>2010-01-01T02:00:55Z</time>
      </trkpt>
      <trkpt lat="40.92812400" lon="-2.93531100">
        <ele>795.00000</ele>
        <time>2010-01-01T02:00:59Z</time>
      </trkpt>
      <trkpt lat="40.92808600" lon="-2.93518800">
        <ele>795.00000</ele>
        <time>2010-01-01T02:01:03Z</time>
      </trkpt>
      <trkpt lat="40.92804200" lon="-2.93506500">
        <ele>796.00000</ele>
        <time>2010-01-01T02:01:07Z</time>
      </trkpt>
      <trkpt lat="40.92801100" lon="-2.93493600">
        <ele>797.00000</ele>
        <time>2010-01-01T02:01:11Z</time>
      </trkpt>
      <trkpt lat="40.92798700" lon="-2.93480900">
        <ele>798.00000</ele>
        <time>2010-01-01T02:01:15Z</time>
      </trkpt>
      <trkpt lat="40.92796100" lon="-2.93468600">
        <ele>799.00000</ele>
        <time>2010-01-01T02:01:19Z</time>
      </trkpt>
      <trkpt lat="40.92793100" lon="-2.93456600">
        <ele>800.00000</ele>
        <time>2010-01-01T02:01:23Z</time>
      </trkpt>
      <trkpt lat="40.92789800" lon="-2.93444300">
        <ele>801.00000</ele>
        <time>2010-01-01T02:01:27Z</time>
      </trkpt>
      <trkpt lat="40.92786900" lon="-2.93431500">
        <ele>802.00000</ele>
        <time>2010-01-01T02:01:31Z</time>
      </trkpt>
      <trkpt lat="40.92784000" lon="-2.93418600">
        <ele>803.00000</ele>
        <time>2010-01-01T02:01:35Z</time>
      </trkpt>
      <trkpt lat="40.92781200" lon="-2.93405900">
        <ele>803.00000</ele>
        <time>2010-01-01T02:01:39Z</time>
      </trkpt>
      <trkpt lat="40.92778400" lon="-2.93393200">
        <ele>803.00000</ele>
        <time>2010-01-01T02:01:43Z</time>
      </trkpt>
      <trkpt lat="40.92775800" lon="-2.93381000">
        <ele>802.00000</ele>
        <time>2010-01-01T02:01:47Z</time>
      </trkpt>
      <trkpt lat="40.92770600" lon="-2.93356100">
        <ele>802.00000</ele>
        <time>2010-01-01T02:01:54Z</time>
      </trkpt>
      <trkpt lat="40.92768000" lon="-2.93344400">
        <ele>803.00000</ele>
        <time>2010-01-01T02:01:58Z</time>
      </trkpt>
      <trkpt lat="40.92764800" lon="-2.93332800">
        <ele>803.00000</ele>
        <time>2010-01-01T02:02:02Z</time>
      </trkpt>
      <trkpt lat="40.92761500" lon="-2.93321700">
        <ele>804.00000</ele>
        <time>2010-01-01T02:02:05Z</time>
      </trkpt>
      <trkpt lat="40.92756700" lon="-2.93310900">
        <ele>805.00000</ele>
        <time>2010-01-01T02:02:09Z</time>
      </trkpt>
      <trkpt lat="40.92752500" lon="-2.93300000">
        <ele>805.00000</ele>
        <time>2010-01-01T02:02:13Z</time>
      </trkpt>
      <trkpt lat="40.92746300" lon="-2.93278900">
        <ele>805.00000</ele>
        <time>2010-01-01T02:02:20Z</time>
      </trkpt>
      <trkpt lat="40.92743200" lon="-2.93257800">
        <ele>807.00000</ele>
        <time>2010-01-01T02:02:26Z</time>
      </trkpt>
      <trkpt lat="40.92739500" lon="-2.93246300">
        <ele>807.00000</ele>
        <time>2010-01-01T02:02:30Z</time>
      </trkpt>
      <trkpt lat="40.92735700" lon="-2.93234700">
        <ele>808.00000</ele>
        <time>2010-01-01T02:02:34Z</time>
      </trkpt>
      <trkpt lat="40.92730800" lon="-2.93223200">
        <ele>808.00000</ele>
        <time>2010-01-01T02:02:38Z</time>
      </trkpt>
      <trkpt lat="40.92723000" lon="-2.93199700">
        <ele>808.00000</ele>
        <time>2010-01-01T02:02:46Z</time>
      </trkpt>
      <trkpt lat="40.92716000" lon="-2.93178100">
        <ele>809.00000</ele>
        <time>2010-01-01T02:02:53Z</time>
      </trkpt>
      <trkpt lat="40.92708000" lon="-2.93149800">
        <ele>809.00000</ele>
        <time>2010-01-01T02:03:02Z</time>
      </trkpt>
      <trkpt lat="40.92705200" lon="-2.93132100">
        <ele>808.00000</ele>
        <time>2010-01-01T02:03:07Z</time>
      </trkpt>
      <trkpt lat="40.92702300" lon="-2.93113800">
        <ele>808.00000</ele>
        <time>2010-01-01T02:03:13Z</time>
      </trkpt>
      <trkpt lat="40.92698400" lon="-2.93095400">
        <ele>808.00000</ele>
        <time>2010-01-01T02:03:19Z</time>
      </trkpt>
      <trkpt lat="40.92695600" lon="-2.93076500">
        <ele>808.00000</ele>
        <time>2010-01-01T02:03:25Z</time>
      </trkpt>
      <trkpt lat="40.92693800" lon="-2.93057200">
        <ele>809.00000</ele>
        <time>2010-01-01T02:03:30Z</time>
      </trkpt>
      <trkpt lat="40.92690900" lon="-2.93036300">
        <ele>810.00000</ele>
        <time>2010-01-01T02:03:37Z</time>
      </trkpt>
      <trkpt lat="40.92688300" lon="-2.93014900">
        <ele>810.00000</ele>
        <time>2010-01-01T02:03:43Z</time>
      </trkpt>
      <trkpt lat="40.92684500" lon="-2.92993200">
        <ele>810.00000</ele>
        <time>2010-01-01T02:03:50Z</time>
      </trkpt>
      <trkpt lat="40.92682000" lon="-2.92970800">
        <ele>810.00000</ele>
        <time>2010-01-01T02:03:57Z</time>
      </trkpt>
      <trkpt lat="40.92680800" lon="-2.92958800">
        <ele>811.00000</ele>
        <time>2010-01-01T02:04:01Z</time>
      </trkpt>
      <trkpt lat="40.92679500" lon="-2.92946200">
        <ele>811.00000</ele>
        <time>2010-01-01T02:04:04Z</time>
      </trkpt>
      <trkpt lat="40.92678100" lon="-2.92933600">
        <ele>812.00000</ele>
        <time>2010-01-01T02:04:08Z</time>
      </trkpt>
      <trkpt lat="40.92677100" lon="-2.92920900">
        <ele>813.00000</ele>
        <time>2010-01-01T02:04:12Z</time>
      </trkpt>
      <trkpt lat="40.92676500" lon="-2.92908000">
        <ele>814.00000</ele>
        <time>2010-01-01T02:04:16Z</time>
      </trkpt>
      <trkpt lat="40.92675700" lon="-2.92894500">
        <ele>814.00000</ele>
        <time>2010-01-01T02:04:20Z</time>
      </trkpt>
      <trkpt lat="40.92675000" lon="-2.92881100">
        <ele>815.00000</ele>
        <time>2010-01-01T02:04:24Z</time>
      </trkpt>
      <trkpt lat="40.92674200" lon="-2.92866700">
        <ele>815.00000</ele>
        <time>2010-01-01T02:04:29Z</time>
      </trkpt>
      <trkpt lat="40.92673200" lon="-2.92850100">
        <ele>816.00000</ele>
        <time>2010-01-01T02:04:34Z</time>
      </trkpt>
      <trkpt lat="40.92671100" lon="-2.92837200">
        <ele>816.00000</ele>
        <time>2010-01-01T02:04:38Z</time>
      </trkpt>
      <trkpt lat="40.92668800" lon="-2.92825400">
        <ele>816.00000</ele>
        <time>2010-01-01T02:04:41Z</time>
      </trkpt>
      <trkpt lat="40.92662300" lon="-2.92803300">
        <ele>816.00000</ele>
        <time>2010-01-01T02:04:49Z</time>
      </trkpt>
      <trkpt lat="40.92658800" lon="-2.92791500">
        <ele>816.00000</ele>
        <time>2010-01-01T02:04:52Z</time>
      </trkpt>
      <trkpt lat="40.92655200" lon="-2.92779300">
        <ele>816.00000</ele>
        <time>2010-01-01T02:04:56Z</time>
      </trkpt>
      <trkpt lat="40.92651200" lon="-2.92766700">
        <ele>817.00000</ele>
        <time>2010-01-01T02:05:00Z</time>
      </trkpt>
      <trkpt lat="40.92644100" lon="-2.92742900">
        <ele>819.00000</ele>
        <time>2010-01-01T02:05:08Z</time>
      </trkpt>
      <trkpt lat="40.92634900" lon="-2.92723500">
        <ele>820.00000</ele>
        <time>2010-01-01T02:05:15Z</time>
      </trkpt>
      <trkpt lat="40.92626500" lon="-2.92709600">
        <ele>820.00000</ele>
        <time>2010-01-01T02:05:20Z</time>
      </trkpt>
      <trkpt lat="40.92616500" lon="-2.92698400">
        <ele>821.00000</ele>
        <time>2010-01-01T02:05:26Z</time>
      </trkpt>
      <trkpt lat="40.92608200" lon="-2.92706700">
        <ele>820.00000</ele>
        <time>2010-01-01T02:05:30Z</time>
      </trkpt>
      <trkpt lat="40.92602700" lon="-2.92716900">
        <ele>819.00000</ele>
        <time>2010-01-01T02:05:34Z</time>
      </trkpt>
      <trkpt lat="40.92596000" lon="-2.92729400">
        <ele>818.00000</ele>
        <time>2010-01-01T02:05:38Z</time>
      </trkpt>
      <trkpt lat="40.92588400" lon="-2.92743600">
        <ele>816.00000</ele>
        <time>2010-01-01T02:05:44Z</time>
      </trkpt>
      <trkpt lat="40.92581400" lon="-2.92757600">
        <ele>816.00000</ele>
        <time>2010-01-01T02:05:49Z</time>
      </trkpt>
      <trkpt lat="40.92574600" lon="-2.92772200">
        <ele>816.00000</ele>
        <time>2010-01-01T02:05:54Z</time>
      </trkpt>
      <trkpt lat="40.92567000" lon="-2.92788200">
        <ele>816.00000</ele>
        <time>2010-01-01T02:06:00Z</time>
      </trkpt>
      <trkpt lat="40.92561400" lon="-2.92801500">
        <ele>816.00000</ele>
        <time>2010-01-01T02:06:04Z</time>
      </trkpt>
      <trkpt lat="40.92554400" lon="-2.92813400">
        <ele>816.00000</ele>
        <time>2010-01-01T02:06:09Z</time>
      </trkpt>
      <trkpt lat="40.92549500" lon="-2.92824200">
        <ele>816.00000</ele>
        <time>2010-01-01T02:06:13Z</time>
      </trkpt>
      <trkpt lat="40.92545000" lon="-2.92837400">
        <ele>816.00000</ele>
        <time>2010-01-01T02:06:17Z</time>
      </trkpt>
      <trkpt lat="40.92539100" lon="-2.92846600">
        <ele>816.00000</ele>
        <time>2010-01-01T02:06:21Z</time>
      </trkpt>
      <trkpt lat="40.92543600" lon="-2.92856400">
        <ele>816.00000</ele>
        <time>2010-01-01T02:06:24Z</time>
      </trkpt>
      <trkpt lat="40.928697" lon="-2.917784">
        <ele>873.921</ele>
        <time>2017-12-09T17:08:47Z</time>
      </trkpt>
      <trkpt lat="40.928637" lon="-2.917842">
        <ele>874.141</ele>
        <time>2017-12-09T17:08:50Z</time>
      </trkpt>
      <trkpt lat="40.928563" lon="-2.917826">
        <ele>874.205</ele>
        <time>2017-12-09T17:08:52Z</time>
      </trkpt>
      <trkpt lat="40.928503" lon="-2.917756">
        <ele>874.808</ele>
        <time>2017-12-09T17:08:54Z</time>
      </trkpt>
      <trkpt lat="40.928471" lon="-2.917706">
        <ele>875.854</ele>
        <time>2017-12-09T17:08:55Z</time>
      </trkpt>
      <trkpt lat="40.928433" lon="-2.917653">
        <ele>876.193</ele>
        <time>2017-12-09T17:08:56Z</time>
      </trkpt>
      <trkpt lat="40.928391" lon="-2.917587">
        <ele>876.636</ele>
        <time>2017-12-09T17:08:57Z</time>
      </trkpt>
      <trkpt lat="40.928353" lon="-2.917522">
        <ele>877.057</ele>
        <time>2017-12-09T17:08:58Z</time>
      </trkpt>
      <trkpt lat="40.928310" lon="-2.917465">
        <ele>878.061</ele>
        <time>2017-12-09T17:08:59Z</time>
      </trkpt>
      <trkpt lat="40.928263" lon="-2.917397">
        <ele>878.982</ele>
        <time>2017-12-09T17:09:00Z</time>
      </trkpt>
      <trkpt lat="40.928204" lon="-2.917330">
        <ele>878.978</ele>
        <time>2017-12-09T17:09:01Z</time>
      </trkpt>
      <trkpt lat="40.928128" lon="-2.917269">
        <ele>879.681</ele>
        <time>2017-12-09T17:09:02Z</time>
      </trkpt>
      <trkpt lat="40.928058" lon="-2.917198">
        <ele>880.077</ele>
        <time>2017-12-09T17:09:03Z</time>
      </trkpt>
      <trkpt lat="40.927987" lon="-2.917126">
        <ele>880.761</ele>
        <time>2017-12-09T17:09:04Z</time>
      </trkpt>
      <trkpt lat="40.927907" lon="-2.917049">
        <ele>881.427</ele>
        <time>2017-12-09T17:09:05Z</time>
      </trkpt>
      <trkpt lat="40.927836" lon="-2.916986">
        <ele>882.108</ele>
        <time>2017-12-09T17:09:06Z</time>
      </trkpt>
      <trkpt lat="40.927769" lon="-2.916916">
        <ele>882.569</ele>
        <time>2017-12-09T17:09:07Z</time>
      </trkpt>
      <trkpt lat="40.927694" lon="-2.916839">
        <ele>882.938</ele>
        <time>2017-12-09T17:09:08Z</time>
      </trkpt>
      <trkpt lat="40.927626" lon="-2.916744">
        <ele>883.081</ele>
        <time>2017-12-09T17:09:09Z</time>
      </trkpt>
      <trkpt lat="40.927552" lon="-2.916666">
        <ele>883.482</ele>
        <time>2017-12-09T17:09:10Z</time>
      </trkpt>
      <trkpt lat="40.927478" lon="-2.916602">
        <ele>884.376</ele>
        <time>2017-12-09T17:09:11Z</time>
      </trkpt>
      <trkpt lat="40.927409" lon="-2.916528">
        <ele>884.867</ele>
        <time>2017-12-09T17:09:12Z</time>
      </trkpt>
      <trkpt lat="40.927340" lon="-2.916475">
        <ele>885.553</ele>
        <time>2017-12-09T17:09:13Z</time>
      </trkpt>
      <trkpt lat="40.927265" lon="-2.916418">
        <ele>886.126</ele>
        <time>2017-12-09T17:09:14Z</time>
      </trkpt>
      <trkpt lat="40.927189" lon="-2.916388">
        <ele>887.088</ele>
        <time>2017-12-09T17:09:15Z</time>
      </trkpt>
      <trkpt lat="40.927106" lon="-2.916356">
        <ele>887.024</ele>
        <time>2017-12-09T17:09:16Z</time>
      </trkpt>
      <trkpt lat="40.927021" lon="-2.916320">
        <ele>887.426</ele>
        <time>2017-12-09T17:09:17Z</time>
      </trkpt>
      <trkpt lat="40.926946" lon="-2.916258">
        <ele>888.608</ele>
        <time>2017-12-09T17:09:18Z</time>
      </trkpt>
      <trkpt lat="40.926873" lon="-2.916177">
        <ele>889.610</ele>
        <time>2017-12-09T17:09:19Z</time>
      </trkpt>
      <trkpt lat="40.926803" lon="-2.916083">
        <ele>890.039</ele>
        <time>2017-12-09T17:09:20Z</time>
      </trkpt>
      <trkpt lat="40.926741" lon="-2.915994">
        <ele>890.482</ele>
        <time>2017-12-09T17:09:21Z</time>
      </trkpt>
      <trkpt lat="40.926682" lon="-2.915900">
        <ele>890.963</ele>
        <time>2017-12-09T17:09:22Z</time>
      </trkpt>
      <trkpt lat="40.926628" lon="-2.915793">
        <ele>891.967</ele>
        <time>2017-12-09T17:09:23Z</time>
      </trkpt>
      <trkpt lat="40.926559" lon="-2.915694">
        <ele>892.438</ele>
        <time>2017-12-09T17:09:24Z</time>
      </trkpt>
      <trkpt lat="40.926501" lon="-2.915593">
        <ele>893.224</ele>
        <time>2017-12-09T17:09:25Z</time>
      </trkpt>
      <trkpt lat="40.926439" lon="-2.915499">
        <ele>894.097</ele>
        <time>2017-12-09T17:09:26Z</time>
      </trkpt>
      <trkpt lat="40.926373" lon="-2.915400">
        <ele>895.031</ele>
        <time>2017-12-09T17:09:27Z</time>
      </trkpt>
      <trkpt lat="40.926306" lon="-2.915305">
        <ele>895.061</ele>
        <time>2017-12-09T17:09:28Z</time>
      </trkpt>
      <trkpt lat="40.926234" lon="-2.915210">
        <ele>895.407</ele>
        <time>2017-12-09T17:09:29Z</time>
      </trkpt>
      <trkpt lat="40.926163" lon="-2.915112">
        <ele>895.808</ele>
        <time>2017-12-09T17:09:30Z</time>
      </trkpt>
      <trkpt lat="40.926092" lon="-2.915007">
        <ele>896.655</ele>
        <time>2017-12-09T17:09:31Z</time>
      </trkpt>
      <trkpt lat="40.926027" lon="-2.914899">
        <ele>897.094</ele>
        <time>2017-12-09T17:09:32Z</time>
      </trkpt>
      <trkpt lat="40.925959" lon="-2.914791">
        <ele>897.927</ele>
        <time>2017-12-09T17:09:33Z</time>
      </trkpt>
      <trkpt lat="40.925891" lon="-2.914683">
        <ele>898.568</ele>
        <time>2017-12-09T17:09:34Z</time>
      </trkpt>
      <trkpt lat="40.925833" lon="-2.914582">
        <ele>899.062</ele>
        <time>2017-12-09T17:09:35Z</time>
      </trkpt>
      <trkpt lat="40.925780" lon="-2.914487">
        <ele>899.343</ele>
        <time>2017-12-09T17:09:36Z</time>
      </trkpt>
      <trkpt lat="40.925731" lon="-2.914384">
        <ele>899.659</ele>
        <time>2017-12-09T17:09:37Z</time>
      </trkpt>
      <trkpt lat="40.925679" lon="-2.914280">
        <ele>900.212</ele>
        <time>2017-12-09T17:09:38Z</time>
      </trkpt>
      <trkpt lat="40.925625" lon="-2.914181">
        <ele>900.932</ele>
        <time>2017-12-09T17:09:39Z</time>
      </trkpt>
      <trkpt lat="40.925574" lon="-2.914072">
        <ele>902.092</ele>
        <time>2017-12-09T17:09:40Z</time>
      </trkpt>
      <trkpt lat="40.925516" lon="-2.913970">
        <ele>903.211</ele>
        <time>2017-12-09T17:09:41Z</time>
      </trkpt>
      <trkpt lat="40.925461" lon="-2.913867">
        <ele>904.108</ele>
        <time>2017-12-09T17:09:42Z</time>
      </trkpt>
      <trkpt lat="40.925403" lon="-2.913750">
        <ele>905.655</ele>
        <time>2017-12-09T17:09:43Z</time>
      </trkpt>
      <trkpt lat="40.925358" lon="-2.913634">
        <ele>906.584</ele>
        <time>2017-12-09T17:09:44Z</time>
      </trkpt>
      <trkpt lat="40.925322" lon="-2.913509">
        <ele>907.627</ele>
        <time>2017-12-09T17:09:45Z</time>
      </trkpt>
      <trkpt lat="40.925290" lon="-2.913376">
        <ele>909.258</ele>
        <time>2017-12-09T17:09:46Z</time>
      </trkpt>
      <trkpt lat="40.925252" lon="-2.913249">
        <ele>911.012</ele>
        <time>2017-12-09T17:09:47Z</time>
      </trkpt>
      <trkpt lat="40.925215" lon="-2.913114">
        <ele>912.283</ele>
        <time>2017-12-09T17:09:48Z</time>
      </trkpt>
      <trkpt lat="40.925185" lon="-2.912969">
        <ele>913.549</ele>
        <time>2017-12-09T17:09:49Z</time>
      </trkpt>
      <trkpt lat="40.925157" lon="-2.912820">
        <ele>914.422</ele>
        <time>2017-12-09T17:09:50Z</time>
      </trkpt>
      <trkpt lat="40.925136" lon="-2.912668">
        <ele>915.994</ele>
        <time>2017-12-09T17:09:51Z</time>
      </trkpt>
      <trkpt lat="40.925105" lon="-2.912527">
        <ele>917.557</ele>
        <time>2017-12-09T17:09:52Z</time>
      </trkpt>
      <trkpt lat="40.925089" lon="-2.912387">
        <ele>918.722</ele>
        <time>2017-12-09T17:09:53Z</time>
      </trkpt>
      <trkpt lat="40.925063" lon="-2.912245">
        <ele>918.708</ele>
        <time>2017-12-09T17:09:54Z</time>
      </trkpt>
      <trkpt lat="40.925035" lon="-2.912105">
        <ele>920.881</ele>
        <time>2017-12-09T17:09:55Z</time>
      </trkpt>
      <trkpt lat="40.925005" lon="-2.911967">
        <ele>922.790</ele>
        <time>2017-12-09T17:09:56Z</time>
      </trkpt>
      <trkpt lat="40.924975" lon="-2.911832">
        <ele>924.553</ele>
        <time>2017-12-09T17:09:57Z</time>
      </trkpt>
      <trkpt lat="40.924937" lon="-2.911700">
        <ele>926.334</ele>
        <time>2017-12-09T17:09:58Z</time>
      </trkpt>
      <trkpt lat="40.924886" lon="-2.911591">
        <ele>928.098</ele>
        <time>2017-12-09T17:09:59Z</time>
      </trkpt>
      <trkpt lat="40.924832" lon="-2.911479">
        <ele>929.769</ele>
        <time>2017-12-09T17:10:00Z</time>
      </trkpt>
      <trkpt lat="40.924781" lon="-2.911357">
        <ele>931.315</ele>
        <time>2017-12-09T17:10:01Z</time>
      </trkpt>
      <trkpt lat="40.924742" lon="-2.911240">
        <ele>932.448</ele>
        <time>2017-12-09T17:10:02Z</time>
      </trkpt>
      <trkpt lat="40.924715" lon="-2.911112">
        <ele>934.774</ele>
        <time>2017-12-09T17:10:03Z</time>
      </trkpt>
      <trkpt lat="40.924709" lon="-2.910972">
        <ele>936.456</ele>
        <time>2017-12-09T17:10:04Z</time>
      </trkpt>
      <trkpt lat="40.924706" lon="-2.910861">
        <ele>938.021</ele>
        <time>2017-12-09T17:10:05Z</time>
      </trkpt>
      <trkpt lat="40.924695" lon="-2.910749">
        <ele>939.008</ele>
        <time>2017-12-09T17:10:06Z</time>
      </trkpt>
      <trkpt lat="40.924684" lon="-2.910670">
        <ele>940.189</ele>
        <time>2017-12-09T17:10:07Z</time>
      </trkpt>
      <trkpt lat="40.924690" lon="-2.910607">
        <ele>940.558</ele>
        <time>2017-12-09T17:10:08Z</time>
      </trkpt>
      <trkpt lat="40.924747" lon="-2.910521">
        <ele>942.121</ele>
        <time>2017-12-09T17:10:10Z</time>
      </trkpt>
      <trkpt lat="40.924799" lon="-2.910499">
        <ele>942.952</ele>
        <time>2017-12-09T17:10:11Z</time>
      </trkpt>
      <trkpt lat="40.924850" lon="-2.910507">
        <ele>943.496</ele>
        <time>2017-12-09T17:10:12Z</time>
      </trkpt>
      <trkpt lat="40.924897" lon="-2.910550">
        <ele>944.037</ele>
        <time>2017-12-09T17:10:13Z</time>
      </trkpt>
      <trkpt lat="40.924953" lon="-2.910602">
        <ele>944.713</ele>
        <time>2017-12-09T17:10:14Z</time>
      </trkpt>
      <trkpt lat="40.925010" lon="-2.910647">
        <ele>945.316</ele>
        <time>2017-12-09T17:10:15Z</time>
      </trkpt>
      <trkpt lat="40.925070" lon="-2.910690">
        <ele>945.711</ele>
        <time>2017-12-09T17:10:16Z</time>
      </trkpt>
      <trkpt lat="40.925142" lon="-2.910719">
        <ele>946.621</ele>
        <time>2017-12-09T17:10:17Z</time>
      </trkpt>
      <trkpt lat="40.925206" lon="-2.910747">
        <ele>946.703</ele>
        <time>2017-12-09T17:10:18Z</time>
      </trkpt>
      <trkpt lat="40.925276" lon="-2.910758">
        <ele>947.008</ele>
        <time>2017-12-09T17:10:19Z</time>
      </trkpt>
      <trkpt lat="40.925345" lon="-2.910758">
        <ele>947.093</ele>
        <time>2017-12-09T17:10:20Z</time>
      </trkpt>
      <trkpt lat="40.925409" lon="-2.910760">
        <ele>947.582</ele>
        <time>2017-12-09T17:10:21Z</time>
      </trkpt>
      <trkpt lat="40.925481" lon="-2.910760">
        <ele>948.145</ele>
        <time>2017-12-09T17:10:22Z</time>
      </trkpt>
      <trkpt lat="40.925549" lon="-2.910753">
        <ele>949.666</ele>
        <time>2017-12-09T17:10:23Z</time>
      </trkpt>
      <trkpt lat="40.925608" lon="-2.910741">
        <ele>949.850</ele>
        <time>2017-12-09T17:10:24Z</time>
      </trkpt>
      <trkpt lat="40.925676" lon="-2.910729">
        <ele>951.051</ele>
        <time>2017-12-09T17:10:25Z</time>
      </trkpt>
      <trkpt lat="40.925750" lon="-2.910700">
        <ele>952.017</ele>
        <time>2017-12-09T17:10:26Z</time>
      </trkpt>
      <trkpt lat="40.925812" lon="-2.910670">
        <ele>952.780</ele>
        <time>2017-12-09T17:10:27Z</time>
      </trkpt>
      <trkpt lat="40.925878" lon="-2.910635">
        <ele>953.483</ele>
        <time>2017-12-09T17:10:28Z</time>
      </trkpt>
      <trkpt lat="40.925946" lon="-2.910606">
        <ele>954.525</ele>
        <time>2017-12-09T17:10:29Z</time>
      </trkpt>
      <trkpt lat="40.926016" lon="-2.910565">
        <ele>955.617</ele>
        <time>2017-12-09T17:10:30Z</time>
      </trkpt>
      <trkpt lat="40.926086" lon="-2.910533">
        <ele>956.608</ele>
        <time>2017-12-09T17:10:31Z</time>
      </trkpt>
      <trkpt lat="40.926155" lon="-2.910498">
        <ele>956.980</ele>
        <time>2017-12-09T17:10:32Z</time>
      </trkpt>
      <trkpt lat="40.926218" lon="-2.910463">
        <ele>957.739</ele>
        <time>2017-12-09T17:10:33Z</time>
      </trkpt>
      <trkpt lat="40.926280" lon="-2.910431">
        <ele>957.992</ele>
        <time>2017-12-09T17:10:34Z</time>
      </trkpt>
      <trkpt lat="40.926348" lon="-2.910410">
        <ele>959.423</ele>
        <time>2017-12-09T17:10:35Z</time>
      </trkpt>
      <trkpt lat="40.926414" lon="-2.910393">
        <ele>960.337</ele>
        <time>2017-12-09T17:10:36Z</time>
      </trkpt>
      <trkpt lat="40.926490" lon="-2.910390">
        <ele>961.518</ele>
        <time>2017-12-09T17:10:37Z</time>
      </trkpt>
      <trkpt lat="40.926573" lon="-2.910383">
        <ele>962.254</ele>
        <time>2017-12-09T17:10:38Z</time>
      </trkpt>
      <trkpt lat="40.926656" lon="-2.910375">
        <ele>963.067</ele>
        <time>2017-12-09T17:10:39Z</time>
      </trkpt>
      <trkpt lat="40.926741" lon="-2.910368">
        <ele>964.091</ele>
        <time>2017-12-09T17:10:40Z</time>
      </trkpt>
      <trkpt lat="40.926819" lon="-2.910358">
        <ele>965.281</ele>
        <time>2017-12-09T17:10:41Z</time>
      </trkpt>
      <trkpt lat="40.926891" lon="-2.910354">
        <ele>966.219</ele>
        <time>2017-12-09T17:10:42Z</time>
      </trkpt>
      <trkpt lat="40.926961" lon="-2.910338">
        <ele>966.508</ele>
        <time>2017-12-09T17:10:43Z</time>
      </trkpt>
      <trkpt lat="40.927030" lon="-2.910310">
        <ele>967.671</ele>
        <time>2017-12-09T17:10:44Z</time>
      </trkpt>
      <trkpt lat="40.927091" lon="-2.910268">
        <ele>968.890</ele>
        <time>2017-12-09T17:10:45Z</time>
      </trkpt>
      <trkpt lat="40.927151" lon="-2.910226">
        <ele>969.353</ele>
        <time>2017-12-09T17:10:46Z</time>
      </trkpt>
      <trkpt lat="40.927212" lon="-2.910174">
        <ele>969.394</ele>
        <time>2017-12-09T17:10:47Z</time>
      </trkpt>
      <trkpt lat="40.927272" lon="-2.910117">
        <ele>970.128</ele>
        <time>2017-12-09T17:10:48Z</time>
      </trkpt>
      <trkpt lat="40.927325" lon="-2.910048">
        <ele>970.359</ele>
        <time>2017-12-09T17:10:49Z</time>
      </trkpt>
      <trkpt lat="40.927368" lon="-2.909968">
        <ele>971.295</ele>
        <time>2017-12-09T17:10:50Z</time>
      </trkpt>
      <trkpt lat="40.927408" lon="-2.909882">
        <ele>971.618</ele>
        <time>2017-12-09T17:10:51Z</time>
      </trkpt>
      <trkpt lat="40.927436" lon="-2.909789">
        <ele>972.885</ele>
        <time>2017-12-09T17:10:52Z</time>
      </trkpt>
      <trkpt lat="40.927475" lon="-2.909690">
        <ele>973.489</ele>
        <time>2017-12-09T17:10:53Z</time>
      </trkpt>
      <trkpt lat="40.927517" lon="-2.909586">
        <ele>974.617</ele>
        <time>2017-12-09T17:10:54Z</time>
      </trkpt>
      <trkpt lat="40.927548" lon="-2.909483">
        <ele>975.708</ele>
        <time>2017-12-09T17:10:55Z</time>
      </trkpt>
      <trkpt lat="40.927574" lon="-2.909384">
        <ele>976.330</ele>
        <time>2017-12-09T17:10:56Z</time>
      </trkpt>
      <trkpt lat="40.927584" lon="-2.909279">
        <ele>977.659</ele>
        <time>2017-12-09T17:10:57Z</time>
      </trkpt>
      <trkpt lat="40.927601" lon="-2.909175">
        <ele>978.622</ele>
        <time>2017-12-09T17:10:58Z</time>
      </trkpt>
      <trkpt lat="40.927616" lon="-2.909074">
        <ele>979.553</ele>
        <time>2017-12-09T17:10:59Z</time>
      </trkpt>
      <trkpt lat="40.927618" lon="-2.908971">
        <ele>980.327</ele>
        <time>2017-12-09T17:11:00Z</time>
      </trkpt>
      <trkpt lat="40.927616" lon="-2.908879">
        <ele>981.488</ele>
        <time>2017-12-09T17:11:01Z</time>
      </trkpt>
      <trkpt lat="40.927587" lon="-2.908791">
        <ele>982.854</ele>
        <time>2017-12-09T17:11:02Z</time>
      </trkpt>
      <trkpt lat="40.927557" lon="-2.908697">
        <ele>983.737</ele>
        <time>2017-12-09T17:11:03Z</time>
      </trkpt>
      <trkpt lat="40.927530" lon="-2.908611">
        <ele>984.748</ele>
        <time>2017-12-09T17:11:04Z</time>
      </trkpt>
      <trkpt lat="40.927488" lon="-2.908529">
        <ele>984.861</ele>
        <time>2017-12-09T17:11:05Z</time>
      </trkpt>
      <trkpt lat="40.927433" lon="-2.908459">
        <ele>985.817</ele>
        <time>2017-12-09T17:11:06Z</time>
      </trkpt>
      <trkpt lat="40.927370" lon="-2.908422">
        <ele>987.608</ele>
        <time>2017-12-09T17:11:07Z</time>
      </trkpt>
      <trkpt lat="40.927297" lon="-2.908399">
        <ele>987.646</ele>
        <time>2017-12-09T17:11:08Z</time>
      </trkpt>
      <trkpt lat="40.927225" lon="-2.908378">
        <ele>988.475</ele>
        <time>2017-12-09T17:11:09Z</time>
      </trkpt>
      <trkpt lat="40.927144" lon="-2.908355">
        <ele>988.768</ele>
        <time>2017-12-09T17:11:10Z</time>
      </trkpt>
      <trkpt lat="40.927050" lon="-2.908328">
        <ele>988.779</ele>
        <time>2017-12-09T17:11:11Z</time>
      </trkpt>
      <trkpt lat="40.926954" lon="-2.908293">
        <ele>988.713</ele>
        <time>2017-12-09T17:11:12Z</time>
      </trkpt>
      <trkpt lat="40.926857" lon="-2.908257">
        <ele>988.794</ele>
        <time>2017-12-09T17:11:13Z</time>
      </trkpt>
      <trkpt lat="40.926757" lon="-2.908219">
        <ele>988.730</ele>
        <time>2017-12-09T17:11:14Z</time>
      </trkpt>
      <trkpt lat="40.926658" lon="-2.908173">
        <ele>988.633</ele>
        <time>2017-12-09T17:11:15Z</time>
      </trkpt>
      <trkpt lat="40.926566" lon="-2.908123">
        <ele>988.357</ele>
        <time>2017-12-09T17:11:16Z</time>
      </trkpt>
      <trkpt lat="40.926478" lon="-2.908099">
        <ele>987.900</ele>
        <time>2017-12-09T17:11:17Z</time>
      </trkpt>
      <trkpt lat="40.926390" lon="-2.908066">
        <ele>987.820</ele>
        <time>2017-12-09T17:11:18Z</time>
      </trkpt>
      <trkpt lat="40.926302" lon="-2.908028">
        <ele>986.708</ele>
        <time>2017-12-09T17:11:19Z</time>
      </trkpt>
      <trkpt lat="40.926213" lon="-2.907988">
        <ele>986.737</ele>
        <time>2017-12-09T17:11:20Z</time>
      </trkpt>
      <trkpt lat="40.926134" lon="-2.907940">
        <ele>986.096</ele>
        <time>2017-12-09T17:11:21Z</time>
      </trkpt>
      <trkpt lat="40.926055" lon="-2.907895">
        <ele>985.989</ele>
        <time>2017-12-09T17:11:22Z</time>
      </trkpt>
      <trkpt lat="40.925978" lon="-2.907867">
        <ele>984.980</ele>
        <time>2017-12-09T17:11:23Z</time>
      </trkpt>
      <trkpt lat="40.925903" lon="-2.907843">
        <ele>984.444</ele>
        <time>2017-12-09T17:11:24Z</time>
      </trkpt>
      <trkpt lat="40.925849" lon="-2.907888">
        <ele>983.545</ele>
        <time>2017-12-09T17:11:25Z</time>
      </trkpt>
      <trkpt lat="40.925798" lon="-2.907923">
        <ele>982.961</ele>
        <time>2017-12-09T17:11:26Z</time>
      </trkpt>
      <trkpt lat="40.925742" lon="-2.907954">
        <ele>982.514</ele>
        <time>2017-12-09T17:11:27Z</time>
      </trkpt>
      <trkpt lat="40.925673" lon="-2.907960">
        <ele>982.295</ele>
        <time>2017-12-09T17:11:28Z</time>
      </trkpt>
      <trkpt lat="40.925623" lon="-2.907892">
        <ele>981.949</ele>
        <time>2017-12-09T17:11:29Z</time>
      </trkpt>
      <trkpt lat="40.925559" lon="-2.907862">
        <ele>981.323</ele>
        <time>2017-12-09T17:11:30Z</time>
      </trkpt>
      <trkpt lat="40.925491" lon="-2.907824">
        <ele>980.708</ele>
        <time>2017-12-09T17:11:31Z</time>
      </trkpt>
      <trkpt lat="40.925414" lon="-2.907790">
        <ele>980.081</ele>
        <time>2017-12-09T17:11:32Z</time>
      </trkpt>
      <trkpt lat="40.925315" lon="-2.907779">
        <ele>979.920</ele>
        <time>2017-12-09T17:11:33Z</time>
      </trkpt>
      <trkpt lat="40.925228" lon="-2.907784">
        <ele>979.593</ele>
        <time>2017-12-09T17:11:34Z</time>
      </trkpt>
      <trkpt lat="40.925130" lon="-2.907790">
        <ele>979.314</ele>
        <time>2017-12-09T17:11:35Z</time>
      </trkpt>
      <trkpt lat="40.925029" lon="-2.907804">
        <ele>979.688</ele>
        <time>2017-12-09T17:11:36Z</time>
      </trkpt>
      <trkpt lat="40.924937" lon="-2.907805">
        <ele>979.569</ele>
        <time>2017-12-09T17:11:37Z</time>
      </trkpt>
      <trkpt lat="40.924847" lon="-2.907805">
        <ele>980.075</ele>
        <time>2017-12-09T17:11:38Z</time>
      </trkpt>
      <trkpt lat="40.924747" lon="-2.907830">
        <ele>980.388</ele>
        <time>2017-12-09T17:11:39Z</time>
      </trkpt>
      <trkpt lat="40.924670" lon="-2.907848">
        <ele>980.336</ele>
        <time>2017-12-09T17:11:40Z</time>
      </trkpt>
      <trkpt lat="40.924593" lon="-2.907868">
        <ele>980.617</ele>
        <time>2017-12-09T17:11:41Z</time>
      </trkpt>
      <trkpt lat="40.924495" lon="-2.907890">
        <ele>981.018</ele>
        <time>2017-12-09T17:11:42Z</time>
      </trkpt>
      <trkpt lat="40.924408" lon="-2.907910">
        <ele>981.308</ele>
        <time>2017-12-09T17:11:43Z</time>
      </trkpt>
      <trkpt lat="40.924325" lon="-2.907933">
        <ele>982.095</ele>
        <time>2017-12-09T17:11:44Z</time>
      </trkpt>
      <trkpt lat="40.924233" lon="-2.907950">
        <ele>982.184</ele>
        <time>2017-12-09T17:11:45Z</time>
      </trkpt>
      <trkpt lat="40.924125" lon="-2.907974">
        <ele>982.697</ele>
        <time>2017-12-09T17:11:46Z</time>
      </trkpt>
      <trkpt lat="40.924026" lon="-2.908002">
        <ele>982.758</ele>
        <time>2017-12-09T17:11:47Z</time>
      </trkpt>
      <trkpt lat="40.923940" lon="-2.908025">
        <ele>982.792</ele>
        <time>2017-12-09T17:11:48Z</time>
      </trkpt>
      <trkpt lat="40.923842" lon="-2.908048">
        <ele>982.813</ele>
        <time>2017-12-09T17:11:49Z</time>
      </trkpt>
      <trkpt lat="40.923754" lon="-2.908073">
        <ele>982.999</ele>
        <time>2017-12-09T17:11:50Z</time>
      </trkpt>
      <trkpt lat="40.923656" lon="-2.908100">
        <ele>982.942</ele>
        <time>2017-12-09T17:11:51Z</time>
      </trkpt>
      <trkpt lat="40.923563" lon="-2.908123">
        <ele>983.567</ele>
        <time>2017-12-09T17:11:52Z</time>
      </trkpt>
      <trkpt lat="40.923468" lon="-2.908144">
        <ele>983.981</ele>
        <time>2017-12-09T17:11:53Z</time>
      </trkpt>
      <trkpt lat="40.923368" lon="-2.908170">
        <ele>984.119</ele>
        <time>2017-12-09T17:11:54Z</time>
      </trkpt>
      <trkpt lat="40.923269" lon="-2.908189">
        <ele>984.008</ele>
        <time>2017-12-09T17:11:55Z</time>
      </trkpt>
      <trkpt lat="40.923164" lon="-2.908208">
        <ele>984.648</ele>
        <time>2017-12-09T17:11:56Z</time>
      </trkpt>
      <trkpt lat="40.923056" lon="-2.908222">
        <ele>985.167</ele>
        <time>2017-12-09T17:11:57Z</time>
      </trkpt>
      <trkpt lat="40.922950" lon="-2.908233">
        <ele>985.180</ele>
        <time>2017-12-09T17:11:58Z</time>
      </trkpt>
      <trkpt lat="40.922843" lon="-2.908241">
        <ele>985.441</ele>
        <time>2017-12-09T17:11:59Z</time>
      </trkpt>
      <trkpt lat="40.922746" lon="-2.908256">
        <ele>986.365</ele>
        <time>2017-12-09T17:12:00Z</time>
      </trkpt>
      <trkpt lat="40.922650" lon="-2.908263">
        <ele>986.396</ele>
        <time>2017-12-09T17:12:01Z</time>
      </trkpt>
      <trkpt lat="40.922530" lon="-2.908272">
        <ele>987.042</ele>
        <time>2017-12-09T17:12:02Z</time>
      </trkpt>
      <trkpt lat="40.922430" lon="-2.908287">
        <ele>987.725</ele>
        <time>2017-12-09T17:12:03Z</time>
      </trkpt>
      <trkpt lat="40.922332" lon="-2.908296">
        <ele>988.374</ele>
        <time>2017-12-09T17:12:04Z</time>
      </trkpt>
      <trkpt lat="40.922239" lon="-2.908293">
        <ele>988.856</ele>
        <time>2017-12-09T17:12:05Z</time>
      </trkpt>
      <trkpt lat="40.922146" lon="-2.908283">
        <ele>988.821</ele>
        <time>2017-12-09T17:12:06Z</time>
      </trkpt>
      <trkpt lat="40.922053" lon="-2.908269">
        <ele>989.808</ele>
        <time>2017-12-09T17:12:07Z</time>
      </trkpt>
      <trkpt lat="40.921960" lon="-2.908255">
        <ele>990.649</ele>
        <time>2017-12-09T17:12:08Z</time>
      </trkpt>
      <trkpt lat="40.921873" lon="-2.908228">
        <ele>991.228</ele>
        <time>2017-12-09T17:12:09Z</time>
      </trkpt>
      <trkpt lat="40.921788" lon="-2.908215">
        <ele>991.881</ele>
        <time>2017-12-09T17:12:10Z</time>
      </trkpt>
      <trkpt lat="40.921710" lon="-2.908213">
        <ele>992.332</ele>
        <time>2017-12-09T17:12:11Z</time>
      </trkpt>
      <trkpt lat="40.921642" lon="-2.908201">
        <ele>993.086</ele>
        <time>2017-12-09T17:12:12Z</time>
      </trkpt>
      <trkpt lat="40.921580" lon="-2.908188">
        <ele>992.637</ele>
        <time>2017-12-09T17:12:13Z</time>
      </trkpt>
      <trkpt lat="40.921529" lon="-2.908165">
        <ele>993.153</ele>
        <time>2017-12-09T17:12:14Z</time>
      </trkpt>
      <trkpt lat="40.921481" lon="-2.908137">
        <ele>994.026</ele>
        <time>2017-12-09T17:12:15Z</time>
      </trkpt>
      <trkpt lat="40.921427" lon="-2.908121">
        <ele>994.863</ele>
        <time>2017-12-09T17:12:16Z</time>
      </trkpt>
      <trkpt lat="40.921374" lon="-2.908119">
        <ele>994.644</ele>
        <time>2017-12-09T17:12:17Z</time>
      </trkpt>
      <trkpt lat="40.921315" lon="-2.908131">
        <ele>995.418</ele>
        <time>2017-12-09T17:12:18Z</time>
      </trkpt>
      <trkpt lat="40.921248" lon="-2.908149">
        <ele>995.208</ele>
        <time>2017-12-09T17:12:19Z</time>
      </trkpt>
      <trkpt lat="40.921177" lon="-2.908156">
        <ele>995.748</ele>
        <time>2017-12-09T17:12:20Z</time>
      </trkpt>
      <trkpt lat="40.921104" lon="-2.908157">
        <ele>996.497</ele>
        <time>2017-12-09T17:12:21Z</time>
      </trkpt>
      <trkpt lat="40.921032" lon="-2.908154">
        <ele>996.340</ele>
        <time>2017-12-09T17:12:22Z</time>
      </trkpt>
      <trkpt lat="40.920965" lon="-2.908160">
        <ele>996.741</ele>
        <time>2017-12-09T17:12:23Z</time>
      </trkpt>
      <trkpt lat="40.920893" lon="-2.908166">
        <ele>997.725</ele>
        <time>2017-12-09T17:12:24Z</time>
      </trkpt>
      <trkpt lat="40.920807" lon="-2.908185">
        <ele>997.886</ele>
        <time>2017-12-09T17:12:25Z</time>
      </trkpt>
      <trkpt lat="40.920736" lon="-2.908207">
        <ele>998.292</ele>
        <time>2017-12-09T17:12:26Z</time>
      </trkpt>
      <trkpt lat="40.920658" lon="-2.908210">
        <ele>998.535</ele>
        <time>2017-12-09T17:12:27Z</time>
      </trkpt>
      <trkpt lat="40.920578" lon="-2.908216">
        <ele>998.718</ele>
        <time>2017-12-09T17:12:28Z</time>
      </trkpt>
      <trkpt lat="40.920479" lon="-2.908238">
        <ele>998.798</ele>
        <time>2017-12-09T17:12:29Z</time>
      </trkpt>
      <trkpt lat="40.920399" lon="-2.908252">
        <ele>999.417</ele>
        <time>2017-12-09T17:12:30Z</time>
      </trkpt>
      <trkpt lat="40.920327" lon="-2.908240">
        <ele>999.708</ele>
        <time>2017-12-09T17:12:31Z</time>
      </trkpt>
      <trkpt lat="40.920257" lon="-2.908237">
        <ele>1000.033</ele>
        <time>2017-12-09T17:12:32Z</time>
      </trkpt>
      <trkpt lat="40.920187" lon="-2.908230">
        <ele>1000.072</ele>
        <time>2017-12-09T17:12:33Z</time>
      </trkpt>
      <trkpt lat="40.920116" lon="-2.908229">
        <ele>1000.855</ele>
        <time>2017-12-09T17:12:34Z</time>
      </trkpt>
      <trkpt lat="40.920037" lon="-2.908215">
        <ele>1000.326</ele>
        <time>2017-12-09T17:12:35Z</time>
      </trkpt>
      <trkpt lat="40.919975" lon="-2.908201">
        <ele>1000.730</ele>
        <time>2017-12-09T17:12:36Z</time>
      </trkpt>
      <trkpt lat="40.919901" lon="-2.908179">
        <ele>1000.621</ele>
        <time>2017-12-09T17:12:37Z</time>
      </trkpt>
      <trkpt lat="40.919838" lon="-2.908156">
        <ele>1001.767</ele>
        <time>2017-12-09T17:12:38Z</time>
      </trkpt>
      <trkpt lat="40.919774" lon="-2.908152">
        <ele>1001.940</ele>
        <time>2017-12-09T17:12:39Z</time>
      </trkpt>
      <trkpt lat="40.919708" lon="-2.908168">
        <ele>1001.869</ele>
        <time>2017-12-09T17:12:40Z</time>
      </trkpt>
      <trkpt lat="40.919641" lon="-2.908182">
        <ele>1002.004</ele>
        <time>2017-12-09T17:12:41Z</time>
      </trkpt>
      <trkpt lat="40.919568" lon="-2.908201">
        <ele>1003.224</ele>
        <time>2017-12-09T17:12:42Z</time>
      </trkpt>
      <trkpt lat="40.919500" lon="-2.908196">
        <ele>1003.208</ele>
        <time>2017-12-09T17:12:43Z</time>
      </trkpt>
      <trkpt lat="40.919429" lon="-2.908204">
        <ele>1003.538</ele>
        <time>2017-12-09T17:12:44Z</time>
      </trkpt>
      <trkpt lat="40.919356" lon="-2.908210">
        <ele>1003.397</ele>
        <time>2017-12-09T17:12:45Z</time>
      </trkpt>
      <trkpt lat="40.919265" lon="-2.908219">
        <ele>1004.010</ele>
        <time>2017-12-09T17:12:46Z</time>
      </trkpt>
      <trkpt lat="40.919197" lon="-2.908233">
        <ele>1004.211</ele>
        <time>2017-12-09T17:12:47Z</time>
      </trkpt>
      <trkpt lat="40.919121" lon="-2.908251">
        <ele>1004.465</ele>
        <time>2017-12-09T17:12:48Z</time>
      </trkpt>
      <trkpt lat="40.919051" lon="-2.908264">
        <ele>1004.236</ele>
        <time>2017-12-09T17:12:49Z</time>
      </trkpt>
      <trkpt lat="40.918974" lon="-2.908278">
        <ele>1004.562</ele>
        <time>2017-12-09T17:12:50Z</time>
      </trkpt>
      <trkpt lat="40.918896" lon="-2.908300">
        <ele>1004.725</ele>
        <time>2017-12-09T17:12:51Z</time>
      </trkpt>
      <trkpt lat="40.918808" lon="-2.908331">
        <ele>1005.187</ele>
        <time>2017-12-09T17:12:52Z</time>
      </trkpt>
      <trkpt lat="40.918725" lon="-2.908356">
        <ele>1005.042</ele>
        <time>2017-12-09T17:12:53Z</time>
      </trkpt>
      <trkpt lat="40.918639" lon="-2.908389">
        <ele>1005.126</ele>
        <time>2017-12-09T17:12:54Z</time>
      </trkpt>
      <trkpt lat="40.918562" lon="-2.908409">
        <ele>1004.908</ele>
        <time>2017-12-09T17:12:55Z</time>
      </trkpt>
      <trkpt lat="40.918485" lon="-2.908427">
        <ele>1004.880</ele>
        <time>2017-12-09T17:12:56Z</time>
      </trkpt>
      <trkpt lat="40.918411" lon="-2.908431">
        <ele>1005.259</ele>
        <time>2017-12-09T17:12:57Z</time>
      </trkpt>
      <trkpt lat="40.918334" lon="-2.908442">
        <ele>1005.492</ele>
        <time>2017-12-09T17:12:58Z</time>
      </trkpt>
      <trkpt lat="40.918261" lon="-2.908464">
        <ele>1005.453</ele>
        <time>2017-12-09T17:12:59Z</time>
      </trkpt>
      <trkpt lat="40.918190" lon="-2.908494">
        <ele>1004.737</ele>
        <time>2017-12-09T17:13:00Z</time>
      </trkpt>
      <trkpt lat="40.918124" lon="-2.908516">
        <ele>1004.838</ele>
        <time>2017-12-09T17:13:01Z</time>
      </trkpt>
      <trkpt lat="40.918053" lon="-2.908528">
        <ele>1004.614</ele>
        <time>2017-12-09T17:13:02Z</time>
      </trkpt>
      <trkpt lat="40.917984" lon="-2.908539">
        <ele>1004.477</ele>
        <time>2017-12-09T17:13:03Z</time>
      </trkpt>
      <trkpt lat="40.917915" lon="-2.908544">
        <ele>1004.712</ele>
        <time>2017-12-09T17:13:04Z</time>
      </trkpt>
      <trkpt lat="40.917844" lon="-2.908542">
        <ele>1005.132</ele>
        <time>2017-12-09T17:13:05Z</time>
      </trkpt>
      <trkpt lat="40.917771" lon="-2.908547">
        <ele>1005.505</ele>
        <time>2017-12-09T17:13:06Z</time>
      </trkpt>
      <trkpt lat="40.917689" lon="-2.908553">
        <ele>1005.708</ele>
        <time>2017-12-09T17:13:07Z</time>
      </trkpt>
      <trkpt lat="40.917612" lon="-2.908554">
        <ele>1005.373</ele>
        <time>2017-12-09T17:13:08Z</time>
      </trkpt>
      <trkpt lat="40.917532" lon="-2.908553">
        <ele>1005.372</ele>
        <time>2017-12-09T17:13:09Z</time>
      </trkpt>
      <trkpt lat="40.917458" lon="-2.908552">
        <ele>1005.045</ele>
        <time>2017-12-09T17:13:10Z</time>
      </trkpt>
      <trkpt lat="40.917383" lon="-2.908546">
        <ele>1005.166</ele>
        <time>2017-12-09T17:13:11Z</time>
      </trkpt>
      <trkpt lat="40.917306" lon="-2.908536">
        <ele>1005.130</ele>
        <time>2017-12-09T17:13:12Z</time>
      </trkpt>
      <trkpt lat="40.917231" lon="-2.908527">
        <ele>1005.341</ele>
        <time>2017-12-09T17:13:13Z</time>
      </trkpt>
      <trkpt lat="40.917143" lon="-2.908523">
        <ele>1005.587</ele>
        <time>2017-12-09T17:13:14Z</time>
      </trkpt>
      <trkpt lat="40.917078" lon="-2.908496">
        <ele>1006.040</ele>
        <time>2017-12-09T17:13:15Z</time>
      </trkpt>
      <trkpt lat="40.917016" lon="-2.908467">
        <ele>1006.066</ele>
        <time>2017-12-09T17:13:16Z</time>
      </trkpt>
      <trkpt lat="40.916934" lon="-2.908447">
        <ele>1006.129</ele>
        <time>2017-12-09T17:13:17Z</time>
      </trkpt>
      <trkpt lat="40.916846" lon="-2.908437">
        <ele>1006.121</ele>
        <time>2017-12-09T17:13:18Z</time>
      </trkpt>
      <trkpt lat="40.916778" lon="-2.908425">
        <ele>1006.208</ele>
        <time>2017-12-09T17:13:19Z</time>
      </trkpt>
      <trkpt lat="40.916701" lon="-2.908414">
        <ele>1006.448</ele>
        <time>2017-12-09T17:13:20Z</time>
      </trkpt>
      <trkpt lat="40.916623" lon="-2.908412">
        <ele>1006.437</ele>
        <time>2017-12-09T17:13:21Z</time>
      </trkpt>
      <trkpt lat="40.916561" lon="-2.908394">
        <ele>1006.620</ele>
        <time>2017-12-09T17:13:22Z</time>
      </trkpt>
      <trkpt lat="40.916484" lon="-2.908391">
        <ele>1006.421</ele>
        <time>2017-12-09T17:13:23Z</time>
      </trkpt>
      <trkpt lat="40.916396" lon="-2.908404">
        <ele>1006.365</ele>
        <time>2017-12-09T17:13:24Z</time>
      </trkpt>
      <trkpt lat="40.916329" lon="-2.908410">
        <ele>1006.126</ele>
        <time>2017-12-09T17:13:25Z</time>
      </trkpt>
      <trkpt lat="40.916262" lon="-2.908421">
        <ele>1006.142</ele>
        <time>2017-12-09T17:13:26Z</time>
      </trkpt>
      <trkpt lat="40.916197" lon="-2.908431">
        <ele>1006.355</ele>
        <time>2017-12-09T17:13:27Z</time>
      </trkpt>
      <trkpt lat="40.916144" lon="-2.908448">
        <ele>1006.441</ele>
        <time>2017-12-09T17:13:28Z</time>
      </trkpt>
      <trkpt lat="40.916081" lon="-2.908456">
        <ele>1006.181</ele>
        <time>2017-12-09T17:13:29Z</time>
      </trkpt>
      <trkpt lat="40.916003" lon="-2.908454">
        <ele>1006.709</ele>
        <time>2017-12-09T17:13:30Z</time>
      </trkpt>
      <trkpt lat="40.915947" lon="-2.908439">
        <ele>1006.508</ele>
        <time>2017-12-09T17:13:31Z</time>
      </trkpt>
      <trkpt lat="40.915880" lon="-2.908424">
        <ele>1006.816</ele>
        <time>2017-12-09T17:13:32Z</time>
      </trkpt>
      <trkpt lat="40.915803" lon="-2.908417">
        <ele>1006.835</ele>
        <time>2017-12-09T17:13:33Z</time>
      </trkpt>
      <trkpt lat="40.915737" lon="-2.908403">
        <ele>1006.638</ele>
        <time>2017-12-09T17:13:34Z</time>
      </trkpt>
      <trkpt lat="40.915671" lon="-2.908411">
        <ele>1006.659</ele>
        <time>2017-12-09T17:13:35Z</time>
      </trkpt>
      <trkpt lat="40.915596" lon="-2.908422">
        <ele>1006.343</ele>
        <time>2017-12-09T17:13:36Z</time>
      </trkpt>
      <trkpt lat="40.915517" lon="-2.908451">
        <ele>1006.274</ele>
        <time>2017-12-09T17:13:37Z</time>
      </trkpt>
      <trkpt lat="40.915432" lon="-2.908482">
        <ele>1005.920</ele>
        <time>2017-12-09T17:13:38Z</time>
      </trkpt>
      <trkpt lat="40.915357" lon="-2.908500">
        <ele>1006.183</ele>
        <time>2017-12-09T17:13:39Z</time>
      </trkpt>
      <trkpt lat="40.915279" lon="-2.908502">
        <ele>1006.168</ele>
        <time>2017-12-09T17:13:40Z</time>
      </trkpt>
      <trkpt lat="40.915180" lon="-2.908485">
        <ele>1006.042</ele>
        <time>2017-12-09T17:13:41Z</time>
      </trkpt>
      <trkpt lat="40.915103" lon="-2.908467">
        <ele>1006.326</ele>
        <time>2017-12-09T17:13:42Z</time>
      </trkpt>
      <trkpt lat="40.915024" lon="-2.908450">
        <ele>1006.108</ele>
        <time>2017-12-09T17:13:43Z</time>
      </trkpt>
      <trkpt lat="40.914947" lon="-2.908430">
        <ele>1006.088</ele>
        <time>2017-12-09T17:13:44Z</time>
      </trkpt>
      <trkpt lat="40.914861" lon="-2.908410">
        <ele>1006.177</ele>
        <time>2017-12-09T17:13:45Z</time>
      </trkpt>
      <trkpt lat="40.914782" lon="-2.908391">
        <ele>1006.530</ele>
        <time>2017-12-09T17:13:46Z</time>
      </trkpt>
      <trkpt lat="40.914700" lon="-2.908367">
        <ele>1006.631</ele>
        <time>2017-12-09T17:13:47Z</time>
      </trkpt>
      <trkpt lat="40.914617" lon="-2.908343">
        <ele>1006.875</ele>
        <time>2017-12-09T17:13:48Z</time>
      </trkpt>
      <trkpt lat="40.914537" lon="-2.908319">
        <ele>1007.166</ele>
        <time>2017-12-09T17:13:49Z</time>
      </trkpt>
      <trkpt lat="40.914467" lon="-2.908277">
        <ele>1007.382</ele>
        <time>2017-12-09T17:13:50Z</time>
      </trkpt>
      <trkpt lat="40.914385" lon="-2.908248">
        <ele>1007.215</ele>
        <time>2017-12-09T17:13:51Z</time>
      </trkpt>
      <trkpt lat="40.914306" lon="-2.908203">
        <ele>1007.218</ele>
        <time>2017-12-09T17:13:52Z</time>
      </trkpt>
      <trkpt lat="40.914233" lon="-2.908180">
        <ele>1007.298</ele>
        <time>2017-12-09T17:13:53Z</time>
      </trkpt>
      <trkpt lat="40.914149" lon="-2.908160">
        <ele>1007.317</ele>
        <time>2017-12-09T17:13:54Z</time>
      </trkpt>
      <trkpt lat="40.914063" lon="-2.908132">
        <ele>1007.508</ele>
        <time>2017-12-09T17:13:55Z</time>
      </trkpt>
      <trkpt lat="40.913984" lon="-2.908110">
        <ele>1007.563</ele>
        <time>2017-12-09T17:13:56Z</time>
      </trkpt>
      <trkpt lat="40.913917" lon="-2.908078">
        <ele>1006.932</ele>
        <time>2017-12-09T17:13:57Z</time>
      </trkpt>
      <trkpt lat="40.913839" lon="-2.908056">
        <ele>1006.655</ele>
        <time>2017-12-09T17:13:58Z</time>
      </trkpt>
      <trkpt lat="40.913755" lon="-2.908031">
        <ele>1006.156</ele>
        <time>2017-12-09T17:13:59Z</time>
      </trkpt>
      <trkpt lat="40.913665" lon="-2.908019">
        <ele>1006.540</ele>
        <time>2017-12-09T17:14:00Z</time>
      </trkpt>
      <trkpt lat="40.913589" lon="-2.908002">
        <ele>1005.931</ele>
        <time>2017-12-09T17:14:01Z</time>
      </trkpt>
      <trkpt lat="40.913510" lon="-2.907986">
        <ele>1005.567</ele>
        <time>2017-12-09T17:14:02Z</time>
      </trkpt>
      <trkpt lat="40.913421" lon="-2.907979">
        <ele>1005.660</ele>
        <time>2017-12-09T17:14:03Z</time>
      </trkpt>
      <trkpt lat="40.913333" lon="-2.907972">
        <ele>1005.596</ele>
        <time>2017-12-09T17:14:04Z</time>
      </trkpt>
      <trkpt lat="40.913259" lon="-2.907941">
        <ele>1005.031</ele>
        <time>2017-12-09T17:14:05Z</time>
      </trkpt>
      <trkpt lat="40.913177" lon="-2.907913">
        <ele>1005.124</ele>
        <time>2017-12-09T17:14:06Z</time>
      </trkpt>
      <trkpt lat="40.913099" lon="-2.907871">
        <ele>1004.408</ele>
        <time>2017-12-09T17:14:07Z</time>
      </trkpt>
      <trkpt lat="40.913012" lon="-2.907828">
        <ele>1004.421</ele>
        <time>2017-12-09T17:14:08Z</time>
      </trkpt>
      <trkpt lat="40.912941" lon="-2.907783">
        <ele>1004.460</ele>
        <time>2017-12-09T17:14:09Z</time>
      </trkpt>
      <trkpt lat="40.912875" lon="-2.907737">
        <ele>1004.163</ele>
        <time>2017-12-09T17:14:10Z</time>
      </trkpt>
      <trkpt lat="40.912811" lon="-2.907686">
        <ele>1003.614</ele>
        <time>2017-12-09T17:14:11Z</time>
      </trkpt>
      <trkpt lat="40.912747" lon="-2.907641">
        <ele>1003.368</ele>
        <time>2017-12-09T17:14:12Z</time>
      </trkpt>
      <trkpt lat="40.912668" lon="-2.907591">
        <ele>1003.569</ele>
        <time>2017-12-09T17:14:13Z</time>
      </trkpt>
      <trkpt lat="40.912582" lon="-2.907550">
        <ele>1003.335</ele>
        <time>2017-12-09T17:14:14Z</time>
      </trkpt>
      <trkpt lat="40.912510" lon="-2.907521">
        <ele>1003.588</ele>
        <time>2017-12-09T17:14:15Z</time>
      </trkpt>
      <trkpt lat="40.912450" lon="-2.907504">
        <ele>1003.616</ele>
        <time>2017-12-09T17:14:16Z</time>
      </trkpt>
      <trkpt lat="40.912380" lon="-2.907505">
        <ele>1003.576</ele>
        <time>2017-12-09T17:14:17Z</time>
      </trkpt>
      <trkpt lat="40.912313" lon="-2.907500">
        <ele>1003.513</ele>
        <time>2017-12-09T17:14:18Z</time>
      </trkpt>
      <trkpt lat="40.912243" lon="-2.907494">
        <ele>1003.208</ele>
        <time>2017-12-09T17:14:19Z</time>
      </trkpt>
      <trkpt lat="40.912186" lon="-2.907499">
        <ele>1003.673</ele>
        <time>2017-12-09T17:14:20Z</time>
      </trkpt>
      <trkpt lat="40.912125" lon="-2.907498">
        <ele>1003.512</ele>
        <time>2017-12-09T17:14:21Z</time>
      </trkpt>
      <trkpt lat="40.912064" lon="-2.907499">
        <ele>1004.065</ele>
        <time>2017-12-09T17:14:22Z</time>
      </trkpt>
      <trkpt lat="40.912002" lon="-2.907500">
        <ele>1004.056</ele>
        <time>2017-12-09T17:14:23Z</time>
      </trkpt>
      <trkpt lat="40.911939" lon="-2.907509">
        <ele>1004.570</ele>
        <time>2017-12-09T17:14:24Z</time>
      </trkpt>
      <trkpt lat="40.911881" lon="-2.907509">
        <ele>1004.861</ele>
        <time>2017-12-09T17:14:25Z</time>
      </trkpt>
      <trkpt lat="40.911815" lon="-2.907536">
        <ele>1004.837</ele>
        <time>2017-12-09T17:14:26Z</time>
      </trkpt>
      <trkpt lat="40.911747" lon="-2.907572">
        <ele>1004.850</ele>
        <time>2017-12-09T17:14:27Z</time>
      </trkpt>
      <trkpt lat="40.911683" lon="-2.907609">
        <ele>1005.215</ele>
        <time>2017-12-09T17:14:28Z</time>
      </trkpt>
      <trkpt lat="40.911616" lon="-2.907640">
        <ele>1005.665</ele>
        <time>2017-12-09T17:14:29Z</time>
      </trkpt>
      <trkpt lat="40.911543" lon="-2.907671">
        <ele>1006.011</ele>
        <time>2017-12-09T17:14:30Z</time>
      </trkpt>
      <trkpt lat="40.911469" lon="-2.907703">
        <ele>1006.208</ele>
        <time>2017-12-09T17:14:31Z</time>
      </trkpt>
      <trkpt lat="40.911398" lon="-2.907738">
        <ele>1006.553</ele>
        <time>2017-12-09T17:14:32Z</time>
      </trkpt>
      <trkpt lat="40.911321" lon="-2.907779">
        <ele>1006.132</ele>
        <time>2017-12-09T17:14:33Z</time>
      </trkpt>
      <trkpt lat="40.911254" lon="-2.907823">
        <ele>1005.755</ele>
        <time>2017-12-09T17:14:34Z</time>
      </trkpt>
      <trkpt lat="40.911182" lon="-2.907876">
        <ele>1005.266</ele>
        <time>2017-12-09T17:14:35Z</time>
      </trkpt>
      <trkpt lat="40.911110" lon="-2.907928">
        <ele>1004.930</ele>
        <time>2017-12-09T17:14:36Z</time>
      </trkpt>
      <trkpt lat="40.911042" lon="-2.907978">
        <ele>1004.241</ele>
        <time>2017-12-09T17:14:37Z</time>
      </trkpt>
      <trkpt lat="40.910961" lon="-2.908025">
        <ele>1004.117</ele>
        <time>2017-12-09T17:14:38Z</time>
      </trkpt>
      <trkpt lat="40.910866" lon="-2.908059">
        <ele>1003.630</ele>
        <time>2017-12-09T17:14:39Z</time>
      </trkpt>
      <trkpt lat="40.910783" lon="-2.908071">
        <ele>1003.737</ele>
        <time>2017-12-09T17:14:40Z</time>
      </trkpt>
      <trkpt lat="40.910695" lon="-2.908060">
        <ele>1003.549</ele>
        <time>2017-12-09T17:14:41Z</time>
      </trkpt>
      <trkpt lat="40.910609" lon="-2.908054">
        <ele>1003.713</ele>
        <time>2017-12-09T17:14:42Z</time>
      </trkpt>
      <trkpt lat="40.910544" lon="-2.908011">
        <ele>1003.308</ele>
        <time>2017-12-09T17:14:43Z</time>
      </trkpt>
      <trkpt lat="40.910468" lon="-2.908008">
        <ele>1003.125</ele>
        <time>2017-12-09T17:14:44Z</time>
      </trkpt>
      <trkpt lat="40.910397" lon="-2.908030">
        <ele>1003.174</ele>
        <time>2017-12-09T17:14:45Z</time>
      </trkpt>
      <trkpt lat="40.910329" lon="-2.908058">
        <ele>1003.437</ele>
        <time>2017-12-09T17:14:46Z</time>
      </trkpt>
      <trkpt lat="40.910257" lon="-2.908111">
        <ele>1003.938</ele>
        <time>2017-12-09T17:14:47Z</time>
      </trkpt>
      <trkpt lat="40.910193" lon="-2.908171">
        <ele>1003.542</ele>
        <time>2017-12-09T17:14:48Z</time>
      </trkpt>
      <trkpt lat="40.910101" lon="-2.908237">
        <ele>1003.623</ele>
        <time>2017-12-09T17:14:49Z</time>
      </trkpt>
      <trkpt lat="40.910014" lon="-2.908295">
        <ele>1003.389</ele>
        <time>2017-12-09T17:14:50Z</time>
      </trkpt>
      <trkpt lat="40.909929" lon="-2.908362">
        <ele>1003.872</ele>
        <time>2017-12-09T17:14:51Z</time>
      </trkpt>
      <trkpt lat="40.909844" lon="-2.908427">
        <ele>1004.053</ele>
        <time>2017-12-09T17:14:52Z</time>
      </trkpt>
      <trkpt lat="40.909753" lon="-2.908481">
        <ele>1004.204</ele>
        <time>2017-12-09T17:14:53Z</time>
      </trkpt>
      <trkpt lat="40.909670" lon="-2.908536">
        <ele>1004.914</ele>
        <time>2017-12-09T17:14:54Z</time>
      </trkpt>
      <trkpt lat="40.909583" lon="-2.908578">
        <ele>1004.808</ele>
        <time>2017-12-09T17:14:55Z</time>
      </trkpt>
      <trkpt lat="40.909496" lon="-2.908608">
        <ele>1005.347</ele>
        <time>2017-12-09T17:14:56Z</time>
      </trkpt>
      <trkpt lat="40.909407" lon="-2.908625">
        <ele>1005.726</ele>
        <time>2017-12-09T17:14:57Z</time>
      </trkpt>
      <trkpt lat="40.909319" lon="-2.908657">
        <ele>1006.289</ele>
        <time>2017-12-09T17:14:59Z</time>
      </trkpt>
      <trkpt lat="40.909232" lon="-2.908684">
        <ele>1006.430</ele>
        <time>2017-12-09T17:15:00Z</time>
      </trkpt>
      <trkpt lat="40.909148" lon="-2.908711">
        <ele>1007.194</ele>
        <time>2017-12-09T17:15:01Z</time>
      </trkpt>
      <trkpt lat="40.909075" lon="-2.908735">
        <ele>1007.355</ele>
        <time>2017-12-09T17:15:02Z</time>
      </trkpt>
      <trkpt lat="40.909009" lon="-2.908761">
        <ele>1008.151</ele>
        <time>2017-12-09T17:15:03Z</time>
      </trkpt>
      <trkpt lat="40.908943" lon="-2.908802">
        <ele>1008.664</ele>
        <time>2017-12-09T17:15:04Z</time>
      </trkpt>
      <trkpt lat="40.908882" lon="-2.908854">
        <ele>1009.554</ele>
        <time>2017-12-09T17:15:05Z</time>
      </trkpt>
      <trkpt lat="40.908820" lon="-2.908913">
        <ele>1010.756</ele>
        <time>2017-12-09T17:15:06Z</time>
      </trkpt>
      <trkpt lat="40.908760" lon="-2.908976">
        <ele>1011.211</ele>
        <time>2017-12-09T17:15:07Z</time>
      </trkpt>
      <trkpt lat="40.908693" lon="-2.909040">
        <ele>1012.508</ele>
        <time>2017-12-09T17:15:08Z</time>
      </trkpt>
      <trkpt lat="40.908613" lon="-2.909095">
        <ele>1013.417</ele>
        <time>2017-12-09T17:15:09Z</time>
      </trkpt>
      <trkpt lat="40.908541" lon="-2.909155">
        <ele>1013.866</ele>
        <time>2017-12-09T17:15:10Z</time>
      </trkpt>
      <trkpt lat="40.908468" lon="-2.909215">
        <ele>1013.889</ele>
        <time>2017-12-09T17:15:11Z</time>
      </trkpt>
      <trkpt lat="40.908395" lon="-2.909271">
        <ele>1014.660</ele>
        <time>2017-12-09T17:15:12Z</time>
      </trkpt>
      <trkpt lat="40.908320" lon="-2.909329">
        <ele>1015.974</ele>
        <time>2017-12-09T17:15:13Z</time>
      </trkpt>
      <trkpt lat="40.908249" lon="-2.909383">
        <ele>1016.465</ele>
        <time>2017-12-09T17:15:14Z</time>
      </trkpt>
      <trkpt lat="40.908180" lon="-2.909444">
        <ele>1017.231</ele>
        <time>2017-12-09T17:15:15Z</time>
      </trkpt>
      <trkpt lat="40.908114" lon="-2.909497">
        <ele>1017.954</ele>
        <time>2017-12-09T17:15:16Z</time>
      </trkpt>
      <trkpt lat="40.908042" lon="-2.909535">
        <ele>1018.232</ele>
        <time>2017-12-09T17:15:17Z</time>
      </trkpt>
      <trkpt lat="40.907965" lon="-2.909564">
        <ele>1018.992</ele>
        <time>2017-12-09T17:15:18Z</time>
      </trkpt>
      <trkpt lat="40.907888" lon="-2.909598">
        <ele>1020.011</ele>
        <time>2017-12-09T17:15:19Z</time>
      </trkpt>
      <trkpt lat="40.907817" lon="-2.909644">
        <ele>1020.908</ele>
        <time>2017-12-09T17:15:20Z</time>
      </trkpt>
      <trkpt lat="40.907746" lon="-2.909702">
        <ele>1020.915</ele>
        <time>2017-12-09T17:15:21Z</time>
      </trkpt>
      <trkpt lat="40.907673" lon="-2.909749">
        <ele>1021.854</ele>
        <time>2017-12-09T17:15:22Z</time>
      </trkpt>
      <trkpt lat="40.907599" lon="-2.909801">
        <ele>1022.367</ele>
        <time>2017-12-09T17:15:23Z</time>
      </trkpt>
      <trkpt lat="40.907525" lon="-2.909855">
        <ele>1023.118</ele>
        <time>2017-12-09T17:15:24Z</time>
      </trkpt>
      <trkpt lat="40.907450" lon="-2.909911">
        <ele>1024.142</ele>
        <time>2017-12-09T17:15:25Z</time>
      </trkpt>
      <trkpt lat="40.907378" lon="-2.909959">
        <ele>1024.823</ele>
        <time>2017-12-09T17:15:26Z</time>
      </trkpt>
      <trkpt lat="40.907304" lon="-2.910012">
        <ele>1025.019</ele>
        <time>2017-12-09T17:15:27Z</time>
      </trkpt>
      <trkpt lat="40.907227" lon="-2.910064">
        <ele>1025.832</ele>
        <time>2017-12-09T17:15:28Z</time>
      </trkpt>
      <trkpt lat="40.907146" lon="-2.910119">
        <ele>1027.199</ele>
        <time>2017-12-09T17:15:29Z</time>
      </trkpt>
      <trkpt lat="40.907068" lon="-2.910172">
        <ele>1028.307</ele>
        <time>2017-12-09T17:15:30Z</time>
      </trkpt>
      <trkpt lat="40.906995" lon="-2.910228">
        <ele>1029.327</ele>
        <time>2017-12-09T17:15:31Z</time>
      </trkpt>
      <trkpt lat="40.906915" lon="-2.910288">
        <ele>1030.108</ele>
        <time>2017-12-09T17:15:32Z</time>
      </trkpt>
      <trkpt lat="40.906843" lon="-2.910349">
        <ele>1030.381</ele>
        <time>2017-12-09T17:15:33Z</time>
      </trkpt>
      <trkpt lat="40.906770" lon="-2.910405">
        <ele>1031.030</ele>
        <time>2017-12-09T17:15:34Z</time>
      </trkpt>
      <trkpt lat="40.906686" lon="-2.910475">
        <ele>1031.843</ele>
        <time>2017-12-09T17:15:35Z</time>
      </trkpt>
      <trkpt lat="40.906609" lon="-2.910531">
        <ele>1032.154</ele>
        <time>2017-12-09T17:15:36Z</time>
      </trkpt>
      <trkpt lat="40.906520" lon="-2.910591">
        <ele>1032.198</ele>
        <time>2017-12-09T17:15:37Z</time>
      </trkpt>
      <trkpt lat="40.906434" lon="-2.910648">
        <ele>1031.979</ele>
        <time>2017-12-09T17:15:38Z</time>
      </trkpt>
      <trkpt lat="40.906341" lon="-2.910695">
        <ele>1031.565</ele>
        <time>2017-12-09T17:15:39Z</time>
      </trkpt>
      <trkpt lat="40.906241" lon="-2.910755">
        <ele>1031.738</ele>
        <time>2017-12-09T17:15:40Z</time>
      </trkpt>
      <trkpt lat="40.906140" lon="-2.910814">
        <ele>1031.456</ele>
        <time>2017-12-09T17:15:41Z</time>
      </trkpt>
      <trkpt lat="40.906037" lon="-2.910862">
        <ele>1030.959</ele>
        <time>2017-12-09T17:15:42Z</time>
      </trkpt>
      <trkpt lat="40.905941" lon="-2.910903">
        <ele>1030.414</ele>
        <time>2017-12-09T17:15:43Z</time>
      </trkpt>
      <trkpt lat="40.905841" lon="-2.910944">
        <ele>1029.608</ele>
        <time>2017-12-09T17:15:44Z</time>
      </trkpt>
      <trkpt lat="40.905739" lon="-2.910982">
        <ele>1029.027</ele>
        <time>2017-12-09T17:15:45Z</time>
      </trkpt>
      <trkpt lat="40.905633" lon="-2.911016">
        <ele>1028.636</ele>
        <time>2017-12-09T17:15:46Z</time>
      </trkpt>
      <trkpt lat="40.905534" lon="-2.911060">
        <ele>1028.469</ele>
        <time>2017-12-09T17:15:47Z</time>
      </trkpt>
      <trkpt lat="40.905441" lon="-2.911108">
        <ele>1028.330</ele>
        <time>2017-12-09T17:15:48Z</time>
      </trkpt>
      <trkpt lat="40.905347" lon="-2.911167">
        <ele>1028.724</ele>
        <time>2017-12-09T17:15:49Z</time>
      </trkpt>
      <trkpt lat="40.905243" lon="-2.911228">
        <ele>1028.945</ele>
        <time>2017-12-09T17:15:50Z</time>
      </trkpt>
      <trkpt lat="40.905127" lon="-2.911285">
        <ele>1029.121</ele>
        <time>2017-12-09T17:15:51Z</time>
      </trkpt>
      <trkpt lat="40.905025" lon="-2.911330">
        <ele>1029.894</ele>
        <time>2017-12-09T17:15:52Z</time>
      </trkpt>
      <trkpt lat="40.904931" lon="-2.911384">
        <ele>1030.111</ele>
        <time>2017-12-09T17:15:53Z</time>
      </trkpt>
      <trkpt lat="40.904837" lon="-2.911435">
        <ele>1030.421</ele>
        <time>2017-12-09T17:15:54Z</time>
      </trkpt>
      <trkpt lat="40.904750" lon="-2.911487">
        <ele>1031.503</ele>
        <time>2017-12-09T17:15:55Z</time>
      </trkpt>
      <trkpt lat="40.904659" lon="-2.911544">
        <ele>1032.308</ele>
        <time>2017-12-09T17:15:56Z</time>
      </trkpt>
      <trkpt lat="40.904573" lon="-2.911590">
        <ele>1033.293</ele>
        <time>2017-12-09T17:15:57Z</time>
      </trkpt>
      <trkpt lat="40.904497" lon="-2.911637">
        <ele>1033.612</ele>
        <time>2017-12-09T17:15:58Z</time>
      </trkpt>
      <trkpt lat="40.904432" lon="-2.911662">
        <ele>1034.325</ele>
        <time>2017-12-09T17:15:59Z</time>
      </trkpt>
      <trkpt lat="40.904374" lon="-2.911665">
        <ele>1034.926</ele>
        <time>2017-12-09T17:16:00Z</time>
      </trkpt>
      <trkpt lat="40.904309" lon="-2.911656">
        <ele>1035.280</ele>
        <time>2017-12-09T17:16:01Z</time>
      </trkpt>
      <trkpt lat="40.904244" lon="-2.911638">
        <ele>1035.261</ele>
        <time>2017-12-09T17:16:02Z</time>
      </trkpt>
      <trkpt lat="40.904175" lon="-2.911643">
        <ele>1035.297</ele>
        <time>2017-12-09T17:16:03Z</time>
      </trkpt>
      <trkpt lat="40.904097" lon="-2.911656">
        <ele>1036.070</ele>
        <time>2017-12-09T17:16:04Z</time>
      </trkpt>
      <trkpt lat="40.904021" lon="-2.911684">
        <ele>1035.877</ele>
        <time>2017-12-09T17:16:05Z</time>
      </trkpt>
      <trkpt lat="40.903949" lon="-2.911718">
        <ele>1035.861</ele>
        <time>2017-12-09T17:16:06Z</time>
      </trkpt>
      <trkpt lat="40.903875" lon="-2.911763">
        <ele>1035.427</ele>
        <time>2017-12-09T17:16:07Z</time>
      </trkpt>
      <trkpt lat="40.903809" lon="-2.911807">
        <ele>1034.108</ele>
        <time>2017-12-09T17:16:08Z</time>
      </trkpt>
      <trkpt lat="40.903741" lon="-2.911852">
        <ele>1033.629</ele>
        <time>2017-12-09T17:16:09Z</time>
      </trkpt>
      <trkpt lat="40.903674" lon="-2.911905">
        <ele>1032.998</ele>
        <time>2017-12-09T17:16:10Z</time>
      </trkpt>
      <trkpt lat="40.903609" lon="-2.911959">
        <ele>1032.391</ele>
        <time>2017-12-09T17:16:11Z</time>
      </trkpt>
      <trkpt lat="40.903558" lon="-2.912014">
        <ele>1031.192</ele>
        <time>2017-12-09T17:16:12Z</time>
      </trkpt>
      <trkpt lat="40.903516" lon="-2.912066">
        <ele>1030.386</ele>
        <time>2017-12-09T17:16:13Z</time>
      </trkpt>
      <trkpt lat="40.903474" lon="-2.912113">
        <ele>1029.657</ele>
        <time>2017-12-09T17:16:14Z</time>
      </trkpt>
      <trkpt lat="40.903443" lon="-2.912156">
        <ele>1029.113</ele>
        <time>2017-12-09T17:16:15Z</time>
      </trkpt>
      <trkpt lat="40.903407" lon="-2.912197">
        <ele>1028.976</ele>
        <time>2017-12-09T17:16:16Z</time>
      </trkpt>
      <trkpt lat="40.903368" lon="-2.912251">
        <ele>1028.326</ele>
        <time>2017-12-09T17:16:17Z</time>
      </trkpt>
      <trkpt lat="40.903309" lon="-2.912316">
        <ele>1028.347</ele>
        <time>2017-12-09T17:16:18Z</time>
      </trkpt>
      <trkpt lat="40.903261" lon="-2.912390">
        <ele>1027.911</ele>
        <time>2017-12-09T17:16:19Z</time>
      </trkpt>
      <trkpt lat="40.903206" lon="-2.912470">
        <ele>1027.208</ele>
        <time>2017-12-09T17:16:20Z</time>
      </trkpt>
      <trkpt lat="40.903158" lon="-2.912548">
        <ele>1026.614</ele>
        <time>2017-12-09T17:16:21Z</time>
      </trkpt>
      <trkpt lat="40.903103" lon="-2.912640">
        <ele>1026.373</ele>
        <time>2017-12-09T17:16:22Z</time>
      </trkpt>
      <trkpt lat="40.903061" lon="-2.912719">
        <ele>1025.726</ele>
        <time>2017-12-09T17:16:23Z</time>
      </trkpt>
      <trkpt lat="40.903013" lon="-2.912802">
        <ele>1025.557</ele>
        <time>2017-12-09T17:16:24Z</time>
      </trkpt>
      <trkpt lat="40.902973" lon="-2.912882">
        <ele>1025.051</ele>
        <time>2017-12-09T17:16:25Z</time>
      </trkpt>
      <trkpt lat="40.902931" lon="-2.912965">
        <ele>1024.812</ele>
        <time>2017-12-09T17:16:26Z</time>
      </trkpt>
      <trkpt lat="40.902884" lon="-2.913047">
        <ele>1024.658</ele>
        <time>2017-12-09T17:16:27Z</time>
      </trkpt>
      <trkpt lat="40.902854" lon="-2.913123">
        <ele>1024.561</ele>
        <time>2017-12-09T17:16:28Z</time>
      </trkpt>
      <trkpt lat="40.902832" lon="-2.913202">
        <ele>1024.518</ele>
        <time>2017-12-09T17:16:29Z</time>
      </trkpt>
      <trkpt lat="40.902797" lon="-2.913277">
        <ele>1024.298</ele>
        <time>2017-12-09T17:16:30Z</time>
      </trkpt>
      <trkpt lat="40.902773" lon="-2.913349">
        <ele>1024.117</ele>
        <time>2017-12-09T17:16:31Z</time>
      </trkpt>
      <trkpt lat="40.902744" lon="-2.913412">
        <ele>1024.008</ele>
        <time>2017-12-09T17:16:32Z</time>
      </trkpt>
      <trkpt lat="40.902721" lon="-2.913470">
        <ele>1023.663</ele>
        <time>2017-12-09T17:16:33Z</time>
      </trkpt>
      <trkpt lat="40.902688" lon="-2.913562">
        <ele>1023.072</ele>
        <time>2017-12-09T17:16:35Z</time>
      </trkpt>
      <trkpt lat="40.902668" lon="-2.913620">
        <ele>1022.875</ele>
        <time>2017-12-09T17:16:37Z</time>
      </trkpt>
      <trkpt lat="40.902634" lon="-2.913662">
        <ele>1022.656</ele>
        <time>2017-12-09T17:16:39Z</time>
      </trkpt>
      <trkpt lat="40.902616" lon="-2.913726">
        <ele>1022.780</ele>
        <time>2017-12-09T17:16:48Z</time>
      </trkpt>
      <trkpt lat="40.902576" lon="-2.913782">
        <ele>1021.321</ele>
        <time>2017-12-09T17:16:51Z</time>
      </trkpt>
      <trkpt lat="40.902521" lon="-2.913795">
        <ele>1022.117</ele>
        <time>2017-12-09T17:16:55Z</time>
      </trkpt>
      <trkpt lat="40.902468" lon="-2.913757">
        <ele>1022.560</ele>
        <time>2017-12-09T17:16:57Z</time>
      </trkpt>
      <trkpt lat="40.902414" lon="-2.913702">
        <ele>1023.095</ele>
        <time>2017-12-09T17:16:59Z</time>
      </trkpt>
      <trkpt lat="40.902361" lon="-2.913663">
        <ele>1023.649</ele>
        <time>2017-12-09T17:17:01Z</time>
      </trkpt>
      <trkpt lat="40.902293" lon="-2.913668">
        <ele>1023.323</ele>
        <time>2017-12-09T17:17:03Z</time>
      </trkpt>
      <trkpt lat="40.902213" lon="-2.913712">
        <ele>1023.008</ele>
        <time>2017-12-09T17:17:05Z</time>
      </trkpt>
      <trkpt lat="40.902140" lon="-2.913762">
        <ele>1022.651</ele>
        <time>2017-12-09T17:17:07Z</time>
      </trkpt>
      <trkpt lat="40.902073" lon="-2.913807">
        <ele>1021.910</ele>
        <time>2017-12-09T17:17:09Z</time>
      </trkpt>
      <trkpt lat="40.902015" lon="-2.913848">
        <ele>1021.693</ele>
        <time>2017-12-09T17:17:11Z</time>
      </trkpt>
      <trkpt lat="40.901968" lon="-2.913872">
        <ele>1021.364</ele>
        <time>2017-12-09T17:17:13Z</time>
      </trkpt>
      <trkpt lat="40.901919" lon="-2.913865">
        <ele>1021.418</ele>
        <time>2017-12-09T17:17:15Z</time>
      </trkpt>
      <trkpt lat="40.901872" lon="-2.913818">
        <ele>1022.099</ele>
        <time>2017-12-09T17:17:17Z</time>
      </trkpt>
      <trkpt lat="40.901818" lon="-2.913742">
        <ele>1022.235</ele>
        <time>2017-12-09T17:17:19Z</time>
      </trkpt>
      <trkpt lat="40.901751" lon="-2.913688">
        <ele>1023.368</ele>
        <time>2017-12-09T17:17:21Z</time>
      </trkpt>
      <trkpt lat="40.901677" lon="-2.913648">
        <ele>1023.737</ele>
        <time>2017-12-09T17:17:23Z</time>
      </trkpt>
      <trkpt lat="40.901604" lon="-2.913595">
        <ele>1024.949</ele>
        <time>2017-12-09T17:17:25Z</time>
      </trkpt>
      <trkpt lat="40.901528" lon="-2.913546">
        <ele>1026.013</ele>
        <time>2017-12-09T17:17:27Z</time>
      </trkpt>
      <trkpt lat="40.901438" lon="-2.913542">
        <ele>1026.908</ele>
        <time>2017-12-09T17:17:29Z</time>
      </trkpt>
      <trkpt lat="40.901337" lon="-2.913561">
        <ele>1027.675</ele>
        <time>2017-12-09T17:17:31Z</time>
      </trkpt>
      <trkpt lat="40.901272" lon="-2.913577">
        <ele>1027.774</ele>
        <time>2017-12-09T17:17:32Z</time>
      </trkpt>
      <trkpt lat="40.901174" lon="-2.913599">
        <ele>1027.577</ele>
        <time>2017-12-09T17:17:34Z</time>
      </trkpt>
      <trkpt lat="40.901114" lon="-2.913617">
        <ele>1027.488</ele>
        <time>2017-12-09T17:17:35Z</time>
      </trkpt>
      <trkpt lat="40.901054" lon="-2.913627">
        <ele>1027.442</ele>
        <time>2017-12-09T17:17:36Z</time>
      </trkpt>
      <trkpt lat="40.900986" lon="-2.913639">
        <ele>1027.213</ele>
        <time>2017-12-09T17:17:37Z</time>
      </trkpt>
      <trkpt lat="40.900923" lon="-2.913659">
        <ele>1026.879</ele>
        <time>2017-12-09T17:17:38Z</time>
      </trkpt>
      <trkpt lat="40.900871" lon="-2.913691">
        <ele>1026.492</ele>
        <time>2017-12-09T17:17:39Z</time>
      </trkpt>
      <trkpt lat="40.900789" lon="-2.913757">
        <ele>1025.943</ele>
        <time>2017-12-09T17:17:41Z</time>
      </trkpt>
      <trkpt lat="40.900754" lon="-2.913804">
        <ele>1025.364</ele>
        <time>2017-12-09T17:17:42Z</time>
      </trkpt>
      <trkpt lat="40.900686" lon="-2.913840">
        <ele>1025.210</ele>
        <time>2017-12-09T17:17:44Z</time>
      </trkpt>
      <trkpt lat="40.900604" lon="-2.913808">
        <ele>1025.608</ele>
        <time>2017-12-09T17:17:46Z</time>
      </trkpt>
      <trkpt lat="40.900558" lon="-2.913775">
        <ele>1025.626</ele>
        <time>2017-12-09T17:17:47Z</time>
      </trkpt>
      <trkpt lat="40.900494" lon="-2.913740">
        <ele>1025.695</ele>
        <time>2017-12-09T17:17:48Z</time>
      </trkpt>
      <trkpt lat="40.900424" lon="-2.913707">
        <ele>1026.318</ele>
        <time>2017-12-09T17:17:49Z</time>
      </trkpt>
      <trkpt lat="40.900346" lon="-2.913669">
        <ele>1026.489</ele>
        <time>2017-12-09T17:17:50Z</time>
      </trkpt>
      <trkpt lat="40.900259" lon="-2.913626">
        <ele>1026.873</ele>
        <time>2017-12-09T17:17:51Z</time>
      </trkpt>
      <trkpt lat="40.900167" lon="-2.913582">
        <ele>1026.824</ele>
        <time>2017-12-09T17:17:52Z</time>
      </trkpt>
      <trkpt lat="40.900066" lon="-2.913538">
        <ele>1027.650</ele>
        <time>2017-12-09T17:17:53Z</time>
      </trkpt>
      <trkpt lat="40.899958" lon="-2.913490">
        <ele>1028.473</ele>
        <time>2017-12-09T17:17:54Z</time>
      </trkpt>
      <trkpt lat="40.899847" lon="-2.913438">
        <ele>1029.091</ele>
        <time>2017-12-09T17:17:55Z</time>
      </trkpt>
      <trkpt lat="40.899743" lon="-2.913383">
        <ele>1029.981</ele>
        <time>2017-12-09T17:17:56Z</time>
      </trkpt>
      <trkpt lat="40.899642" lon="-2.913320">
        <ele>1030.519</ele>
        <time>2017-12-09T17:17:57Z</time>
      </trkpt>
      <trkpt lat="40.899552" lon="-2.913263">
        <ele>1030.908</ele>
        <time>2017-12-09T17:17:58Z</time>
      </trkpt>
      <trkpt lat="40.899465" lon="-2.913198">
        <ele>1031.211</ele>
        <time>2017-12-09T17:17:59Z</time>
      </trkpt>
      <trkpt lat="40.899374" lon="-2.913120">
        <ele>1032.270</ele>
        <time>2017-12-09T17:18:00Z</time>
      </trkpt>
      <trkpt lat="40.899277" lon="-2.913030">
        <ele>1032.813</ele>
        <time>2017-12-09T17:18:01Z</time>
      </trkpt>
      <trkpt lat="40.899176" lon="-2.912936">
        <ele>1033.284</ele>
        <time>2017-12-09T17:18:02Z</time>
      </trkpt>
      <trkpt lat="40.899073" lon="-2.912840">
        <ele>1034.058</ele>
        <time>2017-12-09T17:18:03Z</time>
      </trkpt>
      <trkpt lat="40.898975" lon="-2.912737">
        <ele>1034.249</ele>
        <time>2017-12-09T17:18:04Z</time>
      </trkpt>
      <trkpt lat="40.898870" lon="-2.912643">
        <ele>1035.055</ele>
        <time>2017-12-09T17:18:05Z</time>
      </trkpt>
      <trkpt lat="40.898762" lon="-2.912541">
        <ele>1035.018</ele>
        <time>2017-12-09T17:18:06Z</time>
      </trkpt>
      <trkpt lat="40.898652" lon="-2.912440">
        <ele>1035.311</ele>
        <time>2017-12-09T17:18:07Z</time>
      </trkpt>
      <trkpt lat="40.898541" lon="-2.912335">
        <ele>1035.621</ele>
        <time>2017-12-09T17:18:08Z</time>
      </trkpt>
      <trkpt lat="40.898436" lon="-2.912239">
        <ele>1035.903</ele>
        <time>2017-12-09T17:18:09Z</time>
      </trkpt>
      <trkpt lat="40.898340" lon="-2.912151">
        <ele>1036.208</ele>
        <time>2017-12-09T17:18:10Z</time>
      </trkpt>
      <trkpt lat="40.898245" lon="-2.912051">
        <ele>1036.613</ele>
        <time>2017-12-09T17:18:11Z</time>
      </trkpt>
      <trkpt lat="40.898162" lon="-2.911961">
        <ele>1036.462</ele>
        <time>2017-12-09T17:18:12Z</time>
      </trkpt>
      <trkpt lat="40.898089" lon="-2.911859">
        <ele>1036.765</ele>
        <time>2017-12-09T17:18:13Z</time>
      </trkpt>
      <trkpt lat="40.898015" lon="-2.911751">
        <ele>1036.736</ele>
        <time>2017-12-09T17:18:14Z</time>
      </trkpt>
      <trkpt lat="40.897943" lon="-2.911623">
        <ele>1036.770</ele>
        <time>2017-12-09T17:18:15Z</time>
      </trkpt>
      <trkpt lat="40.897882" lon="-2.911498">
        <ele>1036.471</ele>
        <time>2017-12-09T17:18:16Z</time>
      </trkpt>
      <trkpt lat="40.897836" lon="-2.911383">
        <ele>1035.747</ele>
        <time>2017-12-09T17:18:17Z</time>
      </trkpt>
      <trkpt lat="40.897792" lon="-2.911305">
        <ele>1034.280</ele>
        <time>2017-12-09T17:18:18Z</time>
      </trkpt>
      <trkpt lat="40.897764" lon="-2.911242">
        <ele>1033.447</ele>
        <time>2017-12-09T17:18:20Z</time>
      </trkpt>
      <trkpt lat="40.897806" lon="-2.911302">
        <ele>1033.429</ele>
        <time>2017-12-09T17:18:26Z</time>
      </trkpt>
      <trkpt lat="40.897834" lon="-2.911359">
        <ele>1033.821</ele>
        <time>2017-12-09T17:18:29Z</time>
      </trkpt>
      <trkpt lat="40.897750" lon="-2.911370">
        <ele>1034.008</ele>
        <time>2017-12-09T17:18:34Z</time>
      </trkpt>
      <trkpt lat="40.897703" lon="-2.911423">
        <ele>1034.086</ele>
        <time>2017-12-09T17:18:35Z</time>
      </trkpt>
      <trkpt lat="40.897664" lon="-2.911471">
        <ele>1034.095</ele>
        <time>2017-12-09T17:18:36Z</time>
      </trkpt>
      <trkpt lat="40.897626" lon="-2.911518">
        <ele>1034.018</ele>
        <time>2017-12-09T17:18:37Z</time>
      </trkpt>
      <trkpt lat="40.897593" lon="-2.911579">
        <ele>1034.429</ele>
        <time>2017-12-09T17:18:38Z</time>
      </trkpt>
      <trkpt lat="40.897532" lon="-2.911644">
        <ele>1034.843</ele>
        <time>2017-12-09T17:18:39Z</time>
      </trkpt>
      <trkpt lat="40.897469" lon="-2.911731">
        <ele>1034.824</ele>
        <time>2017-12-09T17:18:40Z</time>
      </trkpt>
      <trkpt lat="40.897397" lon="-2.911815">
        <ele>1035.430</ele>
        <time>2017-12-09T17:18:41Z</time>
      </trkpt>
      <trkpt lat="40.897323" lon="-2.911911">
        <ele>1036.113</ele>
        <time>2017-12-09T17:18:42Z</time>
      </trkpt>
      <trkpt lat="40.897246" lon="-2.912008">
        <ele>1035.738</ele>
        <time>2017-12-09T17:18:43Z</time>
      </trkpt>
      <trkpt lat="40.897166" lon="-2.912111">
        <ele>1035.870</ele>
        <time>2017-12-09T17:18:44Z</time>
      </trkpt>
      <trkpt lat="40.897082" lon="-2.912218">
        <ele>1035.917</ele>
        <time>2017-12-09T17:18:45Z</time>
      </trkpt>
      <trkpt lat="40.896994" lon="-2.912332">
        <ele>1036.508</ele>
        <time>2017-12-09T17:18:46Z</time>
      </trkpt>
      <trkpt lat="40.896892" lon="-2.912447">
        <ele>1036.415</ele>
        <time>2017-12-09T17:18:47Z</time>
      </trkpt>
      <trkpt lat="40.896782" lon="-2.912568">
        <ele>1036.784</ele>
        <time>2017-12-09T17:18:48Z</time>
      </trkpt>
      <trkpt lat="40.896672" lon="-2.912704">
        <ele>1036.997</ele>
        <time>2017-12-09T17:18:49Z</time>
      </trkpt>
      <trkpt lat="40.896560" lon="-2.912837">
        <ele>1036.778</ele>
        <time>2017-12-09T17:18:50Z</time>
      </trkpt>
      <trkpt lat="40.896447" lon="-2.912972">
        <ele>1036.972</ele>
        <time>2017-12-09T17:18:51Z</time>
      </trkpt>
      <trkpt lat="40.896338" lon="-2.913100">
        <ele>1036.593</ele>
        <time>2017-12-09T17:18:52Z</time>
      </trkpt>
      <trkpt lat="40.896229" lon="-2.913230">
        <ele>1036.329</ele>
        <time>2017-12-09T17:18:53Z</time>
      </trkpt>
      <trkpt lat="40.896122" lon="-2.913370">
        <ele>1036.522</ele>
        <time>2017-12-09T17:18:54Z</time>
      </trkpt>
      <trkpt lat="40.896017" lon="-2.913481">
        <ele>1036.767</ele>
        <time>2017-12-09T17:18:55Z</time>
      </trkpt>
      <trkpt lat="40.895902" lon="-2.913612">
        <ele>1036.781</ele>
        <time>2017-12-09T17:18:56Z</time>
      </trkpt>
      <trkpt lat="40.895789" lon="-2.913744">
        <ele>1036.719</ele>
        <time>2017-12-09T17:18:57Z</time>
      </trkpt>
      <trkpt lat="40.895672" lon="-2.913866">
        <ele>1037.008</ele>
        <time>2017-12-09T17:18:58Z</time>
      </trkpt>
      <trkpt lat="40.895559" lon="-2.913997">
        <ele>1037.198</ele>
        <time>2017-12-09T17:18:59Z</time>
      </trkpt>
      <trkpt lat="40.895446" lon="-2.914125">
        <ele>1037.117</ele>
        <time>2017-12-09T17:19:00Z</time>
      </trkpt>
      <trkpt lat="40.895336" lon="-2.914251">
        <ele>1036.820</ele>
        <time>2017-12-09T17:19:01Z</time>
      </trkpt>
      <trkpt lat="40.895220" lon="-2.914384">
        <ele>1037.011</ele>
        <time>2017-12-09T17:19:02Z</time>
      </trkpt>
      <trkpt lat="40.895111" lon="-2.914506">
        <ele>1037.185</ele>
        <time>2017-12-09T17:19:03Z</time>
      </trkpt>
      <trkpt lat="40.895007" lon="-2.914640">
        <ele>1037.586</ele>
        <time>2017-12-09T17:19:04Z</time>
      </trkpt>
      <trkpt lat="40.894895" lon="-2.914775">
        <ele>1037.642</ele>
        <time>2017-12-09T17:19:05Z</time>
      </trkpt>
      <trkpt lat="40.894786" lon="-2.914912">
        <ele>1037.625</ele>
        <time>2017-12-09T17:19:06Z</time>
      </trkpt>
      <trkpt lat="40.894662" lon="-2.915053">
        <ele>1037.472</ele>
        <time>2017-12-09T17:19:07Z</time>
      </trkpt>
      <trkpt lat="40.894543" lon="-2.915199">
        <ele>1037.113</ele>
        <time>2017-12-09T17:19:08Z</time>
      </trkpt>
      <trkpt lat="40.894427" lon="-2.915339">
        <ele>1037.414</ele>
        <time>2017-12-09T17:19:09Z</time>
      </trkpt>
      <trkpt lat="40.894306" lon="-2.915476">
        <ele>1037.708</ele>
        <time>2017-12-09T17:19:10Z</time>
      </trkpt>
      <trkpt lat="40.894190" lon="-2.915613">
        <ele>1037.719</ele>
        <time>2017-12-09T17:19:11Z</time>
      </trkpt>
      <trkpt lat="40.894072" lon="-2.915759">
        <ele>1037.728</ele>
        <time>2017-12-09T17:19:12Z</time>
      </trkpt>
      <trkpt lat="40.893949" lon="-2.915900">
        <ele>1037.791</ele>
        <time>2017-12-09T17:19:13Z</time>
      </trkpt>
      <trkpt lat="40.893827" lon="-2.916048">
        <ele>1037.342</ele>
        <time>2017-12-09T17:19:14Z</time>
      </trkpt>
      <trkpt lat="40.893701" lon="-2.916192">
        <ele>1037.596</ele>
        <time>2017-12-09T17:19:15Z</time>
      </trkpt>
      <trkpt lat="40.893575" lon="-2.916336">
        <ele>1037.297</ele>
        <time>2017-12-09T17:19:16Z</time>
      </trkpt>
      <trkpt lat="40.893453" lon="-2.916498">
        <ele>1037.483</ele>
        <time>2017-12-09T17:19:17Z</time>
      </trkpt>
      <trkpt lat="40.893325" lon="-2.916649">
        <ele>1037.216</ele>
        <time>2017-12-09T17:19:18Z</time>
      </trkpt>
      <trkpt lat="40.893209" lon="-2.916791">
        <ele>1037.336</ele>
        <time>2017-12-09T17:19:19Z</time>
      </trkpt>
      <trkpt lat="40.893078" lon="-2.916932">
        <ele>1037.117</ele>
        <time>2017-12-09T17:19:20Z</time>
      </trkpt>
      <trkpt lat="40.892958" lon="-2.917076">
        <ele>1037.218</ele>
        <time>2017-12-09T17:19:21Z</time>
      </trkpt>
      <trkpt lat="40.892828" lon="-2.917217">
        <ele>1037.308</ele>
        <time>2017-12-09T17:19:22Z</time>
      </trkpt>
      <trkpt lat="40.892719" lon="-2.917357">
        <ele>1037.155</ele>
        <time>2017-12-09T17:19:23Z</time>
      </trkpt>
      <trkpt lat="40.892607" lon="-2.917477">
        <ele>1037.344</ele>
        <time>2017-12-09T17:19:24Z</time>
      </trkpt>
      <trkpt lat="40.892499" lon="-2.917615">
        <ele>1037.067</ele>
        <time>2017-12-09T17:19:25Z</time>
      </trkpt>
      <trkpt lat="40.892385" lon="-2.917761">
        <ele>1037.058</ele>
        <time>2017-12-09T17:19:26Z</time>
      </trkpt>
      <trkpt lat="40.892273" lon="-2.917896">
        <ele>1037.162</ele>
        <time>2017-12-09T17:19:27Z</time>
      </trkpt>
      <trkpt lat="40.892149" lon="-2.918031">
        <ele>1036.993</ele>
        <time>2017-12-09T17:19:28Z</time>
      </trkpt>
      <trkpt lat="40.892044" lon="-2.918160">
        <ele>1037.469</ele>
        <time>2017-12-09T17:19:29Z</time>
      </trkpt>
      <trkpt lat="40.891938" lon="-2.918309">
        <ele>1037.262</ele>
        <time>2017-12-09T17:19:30Z</time>
      </trkpt>
      <trkpt lat="40.891820" lon="-2.918441">
        <ele>1037.111</ele>
        <time>2017-12-09T17:19:31Z</time>
      </trkpt>
      <trkpt lat="40.891708" lon="-2.918574">
        <ele>1037.121</ele>
        <time>2017-12-09T17:19:32Z</time>
      </trkpt>
      <trkpt lat="40.891587" lon="-2.918708">
        <ele>1036.703</ele>
        <time>2017-12-09T17:19:33Z</time>
      </trkpt>
      <trkpt lat="40.891473" lon="-2.918843">
        <ele>1036.508</ele>
        <time>2017-12-09T17:19:34Z</time>
      </trkpt>
      <trkpt lat="40.891357" lon="-2.918976">
        <ele>1036.163</ele>
        <time>2017-12-09T17:19:35Z</time>
      </trkpt>
      <trkpt lat="40.891235" lon="-2.919138">
        <ele>1036.092</ele>
        <time>2017-12-09T17:19:36Z</time>
      </trkpt>
      <trkpt lat="40.891118" lon="-2.919271">
        <ele>1035.925</ele>
        <time>2017-12-09T17:19:37Z</time>
      </trkpt>
      <trkpt lat="40.891007" lon="-2.919400">
        <ele>1035.086</ele>
        <time>2017-12-09T17:19:38Z</time>
      </trkpt>
      <trkpt lat="40.890909" lon="-2.919521">
        <ele>1033.910</ele>
        <time>2017-12-09T17:19:39Z</time>
      </trkpt>
      <trkpt lat="40.890820" lon="-2.919628">
        <ele>1033.451</ele>
        <time>2017-12-09T17:19:40Z</time>
      </trkpt>
      <trkpt lat="40.890753" lon="-2.919636">
        <ele>1032.977</ele>
        <time>2017-12-09T17:19:41Z</time>
      </trkpt>
      <trkpt lat="40.890657" lon="-2.919749">
        <ele>1033.090</ele>
        <time>2017-12-09T17:19:42Z</time>
      </trkpt>
      <trkpt lat="40.890553" lon="-2.919855">
        <ele>1032.947</ele>
        <time>2017-12-09T17:19:43Z</time>
      </trkpt>
      <trkpt lat="40.890447" lon="-2.919976">
        <ele>1032.629</ele>
        <time>2017-12-09T17:19:44Z</time>
      </trkpt>
      <trkpt lat="40.890340" lon="-2.920106">
        <ele>1032.621</ele>
        <time>2017-12-09T17:19:45Z</time>
      </trkpt>
      <trkpt lat="40.890241" lon="-2.920213">
        <ele>1032.708</ele>
        <time>2017-12-09T17:19:46Z</time>
      </trkpt>
      <trkpt lat="40.890131" lon="-2.920346">
        <ele>1032.676</ele>
        <time>2017-12-09T17:19:47Z</time>
      </trkpt>
      <trkpt lat="40.890018" lon="-2.920470">
        <ele>1032.345</ele>
        <time>2017-12-09T17:19:48Z</time>
      </trkpt>
      <trkpt lat="40.889908" lon="-2.920599">
        <ele>1032.578</ele>
        <time>2017-12-09T17:19:49Z</time>
      </trkpt>
      <trkpt lat="40.889794" lon="-2.920724">
        <ele>1032.279</ele>
        <time>2017-12-09T17:19:50Z</time>
      </trkpt>
      <trkpt lat="40.889691" lon="-2.920839">
        <ele>1032.113</ele>
        <time>2017-12-09T17:19:51Z</time>
      </trkpt>
      <trkpt lat="40.889591" lon="-2.920949">
        <ele>1031.714</ele>
        <time>2017-12-09T17:19:52Z</time>
      </trkpt>
      <trkpt lat="40.889492" lon="-2.921064">
        <ele>1031.940</ele>
        <time>2017-12-09T17:19:53Z</time>
      </trkpt>
      <trkpt lat="40.889405" lon="-2.921155">
        <ele>1031.343</ele>
        <time>2017-12-09T17:19:54Z</time>
      </trkpt>
      <trkpt lat="40.889311" lon="-2.921238">
        <ele>1031.635</ele>
        <time>2017-12-09T17:19:55Z</time>
      </trkpt>
      <trkpt lat="40.889223" lon="-2.921317">
        <ele>1031.986</ele>
        <time>2017-12-09T17:19:56Z</time>
      </trkpt>
      <trkpt lat="40.889140" lon="-2.921405">
        <ele>1032.014</ele>
        <time>2017-12-09T17:19:57Z</time>
      </trkpt>
      <trkpt lat="40.889056" lon="-2.921514">
        <ele>1032.008</ele>
        <time>2017-12-09T17:19:58Z</time>
      </trkpt>
      <trkpt lat="40.888994" lon="-2.921621">
        <ele>1032.365</ele>
        <time>2017-12-09T17:19:59Z</time>
      </trkpt>
      <trkpt lat="40.888939" lon="-2.921711">
        <ele>1032.454</ele>
        <time>2017-12-09T17:20:00Z</time>
      </trkpt>
      <trkpt lat="40.888873" lon="-2.921822">
        <ele>1032.667</ele>
        <time>2017-12-09T17:20:01Z</time>
      </trkpt>
      <trkpt lat="40.888800" lon="-2.921931">
        <ele>1032.978</ele>
        <time>2017-12-09T17:20:02Z</time>
      </trkpt>
      <trkpt lat="40.888727" lon="-2.922041">
        <ele>1033.282</ele>
        <time>2017-12-09T17:20:03Z</time>
      </trkpt>
      <trkpt lat="40.888659" lon="-2.922161">
        <ele>1033.093</ele>
        <time>2017-12-09T17:20:04Z</time>
      </trkpt>
      <trkpt lat="40.888585" lon="-2.922278">
        <ele>1033.059</ele>
        <time>2017-12-09T17:20:05Z</time>
      </trkpt>
      <trkpt lat="40.888517" lon="-2.922402">
        <ele>1033.242</ele>
        <time>2017-12-09T17:20:06Z</time>
      </trkpt>
      <trkpt lat="40.888451" lon="-2.922523">
        <ele>1033.557</ele>
        <time>2017-12-09T17:20:07Z</time>
      </trkpt>
      <trkpt lat="40.888380" lon="-2.922626">
        <ele>1033.300</ele>
        <time>2017-12-09T17:20:08Z</time>
      </trkpt>
      <trkpt lat="40.888317" lon="-2.922729">
        <ele>1033.320</ele>
        <time>2017-12-09T17:20:09Z</time>
      </trkpt>
      <trkpt lat="40.888262" lon="-2.922834">
        <ele>1033.308</ele>
        <time>2017-12-09T17:20:10Z</time>
      </trkpt>
      <trkpt lat="40.888205" lon="-2.922921">
        <ele>1032.917</ele>
        <time>2017-12-09T17:20:11Z</time>
      </trkpt>
      <trkpt lat="40.888144" lon="-2.922995">
        <ele>1032.636</ele>
        <time>2017-12-09T17:20:12Z</time>
      </trkpt>
      <trkpt lat="40.888095" lon="-2.923067">
        <ele>1032.549</ele>
        <time>2017-12-09T17:20:13Z</time>
      </trkpt>
      <trkpt lat="40.888061" lon="-2.923126">
        <ele>1032.930</ele>
        <time>2017-12-09T17:20:14Z</time>
      </trkpt>
      <trkpt lat="40.888036" lon="-2.923180">
        <ele>1032.744</ele>
        <time>2017-12-09T17:20:15Z</time>
      </trkpt>
      <trkpt lat="40.888048" lon="-2.923292">
        <ele>1033.215</ele>
        <time>2017-12-09T17:20:17Z</time>
      </trkpt>
      <trkpt lat="40.888064" lon="-2.923349">
        <ele>1033.471</ele>
        <time>2017-12-09T17:20:18Z</time>
      </trkpt>
      <trkpt lat="40.888124" lon="-2.923401">
        <ele>1033.794</ele>
        <time>2017-12-09T17:20:19Z</time>
      </trkpt>
      <trkpt lat="40.888168" lon="-2.923465">
        <ele>1034.057</ele>
        <time>2017-12-09T17:20:20Z</time>
      </trkpt>
      <trkpt lat="40.888223" lon="-2.923522">
        <ele>1034.400</ele>
        <time>2017-12-09T17:20:21Z</time>
      </trkpt>
      <trkpt lat="40.888282" lon="-2.923558">
        <ele>1034.420</ele>
        <time>2017-12-09T17:20:22Z</time>
      </trkpt>
      <trkpt lat="40.888347" lon="-2.923574">
        <ele>1034.608</ele>
        <time>2017-12-09T17:20:23Z</time>
      </trkpt>
      <trkpt lat="40.888402" lon="-2.923576">
        <ele>1034.657</ele>
        <time>2017-12-09T17:20:24Z</time>
      </trkpt>
      <trkpt lat="40.888456" lon="-2.923596">
        <ele>1034.546</ele>
        <time>2017-12-09T17:20:25Z</time>
      </trkpt>
      <trkpt lat="40.888502" lon="-2.923619">
        <ele>1034.799</ele>
        <time>2017-12-09T17:20:26Z</time>
      </trkpt>
      <trkpt lat="40.888548" lon="-2.923645">
        <ele>1034.650</ele>
        <time>2017-12-09T17:20:27Z</time>
      </trkpt>
      <trkpt lat="40.888623" lon="-2.923730">
        <ele>1034.714</ele>
        <time>2017-12-09T17:20:29Z</time>
      </trkpt>
      <trkpt lat="40.888670" lon="-2.923783">
        <ele>1035.035</ele>
        <time>2017-12-09T17:20:30Z</time>
      </trkpt>
      <trkpt lat="40.888706" lon="-2.923830">
        <ele>1034.891</ele>
        <time>2017-12-09T17:20:31Z</time>
      </trkpt>
      <trkpt lat="40.888740" lon="-2.923876">
        <ele>1034.634</ele>
        <time>2017-12-09T17:20:32Z</time>
      </trkpt>
      <trkpt lat="40.888774" lon="-2.923931">
        <ele>1034.677</ele>
        <time>2017-12-09T17:20:33Z</time>
      </trkpt>
      <trkpt lat="40.888817" lon="-2.923988">
        <ele>1034.661</ele>
        <time>2017-12-09T17:20:34Z</time>
      </trkpt>
      <trkpt lat="40.888862" lon="-2.924047">
        <ele>1034.427</ele>
        <time>2017-12-09T17:20:35Z</time>
      </trkpt>
      <trkpt lat="40.888908" lon="-2.924108">
        <ele>1034.308</ele>
        <time>2017-12-09T17:20:36Z</time>
      </trkpt>
      <trkpt lat="40.888951" lon="-2.924168">
        <ele>1034.229</ele>
        <time>2017-12-09T17:20:37Z</time>
      </trkpt>
      <trkpt lat="40.888997" lon="-2.924230">
        <ele>1034.058</ele>
        <time>2017-12-09T17:20:38Z</time>
      </trkpt>
      <trkpt lat="40.889049" lon="-2.924287">
        <ele>1033.571</ele>
        <time>2017-12-09T17:20:39Z</time>
      </trkpt>
      <trkpt lat="40.889094" lon="-2.924341">
        <ele>1033.832</ele>
        <time>2017-12-09T17:20:40Z</time>
      </trkpt>
      <trkpt lat="40.889141" lon="-2.924406">
        <ele>1033.436</ele>
        <time>2017-12-09T17:20:41Z</time>
      </trkpt>
      <trkpt lat="40.889192" lon="-2.924472">
        <ele>1033.457</ele>
        <time>2017-12-09T17:20:42Z</time>
      </trkpt>
      <trkpt lat="40.889245" lon="-2.924535">
        <ele>1033.293</ele>
        <time>2017-12-09T17:20:43Z</time>
      </trkpt>
      <trkpt lat="40.889299" lon="-2.924606">
        <ele>1032.946</ele>
        <time>2017-12-09T17:20:44Z</time>
      </trkpt>
      <trkpt lat="40.889352" lon="-2.924679">
        <ele>1032.774</ele>
        <time>2017-12-09T17:20:45Z</time>
      </trkpt>
      <trkpt lat="40.889382" lon="-2.924749">
        <ele>1032.356</ele>
        <time>2017-12-09T17:20:46Z</time>
      </trkpt>
      <trkpt lat="40.889421" lon="-2.924829">
        <ele>1032.121</ele>
        <time>2017-12-09T17:20:47Z</time>
      </trkpt>
      <trkpt lat="40.889473" lon="-2.924903">
        <ele>1031.808</ele>
        <time>2017-12-09T17:20:48Z</time>
      </trkpt>
      <trkpt lat="40.889529" lon="-2.924982">
        <ele>1031.779</ele>
        <time>2017-12-09T17:20:49Z</time>
      </trkpt>
      <trkpt lat="40.889581" lon="-2.925051">
        <ele>1031.028</ele>
        <time>2017-12-09T17:20:50Z</time>
      </trkpt>
      <trkpt lat="40.889638" lon="-2.925128">
        <ele>1031.011</ele>
        <time>2017-12-09T17:20:51Z</time>
      </trkpt>
      <trkpt lat="40.889697" lon="-2.925204">
        <ele>1030.952</ele>
        <time>2017-12-09T17:20:52Z</time>
      </trkpt>
      <trkpt lat="40.889755" lon="-2.925280">
        <ele>1030.876</ele>
        <time>2017-12-09T17:20:53Z</time>
      </trkpt>
      <trkpt lat="40.889815" lon="-2.925356">
        <ele>1030.717</ele>
        <time>2017-12-09T17:20:54Z</time>
      </trkpt>
      <trkpt lat="40.889863" lon="-2.925432">
        <ele>1030.213</ele>
        <time>2017-12-09T17:20:55Z</time>
      </trkpt>
      <trkpt lat="40.889913" lon="-2.925505">
        <ele>1030.036</ele>
        <time>2017-12-09T17:20:56Z</time>
      </trkpt>
      <trkpt lat="40.889967" lon="-2.925582">
        <ele>1029.322</ele>
        <time>2017-12-09T17:20:57Z</time>
      </trkpt>
      <trkpt lat="40.890023" lon="-2.925651">
        <ele>1028.762</ele>
        <time>2017-12-09T17:20:58Z</time>
      </trkpt>
      <trkpt lat="40.890032" lon="-2.925724">
        <ele>1028.208</ele>
        <time>2017-12-09T17:20:59Z</time>
      </trkpt>
      <trkpt lat="40.890071" lon="-2.925787">
        <ele>1027.608</ele>
        <time>2017-12-09T17:21:00Z</time>
      </trkpt>
      <trkpt lat="40.890126" lon="-2.925825">
        <ele>1026.814</ele>
        <time>2017-12-09T17:21:01Z</time>
      </trkpt>
      <trkpt lat="40.890185" lon="-2.925871">
        <ele>1026.423</ele>
        <time>2017-12-09T17:21:02Z</time>
      </trkpt>
      <trkpt lat="40.890242" lon="-2.925910">
        <ele>1026.186</ele>
        <time>2017-12-09T17:21:03Z</time>
      </trkpt>
      <trkpt lat="40.890304" lon="-2.925971">
        <ele>1025.757</ele>
        <time>2017-12-09T17:21:04Z</time>
      </trkpt>
      <trkpt lat="40.890358" lon="-2.926032">
        <ele>1026.121</ele>
        <time>2017-12-09T17:21:05Z</time>
      </trkpt>
      <trkpt lat="40.890417" lon="-2.926106">
        <ele>1026.352</ele>
        <time>2017-12-09T17:21:06Z</time>
      </trkpt>
      <trkpt lat="40.890467" lon="-2.926178">
        <ele>1026.398</ele>
        <time>2017-12-09T17:21:07Z</time>
      </trkpt>
      <trkpt lat="40.890535" lon="-2.926265">
        <ele>1027.061</ele>
        <time>2017-12-09T17:21:08Z</time>
      </trkpt>
      <trkpt lat="40.890598" lon="-2.926348">
        <ele>1027.314</ele>
        <time>2017-12-09T17:21:09Z</time>
      </trkpt>
      <trkpt lat="40.890668" lon="-2.926417">
        <ele>1027.854</ele>
        <time>2017-12-09T17:21:10Z</time>
      </trkpt>
      <trkpt lat="40.890735" lon="-2.926498">
        <ele>1028.109</ele>
        <time>2017-12-09T17:21:11Z</time>
      </trkpt>
      <trkpt lat="40.890811" lon="-2.926585">
        <ele>1028.008</ele>
        <time>2017-12-09T17:21:12Z</time>
      </trkpt>
      <trkpt lat="40.890880" lon="-2.926665">
        <ele>1028.193</ele>
        <time>2017-12-09T17:21:13Z</time>
      </trkpt>
      <trkpt lat="40.890924" lon="-2.926746">
        <ele>1028.032</ele>
        <time>2017-12-09T17:21:14Z</time>
      </trkpt>
      <trkpt lat="40.890976" lon="-2.926822">
        <ele>1027.885</ele>
        <time>2017-12-09T17:21:15Z</time>
      </trkpt>
      <trkpt lat="40.891023" lon="-2.926887">
        <ele>1027.956</ele>
        <time>2017-12-09T17:21:16Z</time>
      </trkpt>
      <trkpt lat="40.891073" lon="-2.926946">
        <ele>1027.930</ele>
        <time>2017-12-09T17:21:17Z</time>
      </trkpt>
      <trkpt lat="40.891125" lon="-2.927006">
        <ele>1028.211</ele>
        <time>2017-12-09T17:21:18Z</time>
      </trkpt>
      <trkpt lat="40.891185" lon="-2.927078">
        <ele>1028.757</ele>
        <time>2017-12-09T17:21:19Z</time>
      </trkpt>
      <trkpt lat="40.891254" lon="-2.927156">
        <ele>1028.680</ele>
        <time>2017-12-09T17:21:20Z</time>
      </trkpt>
      <trkpt lat="40.891313" lon="-2.927238">
        <ele>1028.765</ele>
        <time>2017-12-09T17:21:21Z</time>
      </trkpt>
      <trkpt lat="40.891388" lon="-2.927327">
        <ele>1028.968</ele>
        <time>2017-12-09T17:21:22Z</time>
      </trkpt>
      <trkpt lat="40.891466" lon="-2.927420">
        <ele>1028.914</ele>
        <time>2017-12-09T17:21:23Z</time>
      </trkpt>
      <trkpt lat="40.891544" lon="-2.927515">
        <ele>1029.008</ele>
        <time>2017-12-09T17:21:24Z</time>
      </trkpt>
      <trkpt lat="40.891622" lon="-2.927610">
        <ele>1029.488</ele>
        <time>2017-12-09T17:21:25Z</time>
      </trkpt>
      <trkpt lat="40.891701" lon="-2.927710">
        <ele>1029.577</ele>
        <time>2017-12-09T17:21:26Z</time>
      </trkpt>
      <trkpt lat="40.891778" lon="-2.927804">
        <ele>1030.310</ele>
        <time>2017-12-09T17:21:27Z</time>
      </trkpt>
      <trkpt lat="40.891851" lon="-2.927887">
        <ele>1030.121</ele>
        <time>2017-12-09T17:21:28Z</time>
      </trkpt>
      <trkpt lat="40.891917" lon="-2.927964">
        <ele>1030.365</ele>
        <time>2017-12-09T17:21:29Z</time>
      </trkpt>
      <trkpt lat="40.891976" lon="-2.928034">
        <ele>1030.636</ele>
        <time>2017-12-09T17:21:30Z</time>
      </trkpt>
      <trkpt lat="40.892021" lon="-2.928104">
        <ele>1030.862</ele>
        <time>2017-12-09T17:21:31Z</time>
      </trkpt>
      <trkpt lat="40.892065" lon="-2.928173">
        <ele>1030.875</ele>
        <time>2017-12-09T17:21:32Z</time>
      </trkpt>
      <trkpt lat="40.892093" lon="-2.928232">
        <ele>1030.646</ele>
        <time>2017-12-09T17:21:33Z</time>
      </trkpt>
      <trkpt lat="40.892109" lon="-2.928305">
        <ele>1030.888</ele>
        <time>2017-12-09T17:21:34Z</time>
      </trkpt>
      <trkpt lat="40.892099" lon="-2.928367">
        <ele>1031.116</ele>
        <time>2017-12-09T17:21:35Z</time>
      </trkpt>
      <trkpt lat="40.892064" lon="-2.928433">
        <ele>1031.608</ele>
        <time>2017-12-09T17:21:36Z</time>
      </trkpt>
      <trkpt lat="40.892029" lon="-2.928506">
        <ele>1031.566</ele>
        <time>2017-12-09T17:21:37Z</time>
      </trkpt>
      <trkpt lat="40.891979" lon="-2.928579">
        <ele>1032.145</ele>
        <time>2017-12-09T17:21:38Z</time>
      </trkpt>
      <trkpt lat="40.891928" lon="-2.928652">
        <ele>1031.948</ele>
        <time>2017-12-09T17:21:39Z</time>
      </trkpt>
      <trkpt lat="40.891865" lon="-2.928739">
        <ele>1032.199</ele>
        <time>2017-12-09T17:21:40Z</time>
      </trkpt>
      <trkpt lat="40.891798" lon="-2.928828">
        <ele>1031.873</ele>
        <time>2017-12-09T17:21:41Z</time>
      </trkpt>
      <trkpt lat="40.891735" lon="-2.928925">
        <ele>1032.364</ele>
        <time>2017-12-09T17:21:42Z</time>
      </trkpt>
      <trkpt lat="40.891666" lon="-2.929032">
        <ele>1032.330</ele>
        <time>2017-12-09T17:21:43Z</time>
      </trkpt>
      <trkpt lat="40.891585" lon="-2.929133">
        <ele>1031.783</ele>
        <time>2017-12-09T17:21:44Z</time>
      </trkpt>
      <trkpt lat="40.891514" lon="-2.929239">
        <ele>1031.844</ele>
        <time>2017-12-09T17:21:45Z</time>
      </trkpt>
      <trkpt lat="40.891437" lon="-2.929350">
        <ele>1031.705</ele>
        <time>2017-12-09T17:21:46Z</time>
      </trkpt>
      <trkpt lat="40.891360" lon="-2.929456">
        <ele>1032.015</ele>
        <time>2017-12-09T17:21:47Z</time>
      </trkpt>
      <trkpt lat="40.891285" lon="-2.929565">
        <ele>1032.108</ele>
        <time>2017-12-09T17:21:48Z</time>
      </trkpt>
      <trkpt lat="40.891208" lon="-2.929667">
        <ele>1032.166</ele>
        <time>2017-12-09T17:21:49Z</time>
      </trkpt>
      <trkpt lat="40.891133" lon="-2.929769">
        <ele>1032.995</ele>
        <time>2017-12-09T17:21:50Z</time>
      </trkpt>
      <trkpt lat="40.891056" lon="-2.929868">
        <ele>1033.598</ele>
        <time>2017-12-09T17:21:51Z</time>
      </trkpt>
      <trkpt lat="40.890977" lon="-2.929977">
        <ele>1033.789</ele>
        <time>2017-12-09T17:21:52Z</time>
      </trkpt>
      <trkpt lat="40.890901" lon="-2.930094">
        <ele>1033.943</ele>
        <time>2017-12-09T17:21:53Z</time>
      </trkpt>
      <trkpt lat="40.890825" lon="-2.930205">
        <ele>1034.444</ele>
        <time>2017-12-09T17:21:54Z</time>
      </trkpt>
      <trkpt lat="40.890744" lon="-2.930318">
        <ele>1034.840</ele>
        <time>2017-12-09T17:21:55Z</time>
      </trkpt>
      <trkpt lat="40.890673" lon="-2.930411">
        <ele>1035.193</ele>
        <time>2017-12-09T17:21:56Z</time>
      </trkpt>
      <trkpt lat="40.890592" lon="-2.930524">
        <ele>1035.222</ele>
        <time>2017-12-09T17:21:57Z</time>
      </trkpt>
      <trkpt lat="40.890507" lon="-2.930632">
        <ele>1035.562</ele>
        <time>2017-12-09T17:21:58Z</time>
      </trkpt>
      <trkpt lat="40.890417" lon="-2.930756">
        <ele>1035.808</ele>
        <time>2017-12-09T17:21:59Z</time>
      </trkpt>
      <trkpt lat="40.890325" lon="-2.930881">
        <ele>1036.108</ele>
        <time>2017-12-09T17:22:00Z</time>
      </trkpt>
      <trkpt lat="40.890239" lon="-2.931005">
        <ele>1036.474</ele>
        <time>2017-12-09T17:22:01Z</time>
      </trkpt>
      <trkpt lat="40.890151" lon="-2.931126">
        <ele>1036.643</ele>
        <time>2017-12-09T17:22:02Z</time>
      </trkpt>
      <trkpt lat="40.890063" lon="-2.931249">
        <ele>1036.346</ele>
        <time>2017-12-09T17:22:03Z</time>
      </trkpt>
      <trkpt lat="40.889973" lon="-2.931377">
        <ele>1036.447</ele>
        <time>2017-12-09T17:22:04Z</time>
      </trkpt>
      <trkpt lat="40.889892" lon="-2.931505">
        <ele>1036.451</ele>
        <time>2017-12-09T17:22:05Z</time>
      </trkpt>
      <trkpt lat="40.889814" lon="-2.931628">
        <ele>1036.412</ele>
        <time>2017-12-09T17:22:06Z</time>
      </trkpt>
      <trkpt lat="40.889728" lon="-2.931736">
        <ele>1036.528</ele>
        <time>2017-12-09T17:22:07Z</time>
      </trkpt>
      <trkpt lat="40.889645" lon="-2.931855">
        <ele>1036.621</ele>
        <time>2017-12-09T17:22:08Z</time>
      </trkpt>
      <trkpt lat="40.889559" lon="-2.931986">
        <ele>1036.656</ele>
        <time>2017-12-09T17:22:09Z</time>
      </trkpt>
      <trkpt lat="40.889472" lon="-2.932108">
        <ele>1036.559</ele>
        <time>2017-12-09T17:22:10Z</time>
      </trkpt>
      <trkpt lat="40.889380" lon="-2.932239">
        <ele>1036.714</ele>
        <time>2017-12-09T17:22:11Z</time>
      </trkpt>
      <trkpt lat="40.889297" lon="-2.932368">
        <ele>1036.508</ele>
        <time>2017-12-09T17:22:12Z</time>
      </trkpt>
      <trkpt lat="40.889200" lon="-2.932492">
        <ele>1036.647</ele>
        <time>2017-12-09T17:22:13Z</time>
      </trkpt>
      <trkpt lat="40.889108" lon="-2.932620">
        <ele>1036.336</ele>
        <time>2017-12-09T17:22:14Z</time>
      </trkpt>
      <trkpt lat="40.889018" lon="-2.932751">
        <ele>1035.979</ele>
        <time>2017-12-09T17:22:15Z</time>
      </trkpt>
      <trkpt lat="40.888921" lon="-2.932884">
        <ele>1035.980</ele>
        <time>2017-12-09T17:22:16Z</time>
      </trkpt>
      <trkpt lat="40.888829" lon="-2.933009">
        <ele>1035.574</ele>
        <time>2017-12-09T17:22:17Z</time>
      </trkpt>
      <trkpt lat="40.888734" lon="-2.933137">
        <ele>1035.525</ele>
        <time>2017-12-09T17:22:18Z</time>
      </trkpt>
      <trkpt lat="40.888638" lon="-2.933256">
        <ele>1034.961</ele>
        <time>2017-12-09T17:22:19Z</time>
      </trkpt>
      <trkpt lat="40.888555" lon="-2.933369">
        <ele>1034.564</ele>
        <time>2017-12-09T17:22:20Z</time>
      </trkpt>
      <trkpt lat="40.888472" lon="-2.933490">
        <ele>1034.284</ele>
        <time>2017-12-09T17:22:21Z</time>
      </trkpt>
      <trkpt lat="40.888379" lon="-2.933612">
        <ele>1033.807</ele>
        <time>2017-12-09T17:22:22Z</time>
      </trkpt>
      <trkpt lat="40.888291" lon="-2.933737">
        <ele>1033.617</ele>
        <time>2017-12-09T17:22:23Z</time>
      </trkpt>
      <trkpt lat="40.888199" lon="-2.933862">
        <ele>1033.208</ele>
        <time>2017-12-09T17:22:24Z</time>
      </trkpt>
      <trkpt lat="40.888104" lon="-2.933995">
        <ele>1033.080</ele>
        <time>2017-12-09T17:22:25Z</time>
      </trkpt>
      <trkpt lat="40.888018" lon="-2.934125">
        <ele>1032.949</ele>
        <time>2017-12-09T17:22:26Z</time>
      </trkpt>
      <trkpt lat="40.887930" lon="-2.934252">
        <ele>1033.092</ele>
        <time>2017-12-09T17:22:27Z</time>
      </trkpt>
      <trkpt lat="40.887844" lon="-2.934380">
        <ele>1033.123</ele>
        <time>2017-12-09T17:22:28Z</time>
      </trkpt>
      <trkpt lat="40.887751" lon="-2.934499">
        <ele>1032.647</ele>
        <time>2017-12-09T17:22:29Z</time>
      </trkpt>
      <trkpt lat="40.887663" lon="-2.934608">
        <ele>1032.878</ele>
        <time>2017-12-09T17:22:30Z</time>
      </trkpt>
      <trkpt lat="40.887587" lon="-2.934717">
        <ele>1032.734</ele>
        <time>2017-12-09T17:22:31Z</time>
      </trkpt>
      <trkpt lat="40.887513" lon="-2.934814">
        <ele>1032.337</ele>
        <time>2017-12-09T17:22:32Z</time>
      </trkpt>
      <trkpt lat="40.887458" lon="-2.934897">
        <ele>1031.946</ele>
        <time>2017-12-09T17:22:33Z</time>
      </trkpt>
      <trkpt lat="40.887400" lon="-2.934980">
        <ele>1031.888</ele>
        <time>2017-12-09T17:22:34Z</time>
      </trkpt>
      <trkpt lat="40.887352" lon="-2.935051">
        <ele>1031.816</ele>
        <time>2017-12-09T17:22:35Z</time>
      </trkpt>
      <trkpt lat="40.887299" lon="-2.935129">
        <ele>1031.608</ele>
        <time>2017-12-09T17:22:36Z</time>
      </trkpt>
      <trkpt lat="40.887245" lon="-2.935206">
        <ele>1031.756</ele>
        <time>2017-12-09T17:22:37Z</time>
      </trkpt>
      <trkpt lat="40.887183" lon="-2.935283">
        <ele>1031.215</ele>
        <time>2017-12-09T17:22:38Z</time>
      </trkpt>
      <trkpt lat="40.887126" lon="-2.935368">
        <ele>1031.538</ele>
        <time>2017-12-09T17:22:39Z</time>
      </trkpt>
      <trkpt lat="40.887067" lon="-2.935446">
        <ele>1030.949</ele>
        <time>2017-12-09T17:22:40Z</time>
      </trkpt>
      <trkpt lat="40.887000" lon="-2.935537">
        <ele>1030.683</ele>
        <time>2017-12-09T17:22:41Z</time>
      </trkpt>
      <trkpt lat="40.886934" lon="-2.935628">
        <ele>1030.694</ele>
        <time>2017-12-09T17:22:42Z</time>
      </trkpt>
      <trkpt lat="40.886869" lon="-2.935723">
        <ele>1030.470</ele>
        <time>2017-12-09T17:22:43Z</time>
      </trkpt>
      <trkpt lat="40.886802" lon="-2.935819">
        <ele>1030.563</ele>
        <time>2017-12-09T17:22:44Z</time>
      </trkpt>
      <trkpt lat="40.886735" lon="-2.935912">
        <ele>1030.799</ele>
        <time>2017-12-09T17:22:45Z</time>
      </trkpt>
      <trkpt lat="40.886669" lon="-2.936003">
        <ele>1030.507</ele>
        <time>2017-12-09T17:22:46Z</time>
      </trkpt>
      <trkpt lat="40.886607" lon="-2.936093">
        <ele>1030.427</ele>
        <time>2017-12-09T17:22:47Z</time>
      </trkpt>
      <trkpt lat="40.886542" lon="-2.936177">
        <ele>1030.508</ele>
        <time>2017-12-09T17:22:48Z</time>
      </trkpt>
      <trkpt lat="40.886475" lon="-2.936256">
        <ele>1030.391</ele>
        <time>2017-12-09T17:22:49Z</time>
      </trkpt>
      <trkpt lat="40.886411" lon="-2.936333">
        <ele>1030.530</ele>
        <time>2017-12-09T17:22:50Z</time>
      </trkpt>
      <trkpt lat="40.886349" lon="-2.936417">
        <ele>1030.413</ele>
        <time>2017-12-09T17:22:51Z</time>
      </trkpt>
      <trkpt lat="40.886287" lon="-2.936508">
        <ele>1030.764</ele>
        <time>2017-12-09T17:22:52Z</time>
      </trkpt>
      <trkpt lat="40.886222" lon="-2.936600">
        <ele>1030.538</ele>
        <time>2017-12-09T17:22:53Z</time>
      </trkpt>
      <trkpt lat="40.886159" lon="-2.936692">
        <ele>1030.769</ele>
        <time>2017-12-09T17:22:54Z</time>
      </trkpt>
      <trkpt lat="40.886092" lon="-2.936786">
        <ele>1031.285</ele>
        <time>2017-12-09T17:22:55Z</time>
      </trkpt>
      <trkpt lat="40.886024" lon="-2.936878">
        <ele>1030.828</ele>
        <time>2017-12-09T17:22:56Z</time>
      </trkpt>
      <trkpt lat="40.885965" lon="-2.936966">
        <ele>1030.861</ele>
        <time>2017-12-09T17:22:57Z</time>
      </trkpt>
      <trkpt lat="40.885902" lon="-2.937047">
        <ele>1030.521</ele>
        <time>2017-12-09T17:22:58Z</time>
      </trkpt>
      <trkpt lat="40.885846" lon="-2.937133">
        <ele>1030.613</ele>
        <time>2017-12-09T17:22:59Z</time>
      </trkpt>
      <trkpt lat="40.885800" lon="-2.937221">
        <ele>1030.408</ele>
        <time>2017-12-09T17:23:00Z</time>
      </trkpt>
      <trkpt lat="40.885757" lon="-2.937297">
        <ele>1030.218</ele>
        <time>2017-12-09T17:23:01Z</time>
      </trkpt>
      <trkpt lat="40.885693" lon="-2.937347">
        <ele>1030.267</ele>
        <time>2017-12-09T17:23:02Z</time>
      </trkpt>
      <trkpt lat="40.885632" lon="-2.937410">
        <ele>1030.460</ele>
        <time>2017-12-09T17:23:03Z</time>
      </trkpt>
      <trkpt lat="40.885577" lon="-2.937481">
        <ele>1030.821</ele>
        <time>2017-12-09T17:23:04Z</time>
      </trkpt>
      <trkpt lat="40.885515" lon="-2.937573">
        <ele>1031.045</ele>
        <time>2017-12-09T17:23:05Z</time>
      </trkpt>
      <trkpt lat="40.885447" lon="-2.937663">
        <ele>1031.356</ele>
        <time>2017-12-09T17:23:06Z</time>
      </trkpt>
      <trkpt lat="40.885389" lon="-2.937758">
        <ele>1031.382</ele>
        <time>2017-12-09T17:23:07Z</time>
      </trkpt>
      <trkpt lat="40.885325" lon="-2.937862">
        <ele>1031.285</ele>
        <time>2017-12-09T17:23:08Z</time>
      </trkpt>
      <trkpt lat="40.885248" lon="-2.937953">
        <ele>1031.133</ele>
        <time>2017-12-09T17:23:09Z</time>
      </trkpt>
      <trkpt lat="40.885174" lon="-2.938039">
        <ele>1030.923</ele>
        <time>2017-12-09T17:23:10Z</time>
      </trkpt>
      <trkpt lat="40.885110" lon="-2.938114">
        <ele>1031.015</ele>
        <time>2017-12-09T17:23:11Z</time>
      </trkpt>
      <trkpt lat="40.885043" lon="-2.938204">
        <ele>1030.908</ele>
        <time>2017-12-09T17:23:12Z</time>
      </trkpt>
      <trkpt lat="40.884974" lon="-2.938304">
        <ele>1031.095</ele>
        <time>2017-12-09T17:23:13Z</time>
      </trkpt>
      <trkpt lat="40.884915" lon="-2.938413">
        <ele>1031.374</ele>
        <time>2017-12-09T17:23:14Z</time>
      </trkpt>
      <trkpt lat="40.884846" lon="-2.938513">
        <ele>1031.377</ele>
        <time>2017-12-09T17:23:15Z</time>
      </trkpt>
      <trkpt lat="40.884769" lon="-2.938610">
        <ele>1031.478</ele>
        <time>2017-12-09T17:23:16Z</time>
      </trkpt>
      <trkpt lat="40.884688" lon="-2.938715">
        <ele>1031.532</ele>
        <time>2017-12-09T17:23:17Z</time>
      </trkpt>
      <trkpt lat="40.884613" lon="-2.938828">
        <ele>1032.033</ele>
        <time>2017-12-09T17:23:18Z</time>
      </trkpt>
      <trkpt lat="40.884523" lon="-2.938939">
        <ele>1031.819</ele>
        <time>2017-12-09T17:23:19Z</time>
      </trkpt>
      <trkpt lat="40.884443" lon="-2.939053">
        <ele>1032.162</ele>
        <time>2017-12-09T17:23:20Z</time>
      </trkpt>
      <trkpt lat="40.884364" lon="-2.939155">
        <ele>1032.294</ele>
        <time>2017-12-09T17:23:21Z</time>
      </trkpt>
      <trkpt lat="40.884280" lon="-2.939273">
        <ele>1032.457</ele>
        <time>2017-12-09T17:23:22Z</time>
      </trkpt>
      <trkpt lat="40.884199" lon="-2.939399">
        <ele>1032.722</ele>
        <time>2017-12-09T17:23:23Z</time>
      </trkpt>
      <trkpt lat="40.884119" lon="-2.939520">
        <ele>1032.408</ele>
        <time>2017-12-09T17:23:24Z</time>
      </trkpt>
      <trkpt lat="40.884041" lon="-2.939624">
        <ele>1032.551</ele>
        <time>2017-12-09T17:23:25Z</time>
      </trkpt>
      <trkpt lat="40.883974" lon="-2.939733">
        <ele>1032.510</ele>
        <time>2017-12-09T17:23:26Z</time>
      </trkpt>
      <trkpt lat="40.883916" lon="-2.939834">
        <ele>1032.723</ele>
        <time>2017-12-09T17:23:27Z</time>
      </trkpt>
      <trkpt lat="40.883855" lon="-2.939913">
        <ele>1032.714</ele>
        <time>2017-12-09T17:23:28Z</time>
      </trkpt>
      <trkpt lat="40.883781" lon="-2.940000">
        <ele>1032.548</ele>
        <time>2017-12-09T17:23:29Z</time>
      </trkpt>
      <trkpt lat="40.883707" lon="-2.940092">
        <ele>1032.969</ele>
        <time>2017-12-09T17:23:30Z</time>
      </trkpt>
      <trkpt lat="40.883633" lon="-2.940190">
        <ele>1033.145</ele>
        <time>2017-12-09T17:23:31Z</time>
      </trkpt>
      <trkpt lat="40.883557" lon="-2.940302">
        <ele>1032.868</ele>
        <time>2017-12-09T17:23:32Z</time>
      </trkpt>
      <trkpt lat="40.883482" lon="-2.940408">
        <ele>1033.433</ele>
        <time>2017-12-09T17:23:33Z</time>
      </trkpt>
      <trkpt lat="40.883407" lon="-2.940503">
        <ele>1033.523</ele>
        <time>2017-12-09T17:23:34Z</time>
      </trkpt>
      <trkpt lat="40.883333" lon="-2.940600">
        <ele>1034.015</ele>
        <time>2017-12-09T17:23:35Z</time>
      </trkpt>
      <trkpt lat="40.883253" lon="-2.940702">
        <ele>1034.208</ele>
        <time>2017-12-09T17:23:36Z</time>
      </trkpt>
      <trkpt lat="40.883176" lon="-2.940801">
        <ele>1034.575</ele>
        <time>2017-12-09T17:23:37Z</time>
      </trkpt>
      <trkpt lat="40.883105" lon="-2.940904">
        <ele>1034.924</ele>
        <time>2017-12-09T17:23:38Z</time>
      </trkpt>
      <trkpt lat="40.883022" lon="-2.941005">
        <ele>1035.077</ele>
        <time>2017-12-09T17:23:39Z</time>
      </trkpt>
      <trkpt lat="40.882943" lon="-2.941106">
        <ele>1035.168</ele>
        <time>2017-12-09T17:23:40Z</time>
      </trkpt>
      <trkpt lat="40.882874" lon="-2.941206">
        <ele>1035.432</ele>
        <time>2017-12-09T17:23:41Z</time>
      </trkpt>
      <trkpt lat="40.882807" lon="-2.941318">
        <ele>1035.953</ele>
        <time>2017-12-09T17:23:42Z</time>
      </trkpt>
      <trkpt lat="40.882732" lon="-2.941426">
        <ele>1036.099</ele>
        <time>2017-12-09T17:23:43Z</time>
      </trkpt>
      <trkpt lat="40.882659" lon="-2.941529">
        <ele>1036.082</ele>
        <time>2017-12-09T17:23:44Z</time>
      </trkpt>
      <trkpt lat="40.882587" lon="-2.941638">
        <ele>1036.514</ele>
        <time>2017-12-09T17:23:45Z</time>
      </trkpt>
      <trkpt lat="40.882507" lon="-2.941741">
        <ele>1036.554</ele>
        <time>2017-12-09T17:23:46Z</time>
      </trkpt>
      <trkpt lat="40.882425" lon="-2.941847">
        <ele>1036.509</ele>
        <time>2017-12-09T17:23:47Z</time>
      </trkpt>
      <trkpt lat="40.882353" lon="-2.941953">
        <ele>1036.708</ele>
        <time>2017-12-09T17:23:48Z</time>
      </trkpt>
      <trkpt lat="40.882276" lon="-2.942061">
        <ele>1036.453</ele>
        <time>2017-12-09T17:23:49Z</time>
      </trkpt>
      <trkpt lat="40.882212" lon="-2.942161">
        <ele>1036.552</ele>
        <time>2017-12-09T17:23:50Z</time>
      </trkpt>
      <trkpt lat="40.882148" lon="-2.942248">
        <ele>1036.325</ele>
        <time>2017-12-09T17:23:51Z</time>
      </trkpt>
      <trkpt lat="40.882080" lon="-2.942337">
        <ele>1036.286</ele>
        <time>2017-12-09T17:23:52Z</time>
      </trkpt>
      <trkpt lat="40.882025" lon="-2.942415">
        <ele>1036.390</ele>
        <time>2017-12-09T17:23:53Z</time>
      </trkpt>
      <trkpt lat="40.881973" lon="-2.942476">
        <ele>1036.351</ele>
        <time>2017-12-09T17:23:54Z</time>
      </trkpt>
      <trkpt lat="40.881941" lon="-2.942533">
        <ele>1036.367</ele>
        <time>2017-12-09T17:23:55Z</time>
      </trkpt>
      <trkpt lat="40.881891" lon="-2.942606">
        <ele>1036.010</ele>
        <time>2017-12-09T17:23:57Z</time>
      </trkpt>
      <trkpt lat="40.881863" lon="-2.942658">
        <ele>1036.594</ele>
        <time>2017-12-09T17:24:00Z</time>
      </trkpt>
      <trkpt lat="40.881837" lon="-2.942729">
        <ele>1037.157</ele>
        <time>2017-12-09T17:24:02Z</time>
      </trkpt>
      <trkpt lat="40.881797" lon="-2.942771">
        <ele>1037.322</ele>
        <time>2017-12-09T17:24:03Z</time>
      </trkpt>
      <trkpt lat="40.881756" lon="-2.942811">
        <ele>1037.208</ele>
        <time>2017-12-09T17:24:04Z</time>
      </trkpt>
      <trkpt lat="40.881712" lon="-2.942849">
        <ele>1037.051</ele>
        <time>2017-12-09T17:24:05Z</time>
      </trkpt>
      <trkpt lat="40.881664" lon="-2.942884">
        <ele>1037.020</ele>
        <time>2017-12-09T17:24:06Z</time>
      </trkpt>
      <trkpt lat="40.881609" lon="-2.942916">
        <ele>1037.773</ele>
        <time>2017-12-09T17:24:07Z</time>
      </trkpt>
      <trkpt lat="40.881547" lon="-2.942967">
        <ele>1037.434</ele>
        <time>2017-12-09T17:24:08Z</time>
      </trkpt>
      <trkpt lat="40.881479" lon="-2.943028">
        <ele>1038.078</ele>
        <time>2017-12-09T17:24:09Z</time>
      </trkpt>
      <trkpt lat="40.881407" lon="-2.943091">
        <ele>1037.719</ele>
        <time>2017-12-09T17:24:10Z</time>
      </trkpt>
      <trkpt lat="40.881339" lon="-2.943154">
        <ele>1037.815</ele>
        <time>2017-12-09T17:24:11Z</time>
      </trkpt>
      <trkpt lat="40.881270" lon="-2.943211">
        <ele>1037.838</ele>
        <time>2017-12-09T17:24:12Z</time>
      </trkpt>
      <trkpt lat="40.881201" lon="-2.943279">
        <ele>1037.652</ele>
        <time>2017-12-09T17:24:13Z</time>
      </trkpt>
      <trkpt lat="40.881140" lon="-2.943331">
        <ele>1037.653</ele>
        <time>2017-12-09T17:24:14Z</time>
      </trkpt>
      <trkpt lat="40.881083" lon="-2.943388">
        <ele>1037.408</ele>
        <time>2017-12-09T17:24:15Z</time>
      </trkpt>
      <trkpt lat="40.881026" lon="-2.943431">
        <ele>1037.808</ele>
        <time>2017-12-09T17:24:16Z</time>
      </trkpt>
      <trkpt lat="40.880958" lon="-2.943477">
        <ele>1037.547</ele>
        <time>2017-12-09T17:24:17Z</time>
      </trkpt>
      <trkpt lat="40.880894" lon="-2.943519">
        <ele>1037.766</ele>
        <time>2017-12-09T17:24:18Z</time>
      </trkpt>
      <trkpt lat="40.880822" lon="-2.943584">
        <ele>1037.759</ele>
        <time>2017-12-09T17:24:19Z</time>
      </trkpt>
      <trkpt lat="40.880744" lon="-2.943647">
        <ele>1037.720</ele>
        <time>2017-12-09T17:24:20Z</time>
      </trkpt>
      <trkpt lat="40.880675" lon="-2.943714">
        <ele>1037.864</ele>
        <time>2017-12-09T17:24:21Z</time>
      </trkpt>
      <trkpt lat="40.880600" lon="-2.943781">
        <ele>1037.715</ele>
        <time>2017-12-09T17:24:22Z</time>
      </trkpt>
      <trkpt lat="40.880537" lon="-2.943846">
        <ele>1037.531</ele>
        <time>2017-12-09T17:24:23Z</time>
      </trkpt>
      <trkpt lat="40.880470" lon="-2.943909">
        <ele>1037.424</ele>
        <time>2017-12-09T17:24:24Z</time>
      </trkpt>
      <trkpt lat="40.880403" lon="-2.943967">
        <ele>1037.546</ele>
        <time>2017-12-09T17:24:25Z</time>
      </trkpt>
      <trkpt lat="40.880340" lon="-2.944022">
        <ele>1037.388</ele>
        <time>2017-12-09T17:24:26Z</time>
      </trkpt>
      <trkpt lat="40.880277" lon="-2.944069">
        <ele>1037.016</ele>
        <time>2017-12-09T17:24:27Z</time>
      </trkpt>
      <trkpt lat="40.880210" lon="-2.944123">
        <ele>1037.708</ele>
        <time>2017-12-09T17:24:28Z</time>
      </trkpt>
      <trkpt lat="40.880145" lon="-2.944177">
        <ele>1037.266</ele>
        <time>2017-12-09T17:24:29Z</time>
      </trkpt>
      <trkpt lat="40.880071" lon="-2.944228">
        <ele>1037.335</ele>
        <time>2017-12-09T17:24:30Z</time>
      </trkpt>
      <trkpt lat="40.879996" lon="-2.944289">
        <ele>1037.698</ele>
        <time>2017-12-09T17:24:31Z</time>
      </trkpt>
      <trkpt lat="40.879917" lon="-2.944353">
        <ele>1037.579</ele>
        <time>2017-12-09T17:24:32Z</time>
      </trkpt>
      <trkpt lat="40.879838" lon="-2.944425">
        <ele>1037.513</ele>
        <time>2017-12-09T17:24:33Z</time>
      </trkpt>
      <trkpt lat="40.879754" lon="-2.944494">
        <ele>1037.774</ele>
        <time>2017-12-09T17:24:34Z</time>
      </trkpt>
      <trkpt lat="40.879667" lon="-2.944574">
        <ele>1037.660</ele>
        <time>2017-12-09T17:24:35Z</time>
      </trkpt>
      <trkpt lat="40.879577" lon="-2.944652">
        <ele>1037.383</ele>
        <time>2017-12-09T17:24:36Z</time>
      </trkpt>
      <trkpt lat="40.879485" lon="-2.944737">
        <ele>1037.172</ele>
        <time>2017-12-09T17:24:37Z</time>
      </trkpt>
      <trkpt lat="40.879386" lon="-2.944822">
        <ele>1037.213</ele>
        <time>2017-12-09T17:24:38Z</time>
      </trkpt>
      <trkpt lat="40.879292" lon="-2.944891">
        <ele>1036.914</ele>
        <time>2017-12-09T17:24:39Z</time>
      </trkpt>
      <trkpt lat="40.879198" lon="-2.944965">
        <ele>1036.508</ele>
        <time>2017-12-09T17:24:40Z</time>
      </trkpt>
      <trkpt lat="40.879106" lon="-2.945044">
        <ele>1036.119</ele>
        <time>2017-12-09T17:24:41Z</time>
      </trkpt>
      <trkpt lat="40.879023" lon="-2.945120">
        <ele>1035.568</ele>
        <time>2017-12-09T17:24:42Z</time>
      </trkpt>
      <trkpt lat="40.878946" lon="-2.945195">
        <ele>1035.531</ele>
        <time>2017-12-09T17:24:43Z</time>
      </trkpt>
      <trkpt lat="40.878864" lon="-2.945269">
        <ele>1035.862</ele>
        <time>2017-12-09T17:24:44Z</time>
      </trkpt>
      <trkpt lat="40.878788" lon="-2.945321">
        <ele>1035.546</ele>
        <time>2017-12-09T17:24:45Z</time>
      </trkpt>
      <trkpt lat="40.878712" lon="-2.945383">
        <ele>1035.527</ele>
        <time>2017-12-09T17:24:46Z</time>
      </trkpt>
      <trkpt lat="40.878628" lon="-2.945450">
        <ele>1035.763</ele>
        <time>2017-12-09T17:24:47Z</time>
      </trkpt>
      <trkpt lat="40.878543" lon="-2.945525">
        <ele>1035.576</ele>
        <time>2017-12-09T17:24:48Z</time>
      </trkpt>
      <trkpt lat="40.878450" lon="-2.945603">
        <ele>1035.679</ele>
        <time>2017-12-09T17:24:49Z</time>
      </trkpt>
      <trkpt lat="40.878355" lon="-2.945683">
        <ele>1035.705</ele>
        <time>2017-12-09T17:24:50Z</time>
      </trkpt>
      <trkpt lat="40.878257" lon="-2.945764">
        <ele>1035.825</ele>
        <time>2017-12-09T17:24:51Z</time>
      </trkpt>
      <trkpt lat="40.878169" lon="-2.945838">
        <ele>1035.608</ele>
        <time>2017-12-09T17:24:52Z</time>
      </trkpt>
      <trkpt lat="40.878088" lon="-2.945905">
        <ele>1035.489</ele>
        <time>2017-12-09T17:24:53Z</time>
      </trkpt>
      <trkpt lat="40.878015" lon="-2.945974">
        <ele>1035.138</ele>
        <time>2017-12-09T17:24:54Z</time>
      </trkpt>
      <trkpt lat="40.877951" lon="-2.946034">
        <ele>1034.741</ele>
        <time>2017-12-09T17:24:55Z</time>
      </trkpt>
      <trkpt lat="40.877887" lon="-2.946075">
        <ele>1034.212</ele>
        <time>2017-12-09T17:24:56Z</time>
      </trkpt>
      <trkpt lat="40.877816" lon="-2.946091">
        <ele>1034.766</ele>
        <time>2017-12-09T17:24:57Z</time>
      </trkpt>
      <trkpt lat="40.877741" lon="-2.946070">
        <ele>1034.477</ele>
        <time>2017-12-09T17:24:58Z</time>
      </trkpt>
      <trkpt lat="40.877667" lon="-2.946020">
        <ele>1035.073</ele>
        <time>2017-12-09T17:24:59Z</time>
      </trkpt>
      <trkpt lat="40.877598" lon="-2.945950">
        <ele>1035.026</ele>
        <time>2017-12-09T17:25:00Z</time>
      </trkpt>
      <trkpt lat="40.877519" lon="-2.945861">
        <ele>1035.124</ele>
        <time>2017-12-09T17:25:01Z</time>
      </trkpt>
      <trkpt lat="40.877431" lon="-2.945765">
        <ele>1035.504</ele>
        <time>2017-12-09T17:25:02Z</time>
      </trkpt>
      <trkpt lat="40.877352" lon="-2.945675">
        <ele>1036.014</ele>
        <time>2017-12-09T17:25:03Z</time>
      </trkpt>
      <trkpt lat="40.877270" lon="-2.945576">
        <ele>1036.008</ele>
        <time>2017-12-09T17:25:04Z</time>
      </trkpt>
      <trkpt lat="40.877183" lon="-2.945484">
        <ele>1036.594</ele>
        <time>2017-12-09T17:25:05Z</time>
      </trkpt>
      <trkpt lat="40.877101" lon="-2.945386">
        <ele>1036.463</ele>
        <time>2017-12-09T17:25:06Z</time>
      </trkpt>
      <trkpt lat="40.877027" lon="-2.945298">
        <ele>1036.096</ele>
        <time>2017-12-09T17:25:07Z</time>
      </trkpt>
      <trkpt lat="40.876957" lon="-2.945213">
        <ele>1035.917</ele>
        <time>2017-12-09T17:25:08Z</time>
      </trkpt>
      <trkpt lat="40.876887" lon="-2.945135">
        <ele>1036.291</ele>
        <time>2017-12-09T17:25:09Z</time>
      </trkpt>
      <trkpt lat="40.876832" lon="-2.945055">
        <ele>1035.812</ele>
        <time>2017-12-09T17:25:10Z</time>
      </trkpt>
      <trkpt lat="40.876788" lon="-2.944984">
        <ele>1035.878</ele>
        <time>2017-12-09T17:25:11Z</time>
      </trkpt>
      <trkpt lat="40.876745" lon="-2.944884">
        <ele>1035.411</ele>
        <time>2017-12-09T17:25:12Z</time>
      </trkpt>
      <trkpt lat="40.876700" lon="-2.944814">
        <ele>1035.457</ele>
        <time>2017-12-09T17:25:13Z</time>
      </trkpt>
      <trkpt lat="40.876660" lon="-2.944726">
        <ele>1034.900</ele>
        <time>2017-12-09T17:25:14Z</time>
      </trkpt>
      <trkpt lat="40.876633" lon="-2.944659">
        <ele>1035.020</ele>
        <time>2017-12-09T17:25:15Z</time>
      </trkpt>
      <trkpt lat="40.876591" lon="-2.944594">
        <ele>1034.508</ele>
        <time>2017-12-09T17:25:16Z</time>
      </trkpt>
      <trkpt lat="40.876545" lon="-2.944568">
        <ele>1034.277</ele>
        <time>2017-12-09T17:25:17Z</time>
      </trkpt>
      <trkpt lat="40.876494" lon="-2.944574">
        <ele>1034.096</ele>
        <time>2017-12-09T17:25:18Z</time>
      </trkpt>
      <trkpt lat="40.876441" lon="-2.944604">
        <ele>1033.919</ele>
        <time>2017-12-09T17:25:19Z</time>
      </trkpt>
      <trkpt lat="40.876392" lon="-2.944654">
        <ele>1033.830</ele>
        <time>2017-12-09T17:25:20Z</time>
      </trkpt>
      <trkpt lat="40.876341" lon="-2.944714">
        <ele>1034.034</ele>
        <time>2017-12-09T17:25:21Z</time>
      </trkpt>
      <trkpt lat="40.876281" lon="-2.944778">
        <ele>1034.225</ele>
        <time>2017-12-09T17:25:22Z</time>
      </trkpt>
      <trkpt lat="40.876215" lon="-2.944857">
        <ele>1034.391</ele>
        <time>2017-12-09T17:25:23Z</time>
      </trkpt>
      <trkpt lat="40.876148" lon="-2.944933">
        <ele>1034.264</ele>
        <time>2017-12-09T17:25:24Z</time>
      </trkpt>
      <trkpt lat="40.876075" lon="-2.945015">
        <ele>1034.482</ele>
        <time>2017-12-09T17:25:25Z</time>
      </trkpt>
      <trkpt lat="40.876000" lon="-2.945100">
        <ele>1033.943</ele>
        <time>2017-12-09T17:25:26Z</time>
      </trkpt>
      <trkpt lat="40.875927" lon="-2.945185">
        <ele>1034.017</ele>
        <time>2017-12-09T17:25:27Z</time>
      </trkpt>
      <trkpt lat="40.875852" lon="-2.945275">
        <ele>1034.208</ele>
        <time>2017-12-09T17:25:28Z</time>
      </trkpt>
      <trkpt lat="40.875781" lon="-2.945365">
        <ele>1034.020</ele>
        <time>2017-12-09T17:25:29Z</time>
      </trkpt>
      <trkpt lat="40.875702" lon="-2.945463">
        <ele>1034.319</ele>
        <time>2017-12-09T17:25:30Z</time>
      </trkpt>
      <trkpt lat="40.875620" lon="-2.945551">
        <ele>1034.112</ele>
        <time>2017-12-09T17:25:31Z</time>
      </trkpt>
      <trkpt lat="40.875540" lon="-2.945642">
        <ele>1034.023</ele>
        <time>2017-12-09T17:25:32Z</time>
      </trkpt>
      <trkpt lat="40.875458" lon="-2.945729">
        <ele>1033.837</ele>
        <time>2017-12-09T17:25:33Z</time>
      </trkpt>
      <trkpt lat="40.875375" lon="-2.945815">
        <ele>1033.648</ele>
        <time>2017-12-09T17:25:34Z</time>
      </trkpt>
      <trkpt lat="40.875293" lon="-2.945911">
        <ele>1033.814</ele>
        <time>2017-12-09T17:25:35Z</time>
      </trkpt>
      <trkpt lat="40.875215" lon="-2.946009">
        <ele>1033.617</ele>
        <time>2017-12-09T17:25:36Z</time>
      </trkpt>
      <trkpt lat="40.875141" lon="-2.946100">
        <ele>1033.367</ele>
        <time>2017-12-09T17:25:37Z</time>
      </trkpt>
      <trkpt lat="40.875056" lon="-2.946208">
        <ele>1033.381</ele>
        <time>2017-12-09T17:25:38Z</time>
      </trkpt>
      <trkpt lat="40.874974" lon="-2.946303">
        <ele>1033.319</ele>
        <time>2017-12-09T17:25:39Z</time>
      </trkpt>
      <trkpt lat="40.874880" lon="-2.946401">
        <ele>1033.508</ele>
        <time>2017-12-09T17:25:40Z</time>
      </trkpt>
      <trkpt lat="40.874786" lon="-2.946499">
        <ele>1033.768</ele>
        <time>2017-12-09T17:25:41Z</time>
      </trkpt>
      <trkpt lat="40.874697" lon="-2.946601">
        <ele>1034.037</ele>
        <time>2017-12-09T17:25:42Z</time>
      </trkpt>
      <trkpt lat="40.874603" lon="-2.946701">
        <ele>1033.510</ele>
        <time>2017-12-09T17:25:43Z</time>
      </trkpt>
      <trkpt lat="40.874503" lon="-2.946806">
        <ele>1033.511</ele>
        <time>2017-12-09T17:25:44Z</time>
      </trkpt>
      <trkpt lat="40.874405" lon="-2.946910">
        <ele>1033.525</ele>
        <time>2017-12-09T17:25:45Z</time>
      </trkpt>
      <trkpt lat="40.874314" lon="-2.947014">
        <ele>1033.616</ele>
        <time>2017-12-09T17:25:46Z</time>
      </trkpt>
      <trkpt lat="40.874213" lon="-2.947118">
        <ele>1033.732</ele>
        <time>2017-12-09T17:25:47Z</time>
      </trkpt>
      <trkpt lat="40.874113" lon="-2.947223">
        <ele>1033.575</ele>
        <time>2017-12-09T17:25:48Z</time>
      </trkpt>
      <trkpt lat="40.874017" lon="-2.947339">
        <ele>1033.237</ele>
        <time>2017-12-09T17:25:49Z</time>
      </trkpt>
      <trkpt lat="40.873920" lon="-2.947453">
        <ele>1032.849</ele>
        <time>2017-12-09T17:25:50Z</time>
      </trkpt>
      <trkpt lat="40.873822" lon="-2.947565">
        <ele>1033.113</ele>
        <time>2017-12-09T17:25:51Z</time>
      </trkpt>
      <trkpt lat="40.873722" lon="-2.947674">
        <ele>1032.708</ele>
        <time>2017-12-09T17:25:52Z</time>
      </trkpt>
      <trkpt lat="40.873622" lon="-2.947787">
        <ele>1032.665</ele>
        <time>2017-12-09T17:25:53Z</time>
      </trkpt>
      <trkpt lat="40.873523" lon="-2.947894">
        <ele>1033.094</ele>
        <time>2017-12-09T17:25:54Z</time>
      </trkpt>
      <trkpt lat="40.873428" lon="-2.948000">
        <ele>1032.797</ele>
        <time>2017-12-09T17:25:55Z</time>
      </trkpt>
      <trkpt lat="40.873327" lon="-2.948097">
        <ele>1032.538</ele>
        <time>2017-12-09T17:25:56Z</time>
      </trkpt>
      <trkpt lat="40.873226" lon="-2.948194">
        <ele>1031.952</ele>
        <time>2017-12-09T17:25:57Z</time>
      </trkpt>
      <trkpt lat="40.873133" lon="-2.948287">
        <ele>1032.453</ele>
        <time>2017-12-09T17:25:58Z</time>
      </trkpt>
      <trkpt lat="40.873040" lon="-2.948392">
        <ele>1031.729</ele>
        <time>2017-12-09T17:25:59Z</time>
      </trkpt>
      <trkpt lat="40.872950" lon="-2.948496">
        <ele>1031.372</ele>
        <time>2017-12-09T17:26:00Z</time>
      </trkpt>
      <trkpt lat="40.872859" lon="-2.948609">
        <ele>1030.934</ele>
        <time>2017-12-09T17:26:01Z</time>
      </trkpt>
      <trkpt lat="40.872770" lon="-2.948711">
        <ele>1030.855</ele>
        <time>2017-12-09T17:26:02Z</time>
      </trkpt>
      <trkpt lat="40.872678" lon="-2.948798">
        <ele>1030.210</ele>
        <time>2017-12-09T17:26:03Z</time>
      </trkpt>
      <trkpt lat="40.872592" lon="-2.948891">
        <ele>1030.308</ele>
        <time>2017-12-09T17:26:04Z</time>
      </trkpt>
      <trkpt lat="40.872511" lon="-2.948975">
        <ele>1030.395</ele>
        <time>2017-12-09T17:26:05Z</time>
      </trkpt>
      <trkpt lat="40.872436" lon="-2.949064">
        <ele>1030.254</ele>
        <time>2017-12-09T17:26:06Z</time>
      </trkpt>
      <trkpt lat="40.872358" lon="-2.949149">
        <ele>1030.197</ele>
        <time>2017-12-09T17:26:07Z</time>
      </trkpt>
      <trkpt lat="40.872278" lon="-2.949245">
        <ele>1029.448</ele>
        <time>2017-12-09T17:26:08Z</time>
      </trkpt>
      <trkpt lat="40.872207" lon="-2.949334">
        <ele>1029.232</ele>
        <time>2017-12-09T17:26:09Z</time>
      </trkpt>
      <trkpt lat="40.872132" lon="-2.949421">
        <ele>1029.053</ele>
        <time>2017-12-09T17:26:10Z</time>
      </trkpt>
      <trkpt lat="40.872070" lon="-2.949495">
        <ele>1028.819</ele>
        <time>2017-12-09T17:26:11Z</time>
      </trkpt>
      <trkpt lat="40.871991" lon="-2.949572">
        <ele>1028.832</ele>
        <time>2017-12-09T17:26:12Z</time>
      </trkpt>
      <trkpt lat="40.871920" lon="-2.949657">
        <ele>1028.551</ele>
        <time>2017-12-09T17:26:13Z</time>
      </trkpt>
      <trkpt lat="40.871852" lon="-2.949732">
        <ele>1027.801</ele>
        <time>2017-12-09T17:26:14Z</time>
      </trkpt>
      <trkpt lat="40.871786" lon="-2.949806">
        <ele>1027.811</ele>
        <time>2017-12-09T17:26:15Z</time>
      </trkpt>
      <trkpt lat="40.871725" lon="-2.949877">
        <ele>1027.608</ele>
        <time>2017-12-09T17:26:16Z</time>
      </trkpt>
      <trkpt lat="40.871676" lon="-2.949923">
        <ele>1027.557</ele>
        <time>2017-12-09T17:26:17Z</time>
      </trkpt>
      <trkpt lat="40.871624" lon="-2.949980">
        <ele>1027.146</ele>
        <time>2017-12-09T17:26:18Z</time>
      </trkpt>
      <trkpt lat="40.871575" lon="-2.950037">
        <ele>1027.199</ele>
        <time>2017-12-09T17:26:19Z</time>
      </trkpt>
      <trkpt lat="40.871529" lon="-2.950096">
        <ele>1027.010</ele>
        <time>2017-12-09T17:26:20Z</time>
      </trkpt>
      <trkpt lat="40.871488" lon="-2.950148">
        <ele>1026.934</ele>
        <time>2017-12-09T17:26:21Z</time>
      </trkpt>
      <trkpt lat="40.871442" lon="-2.950236">
        <ele>1026.885</ele>
        <time>2017-12-09T17:26:22Z</time>
      </trkpt>
      <trkpt lat="40.871393" lon="-2.950255">
        <ele>1026.321</ele>
        <time>2017-12-09T17:26:25Z</time>
      </trkpt>
      <trkpt lat="40.871337" lon="-2.950260">
        <ele>1026.884</ele>
        <time>2017-12-09T17:26:28Z</time>
      </trkpt>
      <trkpt lat="40.871286" lon="-2.950194">
        <ele>1027.382</ele>
        <time>2017-12-09T17:26:30Z</time>
      </trkpt>
      <trkpt lat="40.871268" lon="-2.950135">
        <ele>1027.343</ele>
        <time>2017-12-09T17:26:31Z</time>
      </trkpt>
      <trkpt lat="40.871249" lon="-2.950080">
        <ele>1027.117</ele>
        <time>2017-12-09T17:26:32Z</time>
      </trkpt>
      <trkpt lat="40.871217" lon="-2.949969">
        <ele>1027.208</ele>
        <time>2017-12-09T17:26:34Z</time>
      </trkpt>
      <trkpt lat="40.871188" lon="-2.949903">
        <ele>1027.310</ele>
        <time>2017-12-09T17:26:35Z</time>
      </trkpt>
      <trkpt lat="40.871158" lon="-2.949816">
        <ele>1027.549</ele>
        <time>2017-12-09T17:26:36Z</time>
      </trkpt>
      <trkpt lat="40.871122" lon="-2.949715">
        <ele>1027.892</ele>
        <time>2017-12-09T17:26:37Z</time>
      </trkpt>
      <trkpt lat="40.871076" lon="-2.949604">
        <ele>1028.173</ele>
        <time>2017-12-09T17:26:38Z</time>
      </trkpt>
      <trkpt lat="40.871025" lon="-2.949495">
        <ele>1028.297</ele>
        <time>2017-12-09T17:26:39Z</time>
      </trkpt>
      <trkpt lat="40.870976" lon="-2.949376">
        <ele>1028.518</ele>
        <time>2017-12-09T17:26:40Z</time>
      </trkpt>
      <trkpt lat="40.870926" lon="-2.949248">
        <ele>1028.564</ele>
        <time>2017-12-09T17:26:41Z</time>
      </trkpt>
      <trkpt lat="40.870877" lon="-2.949125">
        <ele>1028.717</ele>
        <time>2017-12-09T17:26:42Z</time>
      </trkpt>
      <trkpt lat="40.870833" lon="-2.949002">
        <ele>1028.629</ele>
        <time>2017-12-09T17:26:43Z</time>
      </trkpt>
      <trkpt lat="40.870792" lon="-2.948898">
        <ele>1028.700</ele>
        <time>2017-12-09T17:26:44Z</time>
      </trkpt>
      <trkpt lat="40.870744" lon="-2.948790">
        <ele>1028.920</ele>
        <time>2017-12-09T17:26:45Z</time>
      </trkpt>
      <trkpt lat="40.870704" lon="-2.948673">
        <ele>1029.208</ele>
        <time>2017-12-09T17:26:46Z</time>
      </trkpt>
      <trkpt lat="40.870654" lon="-2.948565">
        <ele>1029.144</ele>
        <time>2017-12-09T17:26:47Z</time>
      </trkpt>
      <trkpt lat="40.870607" lon="-2.948450">
        <ele>1029.283</ele>
        <time>2017-12-09T17:26:48Z</time>
      </trkpt>
      <trkpt lat="40.870561" lon="-2.948330">
        <ele>1029.256</ele>
        <time>2017-12-09T17:26:49Z</time>
      </trkpt>
      <trkpt lat="40.870512" lon="-2.948211">
        <ele>1029.297</ele>
        <time>2017-12-09T17:26:50Z</time>
      </trkpt>
      <trkpt lat="40.870465" lon="-2.948086">
        <ele>1029.441</ele>
        <time>2017-12-09T17:26:51Z</time>
      </trkpt>
      <trkpt lat="40.870404" lon="-2.947952">
        <ele>1029.772</ele>
        <time>2017-12-09T17:26:52Z</time>
      </trkpt>
      <trkpt lat="40.870350" lon="-2.947812">
        <ele>1030.028</ele>
        <time>2017-12-09T17:26:53Z</time>
      </trkpt>
      <trkpt lat="40.870297" lon="-2.947677">
        <ele>1030.181</ele>
        <time>2017-12-09T17:26:54Z</time>
      </trkpt>
      <trkpt lat="40.870244" lon="-2.947540">
        <ele>1030.183</ele>
        <time>2017-12-09T17:26:55Z</time>
      </trkpt>
      <trkpt lat="40.870179" lon="-2.947397">
        <ele>1030.125</ele>
        <time>2017-12-09T17:26:56Z</time>
      </trkpt>
      <trkpt lat="40.870123" lon="-2.947257">
        <ele>1030.117</ele>
        <time>2017-12-09T17:26:57Z</time>
      </trkpt>
      <trkpt lat="40.870067" lon="-2.947123">
        <ele>1030.608</ele>
        <time>2017-12-09T17:26:58Z</time>
      </trkpt>
      <trkpt lat="40.870013" lon="-2.946980">
        <ele>1030.680</ele>
        <time>2017-12-09T17:26:59Z</time>
      </trkpt>
      <trkpt lat="40.869955" lon="-2.946842">
        <ele>1030.869</ele>
        <time>2017-12-09T17:27:00Z</time>
      </trkpt>
      <trkpt lat="40.869898" lon="-2.946703">
        <ele>1031.052</ele>
        <time>2017-12-09T17:27:01Z</time>
      </trkpt>
      <trkpt lat="40.869843" lon="-2.946560">
        <ele>1030.873</ele>
        <time>2017-12-09T17:27:02Z</time>
      </trkpt>
      <trkpt lat="40.869789" lon="-2.946424">
        <ele>1031.387</ele>
        <time>2017-12-09T17:27:03Z</time>
      </trkpt>
      <trkpt lat="40.869725" lon="-2.946273">
        <ele>1031.878</ele>
        <time>2017-12-09T17:27:04Z</time>
      </trkpt>
      <trkpt lat="40.869667" lon="-2.946123">
        <ele>1031.974</ele>
        <time>2017-12-09T17:27:05Z</time>
      </trkpt>
      <trkpt lat="40.869603" lon="-2.945978">
        <ele>1032.427</ele>
        <time>2017-12-09T17:27:06Z</time>
      </trkpt>
      <trkpt lat="40.869541" lon="-2.945815">
        <ele>1032.331</ele>
        <time>2017-12-09T17:27:07Z</time>
      </trkpt>
      <trkpt lat="40.869481" lon="-2.945657">
        <ele>1032.461</ele>
        <time>2017-12-09T17:27:08Z</time>
      </trkpt>
      <trkpt lat="40.869413" lon="-2.945504">
        <ele>1032.707</ele>
        <time>2017-12-09T17:27:09Z</time>
      </trkpt>
      <trkpt lat="40.869352" lon="-2.945351">
        <ele>1033.008</ele>
        <time>2017-12-09T17:27:10Z</time>
      </trkpt>
      <trkpt lat="40.869286" lon="-2.945195">
        <ele>1033.065</ele>
        <time>2017-12-09T17:27:11Z</time>
      </trkpt>
      <trkpt lat="40.869220" lon="-2.945043">
        <ele>1033.214</ele>
        <time>2017-12-09T17:27:12Z</time>
      </trkpt>
      <trkpt lat="40.869156" lon="-2.944882">
        <ele>1033.427</ele>
        <time>2017-12-09T17:27:13Z</time>
      </trkpt>
      <trkpt lat="40.869092" lon="-2.944728">
        <ele>1033.528</ele>
        <time>2017-12-09T17:27:14Z</time>
      </trkpt>
      <trkpt lat="40.869031" lon="-2.944573">
        <ele>1033.342</ele>
        <time>2017-12-09T17:27:15Z</time>
      </trkpt>
      <trkpt lat="40.868967" lon="-2.944425">
        <ele>1032.723</ele>
        <time>2017-12-09T17:27:16Z</time>
      </trkpt>
      <trkpt lat="40.868912" lon="-2.944277">
        <ele>1032.659</ele>
        <time>2017-12-09T17:27:17Z</time>
      </trkpt>
      <trkpt lat="40.868855" lon="-2.944135">
        <ele>1032.642</ele>
        <time>2017-12-09T17:27:18Z</time>
      </trkpt>
      <trkpt lat="40.868796" lon="-2.943991">
        <ele>1032.183</ele>
        <time>2017-12-09T17:27:19Z</time>
      </trkpt>
      <trkpt lat="40.868742" lon="-2.943835">
        <ele>1032.125</ele>
        <time>2017-12-09T17:27:20Z</time>
      </trkpt>
      <trkpt lat="40.868691" lon="-2.943695">
        <ele>1032.017</ele>
        <time>2017-12-09T17:27:21Z</time>
      </trkpt>
      <trkpt lat="40.868630" lon="-2.943557">
        <ele>1031.808</ele>
        <time>2017-12-09T17:27:22Z</time>
      </trkpt>
      <trkpt lat="40.868579" lon="-2.943426">
        <ele>1031.730</ele>
        <time>2017-12-09T17:27:23Z</time>
      </trkpt>
      <trkpt lat="40.868520" lon="-2.943299">
        <ele>1031.739</ele>
        <time>2017-12-09T17:27:24Z</time>
      </trkpt>
      <trkpt lat="40.868475" lon="-2.943187">
        <ele>1031.692</ele>
        <time>2017-12-09T17:27:25Z</time>
      </trkpt>
      <trkpt lat="40.868426" lon="-2.943091">
        <ele>1031.323</ele>
        <time>2017-12-09T17:27:26Z</time>
      </trkpt>
      <trkpt lat="40.868392" lon="-2.943023">
        <ele>1031.517</ele>
        <time>2017-12-09T17:27:27Z</time>
      </trkpt>
      <trkpt lat="40.868352" lon="-2.942954">
        <ele>1030.688</ele>
        <time>2017-12-09T17:27:28Z</time>
      </trkpt>
      <trkpt lat="40.868305" lon="-2.942887">
        <ele>1031.464</ele>
        <time>2017-12-09T17:27:29Z</time>
      </trkpt>
      <trkpt lat="40.868255" lon="-2.942838">
        <ele>1031.677</ele>
        <time>2017-12-09T17:27:30Z</time>
      </trkpt>
      <trkpt lat="40.868175" lon="-2.942922">
        <ele>1031.359</ele>
        <time>2017-12-09T17:27:31Z</time>
      </trkpt>
      <trkpt lat="40.868107" lon="-2.942959">
        <ele>1031.803</ele>
        <time>2017-12-09T17:27:32Z</time>
      </trkpt>
      <trkpt lat="40.868024" lon="-2.942995">
        <ele>1032.223</ele>
        <time>2017-12-09T17:27:33Z</time>
      </trkpt>
      <trkpt lat="40.867941" lon="-2.943040">
        <ele>1032.408</ele>
        <time>2017-12-09T17:27:34Z</time>
      </trkpt>
      <trkpt lat="40.867846" lon="-2.943078">
        <ele>1032.637</ele>
        <time>2017-12-09T17:27:35Z</time>
      </trkpt>
      <trkpt lat="40.867748" lon="-2.943118">
        <ele>1032.756</ele>
        <time>2017-12-09T17:27:36Z</time>
      </trkpt>
      <trkpt lat="40.867642" lon="-2.943163">
        <ele>1033.189</ele>
        <time>2017-12-09T17:27:37Z</time>
      </trkpt>
      <trkpt lat="40.867543" lon="-2.943208">
        <ele>1033.590</ele>
        <time>2017-12-09T17:27:38Z</time>
      </trkpt>
      <trkpt lat="40.867435" lon="-2.943248">
        <ele>1033.184</ele>
        <time>2017-12-09T17:27:39Z</time>
      </trkpt>
      <trkpt lat="40.867324" lon="-2.943281">
        <ele>1033.635</ele>
        <time>2017-12-09T17:27:40Z</time>
      </trkpt>
      <trkpt lat="40.867208" lon="-2.943315">
        <ele>1033.551</ele>
        <time>2017-12-09T17:27:41Z</time>
      </trkpt>
      <trkpt lat="40.867091" lon="-2.943353">
        <ele>1033.814</ele>
        <time>2017-12-09T17:27:42Z</time>
      </trkpt>
      <trkpt lat="40.866976" lon="-2.943384">
        <ele>1033.764</ele>
        <time>2017-12-09T17:27:43Z</time>
      </trkpt>
      <trkpt lat="40.866864" lon="-2.943425">
        <ele>1033.506</ele>
        <time>2017-12-09T17:27:44Z</time>
      </trkpt>
      <trkpt lat="40.866754" lon="-2.943454">
        <ele>1033.616</ele>
        <time>2017-12-09T17:27:45Z</time>
      </trkpt>
      <trkpt lat="40.866651" lon="-2.943497">
        <ele>1033.608</ele>
        <time>2017-12-09T17:27:46Z</time>
      </trkpt>
      <trkpt lat="40.866539" lon="-2.943540">
        <ele>1033.758</ele>
        <time>2017-12-09T17:27:47Z</time>
      </trkpt>
      <trkpt lat="40.866428" lon="-2.943577">
        <ele>1034.047</ele>
        <time>2017-12-09T17:27:48Z</time>
      </trkpt>
      <trkpt lat="40.866311" lon="-2.943618">
        <ele>1034.430</ele>
        <time>2017-12-09T17:27:49Z</time>
      </trkpt>
      <trkpt lat="40.866205" lon="-2.943648">
        <ele>1034.451</ele>
        <time>2017-12-09T17:27:50Z</time>
      </trkpt>
      <trkpt lat="40.866093" lon="-2.943694">
        <ele>1034.455</ele>
        <time>2017-12-09T17:27:51Z</time>
      </trkpt>
      <trkpt lat="40.865979" lon="-2.943730">
        <ele>1034.016</ele>
        <time>2017-12-09T17:27:52Z</time>
      </trkpt>
      <trkpt lat="40.865868" lon="-2.943769">
        <ele>1034.052</ele>
        <time>2017-12-09T17:27:53Z</time>
      </trkpt>
      <trkpt lat="40.865751" lon="-2.943814">
        <ele>1034.145</ele>
        <time>2017-12-09T17:27:54Z</time>
      </trkpt>
      <trkpt lat="40.865634" lon="-2.943848">
        <ele>1034.676</ele>
        <time>2017-12-09T17:27:55Z</time>
      </trkpt>
      <trkpt lat="40.865514" lon="-2.943887">
        <ele>1034.490</ele>
        <time>2017-12-09T17:27:56Z</time>
      </trkpt>
      <trkpt lat="40.865399" lon="-2.943926">
        <ele>1034.019</ele>
        <time>2017-12-09T17:27:57Z</time>
      </trkpt>
      <trkpt lat="40.865291" lon="-2.943965">
        <ele>1034.008</ele>
        <time>2017-12-09T17:27:58Z</time>
      </trkpt>
      <trkpt lat="40.865174" lon="-2.944001">
        <ele>1033.899</ele>
        <time>2017-12-09T17:27:59Z</time>
      </trkpt>
      <trkpt lat="40.865066" lon="-2.944037">
        <ele>1033.328</ele>
        <time>2017-12-09T17:28:00Z</time>
      </trkpt>
      <trkpt lat="40.864948" lon="-2.944087">
        <ele>1033.361</ele>
        <time>2017-12-09T17:28:01Z</time>
      </trkpt>
      <trkpt lat="40.864838" lon="-2.944127">
        <ele>1033.382</ele>
        <time>2017-12-09T17:28:02Z</time>
      </trkpt>
      <trkpt lat="40.864727" lon="-2.944162">
        <ele>1033.396</ele>
        <time>2017-12-09T17:28:03Z</time>
      </trkpt>
      <trkpt lat="40.864616" lon="-2.944203">
        <ele>1033.227</ele>
        <time>2017-12-09T17:28:04Z</time>
      </trkpt>
      <trkpt lat="40.864499" lon="-2.944241">
        <ele>1033.093</ele>
        <time>2017-12-09T17:28:05Z</time>
      </trkpt>
      <trkpt lat="40.864380" lon="-2.944280">
        <ele>1032.756</ele>
        <time>2017-12-09T17:28:06Z</time>
      </trkpt>
      <trkpt lat="40.864258" lon="-2.944313">
        <ele>1032.383</ele>
        <time>2017-12-09T17:28:07Z</time>
      </trkpt>
      <trkpt lat="40.864131" lon="-2.944356">
        <ele>1032.625</ele>
        <time>2017-12-09T17:28:08Z</time>
      </trkpt>
      <trkpt lat="40.864009" lon="-2.944396">
        <ele>1032.517</ele>
        <time>2017-12-09T17:28:09Z</time>
      </trkpt>
      <trkpt lat="40.863887" lon="-2.944438">
        <ele>1031.708</ele>
        <time>2017-12-09T17:28:10Z</time>
      </trkpt>
      <trkpt lat="40.863763" lon="-2.944482">
        <ele>1031.160</ele>
        <time>2017-12-09T17:28:11Z</time>
      </trkpt>
      <trkpt lat="40.863646" lon="-2.944515">
        <ele>1030.199</ele>
        <time>2017-12-09T17:28:12Z</time>
      </trkpt>
      <trkpt lat="40.863526" lon="-2.944554">
        <ele>1030.542</ele>
        <time>2017-12-09T17:28:13Z</time>
      </trkpt>
      <trkpt lat="40.863406" lon="-2.944602">
        <ele>1030.143</ele>
        <time>2017-12-09T17:28:14Z</time>
      </trkpt>
      <trkpt lat="40.863286" lon="-2.944651">
        <ele>1029.977</ele>
        <time>2017-12-09T17:28:15Z</time>
      </trkpt>
      <trkpt lat="40.863176" lon="-2.944691">
        <ele>1029.978</ele>
        <time>2017-12-09T17:28:16Z</time>
      </trkpt>
      <trkpt lat="40.863062" lon="-2.944734">
        <ele>1030.174</ele>
        <time>2017-12-09T17:28:17Z</time>
      </trkpt>
      <trkpt lat="40.862946" lon="-2.944777">
        <ele>1030.227</ele>
        <time>2017-12-09T17:28:18Z</time>
      </trkpt>
      <trkpt lat="40.862833" lon="-2.944826">
        <ele>1029.323</ele>
        <time>2017-12-09T17:28:19Z</time>
      </trkpt>
      <trkpt lat="40.862727" lon="-2.944886">
        <ele>1029.483</ele>
        <time>2017-12-09T17:28:20Z</time>
      </trkpt>
      <trkpt lat="40.862627" lon="-2.944959">
        <ele>1029.411</ele>
        <time>2017-12-09T17:28:21Z</time>
      </trkpt>
      <trkpt lat="40.862533" lon="-2.945036">
        <ele>1029.308</ele>
        <time>2017-12-09T17:28:22Z</time>
      </trkpt>
      <trkpt lat="40.862435" lon="-2.945121">
        <ele>1029.424</ele>
        <time>2017-12-09T17:28:23Z</time>
      </trkpt>
      <trkpt lat="40.862339" lon="-2.945204">
        <ele>1029.233</ele>
        <time>2017-12-09T17:28:24Z</time>
      </trkpt>
      <trkpt lat="40.862232" lon="-2.945286">
        <ele>1029.036</ele>
        <time>2017-12-09T17:28:25Z</time>
      </trkpt>
      <trkpt lat="40.862131" lon="-2.945371">
        <ele>1028.647</ele>
        <time>2017-12-09T17:28:26Z</time>
      </trkpt>
      <trkpt lat="40.862030" lon="-2.945446">
        <ele>1028.521</ele>
        <time>2017-12-09T17:28:27Z</time>
      </trkpt>
      <trkpt lat="40.861935" lon="-2.945516">
        <ele>1028.422</ele>
        <time>2017-12-09T17:28:28Z</time>
      </trkpt>
      <trkpt lat="40.861841" lon="-2.945586">
        <ele>1027.818</ele>
        <time>2017-12-09T17:28:29Z</time>
      </trkpt>
      <trkpt lat="40.861749" lon="-2.945662">
        <ele>1027.871</ele>
        <time>2017-12-09T17:28:30Z</time>
      </trkpt>
      <trkpt lat="40.861654" lon="-2.945735">
        <ele>1027.691</ele>
        <time>2017-12-09T17:28:31Z</time>
      </trkpt>
      <trkpt lat="40.861558" lon="-2.945799">
        <ele>1027.681</ele>
        <time>2017-12-09T17:28:32Z</time>
      </trkpt>
      <trkpt lat="40.861458" lon="-2.945859">
        <ele>1027.219</ele>
        <time>2017-12-09T17:28:33Z</time>
      </trkpt>
      <trkpt lat="40.861352" lon="-2.945922">
        <ele>1027.208</ele>
        <time>2017-12-09T17:28:34Z</time>
      </trkpt>
      <trkpt lat="40.861244" lon="-2.945986">
        <ele>1027.141</ele>
        <time>2017-12-09T17:28:35Z</time>
      </trkpt>
      <trkpt lat="40.861142" lon="-2.946051">
        <ele>1027.230</ele>
        <time>2017-12-09T17:28:36Z</time>
      </trkpt>
      <trkpt lat="40.861040" lon="-2.946129">
        <ele>1027.033</ele>
        <time>2017-12-09T17:28:37Z</time>
      </trkpt>
      <trkpt lat="40.860936" lon="-2.946209">
        <ele>1027.074</ele>
        <time>2017-12-09T17:28:38Z</time>
      </trkpt>
      <trkpt lat="40.860833" lon="-2.946290">
        <ele>1026.418</ele>
        <time>2017-12-09T17:28:39Z</time>
      </trkpt>
      <trkpt lat="40.860732" lon="-2.946359">
        <ele>1026.819</ele>
        <time>2017-12-09T17:28:40Z</time>
      </trkpt>
      <trkpt lat="40.860625" lon="-2.946428">
        <ele>1026.615</ele>
        <time>2017-12-09T17:28:41Z</time>
      </trkpt>
      <trkpt lat="40.860515" lon="-2.946497">
        <ele>1027.188</ele>
        <time>2017-12-09T17:28:42Z</time>
      </trkpt>
      <trkpt lat="40.860410" lon="-2.946563">
        <ele>1027.147</ele>
        <time>2017-12-09T17:28:43Z</time>
      </trkpt>
      <trkpt lat="40.860307" lon="-2.946629">
        <ele>1026.829</ele>
        <time>2017-12-09T17:28:44Z</time>
      </trkpt>
      <trkpt lat="40.860202" lon="-2.946705">
        <ele>1026.921</ele>
        <time>2017-12-09T17:28:45Z</time>
      </trkpt>
      <trkpt lat="40.860099" lon="-2.946785">
        <ele>1027.208</ele>
        <time>2017-12-09T17:28:46Z</time>
      </trkpt>
      <trkpt lat="40.859995" lon="-2.946858">
        <ele>1026.966</ele>
        <time>2017-12-09T17:28:47Z</time>
      </trkpt>
      <trkpt lat="40.859896" lon="-2.946926">
        <ele>1027.015</ele>
        <time>2017-12-09T17:28:48Z</time>
      </trkpt>
      <trkpt lat="40.859792" lon="-2.946991">
        <ele>1027.038</ele>
        <time>2017-12-09T17:28:49Z</time>
      </trkpt>
      <trkpt lat="40.859696" lon="-2.947056">
        <ele>1026.749</ele>
        <time>2017-12-09T17:28:50Z</time>
      </trkpt>
      <trkpt lat="40.859597" lon="-2.947120">
        <ele>1026.533</ele>
        <time>2017-12-09T17:28:51Z</time>
      </trkpt>
      <trkpt lat="40.859496" lon="-2.947186">
        <ele>1026.764</ele>
        <time>2017-12-09T17:28:52Z</time>
      </trkpt>
      <trkpt lat="40.859407" lon="-2.947247">
        <ele>1026.310</ele>
        <time>2017-12-09T17:28:53Z</time>
      </trkpt>
      <trkpt lat="40.859319" lon="-2.947311">
        <ele>1026.073</ele>
        <time>2017-12-09T17:28:54Z</time>
      </trkpt>
      <trkpt lat="40.859238" lon="-2.947377">
        <ele>1026.037</ele>
        <time>2017-12-09T17:28:55Z</time>
      </trkpt>
      <trkpt lat="40.859152" lon="-2.947435">
        <ele>1026.149</ele>
        <time>2017-12-09T17:28:56Z</time>
      </trkpt>
      <trkpt lat="40.859058" lon="-2.947493">
        <ele>1026.013</ele>
        <time>2017-12-09T17:28:57Z</time>
      </trkpt>
      <trkpt lat="40.858964" lon="-2.947558">
        <ele>1025.608</ele>
        <time>2017-12-09T17:28:58Z</time>
      </trkpt>
      <trkpt lat="40.858869" lon="-2.947618">
        <ele>1025.985</ele>
        <time>2017-12-09T17:28:59Z</time>
      </trkpt>
      <trkpt lat="40.858774" lon="-2.947684">
        <ele>1025.744</ele>
        <time>2017-12-09T17:29:00Z</time>
      </trkpt>
      <trkpt lat="40.858673" lon="-2.947757">
        <ele>1026.057</ele>
        <time>2017-12-09T17:29:01Z</time>
      </trkpt>
      <trkpt lat="40.858567" lon="-2.947827">
        <ele>1025.848</ele>
        <time>2017-12-09T17:29:02Z</time>
      </trkpt>
      <trkpt lat="40.858468" lon="-2.947892">
        <ele>1025.382</ele>
        <time>2017-12-09T17:29:03Z</time>
      </trkpt>
      <trkpt lat="40.858369" lon="-2.947956">
        <ele>1025.113</ele>
        <time>2017-12-09T17:29:04Z</time>
      </trkpt>
      <trkpt lat="40.858270" lon="-2.948017">
        <ele>1025.079</ele>
        <time>2017-12-09T17:29:05Z</time>
      </trkpt>
      <trkpt lat="40.858175" lon="-2.948078">
        <ele>1025.132</ele>
        <time>2017-12-09T17:29:06Z</time>
      </trkpt>
      <trkpt lat="40.858075" lon="-2.948138">
        <ele>1024.564</ele>
        <time>2017-12-09T17:29:07Z</time>
      </trkpt>
      <trkpt lat="40.857981" lon="-2.948203">
        <ele>1024.406</ele>
        <time>2017-12-09T17:29:08Z</time>
      </trkpt>
      <trkpt lat="40.857889" lon="-2.948263">
        <ele>1024.416</ele>
        <time>2017-12-09T17:29:09Z</time>
      </trkpt>
      <trkpt lat="40.857798" lon="-2.948325">
        <ele>1024.408</ele>
        <time>2017-12-09T17:29:10Z</time>
      </trkpt>
      <trkpt lat="40.857705" lon="-2.948382">
        <ele>1023.968</ele>
        <time>2017-12-09T17:29:11Z</time>
      </trkpt>
      <trkpt lat="40.857617" lon="-2.948445">
        <ele>1023.877</ele>
        <time>2017-12-09T17:29:12Z</time>
      </trkpt>
      <trkpt lat="40.857530" lon="-2.948506">
        <ele>1023.540</ele>
        <time>2017-12-09T17:29:13Z</time>
      </trkpt>
      <trkpt lat="40.857446" lon="-2.948567">
        <ele>1023.451</ele>
        <time>2017-12-09T17:29:14Z</time>
      </trkpt>
      <trkpt lat="40.857364" lon="-2.948619">
        <ele>1023.145</ele>
        <time>2017-12-09T17:29:15Z</time>
      </trkpt>
      <trkpt lat="40.857293" lon="-2.948680">
        <ele>1022.536</ele>
        <time>2017-12-09T17:29:16Z</time>
      </trkpt>
      <trkpt lat="40.857226" lon="-2.948741">
        <ele>1022.432</ele>
        <time>2017-12-09T17:29:17Z</time>
      </trkpt>
      <trkpt lat="40.857175" lon="-2.948797">
        <ele>1021.975</ele>
        <time>2017-12-09T17:29:18Z</time>
      </trkpt>
      <trkpt lat="40.857125" lon="-2.948851">
        <ele>1021.866</ele>
        <time>2017-12-09T17:29:19Z</time>
      </trkpt>
      <trkpt lat="40.857081" lon="-2.948885">
        <ele>1021.829</ele>
        <time>2017-12-09T17:29:20Z</time>
      </trkpt>
      <trkpt lat="40.857022" lon="-2.948902">
        <ele>1021.321</ele>
        <time>2017-12-09T17:29:22Z</time>
      </trkpt>
      <trkpt lat="40.856973" lon="-2.948902">
        <ele>1021.308</ele>
        <time>2017-12-09T17:29:25Z</time>
      </trkpt>
      <trkpt lat="40.856917" lon="-2.948871">
        <ele>1021.238</ele>
        <time>2017-12-09T17:29:28Z</time>
      </trkpt>
      <trkpt lat="40.856873" lon="-2.948857">
        <ele>1021.577</ele>
        <time>2017-12-09T17:29:30Z</time>
      </trkpt>
      <trkpt lat="40.856819" lon="-2.948851">
        <ele>1021.230</ele>
        <time>2017-12-09T17:29:32Z</time>
      </trkpt>
      <trkpt lat="40.856773" lon="-2.948845">
        <ele>1021.411</ele>
        <time>2017-12-09T17:29:34Z</time>
      </trkpt>
      <trkpt lat="40.856709" lon="-2.948865">
        <ele>1021.535</ele>
        <time>2017-12-09T17:29:37Z</time>
      </trkpt>
      <trkpt lat="40.856654" lon="-2.948907">
        <ele>1021.666</ele>
        <time>2017-12-09T17:29:40Z</time>
      </trkpt>
      <trkpt lat="40.856604" lon="-2.948945">
        <ele>1021.882</ele>
        <time>2017-12-09T17:29:43Z</time>
      </trkpt>
      <trkpt lat="40.856551" lon="-2.948975">
        <ele>1022.065</ele>
        <time>2017-12-09T17:29:46Z</time>
      </trkpt>
      <trkpt lat="40.856494" lon="-2.949015">
        <ele>1022.112</ele>
        <time>2017-12-09T17:29:49Z</time>
      </trkpt>
      <trkpt lat="40.856450" lon="-2.949047">
        <ele>1021.732</ele>
        <time>2017-12-09T17:29:59Z</time>
      </trkpt>
      <trkpt lat="40.856417" lon="-2.949102">
        <ele>1021.605</ele>
        <time>2017-12-09T17:30:20Z</time>
      </trkpt>
      <trkpt lat="40.856353" lon="-2.949133">
        <ele>1021.408</ele>
        <time>2017-12-09T17:30:22Z</time>
      </trkpt>
      <trkpt lat="40.856275" lon="-2.949168">
        <ele>1022.093</ele>
        <time>2017-12-09T17:30:24Z</time>
      </trkpt>
      <trkpt lat="40.856223" lon="-2.949193">
        <ele>1021.822</ele>
        <time>2017-12-09T17:30:25Z</time>
      </trkpt>
      <trkpt lat="40.856177" lon="-2.949207">
        <ele>1021.845</ele>
        <time>2017-12-09T17:30:26Z</time>
      </trkpt>
      <trkpt lat="40.856130" lon="-2.949215">
        <ele>1021.886</ele>
        <time>2017-12-09T17:30:27Z</time>
      </trkpt>
      <trkpt lat="40.856052" lon="-2.949235">
        <ele>1022.060</ele>
        <time>2017-12-09T17:30:29Z</time>
      </trkpt>
      <trkpt lat="40.855998" lon="-2.949246">
        <ele>1022.081</ele>
        <time>2017-12-09T17:30:30Z</time>
      </trkpt>
      <trkpt lat="40.855949" lon="-2.949259">
        <ele>1022.677</ele>
        <time>2017-12-09T17:30:31Z</time>
      </trkpt>
      <trkpt lat="40.855887" lon="-2.949279">
        <ele>1022.640</ele>
        <time>2017-12-09T17:30:32Z</time>
      </trkpt>
      <trkpt lat="40.855824" lon="-2.949292">
        <ele>1023.279</ele>
        <time>2017-12-09T17:30:33Z</time>
      </trkpt>
      <trkpt lat="40.855763" lon="-2.949316">
        <ele>1023.305</ele>
        <time>2017-12-09T17:30:34Z</time>
      </trkpt>
      <trkpt lat="40.855695" lon="-2.949342">
        <ele>1023.325</ele>
        <time>2017-12-09T17:30:35Z</time>
      </trkpt>
      <trkpt lat="40.855623" lon="-2.949369">
        <ele>1023.508</ele>
        <time>2017-12-09T17:30:36Z</time>
      </trkpt>
      <trkpt lat="40.855549" lon="-2.949405">
        <ele>1023.849</ele>
        <time>2017-12-09T17:30:37Z</time>
      </trkpt>
      <trkpt lat="40.855474" lon="-2.949442">
        <ele>1023.858</ele>
        <time>2017-12-09T17:30:38Z</time>
      </trkpt>
      <trkpt lat="40.855396" lon="-2.949478">
        <ele>1023.791</ele>
        <time>2017-12-09T17:30:39Z</time>
      </trkpt>
      <trkpt lat="40.855319" lon="-2.949519">
        <ele>1023.662</ele>
        <time>2017-12-09T17:30:40Z</time>
      </trkpt>
      <trkpt lat="40.855244" lon="-2.949547">
        <ele>1023.736</ele>
        <time>2017-12-09T17:30:41Z</time>
      </trkpt>
      <trkpt lat="40.855164" lon="-2.949581">
        <ele>1023.847</ele>
        <time>2017-12-09T17:30:42Z</time>
      </trkpt>
      <trkpt lat="40.855083" lon="-2.949609">
        <ele>1024.113</ele>
        <time>2017-12-09T17:30:43Z</time>
      </trkpt>
      <trkpt lat="40.855005" lon="-2.949626">
        <ele>1024.476</ele>
        <time>2017-12-09T17:30:44Z</time>
      </trkpt>
      <trkpt lat="40.854917" lon="-2.949644">
        <ele>1024.258</ele>
        <time>2017-12-09T17:30:45Z</time>
      </trkpt>
      <trkpt lat="40.854837" lon="-2.949652">
        <ele>1024.152</ele>
        <time>2017-12-09T17:30:46Z</time>
      </trkpt>
      <trkpt lat="40.854757" lon="-2.949672">
        <ele>1024.617</ele>
        <time>2017-12-09T17:30:47Z</time>
      </trkpt>
      <trkpt lat="40.854678" lon="-2.949694">
        <ele>1024.708</ele>
        <time>2017-12-09T17:30:48Z</time>
      </trkpt>
      <trkpt lat="40.854601" lon="-2.949731">
        <ele>1024.517</ele>
        <time>2017-12-09T17:30:49Z</time>
      </trkpt>
      <trkpt lat="40.854524" lon="-2.949768">
        <ele>1024.666</ele>
        <time>2017-12-09T17:30:50Z</time>
      </trkpt>
      <trkpt lat="40.854453" lon="-2.949816">
        <ele>1024.629</ele>
        <time>2017-12-09T17:30:51Z</time>
      </trkpt>
      <trkpt lat="40.854379" lon="-2.949883">
        <ele>1024.640</ele>
        <time>2017-12-09T17:30:52Z</time>
      </trkpt>
      <trkpt lat="40.854305" lon="-2.949947">
        <ele>1024.674</ele>
        <time>2017-12-09T17:30:53Z</time>
      </trkpt>
      <trkpt lat="40.854224" lon="-2.950008">
        <ele>1024.765</ele>
        <time>2017-12-09T17:30:54Z</time>
      </trkpt>
      <trkpt lat="40.854145" lon="-2.950083">
        <ele>1024.851</ele>
        <time>2017-12-09T17:30:55Z</time>
      </trkpt>
      <trkpt lat="40.854062" lon="-2.950152">
        <ele>1024.754</ele>
        <time>2017-12-09T17:30:56Z</time>
      </trkpt>
      <trkpt lat="40.853973" lon="-2.950224">
        <ele>1024.737</ele>
        <time>2017-12-09T17:30:57Z</time>
      </trkpt>
      <trkpt lat="40.853889" lon="-2.950303">
        <ele>1025.049</ele>
        <time>2017-12-09T17:30:58Z</time>
      </trkpt>
      <trkpt lat="40.853802" lon="-2.950371">
        <ele>1025.013</ele>
        <time>2017-12-09T17:30:59Z</time>
      </trkpt>
      <trkpt lat="40.853725" lon="-2.950443">
        <ele>1024.808</ele>
        <time>2017-12-09T17:31:00Z</time>
      </trkpt>
      <trkpt lat="40.853641" lon="-2.950506">
        <ele>1025.155</ele>
        <time>2017-12-09T17:31:01Z</time>
      </trkpt>
      <trkpt lat="40.853564" lon="-2.950582">
        <ele>1025.054</ele>
        <time>2017-12-09T17:31:02Z</time>
      </trkpt>
      <trkpt lat="40.853481" lon="-2.950655">
        <ele>1025.387</ele>
        <time>2017-12-09T17:31:03Z</time>
      </trkpt>
      <trkpt lat="40.853398" lon="-2.950730">
        <ele>1025.688</ele>
        <time>2017-12-09T17:31:04Z</time>
      </trkpt>
      <trkpt lat="40.853318" lon="-2.950799">
        <ele>1025.822</ele>
        <time>2017-12-09T17:31:05Z</time>
      </trkpt>
      <trkpt lat="40.853230" lon="-2.950870">
        <ele>1025.663</ele>
        <time>2017-12-09T17:31:06Z</time>
      </trkpt>
      <trkpt lat="40.853138" lon="-2.950930">
        <ele>1026.159</ele>
        <time>2017-12-09T17:31:07Z</time>
      </trkpt>
      <trkpt lat="40.853053" lon="-2.950986">
        <ele>1026.392</ele>
        <time>2017-12-09T17:31:08Z</time>
      </trkpt>
      <trkpt lat="40.852959" lon="-2.951045">
        <ele>1026.181</ele>
        <time>2017-12-09T17:31:09Z</time>
      </trkpt>
      <trkpt lat="40.852852" lon="-2.951105">
        <ele>1026.161</ele>
        <time>2017-12-09T17:31:10Z</time>
      </trkpt>
      <trkpt lat="40.852757" lon="-2.951154">
        <ele>1026.317</ele>
        <time>2017-12-09T17:31:11Z</time>
      </trkpt>
      <trkpt lat="40.852667" lon="-2.951196">
        <ele>1026.008</ele>
        <time>2017-12-09T17:31:12Z</time>
      </trkpt>
      <trkpt lat="40.852568" lon="-2.951234">
        <ele>1025.990</ele>
        <time>2017-12-09T17:31:13Z</time>
      </trkpt>
      <trkpt lat="40.852457" lon="-2.951269">
        <ele>1026.199</ele>
        <time>2017-12-09T17:31:14Z</time>
      </trkpt>
      <trkpt lat="40.852357" lon="-2.951292">
        <ele>1026.512</ele>
        <time>2017-12-09T17:31:15Z</time>
      </trkpt>
      <trkpt lat="40.852262" lon="-2.951312">
        <ele>1026.333</ele>
        <time>2017-12-09T17:31:16Z</time>
      </trkpt>
      <trkpt lat="40.852168" lon="-2.951340">
        <ele>1026.317</ele>
        <time>2017-12-09T17:31:17Z</time>
      </trkpt>
      <trkpt lat="40.852055" lon="-2.951374">
        <ele>1026.638</ele>
        <time>2017-12-09T17:31:18Z</time>
      </trkpt>
      <trkpt lat="40.851962" lon="-2.951407">
        <ele>1026.694</ele>
        <time>2017-12-09T17:31:19Z</time>
      </trkpt>
      <trkpt lat="40.851871" lon="-2.951439">
        <ele>1026.587</ele>
        <time>2017-12-09T17:31:20Z</time>
      </trkpt>
      <trkpt lat="40.851786" lon="-2.951452">
        <ele>1026.356</ele>
        <time>2017-12-09T17:31:21Z</time>
      </trkpt>
      <trkpt lat="40.851695" lon="-2.951464">
        <ele>1026.559</ele>
        <time>2017-12-09T17:31:22Z</time>
      </trkpt>
      <trkpt lat="40.851597" lon="-2.951472">
        <ele>1026.014</ele>
        <time>2017-12-09T17:31:23Z</time>
      </trkpt>
      <trkpt lat="40.851502" lon="-2.951459">
        <ele>1026.008</ele>
        <time>2017-12-09T17:31:24Z</time>
      </trkpt>
      <trkpt lat="40.851406" lon="-2.951438">
        <ele>1025.817</ele>
        <time>2017-12-09T17:31:25Z</time>
      </trkpt>
      <trkpt lat="40.851308" lon="-2.951426">
        <ele>1025.596</ele>
        <time>2017-12-09T17:31:26Z</time>
      </trkpt>
      <trkpt lat="40.851221" lon="-2.951414">
        <ele>1025.769</ele>
        <time>2017-12-09T17:31:27Z</time>
      </trkpt>
      <trkpt lat="40.851134" lon="-2.951408">
        <ele>1025.630</ele>
        <time>2017-12-09T17:31:28Z</time>
      </trkpt>
      <trkpt lat="40.851043" lon="-2.951399">
        <ele>1025.734</ele>
        <time>2017-12-09T17:31:29Z</time>
      </trkpt>
      <trkpt lat="40.850950" lon="-2.951388">
        <ele>1025.895</ele>
        <time>2017-12-09T17:31:30Z</time>
      </trkpt>
      <trkpt lat="40.850849" lon="-2.951385">
        <ele>1025.861</ele>
        <time>2017-12-09T17:31:31Z</time>
      </trkpt>
      <trkpt lat="40.850746" lon="-2.951377">
        <ele>1025.744</ele>
        <time>2017-12-09T17:31:32Z</time>
      </trkpt>
      <trkpt lat="40.850646" lon="-2.951370">
        <ele>1025.896</ele>
        <time>2017-12-09T17:31:33Z</time>
      </trkpt>
      <trkpt lat="40.850546" lon="-2.951362">
        <ele>1025.731</ele>
        <time>2017-12-09T17:31:34Z</time>
      </trkpt>
      <trkpt lat="40.850452" lon="-2.951360">
        <ele>1025.424</ele>
        <time>2017-12-09T17:31:35Z</time>
      </trkpt>
      <trkpt lat="40.850358" lon="-2.951374">
        <ele>1025.408</ele>
        <time>2017-12-09T17:31:36Z</time>
      </trkpt>
      <trkpt lat="40.850266" lon="-2.951376">
        <ele>1025.421</ele>
        <time>2017-12-09T17:31:37Z</time>
      </trkpt>
      <trkpt lat="40.850170" lon="-2.951384">
        <ele>1025.540</ele>
        <time>2017-12-09T17:31:38Z</time>
      </trkpt>
      <trkpt lat="40.850071" lon="-2.951404">
        <ele>1025.533</ele>
        <time>2017-12-09T17:31:39Z</time>
      </trkpt>
      <trkpt lat="40.849974" lon="-2.951419">
        <ele>1025.774</ele>
        <time>2017-12-09T17:31:40Z</time>
      </trkpt>
      <trkpt lat="40.849879" lon="-2.951427">
        <ele>1025.068</ele>
        <time>2017-12-09T17:31:41Z</time>
      </trkpt>
      <trkpt lat="40.849783" lon="-2.951430">
        <ele>1025.229</ele>
        <time>2017-12-09T17:31:42Z</time>
      </trkpt>
      <trkpt lat="40.849689" lon="-2.951427">
        <ele>1025.515</ele>
        <time>2017-12-09T17:31:43Z</time>
      </trkpt>
      <trkpt lat="40.849596" lon="-2.951431">
        <ele>1024.948</ele>
        <time>2017-12-09T17:31:44Z</time>
      </trkpt>
      <trkpt lat="40.849510" lon="-2.951442">
        <ele>1024.931</ele>
        <time>2017-12-09T17:31:45Z</time>
      </trkpt>
      <trkpt lat="40.849428" lon="-2.951454">
        <ele>1025.461</ele>
        <time>2017-12-09T17:31:46Z</time>
      </trkpt>
      <trkpt lat="40.849353" lon="-2.951478">
        <ele>1025.207</ele>
        <time>2017-12-09T17:31:47Z</time>
      </trkpt>
      <trkpt lat="40.849288" lon="-2.951493">
        <ele>1024.908</ele>
        <time>2017-12-09T17:31:48Z</time>
      </trkpt>
      <trkpt lat="40.849206" lon="-2.951521">
        <ele>1024.855</ele>
        <time>2017-12-09T17:31:49Z</time>
      </trkpt>
      <trkpt lat="40.849153" lon="-2.951516">
        <ele>1024.854</ele>
        <time>2017-12-09T17:31:50Z</time>
      </trkpt>
      <trkpt lat="40.849127" lon="-2.951467">
        <ele>1024.817</ele>
        <time>2017-12-09T17:31:51Z</time>
      </trkpt>
      <trkpt lat="40.849106" lon="-2.951398">
        <ele>1025.278</ele>
        <time>2017-12-09T17:31:52Z</time>
      </trkpt>
      <trkpt lat="40.849078" lon="-2.951325">
        <ele>1025.192</ele>
        <time>2017-12-09T17:31:53Z</time>
      </trkpt>
      <trkpt lat="40.849052" lon="-2.951241">
        <ele>1025.233</ele>
        <time>2017-12-09T17:31:54Z</time>
      </trkpt>
      <trkpt lat="40.849016" lon="-2.951159">
        <ele>1025.459</ele>
        <time>2017-12-09T17:31:55Z</time>
      </trkpt>
      <trkpt lat="40.848971" lon="-2.951068">
        <ele>1025.462</ele>
        <time>2017-12-09T17:31:56Z</time>
      </trkpt>
      <trkpt lat="40.848926" lon="-2.950977">
        <ele>1025.779</ele>
        <time>2017-12-09T17:31:57Z</time>
      </trkpt>
      <trkpt lat="40.848877" lon="-2.950885">
        <ele>1026.005</ele>
        <time>2017-12-09T17:31:58Z</time>
      </trkpt>
      <trkpt lat="40.848838" lon="-2.950791">
        <ele>1026.225</ele>
        <time>2017-12-09T17:31:59Z</time>
      </trkpt>
      <trkpt lat="40.848798" lon="-2.950695">
        <ele>1026.208</ele>
        <time>2017-12-09T17:32:00Z</time>
      </trkpt>
      <trkpt lat="40.848755" lon="-2.950591">
        <ele>1026.259</ele>
        <time>2017-12-09T17:32:01Z</time>
      </trkpt>
      <trkpt lat="40.848716" lon="-2.950484">
        <ele>1026.338</ele>
        <time>2017-12-09T17:32:02Z</time>
      </trkpt>
      <trkpt lat="40.848679" lon="-2.950385">
        <ele>1026.691</ele>
        <time>2017-12-09T17:32:03Z</time>
      </trkpt>
      <trkpt lat="40.848640" lon="-2.950280">
        <ele>1026.322</ele>
        <time>2017-12-09T17:32:04Z</time>
      </trkpt>
      <trkpt lat="40.848610" lon="-2.950178">
        <ele>1026.166</ele>
        <time>2017-12-09T17:32:05Z</time>
      </trkpt>
      <trkpt lat="40.848589" lon="-2.950085">
        <ele>1025.817</ele>
        <time>2017-12-09T17:32:06Z</time>
      </trkpt>
      <trkpt lat="40.848569" lon="-2.950015">
        <ele>1025.343</ele>
        <time>2017-12-09T17:32:07Z</time>
      </trkpt>
      <trkpt lat="40.848536" lon="-2.949927">
        <ele>1025.656</ele>
        <time>2017-12-09T17:32:09Z</time>
      </trkpt>
      <trkpt lat="40.848502" lon="-2.949853">
        <ele>1025.674</ele>
        <time>2017-12-09T17:32:11Z</time>
      </trkpt>
      <trkpt lat="40.848479" lon="-2.949786">
        <ele>1025.556</ele>
        <time>2017-12-09T17:32:13Z</time>
      </trkpt>
      <trkpt lat="40.848463" lon="-2.949715">
        <ele>1025.821</ele>
        <time>2017-12-09T17:32:15Z</time>
      </trkpt>
      <trkpt lat="40.848437" lon="-2.949624">
        <ele>1025.808</ele>
        <time>2017-12-09T17:32:17Z</time>
      </trkpt>
      <trkpt lat="40.848422" lon="-2.949568">
        <ele>1026.139</ele>
        <time>2017-12-09T17:32:18Z</time>
      </trkpt>
      <trkpt lat="40.848406" lon="-2.949508">
        <ele>1025.988</ele>
        <time>2017-12-09T17:32:19Z</time>
      </trkpt>
      <trkpt lat="40.848395" lon="-2.949446">
        <ele>1025.531</ele>
        <time>2017-12-09T17:32:20Z</time>
      </trkpt>
      <trkpt lat="40.848377" lon="-2.949384">
        <ele>1025.922</ele>
        <time>2017-12-09T17:32:21Z</time>
      </trkpt>
      <trkpt lat="40.848340" lon="-2.949268">
        <ele>1025.896</ele>
        <time>2017-12-09T17:32:23Z</time>
      </trkpt>
      <trkpt lat="40.848315" lon="-2.949208">
        <ele>1025.997</ele>
        <time>2017-12-09T17:32:24Z</time>
      </trkpt>
      <trkpt lat="40.848290" lon="-2.949142">
        <ele>1026.043</ele>
        <time>2017-12-09T17:32:25Z</time>
      </trkpt>
      <trkpt lat="40.848267" lon="-2.949076">
        <ele>1025.846</ele>
        <time>2017-12-09T17:32:26Z</time>
      </trkpt>
      <trkpt lat="40.848239" lon="-2.949003">
        <ele>1025.995</ele>
        <time>2017-12-09T17:32:27Z</time>
      </trkpt>
      <trkpt lat="40.848216" lon="-2.948936">
        <ele>1025.949</ele>
        <time>2017-12-09T17:32:28Z</time>
      </trkpt>
      <trkpt lat="40.848191" lon="-2.948823">
        <ele>1025.923</ele>
        <time>2017-12-09T17:32:30Z</time>
      </trkpt>
      <trkpt lat="40.848175" lon="-2.948765">
        <ele>1026.008</ele>
        <time>2017-12-09T17:32:31Z</time>
      </trkpt>
      <trkpt lat="40.848155" lon="-2.948703">
        <ele>1026.051</ele>
        <time>2017-12-09T17:32:32Z</time>
      </trkpt>
      <trkpt lat="40.848131" lon="-2.948633">
        <ele>1025.780</ele>
        <time>2017-12-09T17:32:33Z</time>
      </trkpt>
      <trkpt lat="40.848119" lon="-2.948573">
        <ele>1025.833</ele>
        <time>2017-12-09T17:32:34Z</time>
      </trkpt>
      <trkpt lat="40.848089" lon="-2.948464">
        <ele>1025.724</ele>
        <time>2017-12-09T17:32:36Z</time>
      </trkpt>
      <trkpt lat="40.848061" lon="-2.948357">
        <ele>1026.138</ele>
        <time>2017-12-09T17:32:38Z</time>
      </trkpt>
      <trkpt lat="40.848039" lon="-2.948294">
        <ele>1026.069</ele>
        <time>2017-12-09T17:32:39Z</time>
      </trkpt>
      <trkpt lat="40.848008" lon="-2.948200">
        <ele>1025.725</ele>
        <time>2017-12-09T17:32:41Z</time>
      </trkpt>
      <trkpt lat="40.847984" lon="-2.948129">
        <ele>1025.548</ele>
        <time>2017-12-09T17:32:44Z</time>
      </trkpt>
      <trkpt lat="40.847966" lon="-2.948064">
        <ele>1025.917</ele>
        <time>2017-12-09T17:32:50Z</time>
      </trkpt>
      <trkpt lat="40.847946" lon="-2.948003">
        <ele>1025.987</ele>
        <time>2017-12-09T17:32:52Z</time>
      </trkpt>
      <trkpt lat="40.847939" lon="-2.947926">
        <ele>1025.715</ele>
        <time>2017-12-09T17:32:54Z</time>
      </trkpt>
      <trkpt lat="40.847953" lon="-2.947855">
        <ele>1025.708</ele>
        <time>2017-12-09T17:32:56Z</time>
      </trkpt>
      <trkpt lat="40.847988" lon="-2.947804">
        <ele>1025.553</ele>
        <time>2017-12-09T17:32:58Z</time>
      </trkpt>
      <trkpt lat="40.848029" lon="-2.947769">
        <ele>1025.472</ele>
        <time>2017-12-09T17:33:00Z</time>
      </trkpt>
      <trkpt lat="40.848065" lon="-2.947722">
        <ele>1025.765</ele>
        <time>2017-12-09T17:33:37Z</time>
      </trkpt>
      <trkpt lat="40.848035" lon="-2.947671">
        <ele>1026.026</ele>
        <time>2017-12-09T17:33:40Z</time>
      </trkpt>
      <trkpt lat="40.847991" lon="-2.947614">
        <ele>1026.060</ele>
        <time>2017-12-09T17:33:42Z</time>
      </trkpt>
      <trkpt lat="40.847949" lon="-2.947548">
        <ele>1025.851</ele>
        <time>2017-12-09T17:33:44Z</time>
      </trkpt>
      <trkpt lat="40.847907" lon="-2.947482">
        <ele>1025.827</ele>
        <time>2017-12-09T17:33:46Z</time>
      </trkpt>
      <trkpt lat="40.847906" lon="-2.947401">
        <ele>1025.620</ele>
        <time>2017-12-09T17:33:48Z</time>
      </trkpt>
      <trkpt lat="40.847941" lon="-2.947362">
        <ele>1025.692</ele>
        <time>2017-12-09T17:33:49Z</time>
      </trkpt>
      <trkpt lat="40.848006" lon="-2.947373">
        <ele>1025.773</ele>
        <time>2017-12-09T17:33:51Z</time>
      </trkpt>
      <trkpt lat="40.848024" lon="-2.947448">
        <ele>1025.420</ele>
        <time>2017-12-09T17:33:53Z</time>
      </trkpt>
      <trkpt lat="40.848000" lon="-2.947515">
        <ele>1025.508</ele>
        <time>2017-12-09T17:33:57Z</time>
      </trkpt>
      <trkpt lat="40.847988" lon="-2.947573">
        <ele>1026.081</ele>
        <time>2017-12-09T17:33:59Z</time>
      </trkpt>
      <trkpt lat="40.847999" lon="-2.947662">
        <ele>1025.940</ele>
        <time>2017-12-09T17:34:01Z</time>
      </trkpt>
      <trkpt lat="40.848031" lon="-2.947736">
        <ele>1026.143</ele>
        <time>2017-12-09T17:34:03Z</time>
      </trkpt>
      <trkpt lat="40.848039" lon="-2.947806">
        <ele>1026.024</ele>
        <time>2017-12-09T17:34:05Z</time>
      </trkpt>
      <trkpt lat="40.847988" lon="-2.947884">
        <ele>1026.348</ele>
        <time>2017-12-09T17:34:07Z</time>
      </trkpt>
      <trkpt lat="40.847935" lon="-2.947973">
        <ele>1026.399</ele>
        <time>2017-12-09T17:34:09Z</time>
      </trkpt>
      <trkpt lat="40.847953" lon="-2.948088">
        <ele>1026.335</ele>
        <time>2017-12-09T17:34:11Z</time>
      </trkpt>
      <trkpt lat="40.847966" lon="-2.948154">
        <ele>1026.278</ele>
        <time>2017-12-09T17:34:12Z</time>
      </trkpt>
      <trkpt lat="40.847986" lon="-2.948221">
        <ele>1026.228</ele>
        <time>2017-12-09T17:34:13Z</time>
      </trkpt>
      <trkpt lat="40.848010" lon="-2.948291">
        <ele>1026.589</ele>
        <time>2017-12-09T17:34:14Z</time>
      </trkpt>
      <trkpt lat="40.848030" lon="-2.948368">
        <ele>1026.017</ele>
        <time>2017-12-09T17:34:15Z</time>
      </trkpt>
      <trkpt lat="40.848061" lon="-2.948454">
        <ele>1026.808</ele>
        <time>2017-12-09T17:34:16Z</time>
      </trkpt>
      <trkpt lat="40.848092" lon="-2.948542">
        <ele>1026.884</ele>
        <time>2017-12-09T17:34:17Z</time>
      </trkpt>
      <trkpt lat="40.848120" lon="-2.948634">
        <ele>1026.523</ele>
        <time>2017-12-09T17:34:18Z</time>
      </trkpt>
      <trkpt lat="40.848152" lon="-2.948735">
        <ele>1026.696</ele>
        <time>2017-12-09T17:34:19Z</time>
      </trkpt>
      <trkpt lat="40.848187" lon="-2.948838">
        <ele>1026.747</ele>
        <time>2017-12-09T17:34:20Z</time>
      </trkpt>
      <trkpt lat="40.848220" lon="-2.948935">
        <ele>1026.891</ele>
        <time>2017-12-09T17:34:21Z</time>
      </trkpt>
      <trkpt lat="40.848243" lon="-2.949033">
        <ele>1026.842</ele>
        <time>2017-12-09T17:34:22Z</time>
      </trkpt>
      <trkpt lat="40.848273" lon="-2.949128">
        <ele>1026.278</ele>
        <time>2017-12-09T17:34:23Z</time>
      </trkpt>
      <trkpt lat="40.848301" lon="-2.949226">
        <ele>1026.761</ele>
        <time>2017-12-09T17:34:24Z</time>
      </trkpt>
      <trkpt lat="40.848329" lon="-2.949313">
        <ele>1026.719</ele>
        <time>2017-12-09T17:34:25Z</time>
      </trkpt>
      <trkpt lat="40.848352" lon="-2.949402">
        <ele>1026.709</ele>
        <time>2017-12-09T17:34:26Z</time>
      </trkpt>
      <trkpt lat="40.848380" lon="-2.949481">
        <ele>1026.619</ele>
        <time>2017-12-09T17:34:27Z</time>
      </trkpt>
      <trkpt lat="40.848398" lon="-2.949559">
        <ele>1026.408</ele>
        <time>2017-12-09T17:34:28Z</time>
      </trkpt>
      <trkpt lat="40.848423" lon="-2.949620">
        <ele>1026.163</ele>
        <time>2017-12-09T17:34:29Z</time>
      </trkpt>
      <trkpt lat="40.848446" lon="-2.949673">
        <ele>1026.452</ele>
        <time>2017-12-09T17:34:30Z</time>
      </trkpt>
      <trkpt lat="40.848488" lon="-2.949789">
        <ele>1026.885</ele>
        <time>2017-12-09T17:34:32Z</time>
      </trkpt>
      <trkpt lat="40.848517" lon="-2.949869">
        <ele>1026.536</ele>
        <time>2017-12-09T17:34:33Z</time>
      </trkpt>
      <trkpt lat="40.848544" lon="-2.949943">
        <ele>1026.710</ele>
        <time>2017-12-09T17:34:34Z</time>
      </trkpt>
      <trkpt lat="40.848561" lon="-2.950034">
        <ele>1026.931</ele>
        <time>2017-12-09T17:34:35Z</time>
      </trkpt>
      <trkpt lat="40.848591" lon="-2.950121">
        <ele>1026.787</ele>
        <time>2017-12-09T17:34:36Z</time>
      </trkpt>
      <trkpt lat="40.848629" lon="-2.950217">
        <ele>1026.710</ele>
        <time>2017-12-09T17:34:37Z</time>
      </trkpt>
      <trkpt lat="40.848663" lon="-2.950307">
        <ele>1027.057</ele>
        <time>2017-12-09T17:34:38Z</time>
      </trkpt>
      <trkpt lat="40.848691" lon="-2.950393">
        <ele>1027.200</ele>
        <time>2017-12-09T17:34:39Z</time>
      </trkpt>
      <trkpt lat="40.848719" lon="-2.950482">
        <ele>1026.920</ele>
        <time>2017-12-09T17:34:40Z</time>
      </trkpt>
      <trkpt lat="40.848754" lon="-2.950570">
        <ele>1027.408</ele>
        <time>2017-12-09T17:34:41Z</time>
      </trkpt>
      <trkpt lat="40.848785" lon="-2.950661">
        <ele>1027.477</ele>
        <time>2017-12-09T17:34:42Z</time>
      </trkpt>
      <trkpt lat="40.848825" lon="-2.950748">
        <ele>1026.926</ele>
        <time>2017-12-09T17:34:43Z</time>
      </trkpt>
      <trkpt lat="40.848866" lon="-2.950836">
        <ele>1026.929</ele>
        <time>2017-12-09T17:34:44Z</time>
      </trkpt>
      <trkpt lat="40.848890" lon="-2.950929">
        <ele>1026.880</ele>
        <time>2017-12-09T17:34:45Z</time>
      </trkpt>
      <trkpt lat="40.848940" lon="-2.951008">
        <ele>1026.744</ele>
        <time>2017-12-09T17:34:46Z</time>
      </trkpt>
      <trkpt lat="40.848983" lon="-2.951092">
        <ele>1026.175</ele>
        <time>2017-12-09T17:34:47Z</time>
      </trkpt>
      <trkpt lat="40.849025" lon="-2.951168">
        <ele>1026.351</ele>
        <time>2017-12-09T17:34:48Z</time>
      </trkpt>
      <trkpt lat="40.849052" lon="-2.951241">
        <ele>1026.364</ele>
        <time>2017-12-09T17:34:49Z</time>
      </trkpt>
      <trkpt lat="40.849079" lon="-2.951306">
        <ele>1026.147</ele>
        <time>2017-12-09T17:34:50Z</time>
      </trkpt>
      <trkpt lat="40.849101" lon="-2.951363">
        <ele>1026.029</ele>
        <time>2017-12-09T17:34:51Z</time>
      </trkpt>
      <trkpt lat="40.849120" lon="-2.951434">
        <ele>1025.821</ele>
        <time>2017-12-09T17:34:53Z</time>
      </trkpt>
      <trkpt lat="40.849110" lon="-2.951502">
        <ele>1026.408</ele>
        <time>2017-12-09T17:34:57Z</time>
      </trkpt>
      <trkpt lat="40.849050" lon="-2.951524">
        <ele>1026.836</ele>
        <time>2017-12-09T17:34:59Z</time>
      </trkpt>
      <trkpt lat="40.848964" lon="-2.951546">
        <ele>1027.395</ele>
        <time>2017-12-09T17:35:01Z</time>
      </trkpt>
      <trkpt lat="40.848905" lon="-2.951560">
        <ele>1027.128</ele>
        <time>2017-12-09T17:35:02Z</time>
      </trkpt>
      <trkpt lat="40.848859" lon="-2.951568">
        <ele>1027.069</ele>
        <time>2017-12-09T17:35:03Z</time>
      </trkpt>
      <trkpt lat="40.848812" lon="-2.951580">
        <ele>1027.153</ele>
        <time>2017-12-09T17:35:04Z</time>
      </trkpt>
      <trkpt lat="40.848769" lon="-2.951607">
        <ele>1027.564</ele>
        <time>2017-12-09T17:35:05Z</time>
      </trkpt>
      <trkpt lat="40.848697" lon="-2.951679">
        <ele>1027.880</ele>
        <time>2017-12-09T17:35:07Z</time>
      </trkpt>
      <trkpt lat="40.848622" lon="-2.951768">
        <ele>1028.313</ele>
        <time>2017-12-09T17:35:09Z</time>
      </trkpt>
      <trkpt lat="40.848586" lon="-2.951817">
        <ele>1028.489</ele>
        <time>2017-12-09T17:35:10Z</time>
      </trkpt>
      <trkpt lat="40.848550" lon="-2.951896">
        <ele>1028.406</ele>
        <time>2017-12-09T17:35:11Z</time>
      </trkpt>
      <trkpt lat="40.848514" lon="-2.951967">
        <ele>1028.426</ele>
        <time>2017-12-09T17:35:12Z</time>
      </trkpt>
      <trkpt lat="40.848485" lon="-2.952051">
        <ele>1028.708</ele>
        <time>2017-12-09T17:35:13Z</time>
      </trkpt>
      <trkpt lat="40.848460" lon="-2.952145">
        <ele>1028.750</ele>
        <time>2017-12-09T17:35:14Z</time>
      </trkpt>
      <trkpt lat="40.848438" lon="-2.952237">
        <ele>1028.589</ele>
        <time>2017-12-09T17:35:15Z</time>
      </trkpt>
      <trkpt lat="40.848415" lon="-2.952321">
        <ele>1028.862</ele>
        <time>2017-12-09T17:35:16Z</time>
      </trkpt>
      <trkpt lat="40.848362" lon="-2.952412">
        <ele>1029.013</ele>
        <time>2017-12-09T17:35:17Z</time>
      </trkpt>
      <trkpt lat="40.848306" lon="-2.952493">
        <ele>1028.587</ele>
        <time>2017-12-09T17:35:18Z</time>
      </trkpt>
      <trkpt lat="40.848257" lon="-2.952566">
        <ele>1028.658</ele>
        <time>2017-12-09T17:35:19Z</time>
      </trkpt>
      <trkpt lat="40.848202" lon="-2.952637">
        <ele>1028.964</ele>
        <time>2017-12-09T17:35:20Z</time>
      </trkpt>
      <trkpt lat="40.848150" lon="-2.952728">
        <ele>1028.817</ele>
        <time>2017-12-09T17:35:21Z</time>
      </trkpt>
      <trkpt lat="40.848101" lon="-2.952808">
        <ele>1028.243</ele>
        <time>2017-12-09T17:35:22Z</time>
      </trkpt>
      <trkpt lat="40.848062" lon="-2.952889">
        <ele>1028.464</ele>
        <time>2017-12-09T17:35:23Z</time>
      </trkpt>
      <trkpt lat="40.848018" lon="-2.952979">
        <ele>1028.410</ele>
        <time>2017-12-09T17:35:24Z</time>
      </trkpt>
      <trkpt lat="40.847983" lon="-2.953070">
        <ele>1028.708</ele>
        <time>2017-12-09T17:35:25Z</time>
      </trkpt>
      <trkpt lat="40.847938" lon="-2.953169">
        <ele>1028.296</ele>
        <time>2017-12-09T17:35:26Z</time>
      </trkpt>
      <trkpt lat="40.847900" lon="-2.953273">
        <ele>1028.065</ele>
        <time>2017-12-09T17:35:27Z</time>
      </trkpt>
      <trkpt lat="40.847859" lon="-2.953370">
        <ele>1028.448</ele>
        <time>2017-12-09T17:35:28Z</time>
      </trkpt>
      <trkpt lat="40.847817" lon="-2.953444">
        <ele>1027.919</ele>
        <time>2017-12-09T17:35:29Z</time>
      </trkpt>
      <trkpt lat="40.847767" lon="-2.953545">
        <ele>1028.483</ele>
        <time>2017-12-09T17:35:30Z</time>
      </trkpt>
      <trkpt lat="40.847720" lon="-2.953620">
        <ele>1028.434</ele>
        <time>2017-12-09T17:35:31Z</time>
      </trkpt>
      <trkpt lat="40.847676" lon="-2.953699">
        <ele>1028.620</ele>
        <time>2017-12-09T17:35:32Z</time>
      </trkpt>
      <trkpt lat="40.847629" lon="-2.953779">
        <ele>1028.223</ele>
        <time>2017-12-09T17:35:33Z</time>
      </trkpt>
      <trkpt lat="40.847588" lon="-2.953855">
        <ele>1027.645</ele>
        <time>2017-12-09T17:35:34Z</time>
      </trkpt>
      <trkpt lat="40.847544" lon="-2.953940">
        <ele>1027.947</ele>
        <time>2017-12-09T17:35:35Z</time>
      </trkpt>
      <trkpt lat="40.847500" lon="-2.954038">
        <ele>1027.811</ele>
        <time>2017-12-09T17:35:36Z</time>
      </trkpt>
      <trkpt lat="40.847454" lon="-2.954133">
        <ele>1027.608</ele>
        <time>2017-12-09T17:35:37Z</time>
      </trkpt>
      <trkpt lat="40.847397" lon="-2.954228">
        <ele>1027.556</ele>
        <time>2017-12-09T17:35:38Z</time>
      </trkpt>
      <trkpt lat="40.847346" lon="-2.954322">
        <ele>1027.415</ele>
        <time>2017-12-09T17:35:39Z</time>
      </trkpt>
      <trkpt lat="40.847292" lon="-2.954415">
        <ele>1027.158</ele>
        <time>2017-12-09T17:35:40Z</time>
      </trkpt>
      <trkpt lat="40.847238" lon="-2.954521">
        <ele>1027.189</ele>
        <time>2017-12-09T17:35:41Z</time>
      </trkpt>
      <trkpt lat="40.847184" lon="-2.954622">
        <ele>1027.313</ele>
        <time>2017-12-09T17:35:42Z</time>
      </trkpt>
      <trkpt lat="40.847135" lon="-2.954733">
        <ele>1027.724</ele>
        <time>2017-12-09T17:35:43Z</time>
      </trkpt>
      <trkpt lat="40.847094" lon="-2.954843">
        <ele>1027.430</ele>
        <time>2017-12-09T17:35:44Z</time>
      </trkpt>
      <trkpt lat="40.847051" lon="-2.954946">
        <ele>1027.343</ele>
        <time>2017-12-09T17:35:45Z</time>
      </trkpt>
      <trkpt lat="40.847004" lon="-2.955053">
        <ele>1027.318</ele>
        <time>2017-12-09T17:35:46Z</time>
      </trkpt>
      <trkpt lat="40.846950" lon="-2.955156">
        <ele>1027.098</ele>
        <time>2017-12-09T17:35:47Z</time>
      </trkpt>
      <trkpt lat="40.846902" lon="-2.955256">
        <ele>1027.117</ele>
        <time>2017-12-09T17:35:48Z</time>
      </trkpt>
      <trkpt lat="40.846854" lon="-2.955345">
        <ele>1027.008</ele>
        <time>2017-12-09T17:35:49Z</time>
      </trkpt>
      <trkpt lat="40.846808" lon="-2.955426">
        <ele>1026.963</ele>
        <time>2017-12-09T17:35:50Z</time>
      </trkpt>
      <trkpt lat="40.846760" lon="-2.955515">
        <ele>1027.782</ele>
        <time>2017-12-09T17:35:51Z</time>
      </trkpt>
      <trkpt lat="40.846720" lon="-2.955612">
        <ele>1027.045</ele>
        <time>2017-12-09T17:35:52Z</time>
      </trkpt>
      <trkpt lat="40.846682" lon="-2.955706">
        <ele>1027.216</ele>
        <time>2017-12-09T17:35:53Z</time>
      </trkpt>
      <trkpt lat="40.846643" lon="-2.955800">
        <ele>1026.930</ele>
        <time>2017-12-09T17:35:54Z</time>
      </trkpt>
      <trkpt lat="40.846591" lon="-2.955883">
        <ele>1026.961</ele>
        <time>2017-12-09T17:35:55Z</time>
      </trkpt>
      <trkpt lat="40.846534" lon="-2.955968">
        <ele>1026.757</ele>
        <time>2017-12-09T17:35:56Z</time>
      </trkpt>
      <trkpt lat="40.846476" lon="-2.956043">
        <ele>1026.770</ele>
        <time>2017-12-09T17:35:57Z</time>
      </trkpt>
      <trkpt lat="40.846418" lon="-2.956127">
        <ele>1025.869</ele>
        <time>2017-12-09T17:35:58Z</time>
      </trkpt>
      <trkpt lat="40.846364" lon="-2.956213">
        <ele>1026.404</ele>
        <time>2017-12-09T17:35:59Z</time>
      </trkpt>
      <trkpt lat="40.846302" lon="-2.956289">
        <ele>1026.424</ele>
        <time>2017-12-09T17:36:00Z</time>
      </trkpt>
      <trkpt lat="40.846236" lon="-2.956372">
        <ele>1026.108</ele>
        <time>2017-12-09T17:36:01Z</time>
      </trkpt>
      <trkpt lat="40.846170" lon="-2.956454">
        <ele>1026.028</ele>
        <time>2017-12-09T17:36:02Z</time>
      </trkpt>
      <trkpt lat="40.846097" lon="-2.956531">
        <ele>1025.857</ele>
        <time>2017-12-09T17:36:03Z</time>
      </trkpt>
      <trkpt lat="40.846016" lon="-2.956607">
        <ele>1025.650</ele>
        <time>2017-12-09T17:36:04Z</time>
      </trkpt>
      <trkpt lat="40.845941" lon="-2.956680">
        <ele>1025.481</ele>
        <time>2017-12-09T17:36:05Z</time>
      </trkpt>
      <trkpt lat="40.845869" lon="-2.956757">
        <ele>1025.085</ele>
        <time>2017-12-09T17:36:06Z</time>
      </trkpt>
      <trkpt lat="40.845803" lon="-2.956836">
        <ele>1025.026</ele>
        <time>2017-12-09T17:36:07Z</time>
      </trkpt>
      <trkpt lat="40.845731" lon="-2.956923">
        <ele>1024.772</ele>
        <time>2017-12-09T17:36:08Z</time>
      </trkpt>
      <trkpt lat="40.845660" lon="-2.957005">
        <ele>1024.265</ele>
        <time>2017-12-09T17:36:09Z</time>
      </trkpt>
      <trkpt lat="40.845595" lon="-2.957089">
        <ele>1024.353</ele>
        <time>2017-12-09T17:36:10Z</time>
      </trkpt>
      <trkpt lat="40.845529" lon="-2.957165">
        <ele>1024.304</ele>
        <time>2017-12-09T17:36:11Z</time>
      </trkpt>
      <trkpt lat="40.845456" lon="-2.957232">
        <ele>1024.214</ele>
        <time>2017-12-09T17:36:12Z</time>
      </trkpt>
      <trkpt lat="40.845378" lon="-2.957303">
        <ele>1024.008</ele>
        <time>2017-12-09T17:36:13Z</time>
      </trkpt>
      <trkpt lat="40.845308" lon="-2.957374">
        <ele>1024.137</ele>
        <time>2017-12-09T17:36:14Z</time>
      </trkpt>
      <trkpt lat="40.845238" lon="-2.957451">
        <ele>1023.836</ele>
        <time>2017-12-09T17:36:15Z</time>
      </trkpt>
      <trkpt lat="40.845161" lon="-2.957530">
        <ele>1023.529</ele>
        <time>2017-12-09T17:36:16Z</time>
      </trkpt>
      <trkpt lat="40.845084" lon="-2.957617">
        <ele>1023.820</ele>
        <time>2017-12-09T17:36:17Z</time>
      </trkpt>
      <trkpt lat="40.845000" lon="-2.957699">
        <ele>1023.244</ele>
        <time>2017-12-09T17:36:18Z</time>
      </trkpt>
      <trkpt lat="40.844916" lon="-2.957778">
        <ele>1023.395</ele>
        <time>2017-12-09T17:36:19Z</time>
      </trkpt>
      <trkpt lat="40.844834" lon="-2.957868">
        <ele>1023.291</ele>
        <time>2017-12-09T17:36:20Z</time>
      </trkpt>
      <trkpt lat="40.844759" lon="-2.957944">
        <ele>1022.974</ele>
        <time>2017-12-09T17:36:21Z</time>
      </trkpt>
      <trkpt lat="40.844695" lon="-2.958015">
        <ele>1022.925</ele>
        <time>2017-12-09T17:36:22Z</time>
      </trkpt>
      <trkpt lat="40.844628" lon="-2.958090">
        <ele>1022.526</ele>
        <time>2017-12-09T17:36:23Z</time>
      </trkpt>
      <trkpt lat="40.844565" lon="-2.958159">
        <ele>1022.308</ele>
        <time>2017-12-09T17:36:24Z</time>
      </trkpt>
      <trkpt lat="40.844503" lon="-2.958211">
        <ele>1022.408</ele>
        <time>2017-12-09T17:36:25Z</time>
      </trkpt>
      <trkpt lat="40.844437" lon="-2.958267">
        <ele>1022.734</ele>
        <time>2017-12-09T17:36:26Z</time>
      </trkpt>
      <trkpt lat="40.844365" lon="-2.958332">
        <ele>1022.443</ele>
        <time>2017-12-09T17:36:27Z</time>
      </trkpt>
      <trkpt lat="40.844293" lon="-2.958407">
        <ele>1022.296</ele>
        <time>2017-12-09T17:36:28Z</time>
      </trkpt>
      <trkpt lat="40.844228" lon="-2.958500">
        <ele>1022.277</ele>
        <time>2017-12-09T17:36:29Z</time>
      </trkpt>
      <trkpt lat="40.844150" lon="-2.958588">
        <ele>1022.011</ele>
        <time>2017-12-09T17:36:30Z</time>
      </trkpt>
      <trkpt lat="40.844087" lon="-2.958672">
        <ele>1022.042</ele>
        <time>2017-12-09T17:36:31Z</time>
      </trkpt>
      <trkpt lat="40.844021" lon="-2.958752">
        <ele>1021.628</ele>
        <time>2017-12-09T17:36:32Z</time>
      </trkpt>
      <trkpt lat="40.843952" lon="-2.958832">
        <ele>1021.831</ele>
        <time>2017-12-09T17:36:33Z</time>
      </trkpt>
      <trkpt lat="40.843882" lon="-2.958910">
        <ele>1021.869</ele>
        <time>2017-12-09T17:36:34Z</time>
      </trkpt>
      <trkpt lat="40.843819" lon="-2.958980">
        <ele>1022.004</ele>
        <time>2017-12-09T17:36:35Z</time>
      </trkpt>
      <trkpt lat="40.843753" lon="-2.959051">
        <ele>1021.724</ele>
        <time>2017-12-09T17:36:36Z</time>
      </trkpt>
      <trkpt lat="40.843691" lon="-2.959119">
        <ele>1021.808</ele>
        <time>2017-12-09T17:36:37Z</time>
      </trkpt>
      <trkpt lat="40.843639" lon="-2.959186">
        <ele>1022.548</ele>
        <time>2017-12-09T17:36:38Z</time>
      </trkpt>
      <trkpt lat="40.843594" lon="-2.959240">
        <ele>1022.517</ele>
        <time>2017-12-09T17:36:39Z</time>
      </trkpt>
      <trkpt lat="40.843555" lon="-2.959286">
        <ele>1022.140</ele>
        <time>2017-12-09T17:36:40Z</time>
      </trkpt>
      <trkpt lat="40.843515" lon="-2.959333">
        <ele>1021.611</ele>
        <time>2017-12-09T17:36:42Z</time>
      </trkpt>
      <trkpt lat="40.843466" lon="-2.959335">
        <ele>1024.595</ele>
        <time>2017-12-09T17:38:37Z</time>
      </trkpt>
      <trkpt lat="40.843425" lon="-2.959385">
        <ele>1024.836</ele>
        <time>2017-12-09T17:38:39Z</time>
      </trkpt>
      <trkpt lat="40.843382" lon="-2.959438">
        <ele>1024.442</ele>
        <time>2017-12-09T17:38:41Z</time>
      </trkpt>
      <trkpt lat="40.843424" lon="-2.959408">
        <ele>1025.185</ele>
        <time>2017-12-09T17:38:47Z</time>
      </trkpt>
      <trkpt lat="40.843441" lon="-2.959332">
        <ele>1025.468</ele>
        <time>2017-12-09T17:38:54Z</time>
      </trkpt>
      <trkpt lat="40.843489" lon="-2.959288">
        <ele>1025.442</ele>
        <time>2017-12-09T17:38:56Z</time>
      </trkpt>
      <trkpt lat="40.843532" lon="-2.959258">
        <ele>1025.426</ele>
        <time>2017-12-09T17:38:58Z</time>
      </trkpt>
      <trkpt lat="40.843573" lon="-2.959228">
        <ele>1025.208</ele>
        <time>2017-12-09T17:39:01Z</time>
      </trkpt>
      <trkpt lat="40.843620" lon="-2.959183">
        <ele>1025.458</ele>
        <time>2017-12-09T17:39:06Z</time>
      </trkpt>
      <trkpt lat="40.843605" lon="-2.959114">
        <ele>1025.697</ele>
        <time>2017-12-09T17:39:10Z</time>
      </trkpt>
      <trkpt lat="40.843554" lon="-2.959081">
        <ele>1025.350</ele>
        <time>2017-12-09T17:39:13Z</time>
      </trkpt>
      <trkpt lat="40.843516" lon="-2.959047">
        <ele>1025.011</ele>
        <time>2017-12-09T17:39:17Z</time>
      </trkpt>
      <trkpt lat="40.843480" lon="-2.959005">
        <ele>1024.865</ele>
        <time>2017-12-09T17:39:25Z</time>
      </trkpt>
      <trkpt lat="40.843443" lon="-2.958960">
        <ele>1025.396</ele>
        <time>2017-12-09T17:39:28Z</time>
      </trkpt>
      <trkpt lat="40.843399" lon="-2.958914">
        <ele>1025.422</ele>
        <time>2017-12-09T17:39:30Z</time>
      </trkpt>
      <trkpt lat="40.843344" lon="-2.958853">
        <ele>1025.715</ele>
        <time>2017-12-09T17:39:32Z</time>
      </trkpt>
      <trkpt lat="40.843284" lon="-2.958788">
        <ele>1025.462</ele>
        <time>2017-12-09T17:39:34Z</time>
      </trkpt>
      <trkpt lat="40.843220" lon="-2.958712">
        <ele>1025.483</ele>
        <time>2017-12-09T17:39:36Z</time>
      </trkpt>
      <trkpt lat="40.843166" lon="-2.958634">
        <ele>1025.111</ele>
        <time>2017-12-09T17:39:38Z</time>
      </trkpt>
      <trkpt lat="40.843115" lon="-2.958566">
        <ele>1025.208</ele>
        <time>2017-12-09T17:39:40Z</time>
      </trkpt>
      <trkpt lat="40.843069" lon="-2.958510">
        <ele>1024.898</ele>
        <time>2017-12-09T17:39:42Z</time>
      </trkpt>
      <trkpt lat="40.843030" lon="-2.958459">
        <ele>1024.737</ele>
        <time>2017-12-09T17:39:44Z</time>
      </trkpt>
      <trkpt lat="40.842990" lon="-2.958413">
        <ele>1024.640</ele>
        <time>2017-12-09T17:39:47Z</time>
      </trkpt>
      <trkpt lat="40.842965" lon="-2.958358">
        <ele>1025.191</ele>
        <time>2017-12-09T17:40:11Z</time>
      </trkpt>
      <trkpt lat="40.842912" lon="-2.958295">
        <ele>1025.375</ele>
        <time>2017-12-09T17:40:13Z</time>
      </trkpt>
      <trkpt lat="40.842851" lon="-2.958220">
        <ele>1025.686</ele>
        <time>2017-12-09T17:40:15Z</time>
      </trkpt>
      <trkpt lat="40.842802" lon="-2.958151">
        <ele>1025.652</ele>
        <time>2017-12-09T17:40:16Z</time>
      </trkpt>
      <trkpt lat="40.842774" lon="-2.958103">
        <ele>1025.575</ele>
        <time>2017-12-09T17:40:17Z</time>
      </trkpt>
      <trkpt lat="40.842707" lon="-2.958013">
        <ele>1025.687</ele>
        <time>2017-12-09T17:40:19Z</time>
      </trkpt>
      <trkpt lat="40.842650" lon="-2.957931">
        <ele>1025.942</ele>
        <time>2017-12-09T17:40:21Z</time>
      </trkpt>
      <trkpt lat="40.842614" lon="-2.957878">
        <ele>1026.026</ele>
        <time>2017-12-09T17:40:22Z</time>
      </trkpt>
      <trkpt lat="40.842576" lon="-2.957824">
        <ele>1026.208</ele>
        <time>2017-12-09T17:40:23Z</time>
      </trkpt>
      <trkpt lat="40.842537" lon="-2.957774">
        <ele>1026.140</ele>
        <time>2017-12-09T17:40:24Z</time>
      </trkpt>
      <trkpt lat="40.842495" lon="-2.957728">
        <ele>1026.279</ele>
        <time>2017-12-09T17:40:25Z</time>
      </trkpt>
      <trkpt lat="40.842447" lon="-2.957675">
        <ele>1026.392</ele>
        <time>2017-12-09T17:40:26Z</time>
      </trkpt>
      <trkpt lat="40.842401" lon="-2.957623">
        <ele>1026.683</ele>
        <time>2017-12-09T17:40:27Z</time>
      </trkpt>
      <trkpt lat="40.842355" lon="-2.957568">
        <ele>1026.667</ele>
        <time>2017-12-09T17:40:28Z</time>
      </trkpt>
      <trkpt lat="40.842313" lon="-2.957515">
        <ele>1026.618</ele>
        <time>2017-12-09T17:40:29Z</time>
      </trkpt>
      <trkpt lat="40.842271" lon="-2.957455">
        <ele>1026.724</ele>
        <time>2017-12-09T17:40:30Z</time>
      </trkpt>
      <trkpt lat="40.842232" lon="-2.957383">
        <ele>1026.827</ele>
        <time>2017-12-09T17:40:31Z</time>
      </trkpt>
      <trkpt lat="40.842188" lon="-2.957314">
        <ele>1026.876</ele>
        <time>2017-12-09T17:40:32Z</time>
      </trkpt>
      <trkpt lat="40.842135" lon="-2.957254">
        <ele>1026.990</ele>
        <time>2017-12-09T17:40:33Z</time>
      </trkpt>
      <trkpt lat="40.842086" lon="-2.957194">
        <ele>1027.019</ele>
        <time>2017-12-09T17:40:34Z</time>
      </trkpt>
      <trkpt lat="40.842030" lon="-2.957125">
        <ele>1026.908</ele>
        <time>2017-12-09T17:40:35Z</time>
      </trkpt>
      <trkpt lat="40.841973" lon="-2.957047">
        <ele>1026.819</ele>
        <time>2017-12-09T17:40:36Z</time>
      </trkpt>
      <trkpt lat="40.841917" lon="-2.956984">
        <ele>1026.728</ele>
        <time>2017-12-09T17:40:37Z</time>
      </trkpt>
      <trkpt lat="40.841858" lon="-2.956924">
        <ele>1026.471</ele>
        <time>2017-12-09T17:40:38Z</time>
      </trkpt>
      <trkpt lat="40.841811" lon="-2.956859">
        <ele>1026.452</ele>
        <time>2017-12-09T17:40:39Z</time>
      </trkpt>
      <trkpt lat="40.841760" lon="-2.956791">
        <ele>1025.746</ele>
        <time>2017-12-09T17:40:40Z</time>
      </trkpt>
      <trkpt lat="40.841728" lon="-2.956734">
        <ele>1025.567</ele>
        <time>2017-12-09T17:40:41Z</time>
      </trkpt>
      <trkpt lat="40.841701" lon="-2.956676">
        <ele>1025.273</ele>
        <time>2017-12-09T17:40:42Z</time>
      </trkpt>
      <trkpt lat="40.841674" lon="-2.956608">
        <ele>1025.466</ele>
        <time>2017-12-09T17:40:43Z</time>
      </trkpt>
      <trkpt lat="40.841638" lon="-2.956553">
        <ele>1024.424</ele>
        <time>2017-12-09T17:40:44Z</time>
      </trkpt>
      <trkpt lat="40.841614" lon="-2.956494">
        <ele>1024.804</ele>
        <time>2017-12-09T17:40:45Z</time>
      </trkpt>
      <trkpt lat="40.841585" lon="-2.956389">
        <ele>1024.614</ele>
        <time>2017-12-09T17:40:47Z</time>
      </trkpt>
      <trkpt lat="40.841524" lon="-2.956340">
        <ele>1024.608</ele>
        <time>2017-12-09T17:40:49Z</time>
      </trkpt>
      <trkpt lat="40.841472" lon="-2.956372">
        <ele>1024.614</ele>
        <time>2017-12-09T17:40:51Z</time>
      </trkpt>
      <trkpt lat="40.841429" lon="-2.956432">
        <ele>1023.573</ele>
        <time>2017-12-09T17:40:53Z</time>
      </trkpt>
      <trkpt lat="40.841393" lon="-2.956533">
        <ele>1022.796</ele>
        <time>2017-12-09T17:40:55Z</time>
      </trkpt>
      <trkpt lat="40.841373" lon="-2.956590">
        <ele>1022.017</ele>
        <time>2017-12-09T17:40:56Z</time>
      </trkpt>
      <trkpt lat="40.841356" lon="-2.956648">
        <ele>1022.051</ele>
        <time>2017-12-09T17:40:57Z</time>
      </trkpt>
      <trkpt lat="40.841339" lon="-2.956714">
        <ele>1021.522</ele>
        <time>2017-12-09T17:40:58Z</time>
      </trkpt>
      <trkpt lat="40.841321" lon="-2.956784">
        <ele>1021.248</ele>
        <time>2017-12-09T17:40:59Z</time>
      </trkpt>
      <trkpt lat="40.841303" lon="-2.956857">
        <ele>1020.351</ele>
        <time>2017-12-09T17:41:00Z</time>
      </trkpt>
      <trkpt lat="40.841283" lon="-2.956933">
        <ele>1019.942</ele>
        <time>2017-12-09T17:41:01Z</time>
      </trkpt>
      <trkpt lat="40.841268" lon="-2.957007">
        <ele>1018.922</ele>
        <time>2017-12-09T17:41:02Z</time>
      </trkpt>
      <trkpt lat="40.841249" lon="-2.957083">
        <ele>1018.614</ele>
        <time>2017-12-09T17:41:03Z</time>
      </trkpt>
      <trkpt lat="40.841232" lon="-2.957157">
        <ele>1017.908</ele>
        <time>2017-12-09T17:41:04Z</time>
      </trkpt>
      <trkpt lat="40.841212" lon="-2.957226">
        <ele>1017.416</ele>
        <time>2017-12-09T17:41:05Z</time>
      </trkpt>
      <trkpt lat="40.841188" lon="-2.957297">
        <ele>1017.235</ele>
        <time>2017-12-09T17:41:06Z</time>
      </trkpt>
      <trkpt lat="40.841164" lon="-2.957364">
        <ele>1017.278</ele>
        <time>2017-12-09T17:41:07Z</time>
      </trkpt>
      <trkpt lat="40.841137" lon="-2.957430">
        <ele>1017.039</ele>
        <time>2017-12-09T17:41:08Z</time>
      </trkpt>
      <trkpt lat="40.841107" lon="-2.957505">
        <ele>1015.973</ele>
        <time>2017-12-09T17:41:09Z</time>
      </trkpt>
      <trkpt lat="40.841078" lon="-2.957577">
        <ele>1015.954</ele>
        <time>2017-12-09T17:41:10Z</time>
      </trkpt>
      <trkpt lat="40.841049" lon="-2.957646">
        <ele>1015.330</ele>
        <time>2017-12-09T17:41:11Z</time>
      </trkpt>
      <trkpt lat="40.841023" lon="-2.957710">
        <ele>1015.133</ele>
        <time>2017-12-09T17:41:12Z</time>
      </trkpt>
      <trkpt lat="40.841002" lon="-2.957767">
        <ele>1014.778</ele>
        <time>2017-12-09T17:41:13Z</time>
      </trkpt>
      <trkpt lat="40.840977" lon="-2.957823">
        <ele>1014.233</ele>
        <time>2017-12-09T17:41:14Z</time>
      </trkpt>
      <trkpt lat="40.840955" lon="-2.957879">
        <ele>1014.226</ele>
        <time>2017-12-09T17:41:15Z</time>
      </trkpt>
      <trkpt lat="40.840914" lon="-2.957984">
        <ele>1013.708</ele>
        <time>2017-12-09T17:41:17Z</time>
      </trkpt>
      <trkpt lat="40.840875" lon="-2.958082">
        <ele>1012.929</ele>
        <time>2017-12-09T17:41:19Z</time>
      </trkpt>
      <trkpt lat="40.840840" lon="-2.958178">
        <ele>1012.728</ele>
        <time>2017-12-09T17:41:21Z</time>
      </trkpt>
      <trkpt lat="40.840820" lon="-2.958232">
        <ele>1012.171</ele>
        <time>2017-12-09T17:41:22Z</time>
      </trkpt>
      <trkpt lat="40.840799" lon="-2.958295">
        <ele>1011.782</ele>
        <time>2017-12-09T17:41:23Z</time>
      </trkpt>
      <trkpt lat="40.840772" lon="-2.958355">
        <ele>1011.786</ele>
        <time>2017-12-09T17:41:24Z</time>
      </trkpt>
      <trkpt lat="40.840742" lon="-2.958421">
        <ele>1011.547</ele>
        <time>2017-12-09T17:41:25Z</time>
      </trkpt>
      <trkpt lat="40.840718" lon="-2.958486">
        <ele>1011.353</ele>
        <time>2017-12-09T17:41:26Z</time>
      </trkpt>
      <trkpt lat="40.840689" lon="-2.958540">
        <ele>1010.986</ele>
        <time>2017-12-09T17:41:27Z</time>
      </trkpt>
      <trkpt lat="40.840660" lon="-2.958603">
        <ele>1010.842</ele>
        <time>2017-12-09T17:41:28Z</time>
      </trkpt>
      <trkpt lat="40.840627" lon="-2.958668">
        <ele>1010.422</ele>
        <time>2017-12-09T17:41:29Z</time>
      </trkpt>
      <trkpt lat="40.840599" lon="-2.958742">
        <ele>1009.914</ele>
        <time>2017-12-09T17:41:30Z</time>
      </trkpt>
      <trkpt lat="40.840568" lon="-2.958811">
        <ele>1009.508</ele>
        <time>2017-12-09T17:41:31Z</time>
      </trkpt>
      <trkpt lat="40.840534" lon="-2.958878">
        <ele>1009.136</ele>
        <time>2017-12-09T17:41:32Z</time>
      </trkpt>
      <trkpt lat="40.840493" lon="-2.958947">
        <ele>1008.555</ele>
        <time>2017-12-09T17:41:33Z</time>
      </trkpt>
      <trkpt lat="40.840451" lon="-2.959021">
        <ele>1008.388</ele>
        <time>2017-12-09T17:41:34Z</time>
      </trkpt>
      <trkpt lat="40.840410" lon="-2.959077">
        <ele>1008.069</ele>
        <time>2017-12-09T17:41:35Z</time>
      </trkpt>
      <trkpt lat="40.840361" lon="-2.959148">
        <ele>1007.273</ele>
        <time>2017-12-09T17:41:36Z</time>
      </trkpt>
      <trkpt lat="40.840311" lon="-2.959214">
        <ele>1007.284</ele>
        <time>2017-12-09T17:41:37Z</time>
      </trkpt>
      <trkpt lat="40.840257" lon="-2.959290">
        <ele>1006.820</ele>
        <time>2017-12-09T17:41:38Z</time>
      </trkpt>
      <trkpt lat="40.840208" lon="-2.959345">
        <ele>1006.463</ele>
        <time>2017-12-09T17:41:39Z</time>
      </trkpt>
      <trkpt lat="40.840153" lon="-2.959416">
        <ele>1005.892</ele>
        <time>2017-12-09T17:41:40Z</time>
      </trkpt>
      <trkpt lat="40.840094" lon="-2.959480">
        <ele>1005.573</ele>
        <time>2017-12-09T17:41:41Z</time>
      </trkpt>
      <trkpt lat="40.840034" lon="-2.959546">
        <ele>1004.920</ele>
        <time>2017-12-09T17:41:42Z</time>
      </trkpt>
      <trkpt lat="40.839971" lon="-2.959612">
        <ele>1004.408</ele>
        <time>2017-12-09T17:41:43Z</time>
      </trkpt>
      <trkpt lat="40.839903" lon="-2.959678">
        <ele>1004.121</ele>
        <time>2017-12-09T17:41:44Z</time>
      </trkpt>
      <trkpt lat="40.839837" lon="-2.959745">
        <ele>1003.650</ele>
        <time>2017-12-09T17:41:45Z</time>
      </trkpt>
      <trkpt lat="40.839772" lon="-2.959813">
        <ele>1002.913</ele>
        <time>2017-12-09T17:41:46Z</time>
      </trkpt>
      <trkpt lat="40.839703" lon="-2.959882">
        <ele>1002.514</ele>
        <time>2017-12-09T17:41:47Z</time>
      </trkpt>
      <trkpt lat="40.839628" lon="-2.959949">
        <ele>1002.058</ele>
        <time>2017-12-09T17:41:48Z</time>
      </trkpt>
      <trkpt lat="40.839561" lon="-2.960010">
        <ele>1001.959</ele>
        <time>2017-12-09T17:41:49Z</time>
      </trkpt>
      <trkpt lat="40.839498" lon="-2.960064">
        <ele>1001.035</ele>
        <time>2017-12-09T17:41:50Z</time>
      </trkpt>
      <trkpt lat="40.839429" lon="-2.960127">
        <ele>1001.088</ele>
        <time>2017-12-09T17:41:51Z</time>
      </trkpt>
      <trkpt lat="40.839361" lon="-2.960185">
        <ele>1000.674</ele>
        <time>2017-12-09T17:41:52Z</time>
      </trkpt>
      <trkpt lat="40.839291" lon="-2.960240">
        <ele>1000.356</ele>
        <time>2017-12-09T17:41:53Z</time>
      </trkpt>
      <trkpt lat="40.839220" lon="-2.960301">
        <ele>999.721</ele>
        <time>2017-12-09T17:41:54Z</time>
      </trkpt>
      <trkpt lat="40.839135" lon="-2.960371">
        <ele>999.308</ele>
        <time>2017-12-09T17:41:55Z</time>
      </trkpt>
      <trkpt lat="40.839059" lon="-2.960430">
        <ele>999.059</ele>
        <time>2017-12-09T17:41:56Z</time>
      </trkpt>
      <trkpt lat="40.838978" lon="-2.960477">
        <ele>998.558</ele>
        <time>2017-12-09T17:41:57Z</time>
      </trkpt>
      <trkpt lat="40.838895" lon="-2.960523">
        <ele>997.971</ele>
        <time>2017-12-09T17:41:58Z</time>
      </trkpt>
      <trkpt lat="40.838809" lon="-2.960572">
        <ele>997.162</ele>
        <time>2017-12-09T17:41:59Z</time>
      </trkpt>
      <trkpt lat="40.838721" lon="-2.960626">
        <ele>996.516</ele>
        <time>2017-12-09T17:42:00Z</time>
      </trkpt>
      <trkpt lat="40.838631" lon="-2.960670">
        <ele>995.767</ele>
        <time>2017-12-09T17:42:01Z</time>
      </trkpt>
      <trkpt lat="40.838541" lon="-2.960704">
        <ele>995.263</ele>
        <time>2017-12-09T17:42:02Z</time>
      </trkpt>
      <trkpt lat="40.838456" lon="-2.960735">
        <ele>994.386</ele>
        <time>2017-12-09T17:42:03Z</time>
      </trkpt>
      <trkpt lat="40.838369" lon="-2.960769">
        <ele>993.841</ele>
        <time>2017-12-09T17:42:04Z</time>
      </trkpt>
      <trkpt lat="40.838286" lon="-2.960799">
        <ele>992.981</ele>
        <time>2017-12-09T17:42:05Z</time>
      </trkpt>
      <trkpt lat="40.838206" lon="-2.960833">
        <ele>992.609</ele>
        <time>2017-12-09T17:42:06Z</time>
      </trkpt>
      <trkpt lat="40.838126" lon="-2.960858">
        <ele>991.908</ele>
        <time>2017-12-09T17:42:07Z</time>
      </trkpt>
      <trkpt lat="40.838038" lon="-2.960888">
        <ele>991.156</ele>
        <time>2017-12-09T17:42:08Z</time>
      </trkpt>
      <trkpt lat="40.837957" lon="-2.960907">
        <ele>990.745</ele>
        <time>2017-12-09T17:42:09Z</time>
      </trkpt>
      <trkpt lat="40.837871" lon="-2.960923">
        <ele>990.388</ele>
        <time>2017-12-09T17:42:10Z</time>
      </trkpt>
      <trkpt lat="40.837790" lon="-2.960945">
        <ele>989.429</ele>
        <time>2017-12-09T17:42:11Z</time>
      </trkpt>
      <trkpt lat="40.837709" lon="-2.960971">
        <ele>988.953</ele>
        <time>2017-12-09T17:42:12Z</time>
      </trkpt>
      <trkpt lat="40.837636" lon="-2.961002">
        <ele>988.194</ele>
        <time>2017-12-09T17:42:13Z</time>
      </trkpt>
      <trkpt lat="40.837556" lon="-2.961026">
        <ele>987.430</ele>
        <time>2017-12-09T17:42:14Z</time>
      </trkpt>
      <trkpt lat="40.837475" lon="-2.961059">
        <ele>986.943</ele>
        <time>2017-12-09T17:42:15Z</time>
      </trkpt>
      <trkpt lat="40.837391" lon="-2.961100">
        <ele>986.412</ele>
        <time>2017-12-09T17:42:16Z</time>
      </trkpt>
      <trkpt lat="40.837304" lon="-2.961145">
        <ele>986.432</ele>
        <time>2017-12-09T17:42:17Z</time>
      </trkpt>
      <trkpt lat="40.837221" lon="-2.961189">
        <ele>985.805</ele>
        <time>2017-12-09T17:42:18Z</time>
      </trkpt>
      <trkpt lat="40.837138" lon="-2.961238">
        <ele>984.908</ele>
        <time>2017-12-09T17:42:19Z</time>
      </trkpt>
      <trkpt lat="40.837044" lon="-2.961293">
        <ele>984.633</ele>
        <time>2017-12-09T17:42:20Z</time>
      </trkpt>
      <trkpt lat="40.836954" lon="-2.961343">
        <ele>984.322</ele>
        <time>2017-12-09T17:42:21Z</time>
      </trkpt>
      <trkpt lat="40.836871" lon="-2.961387">
        <ele>983.695</ele>
        <time>2017-12-09T17:42:22Z</time>
      </trkpt>
      <trkpt lat="40.836791" lon="-2.961430">
        <ele>982.866</ele>
        <time>2017-12-09T17:42:23Z</time>
      </trkpt>
      <trkpt lat="40.836713" lon="-2.961477">
        <ele>982.530</ele>
        <time>2017-12-09T17:42:24Z</time>
      </trkpt>
      <trkpt lat="40.836646" lon="-2.961534">
        <ele>981.841</ele>
        <time>2017-12-09T17:42:25Z</time>
      </trkpt>
      <trkpt lat="40.836588" lon="-2.961584">
        <ele>981.297</ele>
        <time>2017-12-09T17:42:26Z</time>
      </trkpt>
      <trkpt lat="40.836528" lon="-2.961660">
        <ele>980.820</ele>
        <time>2017-12-09T17:42:27Z</time>
      </trkpt>
      <trkpt lat="40.836494" lon="-2.961727">
        <ele>980.338</ele>
        <time>2017-12-09T17:42:28Z</time>
      </trkpt>
      <trkpt lat="40.836458" lon="-2.961797">
        <ele>980.170</ele>
        <time>2017-12-09T17:42:29Z</time>
      </trkpt>
      <trkpt lat="40.836425" lon="-2.961863">
        <ele>979.817</ele>
        <time>2017-12-09T17:42:30Z</time>
      </trkpt>
      <trkpt lat="40.836367" lon="-2.961915">
        <ele>979.308</ele>
        <time>2017-12-09T17:42:31Z</time>
      </trkpt>
      <trkpt lat="40.836317" lon="-2.961942">
        <ele>979.035</ele>
        <time>2017-12-09T17:42:32Z</time>
      </trkpt>
      <trkpt lat="40.836265" lon="-2.961967">
        <ele>978.564</ele>
        <time>2017-12-09T17:42:33Z</time>
      </trkpt>
      <trkpt lat="40.836216" lon="-2.962002">
        <ele>978.497</ele>
        <time>2017-12-09T17:42:34Z</time>
      </trkpt>
      <trkpt lat="40.836164" lon="-2.962056">
        <ele>977.428</ele>
        <time>2017-12-09T17:42:35Z</time>
      </trkpt>
      <trkpt lat="40.836117" lon="-2.962110">
        <ele>976.912</ele>
        <time>2017-12-09T17:42:36Z</time>
      </trkpt>
      <trkpt lat="40.836078" lon="-2.962165">
        <ele>976.433</ele>
        <time>2017-12-09T17:42:37Z</time>
      </trkpt>
      <trkpt lat="40.836034" lon="-2.962232">
        <ele>975.899</ele>
        <time>2017-12-09T17:42:38Z</time>
      </trkpt>
      <trkpt lat="40.835995" lon="-2.962294">
        <ele>974.942</ele>
        <time>2017-12-09T17:42:39Z</time>
      </trkpt>
      <trkpt lat="40.835953" lon="-2.962359">
        <ele>974.175</ele>
        <time>2017-12-09T17:42:40Z</time>
      </trkpt>
      <trkpt lat="40.835922" lon="-2.962425">
        <ele>974.128</ele>
        <time>2017-12-09T17:42:41Z</time>
      </trkpt>
      <trkpt lat="40.835900" lon="-2.962496">
        <ele>973.520</ele>
        <time>2017-12-09T17:42:42Z</time>
      </trkpt>
      <trkpt lat="40.835887" lon="-2.962576">
        <ele>972.908</ele>
        <time>2017-12-09T17:42:43Z</time>
      </trkpt>
      <trkpt lat="40.835883" lon="-2.962653">
        <ele>972.919</ele>
        <time>2017-12-09T17:42:44Z</time>
      </trkpt>
      <trkpt lat="40.835883" lon="-2.962737">
        <ele>972.838</ele>
        <time>2017-12-09T17:42:45Z</time>
      </trkpt>
      <trkpt lat="40.835865" lon="-2.962823">
        <ele>972.211</ele>
        <time>2017-12-09T17:42:46Z</time>
      </trkpt>
      <trkpt lat="40.835865" lon="-2.962910">
        <ele>972.022</ele>
        <time>2017-12-09T17:42:47Z</time>
      </trkpt>
      <trkpt lat="40.835867" lon="-2.962989">
        <ele>971.566</ele>
        <time>2017-12-09T17:42:48Z</time>
      </trkpt>
      <trkpt lat="40.835863" lon="-2.963053">
        <ele>970.827</ele>
        <time>2017-12-09T17:42:49Z</time>
      </trkpt>
      <trkpt lat="40.835849" lon="-2.963132">
        <ele>970.223</ele>
        <time>2017-12-09T17:42:50Z</time>
      </trkpt>
      <trkpt lat="40.835834" lon="-2.963215">
        <ele>969.796</ele>
        <time>2017-12-09T17:42:51Z</time>
      </trkpt>
      <trkpt lat="40.835809" lon="-2.963279">
        <ele>969.081</ele>
        <time>2017-12-09T17:42:52Z</time>
      </trkpt>
      <trkpt lat="40.835757" lon="-2.963332">
        <ele>968.761</ele>
        <time>2017-12-09T17:42:53Z</time>
      </trkpt>
      <trkpt lat="40.835722" lon="-2.963377">
        <ele>968.017</ele>
        <time>2017-12-09T17:42:54Z</time>
      </trkpt>
      <trkpt lat="40.835686" lon="-2.963439">
        <ele>967.308</ele>
        <time>2017-12-09T17:42:55Z</time>
      </trkpt>
      <trkpt lat="40.835653" lon="-2.963499">
        <ele>966.990</ele>
        <time>2017-12-09T17:42:56Z</time>
      </trkpt>
      <trkpt lat="40.835646" lon="-2.963579">
        <ele>966.219</ele>
        <time>2017-12-09T17:42:57Z</time>
      </trkpt>
      <trkpt lat="40.835641" lon="-2.963650">
        <ele>965.952</ele>
        <time>2017-12-09T17:42:58Z</time>
      </trkpt>
      <trkpt lat="40.835635" lon="-2.963714">
        <ele>964.793</ele>
        <time>2017-12-09T17:42:59Z</time>
      </trkpt>
      <trkpt lat="40.835635" lon="-2.963777">
        <ele>963.897</ele>
        <time>2017-12-09T17:43:00Z</time>
      </trkpt>
      <trkpt lat="40.835629" lon="-2.963840">
        <ele>963.318</ele>
        <time>2017-12-09T17:43:01Z</time>
      </trkpt>
      <trkpt lat="40.835616" lon="-2.963947">
        <ele>962.334</ele>
        <time>2017-12-09T17:43:03Z</time>
      </trkpt>
      <trkpt lat="40.835609" lon="-2.964033">
        <ele>961.357</ele>
        <time>2017-12-09T17:43:05Z</time>
      </trkpt>
      <trkpt lat="40.835589" lon="-2.964127">
        <ele>961.171</ele>
        <time>2017-12-09T17:43:07Z</time>
      </trkpt>
      <trkpt lat="40.835573" lon="-2.964241">
        <ele>960.841</ele>
        <time>2017-12-09T17:43:09Z</time>
      </trkpt>
      <trkpt lat="40.835562" lon="-2.964313">
        <ele>960.815</ele>
        <time>2017-12-09T17:43:10Z</time>
      </trkpt>
      <trkpt lat="40.835548" lon="-2.964398">
        <ele>960.408</ele>
        <time>2017-12-09T17:43:11Z</time>
      </trkpt>
      <trkpt lat="40.835542" lon="-2.964492">
        <ele>959.959</ele>
        <time>2017-12-09T17:43:12Z</time>
      </trkpt>
      <trkpt lat="40.835537" lon="-2.964592">
        <ele>959.468</ele>
        <time>2017-12-09T17:43:13Z</time>
      </trkpt>
      <trkpt lat="40.835541" lon="-2.964687">
        <ele>958.951</ele>
        <time>2017-12-09T17:43:14Z</time>
      </trkpt>
      <trkpt lat="40.835543" lon="-2.964794">
        <ele>958.392</ele>
        <time>2017-12-09T17:43:15Z</time>
      </trkpt>
      <trkpt lat="40.835539" lon="-2.964899">
        <ele>957.956</ele>
        <time>2017-12-09T17:43:16Z</time>
      </trkpt>
      <trkpt lat="40.835544" lon="-2.965015">
        <ele>956.777</ele>
        <time>2017-12-09T17:43:17Z</time>
      </trkpt>
      <trkpt lat="40.835545" lon="-2.965131">
        <ele>956.293</ele>
        <time>2017-12-09T17:43:18Z</time>
      </trkpt>
      <trkpt lat="40.835536" lon="-2.965244">
        <ele>955.336</ele>
        <time>2017-12-09T17:43:19Z</time>
      </trkpt>
      <trkpt lat="40.835528" lon="-2.965362">
        <ele>955.078</ele>
        <time>2017-12-09T17:43:20Z</time>
      </trkpt>
      <trkpt lat="40.835516" lon="-2.965476">
        <ele>954.233</ele>
        <time>2017-12-09T17:43:21Z</time>
      </trkpt>
      <trkpt lat="40.835491" lon="-2.965581">
        <ele>953.126</ele>
        <time>2017-12-09T17:43:22Z</time>
      </trkpt>
      <trkpt lat="40.835460" lon="-2.965693">
        <ele>952.408</ele>
        <time>2017-12-09T17:43:23Z</time>
      </trkpt>
      <trkpt lat="40.835423" lon="-2.965798">
        <ele>951.789</ele>
        <time>2017-12-09T17:43:24Z</time>
      </trkpt>
      <trkpt lat="40.835392" lon="-2.965905">
        <ele>951.198</ele>
        <time>2017-12-09T17:43:25Z</time>
      </trkpt>
      <trkpt lat="40.835353" lon="-2.966003">
        <ele>950.351</ele>
        <time>2017-12-09T17:43:26Z</time>
      </trkpt>
      <trkpt lat="40.835312" lon="-2.966089">
        <ele>949.372</ele>
        <time>2017-12-09T17:43:27Z</time>
      </trkpt>
      <trkpt lat="40.835266" lon="-2.966159">
        <ele>948.646</ele>
        <time>2017-12-09T17:43:28Z</time>
      </trkpt>
      <trkpt lat="40.835199" lon="-2.966233">
        <ele>948.147</ele>
        <time>2017-12-09T17:43:29Z</time>
      </trkpt>
      <trkpt lat="40.835144" lon="-2.966303">
        <ele>947.543</ele>
        <time>2017-12-09T17:43:30Z</time>
      </trkpt>
      <trkpt lat="40.835090" lon="-2.966387">
        <ele>946.946</ele>
        <time>2017-12-09T17:43:31Z</time>
      </trkpt>
      <trkpt lat="40.835043" lon="-2.966466">
        <ele>946.558</ele>
        <time>2017-12-09T17:43:32Z</time>
      </trkpt>
      <trkpt lat="40.835002" lon="-2.966547">
        <ele>946.252</ele>
        <time>2017-12-09T17:43:33Z</time>
      </trkpt>
      <trkpt lat="40.834960" lon="-2.966626">
        <ele>945.717</ele>
        <time>2017-12-09T17:43:34Z</time>
      </trkpt>
      <trkpt lat="40.834905" lon="-2.966708">
        <ele>945.108</ele>
        <time>2017-12-09T17:43:35Z</time>
      </trkpt>
      <trkpt lat="40.834852" lon="-2.966798">
        <ele>945.187</ele>
        <time>2017-12-09T17:43:36Z</time>
      </trkpt>
      <trkpt lat="40.834809" lon="-2.966880">
        <ele>944.636</ele>
        <time>2017-12-09T17:43:37Z</time>
      </trkpt>
      <trkpt lat="40.834765" lon="-2.966958">
        <ele>944.379</ele>
        <time>2017-12-09T17:43:38Z</time>
      </trkpt>
      <trkpt lat="40.834734" lon="-2.967032">
        <ele>943.860</ele>
        <time>2017-12-09T17:43:39Z</time>
      </trkpt>
      <trkpt lat="40.834702" lon="-2.967119">
        <ele>943.034</ele>
        <time>2017-12-09T17:43:40Z</time>
      </trkpt>
      <trkpt lat="40.834678" lon="-2.967217">
        <ele>942.245</ele>
        <time>2017-12-09T17:43:41Z</time>
      </trkpt>
      <trkpt lat="40.834649" lon="-2.967316">
        <ele>941.841</ele>
        <time>2017-12-09T17:43:42Z</time>
      </trkpt>
      <trkpt lat="40.834611" lon="-2.967401">
        <ele>940.854</ele>
        <time>2017-12-09T17:43:43Z</time>
      </trkpt>
      <trkpt lat="40.834572" lon="-2.967485">
        <ele>939.843</ele>
        <time>2017-12-09T17:43:44Z</time>
      </trkpt>
      <trkpt lat="40.834528" lon="-2.967554">
        <ele>939.264</ele>
        <time>2017-12-09T17:43:45Z</time>
      </trkpt>
      <trkpt lat="40.834485" lon="-2.967617">
        <ele>938.510</ele>
        <time>2017-12-09T17:43:46Z</time>
      </trkpt>
      <trkpt lat="40.834445" lon="-2.967676">
        <ele>937.908</ele>
        <time>2017-12-09T17:43:47Z</time>
      </trkpt>
      <trkpt lat="40.834395" lon="-2.967749">
        <ele>937.186</ele>
        <time>2017-12-09T17:43:48Z</time>
      </trkpt>
      <trkpt lat="40.834356" lon="-2.967825">
        <ele>936.635</ele>
        <time>2017-12-09T17:43:49Z</time>
      </trkpt>
      <trkpt lat="40.834327" lon="-2.967900">
        <ele>935.618</ele>
        <time>2017-12-09T17:43:50Z</time>
      </trkpt>
      <trkpt lat="40.834313" lon="-2.967969">
        <ele>935.249</ele>
        <time>2017-12-09T17:43:51Z</time>
      </trkpt>
      <trkpt lat="40.834310" lon="-2.968042">
        <ele>934.693</ele>
        <time>2017-12-09T17:43:52Z</time>
      </trkpt>
      <trkpt lat="40.834302" lon="-2.968107">
        <ele>934.084</ele>
        <time>2017-12-09T17:43:53Z</time>
      </trkpt>
      <trkpt lat="40.834268" lon="-2.968184">
        <ele>933.440</ele>
        <time>2017-12-09T17:43:55Z</time>
      </trkpt>
      <trkpt lat="40.834216" lon="-2.968154">
        <ele>932.313</ele>
        <time>2017-12-09T17:43:57Z</time>
      </trkpt>
      <trkpt lat="40.834201" lon="-2.968055">
        <ele>931.684</ele>
        <time>2017-12-09T17:43:59Z</time>
      </trkpt>
      <trkpt lat="40.834202" lon="-2.967988">
        <ele>931.307</ele>
        <time>2017-12-09T17:44:00Z</time>
      </trkpt>
      <trkpt lat="40.834206" lon="-2.967926">
        <ele>930.517</ele>
        <time>2017-12-09T17:44:01Z</time>
      </trkpt>
      <trkpt lat="40.834185" lon="-2.967866">
        <ele>930.508</ele>
        <time>2017-12-09T17:44:02Z</time>
      </trkpt>
      <trkpt lat="40.834172" lon="-2.967780">
        <ele>929.710</ele>
        <time>2017-12-09T17:44:03Z</time>
      </trkpt>
      <trkpt lat="40.834177" lon="-2.967692">
        <ele>929.379</ele>
        <time>2017-12-09T17:44:04Z</time>
      </trkpt>
      <trkpt lat="40.834174" lon="-2.967608">
        <ele>928.642</ele>
        <time>2017-12-09T17:44:05Z</time>
      </trkpt>
      <trkpt lat="40.834164" lon="-2.967519">
        <ele>927.863</ele>
        <time>2017-12-09T17:44:06Z</time>
      </trkpt>
      <trkpt lat="40.834163" lon="-2.967442">
        <ele>927.237</ele>
        <time>2017-12-09T17:44:07Z</time>
      </trkpt>
      <trkpt lat="40.834136" lon="-2.967390">
        <ele>926.858</ele>
        <time>2017-12-09T17:44:08Z</time>
      </trkpt>
      <trkpt lat="40.834099" lon="-2.967346">
        <ele>926.254</ele>
        <time>2017-12-09T17:44:09Z</time>
      </trkpt>
      <trkpt lat="40.834009" lon="-2.967320">
        <ele>925.417</ele>
        <time>2017-12-09T17:44:11Z</time>
      </trkpt>
      <trkpt lat="40.833958" lon="-2.967304">
        <ele>925.035</ele>
        <time>2017-12-09T17:44:12Z</time>
      </trkpt>
      <trkpt lat="40.833908" lon="-2.967302">
        <ele>924.886</ele>
        <time>2017-12-09T17:44:13Z</time>
      </trkpt>
      <trkpt lat="40.833854" lon="-2.967307">
        <ele>924.514</ele>
        <time>2017-12-09T17:44:14Z</time>
      </trkpt>
      <trkpt lat="40.833804" lon="-2.967292">
        <ele>923.808</ele>
        <time>2017-12-09T17:44:15Z</time>
      </trkpt>
      <trkpt lat="40.833757" lon="-2.967283">
        <ele>923.685</ele>
        <time>2017-12-09T17:44:16Z</time>
      </trkpt>
      <trkpt lat="40.833709" lon="-2.967256">
        <ele>923.294</ele>
        <time>2017-12-09T17:44:17Z</time>
      </trkpt>
      <trkpt lat="40.833672" lon="-2.967219">
        <ele>922.767</ele>
        <time>2017-12-09T17:44:18Z</time>
      </trkpt>
      <trkpt lat="40.833623" lon="-2.967135">
        <ele>921.848</ele>
        <time>2017-12-09T17:44:20Z</time>
      </trkpt>
      <trkpt lat="40.833612" lon="-2.967073">
        <ele>921.452</ele>
        <time>2017-12-09T17:44:21Z</time>
      </trkpt>
      <trkpt lat="40.833608" lon="-2.967000">
        <ele>921.073</ele>
        <time>2017-12-09T17:44:22Z</time>
      </trkpt>
      <trkpt lat="40.833621" lon="-2.966932">
        <ele>920.429</ele>
        <time>2017-12-09T17:44:23Z</time>
      </trkpt>
      <trkpt lat="40.833625" lon="-2.966860">
        <ele>920.072</ele>
        <time>2017-12-09T17:44:24Z</time>
      </trkpt>
      <trkpt lat="40.833652" lon="-2.966787">
        <ele>919.496</ele>
        <time>2017-12-09T17:44:25Z</time>
      </trkpt>
      <trkpt lat="40.833682" lon="-2.966721">
        <ele>919.131</ele>
        <time>2017-12-09T17:44:26Z</time>
      </trkpt>
      <trkpt lat="40.833727" lon="-2.966666">
        <ele>918.724</ele>
        <time>2017-12-09T17:44:27Z</time>
      </trkpt>
      <trkpt lat="40.833776" lon="-2.966619">
        <ele>918.408</ele>
        <time>2017-12-09T17:44:28Z</time>
      </trkpt>
      <trkpt lat="40.833823" lon="-2.966573">
        <ele>918.441</ele>
        <time>2017-12-09T17:44:29Z</time>
      </trkpt>
      <trkpt lat="40.833871" lon="-2.966529">
        <ele>917.880</ele>
        <time>2017-12-09T17:44:30Z</time>
      </trkpt>
      <trkpt lat="40.833930" lon="-2.966488">
        <ele>917.333</ele>
        <time>2017-12-09T17:44:31Z</time>
      </trkpt>
      <trkpt lat="40.833988" lon="-2.966447">
        <ele>916.994</ele>
        <time>2017-12-09T17:44:32Z</time>
      </trkpt>
      <trkpt lat="40.834034" lon="-2.966418">
        <ele>916.548</ele>
        <time>2017-12-09T17:44:33Z</time>
      </trkpt>
      <trkpt lat="40.834073" lon="-2.966379">
        <ele>915.919</ele>
        <time>2017-12-09T17:44:34Z</time>
      </trkpt>
      <trkpt lat="40.834115" lon="-2.966337">
        <ele>916.095</ele>
        <time>2017-12-09T17:44:35Z</time>
      </trkpt>
      <trkpt lat="40.834150" lon="-2.966292">
        <ele>915.778</ele>
        <time>2017-12-09T17:44:36Z</time>
      </trkpt>
      <trkpt lat="40.834150" lon="-2.966207">
        <ele>915.034</ele>
        <time>2017-12-09T17:44:38Z</time>
      </trkpt>
      <trkpt lat="40.834077" lon="-2.966181">
        <ele>914.355</ele>
        <time>2017-12-09T17:44:40Z</time>
      </trkpt>
      <trkpt lat="40.834012" lon="-2.966216">
        <ele>913.310</ele>
        <time>2017-12-09T17:44:42Z</time>
      </trkpt>
      <trkpt lat="40.833969" lon="-2.966240">
        <ele>912.908</ele>
        <time>2017-12-09T17:44:43Z</time>
      </trkpt>
      <trkpt lat="40.833919" lon="-2.966252">
        <ele>912.085</ele>
        <time>2017-12-09T17:44:44Z</time>
      </trkpt>
      <trkpt lat="40.833867" lon="-2.966256">
        <ele>911.144</ele>
        <time>2017-12-09T17:44:45Z</time>
      </trkpt>
      <trkpt lat="40.833808" lon="-2.966261">
        <ele>910.637</ele>
        <time>2017-12-09T17:44:46Z</time>
      </trkpt>
      <trkpt lat="40.833756" lon="-2.966247">
        <ele>909.698</ele>
        <time>2017-12-09T17:44:47Z</time>
      </trkpt>
      <trkpt lat="40.833694" lon="-2.966242">
        <ele>908.412</ele>
        <time>2017-12-09T17:44:48Z</time>
      </trkpt>
      <trkpt lat="40.833627" lon="-2.966218">
        <ele>907.463</ele>
        <time>2017-12-09T17:44:49Z</time>
      </trkpt>
      <trkpt lat="40.833555" lon="-2.966205">
        <ele>906.449</ele>
        <time>2017-12-09T17:44:50Z</time>
      </trkpt>
      <trkpt lat="40.833480" lon="-2.966193">
        <ele>905.592</ele>
        <time>2017-12-09T17:44:51Z</time>
      </trkpt>
      <trkpt lat="40.833407" lon="-2.966181">
        <ele>904.737</ele>
        <time>2017-12-09T17:44:52Z</time>
      </trkpt>
      <trkpt lat="40.833339" lon="-2.966165">
        <ele>903.549</ele>
        <time>2017-12-09T17:44:53Z</time>
      </trkpt>
      <trkpt lat="40.833269" lon="-2.966166">
        <ele>902.613</ele>
        <time>2017-12-09T17:44:54Z</time>
      </trkpt>
      <trkpt lat="40.833213" lon="-2.966160">
        <ele>902.608</ele>
        <time>2017-12-09T17:44:55Z</time>
      </trkpt>
      <trkpt lat="40.833156" lon="-2.966161">
        <ele>902.115</ele>
        <time>2017-12-09T17:44:56Z</time>
      </trkpt>
      <trkpt lat="40.833092" lon="-2.966178">
        <ele>901.724</ele>
        <time>2017-12-09T17:44:57Z</time>
      </trkpt>
      <trkpt lat="40.833037" lon="-2.966193">
        <ele>901.017</ele>
        <time>2017-12-09T17:44:58Z</time>
      </trkpt>
      <trkpt lat="40.832984" lon="-2.966214">
        <ele>900.258</ele>
        <time>2017-12-09T17:44:59Z</time>
      </trkpt>
      <trkpt lat="40.832932" lon="-2.966240">
        <ele>899.742</ele>
        <time>2017-12-09T17:45:00Z</time>
      </trkpt>
      <trkpt lat="40.832887" lon="-2.966275">
        <ele>899.343</ele>
        <time>2017-12-09T17:45:01Z</time>
      </trkpt>
      <trkpt lat="40.832842" lon="-2.966321">
        <ele>898.679</ele>
        <time>2017-12-09T17:45:02Z</time>
      </trkpt>
      <trkpt lat="40.832806" lon="-2.966372">
        <ele>897.762</ele>
        <time>2017-12-09T17:45:03Z</time>
      </trkpt>
      <trkpt lat="40.832762" lon="-2.966437">
        <ele>897.298</ele>
        <time>2017-12-09T17:45:04Z</time>
      </trkpt>
      <trkpt lat="40.832725" lon="-2.966480">
        <ele>896.615</ele>
        <time>2017-12-09T17:45:05Z</time>
      </trkpt>
      <trkpt lat="40.832686" lon="-2.966532">
        <ele>896.026</ele>
        <time>2017-12-09T17:45:06Z</time>
      </trkpt>
      <trkpt lat="40.832657" lon="-2.966588">
        <ele>895.508</ele>
        <time>2017-12-09T17:45:07Z</time>
      </trkpt>
      <trkpt lat="40.832632" lon="-2.966671">
        <ele>894.861</ele>
        <time>2017-12-09T17:45:09Z</time>
      </trkpt>
      <trkpt lat="40.832586" lon="-2.966711">
        <ele>893.390</ele>
        <time>2017-12-09T17:45:11Z</time>
      </trkpt>
      <trkpt lat="40.832535" lon="-2.966691">
        <ele>892.873</ele>
        <time>2017-12-09T17:45:13Z</time>
      </trkpt>
      <trkpt lat="40.832499" lon="-2.966631">
        <ele>892.384</ele>
        <time>2017-12-09T17:45:15Z</time>
      </trkpt>
      <trkpt lat="40.832486" lon="-2.966528">
        <ele>891.888</ele>
        <time>2017-12-09T17:45:17Z</time>
      </trkpt>
      <trkpt lat="40.832486" lon="-2.966464">
        <ele>891.579</ele>
        <time>2017-12-09T17:45:18Z</time>
      </trkpt>
      <trkpt lat="40.832493" lon="-2.966397">
        <ele>891.035</ele>
        <time>2017-12-09T17:45:19Z</time>
      </trkpt>
      <trkpt lat="40.832497" lon="-2.966327">
        <ele>891.018</ele>
        <time>2017-12-09T17:45:20Z</time>
      </trkpt>
      <trkpt lat="40.832508" lon="-2.966259">
        <ele>891.012</ele>
        <time>2017-12-09T17:45:21Z</time>
      </trkpt>
      <trkpt lat="40.832526" lon="-2.966191">
        <ele>890.532</ele>
        <time>2017-12-09T17:45:22Z</time>
      </trkpt>
      <trkpt lat="40.832552" lon="-2.966132">
        <ele>889.705</ele>
        <time>2017-12-09T17:45:23Z</time>
      </trkpt>
      <trkpt lat="40.832577" lon="-2.966063">
        <ele>889.408</ele>
        <time>2017-12-09T17:45:24Z</time>
      </trkpt>
      <trkpt lat="40.832616" lon="-2.966010">
        <ele>888.853</ele>
        <time>2017-12-09T17:45:25Z</time>
      </trkpt>
      <trkpt lat="40.832650" lon="-2.965953">
        <ele>888.182</ele>
        <time>2017-12-09T17:45:26Z</time>
      </trkpt>
      <trkpt lat="40.832692" lon="-2.965920">
        <ele>887.485</ele>
        <time>2017-12-09T17:45:27Z</time>
      </trkpt>
      <trkpt lat="40.832737" lon="-2.965856">
        <ele>886.436</ele>
        <time>2017-12-09T17:45:29Z</time>
      </trkpt>
      <trkpt lat="40.832707" lon="-2.965788">
        <ele>886.020</ele>
        <time>2017-12-09T17:45:31Z</time>
      </trkpt>
      <trkpt lat="40.832648" lon="-2.965774">
        <ele>885.241</ele>
        <time>2017-12-09T17:45:33Z</time>
      </trkpt>
      <trkpt lat="40.832559" lon="-2.965788">
        <ele>884.887</ele>
        <time>2017-12-09T17:45:35Z</time>
      </trkpt>
      <trkpt lat="40.832462" lon="-2.965826">
        <ele>884.110</ele>
        <time>2017-12-09T17:45:37Z</time>
      </trkpt>
      <trkpt lat="40.832412" lon="-2.965851">
        <ele>884.068</ele>
        <time>2017-12-09T17:45:38Z</time>
      </trkpt>
      <trkpt lat="40.832365" lon="-2.965878">
        <ele>883.742</ele>
        <time>2017-12-09T17:45:39Z</time>
      </trkpt>
      <trkpt lat="40.832305" lon="-2.965903">
        <ele>883.726</ele>
        <time>2017-12-09T17:45:40Z</time>
      </trkpt>
      <trkpt lat="40.832259" lon="-2.965918">
        <ele>883.108</ele>
        <time>2017-12-09T17:45:41Z</time>
      </trkpt>
      <trkpt lat="40.832210" lon="-2.965915">
        <ele>882.718</ele>
        <time>2017-12-09T17:45:42Z</time>
      </trkpt>
      <trkpt lat="40.832163" lon="-2.965916">
        <ele>881.937</ele>
        <time>2017-12-09T17:45:43Z</time>
      </trkpt>
      <trkpt lat="40.832116" lon="-2.965903">
        <ele>881.420</ele>
        <time>2017-12-09T17:45:44Z</time>
      </trkpt>
      <trkpt lat="40.832062" lon="-2.965901">
        <ele>881.081</ele>
        <time>2017-12-09T17:45:45Z</time>
      </trkpt>
      <trkpt lat="40.832011" lon="-2.965889">
        <ele>880.575</ele>
        <time>2017-12-09T17:45:46Z</time>
      </trkpt>
      <trkpt lat="40.831958" lon="-2.965882">
        <ele>879.816</ele>
        <time>2017-12-09T17:45:47Z</time>
      </trkpt>
      <trkpt lat="40.831901" lon="-2.965885">
        <ele>879.852</ele>
        <time>2017-12-09T17:45:48Z</time>
      </trkpt>
      <trkpt lat="40.831842" lon="-2.965895">
        <ele>879.595</ele>
        <time>2017-12-09T17:45:49Z</time>
      </trkpt>
      <trkpt lat="40.831784" lon="-2.965914">
        <ele>878.785</ele>
        <time>2017-12-09T17:45:50Z</time>
      </trkpt>
      <trkpt lat="40.831726" lon="-2.965952">
        <ele>877.889</ele>
        <time>2017-12-09T17:45:51Z</time>
      </trkpt>
      <trkpt lat="40.831679" lon="-2.965999">
        <ele>877.417</ele>
        <time>2017-12-09T17:45:52Z</time>
      </trkpt>
      <trkpt lat="40.831668" lon="-2.966064">
        <ele>876.808</ele>
        <time>2017-12-09T17:45:53Z</time>
      </trkpt>
      <trkpt lat="40.831664" lon="-2.966131">
        <ele>876.460</ele>
        <time>2017-12-09T17:45:54Z</time>
      </trkpt>
      <trkpt lat="40.831656" lon="-2.966208">
        <ele>875.939</ele>
        <time>2017-12-09T17:45:55Z</time>
      </trkpt>
      <trkpt lat="40.831657" lon="-2.966284">
        <ele>875.122</ele>
        <time>2017-12-09T17:45:56Z</time>
      </trkpt>
      <trkpt lat="40.831687" lon="-2.966340">
        <ele>874.573</ele>
        <time>2017-12-09T17:45:57Z</time>
      </trkpt>
      <trkpt lat="40.831713" lon="-2.966402">
        <ele>873.857</ele>
        <time>2017-12-09T17:45:58Z</time>
      </trkpt>
      <trkpt lat="40.831753" lon="-2.966458">
        <ele>873.248</ele>
        <time>2017-12-09T17:45:59Z</time>
      </trkpt>
      <trkpt lat="40.831784" lon="-2.966502">
        <ele>872.824</ele>
        <time>2017-12-09T17:46:00Z</time>
      </trkpt>
      <trkpt lat="40.831775" lon="-2.966606">
        <ele>872.087</ele>
        <time>2017-12-09T17:46:02Z</time>
      </trkpt>
      <trkpt lat="40.831705" lon="-2.966600">
        <ele>871.426</ele>
        <time>2017-12-09T17:46:04Z</time>
      </trkpt>
      <trkpt lat="40.831623" lon="-2.966553">
        <ele>870.147</ele>
        <time>2017-12-09T17:46:06Z</time>
      </trkpt>
      <trkpt lat="40.831578" lon="-2.966515">
        <ele>869.311</ele>
        <time>2017-12-09T17:46:07Z</time>
      </trkpt>
      <trkpt lat="40.831528" lon="-2.966479">
        <ele>869.108</ele>
        <time>2017-12-09T17:46:08Z</time>
      </trkpt>
      <trkpt lat="40.831481" lon="-2.966444">
        <ele>868.374</ele>
        <time>2017-12-09T17:46:09Z</time>
      </trkpt>
      <trkpt lat="40.831435" lon="-2.966400">
        <ele>867.843</ele>
        <time>2017-12-09T17:46:10Z</time>
      </trkpt>
      <trkpt lat="40.831377" lon="-2.966359">
        <ele>867.146</ele>
        <time>2017-12-09T17:46:11Z</time>
      </trkpt>
      <trkpt lat="40.831330" lon="-2.966328">
        <ele>866.657</ele>
        <time>2017-12-09T17:46:12Z</time>
      </trkpt>
      <trkpt lat="40.831298" lon="-2.966285">
        <ele>866.111</ele>
        <time>2017-12-09T17:46:13Z</time>
      </trkpt>
      <trkpt lat="40.831301" lon="-2.966209">
        <ele>865.552</ele>
        <time>2017-12-09T17:46:14Z</time>
      </trkpt>
      <trkpt lat="40.831304" lon="-2.966146">
        <ele>865.528</ele>
        <time>2017-12-09T17:46:15Z</time>
      </trkpt>
      <trkpt lat="40.831315" lon="-2.966072">
        <ele>864.851</ele>
        <time>2017-12-09T17:46:16Z</time>
      </trkpt>
      <trkpt lat="40.831337" lon="-2.965994">
        <ele>863.957</ele>
        <time>2017-12-09T17:46:17Z</time>
      </trkpt>
      <trkpt lat="40.831363" lon="-2.965919">
        <ele>864.000</ele>
        <time>2017-12-09T17:46:18Z</time>
      </trkpt>
      <trkpt lat="40.831387" lon="-2.965852">
        <ele>863.220</ele>
        <time>2017-12-09T17:46:19Z</time>
      </trkpt>
      <trkpt lat="40.831395" lon="-2.965776">
        <ele>862.708</ele>
        <time>2017-12-09T17:46:20Z</time>
      </trkpt>
      <trkpt lat="40.831383" lon="-2.965644">
        <ele>861.187</ele>
        <time>2017-12-09T17:46:22Z</time>
      </trkpt>
      <trkpt lat="40.831345" lon="-2.965595">
        <ele>860.856</ele>
        <time>2017-12-09T17:46:23Z</time>
      </trkpt>
      <trkpt lat="40.831269" lon="-2.965513">
        <ele>859.929</ele>
        <time>2017-12-09T17:46:25Z</time>
      </trkpt>
      <trkpt lat="40.831211" lon="-2.965490">
        <ele>859.320</ele>
        <time>2017-12-09T17:46:26Z</time>
      </trkpt>
      <trkpt lat="40.831150" lon="-2.965480">
        <ele>859.234</ele>
        <time>2017-12-09T17:46:27Z</time>
      </trkpt>
      <trkpt lat="40.831095" lon="-2.965463">
        <ele>858.625</ele>
        <time>2017-12-09T17:46:28Z</time>
      </trkpt>
      <trkpt lat="40.831040" lon="-2.965461">
        <ele>858.311</ele>
        <time>2017-12-09T17:46:29Z</time>
      </trkpt>
      <trkpt lat="40.830982" lon="-2.965461">
        <ele>857.754</ele>
        <time>2017-12-09T17:46:30Z</time>
      </trkpt>
      <trkpt lat="40.830920" lon="-2.965467">
        <ele>857.318</ele>
        <time>2017-12-09T17:46:31Z</time>
      </trkpt>
      <trkpt lat="40.830860" lon="-2.965458">
        <ele>856.498</ele>
        <time>2017-12-09T17:46:32Z</time>
      </trkpt>
      <trkpt lat="40.830800" lon="-2.965447">
        <ele>855.717</ele>
        <time>2017-12-09T17:46:33Z</time>
      </trkpt>
      <trkpt lat="40.830738" lon="-2.965432">
        <ele>855.008</ele>
        <time>2017-12-09T17:46:34Z</time>
      </trkpt>
      <trkpt lat="40.830676" lon="-2.965418">
        <ele>854.193</ele>
        <time>2017-12-09T17:46:35Z</time>
      </trkpt>
      <trkpt lat="40.830601" lon="-2.965396">
        <ele>853.642</ele>
        <time>2017-12-09T17:46:36Z</time>
      </trkpt>
      <trkpt lat="40.830534" lon="-2.965368">
        <ele>852.415</ele>
        <time>2017-12-09T17:46:37Z</time>
      </trkpt>
      <trkpt lat="40.830469" lon="-2.965335">
        <ele>851.736</ele>
        <time>2017-12-09T17:46:38Z</time>
      </trkpt>
      <trkpt lat="40.830420" lon="-2.965299">
        <ele>850.580</ele>
        <time>2017-12-09T17:46:39Z</time>
      </trkpt>
      <trkpt lat="40.830359" lon="-2.965264">
        <ele>850.361</ele>
        <time>2017-12-09T17:46:40Z</time>
      </trkpt>
      <trkpt lat="40.830307" lon="-2.965223">
        <ele>850.367</ele>
        <time>2017-12-09T17:46:41Z</time>
      </trkpt>
      <trkpt lat="40.830242" lon="-2.965180">
        <ele>849.320</ele>
        <time>2017-12-09T17:46:42Z</time>
      </trkpt>
      <trkpt lat="40.830178" lon="-2.965152">
        <ele>848.741</ele>
        <time>2017-12-09T17:46:43Z</time>
      </trkpt>
      <trkpt lat="40.830109" lon="-2.965134">
        <ele>847.881</ele>
        <time>2017-12-09T17:46:44Z</time>
      </trkpt>
      <trkpt lat="40.830034" lon="-2.965134">
        <ele>847.009</ele>
        <time>2017-12-09T17:46:45Z</time>
      </trkpt>
      <trkpt lat="40.829954" lon="-2.965134">
        <ele>846.508</ele>
        <time>2017-12-09T17:46:46Z</time>
      </trkpt>
      <trkpt lat="40.829878" lon="-2.965138">
        <ele>845.756</ele>
        <time>2017-12-09T17:46:47Z</time>
      </trkpt>
      <trkpt lat="40.829801" lon="-2.965138">
        <ele>844.845</ele>
        <time>2017-12-09T17:46:48Z</time>
      </trkpt>
      <trkpt lat="40.829728" lon="-2.965152">
        <ele>843.728</ele>
        <time>2017-12-09T17:46:49Z</time>
      </trkpt>
      <trkpt lat="40.829648" lon="-2.965165">
        <ele>843.589</ele>
        <time>2017-12-09T17:46:50Z</time>
      </trkpt>
      <trkpt lat="40.829566" lon="-2.965180">
        <ele>842.593</ele>
        <time>2017-12-09T17:46:51Z</time>
      </trkpt>
      <trkpt lat="40.829494" lon="-2.965179">
        <ele>841.894</ele>
        <time>2017-12-09T17:46:52Z</time>
      </trkpt>
      <trkpt lat="40.829432" lon="-2.965169">
        <ele>840.810</ele>
        <time>2017-12-09T17:46:53Z</time>
      </trkpt>
      <trkpt lat="40.829376" lon="-2.965159">
        <ele>840.253</ele>
        <time>2017-12-09T17:46:54Z</time>
      </trkpt>
      <trkpt lat="40.829320" lon="-2.965154">
        <ele>839.564</ele>
        <time>2017-12-09T17:46:55Z</time>
      </trkpt>
      <trkpt lat="40.829274" lon="-2.965146">
        <ele>839.106</ele>
        <time>2017-12-09T17:46:56Z</time>
      </trkpt>
      <trkpt lat="40.829217" lon="-2.965149">
        <ele>838.216</ele>
        <time>2017-12-09T17:46:57Z</time>
      </trkpt>
      <trkpt lat="40.829156" lon="-2.965145">
        <ele>837.608</ele>
        <time>2017-12-09T17:46:58Z</time>
      </trkpt>
      <trkpt lat="40.829097" lon="-2.965132">
        <ele>837.128</ele>
        <time>2017-12-09T17:46:59Z</time>
      </trkpt>
      <trkpt lat="40.829048" lon="-2.965112">
        <ele>836.397</ele>
        <time>2017-12-09T17:47:00Z</time>
      </trkpt>
      <trkpt lat="40.828967" lon="-2.965079">
        <ele>834.710</ele>
        <time>2017-12-09T17:47:02Z</time>
      </trkpt>
      <trkpt lat="40.828880" lon="-2.965050">
        <ele>834.071</ele>
        <time>2017-12-09T17:47:04Z</time>
      </trkpt>
      <trkpt lat="40.828793" lon="-2.965022">
        <ele>832.695</ele>
        <time>2017-12-09T17:47:06Z</time>
      </trkpt>
      <trkpt lat="40.828741" lon="-2.965010">
        <ele>832.676</ele>
        <time>2017-12-09T17:47:07Z</time>
      </trkpt>
      <trkpt lat="40.828688" lon="-2.965002">
        <ele>831.852</ele>
        <time>2017-12-09T17:47:08Z</time>
      </trkpt>
      <trkpt lat="40.828628" lon="-2.964996">
        <ele>831.195</ele>
        <time>2017-12-09T17:47:09Z</time>
      </trkpt>
      <trkpt lat="40.828568" lon="-2.965000">
        <ele>830.251</ele>
        <time>2017-12-09T17:47:10Z</time>
      </trkpt>
      <trkpt lat="40.828511" lon="-2.965003">
        <ele>829.701</ele>
        <time>2017-12-09T17:47:11Z</time>
      </trkpt>
      <trkpt lat="40.828451" lon="-2.965021">
        <ele>828.811</ele>
        <time>2017-12-09T17:47:12Z</time>
      </trkpt>
      <trkpt lat="40.828396" lon="-2.965040">
        <ele>828.008</ele>
        <time>2017-12-09T17:47:13Z</time>
      </trkpt>
      <trkpt lat="40.828341" lon="-2.965056">
        <ele>827.527</ele>
        <time>2017-12-09T17:47:14Z</time>
      </trkpt>
      <trkpt lat="40.828278" lon="-2.965073">
        <ele>826.966</ele>
        <time>2017-12-09T17:47:15Z</time>
      </trkpt>
      <trkpt lat="40.828212" lon="-2.965068">
        <ele>826.369</ele>
        <time>2017-12-09T17:47:16Z</time>
      </trkpt>
      <trkpt lat="40.828146" lon="-2.965067">
        <ele>825.760</ele>
        <time>2017-12-09T17:47:17Z</time>
      </trkpt>
      <trkpt lat="40.828083" lon="-2.965053">
        <ele>824.834</ele>
        <time>2017-12-09T17:47:18Z</time>
      </trkpt>
      <trkpt lat="40.828017" lon="-2.965034">
        <ele>823.965</ele>
        <time>2017-12-09T17:47:19Z</time>
      </trkpt>
      <trkpt lat="40.827950" lon="-2.965019">
        <ele>823.461</ele>
        <time>2017-12-09T17:47:20Z</time>
      </trkpt>
      <trkpt lat="40.827883" lon="-2.965013">
        <ele>822.934</ele>
        <time>2017-12-09T17:47:21Z</time>
      </trkpt>
      <trkpt lat="40.827820" lon="-2.965031">
        <ele>822.386</ele>
        <time>2017-12-09T17:47:22Z</time>
      </trkpt>
      <trkpt lat="40.827760" lon="-2.965040">
        <ele>822.160</ele>
        <time>2017-12-09T17:47:23Z</time>
      </trkpt>
      <trkpt lat="40.827694" lon="-2.965058">
        <ele>821.526</ele>
        <time>2017-12-09T17:47:24Z</time>
      </trkpt>
      <trkpt lat="40.827628" lon="-2.965068">
        <ele>821.108</ele>
        <time>2017-12-09T17:47:25Z</time>
      </trkpt>
      <trkpt lat="40.827570" lon="-2.965087">
        <ele>820.710</ele>
        <time>2017-12-09T17:47:26Z</time>
      </trkpt>
      <trkpt lat="40.827503" lon="-2.965113">
        <ele>820.319</ele>
        <time>2017-12-09T17:47:27Z</time>
      </trkpt>
      <trkpt lat="40.827435" lon="-2.965131">
        <ele>819.482</ele>
        <time>2017-12-09T17:47:28Z</time>
      </trkpt>
      <trkpt lat="40.827362" lon="-2.965157">
        <ele>818.463</ele>
        <time>2017-12-09T17:47:29Z</time>
      </trkpt>
      <trkpt lat="40.827295" lon="-2.965167">
        <ele>818.517</ele>
        <time>2017-12-09T17:47:30Z</time>
      </trkpt>
      <trkpt lat="40.827221" lon="-2.965178">
        <ele>817.578</ele>
        <time>2017-12-09T17:47:31Z</time>
      </trkpt>
      <trkpt lat="40.827149" lon="-2.965182">
        <ele>816.614</ele>
        <time>2017-12-09T17:47:32Z</time>
      </trkpt>
      <trkpt lat="40.827076" lon="-2.965180">
        <ele>816.697</ele>
        <time>2017-12-09T17:47:33Z</time>
      </trkpt>
      <trkpt lat="40.827001" lon="-2.965171">
        <ele>816.167</ele>
        <time>2017-12-09T17:47:34Z</time>
      </trkpt>
      <trkpt lat="40.826924" lon="-2.965166">
        <ele>815.281</ele>
        <time>2017-12-09T17:47:35Z</time>
      </trkpt>
      <trkpt lat="40.826847" lon="-2.965157">
        <ele>814.919</ele>
        <time>2017-12-09T17:47:36Z</time>
      </trkpt>
      <trkpt lat="40.826768" lon="-2.965143">
        <ele>814.208</ele>
        <time>2017-12-09T17:47:37Z</time>
      </trkpt>
      <trkpt lat="40.826691" lon="-2.965124">
        <ele>813.548</ele>
        <time>2017-12-09T17:47:38Z</time>
      </trkpt>
      <trkpt lat="40.826624" lon="-2.965109">
        <ele>812.367</ele>
        <time>2017-12-09T17:47:39Z</time>
      </trkpt>
      <trkpt lat="40.826564" lon="-2.965102">
        <ele>811.230</ele>
        <time>2017-12-09T17:47:40Z</time>
      </trkpt>
      <trkpt lat="40.826511" lon="-2.965093">
        <ele>810.231</ele>
        <time>2017-12-09T17:47:41Z</time>
      </trkpt>
      <trkpt lat="40.826423" lon="-2.965052">
        <ele>809.665</ele>
        <time>2017-12-09T17:47:43Z</time>
      </trkpt>
      <trkpt lat="40.826387" lon="-2.965012">
        <ele>809.156</ele>
        <time>2017-12-09T17:47:44Z</time>
      </trkpt>
      <trkpt lat="40.826351" lon="-2.964976">
        <ele>808.462</ele>
        <time>2017-12-09T17:47:45Z</time>
      </trkpt>
      <trkpt lat="40.826320" lon="-2.964924">
        <ele>808.375</ele>
        <time>2017-12-09T17:47:46Z</time>
      </trkpt>
      <trkpt lat="40.826295" lon="-2.964865">
        <ele>807.849</ele>
        <time>2017-12-09T17:47:47Z</time>
      </trkpt>
      <trkpt lat="40.826269" lon="-2.964812">
        <ele>807.602</ele>
        <time>2017-12-09T17:47:48Z</time>
      </trkpt>
      <trkpt lat="40.826244" lon="-2.964757">
        <ele>807.322</ele>
        <time>2017-12-09T17:47:49Z</time>
      </trkpt>
      <trkpt lat="40.826191" lon="-2.964655">
        <ele>807.008</ele>
        <time>2017-12-09T17:47:51Z</time>
      </trkpt>
      <trkpt lat="40.826138" lon="-2.964556">
        <ele>806.576</ele>
        <time>2017-12-09T17:47:53Z</time>
      </trkpt>
      <trkpt lat="40.826096" lon="-2.964512">
        <ele>806.445</ele>
        <time>2017-12-09T17:47:55Z</time>
      </trkpt>
      <trkpt lat="40.826034" lon="-2.964409">
        <ele>805.418</ele>
        <time>2017-12-09T17:50:05Z</time>
      </trkpt>
      <trkpt lat="40.825989" lon="-2.964358">
        <ele>805.479</ele>
        <time>2017-12-09T17:50:24Z</time>
      </trkpt>
      <trkpt lat="40.825934" lon="-2.964373">
        <ele>805.663</ele>
        <time>2017-12-09T17:50:26Z</time>
      </trkpt>
      <trkpt lat="40.825877" lon="-2.964450">
        <ele>805.414</ele>
        <time>2017-12-09T17:50:28Z</time>
      </trkpt>
      <trkpt lat="40.825827" lon="-2.964537">
        <ele>805.430</ele>
        <time>2017-12-09T17:50:30Z</time>
      </trkpt>
      <trkpt lat="40.825754" lon="-2.964584">
        <ele>805.043</ele>
        <time>2017-12-09T17:50:32Z</time>
      </trkpt>
      <trkpt lat="40.825693" lon="-2.964538">
        <ele>804.974</ele>
        <time>2017-12-09T17:50:33Z</time>
      </trkpt>
      <trkpt lat="40.825637" lon="-2.964512">
        <ele>804.856</ele>
        <time>2017-12-09T17:50:34Z</time>
      </trkpt>
      <trkpt lat="40.825578" lon="-2.964468">
        <ele>804.521</ele>
        <time>2017-12-09T17:50:35Z</time>
      </trkpt>
      <trkpt lat="40.825515" lon="-2.964423">
        <ele>804.508</ele>
        <time>2017-12-09T17:50:36Z</time>
      </trkpt>
      <trkpt lat="40.825449" lon="-2.964372">
        <ele>804.419</ele>
        <time>2017-12-09T17:50:37Z</time>
      </trkpt>
      <trkpt lat="40.825379" lon="-2.964317">
        <ele>804.148</ele>
        <time>2017-12-09T17:50:38Z</time>
      </trkpt>
      <trkpt lat="40.825308" lon="-2.964253">
        <ele>803.771</ele>
        <time>2017-12-09T17:50:39Z</time>
      </trkpt>
      <trkpt lat="40.825232" lon="-2.964191">
        <ele>803.022</ele>
        <time>2017-12-09T17:50:40Z</time>
      </trkpt>
      <trkpt lat="40.825168" lon="-2.964138">
        <ele>803.076</ele>
        <time>2017-12-09T17:50:41Z</time>
      </trkpt>
      <trkpt lat="40.825095" lon="-2.964081">
        <ele>802.717</ele>
        <time>2017-12-09T17:50:42Z</time>
      </trkpt>
      <trkpt lat="40.825030" lon="-2.964023">
        <ele>802.533</ele>
        <time>2017-12-09T17:50:43Z</time>
      </trkpt>
      <trkpt lat="40.824968" lon="-2.963967">
        <ele>802.416</ele>
        <time>2017-12-09T17:50:44Z</time>
      </trkpt>
      <trkpt lat="40.824902" lon="-2.963905">
        <ele>802.284</ele>
        <time>2017-12-09T17:50:45Z</time>
      </trkpt>
      <trkpt lat="40.824839" lon="-2.963855">
        <ele>802.007</ele>
        <time>2017-12-09T17:50:46Z</time>
      </trkpt>
      <trkpt lat="40.824776" lon="-2.963793">
        <ele>801.517</ele>
        <time>2017-12-09T17:50:47Z</time>
      </trkpt>
      <trkpt lat="40.824717" lon="-2.963738">
        <ele>801.308</ele>
        <time>2017-12-09T17:50:48Z</time>
      </trkpt>
      <trkpt lat="40.824653" lon="-2.963681">
        <ele>801.450</ele>
        <time>2017-12-09T17:50:49Z</time>
      </trkpt>
      <trkpt lat="40.824573" lon="-2.963610">
        <ele>801.239</ele>
        <time>2017-12-09T17:50:50Z</time>
      </trkpt>
      <trkpt lat="40.824502" lon="-2.963557">
        <ele>800.652</ele>
        <time>2017-12-09T17:50:51Z</time>
      </trkpt>
      <trkpt lat="40.824437" lon="-2.963496">
        <ele>800.593</ele>
        <time>2017-12-09T17:50:52Z</time>
      </trkpt>
      <trkpt lat="40.824370" lon="-2.963440">
        <ele>800.677</ele>
        <time>2017-12-09T17:50:53Z</time>
      </trkpt>
      <trkpt lat="40.824303" lon="-2.963400">
        <ele>800.678</ele>
        <time>2017-12-09T17:50:54Z</time>
      </trkpt>
      <trkpt lat="40.824237" lon="-2.963336">
        <ele>800.354</ele>
        <time>2017-12-09T17:50:55Z</time>
      </trkpt>
      <trkpt lat="40.824171" lon="-2.963283">
        <ele>800.147</ele>
        <time>2017-12-09T17:50:56Z</time>
      </trkpt>
      <trkpt lat="40.824103" lon="-2.963239">
        <ele>799.394</ele>
        <time>2017-12-09T17:50:57Z</time>
      </trkpt>
      <trkpt lat="40.824023" lon="-2.963203">
        <ele>799.957</ele>
        <time>2017-12-09T17:50:58Z</time>
      </trkpt>
      <trkpt lat="40.823943" lon="-2.963170">
        <ele>800.222</ele>
        <time>2017-12-09T17:50:59Z</time>
      </trkpt>
      <trkpt lat="40.823869" lon="-2.963140">
        <ele>799.808</ele>
        <time>2017-12-09T17:51:00Z</time>
      </trkpt>
      <trkpt lat="40.823798" lon="-2.963114">
        <ele>799.051</ele>
        <time>2017-12-09T17:51:01Z</time>
      </trkpt>
      <trkpt lat="40.823720" lon="-2.963082">
        <ele>798.910</ele>
        <time>2017-12-09T17:51:02Z</time>
      </trkpt>
      <trkpt lat="40.823656" lon="-2.963060">
        <ele>798.633</ele>
        <time>2017-12-09T17:51:03Z</time>
      </trkpt>
      <trkpt lat="40.823602" lon="-2.963010">
        <ele>798.344</ele>
        <time>2017-12-09T17:51:04Z</time>
      </trkpt>
      <trkpt lat="40.823543" lon="-2.962972">
        <ele>798.218</ele>
        <time>2017-12-09T17:51:05Z</time>
      </trkpt>
      <trkpt lat="40.823482" lon="-2.962943">
        <ele>798.359</ele>
        <time>2017-12-09T17:51:06Z</time>
      </trkpt>
      <trkpt lat="40.823422" lon="-2.962945">
        <ele>798.655</ele>
        <time>2017-12-09T17:51:07Z</time>
      </trkpt>
      <trkpt lat="40.823358" lon="-2.962963">
        <ele>798.698</ele>
        <time>2017-12-09T17:51:08Z</time>
      </trkpt>
      <trkpt lat="40.823283" lon="-2.962991">
        <ele>798.134</ele>
        <time>2017-12-09T17:51:09Z</time>
      </trkpt>
      <trkpt lat="40.823223" lon="-2.963027">
        <ele>798.355</ele>
        <time>2017-12-09T17:51:10Z</time>
      </trkpt>
      <trkpt lat="40.823161" lon="-2.963072">
        <ele>798.210</ele>
        <time>2017-12-09T17:51:11Z</time>
      </trkpt>
      <trkpt lat="40.823098" lon="-2.963142">
        <ele>798.608</ele>
        <time>2017-12-09T17:51:12Z</time>
      </trkpt>
      <trkpt lat="40.823041" lon="-2.963193">
        <ele>798.525</ele>
        <time>2017-12-09T17:51:13Z</time>
      </trkpt>
      <trkpt lat="40.822987" lon="-2.963241">
        <ele>798.844</ele>
        <time>2017-12-09T17:51:14Z</time>
      </trkpt>
      <trkpt lat="40.822918" lon="-2.963295">
        <ele>798.937</ele>
        <time>2017-12-09T17:51:15Z</time>
      </trkpt>
      <trkpt lat="40.822853" lon="-2.963356">
        <ele>800.068</ele>
        <time>2017-12-09T17:51:16Z</time>
      </trkpt>
      <trkpt lat="40.822784" lon="-2.963423">
        <ele>800.352</ele>
        <time>2017-12-09T17:51:17Z</time>
      </trkpt>
      <trkpt lat="40.822714" lon="-2.963484">
        <ele>801.613</ele>
        <time>2017-12-09T17:51:18Z</time>
      </trkpt>
      <trkpt lat="40.822644" lon="-2.963531">
        <ele>801.829</ele>
        <time>2017-12-09T17:51:19Z</time>
      </trkpt>
      <trkpt lat="40.822568" lon="-2.963591">
        <ele>802.392</ele>
        <time>2017-12-09T17:51:20Z</time>
      </trkpt>
      <trkpt lat="40.822499" lon="-2.963648">
        <ele>802.685</ele>
        <time>2017-12-09T17:51:21Z</time>
      </trkpt>
      <trkpt lat="40.822443" lon="-2.963708">
        <ele>803.189</ele>
        <time>2017-12-09T17:51:22Z</time>
      </trkpt>
      <trkpt lat="40.822391" lon="-2.963773">
        <ele>804.017</ele>
        <time>2017-12-09T17:51:23Z</time>
      </trkpt>
      <trkpt lat="40.822349" lon="-2.963851">
        <ele>804.008</ele>
        <time>2017-12-09T17:51:24Z</time>
      </trkpt>
      <trkpt lat="40.822313" lon="-2.963930">
        <ele>804.150</ele>
        <time>2017-12-09T17:51:25Z</time>
      </trkpt>
      <trkpt lat="40.822279" lon="-2.964001">
        <ele>804.149</ele>
        <time>2017-12-09T17:51:26Z</time>
      </trkpt>
      <trkpt lat="40.822242" lon="-2.964080">
        <ele>804.662</ele>
        <time>2017-12-09T17:51:27Z</time>
      </trkpt>
      <trkpt lat="40.822204" lon="-2.964165">
        <ele>804.623</ele>
        <time>2017-12-09T17:51:28Z</time>
      </trkpt>
      <trkpt lat="40.822164" lon="-2.964249">
        <ele>804.367</ele>
        <time>2017-12-09T17:51:29Z</time>
      </trkpt>
      <trkpt lat="40.822119" lon="-2.964346">
        <ele>804.398</ele>
        <time>2017-12-09T17:51:30Z</time>
      </trkpt>
      <trkpt lat="40.822082" lon="-2.964422">
        <ele>804.574</ele>
        <time>2017-12-09T17:51:31Z</time>
      </trkpt>
      <trkpt lat="40.822042" lon="-2.964502">
        <ele>804.217</ele>
        <time>2017-12-09T17:51:32Z</time>
      </trkpt>
      <trkpt lat="40.822005" lon="-2.964587">
        <ele>804.277</ele>
        <time>2017-12-09T17:51:33Z</time>
      </trkpt>
      <trkpt lat="40.821969" lon="-2.964685">
        <ele>804.461</ele>
        <time>2017-12-09T17:51:34Z</time>
      </trkpt>
      <trkpt lat="40.821939" lon="-2.964787">
        <ele>803.827</ele>
        <time>2017-12-09T17:51:35Z</time>
      </trkpt>
      <trkpt lat="40.821913" lon="-2.964885">
        <ele>803.808</ele>
        <time>2017-12-09T17:51:36Z</time>
      </trkpt>
      <trkpt lat="40.821885" lon="-2.964971">
        <ele>804.059</ele>
        <time>2017-12-09T17:51:37Z</time>
      </trkpt>
      <trkpt lat="40.821856" lon="-2.965062">
        <ele>804.258</ele>
        <time>2017-12-09T17:51:38Z</time>
      </trkpt>
      <trkpt lat="40.821822" lon="-2.965158">
        <ele>804.321</ele>
        <time>2017-12-09T17:51:39Z</time>
      </trkpt>
      <trkpt lat="40.821782" lon="-2.965247">
        <ele>804.352</ele>
        <time>2017-12-09T17:51:40Z</time>
      </trkpt>
      <trkpt lat="40.821734" lon="-2.965338">
        <ele>804.386</ele>
        <time>2017-12-09T17:51:41Z</time>
      </trkpt>
      <trkpt lat="40.821686" lon="-2.965429">
        <ele>804.477</ele>
        <time>2017-12-09T17:51:42Z</time>
      </trkpt>
      <trkpt lat="40.821638" lon="-2.965520">
        <ele>804.333</ele>
        <time>2017-12-09T17:51:43Z</time>
      </trkpt>
      <trkpt lat="40.821598" lon="-2.965626">
        <ele>804.776</ele>
        <time>2017-12-09T17:51:44Z</time>
      </trkpt>
      <trkpt lat="40.821566" lon="-2.965732">
        <ele>804.631</ele>
        <time>2017-12-09T17:51:45Z</time>
      </trkpt>
      <trkpt lat="40.821536" lon="-2.965845">
        <ele>805.061</ele>
        <time>2017-12-09T17:51:46Z</time>
      </trkpt>
      <trkpt lat="40.821520" lon="-2.965959">
        <ele>805.607</ele>
        <time>2017-12-09T17:51:47Z</time>
      </trkpt>
      <trkpt lat="40.821515" lon="-2.966061">
        <ele>806.508</ele>
        <time>2017-12-09T17:51:48Z</time>
      </trkpt>
      <trkpt lat="40.821495" lon="-2.966151">
        <ele>807.245</ele>
        <time>2017-12-09T17:51:49Z</time>
      </trkpt>
      <trkpt lat="40.821473" lon="-2.966222">
        <ele>807.824</ele>
        <time>2017-12-09T17:51:50Z</time>
      </trkpt>
      <trkpt lat="40.821434" lon="-2.966287">
        <ele>808.227</ele>
        <time>2017-12-09T17:51:51Z</time>
      </trkpt>
      <trkpt lat="40.821385" lon="-2.966347">
        <ele>807.928</ele>
        <time>2017-12-09T17:51:52Z</time>
      </trkpt>
      <trkpt lat="40.821327" lon="-2.966417">
        <ele>807.592</ele>
        <time>2017-12-09T17:51:53Z</time>
      </trkpt>
      <trkpt lat="40.821271" lon="-2.966475">
        <ele>807.133</ele>
        <time>2017-12-09T17:51:54Z</time>
      </trkpt>
      <trkpt lat="40.821219" lon="-2.966540">
        <ele>806.329</ele>
        <time>2017-12-09T17:51:55Z</time>
      </trkpt>
      <trkpt lat="40.821175" lon="-2.966602">
        <ele>806.382</ele>
        <time>2017-12-09T17:51:56Z</time>
      </trkpt>
      <trkpt lat="40.821149" lon="-2.966680">
        <ele>805.879</ele>
        <time>2017-12-09T17:51:57Z</time>
      </trkpt>
      <trkpt lat="40.821132" lon="-2.966764">
        <ele>805.105</ele>
        <time>2017-12-09T17:51:58Z</time>
      </trkpt>
      <trkpt lat="40.821117" lon="-2.966852">
        <ele>804.525</ele>
        <time>2017-12-09T17:51:59Z</time>
      </trkpt>
      <trkpt lat="40.821119" lon="-2.966937">
        <ele>804.508</ele>
        <time>2017-12-09T17:52:00Z</time>
      </trkpt>
      <trkpt lat="40.821120" lon="-2.967025">
        <ele>804.119</ele>
        <time>2017-12-09T17:52:01Z</time>
      </trkpt>
      <trkpt lat="40.821123" lon="-2.967108">
        <ele>803.428</ele>
        <time>2017-12-09T17:52:02Z</time>
      </trkpt>
      <trkpt lat="40.821119" lon="-2.967202">
        <ele>803.241</ele>
        <time>2017-12-09T17:52:03Z</time>
      </trkpt>
      <trkpt lat="40.821110" lon="-2.967290">
        <ele>802.042</ele>
        <time>2017-12-09T17:52:04Z</time>
      </trkpt>
      <trkpt lat="40.821099" lon="-2.967381">
        <ele>801.546</ele>
        <time>2017-12-09T17:52:05Z</time>
      </trkpt>
      <trkpt lat="40.821082" lon="-2.967472">
        <ele>800.617</ele>
        <time>2017-12-09T17:52:06Z</time>
      </trkpt>
      <trkpt lat="40.821051" lon="-2.967568">
        <ele>800.193</ele>
        <time>2017-12-09T17:52:07Z</time>
      </trkpt>
      <trkpt lat="40.821010" lon="-2.967656">
        <ele>799.516</ele>
        <time>2017-12-09T17:52:08Z</time>
      </trkpt>
      <trkpt lat="40.820966" lon="-2.967744">
        <ele>799.147</ele>
        <time>2017-12-09T17:52:09Z</time>
      </trkpt>
      <trkpt lat="40.820919" lon="-2.967830">
        <ele>798.329</ele>
        <time>2017-12-09T17:52:10Z</time>
      </trkpt>
      <trkpt lat="40.820863" lon="-2.967906">
        <ele>797.821</ele>
        <time>2017-12-09T17:52:11Z</time>
      </trkpt>
      <trkpt lat="40.820823" lon="-2.967954">
        <ele>797.508</ele>
        <time>2017-12-09T17:52:12Z</time>
      </trkpt>
      <trkpt lat="40.820791" lon="-2.968025">
        <ele>797.486</ele>
        <time>2017-12-09T17:52:13Z</time>
      </trkpt>
      <trkpt lat="40.820776" lon="-2.968099">
        <ele>796.835</ele>
        <time>2017-12-09T17:52:14Z</time>
      </trkpt>
      <trkpt lat="40.820767" lon="-2.968186">
        <ele>796.048</ele>
        <time>2017-12-09T17:52:15Z</time>
      </trkpt>
      <trkpt lat="40.820763" lon="-2.968271">
        <ele>795.979</ele>
        <time>2017-12-09T17:52:16Z</time>
      </trkpt>
      <trkpt lat="40.820753" lon="-2.968353">
        <ele>795.693</ele>
        <time>2017-12-09T17:52:17Z</time>
      </trkpt>
      <trkpt lat="40.820735" lon="-2.968438">
        <ele>795.424</ele>
        <time>2017-12-09T17:52:18Z</time>
      </trkpt>
      <trkpt lat="40.820711" lon="-2.968525">
        <ele>795.210</ele>
        <time>2017-12-09T17:52:19Z</time>
      </trkpt>
      <trkpt lat="40.820677" lon="-2.968610">
        <ele>795.083</ele>
        <time>2017-12-09T17:52:20Z</time>
      </trkpt>
      <trkpt lat="40.820632" lon="-2.968696">
        <ele>795.124</ele>
        <time>2017-12-09T17:52:21Z</time>
      </trkpt>
      <trkpt lat="40.820586" lon="-2.968778">
        <ele>795.204</ele>
        <time>2017-12-09T17:52:22Z</time>
      </trkpt>
      <trkpt lat="40.820527" lon="-2.968846">
        <ele>794.714</ele>
        <time>2017-12-09T17:52:23Z</time>
      </trkpt>
      <trkpt lat="40.820467" lon="-2.968924">
        <ele>794.508</ele>
        <time>2017-12-09T17:52:24Z</time>
      </trkpt>
      <trkpt lat="40.820411" lon="-2.968992">
        <ele>794.174</ele>
        <time>2017-12-09T17:52:25Z</time>
      </trkpt>
      <trkpt lat="40.820369" lon="-2.969062">
        <ele>794.143</ele>
        <time>2017-12-09T17:52:26Z</time>
      </trkpt>
      <trkpt lat="40.820323" lon="-2.969131">
        <ele>794.016</ele>
        <time>2017-12-09T17:52:27Z</time>
      </trkpt>
      <trkpt lat="40.820269" lon="-2.969212">
        <ele>794.067</ele>
        <time>2017-12-09T17:52:28Z</time>
      </trkpt>
      <trkpt lat="40.820217" lon="-2.969307">
        <ele>794.211</ele>
        <time>2017-12-09T17:52:29Z</time>
      </trkpt>
      <trkpt lat="40.820171" lon="-2.969396">
        <ele>794.132</ele>
        <time>2017-12-09T17:52:30Z</time>
      </trkpt>
      <trkpt lat="40.820122" lon="-2.969478">
        <ele>793.988</ele>
        <time>2017-12-09T17:52:31Z</time>
      </trkpt>
      <trkpt lat="40.820076" lon="-2.969550">
        <ele>793.851</ele>
        <time>2017-12-09T17:52:32Z</time>
      </trkpt>
      <trkpt lat="40.820014" lon="-2.969631">
        <ele>793.791</ele>
        <time>2017-12-09T17:52:33Z</time>
      </trkpt>
      <trkpt lat="40.819953" lon="-2.969704">
        <ele>794.181</ele>
        <time>2017-12-09T17:52:34Z</time>
      </trkpt>
      <trkpt lat="40.819891" lon="-2.969757">
        <ele>793.819</ele>
        <time>2017-12-09T17:52:35Z</time>
      </trkpt>
      <trkpt lat="40.819820" lon="-2.969809">
        <ele>793.708</ele>
        <time>2017-12-09T17:52:36Z</time>
      </trkpt>
      <trkpt lat="40.819744" lon="-2.969857">
        <ele>793.461</ele>
        <time>2017-12-09T17:52:37Z</time>
      </trkpt>
      <trkpt lat="40.819670" lon="-2.969913">
        <ele>793.230</ele>
        <time>2017-12-09T17:52:38Z</time>
      </trkpt>
      <trkpt lat="40.819602" lon="-2.970011">
        <ele>793.333</ele>
        <time>2017-12-09T17:52:39Z</time>
      </trkpt>
      <trkpt lat="40.819542" lon="-2.970099">
        <ele>793.254</ele>
        <time>2017-12-09T17:52:40Z</time>
      </trkpt>
      <trkpt lat="40.819485" lon="-2.970196">
        <ele>793.238</ele>
        <time>2017-12-09T17:52:41Z</time>
      </trkpt>
      <trkpt lat="40.819434" lon="-2.970299">
        <ele>793.129</ele>
        <time>2017-12-09T17:52:42Z</time>
      </trkpt>
      <trkpt lat="40.819374" lon="-2.970406">
        <ele>792.915</ele>
        <time>2017-12-09T17:52:43Z</time>
      </trkpt>
      <trkpt lat="40.819325" lon="-2.970512">
        <ele>792.328</ele>
        <time>2017-12-09T17:52:44Z</time>
      </trkpt>
      <trkpt lat="40.819285" lon="-2.970609">
        <ele>791.911</ele>
        <time>2017-12-09T17:52:45Z</time>
      </trkpt>
      <trkpt lat="40.819244" lon="-2.970715">
        <ele>791.721</ele>
        <time>2017-12-09T17:52:46Z</time>
      </trkpt>
      <trkpt lat="40.819205" lon="-2.970812">
        <ele>791.703</ele>
        <time>2017-12-09T17:52:47Z</time>
      </trkpt>
      <trkpt lat="40.819165" lon="-2.970904">
        <ele>791.708</ele>
        <time>2017-12-09T17:52:48Z</time>
      </trkpt>
      <trkpt lat="40.819132" lon="-2.970991">
        <ele>791.413</ele>
        <time>2017-12-09T17:52:49Z</time>
      </trkpt>
      <trkpt lat="40.819098" lon="-2.971085">
        <ele>790.712</ele>
        <time>2017-12-09T17:52:50Z</time>
      </trkpt>
      <trkpt lat="40.819063" lon="-2.971171">
        <ele>791.265</ele>
        <time>2017-12-09T17:52:51Z</time>
      </trkpt>
      <trkpt lat="40.819022" lon="-2.971260">
        <ele>791.276</ele>
        <time>2017-12-09T17:52:52Z</time>
      </trkpt>
      <trkpt lat="40.818975" lon="-2.971341">
        <ele>791.230</ele>
        <time>2017-12-09T17:52:53Z</time>
      </trkpt>
      <trkpt lat="40.818925" lon="-2.971431">
        <ele>791.421</ele>
        <time>2017-12-09T17:52:54Z</time>
      </trkpt>
      <trkpt lat="40.818871" lon="-2.971507">
        <ele>791.347</ele>
        <time>2017-12-09T17:52:55Z</time>
      </trkpt>
      <trkpt lat="40.818805" lon="-2.971583">
        <ele>791.310</ele>
        <time>2017-12-09T17:52:56Z</time>
      </trkpt>
      <trkpt lat="40.818732" lon="-2.971654">
        <ele>791.237</ele>
        <time>2017-12-09T17:52:57Z</time>
      </trkpt>
      <trkpt lat="40.818660" lon="-2.971719">
        <ele>791.049</ele>
        <time>2017-12-09T17:52:58Z</time>
      </trkpt>
      <trkpt lat="40.818593" lon="-2.971761">
        <ele>790.713</ele>
        <time>2017-12-09T17:52:59Z</time>
      </trkpt>
      <trkpt lat="40.818531" lon="-2.971832">
        <ele>790.208</ele>
        <time>2017-12-09T17:53:00Z</time>
      </trkpt>
      <trkpt lat="40.818477" lon="-2.971908">
        <ele>790.565</ele>
        <time>2017-12-09T17:53:01Z</time>
      </trkpt>
      <trkpt lat="40.818419" lon="-2.971965">
        <ele>790.364</ele>
        <time>2017-12-09T17:53:02Z</time>
      </trkpt>
      <trkpt lat="40.818360" lon="-2.972027">
        <ele>790.667</ele>
        <time>2017-12-09T17:53:03Z</time>
      </trkpt>
      <trkpt lat="40.818299" lon="-2.972091">
        <ele>790.898</ele>
        <time>2017-12-09T17:53:04Z</time>
      </trkpt>
      <trkpt lat="40.818238" lon="-2.972160">
        <ele>790.942</ele>
        <time>2017-12-09T17:53:05Z</time>
      </trkpt>
      <trkpt lat="40.818172" lon="-2.972236">
        <ele>790.933</ele>
        <time>2017-12-09T17:53:06Z</time>
      </trkpt>
      <trkpt lat="40.818104" lon="-2.972313">
        <ele>790.879</ele>
        <time>2017-12-09T17:53:07Z</time>
      </trkpt>
      <trkpt lat="40.818030" lon="-2.972395">
        <ele>790.792</ele>
        <time>2017-12-09T17:53:08Z</time>
      </trkpt>
      <trkpt lat="40.817962" lon="-2.972472">
        <ele>790.374</ele>
        <time>2017-12-09T17:53:09Z</time>
      </trkpt>
      <trkpt lat="40.817893" lon="-2.972533">
        <ele>790.356</ele>
        <time>2017-12-09T17:53:10Z</time>
      </trkpt>
      <trkpt lat="40.817824" lon="-2.972605">
        <ele>789.721</ele>
        <time>2017-12-09T17:53:11Z</time>
      </trkpt>
      <trkpt lat="40.817764" lon="-2.972670">
        <ele>790.108</ele>
        <time>2017-12-09T17:53:12Z</time>
      </trkpt>
      <trkpt lat="40.817709" lon="-2.972746">
        <ele>790.289</ele>
        <time>2017-12-09T17:53:13Z</time>
      </trkpt>
      <trkpt lat="40.817652" lon="-2.972826">
        <ele>789.848</ele>
        <time>2017-12-09T17:53:14Z</time>
      </trkpt>
      <trkpt lat="40.817602" lon="-2.972898">
        <ele>790.061</ele>
        <time>2017-12-09T17:53:15Z</time>
      </trkpt>
      <trkpt lat="40.817548" lon="-2.972971">
        <ele>790.422</ele>
        <time>2017-12-09T17:53:16Z</time>
      </trkpt>
      <trkpt lat="40.817496" lon="-2.973044">
        <ele>790.226</ele>
        <time>2017-12-09T17:53:17Z</time>
      </trkpt>
      <trkpt lat="40.817451" lon="-2.973128">
        <ele>790.487</ele>
        <time>2017-12-09T17:53:18Z</time>
      </trkpt>
      <trkpt lat="40.817402" lon="-2.973206">
        <ele>790.423</ele>
        <time>2017-12-09T17:53:19Z</time>
      </trkpt>
      <trkpt lat="40.817356" lon="-2.973283">
        <ele>790.516</ele>
        <time>2017-12-09T17:53:20Z</time>
      </trkpt>
      <trkpt lat="40.817309" lon="-2.973366">
        <ele>791.165</ele>
        <time>2017-12-09T17:53:21Z</time>
      </trkpt>
      <trkpt lat="40.817255" lon="-2.973454">
        <ele>791.268</ele>
        <time>2017-12-09T17:53:22Z</time>
      </trkpt>
      <trkpt lat="40.817203" lon="-2.973528">
        <ele>791.814</ele>
        <time>2017-12-09T17:53:23Z</time>
      </trkpt>
      <trkpt lat="40.817139" lon="-2.973612">
        <ele>792.308</ele>
        <time>2017-12-09T17:53:24Z</time>
      </trkpt>
      <trkpt lat="40.817082" lon="-2.973688">
        <ele>792.828</ele>
        <time>2017-12-09T17:53:25Z</time>
      </trkpt>
      <trkpt lat="40.817030" lon="-2.973768">
        <ele>793.287</ele>
        <time>2017-12-09T17:53:26Z</time>
      </trkpt>
      <trkpt lat="40.816974" lon="-2.973851">
        <ele>793.410</ele>
        <time>2017-12-09T17:53:27Z</time>
      </trkpt>
      <trkpt lat="40.816927" lon="-2.973927">
        <ele>793.331</ele>
        <time>2017-12-09T17:53:28Z</time>
      </trkpt>
      <trkpt lat="40.816881" lon="-2.973995">
        <ele>793.355</ele>
        <time>2017-12-09T17:53:29Z</time>
      </trkpt>
      <trkpt lat="40.816840" lon="-2.974065">
        <ele>793.166</ele>
        <time>2017-12-09T17:53:30Z</time>
      </trkpt>
      <trkpt lat="40.816800" lon="-2.974140">
        <ele>792.912</ele>
        <time>2017-12-09T17:53:31Z</time>
      </trkpt>
      <trkpt lat="40.816756" lon="-2.974206">
        <ele>792.615</ele>
        <time>2017-12-09T17:53:32Z</time>
      </trkpt>
      <trkpt lat="40.816703" lon="-2.974275">
        <ele>792.871</ele>
        <time>2017-12-09T17:53:33Z</time>
      </trkpt>
      <trkpt lat="40.816648" lon="-2.974351">
        <ele>792.741</ele>
        <time>2017-12-09T17:53:34Z</time>
      </trkpt>
      <trkpt lat="40.816595" lon="-2.974416">
        <ele>793.015</ele>
        <time>2017-12-09T17:53:35Z</time>
      </trkpt>
      <trkpt lat="40.816545" lon="-2.974470">
        <ele>793.208</ele>
        <time>2017-12-09T17:53:36Z</time>
      </trkpt>
      <trkpt lat="40.816493" lon="-2.974534">
        <ele>793.169</ele>
        <time>2017-12-09T17:53:37Z</time>
      </trkpt>
      <trkpt lat="40.816440" lon="-2.974605">
        <ele>793.478</ele>
        <time>2017-12-09T17:53:38Z</time>
      </trkpt>
      <trkpt lat="40.816390" lon="-2.974673">
        <ele>793.471</ele>
        <time>2017-12-09T17:53:39Z</time>
      </trkpt>
      <trkpt lat="40.816347" lon="-2.974745">
        <ele>794.262</ele>
        <time>2017-12-09T17:53:40Z</time>
      </trkpt>
      <trkpt lat="40.816309" lon="-2.974826">
        <ele>794.516</ele>
        <time>2017-12-09T17:53:41Z</time>
      </trkpt>
      <trkpt lat="40.816277" lon="-2.974911">
        <ele>794.587</ele>
        <time>2017-12-09T17:53:42Z</time>
      </trkpt>
      <trkpt lat="40.816246" lon="-2.975001">
        <ele>794.343</ele>
        <time>2017-12-09T17:53:43Z</time>
      </trkpt>
      <trkpt lat="40.816211" lon="-2.975096">
        <ele>794.226</ele>
        <time>2017-12-09T17:53:44Z</time>
      </trkpt>
      <trkpt lat="40.816175" lon="-2.975195">
        <ele>794.227</ele>
        <time>2017-12-09T17:53:45Z</time>
      </trkpt>
      <trkpt lat="40.816138" lon="-2.975293">
        <ele>794.568</ele>
        <time>2017-12-09T17:53:46Z</time>
      </trkpt>
      <trkpt lat="40.816100" lon="-2.975391">
        <ele>794.314</ele>
        <time>2017-12-09T17:53:47Z</time>
      </trkpt>
      <trkpt lat="40.816065" lon="-2.975488">
        <ele>793.908</ele>
        <time>2017-12-09T17:53:48Z</time>
      </trkpt>
      <trkpt lat="40.816027" lon="-2.975589">
        <ele>793.924</ele>
        <time>2017-12-09T17:53:49Z</time>
      </trkpt>
      <trkpt lat="40.815985" lon="-2.975685">
        <ele>794.063</ele>
        <time>2017-12-09T17:53:50Z</time>
      </trkpt>
      <trkpt lat="40.815941" lon="-2.975777">
        <ele>794.076</ele>
        <time>2017-12-09T17:53:51Z</time>
      </trkpt>
      <trkpt lat="40.815896" lon="-2.975873">
        <ele>793.917</ele>
        <time>2017-12-09T17:53:52Z</time>
      </trkpt>
      <trkpt lat="40.815860" lon="-2.975948">
        <ele>794.491</ele>
        <time>2017-12-09T17:53:53Z</time>
      </trkpt>
      <trkpt lat="40.815815" lon="-2.976043">
        <ele>794.292</ele>
        <time>2017-12-09T17:53:54Z</time>
      </trkpt>
      <trkpt lat="40.815775" lon="-2.976129">
        <ele>795.078</ele>
        <time>2017-12-09T17:53:55Z</time>
      </trkpt>
      <trkpt lat="40.815729" lon="-2.976225">
        <ele>794.931</ele>
        <time>2017-12-09T17:53:56Z</time>
      </trkpt>
      <trkpt lat="40.815681" lon="-2.976315">
        <ele>794.691</ele>
        <time>2017-12-09T17:53:57Z</time>
      </trkpt>
      <trkpt lat="40.815627" lon="-2.976426">
        <ele>794.581</ele>
        <time>2017-12-09T17:53:58Z</time>
      </trkpt>
      <trkpt lat="40.815575" lon="-2.976530">
        <ele>794.419</ele>
        <time>2017-12-09T17:53:59Z</time>
      </trkpt>
      <trkpt lat="40.815525" lon="-2.976629">
        <ele>794.108</ele>
        <time>2017-12-09T17:54:00Z</time>
      </trkpt>
      <trkpt lat="40.815479" lon="-2.976723">
        <ele>794.141</ele>
        <time>2017-12-09T17:54:01Z</time>
      </trkpt>
      <trkpt lat="40.815430" lon="-2.976823">
        <ele>794.330</ele>
        <time>2017-12-09T17:54:02Z</time>
      </trkpt>
      <trkpt lat="40.815379" lon="-2.976928">
        <ele>794.263</ele>
        <time>2017-12-09T17:54:03Z</time>
      </trkpt>
      <trkpt lat="40.815329" lon="-2.977034">
        <ele>794.214</ele>
        <time>2017-12-09T17:54:04Z</time>
      </trkpt>
      <trkpt lat="40.815275" lon="-2.977139">
        <ele>794.058</ele>
        <time>2017-12-09T17:54:05Z</time>
      </trkpt>
      <trkpt lat="40.815216" lon="-2.977236">
        <ele>793.719</ele>
        <time>2017-12-09T17:54:06Z</time>
      </trkpt>
      <trkpt lat="40.815147" lon="-2.977340">
        <ele>793.545</ele>
        <time>2017-12-09T17:54:07Z</time>
      </trkpt>
      <trkpt lat="40.815074" lon="-2.977432">
        <ele>793.638</ele>
        <time>2017-12-09T17:54:08Z</time>
      </trkpt>
      <trkpt lat="40.815000" lon="-2.977531">
        <ele>793.776</ele>
        <time>2017-12-09T17:54:09Z</time>
      </trkpt>
      <trkpt lat="40.814926" lon="-2.977647">
        <ele>793.490</ele>
        <time>2017-12-09T17:54:10Z</time>
      </trkpt>
      <trkpt lat="40.814850" lon="-2.977762">
        <ele>793.419</ele>
        <time>2017-12-09T17:54:11Z</time>
      </trkpt>
      <trkpt lat="40.814779" lon="-2.977874">
        <ele>793.308</ele>
        <time>2017-12-09T17:54:12Z</time>
      </trkpt>
      <trkpt lat="40.814716" lon="-2.977974">
        <ele>793.259</ele>
        <time>2017-12-09T17:54:13Z</time>
      </trkpt>
      <trkpt lat="40.814659" lon="-2.978081">
        <ele>793.288</ele>
        <time>2017-12-09T17:54:14Z</time>
      </trkpt>
      <trkpt lat="40.814599" lon="-2.978205">
        <ele>793.211</ele>
        <time>2017-12-09T17:54:15Z</time>
      </trkpt>
      <trkpt lat="40.814539" lon="-2.978338">
        <ele>793.382</ele>
        <time>2017-12-09T17:54:16Z</time>
      </trkpt>
      <trkpt lat="40.814501" lon="-2.978473">
        <ele>793.246</ele>
        <time>2017-12-09T17:54:17Z</time>
      </trkpt>
      <trkpt lat="40.814465" lon="-2.978612">
        <ele>792.837</ele>
        <time>2017-12-09T17:54:18Z</time>
      </trkpt>
      <trkpt lat="40.814437" lon="-2.978763">
        <ele>792.623</ele>
        <time>2017-12-09T17:54:19Z</time>
      </trkpt>
      <trkpt lat="40.814416" lon="-2.978922">
        <ele>792.536</ele>
        <time>2017-12-09T17:54:20Z</time>
      </trkpt>
      <trkpt lat="40.814393" lon="-2.979080">
        <ele>792.559</ele>
        <time>2017-12-09T17:54:21Z</time>
      </trkpt>
      <trkpt lat="40.814363" lon="-2.979238">
        <ele>792.003</ele>
        <time>2017-12-09T17:54:22Z</time>
      </trkpt>
      <trkpt lat="40.814336" lon="-2.979400">
        <ele>791.923</ele>
        <time>2017-12-09T17:54:23Z</time>
      </trkpt>
      <trkpt lat="40.814307" lon="-2.979547">
        <ele>791.808</ele>
        <time>2017-12-09T17:54:24Z</time>
      </trkpt>
      <trkpt lat="40.814283" lon="-2.979711">
        <ele>791.557</ele>
        <time>2017-12-09T17:54:25Z</time>
      </trkpt>
      <trkpt lat="40.814258" lon="-2.979865">
        <ele>791.336</ele>
        <time>2017-12-09T17:54:26Z</time>
      </trkpt>
      <trkpt lat="40.814236" lon="-2.980022">
        <ele>791.189</ele>
        <time>2017-12-09T17:54:27Z</time>
      </trkpt>
      <trkpt lat="40.814220" lon="-2.980170">
        <ele>791.160</ele>
        <time>2017-12-09T17:54:28Z</time>
      </trkpt>
      <trkpt lat="40.814196" lon="-2.980325">
        <ele>790.944</ele>
        <time>2017-12-09T17:54:29Z</time>
      </trkpt>
      <trkpt lat="40.814174" lon="-2.980470">
        <ele>790.665</ele>
        <time>2017-12-09T17:54:30Z</time>
      </trkpt>
      <trkpt lat="40.814147" lon="-2.980617">
        <ele>790.681</ele>
        <time>2017-12-09T17:54:31Z</time>
      </trkpt>
      <trkpt lat="40.814109" lon="-2.980765">
        <ele>790.554</ele>
        <time>2017-12-09T17:54:32Z</time>
      </trkpt>
      <trkpt lat="40.814068" lon="-2.980902">
        <ele>790.858</ele>
        <time>2017-12-09T17:54:33Z</time>
      </trkpt>
      <trkpt lat="40.814023" lon="-2.981047">
        <ele>790.652</ele>
        <time>2017-12-09T17:54:34Z</time>
      </trkpt>
      <trkpt lat="40.813965" lon="-2.981196">
        <ele>790.317</ele>
        <time>2017-12-09T17:54:35Z</time>
      </trkpt>
      <trkpt lat="40.813905" lon="-2.981341">
        <ele>790.408</ele>
        <time>2017-12-09T17:54:36Z</time>
      </trkpt>
      <trkpt lat="40.813844" lon="-2.981481">
        <ele>790.487</ele>
        <time>2017-12-09T17:54:37Z</time>
      </trkpt>
      <trkpt lat="40.813784" lon="-2.981609">
        <ele>790.726</ele>
        <time>2017-12-09T17:54:38Z</time>
      </trkpt>
      <trkpt lat="40.813727" lon="-2.981731">
        <ele>789.979</ele>
        <time>2017-12-09T17:54:39Z</time>
      </trkpt>
      <trkpt lat="40.813672" lon="-2.981868">
        <ele>789.750</ele>
        <time>2017-12-09T17:54:40Z</time>
      </trkpt>
      <trkpt lat="40.813628" lon="-2.981998">
        <ele>789.624</ele>
        <time>2017-12-09T17:54:41Z</time>
      </trkpt>
      <trkpt lat="40.813591" lon="-2.982128">
        <ele>789.595</ele>
        <time>2017-12-09T17:54:42Z</time>
      </trkpt>
      <trkpt lat="40.813549" lon="-2.982270">
        <ele>789.811</ele>
        <time>2017-12-09T17:54:43Z</time>
      </trkpt>
      <trkpt lat="40.813511" lon="-2.982410">
        <ele>789.864</ele>
        <time>2017-12-09T17:54:44Z</time>
      </trkpt>
      <trkpt lat="40.813463" lon="-2.982556">
        <ele>789.979</ele>
        <time>2017-12-09T17:54:45Z</time>
      </trkpt>
      <trkpt lat="40.813421" lon="-2.982693">
        <ele>790.305</ele>
        <time>2017-12-09T17:54:46Z</time>
      </trkpt>
      <trkpt lat="40.813377" lon="-2.982827">
        <ele>790.625</ele>
        <time>2017-12-09T17:54:47Z</time>
      </trkpt>
      <trkpt lat="40.813333" lon="-2.982959">
        <ele>790.908</ele>
        <time>2017-12-09T17:54:48Z</time>
      </trkpt>
      <trkpt lat="40.813286" lon="-2.983078">
        <ele>791.039</ele>
        <time>2017-12-09T17:54:49Z</time>
      </trkpt>
      <trkpt lat="40.813241" lon="-2.983188">
        <ele>790.768</ele>
        <time>2017-12-09T17:54:50Z</time>
      </trkpt>
      <trkpt lat="40.813203" lon="-2.983308">
        <ele>790.941</ele>
        <time>2017-12-09T17:54:51Z</time>
      </trkpt>
      <trkpt lat="40.813191" lon="-2.983431">
        <ele>790.372</ele>
        <time>2017-12-09T17:54:52Z</time>
      </trkpt>
      <trkpt lat="40.813188" lon="-2.983547">
        <ele>790.096</ele>
        <time>2017-12-09T17:54:53Z</time>
      </trkpt>
      <trkpt lat="40.813201" lon="-2.983660">
        <ele>790.337</ele>
        <time>2017-12-09T17:54:54Z</time>
      </trkpt>
      <trkpt lat="40.813212" lon="-2.983796">
        <ele>789.993</ele>
        <time>2017-12-09T17:54:55Z</time>
      </trkpt>
      <trkpt lat="40.813220" lon="-2.983926">
        <ele>789.516</ele>
        <time>2017-12-09T17:54:56Z</time>
      </trkpt>
      <trkpt lat="40.813225" lon="-2.984064">
        <ele>789.276</ele>
        <time>2017-12-09T17:54:57Z</time>
      </trkpt>
      <trkpt lat="40.813223" lon="-2.984204">
        <ele>789.290</ele>
        <time>2017-12-09T17:54:58Z</time>
      </trkpt>
      <trkpt lat="40.813224" lon="-2.984351">
        <ele>788.819</ele>
        <time>2017-12-09T17:54:59Z</time>
      </trkpt>
      <trkpt lat="40.813216" lon="-2.984484">
        <ele>788.608</ele>
        <time>2017-12-09T17:55:00Z</time>
      </trkpt>
      <trkpt lat="40.813198" lon="-2.984605">
        <ele>788.399</ele>
        <time>2017-12-09T17:55:01Z</time>
      </trkpt>
      <trkpt lat="40.813163" lon="-2.984714">
        <ele>787.718</ele>
        <time>2017-12-09T17:55:02Z</time>
      </trkpt>
      <trkpt lat="40.813115" lon="-2.984814">
        <ele>787.781</ele>
        <time>2017-12-09T17:55:03Z</time>
      </trkpt>
      <trkpt lat="40.813060" lon="-2.984911">
        <ele>788.252</ele>
        <time>2017-12-09T17:55:04Z</time>
      </trkpt>
      <trkpt lat="40.812988" lon="-2.984997">
        <ele>787.656</ele>
        <time>2017-12-09T17:55:05Z</time>
      </trkpt>
      <trkpt lat="40.812913" lon="-2.985092">
        <ele>787.447</ele>
        <time>2017-12-09T17:55:06Z</time>
      </trkpt>
      <trkpt lat="40.812841" lon="-2.985192">
        <ele>787.573</ele>
        <time>2017-12-09T17:55:07Z</time>
      </trkpt>
      <trkpt lat="40.812776" lon="-2.985301">
        <ele>787.426</ele>
        <time>2017-12-09T17:55:08Z</time>
      </trkpt>
      <trkpt lat="40.812709" lon="-2.985408">
        <ele>787.398</ele>
        <time>2017-12-09T17:55:09Z</time>
      </trkpt>
      <trkpt lat="40.812643" lon="-2.985536">
        <ele>787.415</ele>
        <time>2017-12-09T17:55:10Z</time>
      </trkpt>
      <trkpt lat="40.812587" lon="-2.985664">
        <ele>787.426</ele>
        <time>2017-12-09T17:55:11Z</time>
      </trkpt>
      <trkpt lat="40.812565" lon="-2.985795">
        <ele>787.408</ele>
        <time>2017-12-09T17:55:12Z</time>
      </trkpt>
      <trkpt lat="40.812515" lon="-2.985928">
        <ele>787.391</ele>
        <time>2017-12-09T17:55:13Z</time>
      </trkpt>
      <trkpt lat="40.812469" lon="-2.986042">
        <ele>787.110</ele>
        <time>2017-12-09T17:55:14Z</time>
      </trkpt>
      <trkpt lat="40.812407" lon="-2.986167">
        <ele>787.233</ele>
        <time>2017-12-09T17:55:15Z</time>
      </trkpt>
      <trkpt lat="40.812345" lon="-2.986280">
        <ele>787.314</ele>
        <time>2017-12-09T17:55:16Z</time>
      </trkpt>
      <trkpt lat="40.812276" lon="-2.986387">
        <ele>787.188</ele>
        <time>2017-12-09T17:55:17Z</time>
      </trkpt>
      <trkpt lat="40.812197" lon="-2.986487">
        <ele>786.969</ele>
        <time>2017-12-09T17:55:18Z</time>
      </trkpt>
      <trkpt lat="40.812116" lon="-2.986600">
        <ele>786.825</ele>
        <time>2017-12-09T17:55:19Z</time>
      </trkpt>
      <trkpt lat="40.812034" lon="-2.986717">
        <ele>786.848</ele>
        <time>2017-12-09T17:55:20Z</time>
      </trkpt>
      <trkpt lat="40.811949" lon="-2.986822">
        <ele>786.842</ele>
        <time>2017-12-09T17:55:21Z</time>
      </trkpt>
      <trkpt lat="40.811864" lon="-2.986927">
        <ele>786.822</ele>
        <time>2017-12-09T17:55:22Z</time>
      </trkpt>
      <trkpt lat="40.811783" lon="-2.987025">
        <ele>786.614</ele>
        <time>2017-12-09T17:55:23Z</time>
      </trkpt>
      <trkpt lat="40.811705" lon="-2.987120">
        <ele>786.608</ele>
        <time>2017-12-09T17:55:24Z</time>
      </trkpt>
      <trkpt lat="40.811645" lon="-2.987215">
        <ele>786.126</ele>
        <time>2017-12-09T17:55:25Z</time>
      </trkpt>
      <trkpt lat="40.811573" lon="-2.987308">
        <ele>786.615</ele>
        <time>2017-12-09T17:55:26Z</time>
      </trkpt>
      <trkpt lat="40.811497" lon="-2.987406">
        <ele>786.718</ele>
        <time>2017-12-09T17:55:27Z</time>
      </trkpt>
      <trkpt lat="40.811427" lon="-2.987515">
        <ele>786.789</ele>
        <time>2017-12-09T17:55:28Z</time>
      </trkpt>
      <trkpt lat="40.811361" lon="-2.987613">
        <ele>786.653</ele>
        <time>2017-12-09T17:55:29Z</time>
      </trkpt>
      <trkpt lat="40.811288" lon="-2.987707">
        <ele>786.634</ele>
        <time>2017-12-09T17:55:30Z</time>
      </trkpt>
      <trkpt lat="40.811210" lon="-2.987806">
        <ele>787.010</ele>
        <time>2017-12-09T17:55:31Z</time>
      </trkpt>
      <trkpt lat="40.811136" lon="-2.987904">
        <ele>787.293</ele>
        <time>2017-12-09T17:55:32Z</time>
      </trkpt>
      <trkpt lat="40.811060" lon="-2.988004">
        <ele>787.321</ele>
        <time>2017-12-09T17:55:33Z</time>
      </trkpt>
      <trkpt lat="40.810985" lon="-2.988099">
        <ele>787.541</ele>
        <time>2017-12-09T17:55:34Z</time>
      </trkpt>
      <trkpt lat="40.810915" lon="-2.988195">
        <ele>787.805</ele>
        <time>2017-12-09T17:55:35Z</time>
      </trkpt>
      <trkpt lat="40.810847" lon="-2.988283">
        <ele>788.308</ele>
        <time>2017-12-09T17:55:36Z</time>
      </trkpt>
      <trkpt lat="40.810786" lon="-2.988361">
        <ele>789.164</ele>
        <time>2017-12-09T17:55:37Z</time>
      </trkpt>
      <trkpt lat="40.810731" lon="-2.988431">
        <ele>789.723</ele>
        <time>2017-12-09T17:55:38Z</time>
      </trkpt>
      <trkpt lat="40.810676" lon="-2.988500">
        <ele>790.516</ele>
        <time>2017-12-09T17:55:39Z</time>
      </trkpt>
      <trkpt lat="40.810622" lon="-2.988568">
        <ele>790.857</ele>
        <time>2017-12-09T17:55:40Z</time>
      </trkpt>
      <trkpt lat="40.810575" lon="-2.988644">
        <ele>791.831</ele>
        <time>2017-12-09T17:55:41Z</time>
      </trkpt>
      <trkpt lat="40.810527" lon="-2.988729">
        <ele>792.082</ele>
        <time>2017-12-09T17:55:42Z</time>
      </trkpt>
      <trkpt lat="40.810483" lon="-2.988815">
        <ele>792.428</ele>
        <time>2017-12-09T17:55:43Z</time>
      </trkpt>
      <trkpt lat="40.810441" lon="-2.988888">
        <ele>792.641</ele>
        <time>2017-12-09T17:55:44Z</time>
      </trkpt>
      <trkpt lat="40.810400" lon="-2.988944">
        <ele>792.457</ele>
        <time>2017-12-09T17:55:45Z</time>
      </trkpt>
      <trkpt lat="40.810356" lon="-2.988983">
        <ele>792.400</ele>
        <time>2017-12-09T17:55:46Z</time>
      </trkpt>
      <trkpt lat="40.810315" lon="-2.989030">
        <ele>792.420</ele>
        <time>2017-12-09T17:55:47Z</time>
      </trkpt>
      <trkpt lat="40.810280" lon="-2.989081">
        <ele>792.108</ele>
        <time>2017-12-09T17:55:48Z</time>
      </trkpt>
      <trkpt lat="40.810247" lon="-2.989134">
        <ele>791.397</ele>
        <time>2017-12-09T17:55:49Z</time>
      </trkpt>
      <trkpt lat="40.810216" lon="-2.989187">
        <ele>790.686</ele>
        <time>2017-12-09T17:55:50Z</time>
      </trkpt>
      <trkpt lat="40.810170" lon="-2.989261">
        <ele>789.529</ele>
        <time>2017-12-09T17:55:52Z</time>
      </trkpt>
      <trkpt lat="40.810135" lon="-2.989343">
        <ele>789.170</ele>
        <time>2017-12-09T17:55:54Z</time>
      </trkpt>
      <trkpt lat="40.810093" lon="-2.989455">
        <ele>788.974</ele>
        <time>2017-12-09T17:55:56Z</time>
      </trkpt>
      <trkpt lat="40.810070" lon="-2.989528">
        <ele>788.595</ele>
        <time>2017-12-09T17:55:57Z</time>
      </trkpt>
      <trkpt lat="40.810045" lon="-2.989608">
        <ele>787.961</ele>
        <time>2017-12-09T17:55:58Z</time>
      </trkpt>
      <trkpt lat="40.810025" lon="-2.989691">
        <ele>786.854</ele>
        <time>2017-12-09T17:55:59Z</time>
      </trkpt>
      <trkpt lat="40.810005" lon="-2.989773">
        <ele>786.352</ele>
        <time>2017-12-09T17:56:00Z</time>
      </trkpt>
      <trkpt lat="40.809984" lon="-2.989863">
        <ele>785.753</ele>
        <time>2017-12-09T17:56:01Z</time>
      </trkpt>
      <trkpt lat="40.809964" lon="-2.989949">
        <ele>785.308</ele>
        <time>2017-12-09T17:56:02Z</time>
      </trkpt>
      <trkpt lat="40.809941" lon="-2.990028">
        <ele>784.708</ele>
        <time>2017-12-09T17:56:03Z</time>
      </trkpt>
      <trkpt lat="40.809926" lon="-2.990111">
        <ele>784.397</ele>
        <time>2017-12-09T17:56:04Z</time>
      </trkpt>
      <trkpt lat="40.809906" lon="-2.990185">
        <ele>783.966</ele>
        <time>2017-12-09T17:56:05Z</time>
      </trkpt>
      <trkpt lat="40.809884" lon="-2.990275">
        <ele>783.579</ele>
        <time>2017-12-09T17:56:07Z</time>
      </trkpt>
      <trkpt lat="40.809889" lon="-2.990360">
        <ele>783.620</ele>
        <time>2017-12-09T17:56:25Z</time>
      </trkpt>
      <trkpt lat="40.809914" lon="-2.990449">
        <ele>783.644</ele>
        <time>2017-12-09T17:56:27Z</time>
      </trkpt>
      <trkpt lat="40.809965" lon="-2.990485">
        <ele>783.765</ele>
        <time>2017-12-09T17:56:28Z</time>
      </trkpt>
      <trkpt lat="40.810002" lon="-2.990529">
        <ele>783.341</ele>
        <time>2017-12-09T17:56:29Z</time>
      </trkpt>
      <trkpt lat="40.810040" lon="-2.990588">
        <ele>783.464</ele>
        <time>2017-12-09T17:56:30Z</time>
      </trkpt>
      <trkpt lat="40.810087" lon="-2.990634">
        <ele>783.312</ele>
        <time>2017-12-09T17:56:31Z</time>
      </trkpt>
      <trkpt lat="40.810144" lon="-2.990682">
        <ele>783.032</ele>
        <time>2017-12-09T17:56:32Z</time>
      </trkpt>
      <trkpt lat="40.810203" lon="-2.990739">
        <ele>782.805</ele>
        <time>2017-12-09T17:56:33Z</time>
      </trkpt>
      <trkpt lat="40.810257" lon="-2.990799">
        <ele>782.508</ele>
        <time>2017-12-09T17:56:34Z</time>
      </trkpt>
      <trkpt lat="40.810327" lon="-2.990863">
        <ele>782.153</ele>
        <time>2017-12-09T17:56:35Z</time>
      </trkpt>
      <trkpt lat="40.810396" lon="-2.990911">
        <ele>781.922</ele>
        <time>2017-12-09T17:56:36Z</time>
      </trkpt>
      <trkpt lat="40.810466" lon="-2.990960">
        <ele>781.465</ele>
        <time>2017-12-09T17:56:37Z</time>
      </trkpt>
      <trkpt lat="40.810538" lon="-2.991007">
        <ele>780.886</ele>
        <time>2017-12-09T17:56:38Z</time>
      </trkpt>
      <trkpt lat="40.810608" lon="-2.991053">
        <ele>780.660</ele>
        <time>2017-12-09T17:56:39Z</time>
      </trkpt>
      <trkpt lat="40.810659" lon="-2.991082">
        <ele>780.011</ele>
        <time>2017-12-09T17:56:40Z</time>
      </trkpt>
      <trkpt lat="40.810719" lon="-2.991117">
        <ele>779.967</ele>
        <time>2017-12-09T17:56:41Z</time>
      </trkpt>
      <trkpt lat="40.810766" lon="-2.991147">
        <ele>779.650</ele>
        <time>2017-12-09T17:56:42Z</time>
      </trkpt>
      <trkpt lat="40.810818" lon="-2.991181">
        <ele>779.546</ele>
        <time>2017-12-09T17:56:43Z</time>
      </trkpt>
      <trkpt lat="40.810863" lon="-2.991202">
        <ele>779.188</ele>
        <time>2017-12-09T17:56:44Z</time>
      </trkpt>
      <trkpt lat="40.810910" lon="-2.991267">
        <ele>779.116</ele>
        <time>2017-12-09T17:56:46Z</time>
      </trkpt>
      <trkpt lat="40.810895" lon="-2.991349">
        <ele>779.108</ele>
        <time>2017-12-09T17:56:48Z</time>
      </trkpt>
      <trkpt lat="40.810855" lon="-2.991402">
        <ele>779.266</ele>
        <time>2017-12-09T17:56:50Z</time>
      </trkpt>
      <trkpt lat="40.810838" lon="-2.991494">
        <ele>779.845</ele>
        <time>2017-12-09T17:57:06Z</time>
      </trkpt>
      <trkpt lat="40.810801" lon="-2.991620">
        <ele>779.938</ele>
        <time>2017-12-09T17:57:08Z</time>
      </trkpt>
      <trkpt lat="40.810790" lon="-2.991685">
        <ele>779.719</ele>
        <time>2017-12-09T17:57:09Z</time>
      </trkpt>
      <trkpt lat="40.810775" lon="-2.991746">
        <ele>779.653</ele>
        <time>2017-12-09T17:57:10Z</time>
      </trkpt>
      <trkpt lat="40.810764" lon="-2.991812">
        <ele>779.884</ele>
        <time>2017-12-09T17:57:11Z</time>
      </trkpt>
      <trkpt lat="40.810755" lon="-2.991894">
        <ele>779.720</ele>
        <time>2017-12-09T17:57:12Z</time>
      </trkpt>
      <trkpt lat="40.810743" lon="-2.991980">
        <ele>779.713</ele>
        <time>2017-12-09T17:57:13Z</time>
      </trkpt>
      <trkpt lat="40.810738" lon="-2.992082">
        <ele>779.747</ele>
        <time>2017-12-09T17:57:14Z</time>
      </trkpt>
      <trkpt lat="40.810711" lon="-2.992178">
        <ele>779.729</ele>
        <time>2017-12-09T17:57:15Z</time>
      </trkpt>
      <trkpt lat="40.810693" lon="-2.992282">
        <ele>779.621</ele>
        <time>2017-12-09T17:57:16Z</time>
      </trkpt>
      <trkpt lat="40.810672" lon="-2.992390">
        <ele>779.808</ele>
        <time>2017-12-09T17:57:17Z</time>
      </trkpt>
      <trkpt lat="40.810646" lon="-2.992500">
        <ele>780.026</ele>
        <time>2017-12-09T17:57:18Z</time>
      </trkpt>
      <trkpt lat="40.810613" lon="-2.992608">
        <ele>780.475</ele>
        <time>2017-12-09T17:57:19Z</time>
      </trkpt>
      <trkpt lat="40.810575" lon="-2.992719">
        <ele>781.538</ele>
        <time>2017-12-09T17:57:20Z</time>
      </trkpt>
      <trkpt lat="40.810535" lon="-2.992828">
        <ele>782.479</ele>
        <time>2017-12-09T17:57:21Z</time>
      </trkpt>
      <trkpt lat="40.810502" lon="-2.992930">
        <ele>783.473</ele>
        <time>2017-12-09T17:57:22Z</time>
      </trkpt>
      <trkpt lat="40.810475" lon="-2.993013">
        <ele>784.374</ele>
        <time>2017-12-09T17:57:23Z</time>
      </trkpt>
      <trkpt lat="40.810452" lon="-2.993092">
        <ele>784.770</ele>
        <time>2017-12-09T17:57:24Z</time>
      </trkpt>
      <trkpt lat="40.810433" lon="-2.993174">
        <ele>784.623</ele>
        <time>2017-12-09T17:57:25Z</time>
      </trkpt>
      <trkpt lat="40.810420" lon="-2.993246">
        <ele>784.695</ele>
        <time>2017-12-09T17:57:26Z</time>
      </trkpt>
      <trkpt lat="40.810406" lon="-2.993318">
        <ele>784.349</ele>
        <time>2017-12-09T17:57:27Z</time>
      </trkpt>
      <trkpt lat="40.810389" lon="-2.993385">
        <ele>783.623</ele>
        <time>2017-12-09T17:57:28Z</time>
      </trkpt>
      <trkpt lat="40.810386" lon="-2.993453">
        <ele>782.908</ele>
        <time>2017-12-09T17:57:29Z</time>
      </trkpt>
      <trkpt lat="40.810383" lon="-2.993523">
        <ele>782.111</ele>
        <time>2017-12-09T17:57:30Z</time>
      </trkpt>
      <trkpt lat="40.810377" lon="-2.993598">
        <ele>781.540</ele>
        <time>2017-12-09T17:57:31Z</time>
      </trkpt>
      <trkpt lat="40.810379" lon="-2.993679">
        <ele>781.513</ele>
        <time>2017-12-09T17:57:32Z</time>
      </trkpt>
      <trkpt lat="40.810368" lon="-2.993763">
        <ele>781.224</ele>
        <time>2017-12-09T17:57:33Z</time>
      </trkpt>
      <trkpt lat="40.810353" lon="-2.993866">
        <ele>781.088</ele>
        <time>2017-12-09T17:57:34Z</time>
      </trkpt>
      <trkpt lat="40.810340" lon="-2.993965">
        <ele>780.339</ele>
        <time>2017-12-09T17:57:35Z</time>
      </trkpt>
      <trkpt lat="40.810324" lon="-2.994057">
        <ele>779.625</ele>
        <time>2017-12-09T17:57:36Z</time>
      </trkpt>
      <trkpt lat="40.810298" lon="-2.994125">
        <ele>779.768</ele>
        <time>2017-12-09T17:57:37Z</time>
      </trkpt>
      <trkpt lat="40.810276" lon="-2.994207">
        <ele>779.521</ele>
        <time>2017-12-09T17:57:38Z</time>
      </trkpt>
      <trkpt lat="40.810266" lon="-2.994294">
        <ele>779.141</ele>
        <time>2017-12-09T17:57:39Z</time>
      </trkpt>
      <trkpt lat="40.810259" lon="-2.994390">
        <ele>779.105</ele>
        <time>2017-12-09T17:57:40Z</time>
      </trkpt>
      <trkpt lat="40.810257" lon="-2.994481">
        <ele>778.908</ele>
        <time>2017-12-09T17:57:41Z</time>
      </trkpt>
      <trkpt lat="40.810263" lon="-2.994582">
        <ele>778.714</ele>
        <time>2017-12-09T17:57:42Z</time>
      </trkpt>
      <trkpt lat="40.810257" lon="-2.994678">
        <ele>778.753</ele>
        <time>2017-12-09T17:57:43Z</time>
      </trkpt>
      <trkpt lat="40.810229" lon="-2.994778">
        <ele>778.196</ele>
        <time>2017-12-09T17:57:44Z</time>
      </trkpt>
      <trkpt lat="40.810206" lon="-2.994887">
        <ele>777.697</ele>
        <time>2017-12-09T17:57:45Z</time>
      </trkpt>
      <trkpt lat="40.810181" lon="-2.995000">
        <ele>777.571</ele>
        <time>2017-12-09T17:57:46Z</time>
      </trkpt>
      <trkpt lat="40.810158" lon="-2.995122">
        <ele>777.232</ele>
        <time>2017-12-09T17:57:47Z</time>
      </trkpt>
      <trkpt lat="40.810131" lon="-2.995243">
        <ele>776.848</ele>
        <time>2017-12-09T17:57:48Z</time>
      </trkpt>
      <trkpt lat="40.810102" lon="-2.995361">
        <ele>776.431</ele>
        <time>2017-12-09T17:57:49Z</time>
      </trkpt>
      <trkpt lat="40.810077" lon="-2.995485">
        <ele>776.443</ele>
        <time>2017-12-09T17:57:50Z</time>
      </trkpt>
      <trkpt lat="40.810048" lon="-2.995610">
        <ele>776.264</ele>
        <time>2017-12-09T17:57:51Z</time>
      </trkpt>
      <trkpt lat="40.810029" lon="-2.995735">
        <ele>776.110</ele>
        <time>2017-12-09T17:57:52Z</time>
      </trkpt>
      <trkpt lat="40.810009" lon="-2.995861">
        <ele>775.908</ele>
        <time>2017-12-09T17:57:53Z</time>
      </trkpt>
      <trkpt lat="40.809987" lon="-2.995980">
        <ele>776.176</ele>
        <time>2017-12-09T17:57:54Z</time>
      </trkpt>
      <trkpt lat="40.809959" lon="-2.996093">
        <ele>775.915</ele>
        <time>2017-12-09T17:57:55Z</time>
      </trkpt>
      <trkpt lat="40.809919" lon="-2.996203">
        <ele>776.078</ele>
        <time>2017-12-09T17:57:56Z</time>
      </trkpt>
      <trkpt lat="40.809879" lon="-2.996303">
        <ele>775.929</ele>
        <time>2017-12-09T17:57:57Z</time>
      </trkpt>
      <trkpt lat="40.809833" lon="-2.996406">
        <ele>776.083</ele>
        <time>2017-12-09T17:57:58Z</time>
      </trkpt>
      <trkpt lat="40.809777" lon="-2.996509">
        <ele>776.024</ele>
        <time>2017-12-09T17:57:59Z</time>
      </trkpt>
      <trkpt lat="40.809718" lon="-2.996611">
        <ele>775.840</ele>
        <time>2017-12-09T17:58:00Z</time>
      </trkpt>
      <trkpt lat="40.809660" lon="-2.996703">
        <ele>776.023</ele>
        <time>2017-12-09T17:58:01Z</time>
      </trkpt>
      <trkpt lat="40.809604" lon="-2.996798">
        <ele>775.722</ele>
        <time>2017-12-09T17:58:02Z</time>
      </trkpt>
      <trkpt lat="40.809550" lon="-2.996889">
        <ele>775.862</ele>
        <time>2017-12-09T17:58:03Z</time>
      </trkpt>
      <trkpt lat="40.809497" lon="-2.996973">
        <ele>775.708</ele>
        <time>2017-12-09T17:58:04Z</time>
      </trkpt>
      <trkpt lat="40.809454" lon="-2.997045">
        <ele>775.608</ele>
        <time>2017-12-09T17:58:05Z</time>
      </trkpt>
      <trkpt lat="40.809405" lon="-2.997122">
        <ele>775.924</ele>
        <time>2017-12-09T17:58:06Z</time>
      </trkpt>
      <trkpt lat="40.809348" lon="-2.997214">
        <ele>775.933</ele>
        <time>2017-12-09T17:58:07Z</time>
      </trkpt>
      <trkpt lat="40.809278" lon="-2.997317">
        <ele>775.836</ele>
        <time>2017-12-09T17:58:08Z</time>
      </trkpt>
      <trkpt lat="40.809208" lon="-2.997412">
        <ele>775.897</ele>
        <time>2017-12-09T17:58:09Z</time>
      </trkpt>
      <trkpt lat="40.809143" lon="-2.997500">
        <ele>775.541</ele>
        <time>2017-12-09T17:58:10Z</time>
      </trkpt>
      <trkpt lat="40.809071" lon="-2.997582">
        <ele>775.412</ele>
        <time>2017-12-09T17:58:11Z</time>
      </trkpt>
      <trkpt lat="40.808995" lon="-2.997644">
        <ele>775.268</ele>
        <time>2017-12-09T17:58:12Z</time>
      </trkpt>
      <trkpt lat="40.808918" lon="-2.997722">
        <ele>775.091</ele>
        <time>2017-12-09T17:58:13Z</time>
      </trkpt>
      <trkpt lat="40.808834" lon="-2.997813">
        <ele>774.641</ele>
        <time>2017-12-09T17:58:14Z</time>
      </trkpt>
      <trkpt lat="40.808744" lon="-2.997896">
        <ele>774.381</ele>
        <time>2017-12-09T17:58:15Z</time>
      </trkpt>
      <trkpt lat="40.808653" lon="-2.997991">
        <ele>774.309</ele>
        <time>2017-12-09T17:58:16Z</time>
      </trkpt>
      <trkpt lat="40.808571" lon="-2.998073">
        <ele>774.108</ele>
        <time>2017-12-09T17:58:17Z</time>
      </trkpt>
      <trkpt lat="40.808472" lon="-2.998183">
        <ele>774.366</ele>
        <time>2017-12-09T17:58:18Z</time>
      </trkpt>
      <trkpt lat="40.808392" lon="-2.998286">
        <ele>774.365</ele>
        <time>2017-12-09T17:58:19Z</time>
      </trkpt>
      <trkpt lat="40.808331" lon="-2.998387">
        <ele>774.188</ele>
        <time>2017-12-09T17:58:20Z</time>
      </trkpt>
      <trkpt lat="40.808284" lon="-2.998478">
        <ele>773.869</ele>
        <time>2017-12-09T17:58:21Z</time>
      </trkpt>
      <trkpt lat="40.808264" lon="-2.998532">
        <ele>773.683</ele>
        <time>2017-12-09T17:58:22Z</time>
      </trkpt>
      <trkpt lat="40.808222" lon="-2.998575">
        <ele>773.214</ele>
        <time>2017-12-09T17:59:23Z</time>
      </trkpt>
      <trkpt lat="40.808191" lon="-2.998655">
        <ele>773.380</ele>
        <time>2017-12-09T17:59:25Z</time>
      </trkpt>
      <trkpt lat="40.808163" lon="-2.998735">
        <ele>773.483</ele>
        <time>2017-12-09T17:59:26Z</time>
      </trkpt>
      <trkpt lat="40.808138" lon="-2.998805">
        <ele>773.038</ele>
        <time>2017-12-09T17:59:27Z</time>
      </trkpt>
      <trkpt lat="40.808105" lon="-2.998888">
        <ele>773.270</ele>
        <time>2017-12-09T17:59:28Z</time>
      </trkpt>
      <trkpt lat="40.808068" lon="-2.998982">
        <ele>773.417</ele>
        <time>2017-12-09T17:59:29Z</time>
      </trkpt>
      <trkpt lat="40.808030" lon="-2.999089">
        <ele>773.508</ele>
        <time>2017-12-09T17:59:30Z</time>
      </trkpt>
      <trkpt lat="40.807984" lon="-2.999212">
        <ele>773.445</ele>
        <time>2017-12-09T17:59:31Z</time>
      </trkpt>
      <trkpt lat="40.807940" lon="-2.999326">
        <ele>773.214</ele>
        <time>2017-12-09T17:59:32Z</time>
      </trkpt>
      <trkpt lat="40.807894" lon="-2.999442">
        <ele>773.177</ele>
        <time>2017-12-09T17:59:33Z</time>
      </trkpt>
      <trkpt lat="40.807847" lon="-2.999563">
        <ele>772.948</ele>
        <time>2017-12-09T17:59:34Z</time>
      </trkpt>
      <trkpt lat="40.807800" lon="-2.999695">
        <ele>772.882</ele>
        <time>2017-12-09T17:59:35Z</time>
      </trkpt>
      <trkpt lat="40.807752" lon="-2.999823">
        <ele>772.853</ele>
        <time>2017-12-09T17:59:36Z</time>
      </trkpt>
      <trkpt lat="40.807698" lon="-2.999957">
        <ele>772.589</ele>
        <time>2017-12-09T17:59:37Z</time>
      </trkpt>
      <trkpt lat="40.807650" lon="-3.000098">
        <ele>772.472</ele>
        <time>2017-12-09T17:59:38Z</time>
      </trkpt>
      <trkpt lat="40.807605" lon="-3.000235">
        <ele>772.266</ele>
        <time>2017-12-09T17:59:39Z</time>
      </trkpt>
      <trkpt lat="40.807559" lon="-3.000376">
        <ele>772.429</ele>
        <time>2017-12-09T17:59:40Z</time>
      </trkpt>
      <trkpt lat="40.807525" lon="-3.000515">
        <ele>772.421</ele>
        <time>2017-12-09T17:59:41Z</time>
      </trkpt>
      <trkpt lat="40.807486" lon="-3.000660">
        <ele>772.408</ele>
        <time>2017-12-09T17:59:42Z</time>
      </trkpt>
      <trkpt lat="40.807445" lon="-3.000797">
        <ele>772.268</ele>
        <time>2017-12-09T17:59:43Z</time>
      </trkpt>
      <trkpt lat="40.807401" lon="-3.000937">
        <ele>772.257</ele>
        <time>2017-12-09T17:59:44Z</time>
      </trkpt>
      <trkpt lat="40.807360" lon="-3.001077">
        <ele>772.030</ele>
        <time>2017-12-09T17:59:45Z</time>
      </trkpt>
      <trkpt lat="40.807321" lon="-3.001217">
        <ele>771.811</ele>
        <time>2017-12-09T17:59:46Z</time>
      </trkpt>
      <trkpt lat="40.807287" lon="-3.001364">
        <ele>771.815</ele>
        <time>2017-12-09T17:59:47Z</time>
      </trkpt>
      <trkpt lat="40.807255" lon="-3.001500">
        <ele>771.796</ele>
        <time>2017-12-09T17:59:48Z</time>
      </trkpt>
      <trkpt lat="40.807221" lon="-3.001648">
        <ele>771.822</ele>
        <time>2017-12-09T17:59:49Z</time>
      </trkpt>
      <trkpt lat="40.807187" lon="-3.001797">
        <ele>771.545</ele>
        <time>2017-12-09T17:59:50Z</time>
      </trkpt>
      <trkpt lat="40.807161" lon="-3.001942">
        <ele>771.736</ele>
        <time>2017-12-09T17:59:51Z</time>
      </trkpt>
      <trkpt lat="40.807137" lon="-3.002102">
        <ele>771.617</ele>
        <time>2017-12-09T17:59:52Z</time>
      </trkpt>
      <trkpt lat="40.807115" lon="-3.002240">
        <ele>771.818</ele>
        <time>2017-12-09T17:59:53Z</time>
      </trkpt>
      <trkpt lat="40.807091" lon="-3.002372">
        <ele>772.108</ele>
        <time>2017-12-09T17:59:54Z</time>
      </trkpt>
      <trkpt lat="40.807065" lon="-3.002499">
        <ele>772.135</ele>
        <time>2017-12-09T17:59:55Z</time>
      </trkpt>
      <trkpt lat="40.807028" lon="-3.002611">
        <ele>772.674</ele>
        <time>2017-12-09T17:59:56Z</time>
      </trkpt>
      <trkpt lat="40.806972" lon="-3.002695">
        <ele>772.777</ele>
        <time>2017-12-09T17:59:57Z</time>
      </trkpt>
      <trkpt lat="40.806903" lon="-3.002769">
        <ele>773.358</ele>
        <time>2017-12-09T17:59:58Z</time>
      </trkpt>
      <trkpt lat="40.806834" lon="-3.002834">
        <ele>774.032</ele>
        <time>2017-12-09T17:59:59Z</time>
      </trkpt>
      <trkpt lat="40.806751" lon="-3.002909">
        <ele>774.543</ele>
        <time>2017-12-09T18:00:00Z</time>
      </trkpt>
      <trkpt lat="40.806667" lon="-3.002990">
        <ele>775.619</ele>
        <time>2017-12-09T18:00:01Z</time>
      </trkpt>
      <trkpt lat="40.806574" lon="-3.003081">
        <ele>776.652</ele>
        <time>2017-12-09T18:00:02Z</time>
      </trkpt>
      <trkpt lat="40.806495" lon="-3.003166">
        <ele>778.278</ele>
        <time>2017-12-09T18:00:03Z</time>
      </trkpt>
      <trkpt lat="40.806407" lon="-3.003230">
        <ele>779.933</ele>
        <time>2017-12-09T18:00:04Z</time>
      </trkpt>
      <trkpt lat="40.806305" lon="-3.003298">
        <ele>781.226</ele>
        <time>2017-12-09T18:00:05Z</time>
      </trkpt>
      <trkpt lat="40.806219" lon="-3.003327">
        <ele>782.308</ele>
        <time>2017-12-09T18:00:06Z</time>
      </trkpt>
      <trkpt lat="40.806124" lon="-3.003345">
        <ele>783.139</ele>
        <time>2017-12-09T18:00:07Z</time>
      </trkpt>
      <trkpt lat="40.806028" lon="-3.003361">
        <ele>783.688</ele>
        <time>2017-12-09T18:00:08Z</time>
      </trkpt>
      <trkpt lat="40.805939" lon="-3.003380">
        <ele>783.751</ele>
        <time>2017-12-09T18:00:09Z</time>
      </trkpt>
      <trkpt lat="40.805838" lon="-3.003398">
        <ele>783.452</ele>
        <time>2017-12-09T18:00:10Z</time>
      </trkpt>
      <trkpt lat="40.805744" lon="-3.003413">
        <ele>783.176</ele>
        <time>2017-12-09T18:00:11Z</time>
      </trkpt>
      <trkpt lat="40.805661" lon="-3.003427">
        <ele>782.387</ele>
        <time>2017-12-09T18:00:12Z</time>
      </trkpt>
      <trkpt lat="40.805586" lon="-3.003429">
        <ele>781.513</ele>
        <time>2017-12-09T18:00:13Z</time>
      </trkpt>
      <trkpt lat="40.805521" lon="-3.003435">
        <ele>781.096</ele>
        <time>2017-12-09T18:00:14Z</time>
      </trkpt>
      <trkpt lat="40.805458" lon="-3.003450">
        <ele>780.675</ele>
        <time>2017-12-09T18:00:15Z</time>
      </trkpt>
      <trkpt lat="40.805400" lon="-3.003474">
        <ele>780.228</ele>
        <time>2017-12-09T18:00:16Z</time>
      </trkpt>
      <trkpt lat="40.805342" lon="-3.003508">
        <ele>780.220</ele>
        <time>2017-12-09T18:00:17Z</time>
      </trkpt>
      <trkpt lat="40.805281" lon="-3.003561">
        <ele>779.108</ele>
        <time>2017-12-09T18:00:18Z</time>
      </trkpt>
      <trkpt lat="40.805221" lon="-3.003618">
        <ele>778.429</ele>
        <time>2017-12-09T18:00:19Z</time>
      </trkpt>
      <trkpt lat="40.805150" lon="-3.003672">
        <ele>777.498</ele>
        <time>2017-12-09T18:00:20Z</time>
      </trkpt>
      <trkpt lat="40.805081" lon="-3.003733">
        <ele>777.191</ele>
        <time>2017-12-09T18:00:21Z</time>
      </trkpt>
      <trkpt lat="40.805014" lon="-3.003795">
        <ele>776.512</ele>
        <time>2017-12-09T18:00:22Z</time>
      </trkpt>
      <trkpt lat="40.804955" lon="-3.003857">
        <ele>776.046</ele>
        <time>2017-12-09T18:00:23Z</time>
      </trkpt>
      <trkpt lat="40.804896" lon="-3.003917">
        <ele>775.737</ele>
        <time>2017-12-09T18:00:24Z</time>
      </trkpt>
      <trkpt lat="40.804838" lon="-3.003964">
        <ele>775.543</ele>
        <time>2017-12-09T18:00:25Z</time>
      </trkpt>
      <trkpt lat="40.804770" lon="-3.004014">
        <ele>775.596</ele>
        <time>2017-12-09T18:00:26Z</time>
      </trkpt>
      <trkpt lat="40.804703" lon="-3.004069">
        <ele>775.586</ele>
        <time>2017-12-09T18:00:27Z</time>
      </trkpt>
      <trkpt lat="40.804639" lon="-3.004115">
        <ele>775.760</ele>
        <time>2017-12-09T18:00:28Z</time>
      </trkpt>
      <trkpt lat="40.804563" lon="-3.004185">
        <ele>776.026</ele>
        <time>2017-12-09T18:00:29Z</time>
      </trkpt>
      <trkpt lat="40.804476" lon="-3.004260">
        <ele>776.208</ele>
        <time>2017-12-09T18:00:30Z</time>
      </trkpt>
      <trkpt lat="40.804389" lon="-3.004337">
        <ele>776.670</ele>
        <time>2017-12-09T18:00:31Z</time>
      </trkpt>
      <trkpt lat="40.804301" lon="-3.004410">
        <ele>776.929</ele>
        <time>2017-12-09T18:00:32Z</time>
      </trkpt>
      <trkpt lat="40.804216" lon="-3.004490">
        <ele>777.682</ele>
        <time>2017-12-09T18:00:33Z</time>
      </trkpt>
      <trkpt lat="40.804132" lon="-3.004571">
        <ele>779.133</ele>
        <time>2017-12-09T18:00:34Z</time>
      </trkpt>
      <trkpt lat="40.804050" lon="-3.004637">
        <ele>779.457</ele>
        <time>2017-12-09T18:00:35Z</time>
      </trkpt>
      <trkpt lat="40.803979" lon="-3.004706">
        <ele>780.768</ele>
        <time>2017-12-09T18:00:36Z</time>
      </trkpt>
      <trkpt lat="40.803906" lon="-3.004785">
        <ele>781.614</ele>
        <time>2017-12-09T18:00:37Z</time>
      </trkpt>
      <trkpt lat="40.803836" lon="-3.004842">
        <ele>782.417</ele>
        <time>2017-12-09T18:00:38Z</time>
      </trkpt>
      <trkpt lat="40.803767" lon="-3.004893">
        <ele>783.055</ele>
        <time>2017-12-09T18:00:39Z</time>
      </trkpt>
      <trkpt lat="40.803682" lon="-3.004947">
        <ele>784.207</ele>
        <time>2017-12-09T18:00:40Z</time>
      </trkpt>
      <trkpt lat="40.803602" lon="-3.004995">
        <ele>784.317</ele>
        <time>2017-12-09T18:00:41Z</time>
      </trkpt>
      <trkpt lat="40.803531" lon="-3.005052">
        <ele>784.208</ele>
        <time>2017-12-09T18:00:42Z</time>
      </trkpt>
      <trkpt lat="40.803459" lon="-3.005111">
        <ele>783.827</ele>
        <time>2017-12-09T18:00:43Z</time>
      </trkpt>
      <trkpt lat="40.803383" lon="-3.005165">
        <ele>783.896</ele>
        <time>2017-12-09T18:00:44Z</time>
      </trkpt>
      <trkpt lat="40.803309" lon="-3.005219">
        <ele>783.219</ele>
        <time>2017-12-09T18:00:45Z</time>
      </trkpt>
      <trkpt lat="40.803228" lon="-3.005270">
        <ele>782.440</ele>
        <time>2017-12-09T18:00:46Z</time>
      </trkpt>
      <trkpt lat="40.803152" lon="-3.005313">
        <ele>781.914</ele>
        <time>2017-12-09T18:00:47Z</time>
      </trkpt>
      <trkpt lat="40.803070" lon="-3.005347">
        <ele>781.535</ele>
        <time>2017-12-09T18:00:48Z</time>
      </trkpt>
      <trkpt lat="40.802996" lon="-3.005382">
        <ele>781.181</ele>
        <time>2017-12-09T18:00:49Z</time>
      </trkpt>
      <trkpt lat="40.802925" lon="-3.005427">
        <ele>781.214</ele>
        <time>2017-12-09T18:00:50Z</time>
      </trkpt>
      <trkpt lat="40.802863" lon="-3.005488">
        <ele>781.356</ele>
        <time>2017-12-09T18:00:51Z</time>
      </trkpt>
      <trkpt lat="40.802800" lon="-3.005536">
        <ele>780.859</ele>
        <time>2017-12-09T18:00:52Z</time>
      </trkpt>
      <trkpt lat="40.802723" lon="-3.005571">
        <ele>781.114</ele>
        <time>2017-12-09T18:00:53Z</time>
      </trkpt>
      <trkpt lat="40.802645" lon="-3.005618">
        <ele>781.408</ele>
        <time>2017-12-09T18:00:54Z</time>
      </trkpt>
      <trkpt lat="40.802561" lon="-3.005671">
        <ele>781.767</ele>
        <time>2017-12-09T18:00:55Z</time>
      </trkpt>
      <trkpt lat="40.802483" lon="-3.005714">
        <ele>782.266</ele>
        <time>2017-12-09T18:00:56Z</time>
      </trkpt>
      <trkpt lat="40.802401" lon="-3.005774">
        <ele>782.079</ele>
        <time>2017-12-09T18:00:57Z</time>
      </trkpt>
      <trkpt lat="40.802318" lon="-3.005821">
        <ele>782.830</ele>
        <time>2017-12-09T18:00:58Z</time>
      </trkpt>
      <trkpt lat="40.802242" lon="-3.005877">
        <ele>783.614</ele>
        <time>2017-12-09T18:00:59Z</time>
      </trkpt>
      <trkpt lat="40.802165" lon="-3.005933">
        <ele>784.085</ele>
        <time>2017-12-09T18:01:00Z</time>
      </trkpt>
      <trkpt lat="40.802075" lon="-3.005970">
        <ele>784.381</ele>
        <time>2017-12-09T18:01:01Z</time>
      </trkpt>
      <trkpt lat="40.802000" lon="-3.006008">
        <ele>784.644</ele>
        <time>2017-12-09T18:01:02Z</time>
      </trkpt>
      <trkpt lat="40.801936" lon="-3.006053">
        <ele>784.829</ele>
        <time>2017-12-09T18:01:03Z</time>
      </trkpt>
      <trkpt lat="40.801876" lon="-3.006101">
        <ele>785.000</ele>
        <time>2017-12-09T18:01:04Z</time>
      </trkpt>
      <trkpt lat="40.801833" lon="-3.006160">
        <ele>785.220</ele>
        <time>2017-12-09T18:01:05Z</time>
      </trkpt>
      <trkpt lat="40.801805" lon="-3.006221">
        <ele>785.308</ele>
        <time>2017-12-09T18:01:06Z</time>
      </trkpt>
      <trkpt lat="40.801805" lon="-3.006310">
        <ele>786.054</ele>
        <time>2017-12-09T18:01:08Z</time>
      </trkpt>
      <trkpt lat="40.801824" lon="-3.006381">
        <ele>786.033</ele>
        <time>2017-12-09T18:01:10Z</time>
      </trkpt>
      <trkpt lat="40.801879" lon="-3.006438">
        <ele>785.886</ele>
        <time>2017-12-09T18:01:12Z</time>
      </trkpt>
      <trkpt lat="40.801925" lon="-3.006501">
        <ele>785.347</ele>
        <time>2017-12-09T18:01:14Z</time>
      </trkpt>
      <trkpt lat="40.801969" lon="-3.006577">
        <ele>784.591</ele>
        <time>2017-12-09T18:01:16Z</time>
      </trkpt>
      <trkpt lat="40.802009" lon="-3.006681">
        <ele>783.662</ele>
        <time>2017-12-09T18:01:18Z</time>
      </trkpt>
      <trkpt lat="40.802018" lon="-3.006745">
        <ele>783.168</ele>
        <time>2017-12-09T18:01:19Z</time>
      </trkpt>
      <trkpt lat="40.802017" lon="-3.006813">
        <ele>782.681</ele>
        <time>2017-12-09T18:01:20Z</time>
      </trkpt>
      <trkpt lat="40.802009" lon="-3.006884">
        <ele>782.245</ele>
        <time>2017-12-09T18:01:21Z</time>
      </trkpt>
      <trkpt lat="40.802000" lon="-3.006960">
        <ele>781.947</ele>
        <time>2017-12-09T18:01:22Z</time>
      </trkpt>
      <trkpt lat="40.801989" lon="-3.007039">
        <ele>781.411</ele>
        <time>2017-12-09T18:01:23Z</time>
      </trkpt>
      <trkpt lat="40.801974" lon="-3.007121">
        <ele>781.008</ele>
        <time>2017-12-09T18:01:24Z</time>
      </trkpt>
      <trkpt lat="40.801954" lon="-3.007208">
        <ele>780.576</ele>
        <time>2017-12-09T18:01:25Z</time>
      </trkpt>
      <trkpt lat="40.801930" lon="-3.007295">
        <ele>780.215</ele>
        <time>2017-12-09T18:01:26Z</time>
      </trkpt>
      <trkpt lat="40.801899" lon="-3.007382">
        <ele>779.728</ele>
        <time>2017-12-09T18:01:27Z</time>
      </trkpt>
      <trkpt lat="40.801866" lon="-3.007469">
        <ele>779.039</ele>
        <time>2017-12-09T18:01:28Z</time>
      </trkpt>
      <trkpt lat="40.801829" lon="-3.007554">
        <ele>778.033</ele>
        <time>2017-12-09T18:01:29Z</time>
      </trkpt>
      <trkpt lat="40.801788" lon="-3.007651">
        <ele>777.724</ele>
        <time>2017-12-09T18:01:30Z</time>
      </trkpt>
      <trkpt lat="40.801745" lon="-3.007742">
        <ele>776.920</ele>
        <time>2017-12-09T18:01:31Z</time>
      </trkpt>
      <trkpt lat="40.801698" lon="-3.007850">
        <ele>777.073</ele>
        <time>2017-12-09T18:01:32Z</time>
      </trkpt>
      <trkpt lat="40.801658" lon="-3.007955">
        <ele>776.959</ele>
        <time>2017-12-09T18:01:33Z</time>
      </trkpt>
      <trkpt lat="40.801626" lon="-3.008058">
        <ele>776.603</ele>
        <time>2017-12-09T18:01:34Z</time>
      </trkpt>
      <trkpt lat="40.801610" lon="-3.008168">
        <ele>776.623</ele>
        <time>2017-12-09T18:01:35Z</time>
      </trkpt>
      <trkpt lat="40.801595" lon="-3.008278">
        <ele>776.708</ele>
        <time>2017-12-09T18:01:36Z</time>
      </trkpt>
      <trkpt lat="40.801574" lon="-3.008385">
        <ele>776.987</ele>
        <time>2017-12-09T18:01:37Z</time>
      </trkpt>
      <trkpt lat="40.801555" lon="-3.008498">
        <ele>777.196</ele>
        <time>2017-12-09T18:01:38Z</time>
      </trkpt>
      <trkpt lat="40.801541" lon="-3.008610">
        <ele>777.539</ele>
        <time>2017-12-09T18:01:39Z</time>
      </trkpt>
      <trkpt lat="40.801528" lon="-3.008722">
        <ele>777.790</ele>
        <time>2017-12-09T18:01:40Z</time>
      </trkpt>
      <trkpt lat="40.801500" lon="-3.008831">
        <ele>778.214</ele>
        <time>2017-12-09T18:01:41Z</time>
      </trkpt>
      <trkpt lat="40.801493" lon="-3.008944">
        <ele>778.775</ele>
        <time>2017-12-09T18:01:42Z</time>
      </trkpt>
      <trkpt lat="40.801481" lon="-3.009056">
        <ele>779.521</ele>
        <time>2017-12-09T18:01:43Z</time>
      </trkpt>
      <trkpt lat="40.801467" lon="-3.009160">
        <ele>779.854</ele>
        <time>2017-12-09T18:01:44Z</time>
      </trkpt>
      <trkpt lat="40.801450" lon="-3.009265">
        <ele>780.581</ele>
        <time>2017-12-09T18:01:45Z</time>
      </trkpt>
      <trkpt lat="40.801430" lon="-3.009368">
        <ele>781.161</ele>
        <time>2017-12-09T18:01:46Z</time>
      </trkpt>
      <trkpt lat="40.801403" lon="-3.009475">
        <ele>781.217</ele>
        <time>2017-12-09T18:01:47Z</time>
      </trkpt>
      <trkpt lat="40.801381" lon="-3.009582">
        <ele>782.108</ele>
        <time>2017-12-09T18:01:48Z</time>
      </trkpt>
      <trkpt lat="40.801362" lon="-3.009679">
        <ele>782.640</ele>
        <time>2017-12-09T18:01:49Z</time>
      </trkpt>
      <trkpt lat="40.801335" lon="-3.009776">
        <ele>782.489</ele>
        <time>2017-12-09T18:01:50Z</time>
      </trkpt>
      <trkpt lat="40.801313" lon="-3.009851">
        <ele>782.882</ele>
        <time>2017-12-09T18:01:52Z</time>
      </trkpt>
      <trkpt lat="40.801311" lon="-3.009928">
        <ele>783.523</ele>
        <time>2017-12-09T18:01:56Z</time>
      </trkpt>
      <trkpt lat="40.801306" lon="-3.009995">
        <ele>783.697</ele>
        <time>2017-12-09T18:01:58Z</time>
      </trkpt>
      <trkpt lat="40.801308" lon="-3.010073">
        <ele>783.798</ele>
        <time>2017-12-09T18:02:00Z</time>
      </trkpt>
      <trkpt lat="40.801347" lon="-3.010131">
        <ele>783.874</ele>
        <time>2017-12-09T18:02:02Z</time>
      </trkpt>
      <trkpt lat="40.801416" lon="-3.010155">
        <ele>784.447</ele>
        <time>2017-12-09T18:02:04Z</time>
      </trkpt>
      <trkpt lat="40.801492" lon="-3.010169">
        <ele>783.684</ele>
        <time>2017-12-09T18:02:06Z</time>
      </trkpt>
      <trkpt lat="40.801579" lon="-3.010176">
        <ele>783.507</ele>
        <time>2017-12-09T18:02:08Z</time>
      </trkpt>
      <trkpt lat="40.801661" lon="-3.010192">
        <ele>783.117</ele>
        <time>2017-12-09T18:02:10Z</time>
      </trkpt>
      <trkpt lat="40.801724" lon="-3.010231">
        <ele>783.208</ele>
        <time>2017-12-09T18:02:12Z</time>
      </trkpt>
      <trkpt lat="40.801769" lon="-3.010291">
        <ele>782.990</ele>
        <time>2017-12-09T18:02:14Z</time>
      </trkpt>
      <trkpt lat="40.801804" lon="-3.010367">
        <ele>782.819</ele>
        <time>2017-12-09T18:02:16Z</time>
      </trkpt>
      <trkpt lat="40.801823" lon="-3.010434">
        <ele>782.742</ele>
        <time>2017-12-09T18:02:17Z</time>
      </trkpt>
      <trkpt lat="40.801854" lon="-3.010482">
        <ele>782.793</ele>
        <time>2017-12-09T18:02:18Z</time>
      </trkpt>
      <trkpt lat="40.801906" lon="-3.010543">
        <ele>782.687</ele>
        <time>2017-12-09T18:02:19Z</time>
      </trkpt>
      <trkpt lat="40.801946" lon="-3.010597">
        <ele>783.038</ele>
        <time>2017-12-09T18:02:20Z</time>
      </trkpt>
      <trkpt lat="40.801996" lon="-3.010657">
        <ele>782.884</ele>
        <time>2017-12-09T18:02:21Z</time>
      </trkpt>
      <trkpt lat="40.802048" lon="-3.010716">
        <ele>782.867</ele>
        <time>2017-12-09T18:02:22Z</time>
      </trkpt>
      <trkpt lat="40.802088" lon="-3.010774">
        <ele>782.578</ele>
        <time>2017-12-09T18:02:23Z</time>
      </trkpt>
      <trkpt lat="40.802118" lon="-3.010831">
        <ele>782.933</ele>
        <time>2017-12-09T18:02:24Z</time>
      </trkpt>
      <trkpt lat="40.802152" lon="-3.010884">
        <ele>783.126</ele>
        <time>2017-12-09T18:02:25Z</time>
      </trkpt>
      <trkpt lat="40.802187" lon="-3.010934">
        <ele>783.308</ele>
        <time>2017-12-09T18:02:26Z</time>
      </trkpt>
      <trkpt lat="40.802232" lon="-3.011021">
        <ele>783.689</ele>
        <time>2017-12-09T18:02:28Z</time>
      </trkpt>
      <trkpt lat="40.802264" lon="-3.011072">
        <ele>783.638</ele>
        <time>2017-12-09T18:02:29Z</time>
      </trkpt>
      <trkpt lat="40.802285" lon="-3.011164">
        <ele>784.261</ele>
        <time>2017-12-09T18:02:31Z</time>
      </trkpt>
      <trkpt lat="40.802295" lon="-3.011226">
        <ele>784.832</ele>
        <time>2017-12-09T18:02:32Z</time>
      </trkpt>
      <trkpt lat="40.802296" lon="-3.011292">
        <ele>785.196</ele>
        <time>2017-12-09T18:02:33Z</time>
      </trkpt>
      <trkpt lat="40.802311" lon="-3.011362">
        <ele>785.347</ele>
        <time>2017-12-09T18:02:34Z</time>
      </trkpt>
      <trkpt lat="40.802319" lon="-3.011438">
        <ele>785.783</ele>
        <time>2017-12-09T18:02:35Z</time>
      </trkpt>
      <trkpt lat="40.802332" lon="-3.011527">
        <ele>786.446</ele>
        <time>2017-12-09T18:02:36Z</time>
      </trkpt>
      <trkpt lat="40.802337" lon="-3.011616">
        <ele>786.835</ele>
        <time>2017-12-09T18:02:37Z</time>
      </trkpt>
      <trkpt lat="40.802345" lon="-3.011717">
        <ele>787.486</ele>
        <time>2017-12-09T18:02:38Z</time>
      </trkpt>
      <trkpt lat="40.802354" lon="-3.011803">
        <ele>787.814</ele>
        <time>2017-12-09T18:02:39Z</time>
      </trkpt>
      <trkpt lat="40.802362" lon="-3.011872">
        <ele>788.008</ele>
        <time>2017-12-09T18:02:40Z</time>
      </trkpt>
      <trkpt lat="40.802374" lon="-3.011932">
        <ele>788.485</ele>
        <time>2017-12-09T18:02:41Z</time>
      </trkpt>
      <trkpt lat="40.802362" lon="-3.011994">
        <ele>788.994</ele>
        <time>2017-12-09T18:02:42Z</time>
      </trkpt>
      <trkpt lat="40.802324" lon="-3.012084">
        <ele>789.117</ele>
        <time>2017-12-09T18:02:44Z</time>
      </trkpt>
      <trkpt lat="40.802268" lon="-3.012119">
        <ele>789.028</ele>
        <time>2017-12-09T18:02:46Z</time>
      </trkpt>
      <trkpt lat="40.802221" lon="-3.012151">
        <ele>788.572</ele>
        <time>2017-12-09T18:02:48Z</time>
      </trkpt>
      <trkpt lat="40.802171" lon="-3.012197">
        <ele>788.763</ele>
        <time>2017-12-09T18:02:53Z</time>
      </trkpt>
      <trkpt lat="40.802112" lon="-3.012240">
        <ele>787.849</ele>
        <time>2017-12-09T18:02:56Z</time>
      </trkpt>
      <trkpt lat="40.802071" lon="-3.012276">
        <ele>787.372</ele>
        <time>2017-12-09T18:02:58Z</time>
      </trkpt>
      <trkpt lat="40.802020" lon="-3.012319">
        <ele>786.053</ele>
        <time>2017-12-09T18:03:01Z</time>
      </trkpt>
      <trkpt lat="40.801979" lon="-3.012350">
        <ele>785.104</ele>
        <time>2017-12-09T18:03:03Z</time>
      </trkpt>
      <trkpt lat="40.801932" lon="-3.012373">
        <ele>783.714</ele>
        <time>2017-12-09T18:03:05Z</time>
      </trkpt>
      <trkpt lat="40.801883" lon="-3.012377">
        <ele>783.108</ele>
        <time>2017-12-09T18:03:08Z</time>
      </trkpt>
      <trkpt lat="40.801835" lon="-3.012373">
        <ele>782.467</ele>
        <time>2017-12-09T18:03:10Z</time>
      </trkpt>
      <trkpt lat="40.801787" lon="-3.012359">
        <ele>782.036</ele>
        <time>2017-12-09T18:03:12Z</time>
      </trkpt>
      <trkpt lat="40.801738" lon="-3.012324">
        <ele>781.549</ele>
        <time>2017-12-09T18:03:15Z</time>
      </trkpt>
      <trkpt lat="40.801690" lon="-3.012359">
        <ele>780.790</ele>
        <time>2017-12-09T18:03:19Z</time>
      </trkpt>
      <trkpt lat="40.801709" lon="-3.012435">
        <ele>780.294</ele>
        <time>2017-12-09T18:03:22Z</time>
      </trkpt>
      <trkpt lat="40.801751" lon="-3.012462">
        <ele>783.945</ele>
        <time>2017-12-09T18:03:25Z</time>
      </trkpt>
      <trkpt lat="40.801705" lon="-3.012432">
        <ele>779.571</ele>
        <time>2017-12-09T18:03:35Z</time>
      </trkpt>
      <trkpt lat="40.801668" lon="-3.012385">
        <ele>779.834</ele>
        <time>2017-12-09T18:03:39Z</time>
      </trkpt>
      <trkpt lat="40.801624" lon="-3.012357">
        <ele>780.128</ele>
        <time>2017-12-09T18:03:46Z</time>
      </trkpt>
      <trkpt lat="40.801552" lon="-3.012329">
        <ele>779.889</ele>
        <time>2017-12-09T18:03:48Z</time>
      </trkpt>
      <trkpt lat="40.801473" lon="-3.012280">
        <ele>779.517</ele>
        <time>2017-12-09T18:03:50Z</time>
      </trkpt>
      <trkpt lat="40.801397" lon="-3.012229">
        <ele>779.508</ele>
        <time>2017-12-09T18:03:52Z</time>
      </trkpt>
      <trkpt lat="40.801334" lon="-3.012193">
        <ele>779.444</ele>
        <time>2017-12-09T18:03:54Z</time>
      </trkpt>
      <trkpt lat="40.801274" lon="-3.012154">
        <ele>779.383</ele>
        <time>2017-12-09T18:03:56Z</time>
      </trkpt>
      <trkpt lat="40.801191" lon="-3.012127">
        <ele>779.696</ele>
        <time>2017-12-09T18:03:58Z</time>
      </trkpt>
      <trkpt lat="40.801144" lon="-3.012116">
        <ele>779.697</ele>
        <time>2017-12-09T18:03:59Z</time>
      </trkpt>
      <trkpt lat="40.801084" lon="-3.012088">
        <ele>779.861</ele>
        <time>2017-12-09T18:04:00Z</time>
      </trkpt>
      <trkpt lat="40.801028" lon="-3.012076">
        <ele>779.852</ele>
        <time>2017-12-09T18:04:01Z</time>
      </trkpt>
      <trkpt lat="40.800985" lon="-3.012052">
        <ele>779.988</ele>
        <time>2017-12-09T18:04:02Z</time>
      </trkpt>
      <trkpt lat="40.800926" lon="-3.012011">
        <ele>779.871</ele>
        <time>2017-12-09T18:04:04Z</time>
      </trkpt>
      <trkpt lat="40.800868" lon="-3.011992">
        <ele>780.271</ele>
        <time>2017-12-09T18:04:08Z</time>
      </trkpt>
      <trkpt lat="40.800789" lon="-3.011982">
        <ele>780.241</ele>
        <time>2017-12-09T18:04:10Z</time>
      </trkpt>
      <trkpt lat="40.800701" lon="-3.011970">
        <ele>780.215</ele>
        <time>2017-12-09T18:04:12Z</time>
      </trkpt>
      <trkpt lat="40.800654" lon="-3.011966">
        <ele>780.408</ele>
        <time>2017-12-09T18:04:13Z</time>
      </trkpt>
      <trkpt lat="40.800606" lon="-3.011955">
        <ele>780.469</ele>
        <time>2017-12-09T18:04:14Z</time>
      </trkpt>
      <trkpt lat="40.800559" lon="-3.011943">
        <ele>780.768</ele>
        <time>2017-12-09T18:04:15Z</time>
      </trkpt>
      <trkpt lat="40.800508" lon="-3.011941">
        <ele>780.941</ele>
        <time>2017-12-09T18:04:16Z</time>
      </trkpt>
      <trkpt lat="40.800463" lon="-3.011936">
        <ele>780.932</ele>
        <time>2017-12-09T18:04:17Z</time>
      </trkpt>
      <trkpt lat="40.800411" lon="-3.011933">
        <ele>780.936</ele>
        <time>2017-12-09T18:04:18Z</time>
      </trkpt>
      <trkpt lat="40.800358" lon="-3.011920">
        <ele>780.957</ele>
        <time>2017-12-09T18:04:19Z</time>
      </trkpt>
      <trkpt lat="40.800303" lon="-3.011903">
        <ele>780.973</ele>
        <time>2017-12-09T18:04:20Z</time>
      </trkpt>
      <trkpt lat="40.800242" lon="-3.011899">
        <ele>780.956</ele>
        <time>2017-12-09T18:04:21Z</time>
      </trkpt>
      <trkpt lat="40.800179" lon="-3.011889">
        <ele>781.443</ele>
        <time>2017-12-09T18:04:22Z</time>
      </trkpt>
      <trkpt lat="40.800119" lon="-3.011879">
        <ele>781.764</ele>
        <time>2017-12-09T18:04:23Z</time>
      </trkpt>
      <trkpt lat="40.800064" lon="-3.011869">
        <ele>781.210</ele>
        <time>2017-12-09T18:04:24Z</time>
      </trkpt>
      <trkpt lat="40.799999" lon="-3.011854">
        <ele>781.408</ele>
        <time>2017-12-09T18:04:26Z</time>
      </trkpt>
      <trkpt lat="40.799943" lon="-3.011871">
        <ele>781.476</ele>
        <time>2017-12-09T18:04:29Z</time>
      </trkpt>
      <trkpt lat="40.799958" lon="-3.011958">
        <ele>781.775</ele>
        <time>2017-12-09T18:04:33Z</time>
      </trkpt>
      <trkpt lat="40.799972" lon="-3.012048">
        <ele>781.748</ele>
        <time>2017-12-09T18:04:35Z</time>
      </trkpt>
      <trkpt lat="40.799993" lon="-3.012149">
        <ele>781.739</ele>
        <time>2017-12-09T18:04:37Z</time>
      </trkpt>
      <trkpt lat="40.800005" lon="-3.012207">
        <ele>781.723</ele>
        <time>2017-12-09T18:04:38Z</time>
      </trkpt>
      <trkpt lat="40.800014" lon="-3.012322">
        <ele>781.224</ele>
        <time>2017-12-09T18:04:40Z</time>
      </trkpt>
      <trkpt lat="40.800022" lon="-3.012388">
        <ele>781.410</ele>
        <time>2017-12-09T18:04:41Z</time>
      </trkpt>
      <trkpt lat="40.800030" lon="-3.012460">
        <ele>781.543</ele>
        <time>2017-12-09T18:04:42Z</time>
      </trkpt>
      <trkpt lat="40.800040" lon="-3.012530">
        <ele>781.711</ele>
        <time>2017-12-09T18:04:43Z</time>
      </trkpt>
      <trkpt lat="40.800051" lon="-3.012612">
        <ele>782.121</ele>
        <time>2017-12-09T18:04:44Z</time>
      </trkpt>
      <trkpt lat="40.800055" lon="-3.012690">
        <ele>781.803</ele>
        <time>2017-12-09T18:04:45Z</time>
      </trkpt>
      <trkpt lat="40.800060" lon="-3.012760">
        <ele>782.308</ele>
        <time>2017-12-09T18:04:46Z</time>
      </trkpt>
      <trkpt lat="40.800053" lon="-3.012835">
        <ele>782.353</ele>
        <time>2017-12-09T18:04:47Z</time>
      </trkpt>
      <trkpt lat="40.800039" lon="-3.012912">
        <ele>782.332</ele>
        <time>2017-12-09T18:04:48Z</time>
      </trkpt>
      <trkpt lat="40.800025" lon="-3.012989">
        <ele>782.355</ele>
        <time>2017-12-09T18:04:49Z</time>
      </trkpt>
      <trkpt lat="40.800011" lon="-3.013064">
        <ele>782.136</ele>
        <time>2017-12-09T18:04:50Z</time>
      </trkpt>
      <trkpt lat="40.800002" lon="-3.013137">
        <ele>782.580</ele>
        <time>2017-12-09T18:04:51Z</time>
      </trkpt>
      <trkpt lat="40.799988" lon="-3.013207">
        <ele>782.821</ele>
        <time>2017-12-09T18:04:52Z</time>
      </trkpt>
      <trkpt lat="40.799960" lon="-3.013283">
        <ele>782.747</ele>
        <time>2017-12-09T18:04:53Z</time>
      </trkpt>
      <trkpt lat="40.799941" lon="-3.013353">
        <ele>782.960</ele>
        <time>2017-12-09T18:04:54Z</time>
      </trkpt>
      <trkpt lat="40.799913" lon="-3.013429">
        <ele>783.322</ele>
        <time>2017-12-09T18:04:55Z</time>
      </trkpt>
      <trkpt lat="40.799889" lon="-3.013508">
        <ele>784.062</ele>
        <time>2017-12-09T18:04:56Z</time>
      </trkpt>
      <trkpt lat="40.799862" lon="-3.013584">
        <ele>783.908</ele>
        <time>2017-12-09T18:04:57Z</time>
      </trkpt>
      <trkpt lat="40.799833" lon="-3.013651">
        <ele>784.808</ele>
        <time>2017-12-09T18:04:58Z</time>
      </trkpt>
      <trkpt lat="40.799778" lon="-3.013769">
        <ele>786.274</ele>
        <time>2017-12-09T18:05:00Z</time>
      </trkpt>
      <trkpt lat="40.799742" lon="-3.013825">
        <ele>787.433</ele>
        <time>2017-12-09T18:05:01Z</time>
      </trkpt>
      <trkpt lat="40.799696" lon="-3.013876">
        <ele>788.156</ele>
        <time>2017-12-09T18:05:02Z</time>
      </trkpt>
      <trkpt lat="40.799656" lon="-3.013919">
        <ele>788.737</ele>
        <time>2017-12-09T18:05:03Z</time>
      </trkpt>
      <trkpt lat="40.799615" lon="-3.013965">
        <ele>788.791</ele>
        <time>2017-12-09T18:05:04Z</time>
      </trkpt>
      <trkpt lat="40.799570" lon="-3.014029">
        <ele>789.382</ele>
        <time>2017-12-09T18:05:06Z</time>
      </trkpt>
      <trkpt lat="40.799525" lon="-3.014113">
        <ele>790.078</ele>
        <time>2017-12-09T18:05:08Z</time>
      </trkpt>
      <trkpt lat="40.799510" lon="-3.014171">
        <ele>790.231</ele>
        <time>2017-12-09T18:05:09Z</time>
      </trkpt>
      <trkpt lat="40.799505" lon="-3.014239">
        <ele>790.377</ele>
        <time>2017-12-09T18:05:10Z</time>
      </trkpt>
      <trkpt lat="40.799505" lon="-3.014301">
        <ele>790.261</ele>
        <time>2017-12-09T18:05:11Z</time>
      </trkpt>
      <trkpt lat="40.799507" lon="-3.014393">
        <ele>789.927</ele>
        <time>2017-12-09T18:05:13Z</time>
      </trkpt>
      <trkpt lat="40.799489" lon="-3.014457">
        <ele>789.308</ele>
        <time>2017-12-09T18:05:16Z</time>
      </trkpt>
      <trkpt lat="40.799456" lon="-3.014507">
        <ele>789.379</ele>
        <time>2017-12-09T18:05:19Z</time>
      </trkpt>
      <trkpt lat="40.799392" lon="-3.014528">
        <ele>788.878</ele>
        <time>2017-12-09T18:05:22Z</time>
      </trkpt>
      <trkpt lat="40.799337" lon="-3.014508">
        <ele>789.041</ele>
        <time>2017-12-09T18:05:24Z</time>
      </trkpt>
      <trkpt lat="40.799278" lon="-3.014490">
        <ele>789.162</ele>
        <time>2017-12-09T18:05:26Z</time>
      </trkpt>
      <trkpt lat="40.799217" lon="-3.014471">
        <ele>789.136</ele>
        <time>2017-12-09T18:05:28Z</time>
      </trkpt>
      <trkpt lat="40.799139" lon="-3.014422">
        <ele>789.527</ele>
        <time>2017-12-09T18:05:30Z</time>
      </trkpt>
      <trkpt lat="40.799090" lon="-3.014393">
        <ele>789.523</ele>
        <time>2017-12-09T18:05:31Z</time>
      </trkpt>
      <trkpt lat="40.799039" lon="-3.014356">
        <ele>789.086</ele>
        <time>2017-12-09T18:05:32Z</time>
      </trkpt>
      <trkpt lat="40.798984" lon="-3.014322">
        <ele>789.042</ele>
        <time>2017-12-09T18:05:33Z</time>
      </trkpt>
      <trkpt lat="40.798930" lon="-3.014296">
        <ele>788.722</ele>
        <time>2017-12-09T18:05:34Z</time>
      </trkpt>
      <trkpt lat="40.798880" lon="-3.014268">
        <ele>788.814</ele>
        <time>2017-12-09T18:05:35Z</time>
      </trkpt>
      <trkpt lat="40.798826" lon="-3.014230">
        <ele>788.708</ele>
        <time>2017-12-09T18:05:36Z</time>
      </trkpt>
      <trkpt lat="40.798772" lon="-3.014196">
        <ele>788.386</ele>
        <time>2017-12-09T18:05:37Z</time>
      </trkpt>
      <trkpt lat="40.798725" lon="-3.014160">
        <ele>788.475</ele>
        <time>2017-12-09T18:05:38Z</time>
      </trkpt>
      <trkpt lat="40.798679" lon="-3.014128">
        <ele>788.148</ele>
        <time>2017-12-09T18:05:39Z</time>
      </trkpt>
      <trkpt lat="40.798636" lon="-3.014095">
        <ele>787.849</ele>
        <time>2017-12-09T18:05:40Z</time>
      </trkpt>
      <trkpt lat="40.798592" lon="-3.014057">
        <ele>788.273</ele>
        <time>2017-12-09T18:05:41Z</time>
      </trkpt>
      <trkpt lat="40.798549" lon="-3.014026">
        <ele>788.224</ele>
        <time>2017-12-09T18:05:42Z</time>
      </trkpt>
      <trkpt lat="40.798507" lon="-3.014001">
        <ele>788.010</ele>
        <time>2017-12-09T18:05:43Z</time>
      </trkpt>
      <trkpt lat="40.798461" lon="-3.013982">
        <ele>788.253</ele>
        <time>2017-12-09T18:05:44Z</time>
      </trkpt>
      <trkpt lat="40.798413" lon="-3.013952">
        <ele>788.517</ele>
        <time>2017-12-09T18:05:45Z</time>
      </trkpt>
      <trkpt lat="40.798372" lon="-3.013920">
        <ele>788.887</ele>
        <time>2017-12-09T18:05:46Z</time>
      </trkpt>
      <trkpt lat="40.798323" lon="-3.013886">
        <ele>788.615</ele>
        <time>2017-12-09T18:05:47Z</time>
      </trkpt>
      <trkpt lat="40.798267" lon="-3.013854">
        <ele>789.408</ele>
        <time>2017-12-09T18:05:48Z</time>
      </trkpt>
      <trkpt lat="40.798221" lon="-3.013817">
        <ele>789.463</ele>
        <time>2017-12-09T18:05:49Z</time>
      </trkpt>
      <trkpt lat="40.798168" lon="-3.013781">
        <ele>789.432</ele>
        <time>2017-12-09T18:05:50Z</time>
      </trkpt>
      <trkpt lat="40.798111" lon="-3.013742">
        <ele>789.665</ele>
        <time>2017-12-09T18:05:51Z</time>
      </trkpt>
      <trkpt lat="40.798060" lon="-3.013685">
        <ele>789.676</ele>
        <time>2017-12-09T18:05:52Z</time>
      </trkpt>
      <trkpt lat="40.798004" lon="-3.013638">
        <ele>789.720</ele>
        <time>2017-12-09T18:05:53Z</time>
      </trkpt>
      <trkpt lat="40.797949" lon="-3.013594">
        <ele>789.821</ele>
        <time>2017-12-09T18:05:54Z</time>
      </trkpt>
      <trkpt lat="40.797898" lon="-3.013552">
        <ele>789.927</ele>
        <time>2017-12-09T18:05:55Z</time>
      </trkpt>
      <trkpt lat="40.797846" lon="-3.013507">
        <ele>789.990</ele>
        <time>2017-12-09T18:05:56Z</time>
      </trkpt>
      <trkpt lat="40.797793" lon="-3.013469">
        <ele>789.831</ele>
        <time>2017-12-09T18:05:57Z</time>
      </trkpt>
      <trkpt lat="40.797738" lon="-3.013426">
        <ele>790.361</ele>
        <time>2017-12-09T18:05:58Z</time>
      </trkpt>
      <trkpt lat="40.797689" lon="-3.013378">
        <ele>790.407</ele>
        <time>2017-12-09T18:05:59Z</time>
      </trkpt>
      <trkpt lat="40.797640" lon="-3.013338">
        <ele>791.008</ele>
        <time>2017-12-09T18:06:00Z</time>
      </trkpt>
      <trkpt lat="40.797588" lon="-3.013296">
        <ele>791.135</ele>
        <time>2017-12-09T18:06:01Z</time>
      </trkpt>
      <trkpt lat="40.797535" lon="-3.013253">
        <ele>791.664</ele>
        <time>2017-12-09T18:06:02Z</time>
      </trkpt>
      <trkpt lat="40.797477" lon="-3.013211">
        <ele>791.657</ele>
        <time>2017-12-09T18:06:03Z</time>
      </trkpt>
      <trkpt lat="40.797417" lon="-3.013178">
        <ele>791.758</ele>
        <time>2017-12-09T18:06:04Z</time>
      </trkpt>
      <trkpt lat="40.797352" lon="-3.013147">
        <ele>792.292</ele>
        <time>2017-12-09T18:06:05Z</time>
      </trkpt>
      <trkpt lat="40.797288" lon="-3.013111">
        <ele>792.343</ele>
        <time>2017-12-09T18:06:06Z</time>
      </trkpt>
      <trkpt lat="40.797214" lon="-3.013083">
        <ele>792.639</ele>
        <time>2017-12-09T18:06:07Z</time>
      </trkpt>
      <trkpt lat="40.797136" lon="-3.013056">
        <ele>792.552</ele>
        <time>2017-12-09T18:06:08Z</time>
      </trkpt>
      <trkpt lat="40.797065" lon="-3.013040">
        <ele>792.591</ele>
        <time>2017-12-09T18:06:09Z</time>
      </trkpt>
      <trkpt lat="40.796988" lon="-3.013021">
        <ele>793.181</ele>
        <time>2017-12-09T18:06:10Z</time>
      </trkpt>
      <trkpt lat="40.796911" lon="-3.013002">
        <ele>793.119</ele>
        <time>2017-12-09T18:06:11Z</time>
      </trkpt>
      <trkpt lat="40.796833" lon="-3.012993">
        <ele>793.408</ele>
        <time>2017-12-09T18:06:12Z</time>
      </trkpt>
      <trkpt lat="40.796759" lon="-3.012992">
        <ele>793.781</ele>
        <time>2017-12-09T18:06:13Z</time>
      </trkpt>
      <trkpt lat="40.796676" lon="-3.013004">
        <ele>794.840</ele>
        <time>2017-12-09T18:06:14Z</time>
      </trkpt>
      <trkpt lat="40.796607" lon="-3.013007">
        <ele>795.473</ele>
        <time>2017-12-09T18:06:15Z</time>
      </trkpt>
      <trkpt lat="40.796538" lon="-3.013025">
        <ele>795.914</ele>
        <time>2017-12-09T18:06:16Z</time>
      </trkpt>
      <trkpt lat="40.796462" lon="-3.013046">
        <ele>796.968</ele>
        <time>2017-12-09T18:06:17Z</time>
      </trkpt>
      <trkpt lat="40.796390" lon="-3.013070">
        <ele>797.389</ele>
        <time>2017-12-09T18:06:18Z</time>
      </trkpt>
      <trkpt lat="40.796319" lon="-3.013101">
        <ele>798.195</ele>
        <time>2017-12-09T18:06:19Z</time>
      </trkpt>
      <trkpt lat="40.796245" lon="-3.013125">
        <ele>798.638</ele>
        <time>2017-12-09T18:06:20Z</time>
      </trkpt>
      <trkpt lat="40.796163" lon="-3.013160">
        <ele>799.413</ele>
        <time>2017-12-09T18:06:21Z</time>
      </trkpt>
      <trkpt lat="40.796090" lon="-3.013185">
        <ele>799.743</ele>
        <time>2017-12-09T18:06:22Z</time>
      </trkpt>
      <trkpt lat="40.796014" lon="-3.013204">
        <ele>799.707</ele>
        <time>2017-12-09T18:06:23Z</time>
      </trkpt>
      <trkpt lat="40.795946" lon="-3.013239">
        <ele>800.308</ele>
        <time>2017-12-09T18:06:24Z</time>
      </trkpt>
      <trkpt lat="40.795876" lon="-3.013279">
        <ele>800.693</ele>
        <time>2017-12-09T18:06:25Z</time>
      </trkpt>
      <trkpt lat="40.795802" lon="-3.013326">
        <ele>800.842</ele>
        <time>2017-12-09T18:06:26Z</time>
      </trkpt>
      <trkpt lat="40.795739" lon="-3.013376">
        <ele>800.935</ele>
        <time>2017-12-09T18:06:27Z</time>
      </trkpt>
      <trkpt lat="40.795677" lon="-3.013410">
        <ele>800.856</ele>
        <time>2017-12-09T18:06:28Z</time>
      </trkpt>
      <trkpt lat="40.795618" lon="-3.013421">
        <ele>800.960</ele>
        <time>2017-12-09T18:06:29Z</time>
      </trkpt>
      <trkpt lat="40.795562" lon="-3.013423">
        <ele>800.891</ele>
        <time>2017-12-09T18:06:30Z</time>
      </trkpt>
      <trkpt lat="40.795509" lon="-3.013415">
        <ele>800.627</ele>
        <time>2017-12-09T18:06:31Z</time>
      </trkpt>
      <trkpt lat="40.795434" lon="-3.013386">
        <ele>800.970</ele>
        <time>2017-12-09T18:06:33Z</time>
      </trkpt>
      <trkpt lat="40.795362" lon="-3.013333">
        <ele>801.075</ele>
        <time>2017-12-09T18:06:35Z</time>
      </trkpt>
      <trkpt lat="40.795319" lon="-3.013306">
        <ele>801.428</ele>
        <time>2017-12-09T18:06:36Z</time>
      </trkpt>
      <trkpt lat="40.795268" lon="-3.013290">
        <ele>801.220</ele>
        <time>2017-12-09T18:06:37Z</time>
      </trkpt>
      <trkpt lat="40.795224" lon="-3.013259">
        <ele>800.908</ele>
        <time>2017-12-09T18:06:38Z</time>
      </trkpt>
      <trkpt lat="40.795177" lon="-3.013225">
        <ele>801.089</ele>
        <time>2017-12-09T18:06:39Z</time>
      </trkpt>
      <trkpt lat="40.795122" lon="-3.013202">
        <ele>800.988</ele>
        <time>2017-12-09T18:06:40Z</time>
      </trkpt>
      <trkpt lat="40.795072" lon="-3.013176">
        <ele>800.581</ele>
        <time>2017-12-09T18:06:41Z</time>
      </trkpt>
      <trkpt lat="40.795023" lon="-3.013142">
        <ele>800.542</ele>
        <time>2017-12-09T18:06:42Z</time>
      </trkpt>
      <trkpt lat="40.794977" lon="-3.013113">
        <ele>800.396</ele>
        <time>2017-12-09T18:06:43Z</time>
      </trkpt>
      <trkpt lat="40.794936" lon="-3.013087">
        <ele>799.867</ele>
        <time>2017-12-09T18:06:44Z</time>
      </trkpt>
      <trkpt lat="40.794889" lon="-3.013059">
        <ele>799.893</ele>
        <time>2017-12-09T18:06:47Z</time>
      </trkpt>
      <trkpt lat="40.794836" lon="-3.013030">
        <ele>799.876</ele>
        <time>2017-12-09T18:06:53Z</time>
      </trkpt>
      <trkpt lat="40.794775" lon="-3.012994">
        <ele>799.735</ele>
        <time>2017-12-09T18:06:56Z</time>
      </trkpt>
      <trkpt lat="40.794725" lon="-3.012971">
        <ele>799.586</ele>
        <time>2017-12-09T18:06:58Z</time>
      </trkpt>
      <trkpt lat="40.794667" lon="-3.012954">
        <ele>799.414</ele>
        <time>2017-12-09T18:07:00Z</time>
      </trkpt>
      <trkpt lat="40.794608" lon="-3.012943">
        <ele>799.408</ele>
        <time>2017-12-09T18:07:02Z</time>
      </trkpt>
      <trkpt lat="40.794548" lon="-3.012932">
        <ele>799.555</ele>
        <time>2017-12-09T18:07:04Z</time>
      </trkpt>
      <trkpt lat="40.794471" lon="-3.012902">
        <ele>799.494</ele>
        <time>2017-12-09T18:07:06Z</time>
      </trkpt>
      <trkpt lat="40.794388" lon="-3.012877">
        <ele>799.457</ele>
        <time>2017-12-09T18:07:08Z</time>
      </trkpt>
      <trkpt lat="40.794332" lon="-3.012885">
        <ele>799.848</ele>
        <time>2017-12-09T18:07:09Z</time>
      </trkpt>
      <trkpt lat="40.794274" lon="-3.012881">
        <ele>799.962</ele>
        <time>2017-12-09T18:07:10Z</time>
      </trkpt>
      <trkpt lat="40.794214" lon="-3.012873">
        <ele>799.823</ele>
        <time>2017-12-09T18:07:11Z</time>
      </trkpt>
      <trkpt lat="40.794152" lon="-3.012861">
        <ele>800.029</ele>
        <time>2017-12-09T18:07:12Z</time>
      </trkpt>
      <trkpt lat="40.794077" lon="-3.012839">
        <ele>799.942</ele>
        <time>2017-12-09T18:07:13Z</time>
      </trkpt>
      <trkpt lat="40.794004" lon="-3.012827">
        <ele>799.622</ele>
        <time>2017-12-09T18:07:14Z</time>
      </trkpt>
      <trkpt lat="40.793939" lon="-3.012794">
        <ele>799.662</ele>
        <time>2017-12-09T18:07:15Z</time>
      </trkpt>
      <trkpt lat="40.793872" lon="-3.012782">
        <ele>800.008</ele>
        <time>2017-12-09T18:07:16Z</time>
      </trkpt>
      <trkpt lat="40.793806" lon="-3.012750">
        <ele>800.408</ele>
        <time>2017-12-09T18:07:17Z</time>
      </trkpt>
      <trkpt lat="40.793751" lon="-3.012727">
        <ele>799.994</ele>
        <time>2017-12-09T18:07:18Z</time>
      </trkpt>
      <trkpt lat="40.793700" lon="-3.012715">
        <ele>799.993</ele>
        <time>2017-12-09T18:07:19Z</time>
      </trkpt>
      <trkpt lat="40.793650" lon="-3.012711">
        <ele>800.046</ele>
        <time>2017-12-09T18:07:20Z</time>
      </trkpt>
      <trkpt lat="40.793604" lon="-3.012726">
        <ele>800.317</ele>
        <time>2017-12-09T18:07:21Z</time>
      </trkpt>
      <trkpt lat="40.793558" lon="-3.012760">
        <ele>800.621</ele>
        <time>2017-12-09T18:07:22Z</time>
      </trkpt>
      <trkpt lat="40.793495" lon="-3.012847">
        <ele>801.162</ele>
        <time>2017-12-09T18:07:24Z</time>
      </trkpt>
      <trkpt lat="40.793454" lon="-3.012974">
        <ele>801.598</ele>
        <time>2017-12-09T18:07:25Z</time>
      </trkpt>
      <trkpt lat="40.793416" lon="-3.013059">
        <ele>801.681</ele>
        <time>2017-12-09T18:07:26Z</time>
      </trkpt>
      <trkpt lat="40.793387" lon="-3.013148">
        <ele>801.782</ele>
        <time>2017-12-09T18:07:27Z</time>
      </trkpt>
      <trkpt lat="40.793353" lon="-3.013232">
        <ele>801.943</ele>
        <time>2017-12-09T18:07:28Z</time>
      </trkpt>
      <trkpt lat="40.793308" lon="-3.013311">
        <ele>802.217</ele>
        <time>2017-12-09T18:07:29Z</time>
      </trkpt>
      <trkpt lat="40.793268" lon="-3.013388">
        <ele>802.408</ele>
        <time>2017-12-09T18:07:30Z</time>
      </trkpt>
      <trkpt lat="40.793229" lon="-3.013466">
        <ele>802.740</ele>
        <time>2017-12-09T18:07:31Z</time>
      </trkpt>
      <trkpt lat="40.793172" lon="-3.013534">
        <ele>803.029</ele>
        <time>2017-12-09T18:07:32Z</time>
      </trkpt>
      <trkpt lat="40.793113" lon="-3.013608">
        <ele>803.532</ele>
        <time>2017-12-09T18:07:33Z</time>
      </trkpt>
      <trkpt lat="40.793060" lon="-3.013680">
        <ele>803.483</ele>
        <time>2017-12-09T18:07:34Z</time>
      </trkpt>
      <trkpt lat="40.793003" lon="-3.013760">
        <ele>804.077</ele>
        <time>2017-12-09T18:07:35Z</time>
      </trkpt>
      <trkpt lat="40.792955" lon="-3.013840">
        <ele>803.868</ele>
        <time>2017-12-09T18:07:36Z</time>
      </trkpt>
      <trkpt lat="40.792918" lon="-3.013916">
        <ele>804.234</ele>
        <time>2017-12-09T18:07:37Z</time>
      </trkpt>
      <trkpt lat="40.792878" lon="-3.014000">
        <ele>804.557</ele>
        <time>2017-12-09T18:07:38Z</time>
      </trkpt>
      <trkpt lat="40.792833" lon="-3.014082">
        <ele>805.161</ele>
        <time>2017-12-09T18:07:39Z</time>
      </trkpt>
      <trkpt lat="40.792783" lon="-3.014167">
        <ele>805.121</ele>
        <time>2017-12-09T18:07:40Z</time>
      </trkpt>
      <trkpt lat="40.792734" lon="-3.014247">
        <ele>805.513</ele>
        <time>2017-12-09T18:07:41Z</time>
      </trkpt>
      <trkpt lat="40.792680" lon="-3.014334">
        <ele>806.308</ele>
        <time>2017-12-09T18:07:42Z</time>
      </trkpt>
      <trkpt lat="40.792625" lon="-3.014423">
        <ele>806.558</ele>
        <time>2017-12-09T18:07:43Z</time>
      </trkpt>
      <trkpt lat="40.792568" lon="-3.014503">
        <ele>806.917</ele>
        <time>2017-12-09T18:07:44Z</time>
      </trkpt>
      <trkpt lat="40.792507" lon="-3.014599">
        <ele>807.560</ele>
        <time>2017-12-09T18:07:45Z</time>
      </trkpt>
      <trkpt lat="40.792448" lon="-3.014681">
        <ele>807.841</ele>
        <time>2017-12-09T18:07:46Z</time>
      </trkpt>
      <trkpt lat="40.792393" lon="-3.014764">
        <ele>808.145</ele>
        <time>2017-12-09T18:07:47Z</time>
      </trkpt>
      <trkpt lat="40.792332" lon="-3.014853">
        <ele>808.496</ele>
        <time>2017-12-09T18:07:48Z</time>
      </trkpt>
      <trkpt lat="40.792274" lon="-3.014937">
        <ele>808.692</ele>
        <time>2017-12-09T18:07:49Z</time>
      </trkpt>
      <trkpt lat="40.792213" lon="-3.015020">
        <ele>809.095</ele>
        <time>2017-12-09T18:07:50Z</time>
      </trkpt>
      <trkpt lat="40.792156" lon="-3.015105">
        <ele>809.346</ele>
        <time>2017-12-09T18:07:51Z</time>
      </trkpt>
      <trkpt lat="40.792099" lon="-3.015196">
        <ele>809.688</ele>
        <time>2017-12-09T18:07:52Z</time>
      </trkpt>
      <trkpt lat="40.792054" lon="-3.015282">
        <ele>810.416</ele>
        <time>2017-12-09T18:07:53Z</time>
      </trkpt>
      <trkpt lat="40.792008" lon="-3.015356">
        <ele>810.808</ele>
        <time>2017-12-09T18:07:54Z</time>
      </trkpt>
      <trkpt lat="40.791969" lon="-3.015405">
        <ele>810.556</ele>
        <time>2017-12-09T18:07:55Z</time>
      </trkpt>
      <trkpt lat="40.791933" lon="-3.015451">
        <ele>810.665</ele>
        <time>2017-12-09T18:07:56Z</time>
      </trkpt>
      <trkpt lat="40.791900" lon="-3.015509">
        <ele>810.538</ele>
        <time>2017-12-09T18:07:57Z</time>
      </trkpt>
      <trkpt lat="40.791882" lon="-3.015571">
        <ele>810.059</ele>
        <time>2017-12-09T18:07:58Z</time>
      </trkpt>
      <trkpt lat="40.791866" lon="-3.015639">
        <ele>809.413</ele>
        <time>2017-12-09T18:07:59Z</time>
      </trkpt>
      <trkpt lat="40.791856" lon="-3.015717">
        <ele>808.744</ele>
        <time>2017-12-09T18:08:00Z</time>
      </trkpt>
      <trkpt lat="40.791840" lon="-3.015792">
        <ele>807.970</ele>
        <time>2017-12-09T18:08:01Z</time>
      </trkpt>
      <trkpt lat="40.791805" lon="-3.015899">
        <ele>806.773</ele>
        <time>2017-12-09T18:08:03Z</time>
      </trkpt>
      <trkpt lat="40.791771" lon="-3.015994">
        <ele>806.073</ele>
        <time>2017-12-09T18:08:05Z</time>
      </trkpt>
      <trkpt lat="40.791745" lon="-3.016085">
        <ele>805.685</ele>
        <time>2017-12-09T18:08:07Z</time>
      </trkpt>
      <trkpt lat="40.791696" lon="-3.016176">
        <ele>804.913</ele>
        <time>2017-12-09T18:08:09Z</time>
      </trkpt>
      <trkpt lat="40.791669" lon="-3.016227">
        <ele>804.108</ele>
        <time>2017-12-09T18:08:10Z</time>
      </trkpt>
      <trkpt lat="40.791638" lon="-3.016275">
        <ele>804.179</ele>
        <time>2017-12-09T18:08:11Z</time>
      </trkpt>
      <trkpt lat="40.791579" lon="-3.016361">
        <ele>803.178</ele>
        <time>2017-12-09T18:08:13Z</time>
      </trkpt>
      <trkpt lat="40.791512" lon="-3.016430">
        <ele>802.761</ele>
        <time>2017-12-09T18:08:15Z</time>
      </trkpt>
      <trkpt lat="40.791451" lon="-3.016510">
        <ele>802.442</ele>
        <time>2017-12-09T18:08:17Z</time>
      </trkpt>
      <trkpt lat="40.791392" lon="-3.016590">
        <ele>801.966</ele>
        <time>2017-12-09T18:08:19Z</time>
      </trkpt>
      <trkpt lat="40.791350" lon="-3.016640">
        <ele>801.557</ele>
        <time>2017-12-09T18:08:20Z</time>
      </trkpt>
      <trkpt lat="40.791312" lon="-3.016686">
        <ele>801.123</ele>
        <time>2017-12-09T18:08:21Z</time>
      </trkpt>
      <trkpt lat="40.791274" lon="-3.016731">
        <ele>800.156</ele>
        <time>2017-12-09T18:08:22Z</time>
      </trkpt>
      <trkpt lat="40.791233" lon="-3.016782">
        <ele>799.689</ele>
        <time>2017-12-09T18:08:23Z</time>
      </trkpt>
      <trkpt lat="40.791189" lon="-3.016839">
        <ele>799.606</ele>
        <time>2017-12-09T18:08:24Z</time>
      </trkpt>
      <trkpt lat="40.791140" lon="-3.016897">
        <ele>799.726</ele>
        <time>2017-12-09T18:08:25Z</time>
      </trkpt>
      <trkpt lat="40.791090" lon="-3.016956">
        <ele>799.308</ele>
        <time>2017-12-09T18:08:26Z</time>
      </trkpt>
      <trkpt lat="40.791042" lon="-3.017013">
        <ele>799.060</ele>
        <time>2017-12-09T18:08:27Z</time>
      </trkpt>
      <trkpt lat="40.790995" lon="-3.017066">
        <ele>798.799</ele>
        <time>2017-12-09T18:08:28Z</time>
      </trkpt>
      <trkpt lat="40.790949" lon="-3.017116">
        <ele>798.442</ele>
        <time>2017-12-09T18:08:29Z</time>
      </trkpt>
      <trkpt lat="40.790903" lon="-3.017164">
        <ele>798.183</ele>
        <time>2017-12-09T18:08:30Z</time>
      </trkpt>
      <trkpt lat="40.790863" lon="-3.017220">
        <ele>798.187</ele>
        <time>2017-12-09T18:08:31Z</time>
      </trkpt>
      <trkpt lat="40.790823" lon="-3.017288">
        <ele>798.138</ele>
        <time>2017-12-09T18:08:32Z</time>
      </trkpt>
      <trkpt lat="40.790780" lon="-3.017369">
        <ele>798.364</ele>
        <time>2017-12-09T18:08:33Z</time>
      </trkpt>
      <trkpt lat="40.790749" lon="-3.017436">
        <ele>797.847</ele>
        <time>2017-12-09T18:08:34Z</time>
      </trkpt>
      <trkpt lat="40.790710" lon="-3.017501">
        <ele>797.565</ele>
        <time>2017-12-09T18:08:35Z</time>
      </trkpt>
      <trkpt lat="40.790668" lon="-3.017565">
        <ele>796.868</ele>
        <time>2017-12-09T18:08:36Z</time>
      </trkpt>
      <trkpt lat="40.790622" lon="-3.017629">
        <ele>796.714</ele>
        <time>2017-12-09T18:08:37Z</time>
      </trkpt>
      <trkpt lat="40.790573" lon="-3.017703">
        <ele>796.308</ele>
        <time>2017-12-09T18:08:38Z</time>
      </trkpt>
      <trkpt lat="40.790514" lon="-3.017767">
        <ele>795.618</ele>
        <time>2017-12-09T18:08:39Z</time>
      </trkpt>
      <trkpt lat="40.790451" lon="-3.017831">
        <ele>795.227</ele>
        <time>2017-12-09T18:08:40Z</time>
      </trkpt>
      <trkpt lat="40.790391" lon="-3.017889">
        <ele>794.780</ele>
        <time>2017-12-09T18:08:41Z</time>
      </trkpt>
      <trkpt lat="40.790322" lon="-3.017946">
        <ele>794.531</ele>
        <time>2017-12-09T18:08:42Z</time>
      </trkpt>
      <trkpt lat="40.790260" lon="-3.017999">
        <ele>794.255</ele>
        <time>2017-12-09T18:08:43Z</time>
      </trkpt>
      <trkpt lat="40.790198" lon="-3.018045">
        <ele>794.056</ele>
        <time>2017-12-09T18:08:44Z</time>
      </trkpt>
      <trkpt lat="40.790139" lon="-3.018096">
        <ele>794.172</ele>
        <time>2017-12-09T18:08:45Z</time>
      </trkpt>
      <trkpt lat="40.790079" lon="-3.018153">
        <ele>793.975</ele>
        <time>2017-12-09T18:08:46Z</time>
      </trkpt>
      <trkpt lat="40.790022" lon="-3.018215">
        <ele>793.819</ele>
        <time>2017-12-09T18:08:47Z</time>
      </trkpt>
      <trkpt lat="40.789968" lon="-3.018288">
        <ele>793.809</ele>
        <time>2017-12-09T18:08:48Z</time>
      </trkpt>
      <trkpt lat="40.789911" lon="-3.018370">
        <ele>793.919</ele>
        <time>2017-12-09T18:08:49Z</time>
      </trkpt>
      <trkpt lat="40.789850" lon="-3.018459">
        <ele>793.408</ele>
        <time>2017-12-09T18:08:50Z</time>
      </trkpt>
      <trkpt lat="40.789791" lon="-3.018551">
        <ele>793.443</ele>
        <time>2017-12-09T18:08:51Z</time>
      </trkpt>
      <trkpt lat="40.789737" lon="-3.018646">
        <ele>793.432</ele>
        <time>2017-12-09T18:08:52Z</time>
      </trkpt>
      <trkpt lat="40.789683" lon="-3.018741">
        <ele>793.375</ele>
        <time>2017-12-09T18:08:53Z</time>
      </trkpt>
      <trkpt lat="40.789637" lon="-3.018821">
        <ele>793.916</ele>
        <time>2017-12-09T18:08:54Z</time>
      </trkpt>
      <trkpt lat="40.789586" lon="-3.018897">
        <ele>794.530</ele>
        <time>2017-12-09T18:08:55Z</time>
      </trkpt>
      <trkpt lat="40.789519" lon="-3.018960">
        <ele>794.921</ele>
        <time>2017-12-09T18:08:56Z</time>
      </trkpt>
      <trkpt lat="40.789469" lon="-3.018964">
        <ele>795.357</ele>
        <time>2017-12-09T18:08:57Z</time>
      </trkpt>
      <trkpt lat="40.789427" lon="-3.018987">
        <ele>795.490</ele>
        <time>2017-12-09T18:08:58Z</time>
      </trkpt>
      <trkpt lat="40.789365" lon="-3.019039">
        <ele>795.427</ele>
        <time>2017-12-09T18:09:02Z</time>
      </trkpt>
      <trkpt lat="40.789311" lon="-3.019132">
        <ele>794.868</ele>
        <time>2017-12-09T18:09:04Z</time>
      </trkpt>
      <trkpt lat="40.789281" lon="-3.019201">
        <ele>794.914</ele>
        <time>2017-12-09T18:09:05Z</time>
      </trkpt>
      <trkpt lat="40.789250" lon="-3.019276">
        <ele>793.908</ele>
        <time>2017-12-09T18:09:06Z</time>
      </trkpt>
      <trkpt lat="40.789212" lon="-3.019360">
        <ele>793.534</ele>
        <time>2017-12-09T18:09:07Z</time>
      </trkpt>
      <trkpt lat="40.789173" lon="-3.019444">
        <ele>793.283</ele>
        <time>2017-12-09T18:09:08Z</time>
      </trkpt>
      <trkpt lat="40.789135" lon="-3.019536">
        <ele>792.686</ele>
        <time>2017-12-09T18:09:09Z</time>
      </trkpt>
      <trkpt lat="40.789102" lon="-3.019634">
        <ele>792.737</ele>
        <time>2017-12-09T18:09:10Z</time>
      </trkpt>
      <trkpt lat="40.789085" lon="-3.019742">
        <ele>792.381</ele>
        <time>2017-12-09T18:09:11Z</time>
      </trkpt>
      <trkpt lat="40.789073" lon="-3.019844">
        <ele>792.232</ele>
        <time>2017-12-09T18:09:12Z</time>
      </trkpt>
      <trkpt lat="40.789070" lon="-3.019947">
        <ele>791.978</ele>
        <time>2017-12-09T18:09:13Z</time>
      </trkpt>
      <trkpt lat="40.789074" lon="-3.020054">
        <ele>791.831</ele>
        <time>2017-12-09T18:09:14Z</time>
      </trkpt>
      <trkpt lat="40.789067" lon="-3.020169">
        <ele>791.788</ele>
        <time>2017-12-09T18:09:15Z</time>
      </trkpt>
      <trkpt lat="40.789056" lon="-3.020280">
        <ele>791.924</ele>
        <time>2017-12-09T18:09:16Z</time>
      </trkpt>
      <trkpt lat="40.789046" lon="-3.020391">
        <ele>792.626</ele>
        <time>2017-12-09T18:09:17Z</time>
      </trkpt>
      <trkpt lat="40.789024" lon="-3.020498">
        <ele>792.808</ele>
        <time>2017-12-09T18:09:18Z</time>
      </trkpt>
      <trkpt lat="40.788991" lon="-3.020599">
        <ele>793.230</ele>
        <time>2017-12-09T18:09:19Z</time>
      </trkpt>
      <trkpt lat="40.788977" lon="-3.020691">
        <ele>793.569</ele>
        <time>2017-12-09T18:09:20Z</time>
      </trkpt>
      <trkpt lat="40.788959" lon="-3.020788">
        <ele>793.412</ele>
        <time>2017-12-09T18:09:21Z</time>
      </trkpt>
      <trkpt lat="40.788944" lon="-3.020879">
        <ele>793.023</ele>
        <time>2017-12-09T18:09:22Z</time>
      </trkpt>
      <trkpt lat="40.788924" lon="-3.020975">
        <ele>792.447</ele>
        <time>2017-12-09T18:09:23Z</time>
      </trkpt>
      <trkpt lat="40.788909" lon="-3.021059">
        <ele>791.958</ele>
        <time>2017-12-09T18:09:24Z</time>
      </trkpt>
      <trkpt lat="40.788885" lon="-3.021158">
        <ele>791.974</ele>
        <time>2017-12-09T18:09:25Z</time>
      </trkpt>
      <trkpt lat="40.788865" lon="-3.021260">
        <ele>791.697</ele>
        <time>2017-12-09T18:09:26Z</time>
      </trkpt>
      <trkpt lat="40.788857" lon="-3.021365">
        <ele>791.444</ele>
        <time>2017-12-09T18:09:27Z</time>
      </trkpt>
      <trkpt lat="40.788854" lon="-3.021474">
        <ele>791.405</ele>
        <time>2017-12-09T18:09:28Z</time>
      </trkpt>
      <trkpt lat="40.788851" lon="-3.021580">
        <ele>791.515</ele>
        <time>2017-12-09T18:09:29Z</time>
      </trkpt>
      <trkpt lat="40.788840" lon="-3.021699">
        <ele>791.408</ele>
        <time>2017-12-09T18:09:30Z</time>
      </trkpt>
      <trkpt lat="40.788836" lon="-3.021811">
        <ele>791.466</ele>
        <time>2017-12-09T18:09:31Z</time>
      </trkpt>
      <trkpt lat="40.788835" lon="-3.021910">
        <ele>791.615</ele>
        <time>2017-12-09T18:09:32Z</time>
      </trkpt>
      <trkpt lat="40.788854" lon="-3.022021">
        <ele>791.848</ele>
        <time>2017-12-09T18:09:33Z</time>
      </trkpt>
      <trkpt lat="40.788872" lon="-3.022125">
        <ele>792.339</ele>
        <time>2017-12-09T18:09:34Z</time>
      </trkpt>
      <trkpt lat="40.788885" lon="-3.022240">
        <ele>792.543</ele>
        <time>2017-12-09T18:09:35Z</time>
      </trkpt>
      <trkpt lat="40.788902" lon="-3.022334">
        <ele>792.884</ele>
        <time>2017-12-09T18:09:36Z</time>
      </trkpt>
      <trkpt lat="40.788915" lon="-3.022425">
        <ele>793.590</ele>
        <time>2017-12-09T18:09:37Z</time>
      </trkpt>
      <trkpt lat="40.788913" lon="-3.022522">
        <ele>793.923</ele>
        <time>2017-12-09T18:09:38Z</time>
      </trkpt>
      <trkpt lat="40.788916" lon="-3.022609">
        <ele>794.421</ele>
        <time>2017-12-09T18:09:39Z</time>
      </trkpt>
      <trkpt lat="40.788913" lon="-3.022689">
        <ele>795.341</ele>
        <time>2017-12-09T18:09:40Z</time>
      </trkpt>
      <trkpt lat="40.788902" lon="-3.022767">
        <ele>796.705</ele>
        <time>2017-12-09T18:09:41Z</time>
      </trkpt>
      <trkpt lat="40.788883" lon="-3.022830">
        <ele>798.008</ele>
        <time>2017-12-09T18:09:42Z</time>
      </trkpt>
      <trkpt lat="40.788855" lon="-3.022877">
        <ele>798.614</ele>
        <time>2017-12-09T18:09:43Z</time>
      </trkpt>
      <trkpt lat="40.788822" lon="-3.022919">
        <ele>799.193</ele>
        <time>2017-12-09T18:09:44Z</time>
      </trkpt>
      <trkpt lat="40.788730" lon="-3.022992">
        <ele>799.946</ele>
        <time>2017-12-09T18:09:46Z</time>
      </trkpt>
      <trkpt lat="40.788677" lon="-3.023037">
        <ele>799.677</ele>
        <time>2017-12-09T18:09:47Z</time>
      </trkpt>
      <trkpt lat="40.788628" lon="-3.023094">
        <ele>799.591</ele>
        <time>2017-12-09T18:09:48Z</time>
      </trkpt>
      <trkpt lat="40.788576" lon="-3.023158">
        <ele>799.382</ele>
        <time>2017-12-09T18:09:49Z</time>
      </trkpt>
      <trkpt lat="40.788531" lon="-3.023224">
        <ele>799.158</ele>
        <time>2017-12-09T18:09:50Z</time>
      </trkpt>
      <trkpt lat="40.788481" lon="-3.023284">
        <ele>799.111</ele>
        <time>2017-12-09T18:09:51Z</time>
      </trkpt>
      <trkpt lat="40.788428" lon="-3.023338">
        <ele>798.946</ele>
        <time>2017-12-09T18:09:52Z</time>
      </trkpt>
      <trkpt lat="40.788378" lon="-3.023387">
        <ele>798.688</ele>
        <time>2017-12-09T18:09:53Z</time>
      </trkpt>
      <trkpt lat="40.788329" lon="-3.023422">
        <ele>798.516</ele>
        <time>2017-12-09T18:09:54Z</time>
      </trkpt>
      <trkpt lat="40.788274" lon="-3.023468">
        <ele>798.908</ele>
        <time>2017-12-09T18:09:55Z</time>
      </trkpt>
      <trkpt lat="40.788226" lon="-3.023517">
        <ele>798.966</ele>
        <time>2017-12-09T18:09:56Z</time>
      </trkpt>
      <trkpt lat="40.788183" lon="-3.023562">
        <ele>798.555</ele>
        <time>2017-12-09T18:09:57Z</time>
      </trkpt>
      <trkpt lat="40.788140" lon="-3.023606">
        <ele>798.318</ele>
        <time>2017-12-09T18:09:58Z</time>
      </trkpt>
      <trkpt lat="40.788106" lon="-3.023648">
        <ele>798.419</ele>
        <time>2017-12-09T18:09:59Z</time>
      </trkpt>
      <trkpt lat="40.788080" lon="-3.023697">
        <ele>797.833</ele>
        <time>2017-12-09T18:10:00Z</time>
      </trkpt>
      <trkpt lat="40.788044" lon="-3.023746">
        <ele>797.854</ele>
        <time>2017-12-09T18:10:01Z</time>
      </trkpt>
      <trkpt lat="40.787989" lon="-3.023807">
        <ele>797.560</ele>
        <time>2017-12-09T18:10:03Z</time>
      </trkpt>
      <trkpt lat="40.787958" lon="-3.023850">
        <ele>797.743</ele>
        <time>2017-12-09T18:10:04Z</time>
      </trkpt>
      <trkpt lat="40.787905" lon="-3.023909">
        <ele>797.817</ele>
        <time>2017-12-09T18:10:06Z</time>
      </trkpt>
      <trkpt lat="40.787866" lon="-3.023954">
        <ele>797.587</ele>
        <time>2017-12-09T18:10:08Z</time>
      </trkpt>
      <trkpt lat="40.787840" lon="-3.024015">
        <ele>796.915</ele>
        <time>2017-12-09T18:10:10Z</time>
      </trkpt>
      <trkpt lat="40.787813" lon="-3.024099">
        <ele>797.608</ele>
        <time>2017-12-09T18:10:12Z</time>
      </trkpt>
      <trkpt lat="40.787789" lon="-3.024163">
        <ele>797.343</ele>
        <time>2017-12-09T18:10:13Z</time>
      </trkpt>
      <trkpt lat="40.787728" lon="-3.024272">
        <ele>796.532</ele>
        <time>2017-12-09T18:10:15Z</time>
      </trkpt>
      <trkpt lat="40.787691" lon="-3.024340">
        <ele>796.155</ele>
        <time>2017-12-09T18:10:16Z</time>
      </trkpt>
      <trkpt lat="40.787651" lon="-3.024401">
        <ele>796.166</ele>
        <time>2017-12-09T18:10:17Z</time>
      </trkpt>
      <trkpt lat="40.787599" lon="-3.024466">
        <ele>795.930</ele>
        <time>2017-12-09T18:10:18Z</time>
      </trkpt>
      <trkpt lat="40.787549" lon="-3.024536">
        <ele>795.611</ele>
        <time>2017-12-09T18:10:19Z</time>
      </trkpt>
      <trkpt lat="40.787495" lon="-3.024602">
        <ele>795.687</ele>
        <time>2017-12-09T18:10:20Z</time>
      </trkpt>
      <trkpt lat="40.787441" lon="-3.024664">
        <ele>795.390</ele>
        <time>2017-12-09T18:10:21Z</time>
      </trkpt>
      <trkpt lat="40.787392" lon="-3.024727">
        <ele>795.042</ele>
        <time>2017-12-09T18:10:22Z</time>
      </trkpt>
      <trkpt lat="40.787338" lon="-3.024769">
        <ele>794.922</ele>
        <time>2017-12-09T18:10:23Z</time>
      </trkpt>
      <trkpt lat="40.787292" lon="-3.024829">
        <ele>795.314</ele>
        <time>2017-12-09T18:10:24Z</time>
      </trkpt>
      <trkpt lat="40.787238" lon="-3.024875">
        <ele>794.908</ele>
        <time>2017-12-09T18:10:25Z</time>
      </trkpt>
      <trkpt lat="40.787183" lon="-3.024924">
        <ele>795.236</ele>
        <time>2017-12-09T18:10:26Z</time>
      </trkpt>
      <trkpt lat="40.787128" lon="-3.024980">
        <ele>795.355</ele>
        <time>2017-12-09T18:10:27Z</time>
      </trkpt>
      <trkpt lat="40.787071" lon="-3.025025">
        <ele>795.338</ele>
        <time>2017-12-09T18:10:28Z</time>
      </trkpt>
      <trkpt lat="40.787015" lon="-3.025084">
        <ele>795.429</ele>
        <time>2017-12-09T18:10:29Z</time>
      </trkpt>
      <trkpt lat="40.786958" lon="-3.025144">
        <ele>795.413</ele>
        <time>2017-12-09T18:10:30Z</time>
      </trkpt>
      <trkpt lat="40.786906" lon="-3.025209">
        <ele>795.424</ele>
        <time>2017-12-09T18:10:31Z</time>
      </trkpt>
      <trkpt lat="40.786845" lon="-3.025265">
        <ele>795.390</ele>
        <time>2017-12-09T18:10:32Z</time>
      </trkpt>
      <trkpt lat="40.786778" lon="-3.025311">
        <ele>795.473</ele>
        <time>2017-12-09T18:10:33Z</time>
      </trkpt>
      <trkpt lat="40.786721" lon="-3.025349">
        <ele>795.796</ele>
        <time>2017-12-09T18:10:34Z</time>
      </trkpt>
      <trkpt lat="40.786650" lon="-3.025386">
        <ele>795.831</ele>
        <time>2017-12-09T18:10:35Z</time>
      </trkpt>
      <trkpt lat="40.786589" lon="-3.025438">
        <ele>796.024</ele>
        <time>2017-12-09T18:10:36Z</time>
      </trkpt>
      <trkpt lat="40.786526" lon="-3.025497">
        <ele>795.808</ele>
        <time>2017-12-09T18:10:37Z</time>
      </trkpt>
      <trkpt lat="40.786462" lon="-3.025553">
        <ele>796.361</ele>
        <time>2017-12-09T18:10:38Z</time>
      </trkpt>
      <trkpt lat="40.786401" lon="-3.025608">
        <ele>796.070</ele>
        <time>2017-12-09T18:10:39Z</time>
      </trkpt>
      <trkpt lat="40.786350" lon="-3.025665">
        <ele>796.343</ele>
        <time>2017-12-09T18:10:40Z</time>
      </trkpt>
      <trkpt lat="40.786315" lon="-3.025739">
        <ele>796.774</ele>
        <time>2017-12-09T18:10:41Z</time>
      </trkpt>
      <trkpt lat="40.786266" lon="-3.025811">
        <ele>796.728</ele>
        <time>2017-12-09T18:10:42Z</time>
      </trkpt>
      <trkpt lat="40.786215" lon="-3.025897">
        <ele>796.769</ele>
        <time>2017-12-09T18:10:43Z</time>
      </trkpt>
      <trkpt lat="40.786175" lon="-3.025986">
        <ele>797.095</ele>
        <time>2017-12-09T18:10:44Z</time>
      </trkpt>
      <trkpt lat="40.786126" lon="-3.026068">
        <ele>797.178</ele>
        <time>2017-12-09T18:10:45Z</time>
      </trkpt>
      <trkpt lat="40.786062" lon="-3.026161">
        <ele>797.327</ele>
        <time>2017-12-09T18:10:46Z</time>
      </trkpt>
      <trkpt lat="40.786006" lon="-3.026240">
        <ele>797.468</ele>
        <time>2017-12-09T18:10:47Z</time>
      </trkpt>
      <trkpt lat="40.785945" lon="-3.026312">
        <ele>797.214</ele>
        <time>2017-12-09T18:10:48Z</time>
      </trkpt>
      <trkpt lat="40.785882" lon="-3.026376">
        <ele>797.308</ele>
        <time>2017-12-09T18:10:49Z</time>
      </trkpt>
      <trkpt lat="40.785817" lon="-3.026441">
        <ele>797.454</ele>
        <time>2017-12-09T18:10:50Z</time>
      </trkpt>
      <trkpt lat="40.785741" lon="-3.026493">
        <ele>797.573</ele>
        <time>2017-12-09T18:10:51Z</time>
      </trkpt>
      <trkpt lat="40.785662" lon="-3.026548">
        <ele>797.696</ele>
        <time>2017-12-09T18:10:52Z</time>
      </trkpt>
      <trkpt lat="40.785582" lon="-3.026620">
        <ele>797.827</ele>
        <time>2017-12-09T18:10:53Z</time>
      </trkpt>
      <trkpt lat="40.785513" lon="-3.026676">
        <ele>798.091</ele>
        <time>2017-12-09T18:10:54Z</time>
      </trkpt>
      <trkpt lat="40.785431" lon="-3.026730">
        <ele>798.582</ele>
        <time>2017-12-09T18:10:55Z</time>
      </trkpt>
      <trkpt lat="40.785357" lon="-3.026785">
        <ele>798.938</ele>
        <time>2017-12-09T18:10:56Z</time>
      </trkpt>
      <trkpt lat="40.785278" lon="-3.026834">
        <ele>799.331</ele>
        <time>2017-12-09T18:10:57Z</time>
      </trkpt>
      <trkpt lat="40.785197" lon="-3.026877">
        <ele>799.513</ele>
        <time>2017-12-09T18:10:58Z</time>
      </trkpt>
      <trkpt lat="40.785110" lon="-3.026919">
        <ele>800.343</ele>
        <time>2017-12-09T18:10:59Z</time>
      </trkpt>
      <trkpt lat="40.785025" lon="-3.026967">
        <ele>800.707</ele>
        <time>2017-12-09T18:11:00Z</time>
      </trkpt>
      <trkpt lat="40.784948" lon="-3.027020">
        <ele>801.008</ele>
        <time>2017-12-09T18:11:01Z</time>
      </trkpt>
      <trkpt lat="40.784870" lon="-3.027074">
        <ele>801.323</ele>
        <time>2017-12-09T18:11:02Z</time>
      </trkpt>
      <trkpt lat="40.784793" lon="-3.027134">
        <ele>801.662</ele>
        <time>2017-12-09T18:11:03Z</time>
      </trkpt>
      <trkpt lat="40.784716" lon="-3.027195">
        <ele>801.845</ele>
        <time>2017-12-09T18:11:04Z</time>
      </trkpt>
      <trkpt lat="40.784632" lon="-3.027249">
        <ele>802.176</ele>
        <time>2017-12-09T18:11:05Z</time>
      </trkpt>
      <trkpt lat="40.784549" lon="-3.027278">
        <ele>802.560</ele>
        <time>2017-12-09T18:11:06Z</time>
      </trkpt>
      <trkpt lat="40.784466" lon="-3.027300">
        <ele>803.031</ele>
        <time>2017-12-09T18:11:07Z</time>
      </trkpt>
      <trkpt lat="40.784380" lon="-3.027326">
        <ele>803.297</ele>
        <time>2017-12-09T18:11:08Z</time>
      </trkpt>
      <trkpt lat="40.784290" lon="-3.027353">
        <ele>803.210</ele>
        <time>2017-12-09T18:11:09Z</time>
      </trkpt>
      <trkpt lat="40.784205" lon="-3.027377">
        <ele>803.748</ele>
        <time>2017-12-09T18:11:10Z</time>
      </trkpt>
      <trkpt lat="40.784116" lon="-3.027406">
        <ele>803.761</ele>
        <time>2017-12-09T18:11:11Z</time>
      </trkpt>
      <trkpt lat="40.784030" lon="-3.027448">
        <ele>803.917</ele>
        <time>2017-12-09T18:11:12Z</time>
      </trkpt>
      <trkpt lat="40.783943" lon="-3.027503">
        <ele>803.908</ele>
        <time>2017-12-09T18:11:13Z</time>
      </trkpt>
      <trkpt lat="40.783868" lon="-3.027564">
        <ele>804.546</ele>
        <time>2017-12-09T18:11:14Z</time>
      </trkpt>
      <trkpt lat="40.783802" lon="-3.027616">
        <ele>804.315</ele>
        <time>2017-12-09T18:11:15Z</time>
      </trkpt>
      <trkpt lat="40.783757" lon="-3.027644">
        <ele>804.518</ele>
        <time>2017-12-09T18:11:16Z</time>
      </trkpt>
      <trkpt lat="40.783711" lon="-3.027666">
        <ele>805.019</ele>
        <time>2017-12-09T18:11:19Z</time>
      </trkpt>
      <trkpt lat="40.783665" lon="-3.027697">
        <ele>805.613</ele>
        <time>2017-12-09T18:11:21Z</time>
      </trkpt>
      <trkpt lat="40.783588" lon="-3.027720">
        <ele>806.184</ele>
        <time>2017-12-09T18:11:23Z</time>
      </trkpt>
      <trkpt lat="40.783538" lon="-3.027730">
        <ele>806.860</ele>
        <time>2017-12-09T18:11:24Z</time>
      </trkpt>
      <trkpt lat="40.783491" lon="-3.027737">
        <ele>806.313</ele>
        <time>2017-12-09T18:11:25Z</time>
      </trkpt>
      <trkpt lat="40.783445" lon="-3.027744">
        <ele>806.345</ele>
        <time>2017-12-09T18:11:26Z</time>
      </trkpt>
      <trkpt lat="40.783386" lon="-3.027752">
        <ele>807.147</ele>
        <time>2017-12-09T18:11:27Z</time>
      </trkpt>
      <trkpt lat="40.783320" lon="-3.027769">
        <ele>807.211</ele>
        <time>2017-12-09T18:11:28Z</time>
      </trkpt>
      <trkpt lat="40.783246" lon="-3.027782">
        <ele>807.708</ele>
        <time>2017-12-09T18:11:29Z</time>
      </trkpt>
      <trkpt lat="40.783172" lon="-3.027786">
        <ele>808.126</ele>
        <time>2017-12-09T18:11:30Z</time>
      </trkpt>
      <trkpt lat="40.783095" lon="-3.027795">
        <ele>808.585</ele>
        <time>2017-12-09T18:11:31Z</time>
      </trkpt>
      <trkpt lat="40.783011" lon="-3.027806">
        <ele>809.068</ele>
        <time>2017-12-09T18:11:32Z</time>
      </trkpt>
      <trkpt lat="40.782927" lon="-3.027807">
        <ele>809.569</ele>
        <time>2017-12-09T18:11:33Z</time>
      </trkpt>
      <trkpt lat="40.782848" lon="-3.027808">
        <ele>809.983</ele>
        <time>2017-12-09T18:11:34Z</time>
      </trkpt>
      <trkpt lat="40.782758" lon="-3.027799">
        <ele>809.984</ele>
        <time>2017-12-09T18:11:35Z</time>
      </trkpt>
      <trkpt lat="40.782675" lon="-3.027780">
        <ele>810.240</ele>
        <time>2017-12-09T18:11:36Z</time>
      </trkpt>
      <trkpt lat="40.782591" lon="-3.027755">
        <ele>810.583</ele>
        <time>2017-12-09T18:11:37Z</time>
      </trkpt>
      <trkpt lat="40.782509" lon="-3.027740">
        <ele>810.567</ele>
        <time>2017-12-09T18:11:38Z</time>
      </trkpt>
      <trkpt lat="40.782430" lon="-3.027718">
        <ele>811.281</ele>
        <time>2017-12-09T18:11:39Z</time>
      </trkpt>
      <trkpt lat="40.782344" lon="-3.027699">
        <ele>811.619</ele>
        <time>2017-12-09T18:11:40Z</time>
      </trkpt>
      <trkpt lat="40.782262" lon="-3.027688">
        <ele>812.108</ele>
        <time>2017-12-09T18:11:41Z</time>
      </trkpt>
      <trkpt lat="40.782177" lon="-3.027687">
        <ele>812.428</ele>
        <time>2017-12-09T18:11:42Z</time>
      </trkpt>
      <trkpt lat="40.782101" lon="-3.027698">
        <ele>813.097</ele>
        <time>2017-12-09T18:11:43Z</time>
      </trkpt>
      <trkpt lat="40.782018" lon="-3.027731">
        <ele>812.920</ele>
        <time>2017-12-09T18:11:44Z</time>
      </trkpt>
      <trkpt lat="40.781932" lon="-3.027771">
        <ele>812.891</ele>
        <time>2017-12-09T18:11:45Z</time>
      </trkpt>
      <trkpt lat="40.781839" lon="-3.027804">
        <ele>813.145</ele>
        <time>2017-12-09T18:11:46Z</time>
      </trkpt>
      <trkpt lat="40.781751" lon="-3.027839">
        <ele>813.066</ele>
        <time>2017-12-09T18:11:47Z</time>
      </trkpt>
      <trkpt lat="40.781671" lon="-3.027871">
        <ele>813.052</ele>
        <time>2017-12-09T18:11:48Z</time>
      </trkpt>
      <trkpt lat="40.781601" lon="-3.027911">
        <ele>812.955</ele>
        <time>2017-12-09T18:11:49Z</time>
      </trkpt>
      <trkpt lat="40.781535" lon="-3.027964">
        <ele>813.463</ele>
        <time>2017-12-09T18:11:50Z</time>
      </trkpt>
      <trkpt lat="40.781469" lon="-3.028027">
        <ele>813.844</ele>
        <time>2017-12-09T18:11:51Z</time>
      </trkpt>
      <trkpt lat="40.781404" lon="-3.028105">
        <ele>813.818</ele>
        <time>2017-12-09T18:11:52Z</time>
      </trkpt>
      <trkpt lat="40.781342" lon="-3.028190">
        <ele>813.708</ele>
        <time>2017-12-09T18:11:53Z</time>
      </trkpt>
      <trkpt lat="40.781273" lon="-3.028281">
        <ele>813.278</ele>
        <time>2017-12-09T18:11:54Z</time>
      </trkpt>
      <trkpt lat="40.781198" lon="-3.028368">
        <ele>812.787</ele>
        <time>2017-12-09T18:11:55Z</time>
      </trkpt>
      <trkpt lat="40.781127" lon="-3.028441">
        <ele>812.660</ele>
        <time>2017-12-09T18:11:56Z</time>
      </trkpt>
      <trkpt lat="40.781047" lon="-3.028497">
        <ele>812.841</ele>
        <time>2017-12-09T18:11:57Z</time>
      </trkpt>
      <trkpt lat="40.780960" lon="-3.028548">
        <ele>813.155</ele>
        <time>2017-12-09T18:11:58Z</time>
      </trkpt>
      <trkpt lat="40.780877" lon="-3.028575">
        <ele>813.566</ele>
        <time>2017-12-09T18:11:59Z</time>
      </trkpt>
      <trkpt lat="40.780782" lon="-3.028595">
        <ele>813.652</ele>
        <time>2017-12-09T18:12:00Z</time>
      </trkpt>
      <trkpt lat="40.780687" lon="-3.028622">
        <ele>813.685</ele>
        <time>2017-12-09T18:12:01Z</time>
      </trkpt>
      <trkpt lat="40.780590" lon="-3.028653">
        <ele>813.856</ele>
        <time>2017-12-09T18:12:02Z</time>
      </trkpt>
      <trkpt lat="40.780493" lon="-3.028679">
        <ele>814.059</ele>
        <time>2017-12-09T18:12:03Z</time>
      </trkpt>
      <trkpt lat="40.780391" lon="-3.028678">
        <ele>814.114</ele>
        <time>2017-12-09T18:12:04Z</time>
      </trkpt>
      <trkpt lat="40.780313" lon="-3.028683">
        <ele>814.308</ele>
        <time>2017-12-09T18:12:05Z</time>
      </trkpt>
      <trkpt lat="40.780229" lon="-3.028669">
        <ele>815.457</ele>
        <time>2017-12-09T18:12:06Z</time>
      </trkpt>
      <trkpt lat="40.780143" lon="-3.028640">
        <ele>816.336</ele>
        <time>2017-12-09T18:12:07Z</time>
      </trkpt>
      <trkpt lat="40.780058" lon="-3.028606">
        <ele>816.329</ele>
        <time>2017-12-09T18:12:08Z</time>
      </trkpt>
      <trkpt lat="40.779966" lon="-3.028581">
        <ele>816.580</ele>
        <time>2017-12-09T18:12:09Z</time>
      </trkpt>
      <trkpt lat="40.779871" lon="-3.028551">
        <ele>816.994</ele>
        <time>2017-12-09T18:12:10Z</time>
      </trkpt>
      <trkpt lat="40.779776" lon="-3.028524">
        <ele>816.995</ele>
        <time>2017-12-09T18:12:11Z</time>
      </trkpt>
      <trkpt lat="40.779685" lon="-3.028495">
        <ele>817.671</ele>
        <time>2017-12-09T18:12:12Z</time>
      </trkpt>
      <trkpt lat="40.779581" lon="-3.028471">
        <ele>817.764</ele>
        <time>2017-12-09T18:12:13Z</time>
      </trkpt>
      <trkpt lat="40.779489" lon="-3.028446">
        <ele>818.141</ele>
        <time>2017-12-09T18:12:14Z</time>
      </trkpt>
      <trkpt lat="40.779397" lon="-3.028417">
        <ele>818.481</ele>
        <time>2017-12-09T18:12:15Z</time>
      </trkpt>
      <trkpt lat="40.779306" lon="-3.028393">
        <ele>818.809</ele>
        <time>2017-12-09T18:12:16Z</time>
      </trkpt>
      <trkpt lat="40.779209" lon="-3.028367">
        <ele>819.408</ele>
        <time>2017-12-09T18:12:17Z</time>
      </trkpt>
      <trkpt lat="40.779115" lon="-3.028348">
        <ele>819.956</ele>
        <time>2017-12-09T18:12:18Z</time>
      </trkpt>
      <trkpt lat="40.779025" lon="-3.028329">
        <ele>820.535</ele>
        <time>2017-12-09T18:12:19Z</time>
      </trkpt>
      <trkpt lat="40.778931" lon="-3.028311">
        <ele>820.878</ele>
        <time>2017-12-09T18:12:20Z</time>
      </trkpt>
      <trkpt lat="40.778839" lon="-3.028313">
        <ele>821.919</ele>
        <time>2017-12-09T18:12:21Z</time>
      </trkpt>
      <trkpt lat="40.778746" lon="-3.028312">
        <ele>822.313</ele>
        <time>2017-12-09T18:12:22Z</time>
      </trkpt>
      <trkpt lat="40.778651" lon="-3.028322">
        <ele>822.824</ele>
        <time>2017-12-09T18:12:23Z</time>
      </trkpt>
      <trkpt lat="40.778558" lon="-3.028332">
        <ele>823.230</ele>
        <time>2017-12-09T18:12:24Z</time>
      </trkpt>
      <trkpt lat="40.778467" lon="-3.028336">
        <ele>824.033</ele>
        <time>2017-12-09T18:12:25Z</time>
      </trkpt>
      <trkpt lat="40.778373" lon="-3.028335">
        <ele>824.613</ele>
        <time>2017-12-09T18:12:26Z</time>
      </trkpt>
      <trkpt lat="40.778280" lon="-3.028324">
        <ele>824.643</ele>
        <time>2017-12-09T18:12:27Z</time>
      </trkpt>
      <trkpt lat="40.778193" lon="-3.028313">
        <ele>825.007</ele>
        <time>2017-12-09T18:12:28Z</time>
      </trkpt>
      <trkpt lat="40.778110" lon="-3.028288">
        <ele>825.708</ele>
        <time>2017-12-09T18:12:29Z</time>
      </trkpt>
      <trkpt lat="40.778025" lon="-3.028269">
        <ele>825.963</ele>
        <time>2017-12-09T18:12:30Z</time>
      </trkpt>
      <trkpt lat="40.777943" lon="-3.028244">
        <ele>826.452</ele>
        <time>2017-12-09T18:12:31Z</time>
      </trkpt>
      <trkpt lat="40.777860" lon="-3.028233">
        <ele>826.455</ele>
        <time>2017-12-09T18:12:32Z</time>
      </trkpt>
      <trkpt lat="40.777766" lon="-3.028237">
        <ele>826.846</ele>
        <time>2017-12-09T18:12:33Z</time>
      </trkpt>
      <trkpt lat="40.777657" lon="-3.028225">
        <ele>826.420</ele>
        <time>2017-12-09T18:12:34Z</time>
      </trkpt>
      <trkpt lat="40.777562" lon="-3.028218">
        <ele>826.411</ele>
        <time>2017-12-09T18:12:35Z</time>
      </trkpt>
      <trkpt lat="40.777466" lon="-3.028212">
        <ele>826.327</ele>
        <time>2017-12-09T18:12:36Z</time>
      </trkpt>
      <trkpt lat="40.777362" lon="-3.028196">
        <ele>826.390</ele>
        <time>2017-12-09T18:12:37Z</time>
      </trkpt>
      <trkpt lat="40.777263" lon="-3.028172">
        <ele>826.339</ele>
        <time>2017-12-09T18:12:38Z</time>
      </trkpt>
      <trkpt lat="40.777155" lon="-3.028156">
        <ele>826.301</ele>
        <time>2017-12-09T18:12:39Z</time>
      </trkpt>
      <trkpt lat="40.777057" lon="-3.028143">
        <ele>826.421</ele>
        <time>2017-12-09T18:12:40Z</time>
      </trkpt>
      <trkpt lat="40.776959" lon="-3.028130">
        <ele>826.308</ele>
        <time>2017-12-09T18:12:41Z</time>
      </trkpt>
      <trkpt lat="40.776860" lon="-3.028115">
        <ele>826.445</ele>
        <time>2017-12-09T18:12:42Z</time>
      </trkpt>
      <trkpt lat="40.776759" lon="-3.028093">
        <ele>826.774</ele>
        <time>2017-12-09T18:12:43Z</time>
      </trkpt>
      <trkpt lat="40.776664" lon="-3.028066">
        <ele>826.947</ele>
        <time>2017-12-09T18:12:44Z</time>
      </trkpt>
      <trkpt lat="40.776569" lon="-3.028038">
        <ele>826.728</ele>
        <time>2017-12-09T18:12:45Z</time>
      </trkpt>
      <trkpt lat="40.776480" lon="-3.028028">
        <ele>826.752</ele>
        <time>2017-12-09T18:12:46Z</time>
      </trkpt>
      <trkpt lat="40.776387" lon="-3.028020">
        <ele>826.413</ele>
        <time>2017-12-09T18:12:47Z</time>
      </trkpt>
      <trkpt lat="40.776301" lon="-3.028023">
        <ele>826.269</ele>
        <time>2017-12-09T18:12:48Z</time>
      </trkpt>
      <trkpt lat="40.776215" lon="-3.028020">
        <ele>825.992</ele>
        <time>2017-12-09T18:12:49Z</time>
      </trkpt>
      <trkpt lat="40.776136" lon="-3.028039">
        <ele>825.675</ele>
        <time>2017-12-09T18:12:50Z</time>
      </trkpt>
      <trkpt lat="40.776057" lon="-3.028030">
        <ele>825.528</ele>
        <time>2017-12-09T18:12:51Z</time>
      </trkpt>
      <trkpt lat="40.775993" lon="-3.028028">
        <ele>825.020</ele>
        <time>2017-12-09T18:12:52Z</time>
      </trkpt>
      <trkpt lat="40.775933" lon="-3.028024">
        <ele>825.008</ele>
        <time>2017-12-09T18:12:53Z</time>
      </trkpt>
      <trkpt lat="40.775848" lon="-3.028048">
        <ele>824.639</ele>
        <time>2017-12-09T18:12:55Z</time>
      </trkpt>
      <trkpt lat="40.775805" lon="-3.028087">
        <ele>824.478</ele>
        <time>2017-12-09T18:12:56Z</time>
      </trkpt>
      <trkpt lat="40.775769" lon="-3.028129">
        <ele>824.621</ele>
        <time>2017-12-09T18:12:57Z</time>
      </trkpt>
      <trkpt lat="40.775721" lon="-3.028204">
        <ele>824.812</ele>
        <time>2017-12-09T18:12:58Z</time>
      </trkpt>
      <trkpt lat="40.775682" lon="-3.028277">
        <ele>825.426</ele>
        <time>2017-12-09T18:12:59Z</time>
      </trkpt>
      <trkpt lat="40.775629" lon="-3.028355">
        <ele>826.477</ele>
        <time>2017-12-09T18:13:00Z</time>
      </trkpt>
      <trkpt lat="40.775566" lon="-3.028425">
        <ele>826.993</ele>
        <time>2017-12-09T18:13:01Z</time>
      </trkpt>
      <trkpt lat="40.775504" lon="-3.028502">
        <ele>827.546</ele>
        <time>2017-12-09T18:13:02Z</time>
      </trkpt>
      <trkpt lat="40.775428" lon="-3.028563">
        <ele>828.439</ele>
        <time>2017-12-09T18:13:03Z</time>
      </trkpt>
      <trkpt lat="40.775350" lon="-3.028618">
        <ele>829.601</ele>
        <time>2017-12-09T18:13:04Z</time>
      </trkpt>
      <trkpt lat="40.775270" lon="-3.028668">
        <ele>830.621</ele>
        <time>2017-12-09T18:13:05Z</time>
      </trkpt>
      <trkpt lat="40.775189" lon="-3.028714">
        <ele>831.308</ele>
        <time>2017-12-09T18:13:06Z</time>
      </trkpt>
      <trkpt lat="40.775107" lon="-3.028751">
        <ele>832.175</ele>
        <time>2017-12-09T18:13:07Z</time>
      </trkpt>
      <trkpt lat="40.775029" lon="-3.028783">
        <ele>832.764</ele>
        <time>2017-12-09T18:13:08Z</time>
      </trkpt>
      <trkpt lat="40.774944" lon="-3.028808">
        <ele>833.487</ele>
        <time>2017-12-09T18:13:09Z</time>
      </trkpt>
      <trkpt lat="40.774861" lon="-3.028835">
        <ele>834.248</ele>
        <time>2017-12-09T18:13:10Z</time>
      </trkpt>
      <trkpt lat="40.774782" lon="-3.028859">
        <ele>834.882</ele>
        <time>2017-12-09T18:13:11Z</time>
      </trkpt>
      <trkpt lat="40.774701" lon="-3.028891">
        <ele>835.983</ele>
        <time>2017-12-09T18:13:12Z</time>
      </trkpt>
      <trkpt lat="40.774620" lon="-3.028916">
        <ele>836.359</ele>
        <time>2017-12-09T18:13:13Z</time>
      </trkpt>
      <trkpt lat="40.774541" lon="-3.028946">
        <ele>836.612</ele>
        <time>2017-12-09T18:13:14Z</time>
      </trkpt>
      <trkpt lat="40.774463" lon="-3.028969">
        <ele>837.047</ele>
        <time>2017-12-09T18:13:15Z</time>
      </trkpt>
      <trkpt lat="40.774385" lon="-3.028985">
        <ele>837.629</ele>
        <time>2017-12-09T18:13:16Z</time>
      </trkpt>
      <trkpt lat="40.774308" lon="-3.028996">
        <ele>837.721</ele>
        <time>2017-12-09T18:13:17Z</time>
      </trkpt>
      <trkpt lat="40.774235" lon="-3.029006">
        <ele>838.308</ele>
        <time>2017-12-09T18:13:18Z</time>
      </trkpt>
      <trkpt lat="40.774153" lon="-3.029004">
        <ele>838.336</ele>
        <time>2017-12-09T18:13:19Z</time>
      </trkpt>
      <trkpt lat="40.774081" lon="-3.029002">
        <ele>838.775</ele>
        <time>2017-12-09T18:13:20Z</time>
      </trkpt>
      <trkpt lat="40.774016" lon="-3.028979">
        <ele>839.038</ele>
        <time>2017-12-09T18:13:21Z</time>
      </trkpt>
      <trkpt lat="40.773946" lon="-3.028959">
        <ele>839.579</ele>
        <time>2017-12-09T18:13:22Z</time>
      </trkpt>
      <trkpt lat="40.773874" lon="-3.028929">
        <ele>840.063</ele>
        <time>2017-12-09T18:13:23Z</time>
      </trkpt>
      <trkpt lat="40.773809" lon="-3.028902">
        <ele>840.774</ele>
        <time>2017-12-09T18:13:24Z</time>
      </trkpt>
      <trkpt lat="40.773727" lon="-3.028870">
        <ele>841.230</ele>
        <time>2017-12-09T18:13:25Z</time>
      </trkpt>
      <trkpt lat="40.773656" lon="-3.028861">
        <ele>841.943</ele>
        <time>2017-12-09T18:13:26Z</time>
      </trkpt>
      <trkpt lat="40.773586" lon="-3.028864">
        <ele>842.269</ele>
        <time>2017-12-09T18:13:27Z</time>
      </trkpt>
      <trkpt lat="40.773516" lon="-3.028870">
        <ele>842.704</ele>
        <time>2017-12-09T18:13:28Z</time>
      </trkpt>
      <trkpt lat="40.773447" lon="-3.028888">
        <ele>843.324</ele>
        <time>2017-12-09T18:13:29Z</time>
      </trkpt>
      <trkpt lat="40.773377" lon="-3.028921">
        <ele>843.508</ele>
        <time>2017-12-09T18:13:30Z</time>
      </trkpt>
      <trkpt lat="40.773290" lon="-3.028931">
        <ele>843.338</ele>
        <time>2017-12-09T18:13:31Z</time>
      </trkpt>
      <trkpt lat="40.773217" lon="-3.028962">
        <ele>843.617</ele>
        <time>2017-12-09T18:13:32Z</time>
      </trkpt>
      <trkpt lat="40.773140" lon="-3.028976">
        <ele>843.970</ele>
        <time>2017-12-09T18:13:33Z</time>
      </trkpt>
      <trkpt lat="40.773071" lon="-3.029003">
        <ele>844.241</ele>
        <time>2017-12-09T18:13:34Z</time>
      </trkpt>
      <trkpt lat="40.772997" lon="-3.029034">
        <ele>844.655</ele>
        <time>2017-12-09T18:13:35Z</time>
      </trkpt>
      <trkpt lat="40.772921" lon="-3.029063">
        <ele>844.986</ele>
        <time>2017-12-09T18:13:36Z</time>
      </trkpt>
      <trkpt lat="40.772848" lon="-3.029094">
        <ele>845.272</ele>
        <time>2017-12-09T18:13:37Z</time>
      </trkpt>
      <trkpt lat="40.772773" lon="-3.029126">
        <ele>845.555</ele>
        <time>2017-12-09T18:13:38Z</time>
      </trkpt>
      <trkpt lat="40.772694" lon="-3.029156">
        <ele>846.266</ele>
        <time>2017-12-09T18:13:39Z</time>
      </trkpt>
      <trkpt lat="40.772623" lon="-3.029191">
        <ele>846.029</ele>
        <time>2017-12-09T18:13:40Z</time>
      </trkpt>
      <trkpt lat="40.772543" lon="-3.029224">
        <ele>846.121</ele>
        <time>2017-12-09T18:13:41Z</time>
      </trkpt>
      <trkpt lat="40.772465" lon="-3.029244">
        <ele>846.108</ele>
        <time>2017-12-09T18:13:42Z</time>
      </trkpt>
      <trkpt lat="40.772395" lon="-3.029266">
        <ele>846.428</ele>
        <time>2017-12-09T18:13:43Z</time>
      </trkpt>
      <trkpt lat="40.772331" lon="-3.029295">
        <ele>846.497</ele>
        <time>2017-12-09T18:13:44Z</time>
      </trkpt>
      <trkpt lat="40.772273" lon="-3.029333">
        <ele>847.580</ele>
        <time>2017-12-09T18:13:45Z</time>
      </trkpt>
      <trkpt lat="40.772220" lon="-3.029384">
        <ele>847.571</ele>
        <time>2017-12-09T18:13:46Z</time>
      </trkpt>
      <trkpt lat="40.772167" lon="-3.029445">
        <ele>847.595</ele>
        <time>2017-12-09T18:13:47Z</time>
      </trkpt>
      <trkpt lat="40.772113" lon="-3.029503">
        <ele>847.156</ele>
        <time>2017-12-09T18:13:48Z</time>
      </trkpt>
      <trkpt lat="40.772065" lon="-3.029549">
        <ele>847.142</ele>
        <time>2017-12-09T18:13:49Z</time>
      </trkpt>
      <trkpt lat="40.772025" lon="-3.029592">
        <ele>846.745</ele>
        <time>2017-12-09T18:13:50Z</time>
      </trkpt>
      <trkpt lat="40.771974" lon="-3.029667">
        <ele>847.041</ele>
        <time>2017-12-09T18:13:52Z</time>
      </trkpt>
      <trkpt lat="40.771939" lon="-3.029783">
        <ele>847.481</ele>
        <time>2017-12-09T18:13:54Z</time>
      </trkpt>
      <trkpt lat="40.771923" lon="-3.029848">
        <ele>847.909</ele>
        <time>2017-12-09T18:13:55Z</time>
      </trkpt>
      <trkpt lat="40.771897" lon="-3.029938">
        <ele>848.108</ele>
        <time>2017-12-09T18:13:56Z</time>
      </trkpt>
      <trkpt lat="40.771858" lon="-3.030026">
        <ele>848.686</ele>
        <time>2017-12-09T18:13:57Z</time>
      </trkpt>
      <trkpt lat="40.771816" lon="-3.030097">
        <ele>849.815</ele>
        <time>2017-12-09T18:13:58Z</time>
      </trkpt>
      <trkpt lat="40.771763" lon="-3.030174">
        <ele>850.278</ele>
        <time>2017-12-09T18:13:59Z</time>
      </trkpt>
      <trkpt lat="40.771702" lon="-3.030262">
        <ele>850.339</ele>
        <time>2017-12-09T18:14:00Z</time>
      </trkpt>
      <trkpt lat="40.771653" lon="-3.030344">
        <ele>850.853</ele>
        <time>2017-12-09T18:14:01Z</time>
      </trkpt>
      <trkpt lat="40.771596" lon="-3.030435">
        <ele>851.864</ele>
        <time>2017-12-09T18:14:02Z</time>
      </trkpt>
      <trkpt lat="40.771544" lon="-3.030526">
        <ele>852.430</ele>
        <time>2017-12-09T18:14:03Z</time>
      </trkpt>
      <trkpt lat="40.771498" lon="-3.030596">
        <ele>853.083</ele>
        <time>2017-12-09T18:14:04Z</time>
      </trkpt>
      <trkpt lat="40.771442" lon="-3.030679">
        <ele>853.731</ele>
        <time>2017-12-09T18:14:05Z</time>
      </trkpt>
      <trkpt lat="40.771383" lon="-3.030775">
        <ele>854.161</ele>
        <time>2017-12-09T18:14:06Z</time>
      </trkpt>
      <trkpt lat="40.771317" lon="-3.030862">
        <ele>854.407</ele>
        <time>2017-12-09T18:14:07Z</time>
      </trkpt>
      <trkpt lat="40.771249" lon="-3.030954">
        <ele>855.108</ele>
        <time>2017-12-09T18:14:08Z</time>
      </trkpt>
      <trkpt lat="40.771182" lon="-3.031039">
        <ele>855.595</ele>
        <time>2017-12-09T18:14:09Z</time>
      </trkpt>
      <trkpt lat="40.771115" lon="-3.031129">
        <ele>855.874</ele>
        <time>2017-12-09T18:14:10Z</time>
      </trkpt>
      <trkpt lat="40.771053" lon="-3.031203">
        <ele>855.897</ele>
        <time>2017-12-09T18:14:11Z</time>
      </trkpt>
      <trkpt lat="40.770985" lon="-3.031279">
        <ele>856.698</ele>
        <time>2017-12-09T18:14:12Z</time>
      </trkpt>
      <trkpt lat="40.770915" lon="-3.031352">
        <ele>858.092</ele>
        <time>2017-12-09T18:14:13Z</time>
      </trkpt>
      <trkpt lat="40.770856" lon="-3.031420">
        <ele>858.573</ele>
        <time>2017-12-09T18:14:14Z</time>
      </trkpt>
      <trkpt lat="40.770793" lon="-3.031506">
        <ele>860.049</ele>
        <time>2017-12-09T18:14:15Z</time>
      </trkpt>
      <trkpt lat="40.770741" lon="-3.031598">
        <ele>860.982</ele>
        <time>2017-12-09T18:14:16Z</time>
      </trkpt>
      <trkpt lat="40.770695" lon="-3.031686">
        <ele>862.331</ele>
        <time>2017-12-09T18:14:17Z</time>
      </trkpt>
      <trkpt lat="40.770653" lon="-3.031781">
        <ele>864.061</ele>
        <time>2017-12-09T18:14:18Z</time>
      </trkpt>
      <trkpt lat="40.770614" lon="-3.031882">
        <ele>865.107</ele>
        <time>2017-12-09T18:14:19Z</time>
      </trkpt>
      <trkpt lat="40.770568" lon="-3.031998">
        <ele>865.908</ele>
        <time>2017-12-09T18:14:20Z</time>
      </trkpt>
      <trkpt lat="40.770532" lon="-3.032095">
        <ele>866.635</ele>
        <time>2017-12-09T18:14:21Z</time>
      </trkpt>
      <trkpt lat="40.770496" lon="-3.032202">
        <ele>867.214</ele>
        <time>2017-12-09T18:14:22Z</time>
      </trkpt>
      <trkpt lat="40.770474" lon="-3.032302">
        <ele>868.137</ele>
        <time>2017-12-09T18:14:23Z</time>
      </trkpt>
      <trkpt lat="40.770448" lon="-3.032415">
        <ele>868.658</ele>
        <time>2017-12-09T18:14:24Z</time>
      </trkpt>
      <trkpt lat="40.770422" lon="-3.032511">
        <ele>869.632</ele>
        <time>2017-12-09T18:14:25Z</time>
      </trkpt>
      <trkpt lat="40.770401" lon="-3.032613">
        <ele>870.133</ele>
        <time>2017-12-09T18:14:26Z</time>
      </trkpt>
      <trkpt lat="40.770421" lon="-3.032686">
        <ele>870.969</ele>
        <time>2017-12-09T18:14:27Z</time>
      </trkpt>
      <trkpt lat="40.770441" lon="-3.032765">
        <ele>871.782</ele>
        <time>2017-12-09T18:14:28Z</time>
      </trkpt>
      <trkpt lat="40.770440" lon="-3.032868">
        <ele>872.545</ele>
        <time>2017-12-09T18:14:29Z</time>
      </trkpt>
      <trkpt lat="40.770435" lon="-3.032973">
        <ele>872.847</ele>
        <time>2017-12-09T18:14:30Z</time>
      </trkpt>
      <trkpt lat="40.770420" lon="-3.033080">
        <ele>873.011</ele>
        <time>2017-12-09T18:14:31Z</time>
      </trkpt>
      <trkpt lat="40.770391" lon="-3.033176">
        <ele>873.208</ele>
        <time>2017-12-09T18:14:32Z</time>
      </trkpt>
      <trkpt lat="40.770367" lon="-3.033274">
        <ele>874.036</ele>
        <time>2017-12-09T18:14:33Z</time>
      </trkpt>
      <trkpt lat="40.770340" lon="-3.033361">
        <ele>874.335</ele>
        <time>2017-12-09T18:14:34Z</time>
      </trkpt>
      <trkpt lat="40.770316" lon="-3.033430">
        <ele>874.488</ele>
        <time>2017-12-09T18:14:35Z</time>
      </trkpt>
      <trkpt lat="40.770297" lon="-3.033513">
        <ele>874.139</ele>
        <time>2017-12-09T18:14:37Z</time>
      </trkpt>
      <trkpt lat="40.770294" lon="-3.033595">
        <ele>874.883</ele>
        <time>2017-12-09T18:15:11Z</time>
      </trkpt>
      <trkpt lat="40.770278" lon="-3.033651">
        <ele>874.614</ele>
        <time>2017-12-09T18:15:13Z</time>
      </trkpt>
      <trkpt lat="40.770251" lon="-3.033740">
        <ele>874.350</ele>
        <time>2017-12-09T18:15:15Z</time>
      </trkpt>
      <trkpt lat="40.770195" lon="-3.033841">
        <ele>873.543</ele>
        <time>2017-12-09T18:15:17Z</time>
      </trkpt>
      <trkpt lat="40.770161" lon="-3.033892">
        <ele>873.791</ele>
        <time>2017-12-09T18:15:18Z</time>
      </trkpt>
      <trkpt lat="40.770119" lon="-3.033952">
        <ele>873.481</ele>
        <time>2017-12-09T18:15:19Z</time>
      </trkpt>
      <trkpt lat="40.770081" lon="-3.034012">
        <ele>873.019</ele>
        <time>2017-12-09T18:15:20Z</time>
      </trkpt>
      <trkpt lat="40.770049" lon="-3.034087">
        <ele>872.708</ele>
        <time>2017-12-09T18:15:21Z</time>
      </trkpt>
      <trkpt lat="40.770005" lon="-3.034149">
        <ele>872.621</ele>
        <time>2017-12-09T18:15:22Z</time>
      </trkpt>
      <trkpt lat="40.769963" lon="-3.034208">
        <ele>872.540</ele>
        <time>2017-12-09T18:15:23Z</time>
      </trkpt>
      <trkpt lat="40.769903" lon="-3.034275">
        <ele>872.473</ele>
        <time>2017-12-09T18:15:24Z</time>
      </trkpt>
      <trkpt lat="40.769861" lon="-3.034342">
        <ele>872.114</ele>
        <time>2017-12-09T18:15:25Z</time>
      </trkpt>
      <trkpt lat="40.769828" lon="-3.034401">
        <ele>872.118</ele>
        <time>2017-12-09T18:15:26Z</time>
      </trkpt>
      <trkpt lat="40.769789" lon="-3.034432">
        <ele>871.629</ele>
        <time>2017-12-09T18:15:27Z</time>
      </trkpt>
      <trkpt lat="40.769753" lon="-3.034473">
        <ele>871.855</ele>
        <time>2017-12-09T18:15:28Z</time>
      </trkpt>
      <trkpt lat="40.769710" lon="-3.034505">
        <ele>871.828</ele>
        <time>2017-12-09T18:15:29Z</time>
      </trkpt>
      <trkpt lat="40.769677" lon="-3.034549">
        <ele>871.569</ele>
        <time>2017-12-09T18:15:30Z</time>
      </trkpt>
      <trkpt lat="40.769611" lon="-3.034648">
        <ele>871.504</ele>
        <time>2017-12-09T18:15:32Z</time>
      </trkpt>
      <trkpt lat="40.769574" lon="-3.034695">
        <ele>871.724</ele>
        <time>2017-12-09T18:15:33Z</time>
      </trkpt>
      <trkpt lat="40.769499" lon="-3.034785">
        <ele>871.608</ele>
        <time>2017-12-09T18:15:35Z</time>
      </trkpt>
      <trkpt lat="40.769464" lon="-3.034845">
        <ele>871.648</ele>
        <time>2017-12-09T18:15:36Z</time>
      </trkpt>
      <trkpt lat="40.769434" lon="-3.034902">
        <ele>871.527</ele>
        <time>2017-12-09T18:15:37Z</time>
      </trkpt>
      <trkpt lat="40.769393" lon="-3.034953">
        <ele>871.740</ele>
        <time>2017-12-09T18:15:38Z</time>
      </trkpt>
      <trkpt lat="40.769351" lon="-3.034997">
        <ele>871.771</ele>
        <time>2017-12-09T18:15:39Z</time>
      </trkpt>
      <trkpt lat="40.769313" lon="-3.035044">
        <ele>871.615</ele>
        <time>2017-12-09T18:15:40Z</time>
      </trkpt>
      <trkpt lat="40.769272" lon="-3.035104">
        <ele>871.786</ele>
        <time>2017-12-09T18:15:41Z</time>
      </trkpt>
      <trkpt lat="40.769235" lon="-3.035152">
        <ele>871.632</ele>
        <time>2017-12-09T18:15:42Z</time>
      </trkpt>
      <trkpt lat="40.769188" lon="-3.035204">
        <ele>871.745</ele>
        <time>2017-12-09T18:15:44Z</time>
      </trkpt>
      <trkpt lat="40.769124" lon="-3.035261">
        <ele>871.485</ele>
        <time>2017-12-09T18:15:46Z</time>
      </trkpt>
      <trkpt lat="40.769073" lon="-3.035297">
        <ele>871.389</ele>
        <time>2017-12-09T18:15:48Z</time>
      </trkpt>
      <trkpt lat="40.769019" lon="-3.035307">
        <ele>871.317</ele>
        <time>2017-12-09T18:15:50Z</time>
      </trkpt>
      <trkpt lat="40.768964" lon="-3.035320">
        <ele>871.608</ele>
        <time>2017-12-09T18:15:54Z</time>
      </trkpt>
      <trkpt lat="40.768914" lon="-3.035344">
        <ele>871.620</ele>
        <time>2017-12-09T18:15:56Z</time>
      </trkpt>
      <trkpt lat="40.768855" lon="-3.035372">
        <ele>871.449</ele>
        <time>2017-12-09T18:15:58Z</time>
      </trkpt>
      <trkpt lat="40.768787" lon="-3.035397">
        <ele>871.522</ele>
        <time>2017-12-09T18:16:00Z</time>
      </trkpt>
      <trkpt lat="40.768719" lon="-3.035405">
        <ele>871.343</ele>
        <time>2017-12-09T18:16:02Z</time>
      </trkpt>
      <trkpt lat="40.768634" lon="-3.035375">
        <ele>871.627</ele>
        <time>2017-12-09T18:16:04Z</time>
      </trkpt>
      <trkpt lat="40.768592" lon="-3.035349">
        <ele>871.738</ele>
        <time>2017-12-09T18:16:05Z</time>
      </trkpt>
      <trkpt lat="40.768549" lon="-3.035322">
        <ele>871.724</ele>
        <time>2017-12-09T18:16:06Z</time>
      </trkpt>
      <trkpt lat="40.768506" lon="-3.035295">
        <ele>872.117</ele>
        <time>2017-12-09T18:16:07Z</time>
      </trkpt>
      <trkpt lat="40.768441" lon="-3.035259">
        <ele>872.092</ele>
        <time>2017-12-09T18:16:09Z</time>
      </trkpt>
      <trkpt lat="40.768398" lon="-3.035224">
        <ele>872.673</ele>
        <time>2017-12-09T18:16:11Z</time>
      </trkpt>
      <trkpt lat="40.768349" lon="-3.035187">
        <ele>873.220</ele>
        <time>2017-12-09T18:16:13Z</time>
      </trkpt>
      <trkpt lat="40.768252" lon="-3.035149">
        <ele>874.008</ele>
        <time>2017-12-09T18:16:15Z</time>
      </trkpt>
      <trkpt lat="40.768178" lon="-3.035119">
        <ele>874.621</ele>
        <time>2017-12-09T18:16:17Z</time>
      </trkpt>
      <trkpt lat="40.768112" lon="-3.035125">
        <ele>874.820</ele>
        <time>2017-12-09T18:16:19Z</time>
      </trkpt>
      <trkpt lat="40.768045" lon="-3.035134">
        <ele>878.893</ele>
        <time>2017-12-09T18:16:34Z</time>
      </trkpt>
      <trkpt lat="40.767949" lon="-3.035148">
        <ele>879.464</ele>
        <time>2017-12-09T18:16:36Z</time>
      </trkpt>
      <trkpt lat="40.767898" lon="-3.035153">
        <ele>879.558</ele>
        <time>2017-12-09T18:16:37Z</time>
      </trkpt>
      <trkpt lat="40.767851" lon="-3.035120">
        <ele>877.029</ele>
        <time>2017-12-09T18:16:38Z</time>
      </trkpt>
      <trkpt lat="40.767792" lon="-3.035088">
        <ele>877.285</ele>
        <time>2017-12-09T18:16:39Z</time>
      </trkpt>
      <trkpt lat="40.767740" lon="-3.035046">
        <ele>878.188</ele>
        <time>2017-12-09T18:16:40Z</time>
      </trkpt>
      <trkpt lat="40.767686" lon="-3.035007">
        <ele>878.695</ele>
        <time>2017-12-09T18:16:41Z</time>
      </trkpt>
      <trkpt lat="40.767622" lon="-3.034967">
        <ele>879.449</ele>
        <time>2017-12-09T18:16:42Z</time>
      </trkpt>
      <trkpt lat="40.767561" lon="-3.034923">
        <ele>880.523</ele>
        <time>2017-12-09T18:16:43Z</time>
      </trkpt>
      <trkpt lat="40.767484" lon="-3.034890">
        <ele>881.108</ele>
        <time>2017-12-09T18:16:44Z</time>
      </trkpt>
      <trkpt lat="40.767420" lon="-3.034852">
        <ele>881.891</ele>
        <time>2017-12-09T18:16:45Z</time>
      </trkpt>
      <trkpt lat="40.767353" lon="-3.034804">
        <ele>882.260</ele>
        <time>2017-12-09T18:16:46Z</time>
      </trkpt>
      <trkpt lat="40.767285" lon="-3.034751">
        <ele>882.713</ele>
        <time>2017-12-09T18:16:47Z</time>
      </trkpt>
      <trkpt lat="40.767218" lon="-3.034693">
        <ele>882.744</ele>
        <time>2017-12-09T18:16:48Z</time>
      </trkpt>
      <trkpt lat="40.767153" lon="-3.034625">
        <ele>883.528</ele>
        <time>2017-12-09T18:16:49Z</time>
      </trkpt>
      <trkpt lat="40.767081" lon="-3.034562">
        <ele>884.449</ele>
        <time>2017-12-09T18:16:50Z</time>
      </trkpt>
      <trkpt lat="40.767016" lon="-3.034491">
        <ele>885.385</ele>
        <time>2017-12-09T18:16:51Z</time>
      </trkpt>
      <trkpt lat="40.766958" lon="-3.034425">
        <ele>886.488</ele>
        <time>2017-12-09T18:16:52Z</time>
      </trkpt>
      <trkpt lat="40.766900" lon="-3.034358">
        <ele>887.368</ele>
        <time>2017-12-09T18:16:53Z</time>
      </trkpt>
      <trkpt lat="40.766844" lon="-3.034292">
        <ele>888.042</ele>
        <time>2017-12-09T18:16:54Z</time>
      </trkpt>
      <trkpt lat="40.766779" lon="-3.034231">
        <ele>888.726</ele>
        <time>2017-12-09T18:16:55Z</time>
      </trkpt>
      <trkpt lat="40.766711" lon="-3.034193">
        <ele>889.208</ele>
        <time>2017-12-09T18:16:56Z</time>
      </trkpt>
      <trkpt lat="40.766639" lon="-3.034189">
        <ele>890.198</ele>
        <time>2017-12-09T18:16:57Z</time>
      </trkpt>
      <trkpt lat="40.766558" lon="-3.034189">
        <ele>890.987</ele>
        <time>2017-12-09T18:16:58Z</time>
      </trkpt>
      <trkpt lat="40.766477" lon="-3.034203">
        <ele>891.940</ele>
        <time>2017-12-09T18:16:59Z</time>
      </trkpt>
      <trkpt lat="40.766388" lon="-3.034223">
        <ele>893.061</ele>
        <time>2017-12-09T18:17:00Z</time>
      </trkpt>
      <trkpt lat="40.766273" lon="-3.034227">
        <ele>893.545</ele>
        <time>2017-12-09T18:17:01Z</time>
      </trkpt>
      <trkpt lat="40.766176" lon="-3.034244">
        <ele>894.376</ele>
        <time>2017-12-09T18:17:02Z</time>
      </trkpt>
      <trkpt lat="40.766073" lon="-3.034255">
        <ele>895.312</ele>
        <time>2017-12-09T18:17:03Z</time>
      </trkpt>
      <trkpt lat="40.765971" lon="-3.034267">
        <ele>895.945</ele>
        <time>2017-12-09T18:17:04Z</time>
      </trkpt>
      <trkpt lat="40.765865" lon="-3.034282">
        <ele>896.344</ele>
        <time>2017-12-09T18:17:05Z</time>
      </trkpt>
      <trkpt lat="40.765766" lon="-3.034299">
        <ele>897.905</ele>
        <time>2017-12-09T18:17:06Z</time>
      </trkpt>
      <trkpt lat="40.765656" lon="-3.034308">
        <ele>899.115</ele>
        <time>2017-12-09T18:17:07Z</time>
      </trkpt>
      <trkpt lat="40.765549" lon="-3.034322">
        <ele>900.208</ele>
        <time>2017-12-09T18:17:08Z</time>
      </trkpt>
      <trkpt lat="40.765444" lon="-3.034331">
        <ele>901.466</ele>
        <time>2017-12-09T18:17:09Z</time>
      </trkpt>
      <trkpt lat="40.765334" lon="-3.034348">
        <ele>902.375</ele>
        <time>2017-12-09T18:17:10Z</time>
      </trkpt>
      <trkpt lat="40.765217" lon="-3.034369">
        <ele>903.398</ele>
        <time>2017-12-09T18:17:11Z</time>
      </trkpt>
      <trkpt lat="40.765106" lon="-3.034386">
        <ele>904.119</ele>
        <time>2017-12-09T18:17:12Z</time>
      </trkpt>
      <trkpt lat="40.764997" lon="-3.034402">
        <ele>905.133</ele>
        <time>2017-12-09T18:17:13Z</time>
      </trkpt>
      <trkpt lat="40.764889" lon="-3.034395">
        <ele>906.074</ele>
        <time>2017-12-09T18:17:14Z</time>
      </trkpt>
      <trkpt lat="40.764783" lon="-3.034383">
        <ele>906.070</ele>
        <time>2017-12-09T18:17:15Z</time>
      </trkpt>
      <trkpt lat="40.764678" lon="-3.034348">
        <ele>907.263</ele>
        <time>2017-12-09T18:17:16Z</time>
      </trkpt>
      <trkpt lat="40.764580" lon="-3.034301">
        <ele>908.354</ele>
        <time>2017-12-09T18:17:17Z</time>
      </trkpt>
      <trkpt lat="40.764470" lon="-3.034250">
        <ele>909.356</ele>
        <time>2017-12-09T18:17:18Z</time>
      </trkpt>
      <trkpt lat="40.764359" lon="-3.034190">
        <ele>910.111</ele>
        <time>2017-12-09T18:17:19Z</time>
      </trkpt>
      <trkpt lat="40.764247" lon="-3.034128">
        <ele>911.008</ele>
        <time>2017-12-09T18:17:20Z</time>
      </trkpt>
      <trkpt lat="40.764128" lon="-3.034065">
        <ele>912.077</ele>
        <time>2017-12-09T18:17:21Z</time>
      </trkpt>
      <trkpt lat="40.764020" lon="-3.034009">
        <ele>913.036</ele>
        <time>2017-12-09T18:17:22Z</time>
      </trkpt>
      <trkpt lat="40.763911" lon="-3.033949">
        <ele>914.059</ele>
        <time>2017-12-09T18:17:23Z</time>
      </trkpt>
      <trkpt lat="40.763806" lon="-3.033885">
        <ele>915.460</ele>
        <time>2017-12-09T18:17:24Z</time>
      </trkpt>
      <trkpt lat="40.763708" lon="-3.033820">
        <ele>916.834</ele>
        <time>2017-12-09T18:17:25Z</time>
      </trkpt>
      <trkpt lat="40.763603" lon="-3.033741">
        <ele>917.855</ele>
        <time>2017-12-09T18:17:26Z</time>
      </trkpt>
      <trkpt lat="40.763505" lon="-3.033664">
        <ele>918.911</ele>
        <time>2017-12-09T18:17:27Z</time>
      </trkpt>
      <trkpt lat="40.763411" lon="-3.033577">
        <ele>920.184</ele>
        <time>2017-12-09T18:17:28Z</time>
      </trkpt>
      <trkpt lat="40.763328" lon="-3.033467">
        <ele>921.317</ele>
        <time>2017-12-09T18:17:29Z</time>
      </trkpt>
      <trkpt lat="40.763258" lon="-3.033349">
        <ele>922.587</ele>
        <time>2017-12-09T18:17:30Z</time>
      </trkpt>
      <trkpt lat="40.763198" lon="-3.033221">
        <ele>923.615</ele>
        <time>2017-12-09T18:17:31Z</time>
      </trkpt>
      <trkpt lat="40.763140" lon="-3.033078">
        <ele>924.608</ele>
        <time>2017-12-09T18:17:32Z</time>
      </trkpt>
      <trkpt lat="40.763095" lon="-3.032939">
        <ele>925.383</ele>
        <time>2017-12-09T18:17:33Z</time>
      </trkpt>
      <trkpt lat="40.763054" lon="-3.032791">
        <ele>926.122</ele>
        <time>2017-12-09T18:17:34Z</time>
      </trkpt>
      <trkpt lat="40.763020" lon="-3.032637">
        <ele>926.815</ele>
        <time>2017-12-09T18:17:35Z</time>
      </trkpt>
      <trkpt lat="40.762990" lon="-3.032489">
        <ele>927.756</ele>
        <time>2017-12-09T18:17:36Z</time>
      </trkpt>
      <trkpt lat="40.762961" lon="-3.032352">
        <ele>928.350</ele>
        <time>2017-12-09T18:17:37Z</time>
      </trkpt>
      <trkpt lat="40.762918" lon="-3.032224">
        <ele>929.191</ele>
        <time>2017-12-09T18:17:38Z</time>
      </trkpt>
      <trkpt lat="40.762845" lon="-3.032139">
        <ele>929.977</ele>
        <time>2017-12-09T18:17:39Z</time>
      </trkpt>
      <trkpt lat="40.762752" lon="-3.032079">
        <ele>930.940</ele>
        <time>2017-12-09T18:17:40Z</time>
      </trkpt>
      <trkpt lat="40.762657" lon="-3.032048">
        <ele>930.993</ele>
        <time>2017-12-09T18:17:41Z</time>
      </trkpt>
      <trkpt lat="40.762549" lon="-3.032010">
        <ele>932.065</ele>
        <time>2017-12-09T18:17:42Z</time>
      </trkpt>
      <trkpt lat="40.762447" lon="-3.031971">
        <ele>933.021</ele>
        <time>2017-12-09T18:17:43Z</time>
      </trkpt>
      <trkpt lat="40.762342" lon="-3.031924">
        <ele>933.608</ele>
        <time>2017-12-09T18:17:44Z</time>
      </trkpt>
      <trkpt lat="40.762233" lon="-3.031881">
        <ele>934.711</ele>
        <time>2017-12-09T18:17:45Z</time>
      </trkpt>
      <trkpt lat="40.762121" lon="-3.031826">
        <ele>935.530</ele>
        <time>2017-12-09T18:17:46Z</time>
      </trkpt>
      <trkpt lat="40.762016" lon="-3.031757">
        <ele>936.173</ele>
        <time>2017-12-09T18:17:47Z</time>
      </trkpt>
      <trkpt lat="40.761906" lon="-3.031686">
        <ele>936.864</ele>
        <time>2017-12-09T18:17:48Z</time>
      </trkpt>
      <trkpt lat="40.761801" lon="-3.031623">
        <ele>937.648</ele>
        <time>2017-12-09T18:17:49Z</time>
      </trkpt>
      <trkpt lat="40.761692" lon="-3.031572">
        <ele>938.099</ele>
        <time>2017-12-09T18:17:50Z</time>
      </trkpt>
      <trkpt lat="40.761589" lon="-3.031513">
        <ele>938.515</ele>
        <time>2017-12-09T18:17:51Z</time>
      </trkpt>
      <trkpt lat="40.761491" lon="-3.031474">
        <ele>939.128</ele>
        <time>2017-12-09T18:17:52Z</time>
      </trkpt>
      <trkpt lat="40.761397" lon="-3.031454">
        <ele>939.699</ele>
        <time>2017-12-09T18:17:53Z</time>
      </trkpt>
      <trkpt lat="40.761311" lon="-3.031471">
        <ele>940.307</ele>
        <time>2017-12-09T18:17:54Z</time>
      </trkpt>
      <trkpt lat="40.761236" lon="-3.031532">
        <ele>940.827</ele>
        <time>2017-12-09T18:17:55Z</time>
      </trkpt>
      <trkpt lat="40.761172" lon="-3.031621">
        <ele>941.108</ele>
        <time>2017-12-09T18:17:56Z</time>
      </trkpt>
      <trkpt lat="40.761114" lon="-3.031723">
        <ele>941.791</ele>
        <time>2017-12-09T18:17:57Z</time>
      </trkpt>
      <trkpt lat="40.761052" lon="-3.031827">
        <ele>942.660</ele>
        <time>2017-12-09T18:17:58Z</time>
      </trkpt>
      <trkpt lat="40.760977" lon="-3.031936">
        <ele>942.973</ele>
        <time>2017-12-09T18:17:59Z</time>
      </trkpt>
      <trkpt lat="40.760894" lon="-3.032026">
        <ele>943.994</ele>
        <time>2017-12-09T18:18:00Z</time>
      </trkpt>
      <trkpt lat="40.760811" lon="-3.032110">
        <ele>944.698</ele>
        <time>2017-12-09T18:18:01Z</time>
      </trkpt>
      <trkpt lat="40.760715" lon="-3.032187">
        <ele>945.739</ele>
        <time>2017-12-09T18:18:02Z</time>
      </trkpt>
      <trkpt lat="40.760612" lon="-3.032271">
        <ele>946.515</ele>
        <time>2017-12-09T18:18:03Z</time>
      </trkpt>
      <trkpt lat="40.760508" lon="-3.032348">
        <ele>947.528</ele>
        <time>2017-12-09T18:18:04Z</time>
      </trkpt>
      <trkpt lat="40.760409" lon="-3.032408">
        <ele>948.972</ele>
        <time>2017-12-09T18:18:05Z</time>
      </trkpt>
      <trkpt lat="40.760300" lon="-3.032468">
        <ele>949.913</ele>
        <time>2017-12-09T18:18:06Z</time>
      </trkpt>
      <trkpt lat="40.760190" lon="-3.032507">
        <ele>949.914</ele>
        <time>2017-12-09T18:18:07Z</time>
      </trkpt>
      <trkpt lat="40.760071" lon="-3.032546">
        <ele>951.108</ele>
        <time>2017-12-09T18:18:08Z</time>
      </trkpt>
      <trkpt lat="40.759954" lon="-3.032573">
        <ele>951.679</ele>
        <time>2017-12-09T18:18:09Z</time>
      </trkpt>
      <trkpt lat="40.759834" lon="-3.032597">
        <ele>952.578</ele>
        <time>2017-12-09T18:18:10Z</time>
      </trkpt>
      <trkpt lat="40.759712" lon="-3.032627">
        <ele>953.741</ele>
        <time>2017-12-09T18:18:11Z</time>
      </trkpt>
      <trkpt lat="40.759597" lon="-3.032647">
        <ele>954.422</ele>
        <time>2017-12-09T18:18:12Z</time>
      </trkpt>
      <trkpt lat="40.759483" lon="-3.032661">
        <ele>955.476</ele>
        <time>2017-12-09T18:18:13Z</time>
      </trkpt>
      <trkpt lat="40.759386" lon="-3.032676">
        <ele>956.397</ele>
        <time>2017-12-09T18:18:14Z</time>
      </trkpt>
      <trkpt lat="40.759286" lon="-3.032691">
        <ele>956.933</ele>
        <time>2017-12-09T18:18:15Z</time>
      </trkpt>
      <trkpt lat="40.759198" lon="-3.032716">
        <ele>957.696</ele>
        <time>2017-12-09T18:18:16Z</time>
      </trkpt>
      <trkpt lat="40.759126" lon="-3.032773">
        <ele>958.452</ele>
        <time>2017-12-09T18:18:17Z</time>
      </trkpt>
      <trkpt lat="40.759057" lon="-3.032862">
        <ele>959.453</ele>
        <time>2017-12-09T18:18:18Z</time>
      </trkpt>
      <trkpt lat="40.758987" lon="-3.032953">
        <ele>960.308</ele>
        <time>2017-12-09T18:18:19Z</time>
      </trkpt>
      <trkpt lat="40.758935" lon="-3.033063">
        <ele>961.108</ele>
        <time>2017-12-09T18:18:20Z</time>
      </trkpt>
      <trkpt lat="40.758876" lon="-3.033158">
        <ele>962.097</ele>
        <time>2017-12-09T18:18:21Z</time>
      </trkpt>
      <trkpt lat="40.758835" lon="-3.033261">
        <ele>962.556</ele>
        <time>2017-12-09T18:18:22Z</time>
      </trkpt>
      <trkpt lat="40.758800" lon="-3.033366">
        <ele>963.439</ele>
        <time>2017-12-09T18:18:23Z</time>
      </trkpt>
      <trkpt lat="40.758793" lon="-3.033512">
        <ele>964.380</ele>
        <time>2017-12-09T18:18:24Z</time>
      </trkpt>
      <trkpt lat="40.758781" lon="-3.033636">
        <ele>965.194</ele>
        <time>2017-12-09T18:18:25Z</time>
      </trkpt>
      <trkpt lat="40.758757" lon="-3.033762">
        <ele>965.995</ele>
        <time>2017-12-09T18:18:26Z</time>
      </trkpt>
      <trkpt lat="40.758737" lon="-3.033894">
        <ele>966.651</ele>
        <time>2017-12-09T18:18:27Z</time>
      </trkpt>
      <trkpt lat="40.758719" lon="-3.034041">
        <ele>967.394</ele>
        <time>2017-12-09T18:18:28Z</time>
      </trkpt>
      <trkpt lat="40.758713" lon="-3.034167">
        <ele>968.575</ele>
        <time>2017-12-09T18:18:29Z</time>
      </trkpt>
      <trkpt lat="40.758720" lon="-3.034313">
        <ele>969.328</ele>
        <time>2017-12-09T18:18:30Z</time>
      </trkpt>
      <trkpt lat="40.758730" lon="-3.034456">
        <ele>970.320</ele>
        <time>2017-12-09T18:18:31Z</time>
      </trkpt>
      <trkpt lat="40.758729" lon="-3.034590">
        <ele>970.708</ele>
        <time>2017-12-09T18:18:32Z</time>
      </trkpt>
      <trkpt lat="40.758708" lon="-3.034720">
        <ele>970.719</ele>
        <time>2017-12-09T18:18:33Z</time>
      </trkpt>
      <trkpt lat="40.758679" lon="-3.034848">
        <ele>971.548</ele>
        <time>2017-12-09T18:18:34Z</time>
      </trkpt>
      <trkpt lat="40.758619" lon="-3.034946">
        <ele>972.191</ele>
        <time>2017-12-09T18:18:35Z</time>
      </trkpt>
      <trkpt lat="40.758557" lon="-3.035033">
        <ele>972.842</ele>
        <time>2017-12-09T18:18:36Z</time>
      </trkpt>
      <trkpt lat="40.758475" lon="-3.035071">
        <ele>973.226</ele>
        <time>2017-12-09T18:18:37Z</time>
      </trkpt>
      <trkpt lat="40.758408" lon="-3.035079">
        <ele>973.297</ele>
        <time>2017-12-09T18:18:38Z</time>
      </trkpt>
      <trkpt lat="40.758349" lon="-3.035084">
        <ele>973.513</ele>
        <time>2017-12-09T18:18:39Z</time>
      </trkpt>
      <trkpt lat="40.758300" lon="-3.035077">
        <ele>973.816</ele>
        <time>2017-12-09T18:18:40Z</time>
      </trkpt>
      <trkpt lat="40.758248" lon="-3.035064">
        <ele>973.959</ele>
        <time>2017-12-09T18:18:41Z</time>
      </trkpt>
      <trkpt lat="40.758160" lon="-3.035038">
        <ele>974.203</ele>
        <time>2017-12-09T18:18:43Z</time>
      </trkpt>
      <trkpt lat="40.758071" lon="-3.035008">
        <ele>975.023</ele>
        <time>2017-12-09T18:18:45Z</time>
      </trkpt>
      <trkpt lat="40.758014" lon="-3.034990">
        <ele>975.308</ele>
        <time>2017-12-09T18:18:46Z</time>
      </trkpt>
      <trkpt lat="40.757938" lon="-3.034988">
        <ele>975.857</ele>
        <time>2017-12-09T18:18:47Z</time>
      </trkpt>
      <trkpt lat="40.757860" lon="-3.034978">
        <ele>976.226</ele>
        <time>2017-12-09T18:18:48Z</time>
      </trkpt>
      <trkpt lat="40.757783" lon="-3.034970">
        <ele>976.499</ele>
        <time>2017-12-09T18:18:49Z</time>
      </trkpt>
      <trkpt lat="40.757701" lon="-3.034964">
        <ele>976.610</ele>
        <time>2017-12-09T18:18:50Z</time>
      </trkpt>
      <trkpt lat="40.757617" lon="-3.034959">
        <ele>977.044</ele>
        <time>2017-12-09T18:18:51Z</time>
      </trkpt>
      <trkpt lat="40.757540" lon="-3.034953">
        <ele>977.135</ele>
        <time>2017-12-09T18:18:52Z</time>
      </trkpt>
      <trkpt lat="40.757459" lon="-3.034943">
        <ele>977.671</ele>
        <time>2017-12-09T18:18:53Z</time>
      </trkpt>
      <trkpt lat="40.757377" lon="-3.034926">
        <ele>977.844</ele>
        <time>2017-12-09T18:18:54Z</time>
      </trkpt>
      <trkpt lat="40.757302" lon="-3.034910">
        <ele>978.165</ele>
        <time>2017-12-09T18:18:55Z</time>
      </trkpt>
      <trkpt lat="40.757231" lon="-3.034900">
        <ele>978.568</ele>
        <time>2017-12-09T18:18:56Z</time>
      </trkpt>
      <trkpt lat="40.757154" lon="-3.034889">
        <ele>978.714</ele>
        <time>2017-12-09T18:18:57Z</time>
      </trkpt>
      <trkpt lat="40.757075" lon="-3.034876">
        <ele>979.008</ele>
        <time>2017-12-09T18:18:58Z</time>
      </trkpt>
      <trkpt lat="40.756994" lon="-3.034867">
        <ele>979.378</ele>
        <time>2017-12-09T18:18:59Z</time>
      </trkpt>
      <trkpt lat="40.756924" lon="-3.034863">
        <ele>979.597</ele>
        <time>2017-12-09T18:19:00Z</time>
      </trkpt>
      <trkpt lat="40.756850" lon="-3.034849">
        <ele>979.550</ele>
        <time>2017-12-09T18:19:01Z</time>
      </trkpt>
      <trkpt lat="40.756780" lon="-3.034835">
        <ele>979.961</ele>
        <time>2017-12-09T18:19:02Z</time>
      </trkpt>
      <trkpt lat="40.756706" lon="-3.034825">
        <ele>980.185</ele>
        <time>2017-12-09T18:19:03Z</time>
      </trkpt>
      <trkpt lat="40.756630" lon="-3.034814">
        <ele>980.526</ele>
        <time>2017-12-09T18:19:04Z</time>
      </trkpt>
      <trkpt lat="40.756565" lon="-3.034796">
        <ele>980.632</ele>
        <time>2017-12-09T18:19:05Z</time>
      </trkpt>
      <trkpt lat="40.756496" lon="-3.034781">
        <ele>980.735</ele>
        <time>2017-12-09T18:19:06Z</time>
      </trkpt>
      <trkpt lat="40.756432" lon="-3.034769">
        <ele>981.013</ele>
        <time>2017-12-09T18:19:07Z</time>
      </trkpt>
      <trkpt lat="40.756371" lon="-3.034764">
        <ele>981.143</ele>
        <time>2017-12-09T18:19:08Z</time>
      </trkpt>
      <trkpt lat="40.756308" lon="-3.034782">
        <ele>981.207</ele>
        <time>2017-12-09T18:19:09Z</time>
      </trkpt>
      <trkpt lat="40.756253" lon="-3.034813">
        <ele>981.408</ele>
        <time>2017-12-09T18:19:10Z</time>
      </trkpt>
      <trkpt lat="40.756214" lon="-3.034868">
        <ele>981.633</ele>
        <time>2017-12-09T18:19:11Z</time>
      </trkpt>
      <trkpt lat="40.756181" lon="-3.034930">
        <ele>981.542</ele>
        <time>2017-12-09T18:19:12Z</time>
      </trkpt>
      <trkpt lat="40.756144" lon="-3.034981">
        <ele>981.155</ele>
        <time>2017-12-09T18:19:13Z</time>
      </trkpt>
      <trkpt lat="40.756102" lon="-3.035018">
        <ele>981.156</ele>
        <time>2017-12-09T18:19:14Z</time>
      </trkpt>
      <trkpt lat="40.756056" lon="-3.035051">
        <ele>980.920</ele>
        <time>2017-12-09T18:19:15Z</time>
      </trkpt>
      <trkpt lat="40.756012" lon="-3.035072">
        <ele>980.781</ele>
        <time>2017-12-09T18:19:16Z</time>
      </trkpt>
      <trkpt lat="40.755930" lon="-3.035081">
        <ele>980.877</ele>
        <time>2017-12-09T18:19:18Z</time>
      </trkpt>
      <trkpt lat="40.755873" lon="-3.035080">
        <ele>980.410</ele>
        <time>2017-12-09T18:19:20Z</time>
      </trkpt>
      <trkpt lat="40.755730" lon="-3.034882">
        <ele>985.647</ele>
        <time>2017-12-09T18:23:00Z</time>
      </trkpt>
      <trkpt lat="40.755702" lon="-3.034790">
        <ele>986.429</ele>
        <time>2017-12-09T18:23:03Z</time>
      </trkpt>
      <trkpt lat="40.755674" lon="-3.034703">
        <ele>986.621</ele>
        <time>2017-12-09T18:23:05Z</time>
      </trkpt>
      <trkpt lat="40.755614" lon="-3.034629">
        <ele>986.808</ele>
        <time>2017-12-09T18:23:07Z</time>
      </trkpt>
      <trkpt lat="40.755570" lon="-3.034612">
        <ele>986.976</ele>
        <time>2017-12-09T18:23:08Z</time>
      </trkpt>
      <trkpt lat="40.755524" lon="-3.034608">
        <ele>986.755</ele>
        <time>2017-12-09T18:23:09Z</time>
      </trkpt>
      <trkpt lat="40.755457" lon="-3.034635">
        <ele>986.828</ele>
        <time>2017-12-09T18:23:10Z</time>
      </trkpt>
      <trkpt lat="40.755400" lon="-3.034627">
        <ele>986.919</ele>
        <time>2017-12-09T18:23:11Z</time>
      </trkpt>
      <trkpt lat="40.755337" lon="-3.034614">
        <ele>987.023</ele>
        <time>2017-12-09T18:23:12Z</time>
      </trkpt>
      <trkpt lat="40.755263" lon="-3.034604">
        <ele>987.034</ele>
        <time>2017-12-09T18:23:13Z</time>
      </trkpt>
      <trkpt lat="40.755186" lon="-3.034592">
        <ele>986.850</ele>
        <time>2017-12-09T18:23:14Z</time>
      </trkpt>
      <trkpt lat="40.755110" lon="-3.034582">
        <ele>986.873</ele>
        <time>2017-12-09T18:23:15Z</time>
      </trkpt>
      <trkpt lat="40.755036" lon="-3.034571">
        <ele>986.866</ele>
        <time>2017-12-09T18:23:16Z</time>
      </trkpt>
      <trkpt lat="40.754955" lon="-3.034561">
        <ele>986.829</ele>
        <time>2017-12-09T18:23:17Z</time>
      </trkpt>
      <trkpt lat="40.754869" lon="-3.034544">
        <ele>986.821</ele>
        <time>2017-12-09T18:23:18Z</time>
      </trkpt>
      <trkpt lat="40.754786" lon="-3.034524">
        <ele>986.708</ele>
        <time>2017-12-09T18:23:19Z</time>
      </trkpt>
      <trkpt lat="40.754702" lon="-3.034506">
        <ele>986.628</ele>
        <time>2017-12-09T18:23:20Z</time>
      </trkpt>
      <trkpt lat="40.754612" lon="-3.034494">
        <ele>986.627</ele>
        <time>2017-12-09T18:23:21Z</time>
      </trkpt>
      <trkpt lat="40.754518" lon="-3.034479">
        <ele>986.510</ele>
        <time>2017-12-09T18:23:22Z</time>
      </trkpt>
      <trkpt lat="40.754422" lon="-3.034461">
        <ele>986.511</ele>
        <time>2017-12-09T18:23:23Z</time>
      </trkpt>
      <trkpt lat="40.754332" lon="-3.034443">
        <ele>986.695</ele>
        <time>2017-12-09T18:23:24Z</time>
      </trkpt>
      <trkpt lat="40.754237" lon="-3.034431">
        <ele>986.566</ele>
        <time>2017-12-09T18:23:25Z</time>
      </trkpt>
      <trkpt lat="40.754138" lon="-3.034413">
        <ele>986.382</ele>
        <time>2017-12-09T18:23:26Z</time>
      </trkpt>
      <trkpt lat="40.754043" lon="-3.034399">
        <ele>986.495</ele>
        <time>2017-12-09T18:23:27Z</time>
      </trkpt>
      <trkpt lat="40.753943" lon="-3.034385">
        <ele>986.175</ele>
        <time>2017-12-09T18:23:28Z</time>
      </trkpt>
      <trkpt lat="40.753855" lon="-3.034366">
        <ele>986.028</ele>
        <time>2017-12-09T18:23:29Z</time>
      </trkpt>
      <trkpt lat="40.753769" lon="-3.034356">
        <ele>985.920</ele>
        <time>2017-12-09T18:23:30Z</time>
      </trkpt>
      <trkpt lat="40.753678" lon="-3.034337">
        <ele>985.908</ele>
        <time>2017-12-09T18:23:31Z</time>
      </trkpt>
      <trkpt lat="40.753591" lon="-3.034321">
        <ele>985.969</ele>
        <time>2017-12-09T18:23:32Z</time>
      </trkpt>
      <trkpt lat="40.753512" lon="-3.034308">
        <ele>985.848</ele>
        <time>2017-12-09T18:23:33Z</time>
      </trkpt>
      <trkpt lat="40.753434" lon="-3.034295">
        <ele>985.741</ele>
        <time>2017-12-09T18:23:34Z</time>
      </trkpt>
      <trkpt lat="40.753357" lon="-3.034305">
        <ele>985.782</ele>
        <time>2017-12-09T18:23:35Z</time>
      </trkpt>
      <trkpt lat="40.753298" lon="-3.034347">
        <ele>985.686</ele>
        <time>2017-12-09T18:23:36Z</time>
      </trkpt>
      <trkpt lat="40.753245" lon="-3.034406">
        <ele>985.837</ele>
        <time>2017-12-09T18:23:37Z</time>
      </trkpt>
      <trkpt lat="40.753193" lon="-3.034467">
        <ele>985.773</ele>
        <time>2017-12-09T18:23:38Z</time>
      </trkpt>
      <trkpt lat="40.753134" lon="-3.034509">
        <ele>985.976</ele>
        <time>2017-12-09T18:23:39Z</time>
      </trkpt>
      <trkpt lat="40.753063" lon="-3.034525">
        <ele>985.813</ele>
        <time>2017-12-09T18:23:40Z</time>
      </trkpt>
      <trkpt lat="40.752991" lon="-3.034521">
        <ele>985.843</ele>
        <time>2017-12-09T18:23:41Z</time>
      </trkpt>
      <trkpt lat="40.752923" lon="-3.034493">
        <ele>985.707</ele>
        <time>2017-12-09T18:23:42Z</time>
      </trkpt>
      <trkpt lat="40.752856" lon="-3.034442">
        <ele>985.208</ele>
        <time>2017-12-09T18:23:44Z</time>
      </trkpt>
      <trkpt lat="40.752817" lon="-3.034397">
        <ele>985.423</ele>
        <time>2017-12-09T18:23:46Z</time>
      </trkpt>
      <trkpt lat="40.752790" lon="-3.034328">
        <ele>985.892</ele>
        <time>2017-12-09T18:23:48Z</time>
      </trkpt>
      <trkpt lat="40.752782" lon="-3.034258">
        <ele>985.785</ele>
        <time>2017-12-09T18:23:50Z</time>
      </trkpt>
      <trkpt lat="40.752775" lon="-3.034194">
        <ele>985.826</ele>
        <time>2017-12-09T18:23:52Z</time>
      </trkpt>
      <trkpt lat="40.752788" lon="-3.034111">
        <ele>985.920</ele>
        <time>2017-12-09T18:23:54Z</time>
      </trkpt>
      <trkpt lat="40.752822" lon="-3.034021">
        <ele>985.981</ele>
        <time>2017-12-09T18:23:56Z</time>
      </trkpt>
      <trkpt lat="40.752884" lon="-3.033939">
        <ele>985.987</ele>
        <time>2017-12-09T18:23:58Z</time>
      </trkpt>
      <trkpt lat="40.753000" lon="-3.033923">
        <ele>985.940</ele>
        <time>2017-12-09T18:24:00Z</time>
      </trkpt>
      <trkpt lat="40.753067" lon="-3.033923">
        <ele>986.017</ele>
        <time>2017-12-09T18:24:01Z</time>
      </trkpt>
      <trkpt lat="40.753143" lon="-3.033961">
        <ele>986.087</ele>
        <time>2017-12-09T18:24:02Z</time>
      </trkpt>
      <trkpt lat="40.753202" lon="-3.034021">
        <ele>986.015</ele>
        <time>2017-12-09T18:24:03Z</time>
      </trkpt>
      <trkpt lat="40.753249" lon="-3.034107">
        <ele>986.008</ele>
        <time>2017-12-09T18:24:04Z</time>
      </trkpt>
      <trkpt lat="40.753268" lon="-3.034209">
        <ele>985.993</ele>
        <time>2017-12-09T18:24:05Z</time>
      </trkpt>
      <trkpt lat="40.753258" lon="-3.034316">
        <ele>985.962</ele>
        <time>2017-12-09T18:24:06Z</time>
      </trkpt>
      <trkpt lat="40.753218" lon="-3.034407">
        <ele>985.935</ele>
        <time>2017-12-09T18:24:07Z</time>
      </trkpt>
      <trkpt lat="40.753165" lon="-3.034480">
        <ele>985.996</ele>
        <time>2017-12-09T18:24:08Z</time>
      </trkpt>
      <trkpt lat="40.753092" lon="-3.034519">
        <ele>986.040</ele>
        <time>2017-12-09T18:24:09Z</time>
      </trkpt>
      <trkpt lat="40.753009" lon="-3.034528">
        <ele>986.121</ele>
        <time>2017-12-09T18:24:10Z</time>
      </trkpt>
      <trkpt lat="40.752930" lon="-3.034511">
        <ele>986.027</ele>
        <time>2017-12-09T18:24:11Z</time>
      </trkpt>
      <trkpt lat="40.752857" lon="-3.034491">
        <ele>986.010</ele>
        <time>2017-12-09T18:24:12Z</time>
      </trkpt>
      <trkpt lat="40.752785" lon="-3.034502">
        <ele>985.922</ele>
        <time>2017-12-09T18:24:13Z</time>
      </trkpt>
      <trkpt lat="40.752714" lon="-3.034529">
        <ele>986.062</ele>
        <time>2017-12-09T18:24:14Z</time>
      </trkpt>
      <trkpt lat="40.752628" lon="-3.034528">
        <ele>986.108</ele>
        <time>2017-12-09T18:24:15Z</time>
      </trkpt>
      <trkpt lat="40.752547" lon="-3.034496">
        <ele>986.308</ele>
        <time>2017-12-09T18:24:16Z</time>
      </trkpt>
      <trkpt lat="40.752463" lon="-3.034435">
        <ele>986.584</ele>
        <time>2017-12-09T18:24:17Z</time>
      </trkpt>
      <trkpt lat="40.752377" lon="-3.034353">
        <ele>986.663</ele>
        <time>2017-12-09T18:24:18Z</time>
      </trkpt>
      <trkpt lat="40.752293" lon="-3.034298">
        <ele>986.396</ele>
        <time>2017-12-09T18:24:19Z</time>
      </trkpt>
      <trkpt lat="40.752204" lon="-3.034242">
        <ele>986.587</ele>
        <time>2017-12-09T18:24:20Z</time>
      </trkpt>
      <trkpt lat="40.752116" lon="-3.034199">
        <ele>986.491</ele>
        <time>2017-12-09T18:24:21Z</time>
      </trkpt>
      <trkpt lat="40.752014" lon="-3.034164">
        <ele>986.762</ele>
        <time>2017-12-09T18:24:22Z</time>
      </trkpt>
      <trkpt lat="40.751916" lon="-3.034142">
        <ele>986.658</ele>
        <time>2017-12-09T18:24:23Z</time>
      </trkpt>
      <trkpt lat="40.751823" lon="-3.034126">
        <ele>986.771</ele>
        <time>2017-12-09T18:24:24Z</time>
      </trkpt>
      <trkpt lat="40.751730" lon="-3.034114">
        <ele>986.982</ele>
        <time>2017-12-09T18:24:25Z</time>
      </trkpt>
      <trkpt lat="40.751640" lon="-3.034099">
        <ele>987.143</ele>
        <time>2017-12-09T18:24:26Z</time>
      </trkpt>
      <trkpt lat="40.751549" lon="-3.034085">
        <ele>987.217</ele>
        <time>2017-12-09T18:24:27Z</time>
      </trkpt>
      <trkpt lat="40.751460" lon="-3.034071">
        <ele>986.908</ele>
        <time>2017-12-09T18:24:28Z</time>
      </trkpt>
      <trkpt lat="40.751377" lon="-3.034063">
        <ele>986.730</ele>
        <time>2017-12-09T18:24:29Z</time>
      </trkpt>
      <trkpt lat="40.751296" lon="-3.034053">
        <ele>986.599</ele>
        <time>2017-12-09T18:24:30Z</time>
      </trkpt>
      <trkpt lat="40.751229" lon="-3.034048">
        <ele>986.222</ele>
        <time>2017-12-09T18:24:31Z</time>
      </trkpt>
      <trkpt lat="40.751163" lon="-3.034034">
        <ele>986.333</ele>
        <time>2017-12-09T18:24:32Z</time>
      </trkpt>
      <trkpt lat="40.751106" lon="-3.034001">
        <ele>986.277</ele>
        <time>2017-12-09T18:24:33Z</time>
      </trkpt>
      <trkpt lat="40.751057" lon="-3.033957">
        <ele>986.598</ele>
        <time>2017-12-09T18:24:34Z</time>
      </trkpt>
      <trkpt lat="40.751000" lon="-3.033915">
        <ele>986.594</ele>
        <time>2017-12-09T18:24:35Z</time>
      </trkpt>
      <trkpt lat="40.750938" lon="-3.033887">
        <ele>986.557</ele>
        <time>2017-12-09T18:24:36Z</time>
      </trkpt>
      <trkpt lat="40.750858" lon="-3.033872">
        <ele>986.542</ele>
        <time>2017-12-09T18:24:37Z</time>
      </trkpt>
      <trkpt lat="40.750766" lon="-3.033855">
        <ele>986.522</ele>
        <time>2017-12-09T18:24:38Z</time>
      </trkpt>
      <trkpt lat="40.750670" lon="-3.033840">
        <ele>986.614</ele>
        <time>2017-12-09T18:24:39Z</time>
      </trkpt>
      <trkpt lat="40.750554" lon="-3.033818">
        <ele>986.708</ele>
        <time>2017-12-09T18:24:40Z</time>
      </trkpt>
      <trkpt lat="40.750434" lon="-3.033781">
        <ele>986.736</ele>
        <time>2017-12-09T18:24:41Z</time>
      </trkpt>
      <trkpt lat="40.750315" lon="-3.033741">
        <ele>986.695</ele>
        <time>2017-12-09T18:24:42Z</time>
      </trkpt>
      <trkpt lat="40.750197" lon="-3.033692">
        <ele>986.378</ele>
        <time>2017-12-09T18:24:43Z</time>
      </trkpt>
      <trkpt lat="40.750081" lon="-3.033639">
        <ele>985.939</ele>
        <time>2017-12-09T18:24:44Z</time>
      </trkpt>
      <trkpt lat="40.749973" lon="-3.033585">
        <ele>985.323</ele>
        <time>2017-12-09T18:24:45Z</time>
      </trkpt>
      <trkpt lat="40.749864" lon="-3.033530">
        <ele>984.534</ele>
        <time>2017-12-09T18:24:46Z</time>
      </trkpt>
      <trkpt lat="40.749754" lon="-3.033473">
        <ele>984.050</ele>
        <time>2017-12-09T18:24:47Z</time>
      </trkpt>
      <trkpt lat="40.749644" lon="-3.033422">
        <ele>983.593</ele>
        <time>2017-12-09T18:24:48Z</time>
      </trkpt>
      <trkpt lat="40.749541" lon="-3.033371">
        <ele>982.993</ele>
        <time>2017-12-09T18:24:49Z</time>
      </trkpt>
      <trkpt lat="40.749449" lon="-3.033326">
        <ele>982.265</ele>
        <time>2017-12-09T18:24:50Z</time>
      </trkpt>
      <trkpt lat="40.749370" lon="-3.033299">
        <ele>982.021</ele>
        <time>2017-12-09T18:24:51Z</time>
      </trkpt>
      <trkpt lat="40.749296" lon="-3.033288">
        <ele>981.608</ele>
        <time>2017-12-09T18:24:52Z</time>
      </trkpt>
      <trkpt lat="40.749231" lon="-3.033298">
        <ele>981.541</ele>
        <time>2017-12-09T18:24:53Z</time>
      </trkpt>
      <trkpt lat="40.749174" lon="-3.033351">
        <ele>981.510</ele>
        <time>2017-12-09T18:24:54Z</time>
      </trkpt>
      <trkpt lat="40.749123" lon="-3.033421">
        <ele>981.823</ele>
        <time>2017-12-09T18:24:55Z</time>
      </trkpt>
      <trkpt lat="40.749085" lon="-3.033515">
        <ele>982.074</ele>
        <time>2017-12-09T18:24:56Z</time>
      </trkpt>
      <trkpt lat="40.749021" lon="-3.033580">
        <ele>982.148</ele>
        <time>2017-12-09T18:24:57Z</time>
      </trkpt>
      <trkpt lat="40.748947" lon="-3.033631">
        <ele>982.399</ele>
        <time>2017-12-09T18:24:58Z</time>
      </trkpt>
      <trkpt lat="40.748868" lon="-3.033654">
        <ele>982.165</ele>
        <time>2017-12-09T18:24:59Z</time>
      </trkpt>
      <trkpt lat="40.748802" lon="-3.033638">
        <ele>981.828</ele>
        <time>2017-12-09T18:25:00Z</time>
      </trkpt>
      <trkpt lat="40.748732" lon="-3.033613">
        <ele>981.224</ele>
        <time>2017-12-09T18:25:01Z</time>
      </trkpt>
      <trkpt lat="40.748660" lon="-3.033568">
        <ele>980.804</ele>
        <time>2017-12-09T18:25:02Z</time>
      </trkpt>
      <trkpt lat="40.748592" lon="-3.033540">
        <ele>980.314</ele>
        <time>2017-12-09T18:25:03Z</time>
      </trkpt>
      <trkpt lat="40.748519" lon="-3.033523">
        <ele>980.308</ele>
        <time>2017-12-09T18:25:04Z</time>
      </trkpt>
      <trkpt lat="40.748454" lon="-3.033524">
        <ele>980.134</ele>
        <time>2017-12-09T18:25:05Z</time>
      </trkpt>
      <trkpt lat="40.748396" lon="-3.033538">
        <ele>979.973</ele>
        <time>2017-12-09T18:25:06Z</time>
      </trkpt>
      <trkpt lat="40.748341" lon="-3.033537">
        <ele>979.716</ele>
        <time>2017-12-09T18:25:07Z</time>
      </trkpt>
      <trkpt lat="40.748293" lon="-3.033514">
        <ele>979.517</ele>
        <time>2017-12-09T18:25:08Z</time>
      </trkpt>
      <trkpt lat="40.748249" lon="-3.033476">
        <ele>979.511</ele>
        <time>2017-12-09T18:25:09Z</time>
      </trkpt>
      <trkpt lat="40.748218" lon="-3.033419">
        <ele>979.512</ele>
        <time>2017-12-09T18:25:10Z</time>
      </trkpt>
      <trkpt lat="40.748193" lon="-3.033357">
        <ele>979.318</ele>
        <time>2017-12-09T18:25:11Z</time>
      </trkpt>
      <trkpt lat="40.748174" lon="-3.033298">
        <ele>979.121</ele>
        <time>2017-12-09T18:25:12Z</time>
      </trkpt>
      <trkpt lat="40.748156" lon="-3.033237">
        <ele>979.065</ele>
        <time>2017-12-09T18:25:13Z</time>
      </trkpt>
      <trkpt lat="40.748145" lon="-3.033133">
        <ele>978.968</ele>
        <time>2017-12-09T18:25:15Z</time>
      </trkpt>
      <trkpt lat="40.748151" lon="-3.033058">
        <ele>978.914</ele>
        <time>2017-12-09T18:25:17Z</time>
      </trkpt>
      <trkpt lat="40.748179" lon="-3.033010">
        <ele>979.008</ele>
        <time>2017-12-09T18:25:20Z</time>
      </trkpt>
    </trkseg>
  </trk>
</gpx>
